<?xml version="1.0" encoding="UTF-8" standalone="no" ?>
<gpx xmlns="http://www.topografix.com/GPX/1/1" xmlns:xsi="http://www.w3.org/2001/XMLSchema-instance" xsi:schemaLocation="http://www.topografix.com/GPX/1/1 http://www.topografix.com/GPX/1/1/gpx.xsd" version="1.1" creator="VisuGPX - https://www.visugpx.com">
  <metadata>
    <name>Baichamp guided tour</name>
    <desc><![CDATA[Neige et boue]]></desc>
  </metadata>
  <wpt lat="47.50557" lon="6.76633">
    <ele>399</ele>
    <name><![CDATA[Point de cheminement 1]]></name>
    <desc><![CDATA[]]></desc>
  </wpt>
  <wpt lat="47.48929" lon="6.77596">
    <ele>316</ele>
    <name><![CDATA[Point de cheminement 2]]></name>
    <desc><![CDATA[]]></desc>
  </wpt>
  <wpt lat="47.48607" lon="6.7951">
    <ele>312</ele>
    <name><![CDATA[Point de cheminement 3]]></name>
    <desc><![CDATA[]]></desc>
  </wpt>
  <wpt lat="47.47442" lon="6.82057">
    <ele>381</ele>
    <name><![CDATA[Point de cheminement 4]]></name>
    <desc><![CDATA[]]></desc>
  </wpt>
  <wpt lat="47.46242" lon="6.81235">
    <ele>413</ele>
    <name><![CDATA[Point de cheminement 5]]></name>
    <desc><![CDATA[]]></desc>
  </wpt>
  <wpt lat="47.46409" lon="6.7941">
    <ele>385</ele>
    <name><![CDATA[Point de cheminement 6]]></name>
    <desc><![CDATA[]]></desc>
  </wpt>
  <wpt lat="47.46032" lon="6.78163">
    <ele>417</ele>
    <name><![CDATA[Point de cheminement 7]]></name>
    <desc><![CDATA[]]></desc>
  </wpt>
  <wpt lat="47.46418" lon="6.77401">
    <ele>420</ele>
    <name><![CDATA[Point de cheminement 8]]></name>
    <desc><![CDATA[]]></desc>
  </wpt>
  <wpt lat="47.47624" lon="6.7736">
    <ele>312</ele>
    <name><![CDATA[Point de cheminement 9]]></name>
    <desc><![CDATA[]]></desc>
  </wpt>
  <wpt lat="47.50824" lon="6.77611">
    <ele>316</ele>
    <name><![CDATA[Point de cheminement 10]]></name>
    <desc><![CDATA[]]></desc>
  </wpt>
  <wpt lat="47.51806" lon="6.77482">
    <ele>388</ele>
    <name><![CDATA[Point de cheminement 11]]></name>
    <desc><![CDATA[]]></desc>
  </wpt>
  <trk>
    <name><![CDATA[Rue Antoine Coysevox]]></name>
    <desc><![CDATA[]]></desc>
    <trkseg>
      <trkpt lat="47.5179" lon="6.77459">
        <ele>388</ele>
        <time>2016-01-17T08:12:05.000Z</time>
      </trkpt>
      <trkpt lat="47.51804" lon="6.77463">
        <ele>388</ele>
        <time>2016-01-17T08:12:06.000Z</time>
      </trkpt>
      <trkpt lat="47.51807" lon="6.77464">
        <ele>388</ele>
        <time>2016-01-17T08:12:07.000Z</time>
      </trkpt>
      <trkpt lat="47.51815" lon="6.77464">
        <ele>387</ele>
        <time>2016-01-17T08:12:08.000Z</time>
      </trkpt>
      <trkpt lat="47.51811" lon="6.77465">
        <ele>388</ele>
        <time>2016-01-17T08:16:09.000Z</time>
      </trkpt>
      <trkpt lat="47.51808" lon="6.77476">
        <ele>388</ele>
        <time>2016-01-17T08:16:10.000Z</time>
      </trkpt>
      <trkpt lat="47.51804" lon="6.77478">
        <ele>388</ele>
        <time>2016-01-17T08:16:13.000Z</time>
      </trkpt>
      <trkpt lat="47.51803" lon="6.77479">
        <ele>388</ele>
        <time>2016-01-17T08:16:14.000Z</time>
      </trkpt>
      <trkpt lat="47.51803" lon="6.77485">
        <ele>388</ele>
        <time>2016-01-17T08:16:15.000Z</time>
      </trkpt>
      <trkpt lat="47.51803" lon="6.77489">
        <ele>388</ele>
        <time>2016-01-17T08:16:16.000Z</time>
      </trkpt>
      <trkpt lat="47.51802" lon="6.77482">
        <ele>388</ele>
        <time>2016-01-17T08:16:28.000Z</time>
      </trkpt>
      <trkpt lat="47.51802" lon="6.77482">
        <ele>388</ele>
        <time>2016-01-17T08:16:29.000Z</time>
      </trkpt>
      <trkpt lat="47.51806" lon="6.77481">
        <ele>388</ele>
        <time>2016-01-17T08:18:39.000Z</time>
      </trkpt>
      <trkpt lat="47.51807" lon="6.77485">
        <ele>388</ele>
        <time>2016-01-17T08:18:40.000Z</time>
      </trkpt>
      <trkpt lat="47.5181" lon="6.77488">
        <ele>388</ele>
        <time>2016-01-17T08:18:45.000Z</time>
      </trkpt>
      <trkpt lat="47.51811" lon="6.77489">
        <ele>388</ele>
        <time>2016-01-17T08:18:46.000Z</time>
      </trkpt>
      <trkpt lat="47.51809" lon="6.77495">
        <ele>388</ele>
        <time>2016-01-17T08:18:54.000Z</time>
      </trkpt>
      <trkpt lat="47.51808" lon="6.77495">
        <ele>388</ele>
        <time>2016-01-17T08:18:55.000Z</time>
      </trkpt>
      <trkpt lat="47.51804" lon="6.77494">
        <ele>388</ele>
        <time>2016-01-17T08:18:58.000Z</time>
      </trkpt>
      <trkpt lat="47.51801" lon="6.77492">
        <ele>388</ele>
        <time>2016-01-17T08:18:59.000Z</time>
      </trkpt>
      <trkpt lat="47.51797" lon="6.7749">
        <ele>388</ele>
        <time>2016-01-17T08:19:00.000Z</time>
      </trkpt>
      <trkpt lat="47.51793" lon="6.77488">
        <ele>388</ele>
        <time>2016-01-17T08:19:01.000Z</time>
      </trkpt>
      <trkpt lat="47.51789" lon="6.77486">
        <ele>388</ele>
        <time>2016-01-17T08:19:02.000Z</time>
      </trkpt>
      <trkpt lat="47.51785" lon="6.77484">
        <ele>388</ele>
        <time>2016-01-17T08:19:03.000Z</time>
      </trkpt>
      <trkpt lat="47.51781" lon="6.77482">
        <ele>388</ele>
        <time>2016-01-17T08:19:04.000Z</time>
      </trkpt>
      <trkpt lat="47.51777" lon="6.77481">
        <ele>388</ele>
        <time>2016-01-17T08:19:05.000Z</time>
      </trkpt>
      <trkpt lat="47.51772" lon="6.7748">
        <ele>388</ele>
        <time>2016-01-17T08:19:06.000Z</time>
      </trkpt>
      <trkpt lat="47.51769" lon="6.77479">
        <ele>388</ele>
        <time>2016-01-17T08:19:07.000Z</time>
      </trkpt>
      <trkpt lat="47.51765" lon="6.77478">
        <ele>388</ele>
        <time>2016-01-17T08:19:08.000Z</time>
      </trkpt>
      <trkpt lat="47.51761" lon="6.77477">
        <ele>389</ele>
        <time>2016-01-17T08:19:09.000Z</time>
      </trkpt>
      <trkpt lat="47.51758" lon="6.77476">
        <ele>389</ele>
        <time>2016-01-17T08:19:10.000Z</time>
      </trkpt>
      <trkpt lat="47.51755" lon="6.77475">
        <ele>389</ele>
        <time>2016-01-17T08:19:11.000Z</time>
      </trkpt>
      <trkpt lat="47.51751" lon="6.77474">
        <ele>389</ele>
        <time>2016-01-17T08:19:12.000Z</time>
      </trkpt>
      <trkpt lat="47.51748" lon="6.77474">
        <ele>389</ele>
        <time>2016-01-17T08:19:13.000Z</time>
      </trkpt>
      <trkpt lat="47.51744" lon="6.77474">
        <ele>389</ele>
        <time>2016-01-17T08:19:14.000Z</time>
      </trkpt>
      <trkpt lat="47.51741" lon="6.77473">
        <ele>389</ele>
        <time>2016-01-17T08:19:15.000Z</time>
      </trkpt>
      <trkpt lat="47.51738" lon="6.77473">
        <ele>389</ele>
        <time>2016-01-17T08:19:16.000Z</time>
      </trkpt>
      <trkpt lat="47.51735" lon="6.77473">
        <ele>389</ele>
        <time>2016-01-17T08:19:17.000Z</time>
      </trkpt>
      <trkpt lat="47.51732" lon="6.77473">
        <ele>389</ele>
        <time>2016-01-17T08:19:18.000Z</time>
      </trkpt>
      <trkpt lat="47.51729" lon="6.77475">
        <ele>389</ele>
        <time>2016-01-17T08:19:19.000Z</time>
      </trkpt>
      <trkpt lat="47.51726" lon="6.77479">
        <ele>389</ele>
        <time>2016-01-17T08:19:20.000Z</time>
      </trkpt>
      <trkpt lat="47.51724" lon="6.77483">
        <ele>389</ele>
        <time>2016-01-17T08:19:21.000Z</time>
      </trkpt>
      <trkpt lat="47.51721" lon="6.77488">
        <ele>389</ele>
        <time>2016-01-17T08:19:22.000Z</time>
      </trkpt>
      <trkpt lat="47.5172" lon="6.77493">
        <ele>389</ele>
        <time>2016-01-17T08:19:23.000Z</time>
      </trkpt>
      <trkpt lat="47.51719" lon="6.77499">
        <ele>389</ele>
        <time>2016-01-17T08:19:24.000Z</time>
      </trkpt>
      <trkpt lat="47.51719" lon="6.77505">
        <ele>390</ele>
        <time>2016-01-17T08:19:25.000Z</time>
      </trkpt>
      <trkpt lat="47.51718" lon="6.77512">
        <ele>390</ele>
        <time>2016-01-17T08:19:26.000Z</time>
      </trkpt>
      <trkpt lat="47.51717" lon="6.77522">
        <ele>390</ele>
        <time>2016-01-17T08:19:27.000Z</time>
      </trkpt>
      <trkpt lat="47.51716" lon="6.77528">
        <ele>390</ele>
        <time>2016-01-17T08:19:28.000Z</time>
      </trkpt>
      <trkpt lat="47.51715" lon="6.77533">
        <ele>390</ele>
        <time>2016-01-17T08:19:29.000Z</time>
      </trkpt>
      <trkpt lat="47.51715" lon="6.77538">
        <ele>390</ele>
        <time>2016-01-17T08:19:30.000Z</time>
      </trkpt>
      <trkpt lat="47.51713" lon="6.77541">
        <ele>390</ele>
        <time>2016-01-17T08:19:31.000Z</time>
      </trkpt>
      <trkpt lat="47.51712" lon="6.77544">
        <ele>390</ele>
        <time>2016-01-17T08:19:32.000Z</time>
      </trkpt>
      <trkpt lat="47.51709" lon="6.77546">
        <ele>390</ele>
        <time>2016-01-17T08:19:33.000Z</time>
      </trkpt>
      <trkpt lat="47.51706" lon="6.77546">
        <ele>390</ele>
        <time>2016-01-17T08:19:34.000Z</time>
      </trkpt>
      <trkpt lat="47.51703" lon="6.77545">
        <ele>390</ele>
        <time>2016-01-17T08:19:35.000Z</time>
      </trkpt>
      <trkpt lat="47.517" lon="6.77544">
        <ele>390</ele>
        <time>2016-01-17T08:19:36.000Z</time>
      </trkpt>
      <trkpt lat="47.51697" lon="6.77542">
        <ele>390</ele>
        <time>2016-01-17T08:19:37.000Z</time>
      </trkpt>
      <trkpt lat="47.51694" lon="6.77539">
        <ele>390</ele>
        <time>2016-01-17T08:19:38.000Z</time>
      </trkpt>
      <trkpt lat="47.51691" lon="6.77536">
        <ele>390</ele>
        <time>2016-01-17T08:19:39.000Z</time>
      </trkpt>
      <trkpt lat="47.51688" lon="6.77533">
        <ele>390</ele>
        <time>2016-01-17T08:19:40.000Z</time>
      </trkpt>
      <trkpt lat="47.51685" lon="6.77529">
        <ele>390</ele>
        <time>2016-01-17T08:19:41.000Z</time>
      </trkpt>
      <trkpt lat="47.51682" lon="6.77526">
        <ele>390</ele>
        <time>2016-01-17T08:19:42.000Z</time>
      </trkpt>
      <trkpt lat="47.51679" lon="6.77522">
        <ele>390</ele>
        <time>2016-01-17T08:19:43.000Z</time>
      </trkpt>
      <trkpt lat="47.51676" lon="6.77518">
        <ele>389</ele>
        <time>2016-01-17T08:19:44.000Z</time>
      </trkpt>
      <trkpt lat="47.51672" lon="6.77514">
        <ele>389</ele>
        <time>2016-01-17T08:19:45.000Z</time>
      </trkpt>
      <trkpt lat="47.51669" lon="6.7751">
        <ele>389</ele>
        <time>2016-01-17T08:19:46.000Z</time>
      </trkpt>
      <trkpt lat="47.51666" lon="6.77506">
        <ele>389</ele>
        <time>2016-01-17T08:19:47.000Z</time>
      </trkpt>
      <trkpt lat="47.51662" lon="6.77502">
        <ele>389</ele>
        <time>2016-01-17T08:19:48.000Z</time>
      </trkpt>
      <trkpt lat="47.51659" lon="6.77498">
        <ele>388</ele>
        <time>2016-01-17T08:19:49.000Z</time>
      </trkpt>
      <trkpt lat="47.51656" lon="6.77494">
        <ele>388</ele>
        <time>2016-01-17T08:19:50.000Z</time>
      </trkpt>
      <trkpt lat="47.51653" lon="6.77489">
        <ele>387</ele>
        <time>2016-01-17T08:19:51.000Z</time>
      </trkpt>
      <trkpt lat="47.51649" lon="6.77485">
        <ele>387</ele>
        <time>2016-01-17T08:19:52.000Z</time>
      </trkpt>
      <trkpt lat="47.51645" lon="6.77481">
        <ele>387</ele>
        <time>2016-01-17T08:19:53.000Z</time>
      </trkpt>
      <trkpt lat="47.51642" lon="6.77477">
        <ele>386</ele>
        <time>2016-01-17T08:19:54.000Z</time>
      </trkpt>
      <trkpt lat="47.51638" lon="6.77472">
        <ele>386</ele>
        <time>2016-01-17T08:19:55.000Z</time>
      </trkpt>
      <trkpt lat="47.51635" lon="6.77468">
        <ele>386</ele>
        <time>2016-01-17T08:19:56.000Z</time>
      </trkpt>
      <trkpt lat="47.51631" lon="6.77463">
        <ele>386</ele>
        <time>2016-01-17T08:19:57.000Z</time>
      </trkpt>
      <trkpt lat="47.51627" lon="6.77458">
        <ele>386</ele>
        <time>2016-01-17T08:19:58.000Z</time>
      </trkpt>
      <trkpt lat="47.51623" lon="6.77453">
        <ele>386</ele>
        <time>2016-01-17T08:19:59.000Z</time>
      </trkpt>
      <trkpt lat="47.51619" lon="6.77448">
        <ele>385</ele>
        <time>2016-01-17T08:20:00.000Z</time>
      </trkpt>
      <trkpt lat="47.51615" lon="6.77443">
        <ele>385</ele>
        <time>2016-01-17T08:20:01.000Z</time>
      </trkpt>
      <trkpt lat="47.51611" lon="6.77439">
        <ele>385</ele>
        <time>2016-01-17T08:20:02.000Z</time>
      </trkpt>
      <trkpt lat="47.51606" lon="6.77433">
        <ele>385</ele>
        <time>2016-01-17T08:20:03.000Z</time>
      </trkpt>
      <trkpt lat="47.51602" lon="6.77428">
        <ele>385</ele>
        <time>2016-01-17T08:20:04.000Z</time>
      </trkpt>
      <trkpt lat="47.51597" lon="6.77423">
        <ele>384</ele>
        <time>2016-01-17T08:20:05.000Z</time>
      </trkpt>
      <trkpt lat="47.51592" lon="6.77418">
        <ele>384</ele>
        <time>2016-01-17T08:20:06.000Z</time>
      </trkpt>
      <trkpt lat="47.51588" lon="6.77412">
        <ele>383</ele>
        <time>2016-01-17T08:20:07.000Z</time>
      </trkpt>
      <trkpt lat="47.51583" lon="6.77407">
        <ele>382</ele>
        <time>2016-01-17T08:20:08.000Z</time>
      </trkpt>
      <trkpt lat="47.51578" lon="6.77401">
        <ele>382</ele>
        <time>2016-01-17T08:20:09.000Z</time>
      </trkpt>
      <trkpt lat="47.51574" lon="6.77396">
        <ele>382</ele>
        <time>2016-01-17T08:20:10.000Z</time>
      </trkpt>
      <trkpt lat="47.51569" lon="6.7739">
        <ele>381</ele>
        <time>2016-01-17T08:20:11.000Z</time>
      </trkpt>
      <trkpt lat="47.51564" lon="6.77384">
        <ele>381</ele>
        <time>2016-01-17T08:20:12.000Z</time>
      </trkpt>
      <trkpt lat="47.51559" lon="6.77378">
        <ele>381</ele>
        <time>2016-01-17T08:20:13.000Z</time>
      </trkpt>
      <trkpt lat="47.51554" lon="6.77371">
        <ele>381</ele>
        <time>2016-01-17T08:20:14.000Z</time>
      </trkpt>
      <trkpt lat="47.51548" lon="6.77365">
        <ele>381</ele>
        <time>2016-01-17T08:20:15.000Z</time>
      </trkpt>
      <trkpt lat="47.51543" lon="6.77357">
        <ele>380</ele>
        <time>2016-01-17T08:20:16.000Z</time>
      </trkpt>
      <trkpt lat="47.51537" lon="6.77351">
        <ele>380</ele>
        <time>2016-01-17T08:20:17.000Z</time>
      </trkpt>
      <trkpt lat="47.51532" lon="6.77345">
        <ele>380</ele>
        <time>2016-01-17T08:20:18.000Z</time>
      </trkpt>
      <trkpt lat="47.51526" lon="6.77338">
        <ele>380</ele>
        <time>2016-01-17T08:20:19.000Z</time>
      </trkpt>
      <trkpt lat="47.5152" lon="6.77331">
        <ele>378</ele>
        <time>2016-01-17T08:20:20.000Z</time>
      </trkpt>
      <trkpt lat="47.51514" lon="6.77323">
        <ele>378</ele>
        <time>2016-01-17T08:20:21.000Z</time>
      </trkpt>
      <trkpt lat="47.51508" lon="6.77316">
        <ele>378</ele>
        <time>2016-01-17T08:20:22.000Z</time>
      </trkpt>
      <trkpt lat="47.51502" lon="6.77308">
        <ele>378</ele>
        <time>2016-01-17T08:20:23.000Z</time>
      </trkpt>
      <trkpt lat="47.51497" lon="6.77299">
        <ele>377</ele>
        <time>2016-01-17T08:20:24.000Z</time>
      </trkpt>
      <trkpt lat="47.51494" lon="6.77289">
        <ele>377</ele>
        <time>2016-01-17T08:20:25.000Z</time>
      </trkpt>
      <trkpt lat="47.51491" lon="6.7728">
        <ele>377</ele>
        <time>2016-01-17T08:20:26.000Z</time>
      </trkpt>
      <trkpt lat="47.51489" lon="6.7727">
        <ele>376</ele>
        <time>2016-01-17T08:20:27.000Z</time>
      </trkpt>
      <trkpt lat="47.51488" lon="6.7726">
        <ele>376</ele>
        <time>2016-01-17T08:20:28.000Z</time>
      </trkpt>
      <trkpt lat="47.51487" lon="6.77249">
        <ele>376</ele>
        <time>2016-01-17T08:20:29.000Z</time>
      </trkpt>
      <trkpt lat="47.51487" lon="6.7724">
        <ele>376</ele>
        <time>2016-01-17T08:20:30.000Z</time>
      </trkpt>
      <trkpt lat="47.51486" lon="6.77231">
        <ele>375</ele>
        <time>2016-01-17T08:20:31.000Z</time>
      </trkpt>
      <trkpt lat="47.51486" lon="6.77223">
        <ele>375</ele>
        <time>2016-01-17T08:20:32.000Z</time>
      </trkpt>
      <trkpt lat="47.51485" lon="6.77214">
        <ele>375</ele>
        <time>2016-01-17T08:20:33.000Z</time>
      </trkpt>
      <trkpt lat="47.51484" lon="6.77207">
        <ele>375</ele>
        <time>2016-01-17T08:20:34.000Z</time>
      </trkpt>
      <trkpt lat="47.51483" lon="6.77202">
        <ele>375</ele>
        <time>2016-01-17T08:20:35.000Z</time>
      </trkpt>
      <trkpt lat="47.5148" lon="6.77197">
        <ele>375</ele>
        <time>2016-01-17T08:20:36.000Z</time>
      </trkpt>
      <trkpt lat="47.51476" lon="6.77194">
        <ele>375</ele>
        <time>2016-01-17T08:20:37.000Z</time>
      </trkpt>
      <trkpt lat="47.51471" lon="6.77193">
        <ele>375</ele>
        <time>2016-01-17T08:20:38.000Z</time>
      </trkpt>
      <trkpt lat="47.51465" lon="6.77195">
        <ele>375</ele>
        <time>2016-01-17T08:20:39.000Z</time>
      </trkpt>
      <trkpt lat="47.51459" lon="6.77196">
        <ele>375</ele>
        <time>2016-01-17T08:20:40.000Z</time>
      </trkpt>
      <trkpt lat="47.51452" lon="6.772">
        <ele>375</ele>
        <time>2016-01-17T08:20:41.000Z</time>
      </trkpt>
      <trkpt lat="47.51446" lon="6.77202">
        <ele>375</ele>
        <time>2016-01-17T08:20:42.000Z</time>
      </trkpt>
      <trkpt lat="47.51439" lon="6.77206">
        <ele>375</ele>
        <time>2016-01-17T08:20:43.000Z</time>
      </trkpt>
      <trkpt lat="47.51433" lon="6.77209">
        <ele>375</ele>
        <time>2016-01-17T08:20:44.000Z</time>
      </trkpt>
      <trkpt lat="47.51427" lon="6.77211">
        <ele>375</ele>
        <time>2016-01-17T08:20:45.000Z</time>
      </trkpt>
      <trkpt lat="47.51422" lon="6.77215">
        <ele>375</ele>
        <time>2016-01-17T08:20:46.000Z</time>
      </trkpt>
      <trkpt lat="47.51416" lon="6.77217">
        <ele>375</ele>
        <time>2016-01-17T08:20:47.000Z</time>
      </trkpt>
      <trkpt lat="47.51411" lon="6.7722">
        <ele>376</ele>
        <time>2016-01-17T08:20:48.000Z</time>
      </trkpt>
      <trkpt lat="47.51406" lon="6.77222">
        <ele>376</ele>
        <time>2016-01-17T08:20:49.000Z</time>
      </trkpt>
      <trkpt lat="47.51401" lon="6.77225">
        <ele>376</ele>
        <time>2016-01-17T08:20:50.000Z</time>
      </trkpt>
      <trkpt lat="47.51397" lon="6.77228">
        <ele>376</ele>
        <time>2016-01-17T08:20:51.000Z</time>
      </trkpt>
      <trkpt lat="47.51392" lon="6.77231">
        <ele>376</ele>
        <time>2016-01-17T08:20:51.999Z</time>
      </trkpt>
      <trkpt lat="47.51388" lon="6.77233">
        <ele>376</ele>
        <time>2016-01-17T08:20:53.000Z</time>
      </trkpt>
      <trkpt lat="47.51384" lon="6.77234">
        <ele>376</ele>
        <time>2016-01-17T08:20:54.000Z</time>
      </trkpt>
      <trkpt lat="47.51379" lon="6.77238">
        <ele>376</ele>
        <time>2016-01-17T08:20:55.000Z</time>
      </trkpt>
      <trkpt lat="47.51376" lon="6.77239">
        <ele>376</ele>
        <time>2016-01-17T08:20:56.000Z</time>
      </trkpt>
      <trkpt lat="47.51372" lon="6.77242">
        <ele>376</ele>
        <time>2016-01-17T08:20:57.000Z</time>
      </trkpt>
      <trkpt lat="47.51368" lon="6.77245">
        <ele>376</ele>
        <time>2016-01-17T08:20:58.000Z</time>
      </trkpt>
      <trkpt lat="47.51365" lon="6.77247">
        <ele>376</ele>
        <time>2016-01-17T08:20:59.000Z</time>
      </trkpt>
      <trkpt lat="47.51361" lon="6.77251">
        <ele>378</ele>
        <time>2016-01-17T08:21:00.000Z</time>
      </trkpt>
      <trkpt lat="47.51358" lon="6.77253">
        <ele>378</ele>
        <time>2016-01-17T08:21:01.000Z</time>
      </trkpt>
      <trkpt lat="47.51356" lon="6.77257">
        <ele>378</ele>
        <time>2016-01-17T08:21:02.000Z</time>
      </trkpt>
      <trkpt lat="47.51353" lon="6.7726">
        <ele>378</ele>
        <time>2016-01-17T08:21:03.000Z</time>
      </trkpt>
      <trkpt lat="47.5135" lon="6.77262">
        <ele>378</ele>
        <time>2016-01-17T08:21:04.000Z</time>
      </trkpt>
      <trkpt lat="47.51347" lon="6.77265">
        <ele>378</ele>
        <time>2016-01-17T08:21:05.000Z</time>
      </trkpt>
      <trkpt lat="47.51345" lon="6.77268">
        <ele>378</ele>
        <time>2016-01-17T08:21:05.999Z</time>
      </trkpt>
      <trkpt lat="47.51342" lon="6.77269">
        <ele>378</ele>
        <time>2016-01-17T08:21:07.000Z</time>
      </trkpt>
      <trkpt lat="47.51339" lon="6.77271">
        <ele>378</ele>
        <time>2016-01-17T08:21:08.000Z</time>
      </trkpt>
      <trkpt lat="47.51336" lon="6.77272">
        <ele>378</ele>
        <time>2016-01-17T08:21:09.000Z</time>
      </trkpt>
      <trkpt lat="47.51333" lon="6.77274">
        <ele>377</ele>
        <time>2016-01-17T08:21:10.000Z</time>
      </trkpt>
      <trkpt lat="47.51329" lon="6.77276">
        <ele>377</ele>
        <time>2016-01-17T08:21:11.000Z</time>
      </trkpt>
      <trkpt lat="47.51325" lon="6.77277">
        <ele>377</ele>
        <time>2016-01-17T08:21:12.000Z</time>
      </trkpt>
      <trkpt lat="47.51321" lon="6.77278">
        <ele>377</ele>
        <time>2016-01-17T08:21:13.000Z</time>
      </trkpt>
      <trkpt lat="47.51317" lon="6.77278">
        <ele>377</ele>
        <time>2016-01-17T08:21:14.000Z</time>
      </trkpt>
      <trkpt lat="47.51313" lon="6.77278">
        <ele>377</ele>
        <time>2016-01-17T08:21:15.000Z</time>
      </trkpt>
      <trkpt lat="47.5131" lon="6.77277">
        <ele>377</ele>
        <time>2016-01-17T08:21:16.000Z</time>
      </trkpt>
      <trkpt lat="47.51307" lon="6.77275">
        <ele>377</ele>
        <time>2016-01-17T08:21:17.000Z</time>
      </trkpt>
      <trkpt lat="47.51303" lon="6.77274">
        <ele>377</ele>
        <time>2016-01-17T08:21:18.000Z</time>
      </trkpt>
      <trkpt lat="47.513" lon="6.77272">
        <ele>377</ele>
        <time>2016-01-17T08:21:19.000Z</time>
      </trkpt>
      <trkpt lat="47.51296" lon="6.7727">
        <ele>377</ele>
        <time>2016-01-17T08:21:20.000Z</time>
      </trkpt>
      <trkpt lat="47.51293" lon="6.77268">
        <ele>377</ele>
        <time>2016-01-17T08:21:21.000Z</time>
      </trkpt>
      <trkpt lat="47.5129" lon="6.77266">
        <ele>377</ele>
        <time>2016-01-17T08:21:22.000Z</time>
      </trkpt>
      <trkpt lat="47.51286" lon="6.77264">
        <ele>377</ele>
        <time>2016-01-17T08:21:23.000Z</time>
      </trkpt>
      <trkpt lat="47.51282" lon="6.77261">
        <ele>377</ele>
        <time>2016-01-17T08:21:24.000Z</time>
      </trkpt>
      <trkpt lat="47.51279" lon="6.77259">
        <ele>377</ele>
        <time>2016-01-17T08:21:25.000Z</time>
      </trkpt>
      <trkpt lat="47.51275" lon="6.77256">
        <ele>377</ele>
        <time>2016-01-17T08:21:26.000Z</time>
      </trkpt>
      <trkpt lat="47.51271" lon="6.77254">
        <ele>378</ele>
        <time>2016-01-17T08:21:27.000Z</time>
      </trkpt>
      <trkpt lat="47.51268" lon="6.7725">
        <ele>378</ele>
        <time>2016-01-17T08:21:28.000Z</time>
      </trkpt>
      <trkpt lat="47.51264" lon="6.77246">
        <ele>378</ele>
        <time>2016-01-17T08:21:29.000Z</time>
      </trkpt>
      <trkpt lat="47.51261" lon="6.77242">
        <ele>378</ele>
        <time>2016-01-17T08:21:30.000Z</time>
      </trkpt>
      <trkpt lat="47.51258" lon="6.77235">
        <ele>378</ele>
        <time>2016-01-17T08:21:31.000Z</time>
      </trkpt>
      <trkpt lat="47.51255" lon="6.7723">
        <ele>378</ele>
        <time>2016-01-17T08:21:32.000Z</time>
      </trkpt>
      <trkpt lat="47.51251" lon="6.77224">
        <ele>378</ele>
        <time>2016-01-17T08:21:33.000Z</time>
      </trkpt>
      <trkpt lat="47.51248" lon="6.77218">
        <ele>376</ele>
        <time>2016-01-17T08:21:34.000Z</time>
      </trkpt>
      <trkpt lat="47.51245" lon="6.77212">
        <ele>376</ele>
        <time>2016-01-17T08:21:35.000Z</time>
      </trkpt>
      <trkpt lat="47.51242" lon="6.77206">
        <ele>376</ele>
        <time>2016-01-17T08:21:36.000Z</time>
      </trkpt>
      <trkpt lat="47.51238" lon="6.772">
        <ele>376</ele>
        <time>2016-01-17T08:21:37.000Z</time>
      </trkpt>
      <trkpt lat="47.51235" lon="6.77193">
        <ele>376</ele>
        <time>2016-01-17T08:21:38.000Z</time>
      </trkpt>
      <trkpt lat="47.51231" lon="6.77186">
        <ele>377</ele>
        <time>2016-01-17T08:21:39.000Z</time>
      </trkpt>
      <trkpt lat="47.51228" lon="6.7718">
        <ele>377</ele>
        <time>2016-01-17T08:21:40.000Z</time>
      </trkpt>
      <trkpt lat="47.51224" lon="6.77173">
        <ele>377</ele>
        <time>2016-01-17T08:21:41.000Z</time>
      </trkpt>
      <trkpt lat="47.51221" lon="6.77167">
        <ele>377</ele>
        <time>2016-01-17T08:21:42.000Z</time>
      </trkpt>
      <trkpt lat="47.51217" lon="6.7716">
        <ele>378</ele>
        <time>2016-01-17T08:21:43.000Z</time>
      </trkpt>
      <trkpt lat="47.51213" lon="6.77153">
        <ele>378</ele>
        <time>2016-01-17T08:21:44.000Z</time>
      </trkpt>
      <trkpt lat="47.5121" lon="6.77146">
        <ele>378</ele>
        <time>2016-01-17T08:21:45.000Z</time>
      </trkpt>
      <trkpt lat="47.51206" lon="6.77139">
        <ele>378</ele>
        <time>2016-01-17T08:21:46.000Z</time>
      </trkpt>
      <trkpt lat="47.51202" lon="6.77132">
        <ele>378</ele>
        <time>2016-01-17T08:21:47.000Z</time>
      </trkpt>
      <trkpt lat="47.51198" lon="6.77125">
        <ele>378</ele>
        <time>2016-01-17T08:21:48.000Z</time>
      </trkpt>
      <trkpt lat="47.51194" lon="6.77117">
        <ele>378</ele>
        <time>2016-01-17T08:21:49.000Z</time>
      </trkpt>
      <trkpt lat="47.5119" lon="6.77109">
        <ele>378</ele>
        <time>2016-01-17T08:21:50.000Z</time>
      </trkpt>
      <trkpt lat="47.51186" lon="6.77102">
        <ele>378</ele>
        <time>2016-01-17T08:21:51.000Z</time>
      </trkpt>
      <trkpt lat="47.51182" lon="6.77094">
        <ele>378</ele>
        <time>2016-01-17T08:21:52.000Z</time>
      </trkpt>
      <trkpt lat="47.51179" lon="6.77087">
        <ele>378</ele>
        <time>2016-01-17T08:21:53.000Z</time>
      </trkpt>
      <trkpt lat="47.51175" lon="6.7708">
        <ele>377</ele>
        <time>2016-01-17T08:21:54.000Z</time>
      </trkpt>
      <trkpt lat="47.5117" lon="6.77073">
        <ele>377</ele>
        <time>2016-01-17T08:21:55.000Z</time>
      </trkpt>
      <trkpt lat="47.51166" lon="6.77068">
        <ele>377</ele>
        <time>2016-01-17T08:21:56.000Z</time>
      </trkpt>
      <trkpt lat="47.51161" lon="6.77062">
        <ele>376</ele>
        <time>2016-01-17T08:21:57.000Z</time>
      </trkpt>
      <trkpt lat="47.51156" lon="6.77056">
        <ele>376</ele>
        <time>2016-01-17T08:21:58.000Z</time>
      </trkpt>
      <trkpt lat="47.5115" lon="6.77051">
        <ele>376</ele>
        <time>2016-01-17T08:21:59.000Z</time>
      </trkpt>
      <trkpt lat="47.51145" lon="6.77046">
        <ele>376</ele>
        <time>2016-01-17T08:22:00.000Z</time>
      </trkpt>
      <trkpt lat="47.51138" lon="6.77041">
        <ele>375</ele>
        <time>2016-01-17T08:22:01.000Z</time>
      </trkpt>
      <trkpt lat="47.51133" lon="6.77037">
        <ele>375</ele>
        <time>2016-01-17T08:22:02.000Z</time>
      </trkpt>
      <trkpt lat="47.51127" lon="6.77033">
        <ele>375</ele>
        <time>2016-01-17T08:22:03.000Z</time>
      </trkpt>
      <trkpt lat="47.51122" lon="6.77029">
        <ele>375</ele>
        <time>2016-01-17T08:22:04.000Z</time>
      </trkpt>
      <trkpt lat="47.51116" lon="6.77022">
        <ele>375</ele>
        <time>2016-01-17T08:22:05.000Z</time>
      </trkpt>
      <trkpt lat="47.51111" lon="6.77016">
        <ele>375</ele>
        <time>2016-01-17T08:22:06.000Z</time>
      </trkpt>
      <trkpt lat="47.51105" lon="6.77012">
        <ele>375</ele>
        <time>2016-01-17T08:22:07.000Z</time>
      </trkpt>
      <trkpt lat="47.51101" lon="6.77007">
        <ele>375</ele>
        <time>2016-01-17T08:22:08.000Z</time>
      </trkpt>
      <trkpt lat="47.51094" lon="6.77002">
        <ele>375</ele>
        <time>2016-01-17T08:22:09.000Z</time>
      </trkpt>
      <trkpt lat="47.5109" lon="6.76997">
        <ele>375</ele>
        <time>2016-01-17T08:22:10.000Z</time>
      </trkpt>
      <trkpt lat="47.51084" lon="6.76992">
        <ele>375</ele>
        <time>2016-01-17T08:22:11.000Z</time>
      </trkpt>
      <trkpt lat="47.51079" lon="6.76988">
        <ele>375</ele>
        <time>2016-01-17T08:22:12.000Z</time>
      </trkpt>
      <trkpt lat="47.51075" lon="6.76984">
        <ele>375</ele>
        <time>2016-01-17T08:22:13.000Z</time>
      </trkpt>
      <trkpt lat="47.51069" lon="6.76979">
        <ele>375</ele>
        <time>2016-01-17T08:22:14.000Z</time>
      </trkpt>
      <trkpt lat="47.51065" lon="6.76975">
        <ele>375</ele>
        <time>2016-01-17T08:22:15.000Z</time>
      </trkpt>
      <trkpt lat="47.5106" lon="6.76972">
        <ele>375</ele>
        <time>2016-01-17T08:22:16.000Z</time>
      </trkpt>
      <trkpt lat="47.51055" lon="6.76968">
        <ele>375</ele>
        <time>2016-01-17T08:22:17.000Z</time>
      </trkpt>
      <trkpt lat="47.51051" lon="6.76964">
        <ele>375</ele>
        <time>2016-01-17T08:22:18.000Z</time>
      </trkpt>
      <trkpt lat="47.51046" lon="6.7696">
        <ele>375</ele>
        <time>2016-01-17T08:22:19.000Z</time>
      </trkpt>
      <trkpt lat="47.51042" lon="6.76956">
        <ele>375</ele>
        <time>2016-01-17T08:22:20.000Z</time>
      </trkpt>
      <trkpt lat="47.51037" lon="6.76952">
        <ele>375</ele>
        <time>2016-01-17T08:22:21.000Z</time>
      </trkpt>
      <trkpt lat="47.51037" lon="6.76952">
        <ele>375</ele>
        <time>2016-01-17T08:22:21.115Z</time>
      </trkpt>
      <trkpt lat="47.51029" lon="6.76944">
        <ele>375</ele>
        <time>2016-01-17T08:22:23.000Z</time>
      </trkpt>
      <trkpt lat="47.51024" lon="6.76941">
        <ele>375</ele>
        <time>2016-01-17T08:22:24.000Z</time>
      </trkpt>
      <trkpt lat="47.51019" lon="6.76937">
        <ele>375</ele>
        <time>2016-01-17T08:22:25.000Z</time>
      </trkpt>
      <trkpt lat="47.51015" lon="6.76934">
        <ele>375</ele>
        <time>2016-01-17T08:22:26.000Z</time>
      </trkpt>
      <trkpt lat="47.5101" lon="6.76932">
        <ele>375</ele>
        <time>2016-01-17T08:22:27.000Z</time>
      </trkpt>
      <trkpt lat="47.51006" lon="6.76929">
        <ele>375</ele>
        <time>2016-01-17T08:22:28.000Z</time>
      </trkpt>
      <trkpt lat="47.51001" lon="6.76927">
        <ele>376</ele>
        <time>2016-01-17T08:22:29.000Z</time>
      </trkpt>
      <trkpt lat="47.50997" lon="6.76922">
        <ele>375</ele>
        <time>2016-01-17T08:22:30.000Z</time>
      </trkpt>
      <trkpt lat="47.50994" lon="6.76918">
        <ele>375</ele>
        <time>2016-01-17T08:22:31.000Z</time>
      </trkpt>
      <trkpt lat="47.50991" lon="6.76913">
        <ele>376</ele>
        <time>2016-01-17T08:22:32.000Z</time>
      </trkpt>
      <trkpt lat="47.50986" lon="6.7691">
        <ele>377</ele>
        <time>2016-01-17T08:22:33.000Z</time>
      </trkpt>
      <trkpt lat="47.50982" lon="6.76908">
        <ele>377</ele>
        <time>2016-01-17T08:22:34.000Z</time>
      </trkpt>
      <trkpt lat="47.50977" lon="6.76906">
        <ele>377</ele>
        <time>2016-01-17T08:22:35.000Z</time>
      </trkpt>
      <trkpt lat="47.50972" lon="6.76905">
        <ele>377</ele>
        <time>2016-01-17T08:22:36.000Z</time>
      </trkpt>
      <trkpt lat="47.50967" lon="6.76904">
        <ele>377</ele>
        <time>2016-01-17T08:22:37.000Z</time>
      </trkpt>
      <trkpt lat="47.50963" lon="6.769">
        <ele>377</ele>
        <time>2016-01-17T08:22:38.000Z</time>
      </trkpt>
      <trkpt lat="47.50958" lon="6.76897">
        <ele>377</ele>
        <time>2016-01-17T08:22:39.000Z</time>
      </trkpt>
      <trkpt lat="47.50954" lon="6.76894">
        <ele>377</ele>
        <time>2016-01-17T08:22:40.000Z</time>
      </trkpt>
      <trkpt lat="47.5095" lon="6.7689">
        <ele>378</ele>
        <time>2016-01-17T08:22:41.000Z</time>
      </trkpt>
      <trkpt lat="47.50946" lon="6.76886">
        <ele>378</ele>
        <time>2016-01-17T08:22:42.000Z</time>
      </trkpt>
      <trkpt lat="47.50942" lon="6.76882">
        <ele>378</ele>
        <time>2016-01-17T08:22:43.000Z</time>
      </trkpt>
      <trkpt lat="47.50939" lon="6.76877">
        <ele>378</ele>
        <time>2016-01-17T08:22:44.000Z</time>
      </trkpt>
      <trkpt lat="47.50935" lon="6.76873">
        <ele>378</ele>
        <time>2016-01-17T08:22:45.000Z</time>
      </trkpt>
      <trkpt lat="47.50931" lon="6.76868">
        <ele>378</ele>
        <time>2016-01-17T08:22:46.000Z</time>
      </trkpt>
      <trkpt lat="47.50929" lon="6.76863">
        <ele>378</ele>
        <time>2016-01-17T08:22:47.000Z</time>
      </trkpt>
      <trkpt lat="47.50926" lon="6.76857">
        <ele>378</ele>
        <time>2016-01-17T08:22:48.000Z</time>
      </trkpt>
      <trkpt lat="47.50923" lon="6.76852">
        <ele>379</ele>
        <time>2016-01-17T08:22:49.000Z</time>
      </trkpt>
      <trkpt lat="47.5092" lon="6.76846">
        <ele>379</ele>
        <time>2016-01-17T08:22:50.000Z</time>
      </trkpt>
      <trkpt lat="47.50918" lon="6.7684">
        <ele>379</ele>
        <time>2016-01-17T08:22:51.000Z</time>
      </trkpt>
      <trkpt lat="47.50915" lon="6.76834">
        <ele>380</ele>
        <time>2016-01-17T08:22:52.000Z</time>
      </trkpt>
      <trkpt lat="47.50913" lon="6.76827">
        <ele>380</ele>
        <time>2016-01-17T08:22:53.000Z</time>
      </trkpt>
      <trkpt lat="47.50911" lon="6.76821">
        <ele>381</ele>
        <time>2016-01-17T08:22:54.000Z</time>
      </trkpt>
      <trkpt lat="47.50909" lon="6.76816">
        <ele>381</ele>
        <time>2016-01-17T08:22:55.000Z</time>
      </trkpt>
      <trkpt lat="47.50906" lon="6.7681">
        <ele>381</ele>
        <time>2016-01-17T08:22:56.000Z</time>
      </trkpt>
      <trkpt lat="47.50903" lon="6.76805">
        <ele>381</ele>
        <time>2016-01-17T08:22:57.000Z</time>
      </trkpt>
      <trkpt lat="47.50901" lon="6.76799">
        <ele>381</ele>
        <time>2016-01-17T08:22:58.000Z</time>
      </trkpt>
      <trkpt lat="47.50899" lon="6.76794">
        <ele>381</ele>
        <time>2016-01-17T08:22:59.000Z</time>
      </trkpt>
      <trkpt lat="47.50898" lon="6.76789">
        <ele>381</ele>
        <time>2016-01-17T08:23:00.000Z</time>
      </trkpt>
      <trkpt lat="47.50896" lon="6.76784">
        <ele>381</ele>
        <time>2016-01-17T08:23:01.000Z</time>
      </trkpt>
      <trkpt lat="47.50894" lon="6.76778">
        <ele>381</ele>
        <time>2016-01-17T08:23:02.000Z</time>
      </trkpt>
      <trkpt lat="47.50891" lon="6.76773">
        <ele>381</ele>
        <time>2016-01-17T08:23:03.000Z</time>
      </trkpt>
      <trkpt lat="47.50889" lon="6.76768">
        <ele>381</ele>
        <time>2016-01-17T08:23:04.000Z</time>
      </trkpt>
      <trkpt lat="47.50887" lon="6.76763">
        <ele>381</ele>
        <time>2016-01-17T08:23:05.000Z</time>
      </trkpt>
      <trkpt lat="47.50885" lon="6.76757">
        <ele>381</ele>
        <time>2016-01-17T08:23:06.000Z</time>
      </trkpt>
      <trkpt lat="47.50883" lon="6.76752">
        <ele>381</ele>
        <time>2016-01-17T08:23:07.000Z</time>
      </trkpt>
      <trkpt lat="47.5088" lon="6.76746">
        <ele>382</ele>
        <time>2016-01-17T08:23:08.000Z</time>
      </trkpt>
      <trkpt lat="47.50878" lon="6.76741">
        <ele>383</ele>
        <time>2016-01-17T08:23:09.000Z</time>
      </trkpt>
      <trkpt lat="47.50877" lon="6.76736">
        <ele>383</ele>
        <time>2016-01-17T08:23:10.000Z</time>
      </trkpt>
      <trkpt lat="47.50875" lon="6.7673">
        <ele>383</ele>
        <time>2016-01-17T08:23:11.000Z</time>
      </trkpt>
      <trkpt lat="47.50873" lon="6.76725">
        <ele>383</ele>
        <time>2016-01-17T08:23:12.000Z</time>
      </trkpt>
      <trkpt lat="47.50871" lon="6.7672">
        <ele>383</ele>
        <time>2016-01-17T08:23:13.000Z</time>
      </trkpt>
      <trkpt lat="47.50869" lon="6.76714">
        <ele>383</ele>
        <time>2016-01-17T08:23:14.000Z</time>
      </trkpt>
      <trkpt lat="47.50867" lon="6.76709">
        <ele>384</ele>
        <time>2016-01-17T08:23:15.000Z</time>
      </trkpt>
      <trkpt lat="47.50865" lon="6.76703">
        <ele>384</ele>
        <time>2016-01-17T08:23:16.000Z</time>
      </trkpt>
      <trkpt lat="47.50863" lon="6.76698">
        <ele>384</ele>
        <time>2016-01-17T08:23:17.000Z</time>
      </trkpt>
      <trkpt lat="47.50861" lon="6.76692">
        <ele>384</ele>
        <time>2016-01-17T08:23:18.000Z</time>
      </trkpt>
      <trkpt lat="47.50859" lon="6.76687">
        <ele>385</ele>
        <time>2016-01-17T08:23:19.000Z</time>
      </trkpt>
      <trkpt lat="47.50857" lon="6.76682">
        <ele>385</ele>
        <time>2016-01-17T08:23:20.000Z</time>
      </trkpt>
      <trkpt lat="47.50855" lon="6.76677">
        <ele>385</ele>
        <time>2016-01-17T08:23:21.000Z</time>
      </trkpt>
      <trkpt lat="47.50854" lon="6.76672">
        <ele>386</ele>
        <time>2016-01-17T08:23:22.000Z</time>
      </trkpt>
      <trkpt lat="47.50852" lon="6.76667">
        <ele>387</ele>
        <time>2016-01-17T08:23:23.000Z</time>
      </trkpt>
      <trkpt lat="47.5085" lon="6.76662">
        <ele>387</ele>
        <time>2016-01-17T08:23:24.000Z</time>
      </trkpt>
      <trkpt lat="47.50848" lon="6.76657">
        <ele>387</ele>
        <time>2016-01-17T08:23:25.000Z</time>
      </trkpt>
      <trkpt lat="47.50846" lon="6.76653">
        <ele>387</ele>
        <time>2016-01-17T08:23:26.000Z</time>
      </trkpt>
      <trkpt lat="47.50844" lon="6.76649">
        <ele>387</ele>
        <time>2016-01-17T08:23:27.000Z</time>
      </trkpt>
      <trkpt lat="47.50842" lon="6.76645">
        <ele>387</ele>
        <time>2016-01-17T08:23:28.000Z</time>
      </trkpt>
      <trkpt lat="47.5084" lon="6.76641">
        <ele>387</ele>
        <time>2016-01-17T08:23:29.000Z</time>
      </trkpt>
      <trkpt lat="47.50838" lon="6.76637">
        <ele>387</ele>
        <time>2016-01-17T08:23:30.000Z</time>
      </trkpt>
      <trkpt lat="47.50836" lon="6.76633">
        <ele>387</ele>
        <time>2016-01-17T08:23:31.000Z</time>
      </trkpt>
      <trkpt lat="47.50834" lon="6.76629">
        <ele>387</ele>
        <time>2016-01-17T08:23:32.000Z</time>
      </trkpt>
      <trkpt lat="47.50832" lon="6.76625">
        <ele>390</ele>
        <time>2016-01-17T08:23:33.000Z</time>
      </trkpt>
      <trkpt lat="47.5083" lon="6.76621">
        <ele>390</ele>
        <time>2016-01-17T08:23:34.000Z</time>
      </trkpt>
      <trkpt lat="47.50829" lon="6.76617">
        <ele>390</ele>
        <time>2016-01-17T08:23:35.000Z</time>
      </trkpt>
      <trkpt lat="47.50827" lon="6.76613">
        <ele>390</ele>
        <time>2016-01-17T08:23:36.000Z</time>
      </trkpt>
      <trkpt lat="47.50825" lon="6.76609">
        <ele>390</ele>
        <time>2016-01-17T08:23:37.000Z</time>
      </trkpt>
      <trkpt lat="47.50824" lon="6.76605">
        <ele>390</ele>
        <time>2016-01-17T08:23:38.000Z</time>
      </trkpt>
      <trkpt lat="47.50822" lon="6.76601">
        <ele>390</ele>
        <time>2016-01-17T08:23:39.000Z</time>
      </trkpt>
      <trkpt lat="47.50821" lon="6.76597">
        <ele>390</ele>
        <time>2016-01-17T08:23:40.000Z</time>
      </trkpt>
      <trkpt lat="47.50818" lon="6.76592">
        <ele>390</ele>
        <time>2016-01-17T08:23:42.000Z</time>
      </trkpt>
      <trkpt lat="47.50816" lon="6.76592">
        <ele>390</ele>
        <time>2016-01-17T08:23:43.000Z</time>
      </trkpt>
      <trkpt lat="47.50812" lon="6.76593">
        <ele>390</ele>
        <time>2016-01-17T08:23:45.000Z</time>
      </trkpt>
      <trkpt lat="47.5081" lon="6.76592">
        <ele>390</ele>
        <time>2016-01-17T08:23:46.000Z</time>
      </trkpt>
      <trkpt lat="47.50808" lon="6.76588">
        <ele>390</ele>
        <time>2016-01-17T08:23:48.000Z</time>
      </trkpt>
      <trkpt lat="47.50808" lon="6.76585">
        <ele>390</ele>
        <time>2016-01-17T08:23:49.000Z</time>
      </trkpt>
      <trkpt lat="47.50804" lon="6.76583">
        <ele>391</ele>
        <time>2016-01-17T08:23:52.000Z</time>
      </trkpt>
      <trkpt lat="47.50802" lon="6.76584">
        <ele>391</ele>
        <time>2016-01-17T08:23:53.000Z</time>
      </trkpt>
      <trkpt lat="47.508" lon="6.76585">
        <ele>391</ele>
        <time>2016-01-17T08:23:54.000Z</time>
      </trkpt>
      <trkpt lat="47.50797" lon="6.76586">
        <ele>391</ele>
        <time>2016-01-17T08:23:55.000Z</time>
      </trkpt>
      <trkpt lat="47.50793" lon="6.76587">
        <ele>391</ele>
        <time>2016-01-17T08:23:57.000Z</time>
      </trkpt>
      <trkpt lat="47.50792" lon="6.76587">
        <ele>391</ele>
        <time>2016-01-17T08:23:58.000Z</time>
      </trkpt>
      <trkpt lat="47.50788" lon="6.76589">
        <ele>391</ele>
        <time>2016-01-17T08:24:12.000Z</time>
      </trkpt>
      <trkpt lat="47.50786" lon="6.7659">
        <ele>391</ele>
        <time>2016-01-17T08:24:13.000Z</time>
      </trkpt>
      <trkpt lat="47.50784" lon="6.76591">
        <ele>391</ele>
        <time>2016-01-17T08:24:14.000Z</time>
      </trkpt>
      <trkpt lat="47.50781" lon="6.76591">
        <ele>391</ele>
        <time>2016-01-17T08:24:15.000Z</time>
      </trkpt>
      <trkpt lat="47.50779" lon="6.76592">
        <ele>392</ele>
        <time>2016-01-17T08:24:16.000Z</time>
      </trkpt>
      <trkpt lat="47.50776" lon="6.76592">
        <ele>392</ele>
        <time>2016-01-17T08:24:17.000Z</time>
      </trkpt>
      <trkpt lat="47.50773" lon="6.76592">
        <ele>392</ele>
        <time>2016-01-17T08:24:18.000Z</time>
      </trkpt>
      <trkpt lat="47.5077" lon="6.76592">
        <ele>392</ele>
        <time>2016-01-17T08:24:19.000Z</time>
      </trkpt>
      <trkpt lat="47.50767" lon="6.76593">
        <ele>392</ele>
        <time>2016-01-17T08:24:20.000Z</time>
      </trkpt>
      <trkpt lat="47.50764" lon="6.76593">
        <ele>392</ele>
        <time>2016-01-17T08:24:21.000Z</time>
      </trkpt>
      <trkpt lat="47.50762" lon="6.76593">
        <ele>392</ele>
        <time>2016-01-17T08:24:22.000Z</time>
      </trkpt>
      <trkpt lat="47.50759" lon="6.76593">
        <ele>393</ele>
        <time>2016-01-17T08:24:23.000Z</time>
      </trkpt>
      <trkpt lat="47.50756" lon="6.76593">
        <ele>393</ele>
        <time>2016-01-17T08:24:24.000Z</time>
      </trkpt>
      <trkpt lat="47.50753" lon="6.76593">
        <ele>393</ele>
        <time>2016-01-17T08:24:25.000Z</time>
      </trkpt>
      <trkpt lat="47.5075" lon="6.76592">
        <ele>393</ele>
        <time>2016-01-17T08:24:26.000Z</time>
      </trkpt>
      <trkpt lat="47.50748" lon="6.76591">
        <ele>394</ele>
        <time>2016-01-17T08:24:27.000Z</time>
      </trkpt>
      <trkpt lat="47.50745" lon="6.76591">
        <ele>394</ele>
        <time>2016-01-17T08:24:28.000Z</time>
      </trkpt>
      <trkpt lat="47.50741" lon="6.7659">
        <ele>394</ele>
        <time>2016-01-17T08:24:29.000Z</time>
      </trkpt>
      <trkpt lat="47.50738" lon="6.7659">
        <ele>394</ele>
        <time>2016-01-17T08:24:30.000Z</time>
      </trkpt>
      <trkpt lat="47.50735" lon="6.76589">
        <ele>394</ele>
        <time>2016-01-17T08:24:31.000Z</time>
      </trkpt>
      <trkpt lat="47.50732" lon="6.76588">
        <ele>394</ele>
        <time>2016-01-17T08:24:32.000Z</time>
      </trkpt>
      <trkpt lat="47.50729" lon="6.76587">
        <ele>394</ele>
        <time>2016-01-17T08:24:33.000Z</time>
      </trkpt>
      <trkpt lat="47.50726" lon="6.76586">
        <ele>394</ele>
        <time>2016-01-17T08:24:34.000Z</time>
      </trkpt>
      <trkpt lat="47.50723" lon="6.76584">
        <ele>394</ele>
        <time>2016-01-17T08:24:35.000Z</time>
      </trkpt>
      <trkpt lat="47.5072" lon="6.76583">
        <ele>395</ele>
        <time>2016-01-17T08:24:36.000Z</time>
      </trkpt>
      <trkpt lat="47.50717" lon="6.76582">
        <ele>395</ele>
        <time>2016-01-17T08:24:36.999Z</time>
      </trkpt>
      <trkpt lat="47.50714" lon="6.76581">
        <ele>395</ele>
        <time>2016-01-17T08:24:38.000Z</time>
      </trkpt>
      <trkpt lat="47.50711" lon="6.7658">
        <ele>395</ele>
        <time>2016-01-17T08:24:39.000Z</time>
      </trkpt>
      <trkpt lat="47.50708" lon="6.7658">
        <ele>395</ele>
        <time>2016-01-17T08:24:40.001Z</time>
      </trkpt>
      <trkpt lat="47.50704" lon="6.76579">
        <ele>395</ele>
        <time>2016-01-17T08:24:41.000Z</time>
      </trkpt>
      <trkpt lat="47.50701" lon="6.76578">
        <ele>395</ele>
        <time>2016-01-17T08:24:42.000Z</time>
      </trkpt>
      <trkpt lat="47.50698" lon="6.76578">
        <ele>395</ele>
        <time>2016-01-17T08:24:43.000Z</time>
      </trkpt>
      <trkpt lat="47.50695" lon="6.76578">
        <ele>396</ele>
        <time>2016-01-17T08:24:44.000Z</time>
      </trkpt>
      <trkpt lat="47.50693" lon="6.76579">
        <ele>396</ele>
        <time>2016-01-17T08:24:45.000Z</time>
      </trkpt>
      <trkpt lat="47.5069" lon="6.7658">
        <ele>396</ele>
        <time>2016-01-17T08:24:46.000Z</time>
      </trkpt>
      <trkpt lat="47.50687" lon="6.76579">
        <ele>396</ele>
        <time>2016-01-17T08:24:47.000Z</time>
      </trkpt>
      <trkpt lat="47.50684" lon="6.76578">
        <ele>396</ele>
        <time>2016-01-17T08:24:48.000Z</time>
      </trkpt>
      <trkpt lat="47.50682" lon="6.76578">
        <ele>396</ele>
        <time>2016-01-17T08:24:49.000Z</time>
      </trkpt>
      <trkpt lat="47.50679" lon="6.76577">
        <ele>396</ele>
        <time>2016-01-17T08:24:50.000Z</time>
      </trkpt>
      <trkpt lat="47.50676" lon="6.76577">
        <ele>396</ele>
        <time>2016-01-17T08:24:51.000Z</time>
      </trkpt>
      <trkpt lat="47.50673" lon="6.76578">
        <ele>396</ele>
        <time>2016-01-17T08:24:52.000Z</time>
      </trkpt>
      <trkpt lat="47.5067" lon="6.7658">
        <ele>397</ele>
        <time>2016-01-17T08:24:53.000Z</time>
      </trkpt>
      <trkpt lat="47.50667" lon="6.76581">
        <ele>397</ele>
        <time>2016-01-17T08:24:54.000Z</time>
      </trkpt>
      <trkpt lat="47.50663" lon="6.76583">
        <ele>397</ele>
        <time>2016-01-17T08:24:55.000Z</time>
      </trkpt>
      <trkpt lat="47.5066" lon="6.76584">
        <ele>397</ele>
        <time>2016-01-17T08:24:56.000Z</time>
      </trkpt>
      <trkpt lat="47.50657" lon="6.76586">
        <ele>397</ele>
        <time>2016-01-17T08:24:57.000Z</time>
      </trkpt>
      <trkpt lat="47.50654" lon="6.76587">
        <ele>397</ele>
        <time>2016-01-17T08:24:58.000Z</time>
      </trkpt>
      <trkpt lat="47.50651" lon="6.76589">
        <ele>397</ele>
        <time>2016-01-17T08:24:59.000Z</time>
      </trkpt>
      <trkpt lat="47.50647" lon="6.7659">
        <ele>397</ele>
        <time>2016-01-17T08:25:00.000Z</time>
      </trkpt>
      <trkpt lat="47.50644" lon="6.76592">
        <ele>397</ele>
        <time>2016-01-17T08:25:01.000Z</time>
      </trkpt>
      <trkpt lat="47.50641" lon="6.76594">
        <ele>397</ele>
        <time>2016-01-17T08:25:02.000Z</time>
      </trkpt>
      <trkpt lat="47.50638" lon="6.76596">
        <ele>397</ele>
        <time>2016-01-17T08:25:03.000Z</time>
      </trkpt>
      <trkpt lat="47.50636" lon="6.76598">
        <ele>397</ele>
        <time>2016-01-17T08:25:04.000Z</time>
      </trkpt>
      <trkpt lat="47.50633" lon="6.766">
        <ele>397</ele>
        <time>2016-01-17T08:25:05.000Z</time>
      </trkpt>
      <trkpt lat="47.5063" lon="6.76602">
        <ele>397</ele>
        <time>2016-01-17T08:25:06.000Z</time>
      </trkpt>
      <trkpt lat="47.50627" lon="6.76604">
        <ele>397</ele>
        <time>2016-01-17T08:25:07.000Z</time>
      </trkpt>
      <trkpt lat="47.50624" lon="6.76606">
        <ele>397</ele>
        <time>2016-01-17T08:25:08.000Z</time>
      </trkpt>
      <trkpt lat="47.50621" lon="6.76609">
        <ele>397</ele>
        <time>2016-01-17T08:25:09.000Z</time>
      </trkpt>
      <trkpt lat="47.50618" lon="6.76611">
        <ele>397</ele>
        <time>2016-01-17T08:25:10.000Z</time>
      </trkpt>
      <trkpt lat="47.50615" lon="6.76612">
        <ele>398</ele>
        <time>2016-01-17T08:25:11.000Z</time>
      </trkpt>
      <trkpt lat="47.50612" lon="6.76614">
        <ele>398</ele>
        <time>2016-01-17T08:25:12.000Z</time>
      </trkpt>
      <trkpt lat="47.50608" lon="6.76616">
        <ele>398</ele>
        <time>2016-01-17T08:25:13.000Z</time>
      </trkpt>
      <trkpt lat="47.50605" lon="6.76617">
        <ele>398</ele>
        <time>2016-01-17T08:25:14.000Z</time>
      </trkpt>
      <trkpt lat="47.50602" lon="6.76619">
        <ele>398</ele>
        <time>2016-01-17T08:25:15.000Z</time>
      </trkpt>
      <trkpt lat="47.50599" lon="6.7662">
        <ele>398</ele>
        <time>2016-01-17T08:25:16.000Z</time>
      </trkpt>
      <trkpt lat="47.50596" lon="6.76621">
        <ele>398</ele>
        <time>2016-01-17T08:25:17.000Z</time>
      </trkpt>
      <trkpt lat="47.50593" lon="6.76622">
        <ele>398</ele>
        <time>2016-01-17T08:25:18.000Z</time>
      </trkpt>
      <trkpt lat="47.5059" lon="6.76623">
        <ele>398</ele>
        <time>2016-01-17T08:25:19.000Z</time>
      </trkpt>
      <trkpt lat="47.50587" lon="6.76624">
        <ele>398</ele>
        <time>2016-01-17T08:25:20.000Z</time>
      </trkpt>
      <trkpt lat="47.50584" lon="6.76625">
        <ele>398</ele>
        <time>2016-01-17T08:25:21.000Z</time>
      </trkpt>
      <trkpt lat="47.50581" lon="6.76626">
        <ele>399</ele>
        <time>2016-01-17T08:25:22.000Z</time>
      </trkpt>
      <trkpt lat="47.50578" lon="6.76627">
        <ele>399</ele>
        <time>2016-01-17T08:25:23.000Z</time>
      </trkpt>
      <trkpt lat="47.50575" lon="6.76628">
        <ele>399</ele>
        <time>2016-01-17T08:25:24.000Z</time>
      </trkpt>
      <trkpt lat="47.50573" lon="6.76629">
        <ele>399</ele>
        <time>2016-01-17T08:25:25.000Z</time>
      </trkpt>
      <trkpt lat="47.5057" lon="6.76629">
        <ele>399</ele>
        <time>2016-01-17T08:25:26.000Z</time>
      </trkpt>
      <trkpt lat="47.50568" lon="6.7663">
        <ele>399</ele>
        <time>2016-01-17T08:25:27.000Z</time>
      </trkpt>
      <trkpt lat="47.50565" lon="6.76631">
        <ele>399</ele>
        <time>2016-01-17T08:25:28.000Z</time>
      </trkpt>
      <trkpt lat="47.50563" lon="6.76631">
        <ele>399</ele>
        <time>2016-01-17T08:25:29.000Z</time>
      </trkpt>
      <trkpt lat="47.5056" lon="6.76632">
        <ele>399</ele>
        <time>2016-01-17T08:25:30.001Z</time>
      </trkpt>
      <trkpt lat="47.50557" lon="6.76633">
        <ele>399</ele>
        <time>2016-01-17T08:25:31.000Z</time>
      </trkpt>
      <trkpt lat="47.50554" lon="6.76633">
        <ele>399</ele>
        <time>2016-01-17T08:25:32.000Z</time>
      </trkpt>
      <trkpt lat="47.50551" lon="6.76634">
        <ele>399</ele>
        <time>2016-01-17T08:25:33.000Z</time>
      </trkpt>
      <trkpt lat="47.50548" lon="6.76635">
        <ele>399</ele>
        <time>2016-01-17T08:25:34.000Z</time>
      </trkpt>
      <trkpt lat="47.50545" lon="6.76636">
        <ele>399</ele>
        <time>2016-01-17T08:25:35.000Z</time>
      </trkpt>
      <trkpt lat="47.50542" lon="6.76637">
        <ele>399</ele>
        <time>2016-01-17T08:25:36.000Z</time>
      </trkpt>
      <trkpt lat="47.50539" lon="6.76638">
        <ele>399</ele>
        <time>2016-01-17T08:25:37.000Z</time>
      </trkpt>
      <trkpt lat="47.50536" lon="6.76639">
        <ele>399</ele>
        <time>2016-01-17T08:25:38.000Z</time>
      </trkpt>
      <trkpt lat="47.50532" lon="6.76639">
        <ele>399</ele>
        <time>2016-01-17T08:25:39.000Z</time>
      </trkpt>
      <trkpt lat="47.50529" lon="6.7664">
        <ele>399</ele>
        <time>2016-01-17T08:25:40.000Z</time>
      </trkpt>
      <trkpt lat="47.50526" lon="6.7664">
        <ele>399</ele>
        <time>2016-01-17T08:25:41.000Z</time>
      </trkpt>
      <trkpt lat="47.50523" lon="6.76641">
        <ele>399</ele>
        <time>2016-01-17T08:25:42.000Z</time>
      </trkpt>
      <trkpt lat="47.5052" lon="6.76641">
        <ele>399</ele>
        <time>2016-01-17T08:25:43.000Z</time>
      </trkpt>
      <trkpt lat="47.50517" lon="6.76642">
        <ele>399</ele>
        <time>2016-01-17T08:25:44.000Z</time>
      </trkpt>
      <trkpt lat="47.50513" lon="6.76643">
        <ele>399</ele>
        <time>2016-01-17T08:25:45.000Z</time>
      </trkpt>
      <trkpt lat="47.5051" lon="6.76645">
        <ele>399</ele>
        <time>2016-01-17T08:25:46.000Z</time>
      </trkpt>
      <trkpt lat="47.50506" lon="6.76646">
        <ele>399</ele>
        <time>2016-01-17T08:25:47.000Z</time>
      </trkpt>
      <trkpt lat="47.50503" lon="6.76646">
        <ele>399</ele>
        <time>2016-01-17T08:25:48.000Z</time>
      </trkpt>
      <trkpt lat="47.50499" lon="6.76647">
        <ele>399</ele>
        <time>2016-01-17T08:25:49.001Z</time>
      </trkpt>
      <trkpt lat="47.50496" lon="6.76647">
        <ele>399</ele>
        <time>2016-01-17T08:25:49.999Z</time>
      </trkpt>
      <trkpt lat="47.50493" lon="6.76648">
        <ele>399</ele>
        <time>2016-01-17T08:25:50.999Z</time>
      </trkpt>
      <trkpt lat="47.50487" lon="6.76653">
        <ele>399</ele>
        <time>2016-01-17T08:25:52.000Z</time>
      </trkpt>
      <trkpt lat="47.50483" lon="6.76654">
        <ele>399</ele>
        <time>2016-01-17T08:25:53.001Z</time>
      </trkpt>
      <trkpt lat="47.5048" lon="6.76654">
        <ele>399</ele>
        <time>2016-01-17T08:25:54.001Z</time>
      </trkpt>
      <trkpt lat="47.50476" lon="6.76656">
        <ele>398</ele>
        <time>2016-01-17T08:25:55.000Z</time>
      </trkpt>
      <trkpt lat="47.50473" lon="6.76656">
        <ele>398</ele>
        <time>2016-01-17T08:25:56.000Z</time>
      </trkpt>
      <trkpt lat="47.5047" lon="6.76658">
        <ele>398</ele>
        <time>2016-01-17T08:25:57.000Z</time>
      </trkpt>
      <trkpt lat="47.50467" lon="6.7666">
        <ele>398</ele>
        <time>2016-01-17T08:25:58.000Z</time>
      </trkpt>
      <trkpt lat="47.50463" lon="6.76662">
        <ele>398</ele>
        <time>2016-01-17T08:25:59.000Z</time>
      </trkpt>
      <trkpt lat="47.50461" lon="6.76662">
        <ele>398</ele>
        <time>2016-01-17T08:26:00.000Z</time>
      </trkpt>
      <trkpt lat="47.50458" lon="6.76664">
        <ele>398</ele>
        <time>2016-01-17T08:26:01.000Z</time>
      </trkpt>
      <trkpt lat="47.50456" lon="6.76666">
        <ele>398</ele>
        <time>2016-01-17T08:26:02.000Z</time>
      </trkpt>
      <trkpt lat="47.50453" lon="6.76668">
        <ele>397</ele>
        <time>2016-01-17T08:26:03.000Z</time>
      </trkpt>
      <trkpt lat="47.50449" lon="6.76669">
        <ele>397</ele>
        <time>2016-01-17T08:26:04.000Z</time>
      </trkpt>
      <trkpt lat="47.50445" lon="6.76669">
        <ele>397</ele>
        <time>2016-01-17T08:26:05.000Z</time>
      </trkpt>
      <trkpt lat="47.50442" lon="6.76671">
        <ele>397</ele>
        <time>2016-01-17T08:26:06.000Z</time>
      </trkpt>
      <trkpt lat="47.50438" lon="6.76673">
        <ele>397</ele>
        <time>2016-01-17T08:26:07.000Z</time>
      </trkpt>
      <trkpt lat="47.50435" lon="6.76675">
        <ele>397</ele>
        <time>2016-01-17T08:26:08.000Z</time>
      </trkpt>
      <trkpt lat="47.50431" lon="6.76677">
        <ele>397</ele>
        <time>2016-01-17T08:26:09.000Z</time>
      </trkpt>
      <trkpt lat="47.50428" lon="6.76679">
        <ele>397</ele>
        <time>2016-01-17T08:26:10.000Z</time>
      </trkpt>
      <trkpt lat="47.50424" lon="6.76681">
        <ele>397</ele>
        <time>2016-01-17T08:26:10.999Z</time>
      </trkpt>
      <trkpt lat="47.50421" lon="6.76682">
        <ele>397</ele>
        <time>2016-01-17T08:26:12.000Z</time>
      </trkpt>
      <trkpt lat="47.50418" lon="6.76682">
        <ele>397</ele>
        <time>2016-01-17T08:26:13.000Z</time>
      </trkpt>
      <trkpt lat="47.50415" lon="6.76682">
        <ele>397</ele>
        <time>2016-01-17T08:26:14.000Z</time>
      </trkpt>
      <trkpt lat="47.50412" lon="6.76683">
        <ele>397</ele>
        <time>2016-01-17T08:26:15.000Z</time>
      </trkpt>
      <trkpt lat="47.50409" lon="6.76683">
        <ele>397</ele>
        <time>2016-01-17T08:26:16.000Z</time>
      </trkpt>
      <trkpt lat="47.50406" lon="6.76685">
        <ele>397</ele>
        <time>2016-01-17T08:26:17.000Z</time>
      </trkpt>
      <trkpt lat="47.50402" lon="6.76686">
        <ele>397</ele>
        <time>2016-01-17T08:26:18.000Z</time>
      </trkpt>
      <trkpt lat="47.50399" lon="6.76688">
        <ele>397</ele>
        <time>2016-01-17T08:26:19.000Z</time>
      </trkpt>
      <trkpt lat="47.50396" lon="6.7669">
        <ele>397</ele>
        <time>2016-01-17T08:26:20.000Z</time>
      </trkpt>
      <trkpt lat="47.50392" lon="6.76692">
        <ele>397</ele>
        <time>2016-01-17T08:26:21.000Z</time>
      </trkpt>
      <trkpt lat="47.50389" lon="6.76694">
        <ele>397</ele>
        <time>2016-01-17T08:26:22.000Z</time>
      </trkpt>
      <trkpt lat="47.50386" lon="6.76697">
        <ele>397</ele>
        <time>2016-01-17T08:26:23.000Z</time>
      </trkpt>
      <trkpt lat="47.50382" lon="6.76699">
        <ele>397</ele>
        <time>2016-01-17T08:26:24.000Z</time>
      </trkpt>
      <trkpt lat="47.50379" lon="6.76701">
        <ele>397</ele>
        <time>2016-01-17T08:26:25.000Z</time>
      </trkpt>
      <trkpt lat="47.50375" lon="6.76703">
        <ele>397</ele>
        <time>2016-01-17T08:26:26.000Z</time>
      </trkpt>
      <trkpt lat="47.50371" lon="6.76705">
        <ele>397</ele>
        <time>2016-01-17T08:26:27.000Z</time>
      </trkpt>
      <trkpt lat="47.50368" lon="6.76707">
        <ele>397</ele>
        <time>2016-01-17T08:26:28.000Z</time>
      </trkpt>
      <trkpt lat="47.50364" lon="6.76709">
        <ele>398</ele>
        <time>2016-01-17T08:26:29.000Z</time>
      </trkpt>
      <trkpt lat="47.50361" lon="6.7671">
        <ele>398</ele>
        <time>2016-01-17T08:26:30.000Z</time>
      </trkpt>
      <trkpt lat="47.50357" lon="6.76711">
        <ele>398</ele>
        <time>2016-01-17T08:26:31.000Z</time>
      </trkpt>
      <trkpt lat="47.50353" lon="6.76711">
        <ele>398</ele>
        <time>2016-01-17T08:26:32.000Z</time>
      </trkpt>
      <trkpt lat="47.50349" lon="6.76712">
        <ele>398</ele>
        <time>2016-01-17T08:26:33.000Z</time>
      </trkpt>
      <trkpt lat="47.50346" lon="6.76713">
        <ele>398</ele>
        <time>2016-01-17T08:26:34.000Z</time>
      </trkpt>
      <trkpt lat="47.50342" lon="6.76715">
        <ele>398</ele>
        <time>2016-01-17T08:26:35.000Z</time>
      </trkpt>
      <trkpt lat="47.50338" lon="6.76717">
        <ele>398</ele>
        <time>2016-01-17T08:26:36.000Z</time>
      </trkpt>
      <trkpt lat="47.50334" lon="6.76719">
        <ele>398</ele>
        <time>2016-01-17T08:26:37.000Z</time>
      </trkpt>
      <trkpt lat="47.50331" lon="6.76721">
        <ele>398</ele>
        <time>2016-01-17T08:26:38.000Z</time>
      </trkpt>
      <trkpt lat="47.50327" lon="6.76722">
        <ele>398</ele>
        <time>2016-01-17T08:26:39.000Z</time>
      </trkpt>
      <trkpt lat="47.50324" lon="6.76724">
        <ele>398</ele>
        <time>2016-01-17T08:26:40.000Z</time>
      </trkpt>
      <trkpt lat="47.5032" lon="6.76726">
        <ele>398</ele>
        <time>2016-01-17T08:26:41.000Z</time>
      </trkpt>
      <trkpt lat="47.50317" lon="6.76728">
        <ele>398</ele>
        <time>2016-01-17T08:26:42.000Z</time>
      </trkpt>
      <trkpt lat="47.50313" lon="6.76729">
        <ele>398</ele>
        <time>2016-01-17T08:26:43.000Z</time>
      </trkpt>
      <trkpt lat="47.5031" lon="6.7673">
        <ele>398</ele>
        <time>2016-01-17T08:26:44.000Z</time>
      </trkpt>
      <trkpt lat="47.50307" lon="6.76731">
        <ele>398</ele>
        <time>2016-01-17T08:26:45.000Z</time>
      </trkpt>
      <trkpt lat="47.50304" lon="6.76732">
        <ele>398</ele>
        <time>2016-01-17T08:26:46.000Z</time>
      </trkpt>
      <trkpt lat="47.503" lon="6.76734">
        <ele>399</ele>
        <time>2016-01-17T08:26:47.000Z</time>
      </trkpt>
      <trkpt lat="47.50296" lon="6.76735">
        <ele>399</ele>
        <time>2016-01-17T08:26:48.000Z</time>
      </trkpt>
      <trkpt lat="47.50292" lon="6.76736">
        <ele>399</ele>
        <time>2016-01-17T08:26:49.000Z</time>
      </trkpt>
      <trkpt lat="47.50289" lon="6.76737">
        <ele>399</ele>
        <time>2016-01-17T08:26:50.000Z</time>
      </trkpt>
      <trkpt lat="47.50285" lon="6.76738">
        <ele>399</ele>
        <time>2016-01-17T08:26:51.000Z</time>
      </trkpt>
      <trkpt lat="47.50281" lon="6.76739">
        <ele>399</ele>
        <time>2016-01-17T08:26:52.000Z</time>
      </trkpt>
      <trkpt lat="47.50278" lon="6.7674">
        <ele>399</ele>
        <time>2016-01-17T08:26:53.000Z</time>
      </trkpt>
      <trkpt lat="47.50274" lon="6.76741">
        <ele>399</ele>
        <time>2016-01-17T08:26:54.000Z</time>
      </trkpt>
      <trkpt lat="47.50271" lon="6.76743">
        <ele>399</ele>
        <time>2016-01-17T08:26:55.000Z</time>
      </trkpt>
      <trkpt lat="47.50268" lon="6.76744">
        <ele>399</ele>
        <time>2016-01-17T08:26:56.000Z</time>
      </trkpt>
      <trkpt lat="47.50264" lon="6.76746">
        <ele>399</ele>
        <time>2016-01-17T08:26:57.000Z</time>
      </trkpt>
      <trkpt lat="47.50262" lon="6.76747">
        <ele>399</ele>
        <time>2016-01-17T08:26:58.000Z</time>
      </trkpt>
      <trkpt lat="47.50259" lon="6.76748">
        <ele>400</ele>
        <time>2016-01-17T08:26:59.000Z</time>
      </trkpt>
      <trkpt lat="47.50256" lon="6.76749">
        <ele>400</ele>
        <time>2016-01-17T08:27:00.000Z</time>
      </trkpt>
      <trkpt lat="47.50253" lon="6.76749">
        <ele>400</ele>
        <time>2016-01-17T08:27:01.000Z</time>
      </trkpt>
      <trkpt lat="47.5025" lon="6.7675">
        <ele>400</ele>
        <time>2016-01-17T08:27:01.999Z</time>
      </trkpt>
      <trkpt lat="47.50248" lon="6.76748">
        <ele>400</ele>
        <time>2016-01-17T08:27:03.000Z</time>
      </trkpt>
      <trkpt lat="47.50246" lon="6.76746">
        <ele>401</ele>
        <time>2016-01-17T08:27:04.000Z</time>
      </trkpt>
      <trkpt lat="47.50244" lon="6.76743">
        <ele>401</ele>
        <time>2016-01-17T08:27:05.000Z</time>
      </trkpt>
      <trkpt lat="47.50242" lon="6.7674">
        <ele>401</ele>
        <time>2016-01-17T08:27:06.000Z</time>
      </trkpt>
      <trkpt lat="47.50241" lon="6.76737">
        <ele>401</ele>
        <time>2016-01-17T08:27:07.000Z</time>
      </trkpt>
      <trkpt lat="47.5024" lon="6.76733">
        <ele>401</ele>
        <time>2016-01-17T08:27:08.000Z</time>
      </trkpt>
      <trkpt lat="47.50238" lon="6.76729">
        <ele>401</ele>
        <time>2016-01-17T08:27:09.000Z</time>
      </trkpt>
      <trkpt lat="47.50236" lon="6.76726">
        <ele>401</ele>
        <time>2016-01-17T08:27:10.000Z</time>
      </trkpt>
      <trkpt lat="47.50234" lon="6.76724">
        <ele>401</ele>
        <time>2016-01-17T08:27:10.999Z</time>
      </trkpt>
      <trkpt lat="47.50232" lon="6.76719">
        <ele>402</ele>
        <time>2016-01-17T08:27:12.000Z</time>
      </trkpt>
      <trkpt lat="47.5023" lon="6.76715">
        <ele>402</ele>
        <time>2016-01-17T08:27:13.000Z</time>
      </trkpt>
      <trkpt lat="47.50229" lon="6.76711">
        <ele>402</ele>
        <time>2016-01-17T08:27:14.000Z</time>
      </trkpt>
      <trkpt lat="47.50227" lon="6.76707">
        <ele>402</ele>
        <time>2016-01-17T08:27:15.000Z</time>
      </trkpt>
      <trkpt lat="47.50226" lon="6.76702">
        <ele>402</ele>
        <time>2016-01-17T08:27:16.000Z</time>
      </trkpt>
      <trkpt lat="47.50225" lon="6.76697">
        <ele>402</ele>
        <time>2016-01-17T08:27:17.000Z</time>
      </trkpt>
      <trkpt lat="47.50224" lon="6.76692">
        <ele>402</ele>
        <time>2016-01-17T08:27:18.000Z</time>
      </trkpt>
      <trkpt lat="47.50223" lon="6.76688">
        <ele>402</ele>
        <time>2016-01-17T08:27:19.000Z</time>
      </trkpt>
      <trkpt lat="47.50221" lon="6.76683">
        <ele>402</ele>
        <time>2016-01-17T08:27:20.000Z</time>
      </trkpt>
      <trkpt lat="47.5022" lon="6.76679">
        <ele>401</ele>
        <time>2016-01-17T08:27:21.000Z</time>
      </trkpt>
      <trkpt lat="47.50219" lon="6.76674">
        <ele>402</ele>
        <time>2016-01-17T08:27:22.000Z</time>
      </trkpt>
      <trkpt lat="47.50217" lon="6.7667">
        <ele>402</ele>
        <time>2016-01-17T08:27:23.000Z</time>
      </trkpt>
      <trkpt lat="47.50216" lon="6.76665">
        <ele>401</ele>
        <time>2016-01-17T08:27:24.000Z</time>
      </trkpt>
      <trkpt lat="47.50215" lon="6.76661">
        <ele>402</ele>
        <time>2016-01-17T08:27:25.000Z</time>
      </trkpt>
      <trkpt lat="47.50213" lon="6.76656">
        <ele>402</ele>
        <time>2016-01-17T08:27:26.000Z</time>
      </trkpt>
      <trkpt lat="47.50212" lon="6.76651">
        <ele>402</ele>
        <time>2016-01-17T08:27:27.000Z</time>
      </trkpt>
      <trkpt lat="47.5021" lon="6.76646">
        <ele>402</ele>
        <time>2016-01-17T08:27:28.000Z</time>
      </trkpt>
      <trkpt lat="47.50208" lon="6.76642">
        <ele>402</ele>
        <time>2016-01-17T08:27:29.000Z</time>
      </trkpt>
      <trkpt lat="47.50207" lon="6.76637">
        <ele>402</ele>
        <time>2016-01-17T08:27:30.000Z</time>
      </trkpt>
      <trkpt lat="47.50206" lon="6.76631">
        <ele>402</ele>
        <time>2016-01-17T08:27:31.000Z</time>
      </trkpt>
      <trkpt lat="47.50204" lon="6.76626">
        <ele>402</ele>
        <time>2016-01-17T08:27:32.000Z</time>
      </trkpt>
      <trkpt lat="47.50203" lon="6.76621">
        <ele>402</ele>
        <time>2016-01-17T08:27:33.000Z</time>
      </trkpt>
      <trkpt lat="47.50202" lon="6.76616">
        <ele>402</ele>
        <time>2016-01-17T08:27:34.000Z</time>
      </trkpt>
      <trkpt lat="47.502" lon="6.76611">
        <ele>403</ele>
        <time>2016-01-17T08:27:35.000Z</time>
      </trkpt>
      <trkpt lat="47.50199" lon="6.76606">
        <ele>403</ele>
        <time>2016-01-17T08:27:36.000Z</time>
      </trkpt>
      <trkpt lat="47.50197" lon="6.76601">
        <ele>403</ele>
        <time>2016-01-17T08:27:37.000Z</time>
      </trkpt>
      <trkpt lat="47.50196" lon="6.76596">
        <ele>403</ele>
        <time>2016-01-17T08:27:38.000Z</time>
      </trkpt>
      <trkpt lat="47.50196" lon="6.76591">
        <ele>403</ele>
        <time>2016-01-17T08:27:39.000Z</time>
      </trkpt>
      <trkpt lat="47.50196" lon="6.76586">
        <ele>403</ele>
        <time>2016-01-17T08:27:40.000Z</time>
      </trkpt>
      <trkpt lat="47.50196" lon="6.76582">
        <ele>403</ele>
        <time>2016-01-17T08:27:41.000Z</time>
      </trkpt>
      <trkpt lat="47.50196" lon="6.76578">
        <ele>402</ele>
        <time>2016-01-17T08:27:42.001Z</time>
      </trkpt>
      <trkpt lat="47.50195" lon="6.76573">
        <ele>402</ele>
        <time>2016-01-17T08:27:44.000Z</time>
      </trkpt>
      <trkpt lat="47.50195" lon="6.76571">
        <ele>402</ele>
        <time>2016-01-17T08:27:45.000Z</time>
      </trkpt>
      <trkpt lat="47.50195" lon="6.76565">
        <ele>402</ele>
        <time>2016-01-17T08:27:47.000Z</time>
      </trkpt>
      <trkpt lat="47.50197" lon="6.76562">
        <ele>402</ele>
        <time>2016-01-17T08:27:48.000Z</time>
      </trkpt>
      <trkpt lat="47.50199" lon="6.7656">
        <ele>402</ele>
        <time>2016-01-17T08:27:49.000Z</time>
      </trkpt>
      <trkpt lat="47.50201" lon="6.76558">
        <ele>402</ele>
        <time>2016-01-17T08:27:50.000Z</time>
      </trkpt>
      <trkpt lat="47.50205" lon="6.76556">
        <ele>401</ele>
        <time>2016-01-17T08:27:52.000Z</time>
      </trkpt>
      <trkpt lat="47.50206" lon="6.76553">
        <ele>401</ele>
        <time>2016-01-17T08:27:53.000Z</time>
      </trkpt>
      <trkpt lat="47.50207" lon="6.7655">
        <ele>401</ele>
        <time>2016-01-17T08:27:54.000Z</time>
      </trkpt>
      <trkpt lat="47.50208" lon="6.76546">
        <ele>401</ele>
        <time>2016-01-17T08:27:55.000Z</time>
      </trkpt>
      <trkpt lat="47.50208" lon="6.7654">
        <ele>401</ele>
        <time>2016-01-17T08:27:57.000Z</time>
      </trkpt>
      <trkpt lat="47.50209" lon="6.76538">
        <ele>401</ele>
        <time>2016-01-17T08:27:58.000Z</time>
      </trkpt>
      <trkpt lat="47.50211" lon="6.76533">
        <ele>400</ele>
        <time>2016-01-17T08:28:00.000Z</time>
      </trkpt>
      <trkpt lat="47.50213" lon="6.76531">
        <ele>400</ele>
        <time>2016-01-17T08:28:01.000Z</time>
      </trkpt>
      <trkpt lat="47.50217" lon="6.76528">
        <ele>400</ele>
        <time>2016-01-17T08:28:03.000Z</time>
      </trkpt>
      <trkpt lat="47.50218" lon="6.76526">
        <ele>400</ele>
        <time>2016-01-17T08:28:04.000Z</time>
      </trkpt>
      <trkpt lat="47.50218" lon="6.76523">
        <ele>399</ele>
        <time>2016-01-17T08:28:05.000Z</time>
      </trkpt>
      <trkpt lat="47.50217" lon="6.76519">
        <ele>399</ele>
        <time>2016-01-17T08:28:06.000Z</time>
      </trkpt>
      <trkpt lat="47.50215" lon="6.76515">
        <ele>399</ele>
        <time>2016-01-17T08:28:07.000Z</time>
      </trkpt>
      <trkpt lat="47.50213" lon="6.76509">
        <ele>400</ele>
        <time>2016-01-17T08:28:08.000Z</time>
      </trkpt>
      <trkpt lat="47.50211" lon="6.76504">
        <ele>400</ele>
        <time>2016-01-17T08:28:09.000Z</time>
      </trkpt>
      <trkpt lat="47.50208" lon="6.76499">
        <ele>397</ele>
        <time>2016-01-17T08:28:10.000Z</time>
      </trkpt>
      <trkpt lat="47.50206" lon="6.76494">
        <ele>397</ele>
        <time>2016-01-17T08:28:11.000Z</time>
      </trkpt>
      <trkpt lat="47.50203" lon="6.76488">
        <ele>397</ele>
        <time>2016-01-17T08:28:12.000Z</time>
      </trkpt>
      <trkpt lat="47.50198" lon="6.76474">
        <ele>397</ele>
        <time>2016-01-17T08:28:13.000Z</time>
      </trkpt>
      <trkpt lat="47.50195" lon="6.76466">
        <ele>397</ele>
        <time>2016-01-17T08:28:14.000Z</time>
      </trkpt>
      <trkpt lat="47.50193" lon="6.76458">
        <ele>397</ele>
        <time>2016-01-17T08:28:15.000Z</time>
      </trkpt>
      <trkpt lat="47.50191" lon="6.76451">
        <ele>396</ele>
        <time>2016-01-17T08:28:16.000Z</time>
      </trkpt>
      <trkpt lat="47.5019" lon="6.76444">
        <ele>396</ele>
        <time>2016-01-17T08:28:17.000Z</time>
      </trkpt>
      <trkpt lat="47.50186" lon="6.76436">
        <ele>396</ele>
        <time>2016-01-17T08:28:18.000Z</time>
      </trkpt>
      <trkpt lat="47.50184" lon="6.76426">
        <ele>397</ele>
        <time>2016-01-17T08:28:19.000Z</time>
      </trkpt>
      <trkpt lat="47.50181" lon="6.76419">
        <ele>397</ele>
        <time>2016-01-17T08:28:20.000Z</time>
      </trkpt>
      <trkpt lat="47.50179" lon="6.76411">
        <ele>395</ele>
        <time>2016-01-17T08:28:21.000Z</time>
      </trkpt>
      <trkpt lat="47.50177" lon="6.76405">
        <ele>394</ele>
        <time>2016-01-17T08:28:22.000Z</time>
      </trkpt>
      <trkpt lat="47.50174" lon="6.76398">
        <ele>393</ele>
        <time>2016-01-17T08:28:23.000Z</time>
      </trkpt>
      <trkpt lat="47.50172" lon="6.76392">
        <ele>393</ele>
        <time>2016-01-17T08:28:24.000Z</time>
      </trkpt>
      <trkpt lat="47.50169" lon="6.76384">
        <ele>392</ele>
        <time>2016-01-17T08:28:25.000Z</time>
      </trkpt>
      <trkpt lat="47.50166" lon="6.76375">
        <ele>400</ele>
        <time>2016-01-17T08:28:26.000Z</time>
      </trkpt>
      <trkpt lat="47.50164" lon="6.76367">
        <ele>399</ele>
        <time>2016-01-17T08:28:27.000Z</time>
      </trkpt>
      <trkpt lat="47.50162" lon="6.76357">
        <ele>398</ele>
        <time>2016-01-17T08:28:28.000Z</time>
      </trkpt>
      <trkpt lat="47.5016" lon="6.76349">
        <ele>397</ele>
        <time>2016-01-17T08:28:29.000Z</time>
      </trkpt>
      <trkpt lat="47.50158" lon="6.76341">
        <ele>395</ele>
        <time>2016-01-17T08:28:30.000Z</time>
      </trkpt>
      <trkpt lat="47.50155" lon="6.76331">
        <ele>393</ele>
        <time>2016-01-17T08:28:31.000Z</time>
      </trkpt>
      <trkpt lat="47.50153" lon="6.76321">
        <ele>394</ele>
        <time>2016-01-17T08:28:32.000Z</time>
      </trkpt>
      <trkpt lat="47.50151" lon="6.76312">
        <ele>395</ele>
        <time>2016-01-17T08:28:33.000Z</time>
      </trkpt>
      <trkpt lat="47.50149" lon="6.76304">
        <ele>395</ele>
        <time>2016-01-17T08:28:34.000Z</time>
      </trkpt>
      <trkpt lat="47.50147" lon="6.76295">
        <ele>395</ele>
        <time>2016-01-17T08:28:35.000Z</time>
      </trkpt>
      <trkpt lat="47.50145" lon="6.76287">
        <ele>395</ele>
        <time>2016-01-17T08:28:36.000Z</time>
      </trkpt>
      <trkpt lat="47.50142" lon="6.76279">
        <ele>395</ele>
        <time>2016-01-17T08:28:37.000Z</time>
      </trkpt>
      <trkpt lat="47.50142" lon="6.76271">
        <ele>394</ele>
        <time>2016-01-17T08:28:38.000Z</time>
      </trkpt>
      <trkpt lat="47.5014" lon="6.76263">
        <ele>394</ele>
        <time>2016-01-17T08:28:39.000Z</time>
      </trkpt>
      <trkpt lat="47.50138" lon="6.76256">
        <ele>394</ele>
        <time>2016-01-17T08:28:40.000Z</time>
      </trkpt>
      <trkpt lat="47.50136" lon="6.76245">
        <ele>390</ele>
        <time>2016-01-17T08:28:41.000Z</time>
      </trkpt>
      <trkpt lat="47.50135" lon="6.76235">
        <ele>390</ele>
        <time>2016-01-17T08:28:42.000Z</time>
      </trkpt>
      <trkpt lat="47.50135" lon="6.76226">
        <ele>390</ele>
        <time>2016-01-17T08:28:43.000Z</time>
      </trkpt>
      <trkpt lat="47.50132" lon="6.76215">
        <ele>390</ele>
        <time>2016-01-17T08:28:44.000Z</time>
      </trkpt>
      <trkpt lat="47.5013" lon="6.76204">
        <ele>390</ele>
        <time>2016-01-17T08:28:45.000Z</time>
      </trkpt>
      <trkpt lat="47.50128" lon="6.76194">
        <ele>390</ele>
        <time>2016-01-17T08:28:46.000Z</time>
      </trkpt>
      <trkpt lat="47.50125" lon="6.76184">
        <ele>389</ele>
        <time>2016-01-17T08:28:47.000Z</time>
      </trkpt>
      <trkpt lat="47.50123" lon="6.76176">
        <ele>389</ele>
        <time>2016-01-17T08:28:48.000Z</time>
      </trkpt>
      <trkpt lat="47.50122" lon="6.76167">
        <ele>390</ele>
        <time>2016-01-17T08:28:49.000Z</time>
      </trkpt>
      <trkpt lat="47.5012" lon="6.76158">
        <ele>386</ele>
        <time>2016-01-17T08:28:50.000Z</time>
      </trkpt>
      <trkpt lat="47.50119" lon="6.76149">
        <ele>386</ele>
        <time>2016-01-17T08:28:51.000Z</time>
      </trkpt>
      <trkpt lat="47.50117" lon="6.76138">
        <ele>385</ele>
        <time>2016-01-17T08:28:52.000Z</time>
      </trkpt>
      <trkpt lat="47.50114" lon="6.76128">
        <ele>385</ele>
        <time>2016-01-17T08:28:53.000Z</time>
      </trkpt>
      <trkpt lat="47.50112" lon="6.76117">
        <ele>385</ele>
        <time>2016-01-17T08:28:54.000Z</time>
      </trkpt>
      <trkpt lat="47.5011" lon="6.76108">
        <ele>385</ele>
        <time>2016-01-17T08:28:55.000Z</time>
      </trkpt>
      <trkpt lat="47.50108" lon="6.76097">
        <ele>385</ele>
        <time>2016-01-17T08:28:56.000Z</time>
      </trkpt>
      <trkpt lat="47.50105" lon="6.76086">
        <ele>386</ele>
        <time>2016-01-17T08:28:57.000Z</time>
      </trkpt>
      <trkpt lat="47.50103" lon="6.76075">
        <ele>383</ele>
        <time>2016-01-17T08:28:58.000Z</time>
      </trkpt>
      <trkpt lat="47.50102" lon="6.76062">
        <ele>382</ele>
        <time>2016-01-17T08:28:59.000Z</time>
      </trkpt>
      <trkpt lat="47.501" lon="6.76049">
        <ele>381</ele>
        <time>2016-01-17T08:29:00.000Z</time>
      </trkpt>
      <trkpt lat="47.501" lon="6.76038">
        <ele>380</ele>
        <time>2016-01-17T08:29:01.000Z</time>
      </trkpt>
      <trkpt lat="47.501" lon="6.76026">
        <ele>379</ele>
        <time>2016-01-17T08:29:02.000Z</time>
      </trkpt>
      <trkpt lat="47.50098" lon="6.76018">
        <ele>379</ele>
        <time>2016-01-17T08:29:03.000Z</time>
      </trkpt>
      <trkpt lat="47.50097" lon="6.76007">
        <ele>379</ele>
        <time>2016-01-17T08:29:04.000Z</time>
      </trkpt>
      <trkpt lat="47.50093" lon="6.75998">
        <ele>377</ele>
        <time>2016-01-17T08:29:05.000Z</time>
      </trkpt>
      <trkpt lat="47.50089" lon="6.75992">
        <ele>378</ele>
        <time>2016-01-17T08:29:06.000Z</time>
      </trkpt>
      <trkpt lat="47.50084" lon="6.75984">
        <ele>376</ele>
        <time>2016-01-17T08:29:07.000Z</time>
      </trkpt>
      <trkpt lat="47.5008" lon="6.75977">
        <ele>379</ele>
        <time>2016-01-17T08:29:08.000Z</time>
      </trkpt>
      <trkpt lat="47.50076" lon="6.75969">
        <ele>379</ele>
        <time>2016-01-17T08:29:09.000Z</time>
      </trkpt>
      <trkpt lat="47.50072" lon="6.7596">
        <ele>378</ele>
        <time>2016-01-17T08:29:10.000Z</time>
      </trkpt>
      <trkpt lat="47.5007" lon="6.75952">
        <ele>378</ele>
        <time>2016-01-17T08:29:11.000Z</time>
      </trkpt>
      <trkpt lat="47.50065" lon="6.75945">
        <ele>378</ele>
        <time>2016-01-17T08:29:12.000Z</time>
      </trkpt>
      <trkpt lat="47.50061" lon="6.75936">
        <ele>377</ele>
        <time>2016-01-17T08:29:13.000Z</time>
      </trkpt>
      <trkpt lat="47.50057" lon="6.75929">
        <ele>377</ele>
        <time>2016-01-17T08:29:14.000Z</time>
      </trkpt>
      <trkpt lat="47.50053" lon="6.75922">
        <ele>377</ele>
        <time>2016-01-17T08:29:15.000Z</time>
      </trkpt>
      <trkpt lat="47.50049" lon="6.75914">
        <ele>376</ele>
        <time>2016-01-17T08:29:16.000Z</time>
      </trkpt>
      <trkpt lat="47.50044" lon="6.75908">
        <ele>376</ele>
        <time>2016-01-17T08:29:17.000Z</time>
      </trkpt>
      <trkpt lat="47.5004" lon="6.759">
        <ele>376</ele>
        <time>2016-01-17T08:29:18.000Z</time>
      </trkpt>
      <trkpt lat="47.50033" lon="6.75892">
        <ele>376</ele>
        <time>2016-01-17T08:29:19.000Z</time>
      </trkpt>
      <trkpt lat="47.50028" lon="6.75885">
        <ele>376</ele>
        <time>2016-01-17T08:29:20.000Z</time>
      </trkpt>
      <trkpt lat="47.50023" lon="6.75878">
        <ele>377</ele>
        <time>2016-01-17T08:29:21.000Z</time>
      </trkpt>
      <trkpt lat="47.50017" lon="6.7587">
        <ele>377</ele>
        <time>2016-01-17T08:29:22.000Z</time>
      </trkpt>
      <trkpt lat="47.50012" lon="6.75862">
        <ele>377</ele>
        <time>2016-01-17T08:29:23.000Z</time>
      </trkpt>
      <trkpt lat="47.50007" lon="6.75855">
        <ele>377</ele>
        <time>2016-01-17T08:29:24.000Z</time>
      </trkpt>
      <trkpt lat="47.50004" lon="6.75846">
        <ele>378</ele>
        <time>2016-01-17T08:29:25.000Z</time>
      </trkpt>
      <trkpt lat="47.49999" lon="6.75838">
        <ele>378</ele>
        <time>2016-01-17T08:29:26.000Z</time>
      </trkpt>
      <trkpt lat="47.49994" lon="6.75831">
        <ele>378</ele>
        <time>2016-01-17T08:29:27.000Z</time>
      </trkpt>
      <trkpt lat="47.4999" lon="6.75824">
        <ele>377</ele>
        <time>2016-01-17T08:29:28.000Z</time>
      </trkpt>
      <trkpt lat="47.49985" lon="6.75816">
        <ele>376</ele>
        <time>2016-01-17T08:29:29.000Z</time>
      </trkpt>
      <trkpt lat="47.49981" lon="6.7581">
        <ele>375</ele>
        <time>2016-01-17T08:29:30.000Z</time>
      </trkpt>
      <trkpt lat="47.49976" lon="6.75802">
        <ele>375</ele>
        <time>2016-01-17T08:29:31.000Z</time>
      </trkpt>
      <trkpt lat="47.49973" lon="6.75795">
        <ele>375</ele>
        <time>2016-01-17T08:29:32.000Z</time>
      </trkpt>
      <trkpt lat="47.49967" lon="6.75789">
        <ele>374</ele>
        <time>2016-01-17T08:29:33.000Z</time>
      </trkpt>
      <trkpt lat="47.49963" lon="6.75784">
        <ele>374</ele>
        <time>2016-01-17T08:29:34.000Z</time>
      </trkpt>
      <trkpt lat="47.49955" lon="6.7577">
        <ele>373</ele>
        <time>2016-01-17T08:29:35.000Z</time>
      </trkpt>
      <trkpt lat="47.49949" lon="6.7576">
        <ele>373</ele>
        <time>2016-01-17T08:29:36.000Z</time>
      </trkpt>
      <trkpt lat="47.49943" lon="6.75752">
        <ele>372</ele>
        <time>2016-01-17T08:29:37.000Z</time>
      </trkpt>
      <trkpt lat="47.49937" lon="6.75744">
        <ele>370</ele>
        <time>2016-01-17T08:29:38.000Z</time>
      </trkpt>
      <trkpt lat="47.49931" lon="6.75741">
        <ele>370</ele>
        <time>2016-01-17T08:29:39.000Z</time>
      </trkpt>
      <trkpt lat="47.49925" lon="6.75735">
        <ele>370</ele>
        <time>2016-01-17T08:29:40.000Z</time>
      </trkpt>
      <trkpt lat="47.49921" lon="6.75729">
        <ele>370</ele>
        <time>2016-01-17T08:29:41.000Z</time>
      </trkpt>
      <trkpt lat="47.49913" lon="6.75729">
        <ele>366</ele>
        <time>2016-01-17T08:29:42.000Z</time>
      </trkpt>
      <trkpt lat="47.49907" lon="6.7572">
        <ele>365</ele>
        <time>2016-01-17T08:29:43.000Z</time>
      </trkpt>
      <trkpt lat="47.499" lon="6.7572">
        <ele>364</ele>
        <time>2016-01-17T08:29:44.000Z</time>
      </trkpt>
      <trkpt lat="47.49894" lon="6.75722">
        <ele>364</ele>
        <time>2016-01-17T08:29:45.000Z</time>
      </trkpt>
      <trkpt lat="47.49887" lon="6.75725">
        <ele>364</ele>
        <time>2016-01-17T08:29:46.000Z</time>
      </trkpt>
      <trkpt lat="47.49881" lon="6.75727">
        <ele>363</ele>
        <time>2016-01-17T08:29:47.000Z</time>
      </trkpt>
      <trkpt lat="47.49874" lon="6.75727">
        <ele>363</ele>
        <time>2016-01-17T08:29:48.000Z</time>
      </trkpt>
      <trkpt lat="47.49864" lon="6.75729">
        <ele>362</ele>
        <time>2016-01-17T08:29:49.000Z</time>
      </trkpt>
      <trkpt lat="47.49858" lon="6.75733">
        <ele>362</ele>
        <time>2016-01-17T08:29:50.000Z</time>
      </trkpt>
      <trkpt lat="47.49852" lon="6.75733">
        <ele>361</ele>
        <time>2016-01-17T08:29:51.000Z</time>
      </trkpt>
      <trkpt lat="47.49845" lon="6.75733">
        <ele>361</ele>
        <time>2016-01-17T08:29:52.000Z</time>
      </trkpt>
      <trkpt lat="47.49838" lon="6.75733">
        <ele>360</ele>
        <time>2016-01-17T08:29:53.000Z</time>
      </trkpt>
      <trkpt lat="47.49831" lon="6.75734">
        <ele>355</ele>
        <time>2016-01-17T08:29:54.000Z</time>
      </trkpt>
      <trkpt lat="47.49825" lon="6.75737">
        <ele>355</ele>
        <time>2016-01-17T08:29:55.000Z</time>
      </trkpt>
      <trkpt lat="47.49818" lon="6.7574">
        <ele>355</ele>
        <time>2016-01-17T08:29:56.000Z</time>
      </trkpt>
      <trkpt lat="47.4981" lon="6.75743">
        <ele>354</ele>
        <time>2016-01-17T08:29:57.000Z</time>
      </trkpt>
      <trkpt lat="47.49804" lon="6.75743">
        <ele>353</ele>
        <time>2016-01-17T08:29:58.000Z</time>
      </trkpt>
      <trkpt lat="47.49797" lon="6.75746">
        <ele>353</ele>
        <time>2016-01-17T08:29:59.000Z</time>
      </trkpt>
      <trkpt lat="47.49789" lon="6.75748">
        <ele>352</ele>
        <time>2016-01-17T08:30:00.000Z</time>
      </trkpt>
      <trkpt lat="47.49781" lon="6.75751">
        <ele>358</ele>
        <time>2016-01-17T08:30:01.000Z</time>
      </trkpt>
      <trkpt lat="47.49772" lon="6.75754">
        <ele>357</ele>
        <time>2016-01-17T08:30:02.000Z</time>
      </trkpt>
      <trkpt lat="47.49765" lon="6.75757">
        <ele>356</ele>
        <time>2016-01-17T08:30:03.000Z</time>
      </trkpt>
      <trkpt lat="47.49758" lon="6.7576">
        <ele>355</ele>
        <time>2016-01-17T08:30:04.000Z</time>
      </trkpt>
      <trkpt lat="47.49749" lon="6.75762">
        <ele>353</ele>
        <time>2016-01-17T08:30:05.000Z</time>
      </trkpt>
      <trkpt lat="47.49741" lon="6.75766">
        <ele>353</ele>
        <time>2016-01-17T08:30:06.000Z</time>
      </trkpt>
      <trkpt lat="47.49733" lon="6.75767">
        <ele>353</ele>
        <time>2016-01-17T08:30:07.000Z</time>
      </trkpt>
      <trkpt lat="47.49727" lon="6.7577">
        <ele>354</ele>
        <time>2016-01-17T08:30:08.000Z</time>
      </trkpt>
      <trkpt lat="47.49721" lon="6.75771">
        <ele>354</ele>
        <time>2016-01-17T08:30:09.000Z</time>
      </trkpt>
      <trkpt lat="47.49714" lon="6.75774">
        <ele>354</ele>
        <time>2016-01-17T08:30:10.000Z</time>
      </trkpt>
      <trkpt lat="47.49707" lon="6.75776">
        <ele>353</ele>
        <time>2016-01-17T08:30:11.000Z</time>
      </trkpt>
      <trkpt lat="47.497" lon="6.75779">
        <ele>353</ele>
        <time>2016-01-17T08:30:12.000Z</time>
      </trkpt>
      <trkpt lat="47.49692" lon="6.7578">
        <ele>353</ele>
        <time>2016-01-17T08:30:13.000Z</time>
      </trkpt>
      <trkpt lat="47.49684" lon="6.75781">
        <ele>352</ele>
        <time>2016-01-17T08:30:14.000Z</time>
      </trkpt>
      <trkpt lat="47.49677" lon="6.75781">
        <ele>352</ele>
        <time>2016-01-17T08:30:15.000Z</time>
      </trkpt>
      <trkpt lat="47.4967" lon="6.75781">
        <ele>352</ele>
        <time>2016-01-17T08:30:16.000Z</time>
      </trkpt>
      <trkpt lat="47.49662" lon="6.75783">
        <ele>347</ele>
        <time>2016-01-17T08:30:17.000Z</time>
      </trkpt>
      <trkpt lat="47.49655" lon="6.75784">
        <ele>347</ele>
        <time>2016-01-17T08:30:18.000Z</time>
      </trkpt>
      <trkpt lat="47.49648" lon="6.75784">
        <ele>347</ele>
        <time>2016-01-17T08:30:19.000Z</time>
      </trkpt>
      <trkpt lat="47.49642" lon="6.75781">
        <ele>346</ele>
        <time>2016-01-17T08:30:20.000Z</time>
      </trkpt>
      <trkpt lat="47.49636" lon="6.75779">
        <ele>346</ele>
        <time>2016-01-17T08:30:21.000Z</time>
      </trkpt>
      <trkpt lat="47.4963" lon="6.7578">
        <ele>346</ele>
        <time>2016-01-17T08:30:22.000Z</time>
      </trkpt>
      <trkpt lat="47.49627" lon="6.7578">
        <ele>345</ele>
        <time>2016-01-17T08:30:23.000Z</time>
      </trkpt>
      <trkpt lat="47.49619" lon="6.75781">
        <ele>345</ele>
        <time>2016-01-17T08:30:24.000Z</time>
      </trkpt>
      <trkpt lat="47.49613" lon="6.75781">
        <ele>345</ele>
        <time>2016-01-17T08:30:25.000Z</time>
      </trkpt>
      <trkpt lat="47.49607" lon="6.75781">
        <ele>344</ele>
        <time>2016-01-17T08:30:26.000Z</time>
      </trkpt>
      <trkpt lat="47.49603" lon="6.75781">
        <ele>344</ele>
        <time>2016-01-17T08:30:27.000Z</time>
      </trkpt>
      <trkpt lat="47.496" lon="6.7578">
        <ele>343</ele>
        <time>2016-01-17T08:30:28.000Z</time>
      </trkpt>
      <trkpt lat="47.49595" lon="6.7578">
        <ele>343</ele>
        <time>2016-01-17T08:30:29.000Z</time>
      </trkpt>
      <trkpt lat="47.49591" lon="6.75781">
        <ele>343</ele>
        <time>2016-01-17T08:30:30.000Z</time>
      </trkpt>
      <trkpt lat="47.49586" lon="6.75779">
        <ele>343</ele>
        <time>2016-01-17T08:30:31.000Z</time>
      </trkpt>
      <trkpt lat="47.49582" lon="6.75779">
        <ele>337</ele>
        <time>2016-01-17T08:30:32.000Z</time>
      </trkpt>
      <trkpt lat="47.49577" lon="6.75776">
        <ele>336</ele>
        <time>2016-01-17T08:30:33.000Z</time>
      </trkpt>
      <trkpt lat="47.49573" lon="6.75774">
        <ele>336</ele>
        <time>2016-01-17T08:30:34.000Z</time>
      </trkpt>
      <trkpt lat="47.49567" lon="6.75772">
        <ele>336</ele>
        <time>2016-01-17T08:30:35.000Z</time>
      </trkpt>
      <trkpt lat="47.49562" lon="6.75768">
        <ele>335</ele>
        <time>2016-01-17T08:30:36.000Z</time>
      </trkpt>
      <trkpt lat="47.49559" lon="6.75765">
        <ele>335</ele>
        <time>2016-01-17T08:30:37.000Z</time>
      </trkpt>
      <trkpt lat="47.49558" lon="6.75761">
        <ele>335</ele>
        <time>2016-01-17T08:30:38.000Z</time>
      </trkpt>
      <trkpt lat="47.49558" lon="6.75756">
        <ele>335</ele>
        <time>2016-01-17T08:30:39.000Z</time>
      </trkpt>
      <trkpt lat="47.49559" lon="6.75752">
        <ele>335</ele>
        <time>2016-01-17T08:30:40.000Z</time>
      </trkpt>
      <trkpt lat="47.49562" lon="6.75748">
        <ele>329</ele>
        <time>2016-01-17T08:30:41.000Z</time>
      </trkpt>
      <trkpt lat="47.49565" lon="6.75744">
        <ele>329</ele>
        <time>2016-01-17T08:30:42.000Z</time>
      </trkpt>
      <trkpt lat="47.49573" lon="6.75737">
        <ele>329</ele>
        <time>2016-01-17T08:30:43.000Z</time>
      </trkpt>
      <trkpt lat="47.49576" lon="6.75734">
        <ele>329</ele>
        <time>2016-01-17T08:30:44.000Z</time>
      </trkpt>
      <trkpt lat="47.4958" lon="6.75729">
        <ele>329</ele>
        <time>2016-01-17T08:30:45.000Z</time>
      </trkpt>
      <trkpt lat="47.49584" lon="6.75724">
        <ele>332</ele>
        <time>2016-01-17T08:30:46.000Z</time>
      </trkpt>
      <trkpt lat="47.49587" lon="6.75719">
        <ele>331</ele>
        <time>2016-01-17T08:30:47.000Z</time>
      </trkpt>
      <trkpt lat="47.49591" lon="6.75714">
        <ele>331</ele>
        <time>2016-01-17T08:30:48.000Z</time>
      </trkpt>
      <trkpt lat="47.49593" lon="6.75707">
        <ele>330</ele>
        <time>2016-01-17T08:30:49.000Z</time>
      </trkpt>
      <trkpt lat="47.49596" lon="6.75701">
        <ele>329</ele>
        <time>2016-01-17T08:30:50.000Z</time>
      </trkpt>
      <trkpt lat="47.49596" lon="6.75693">
        <ele>328</ele>
        <time>2016-01-17T08:30:51.000Z</time>
      </trkpt>
      <trkpt lat="47.49595" lon="6.75687">
        <ele>327</ele>
        <time>2016-01-17T08:30:52.000Z</time>
      </trkpt>
      <trkpt lat="47.49591" lon="6.75681">
        <ele>326</ele>
        <time>2016-01-17T08:30:53.000Z</time>
      </trkpt>
      <trkpt lat="47.49588" lon="6.75676">
        <ele>325</ele>
        <time>2016-01-17T08:30:54.000Z</time>
      </trkpt>
      <trkpt lat="47.49584" lon="6.7567">
        <ele>322</ele>
        <time>2016-01-17T08:30:55.000Z</time>
      </trkpt>
      <trkpt lat="47.49581" lon="6.75665">
        <ele>321</ele>
        <time>2016-01-17T08:30:56.000Z</time>
      </trkpt>
      <trkpt lat="47.49577" lon="6.75662">
        <ele>321</ele>
        <time>2016-01-17T08:30:57.000Z</time>
      </trkpt>
      <trkpt lat="47.49571" lon="6.75666">
        <ele>321</ele>
        <time>2016-01-17T08:30:58.000Z</time>
      </trkpt>
      <trkpt lat="47.49567" lon="6.75669">
        <ele>323</ele>
        <time>2016-01-17T08:30:59.000Z</time>
      </trkpt>
      <trkpt lat="47.49563" lon="6.75673">
        <ele>323</ele>
        <time>2016-01-17T08:31:00.000Z</time>
      </trkpt>
      <trkpt lat="47.4956" lon="6.75679">
        <ele>324</ele>
        <time>2016-01-17T08:31:01.000Z</time>
      </trkpt>
      <trkpt lat="47.49556" lon="6.75685">
        <ele>324</ele>
        <time>2016-01-17T08:31:02.000Z</time>
      </trkpt>
      <trkpt lat="47.49552" lon="6.7569">
        <ele>324</ele>
        <time>2016-01-17T08:31:03.000Z</time>
      </trkpt>
      <trkpt lat="47.49547" lon="6.75696">
        <ele>325</ele>
        <time>2016-01-17T08:31:04.000Z</time>
      </trkpt>
      <trkpt lat="47.49543" lon="6.75701">
        <ele>325</ele>
        <time>2016-01-17T08:31:05.000Z</time>
      </trkpt>
      <trkpt lat="47.49539" lon="6.75705">
        <ele>325</ele>
        <time>2016-01-17T08:31:06.001Z</time>
      </trkpt>
      <trkpt lat="47.49534" lon="6.75711">
        <ele>325</ele>
        <time>2016-01-17T08:31:07.000Z</time>
      </trkpt>
      <trkpt lat="47.4953" lon="6.75714">
        <ele>325</ele>
        <time>2016-01-17T08:31:08.000Z</time>
      </trkpt>
      <trkpt lat="47.49525" lon="6.75718">
        <ele>325</ele>
        <time>2016-01-17T08:31:08.999Z</time>
      </trkpt>
      <trkpt lat="47.49519" lon="6.75723">
        <ele>325</ele>
        <time>2016-01-17T08:31:10.000Z</time>
      </trkpt>
      <trkpt lat="47.49514" lon="6.75726">
        <ele>325</ele>
        <time>2016-01-17T08:31:11.000Z</time>
      </trkpt>
      <trkpt lat="47.49508" lon="6.7573">
        <ele>325</ele>
        <time>2016-01-17T08:31:12.000Z</time>
      </trkpt>
      <trkpt lat="47.49503" lon="6.75732">
        <ele>325</ele>
        <time>2016-01-17T08:31:13.000Z</time>
      </trkpt>
      <trkpt lat="47.49498" lon="6.75734">
        <ele>323</ele>
        <time>2016-01-17T08:31:14.000Z</time>
      </trkpt>
      <trkpt lat="47.49493" lon="6.75736">
        <ele>323</ele>
        <time>2016-01-17T08:31:15.000Z</time>
      </trkpt>
      <trkpt lat="47.49488" lon="6.75737">
        <ele>322</ele>
        <time>2016-01-17T08:31:16.000Z</time>
      </trkpt>
      <trkpt lat="47.49484" lon="6.75732">
        <ele>322</ele>
        <time>2016-01-17T08:31:17.000Z</time>
      </trkpt>
      <trkpt lat="47.4948" lon="6.75726">
        <ele>322</ele>
        <time>2016-01-17T08:31:18.000Z</time>
      </trkpt>
      <trkpt lat="47.49477" lon="6.75719">
        <ele>322</ele>
        <time>2016-01-17T08:31:19.000Z</time>
      </trkpt>
      <trkpt lat="47.49474" lon="6.75713">
        <ele>321</ele>
        <time>2016-01-17T08:31:20.000Z</time>
      </trkpt>
      <trkpt lat="47.49471" lon="6.75706">
        <ele>321</ele>
        <time>2016-01-17T08:31:21.000Z</time>
      </trkpt>
      <trkpt lat="47.49471" lon="6.75701">
        <ele>321</ele>
        <time>2016-01-17T08:31:22.000Z</time>
      </trkpt>
      <trkpt lat="47.49469" lon="6.75695">
        <ele>321</ele>
        <time>2016-01-17T08:31:23.000Z</time>
      </trkpt>
      <trkpt lat="47.49466" lon="6.75692">
        <ele>321</ele>
        <time>2016-01-17T08:31:24.000Z</time>
      </trkpt>
      <trkpt lat="47.49463" lon="6.75688">
        <ele>321</ele>
        <time>2016-01-17T08:31:25.000Z</time>
      </trkpt>
      <trkpt lat="47.49456" lon="6.75693">
        <ele>321</ele>
        <time>2016-01-17T08:31:26.000Z</time>
      </trkpt>
      <trkpt lat="47.49453" lon="6.75694">
        <ele>321</ele>
        <time>2016-01-17T08:31:27.000Z</time>
      </trkpt>
      <trkpt lat="47.49449" lon="6.75696">
        <ele>321</ele>
        <time>2016-01-17T08:31:28.000Z</time>
      </trkpt>
      <trkpt lat="47.49445" lon="6.75696">
        <ele>321</ele>
        <time>2016-01-17T08:31:28.999Z</time>
      </trkpt>
      <trkpt lat="47.49443" lon="6.75691">
        <ele>321</ele>
        <time>2016-01-17T08:31:30.000Z</time>
      </trkpt>
      <trkpt lat="47.49441" lon="6.75687">
        <ele>320</ele>
        <time>2016-01-17T08:31:31.000Z</time>
      </trkpt>
      <trkpt lat="47.49439" lon="6.75681">
        <ele>320</ele>
        <time>2016-01-17T08:31:32.000Z</time>
      </trkpt>
      <trkpt lat="47.49437" lon="6.75676">
        <ele>320</ele>
        <time>2016-01-17T08:31:33.000Z</time>
      </trkpt>
      <trkpt lat="47.49436" lon="6.7567">
        <ele>320</ele>
        <time>2016-01-17T08:31:34.001Z</time>
      </trkpt>
      <trkpt lat="47.49434" lon="6.75666">
        <ele>320</ele>
        <time>2016-01-17T08:31:35.000Z</time>
      </trkpt>
      <trkpt lat="47.49433" lon="6.75662">
        <ele>320</ele>
        <time>2016-01-17T08:31:36.000Z</time>
      </trkpt>
      <trkpt lat="47.49431" lon="6.75661">
        <ele>320</ele>
        <time>2016-01-17T08:31:37.000Z</time>
      </trkpt>
      <trkpt lat="47.49428" lon="6.75662">
        <ele>320</ele>
        <time>2016-01-17T08:31:38.000Z</time>
      </trkpt>
      <trkpt lat="47.49425" lon="6.75665">
        <ele>319</ele>
        <time>2016-01-17T08:31:39.000Z</time>
      </trkpt>
      <trkpt lat="47.49422" lon="6.75666">
        <ele>319</ele>
        <time>2016-01-17T08:31:39.998Z</time>
      </trkpt>
      <trkpt lat="47.49418" lon="6.75672">
        <ele>319</ele>
        <time>2016-01-17T08:31:41.000Z</time>
      </trkpt>
      <trkpt lat="47.49412" lon="6.7568">
        <ele>319</ele>
        <time>2016-01-17T08:31:42.000Z</time>
      </trkpt>
      <trkpt lat="47.49408" lon="6.75683">
        <ele>319</ele>
        <time>2016-01-17T08:31:43.001Z</time>
      </trkpt>
      <trkpt lat="47.49403" lon="6.75686">
        <ele>319</ele>
        <time>2016-01-17T08:31:44.000Z</time>
      </trkpt>
      <trkpt lat="47.49398" lon="6.7569">
        <ele>319</ele>
        <time>2016-01-17T08:31:45.000Z</time>
      </trkpt>
      <trkpt lat="47.49391" lon="6.75694">
        <ele>319</ele>
        <time>2016-01-17T08:31:46.000Z</time>
      </trkpt>
      <trkpt lat="47.49385" lon="6.75698">
        <ele>319</ele>
        <time>2016-01-17T08:31:47.000Z</time>
      </trkpt>
      <trkpt lat="47.49381" lon="6.75702">
        <ele>319</ele>
        <time>2016-01-17T08:31:48.000Z</time>
      </trkpt>
      <trkpt lat="47.49377" lon="6.75705">
        <ele>319</ele>
        <time>2016-01-17T08:31:49.000Z</time>
      </trkpt>
      <trkpt lat="47.49373" lon="6.75707">
        <ele>319</ele>
        <time>2016-01-17T08:31:50.000Z</time>
      </trkpt>
      <trkpt lat="47.49368" lon="6.75712">
        <ele>319</ele>
        <time>2016-01-17T08:31:51.000Z</time>
      </trkpt>
      <trkpt lat="47.49364" lon="6.75716">
        <ele>319</ele>
        <time>2016-01-17T08:31:52.000Z</time>
      </trkpt>
      <trkpt lat="47.4936" lon="6.75717">
        <ele>319</ele>
        <time>2016-01-17T08:31:54.000Z</time>
      </trkpt>
      <trkpt lat="47.49359" lon="6.75718">
        <ele>319</ele>
        <time>2016-01-17T08:31:54.999Z</time>
      </trkpt>
      <trkpt lat="47.49356" lon="6.75721">
        <ele>319</ele>
        <time>2016-01-17T08:31:56.000Z</time>
      </trkpt>
      <trkpt lat="47.49353" lon="6.75723">
        <ele>319</ele>
        <time>2016-01-17T08:31:57.000Z</time>
      </trkpt>
      <trkpt lat="47.49349" lon="6.75725">
        <ele>319</ele>
        <time>2016-01-17T08:31:58.000Z</time>
      </trkpt>
      <trkpt lat="47.49345" lon="6.75727">
        <ele>318</ele>
        <time>2016-01-17T08:31:59.000Z</time>
      </trkpt>
      <trkpt lat="47.49341" lon="6.7573">
        <ele>318</ele>
        <time>2016-01-17T08:32:00.000Z</time>
      </trkpt>
      <trkpt lat="47.49336" lon="6.75735">
        <ele>318</ele>
        <time>2016-01-17T08:32:01.000Z</time>
      </trkpt>
      <trkpt lat="47.4933" lon="6.75738">
        <ele>318</ele>
        <time>2016-01-17T08:32:02.000Z</time>
      </trkpt>
      <trkpt lat="47.49325" lon="6.75742">
        <ele>318</ele>
        <time>2016-01-17T08:32:03.000Z</time>
      </trkpt>
      <trkpt lat="47.4932" lon="6.75747">
        <ele>319</ele>
        <time>2016-01-17T08:32:04.000Z</time>
      </trkpt>
      <trkpt lat="47.49314" lon="6.75751">
        <ele>318</ele>
        <time>2016-01-17T08:32:05.000Z</time>
      </trkpt>
      <trkpt lat="47.4931" lon="6.75756">
        <ele>318</ele>
        <time>2016-01-17T08:32:06.000Z</time>
      </trkpt>
      <trkpt lat="47.49305" lon="6.75763">
        <ele>318</ele>
        <time>2016-01-17T08:32:07.000Z</time>
      </trkpt>
      <trkpt lat="47.49302" lon="6.75769">
        <ele>318</ele>
        <time>2016-01-17T08:32:08.000Z</time>
      </trkpt>
      <trkpt lat="47.49297" lon="6.75775">
        <ele>318</ele>
        <time>2016-01-17T08:32:09.000Z</time>
      </trkpt>
      <trkpt lat="47.49294" lon="6.7578">
        <ele>318</ele>
        <time>2016-01-17T08:32:10.000Z</time>
      </trkpt>
      <trkpt lat="47.49289" lon="6.75786">
        <ele>318</ele>
        <time>2016-01-17T08:32:11.000Z</time>
      </trkpt>
      <trkpt lat="47.49285" lon="6.75793">
        <ele>318</ele>
        <time>2016-01-17T08:32:12.000Z</time>
      </trkpt>
      <trkpt lat="47.49281" lon="6.75799">
        <ele>318</ele>
        <time>2016-01-17T08:32:13.000Z</time>
      </trkpt>
      <trkpt lat="47.49276" lon="6.75806">
        <ele>317</ele>
        <time>2016-01-17T08:32:14.000Z</time>
      </trkpt>
      <trkpt lat="47.49273" lon="6.75812">
        <ele>317</ele>
        <time>2016-01-17T08:32:15.000Z</time>
      </trkpt>
      <trkpt lat="47.49269" lon="6.75819">
        <ele>316</ele>
        <time>2016-01-17T08:32:16.000Z</time>
      </trkpt>
      <trkpt lat="47.49265" lon="6.75824">
        <ele>316</ele>
        <time>2016-01-17T08:32:17.000Z</time>
      </trkpt>
      <trkpt lat="47.4926" lon="6.7583">
        <ele>315</ele>
        <time>2016-01-17T08:32:18.000Z</time>
      </trkpt>
      <trkpt lat="47.49257" lon="6.75837">
        <ele>315</ele>
        <time>2016-01-17T08:32:19.000Z</time>
      </trkpt>
      <trkpt lat="47.49253" lon="6.75843">
        <ele>315</ele>
        <time>2016-01-17T08:32:20.000Z</time>
      </trkpt>
      <trkpt lat="47.4925" lon="6.7585">
        <ele>316</ele>
        <time>2016-01-17T08:32:21.000Z</time>
      </trkpt>
      <trkpt lat="47.49246" lon="6.75858">
        <ele>317</ele>
        <time>2016-01-17T08:32:22.000Z</time>
      </trkpt>
      <trkpt lat="47.49243" lon="6.75865">
        <ele>317</ele>
        <time>2016-01-17T08:32:23.000Z</time>
      </trkpt>
      <trkpt lat="47.4924" lon="6.75872">
        <ele>318</ele>
        <time>2016-01-17T08:32:24.000Z</time>
      </trkpt>
      <trkpt lat="47.49236" lon="6.75879">
        <ele>318</ele>
        <time>2016-01-17T08:32:25.000Z</time>
      </trkpt>
      <trkpt lat="47.49233" lon="6.75887">
        <ele>318</ele>
        <time>2016-01-17T08:32:26.000Z</time>
      </trkpt>
      <trkpt lat="47.49229" lon="6.75893">
        <ele>318</ele>
        <time>2016-01-17T08:32:27.000Z</time>
      </trkpt>
      <trkpt lat="47.49227" lon="6.759">
        <ele>318</ele>
        <time>2016-01-17T08:32:28.000Z</time>
      </trkpt>
      <trkpt lat="47.49224" lon="6.75908">
        <ele>318</ele>
        <time>2016-01-17T08:32:29.000Z</time>
      </trkpt>
      <trkpt lat="47.49222" lon="6.75916">
        <ele>319</ele>
        <time>2016-01-17T08:32:30.000Z</time>
      </trkpt>
      <trkpt lat="47.4922" lon="6.75925">
        <ele>319</ele>
        <time>2016-01-17T08:32:31.000Z</time>
      </trkpt>
      <trkpt lat="47.4921" lon="6.75939">
        <ele>320</ele>
        <time>2016-01-17T08:32:33.000Z</time>
      </trkpt>
      <trkpt lat="47.49206" lon="6.75946">
        <ele>320</ele>
        <time>2016-01-17T08:32:34.000Z</time>
      </trkpt>
      <trkpt lat="47.49201" lon="6.75954">
        <ele>320</ele>
        <time>2016-01-17T08:32:35.000Z</time>
      </trkpt>
      <trkpt lat="47.492" lon="6.7596">
        <ele>320</ele>
        <time>2016-01-17T08:32:36.000Z</time>
      </trkpt>
      <trkpt lat="47.49197" lon="6.75968">
        <ele>320</ele>
        <time>2016-01-17T08:32:37.000Z</time>
      </trkpt>
      <trkpt lat="47.49194" lon="6.75974">
        <ele>320</ele>
        <time>2016-01-17T08:32:38.000Z</time>
      </trkpt>
      <trkpt lat="47.4919" lon="6.75981">
        <ele>320</ele>
        <time>2016-01-17T08:32:39.000Z</time>
      </trkpt>
      <trkpt lat="47.49187" lon="6.75988">
        <ele>320</ele>
        <time>2016-01-17T08:32:40.000Z</time>
      </trkpt>
      <trkpt lat="47.49183" lon="6.75995">
        <ele>320</ele>
        <time>2016-01-17T08:32:41.000Z</time>
      </trkpt>
      <trkpt lat="47.4918" lon="6.76002">
        <ele>320</ele>
        <time>2016-01-17T08:32:42.000Z</time>
      </trkpt>
      <trkpt lat="47.49176" lon="6.76011">
        <ele>320</ele>
        <time>2016-01-17T08:32:43.000Z</time>
      </trkpt>
      <trkpt lat="47.49173" lon="6.76019">
        <ele>320</ele>
        <time>2016-01-17T08:32:44.000Z</time>
      </trkpt>
      <trkpt lat="47.49168" lon="6.76028">
        <ele>320</ele>
        <time>2016-01-17T08:32:45.000Z</time>
      </trkpt>
      <trkpt lat="47.49168" lon="6.76036">
        <ele>320</ele>
        <time>2016-01-17T08:32:46.000Z</time>
      </trkpt>
      <trkpt lat="47.49165" lon="6.76045">
        <ele>322</ele>
        <time>2016-01-17T08:32:47.000Z</time>
      </trkpt>
      <trkpt lat="47.49161" lon="6.76052">
        <ele>322</ele>
        <time>2016-01-17T08:32:48.000Z</time>
      </trkpt>
      <trkpt lat="47.49158" lon="6.76059">
        <ele>322</ele>
        <time>2016-01-17T08:32:49.000Z</time>
      </trkpt>
      <trkpt lat="47.49156" lon="6.76066">
        <ele>321</ele>
        <time>2016-01-17T08:32:50.000Z</time>
      </trkpt>
      <trkpt lat="47.49156" lon="6.76074">
        <ele>321</ele>
        <time>2016-01-17T08:32:51.000Z</time>
      </trkpt>
      <trkpt lat="47.49154" lon="6.76082">
        <ele>321</ele>
        <time>2016-01-17T08:32:52.000Z</time>
      </trkpt>
      <trkpt lat="47.49152" lon="6.76089">
        <ele>320</ele>
        <time>2016-01-17T08:32:53.000Z</time>
      </trkpt>
      <trkpt lat="47.49149" lon="6.76098">
        <ele>321</ele>
        <time>2016-01-17T08:32:54.000Z</time>
      </trkpt>
      <trkpt lat="47.49146" lon="6.76107">
        <ele>321</ele>
        <time>2016-01-17T08:32:55.000Z</time>
      </trkpt>
      <trkpt lat="47.49145" lon="6.76116">
        <ele>321</ele>
        <time>2016-01-17T08:32:56.000Z</time>
      </trkpt>
      <trkpt lat="47.49143" lon="6.76125">
        <ele>321</ele>
        <time>2016-01-17T08:32:57.000Z</time>
      </trkpt>
      <trkpt lat="47.49141" lon="6.76134">
        <ele>322</ele>
        <time>2016-01-17T08:32:58.000Z</time>
      </trkpt>
      <trkpt lat="47.49139" lon="6.76143">
        <ele>321</ele>
        <time>2016-01-17T08:32:59.000Z</time>
      </trkpt>
      <trkpt lat="47.4914" lon="6.76152">
        <ele>321</ele>
        <time>2016-01-17T08:33:00.000Z</time>
      </trkpt>
      <trkpt lat="47.49139" lon="6.76161">
        <ele>321</ele>
        <time>2016-01-17T08:33:01.000Z</time>
      </trkpt>
      <trkpt lat="47.49138" lon="6.76169">
        <ele>321</ele>
        <time>2016-01-17T08:33:02.000Z</time>
      </trkpt>
      <trkpt lat="47.49138" lon="6.76179">
        <ele>321</ele>
        <time>2016-01-17T08:33:03.000Z</time>
      </trkpt>
      <trkpt lat="47.49138" lon="6.76191">
        <ele>321</ele>
        <time>2016-01-17T08:33:04.000Z</time>
      </trkpt>
      <trkpt lat="47.49138" lon="6.76201">
        <ele>321</ele>
        <time>2016-01-17T08:33:05.000Z</time>
      </trkpt>
      <trkpt lat="47.49138" lon="6.7621">
        <ele>320</ele>
        <time>2016-01-17T08:33:06.000Z</time>
      </trkpt>
      <trkpt lat="47.49136" lon="6.7622">
        <ele>320</ele>
        <time>2016-01-17T08:33:07.000Z</time>
      </trkpt>
      <trkpt lat="47.49135" lon="6.76228">
        <ele>320</ele>
        <time>2016-01-17T08:33:08.000Z</time>
      </trkpt>
      <trkpt lat="47.49136" lon="6.76237">
        <ele>320</ele>
        <time>2016-01-17T08:33:09.000Z</time>
      </trkpt>
      <trkpt lat="47.49135" lon="6.76247">
        <ele>320</ele>
        <time>2016-01-17T08:33:10.000Z</time>
      </trkpt>
      <trkpt lat="47.49134" lon="6.76256">
        <ele>319</ele>
        <time>2016-01-17T08:33:11.000Z</time>
      </trkpt>
      <trkpt lat="47.49136" lon="6.76265">
        <ele>319</ele>
        <time>2016-01-17T08:33:12.000Z</time>
      </trkpt>
      <trkpt lat="47.49137" lon="6.76274">
        <ele>319</ele>
        <time>2016-01-17T08:33:13.000Z</time>
      </trkpt>
      <trkpt lat="47.49136" lon="6.76284">
        <ele>319</ele>
        <time>2016-01-17T08:33:14.000Z</time>
      </trkpt>
      <trkpt lat="47.49136" lon="6.76293">
        <ele>319</ele>
        <time>2016-01-17T08:33:15.000Z</time>
      </trkpt>
      <trkpt lat="47.49136" lon="6.76303">
        <ele>319</ele>
        <time>2016-01-17T08:33:16.000Z</time>
      </trkpt>
      <trkpt lat="47.49135" lon="6.76313">
        <ele>319</ele>
        <time>2016-01-17T08:33:17.000Z</time>
      </trkpt>
      <trkpt lat="47.49134" lon="6.76322">
        <ele>318</ele>
        <time>2016-01-17T08:33:18.000Z</time>
      </trkpt>
      <trkpt lat="47.49133" lon="6.76332">
        <ele>318</ele>
        <time>2016-01-17T08:33:19.000Z</time>
      </trkpt>
      <trkpt lat="47.49131" lon="6.7634">
        <ele>318</ele>
        <time>2016-01-17T08:33:20.000Z</time>
      </trkpt>
      <trkpt lat="47.49131" lon="6.76349">
        <ele>318</ele>
        <time>2016-01-17T08:33:21.000Z</time>
      </trkpt>
      <trkpt lat="47.49129" lon="6.76359">
        <ele>318</ele>
        <time>2016-01-17T08:33:22.000Z</time>
      </trkpt>
      <trkpt lat="47.49128" lon="6.76369">
        <ele>318</ele>
        <time>2016-01-17T08:33:23.000Z</time>
      </trkpt>
      <trkpt lat="47.49129" lon="6.7638">
        <ele>317</ele>
        <time>2016-01-17T08:33:24.000Z</time>
      </trkpt>
      <trkpt lat="47.4913" lon="6.76389">
        <ele>317</ele>
        <time>2016-01-17T08:33:25.000Z</time>
      </trkpt>
      <trkpt lat="47.49129" lon="6.76398">
        <ele>317</ele>
        <time>2016-01-17T08:33:26.000Z</time>
      </trkpt>
      <trkpt lat="47.49129" lon="6.76409">
        <ele>317</ele>
        <time>2016-01-17T08:33:27.000Z</time>
      </trkpt>
      <trkpt lat="47.49129" lon="6.7642">
        <ele>317</ele>
        <time>2016-01-17T08:33:28.000Z</time>
      </trkpt>
      <trkpt lat="47.49129" lon="6.76429">
        <ele>317</ele>
        <time>2016-01-17T08:33:29.000Z</time>
      </trkpt>
      <trkpt lat="47.49128" lon="6.76438">
        <ele>317</ele>
        <time>2016-01-17T08:33:30.000Z</time>
      </trkpt>
      <trkpt lat="47.49129" lon="6.76449">
        <ele>317</ele>
        <time>2016-01-17T08:33:31.000Z</time>
      </trkpt>
      <trkpt lat="47.49129" lon="6.76458">
        <ele>317</ele>
        <time>2016-01-17T08:33:32.000Z</time>
      </trkpt>
      <trkpt lat="47.49127" lon="6.76467">
        <ele>317</ele>
        <time>2016-01-17T08:33:33.000Z</time>
      </trkpt>
      <trkpt lat="47.49128" lon="6.76477">
        <ele>317</ele>
        <time>2016-01-17T08:33:34.000Z</time>
      </trkpt>
      <trkpt lat="47.49126" lon="6.76485">
        <ele>317</ele>
        <time>2016-01-17T08:33:35.000Z</time>
      </trkpt>
      <trkpt lat="47.49125" lon="6.76495">
        <ele>317</ele>
        <time>2016-01-17T08:33:36.000Z</time>
      </trkpt>
      <trkpt lat="47.49123" lon="6.76503">
        <ele>316</ele>
        <time>2016-01-17T08:33:37.000Z</time>
      </trkpt>
      <trkpt lat="47.49127" lon="6.7651">
        <ele>316</ele>
        <time>2016-01-17T08:33:38.000Z</time>
      </trkpt>
      <trkpt lat="47.49129" lon="6.76516">
        <ele>316</ele>
        <time>2016-01-17T08:33:39.000Z</time>
      </trkpt>
      <trkpt lat="47.49135" lon="6.76521">
        <ele>316</ele>
        <time>2016-01-17T08:33:40.000Z</time>
      </trkpt>
      <trkpt lat="47.4914" lon="6.76519">
        <ele>315</ele>
        <time>2016-01-17T08:33:41.000Z</time>
      </trkpt>
      <trkpt lat="47.49144" lon="6.76517">
        <ele>315</ele>
        <time>2016-01-17T08:33:42.000Z</time>
      </trkpt>
      <trkpt lat="47.49149" lon="6.76516">
        <ele>315</ele>
        <time>2016-01-17T08:33:43.000Z</time>
      </trkpt>
      <trkpt lat="47.49154" lon="6.76512">
        <ele>314</ele>
        <time>2016-01-17T08:33:44.000Z</time>
      </trkpt>
      <trkpt lat="47.49159" lon="6.7651">
        <ele>314</ele>
        <time>2016-01-17T08:33:45.000Z</time>
      </trkpt>
      <trkpt lat="47.49163" lon="6.76506">
        <ele>314</ele>
        <time>2016-01-17T08:33:46.000Z</time>
      </trkpt>
      <trkpt lat="47.49167" lon="6.76504">
        <ele>314</ele>
        <time>2016-01-17T08:33:47.000Z</time>
      </trkpt>
      <trkpt lat="47.49169" lon="6.765">
        <ele>313</ele>
        <time>2016-01-17T08:33:48.000Z</time>
      </trkpt>
      <trkpt lat="47.49171" lon="6.76499">
        <ele>314</ele>
        <time>2016-01-17T08:33:49.000Z</time>
      </trkpt>
      <trkpt lat="47.49173" lon="6.76497">
        <ele>314</ele>
        <time>2016-01-17T08:33:50.000Z</time>
      </trkpt>
      <trkpt lat="47.49175" lon="6.76495">
        <ele>315</ele>
        <time>2016-01-17T08:33:51.000Z</time>
      </trkpt>
      <trkpt lat="47.49178" lon="6.7649">
        <ele>315</ele>
        <time>2016-01-17T08:33:52.000Z</time>
      </trkpt>
      <trkpt lat="47.4918" lon="6.76485">
        <ele>316</ele>
        <time>2016-01-17T08:33:53.000Z</time>
      </trkpt>
      <trkpt lat="47.49181" lon="6.7648">
        <ele>316</ele>
        <time>2016-01-17T08:33:54.000Z</time>
      </trkpt>
      <trkpt lat="47.49181" lon="6.76476">
        <ele>316</ele>
        <time>2016-01-17T08:33:55.000Z</time>
      </trkpt>
      <trkpt lat="47.49181" lon="6.76482">
        <ele>316</ele>
        <time>2016-01-17T08:36:17.000Z</time>
      </trkpt>
      <trkpt lat="47.49182" lon="6.76484">
        <ele>316</ele>
        <time>2016-01-17T08:36:18.000Z</time>
      </trkpt>
      <trkpt lat="47.49182" lon="6.76489">
        <ele>316</ele>
        <time>2016-01-17T08:36:20.000Z</time>
      </trkpt>
      <trkpt lat="47.4918" lon="6.76491">
        <ele>315</ele>
        <time>2016-01-17T08:36:21.000Z</time>
      </trkpt>
      <trkpt lat="47.49176" lon="6.76494">
        <ele>315</ele>
        <time>2016-01-17T08:36:23.000Z</time>
      </trkpt>
      <trkpt lat="47.49175" lon="6.76495">
        <ele>315</ele>
        <time>2016-01-17T08:36:23.999Z</time>
      </trkpt>
      <trkpt lat="47.49173" lon="6.76497">
        <ele>314</ele>
        <time>2016-01-17T08:36:25.000Z</time>
      </trkpt>
      <trkpt lat="47.49171" lon="6.76499">
        <ele>314</ele>
        <time>2016-01-17T08:36:26.000Z</time>
      </trkpt>
      <trkpt lat="47.49168" lon="6.76501">
        <ele>313</ele>
        <time>2016-01-17T08:36:27.000Z</time>
      </trkpt>
      <trkpt lat="47.49163" lon="6.76503">
        <ele>314</ele>
        <time>2016-01-17T08:36:28.000Z</time>
      </trkpt>
      <trkpt lat="47.49159" lon="6.76507">
        <ele>314</ele>
        <time>2016-01-17T08:36:29.000Z</time>
      </trkpt>
      <trkpt lat="47.49154" lon="6.7651">
        <ele>314</ele>
        <time>2016-01-17T08:36:30.000Z</time>
      </trkpt>
      <trkpt lat="47.49149" lon="6.76513">
        <ele>315</ele>
        <time>2016-01-17T08:36:31.000Z</time>
      </trkpt>
      <trkpt lat="47.49145" lon="6.76515">
        <ele>315</ele>
        <time>2016-01-17T08:36:32.001Z</time>
      </trkpt>
      <trkpt lat="47.49139" lon="6.76515">
        <ele>315</ele>
        <time>2016-01-17T08:36:33.000Z</time>
      </trkpt>
      <trkpt lat="47.49135" lon="6.76515">
        <ele>316</ele>
        <time>2016-01-17T08:36:34.000Z</time>
      </trkpt>
      <trkpt lat="47.4913" lon="6.76518">
        <ele>316</ele>
        <time>2016-01-17T08:36:35.000Z</time>
      </trkpt>
      <trkpt lat="47.49127" lon="6.76518">
        <ele>316</ele>
        <time>2016-01-17T08:36:36.000Z</time>
      </trkpt>
      <trkpt lat="47.49125" lon="6.76523">
        <ele>316</ele>
        <time>2016-01-17T08:36:37.000Z</time>
      </trkpt>
      <trkpt lat="47.49121" lon="6.76527">
        <ele>316</ele>
        <time>2016-01-17T08:36:38.000Z</time>
      </trkpt>
      <trkpt lat="47.4912" lon="6.76534">
        <ele>316</ele>
        <time>2016-01-17T08:36:39.000Z</time>
      </trkpt>
      <trkpt lat="47.4912" lon="6.76542">
        <ele>316</ele>
        <time>2016-01-17T08:36:40.000Z</time>
      </trkpt>
      <trkpt lat="47.49121" lon="6.76546">
        <ele>316</ele>
        <time>2016-01-17T08:36:41.000Z</time>
      </trkpt>
      <trkpt lat="47.49121" lon="6.76553">
        <ele>316</ele>
        <time>2016-01-17T08:36:42.000Z</time>
      </trkpt>
      <trkpt lat="47.49121" lon="6.76558">
        <ele>316</ele>
        <time>2016-01-17T08:36:43.000Z</time>
      </trkpt>
      <trkpt lat="47.49121" lon="6.76564">
        <ele>316</ele>
        <time>2016-01-17T08:36:44.000Z</time>
      </trkpt>
      <trkpt lat="47.49122" lon="6.76569">
        <ele>316</ele>
        <time>2016-01-17T08:36:45.000Z</time>
      </trkpt>
      <trkpt lat="47.49124" lon="6.76573">
        <ele>315</ele>
        <time>2016-01-17T08:36:46.000Z</time>
      </trkpt>
      <trkpt lat="47.49125" lon="6.76578">
        <ele>315</ele>
        <time>2016-01-17T08:36:47.000Z</time>
      </trkpt>
      <trkpt lat="47.49126" lon="6.76584">
        <ele>314</ele>
        <time>2016-01-17T08:36:48.000Z</time>
      </trkpt>
      <trkpt lat="47.49128" lon="6.7659">
        <ele>314</ele>
        <time>2016-01-17T08:36:49.000Z</time>
      </trkpt>
      <trkpt lat="47.49129" lon="6.76596">
        <ele>314</ele>
        <time>2016-01-17T08:36:50.000Z</time>
      </trkpt>
      <trkpt lat="47.4913" lon="6.76602">
        <ele>314</ele>
        <time>2016-01-17T08:36:51.000Z</time>
      </trkpt>
      <trkpt lat="47.49131" lon="6.76608">
        <ele>314</ele>
        <time>2016-01-17T08:36:52.000Z</time>
      </trkpt>
      <trkpt lat="47.49132" lon="6.76614">
        <ele>314</ele>
        <time>2016-01-17T08:36:53.000Z</time>
      </trkpt>
      <trkpt lat="47.49133" lon="6.7662">
        <ele>314</ele>
        <time>2016-01-17T08:36:54.000Z</time>
      </trkpt>
      <trkpt lat="47.49134" lon="6.76626">
        <ele>314</ele>
        <time>2016-01-17T08:36:55.000Z</time>
      </trkpt>
      <trkpt lat="47.49135" lon="6.76631">
        <ele>314</ele>
        <time>2016-01-17T08:36:56.000Z</time>
      </trkpt>
      <trkpt lat="47.49135" lon="6.76636">
        <ele>314</ele>
        <time>2016-01-17T08:36:57.000Z</time>
      </trkpt>
      <trkpt lat="47.49137" lon="6.76642">
        <ele>314</ele>
        <time>2016-01-17T08:36:58.000Z</time>
      </trkpt>
      <trkpt lat="47.49138" lon="6.76648">
        <ele>314</ele>
        <time>2016-01-17T08:36:59.000Z</time>
      </trkpt>
      <trkpt lat="47.49139" lon="6.76654">
        <ele>314</ele>
        <time>2016-01-17T08:37:00.000Z</time>
      </trkpt>
      <trkpt lat="47.49139" lon="6.76659">
        <ele>314</ele>
        <time>2016-01-17T08:37:01.000Z</time>
      </trkpt>
      <trkpt lat="47.4914" lon="6.76666">
        <ele>314</ele>
        <time>2016-01-17T08:37:02.000Z</time>
      </trkpt>
      <trkpt lat="47.49142" lon="6.76672">
        <ele>314</ele>
        <time>2016-01-17T08:37:03.000Z</time>
      </trkpt>
      <trkpt lat="47.49143" lon="6.76679">
        <ele>314</ele>
        <time>2016-01-17T08:37:04.000Z</time>
      </trkpt>
      <trkpt lat="47.49143" lon="6.76686">
        <ele>313</ele>
        <time>2016-01-17T08:37:05.000Z</time>
      </trkpt>
      <trkpt lat="47.49144" lon="6.76693">
        <ele>313</ele>
        <time>2016-01-17T08:37:06.000Z</time>
      </trkpt>
      <trkpt lat="47.49146" lon="6.76699">
        <ele>313</ele>
        <time>2016-01-17T08:37:07.000Z</time>
      </trkpt>
      <trkpt lat="47.49148" lon="6.76706">
        <ele>313</ele>
        <time>2016-01-17T08:37:08.000Z</time>
      </trkpt>
      <trkpt lat="47.4915" lon="6.76712">
        <ele>313</ele>
        <time>2016-01-17T08:37:09.000Z</time>
      </trkpt>
      <trkpt lat="47.49151" lon="6.76718">
        <ele>313</ele>
        <time>2016-01-17T08:37:10.000Z</time>
      </trkpt>
      <trkpt lat="47.49152" lon="6.76724">
        <ele>313</ele>
        <time>2016-01-17T08:37:11.000Z</time>
      </trkpt>
      <trkpt lat="47.49152" lon="6.76731">
        <ele>313</ele>
        <time>2016-01-17T08:37:12.000Z</time>
      </trkpt>
      <trkpt lat="47.49153" lon="6.76738">
        <ele>313</ele>
        <time>2016-01-17T08:37:13.000Z</time>
      </trkpt>
      <trkpt lat="47.49155" lon="6.76745">
        <ele>313</ele>
        <time>2016-01-17T08:37:14.000Z</time>
      </trkpt>
      <trkpt lat="47.49157" lon="6.76752">
        <ele>313</ele>
        <time>2016-01-17T08:37:15.000Z</time>
      </trkpt>
      <trkpt lat="47.49155" lon="6.76759">
        <ele>313</ele>
        <time>2016-01-17T08:37:16.000Z</time>
      </trkpt>
      <trkpt lat="47.49154" lon="6.76766">
        <ele>313</ele>
        <time>2016-01-17T08:37:16.998Z</time>
      </trkpt>
      <trkpt lat="47.49156" lon="6.76773">
        <ele>313</ele>
        <time>2016-01-17T08:37:18.000Z</time>
      </trkpt>
      <trkpt lat="47.49156" lon="6.7678">
        <ele>313</ele>
        <time>2016-01-17T08:37:19.000Z</time>
      </trkpt>
      <trkpt lat="47.49156" lon="6.76787">
        <ele>313</ele>
        <time>2016-01-17T08:37:19.999Z</time>
      </trkpt>
      <trkpt lat="47.49157" lon="6.76794">
        <ele>312</ele>
        <time>2016-01-17T08:37:21.000Z</time>
      </trkpt>
      <trkpt lat="47.49156" lon="6.76802">
        <ele>312</ele>
        <time>2016-01-17T08:37:22.000Z</time>
      </trkpt>
      <trkpt lat="47.49156" lon="6.76809">
        <ele>313</ele>
        <time>2016-01-17T08:37:23.000Z</time>
      </trkpt>
      <trkpt lat="47.49155" lon="6.76816">
        <ele>313</ele>
        <time>2016-01-17T08:37:24.000Z</time>
      </trkpt>
      <trkpt lat="47.49155" lon="6.76824">
        <ele>313</ele>
        <time>2016-01-17T08:37:25.000Z</time>
      </trkpt>
      <trkpt lat="47.49155" lon="6.76832">
        <ele>313</ele>
        <time>2016-01-17T08:37:26.000Z</time>
      </trkpt>
      <trkpt lat="47.49156" lon="6.76841">
        <ele>313</ele>
        <time>2016-01-17T08:37:27.000Z</time>
      </trkpt>
      <trkpt lat="47.49155" lon="6.76847">
        <ele>312</ele>
        <time>2016-01-17T08:37:28.000Z</time>
      </trkpt>
      <trkpt lat="47.49155" lon="6.76856">
        <ele>312</ele>
        <time>2016-01-17T08:37:29.000Z</time>
      </trkpt>
      <trkpt lat="47.49154" lon="6.76863">
        <ele>312</ele>
        <time>2016-01-17T08:37:30.000Z</time>
      </trkpt>
      <trkpt lat="47.49154" lon="6.7687">
        <ele>312</ele>
        <time>2016-01-17T08:37:31.000Z</time>
      </trkpt>
      <trkpt lat="47.49153" lon="6.76878">
        <ele>312</ele>
        <time>2016-01-17T08:37:32.000Z</time>
      </trkpt>
      <trkpt lat="47.49153" lon="6.76886">
        <ele>312</ele>
        <time>2016-01-17T08:37:33.000Z</time>
      </trkpt>
      <trkpt lat="47.49153" lon="6.76893">
        <ele>312</ele>
        <time>2016-01-17T08:37:34.000Z</time>
      </trkpt>
      <trkpt lat="47.49154" lon="6.76901">
        <ele>312</ele>
        <time>2016-01-17T08:37:35.000Z</time>
      </trkpt>
      <trkpt lat="47.49153" lon="6.76908">
        <ele>313</ele>
        <time>2016-01-17T08:37:36.000Z</time>
      </trkpt>
      <trkpt lat="47.49153" lon="6.76915">
        <ele>313</ele>
        <time>2016-01-17T08:37:37.000Z</time>
      </trkpt>
      <trkpt lat="47.49153" lon="6.76923">
        <ele>312</ele>
        <time>2016-01-17T08:37:38.000Z</time>
      </trkpt>
      <trkpt lat="47.49152" lon="6.76931">
        <ele>312</ele>
        <time>2016-01-17T08:37:39.000Z</time>
      </trkpt>
      <trkpt lat="47.49151" lon="6.76937">
        <ele>312</ele>
        <time>2016-01-17T08:37:40.000Z</time>
      </trkpt>
      <trkpt lat="47.49151" lon="6.76944">
        <ele>312</ele>
        <time>2016-01-17T08:37:41.000Z</time>
      </trkpt>
      <trkpt lat="47.4915" lon="6.7695">
        <ele>312</ele>
        <time>2016-01-17T08:37:42.000Z</time>
      </trkpt>
      <trkpt lat="47.4915" lon="6.76955">
        <ele>312</ele>
        <time>2016-01-17T08:37:43.000Z</time>
      </trkpt>
      <trkpt lat="47.4915" lon="6.76963">
        <ele>312</ele>
        <time>2016-01-17T08:37:44.000Z</time>
      </trkpt>
      <trkpt lat="47.49151" lon="6.76972">
        <ele>312</ele>
        <time>2016-01-17T08:37:45.000Z</time>
      </trkpt>
      <trkpt lat="47.49153" lon="6.7698">
        <ele>312</ele>
        <time>2016-01-17T08:37:46.000Z</time>
      </trkpt>
      <trkpt lat="47.49155" lon="6.76989">
        <ele>312</ele>
        <time>2016-01-17T08:37:47.000Z</time>
      </trkpt>
      <trkpt lat="47.49157" lon="6.76996">
        <ele>312</ele>
        <time>2016-01-17T08:37:48.000Z</time>
      </trkpt>
      <trkpt lat="47.4916" lon="6.77002">
        <ele>312</ele>
        <time>2016-01-17T08:37:49.000Z</time>
      </trkpt>
      <trkpt lat="47.49163" lon="6.77009">
        <ele>312</ele>
        <time>2016-01-17T08:37:50.000Z</time>
      </trkpt>
      <trkpt lat="47.49166" lon="6.77016">
        <ele>312</ele>
        <time>2016-01-17T08:37:51.000Z</time>
      </trkpt>
      <trkpt lat="47.49167" lon="6.77024">
        <ele>313</ele>
        <time>2016-01-17T08:37:52.000Z</time>
      </trkpt>
      <trkpt lat="47.49168" lon="6.77033">
        <ele>313</ele>
        <time>2016-01-17T08:37:53.000Z</time>
      </trkpt>
      <trkpt lat="47.49169" lon="6.77041">
        <ele>313</ele>
        <time>2016-01-17T08:37:54.000Z</time>
      </trkpt>
      <trkpt lat="47.49171" lon="6.77049">
        <ele>313</ele>
        <time>2016-01-17T08:37:55.000Z</time>
      </trkpt>
      <trkpt lat="47.49171" lon="6.77057">
        <ele>313</ele>
        <time>2016-01-17T08:37:56.000Z</time>
      </trkpt>
      <trkpt lat="47.49172" lon="6.77064">
        <ele>313</ele>
        <time>2016-01-17T08:37:57.000Z</time>
      </trkpt>
      <trkpt lat="47.49173" lon="6.77073">
        <ele>312</ele>
        <time>2016-01-17T08:37:58.000Z</time>
      </trkpt>
      <trkpt lat="47.49174" lon="6.7708">
        <ele>312</ele>
        <time>2016-01-17T08:37:59.000Z</time>
      </trkpt>
      <trkpt lat="47.49175" lon="6.77087">
        <ele>312</ele>
        <time>2016-01-17T08:38:00.000Z</time>
      </trkpt>
      <trkpt lat="47.49177" lon="6.77095">
        <ele>312</ele>
        <time>2016-01-17T08:38:00.999Z</time>
      </trkpt>
      <trkpt lat="47.49178" lon="6.77103">
        <ele>312</ele>
        <time>2016-01-17T08:38:02.001Z</time>
      </trkpt>
      <trkpt lat="47.49178" lon="6.77109">
        <ele>313</ele>
        <time>2016-01-17T08:38:03.000Z</time>
      </trkpt>
      <trkpt lat="47.4918" lon="6.77114">
        <ele>313</ele>
        <time>2016-01-17T08:38:04.000Z</time>
      </trkpt>
      <trkpt lat="47.49181" lon="6.77118">
        <ele>313</ele>
        <time>2016-01-17T08:38:05.000Z</time>
      </trkpt>
      <trkpt lat="47.49182" lon="6.77121">
        <ele>313</ele>
        <time>2016-01-17T08:38:06.000Z</time>
      </trkpt>
      <trkpt lat="47.49183" lon="6.77125">
        <ele>313</ele>
        <time>2016-01-17T08:38:14.000Z</time>
      </trkpt>
      <trkpt lat="47.49185" lon="6.77127">
        <ele>313</ele>
        <time>2016-01-17T08:38:15.000Z</time>
      </trkpt>
      <trkpt lat="47.49185" lon="6.77133">
        <ele>313</ele>
        <time>2016-01-17T08:38:17.000Z</time>
      </trkpt>
      <trkpt lat="47.49186" lon="6.77137">
        <ele>313</ele>
        <time>2016-01-17T08:38:18.000Z</time>
      </trkpt>
      <trkpt lat="47.49186" lon="6.77141">
        <ele>313</ele>
        <time>2016-01-17T08:38:19.000Z</time>
      </trkpt>
      <trkpt lat="47.49187" lon="6.77145">
        <ele>313</ele>
        <time>2016-01-17T08:38:20.000Z</time>
      </trkpt>
      <trkpt lat="47.49186" lon="6.77151">
        <ele>313</ele>
        <time>2016-01-17T08:38:21.000Z</time>
      </trkpt>
      <trkpt lat="47.49185" lon="6.77158">
        <ele>313</ele>
        <time>2016-01-17T08:38:22.000Z</time>
      </trkpt>
      <trkpt lat="47.49185" lon="6.77163">
        <ele>313</ele>
        <time>2016-01-17T08:38:22.999Z</time>
      </trkpt>
      <trkpt lat="47.49183" lon="6.77173">
        <ele>313</ele>
        <time>2016-01-17T08:38:24.000Z</time>
      </trkpt>
      <trkpt lat="47.49185" lon="6.7718">
        <ele>313</ele>
        <time>2016-01-17T08:38:25.000Z</time>
      </trkpt>
      <trkpt lat="47.49185" lon="6.77186">
        <ele>313</ele>
        <time>2016-01-17T08:38:26.000Z</time>
      </trkpt>
      <trkpt lat="47.49186" lon="6.77192">
        <ele>312</ele>
        <time>2016-01-17T08:38:27.000Z</time>
      </trkpt>
      <trkpt lat="47.49188" lon="6.77198">
        <ele>312</ele>
        <time>2016-01-17T08:38:28.000Z</time>
      </trkpt>
      <trkpt lat="47.49189" lon="6.77204">
        <ele>312</ele>
        <time>2016-01-17T08:38:29.000Z</time>
      </trkpt>
      <trkpt lat="47.49188" lon="6.77211">
        <ele>312</ele>
        <time>2016-01-17T08:38:30.000Z</time>
      </trkpt>
      <trkpt lat="47.49188" lon="6.77216">
        <ele>312</ele>
        <time>2016-01-17T08:38:31.000Z</time>
      </trkpt>
      <trkpt lat="47.49185" lon="6.77221">
        <ele>312</ele>
        <time>2016-01-17T08:38:32.000Z</time>
      </trkpt>
      <trkpt lat="47.49184" lon="6.77226">
        <ele>312</ele>
        <time>2016-01-17T08:38:33.000Z</time>
      </trkpt>
      <trkpt lat="47.49185" lon="6.77231">
        <ele>312</ele>
        <time>2016-01-17T08:38:34.000Z</time>
      </trkpt>
      <trkpt lat="47.49186" lon="6.77236">
        <ele>312</ele>
        <time>2016-01-17T08:38:35.000Z</time>
      </trkpt>
      <trkpt lat="47.49187" lon="6.77242">
        <ele>312</ele>
        <time>2016-01-17T08:38:36.000Z</time>
      </trkpt>
      <trkpt lat="47.49187" lon="6.77248">
        <ele>312</ele>
        <time>2016-01-17T08:38:37.000Z</time>
      </trkpt>
      <trkpt lat="47.49186" lon="6.77256">
        <ele>311</ele>
        <time>2016-01-17T08:38:38.000Z</time>
      </trkpt>
      <trkpt lat="47.49185" lon="6.77264">
        <ele>311</ele>
        <time>2016-01-17T08:38:38.999Z</time>
      </trkpt>
      <trkpt lat="47.49186" lon="6.77272">
        <ele>311</ele>
        <time>2016-01-17T08:38:40.000Z</time>
      </trkpt>
      <trkpt lat="47.49185" lon="6.7728">
        <ele>311</ele>
        <time>2016-01-17T08:38:40.999Z</time>
      </trkpt>
      <trkpt lat="47.49186" lon="6.7729">
        <ele>311</ele>
        <time>2016-01-17T08:38:42.000Z</time>
      </trkpt>
      <trkpt lat="47.49186" lon="6.77298">
        <ele>311</ele>
        <time>2016-01-17T08:38:43.000Z</time>
      </trkpt>
      <trkpt lat="47.49186" lon="6.77306">
        <ele>311</ele>
        <time>2016-01-17T08:38:44.000Z</time>
      </trkpt>
      <trkpt lat="47.49185" lon="6.77313">
        <ele>311</ele>
        <time>2016-01-17T08:38:45.000Z</time>
      </trkpt>
      <trkpt lat="47.49183" lon="6.7732">
        <ele>310</ele>
        <time>2016-01-17T08:38:46.000Z</time>
      </trkpt>
      <trkpt lat="47.49181" lon="6.77324">
        <ele>310</ele>
        <time>2016-01-17T08:38:47.000Z</time>
      </trkpt>
      <trkpt lat="47.49178" lon="6.77326">
        <ele>310</ele>
        <time>2016-01-17T08:38:48.000Z</time>
      </trkpt>
      <trkpt lat="47.49176" lon="6.77329">
        <ele>310</ele>
        <time>2016-01-17T08:38:49.000Z</time>
      </trkpt>
      <trkpt lat="47.49174" lon="6.77332">
        <ele>310</ele>
        <time>2016-01-17T08:38:50.000Z</time>
      </trkpt>
      <trkpt lat="47.49171" lon="6.77336">
        <ele>310</ele>
        <time>2016-01-17T08:38:51.000Z</time>
      </trkpt>
      <trkpt lat="47.49167" lon="6.77341">
        <ele>310</ele>
        <time>2016-01-17T08:38:52.000Z</time>
      </trkpt>
      <trkpt lat="47.49162" lon="6.77344">
        <ele>310</ele>
        <time>2016-01-17T08:38:53.000Z</time>
      </trkpt>
      <trkpt lat="47.49157" lon="6.77347">
        <ele>310</ele>
        <time>2016-01-17T08:38:54.000Z</time>
      </trkpt>
      <trkpt lat="47.49154" lon="6.77351">
        <ele>310</ele>
        <time>2016-01-17T08:38:55.000Z</time>
      </trkpt>
      <trkpt lat="47.49151" lon="6.77354">
        <ele>310</ele>
        <time>2016-01-17T08:38:56.000Z</time>
      </trkpt>
      <trkpt lat="47.49148" lon="6.77359">
        <ele>310</ele>
        <time>2016-01-17T08:38:57.000Z</time>
      </trkpt>
      <trkpt lat="47.49145" lon="6.77362">
        <ele>310</ele>
        <time>2016-01-17T08:38:58.000Z</time>
      </trkpt>
      <trkpt lat="47.49142" lon="6.77367">
        <ele>310</ele>
        <time>2016-01-17T08:38:59.000Z</time>
      </trkpt>
      <trkpt lat="47.49138" lon="6.77371">
        <ele>310</ele>
        <time>2016-01-17T08:39:00.000Z</time>
      </trkpt>
      <trkpt lat="47.49134" lon="6.77375">
        <ele>310</ele>
        <time>2016-01-17T08:39:01.000Z</time>
      </trkpt>
      <trkpt lat="47.49131" lon="6.77378">
        <ele>310</ele>
        <time>2016-01-17T08:39:02.000Z</time>
      </trkpt>
      <trkpt lat="47.49127" lon="6.77381">
        <ele>310</ele>
        <time>2016-01-17T08:39:03.000Z</time>
      </trkpt>
      <trkpt lat="47.49125" lon="6.77384">
        <ele>310</ele>
        <time>2016-01-17T08:39:04.000Z</time>
      </trkpt>
      <trkpt lat="47.49122" lon="6.77386">
        <ele>310</ele>
        <time>2016-01-17T08:39:05.000Z</time>
      </trkpt>
      <trkpt lat="47.49118" lon="6.77389">
        <ele>310</ele>
        <time>2016-01-17T08:39:05.999Z</time>
      </trkpt>
      <trkpt lat="47.49115" lon="6.77392">
        <ele>310</ele>
        <time>2016-01-17T08:39:07.000Z</time>
      </trkpt>
      <trkpt lat="47.49112" lon="6.77394">
        <ele>310</ele>
        <time>2016-01-17T08:39:08.000Z</time>
      </trkpt>
      <trkpt lat="47.49108" lon="6.77397">
        <ele>310</ele>
        <time>2016-01-17T08:39:09.000Z</time>
      </trkpt>
      <trkpt lat="47.49105" lon="6.774">
        <ele>310</ele>
        <time>2016-01-17T08:39:10.000Z</time>
      </trkpt>
      <trkpt lat="47.49102" lon="6.77402">
        <ele>310</ele>
        <time>2016-01-17T08:39:11.000Z</time>
      </trkpt>
      <trkpt lat="47.49099" lon="6.77404">
        <ele>310</ele>
        <time>2016-01-17T08:39:12.000Z</time>
      </trkpt>
      <trkpt lat="47.49095" lon="6.77405">
        <ele>310</ele>
        <time>2016-01-17T08:39:13.001Z</time>
      </trkpt>
      <trkpt lat="47.49093" lon="6.77407">
        <ele>310</ele>
        <time>2016-01-17T08:39:14.000Z</time>
      </trkpt>
      <trkpt lat="47.49089" lon="6.77409">
        <ele>310</ele>
        <time>2016-01-17T08:39:15.000Z</time>
      </trkpt>
      <trkpt lat="47.49086" lon="6.77411">
        <ele>310</ele>
        <time>2016-01-17T08:39:16.000Z</time>
      </trkpt>
      <trkpt lat="47.49082" lon="6.77413">
        <ele>310</ele>
        <time>2016-01-17T08:39:17.000Z</time>
      </trkpt>
      <trkpt lat="47.49078" lon="6.77415">
        <ele>310</ele>
        <time>2016-01-17T08:39:18.000Z</time>
      </trkpt>
      <trkpt lat="47.49074" lon="6.77417">
        <ele>310</ele>
        <time>2016-01-17T08:39:19.000Z</time>
      </trkpt>
      <trkpt lat="47.4907" lon="6.77419">
        <ele>310</ele>
        <time>2016-01-17T08:39:20.000Z</time>
      </trkpt>
      <trkpt lat="47.49066" lon="6.77421">
        <ele>310</ele>
        <time>2016-01-17T08:39:21.000Z</time>
      </trkpt>
      <trkpt lat="47.49062" lon="6.77422">
        <ele>310</ele>
        <time>2016-01-17T08:39:22.000Z</time>
      </trkpt>
      <trkpt lat="47.49058" lon="6.77424">
        <ele>310</ele>
        <time>2016-01-17T08:39:23.000Z</time>
      </trkpt>
      <trkpt lat="47.49054" lon="6.77427">
        <ele>310</ele>
        <time>2016-01-17T08:39:24.000Z</time>
      </trkpt>
      <trkpt lat="47.4905" lon="6.77429">
        <ele>310</ele>
        <time>2016-01-17T08:39:25.000Z</time>
      </trkpt>
      <trkpt lat="47.49046" lon="6.77431">
        <ele>310</ele>
        <time>2016-01-17T08:39:26.000Z</time>
      </trkpt>
      <trkpt lat="47.49043" lon="6.77433">
        <ele>310</ele>
        <time>2016-01-17T08:39:27.000Z</time>
      </trkpt>
      <trkpt lat="47.49039" lon="6.77436">
        <ele>310</ele>
        <time>2016-01-17T08:39:28.000Z</time>
      </trkpt>
      <trkpt lat="47.49035" lon="6.77438">
        <ele>310</ele>
        <time>2016-01-17T08:39:29.000Z</time>
      </trkpt>
      <trkpt lat="47.49032" lon="6.7744">
        <ele>310</ele>
        <time>2016-01-17T08:39:30.000Z</time>
      </trkpt>
      <trkpt lat="47.49028" lon="6.77441">
        <ele>310</ele>
        <time>2016-01-17T08:39:31.000Z</time>
      </trkpt>
      <trkpt lat="47.49025" lon="6.77444">
        <ele>310</ele>
        <time>2016-01-17T08:39:32.000Z</time>
      </trkpt>
      <trkpt lat="47.49022" lon="6.77447">
        <ele>310</ele>
        <time>2016-01-17T08:39:33.000Z</time>
      </trkpt>
      <trkpt lat="47.49019" lon="6.77451">
        <ele>310</ele>
        <time>2016-01-17T08:39:34.000Z</time>
      </trkpt>
      <trkpt lat="47.49016" lon="6.77456">
        <ele>310</ele>
        <time>2016-01-17T08:39:35.000Z</time>
      </trkpt>
      <trkpt lat="47.49014" lon="6.7746">
        <ele>310</ele>
        <time>2016-01-17T08:39:36.000Z</time>
      </trkpt>
      <trkpt lat="47.49012" lon="6.77465">
        <ele>310</ele>
        <time>2016-01-17T08:39:37.000Z</time>
      </trkpt>
      <trkpt lat="47.49011" lon="6.77471">
        <ele>310</ele>
        <time>2016-01-17T08:39:38.000Z</time>
      </trkpt>
      <trkpt lat="47.4901" lon="6.77477">
        <ele>310</ele>
        <time>2016-01-17T08:39:39.000Z</time>
      </trkpt>
      <trkpt lat="47.49009" lon="6.77483">
        <ele>311</ele>
        <time>2016-01-17T08:39:40.000Z</time>
      </trkpt>
      <trkpt lat="47.49008" lon="6.77488">
        <ele>311</ele>
        <time>2016-01-17T08:39:41.000Z</time>
      </trkpt>
      <trkpt lat="47.49008" lon="6.77494">
        <ele>311</ele>
        <time>2016-01-17T08:39:42.000Z</time>
      </trkpt>
      <trkpt lat="47.49008" lon="6.775">
        <ele>311</ele>
        <time>2016-01-17T08:39:43.000Z</time>
      </trkpt>
      <trkpt lat="47.49009" lon="6.77505">
        <ele>311</ele>
        <time>2016-01-17T08:39:44.000Z</time>
      </trkpt>
      <trkpt lat="47.49009" lon="6.7751">
        <ele>311</ele>
        <time>2016-01-17T08:39:45.000Z</time>
      </trkpt>
      <trkpt lat="47.49009" lon="6.77515">
        <ele>311</ele>
        <time>2016-01-17T08:39:46.000Z</time>
      </trkpt>
      <trkpt lat="47.49009" lon="6.77519">
        <ele>311</ele>
        <time>2016-01-17T08:39:47.000Z</time>
      </trkpt>
      <trkpt lat="47.49008" lon="6.77523">
        <ele>311</ele>
        <time>2016-01-17T08:39:48.000Z</time>
      </trkpt>
      <trkpt lat="47.49008" lon="6.77526">
        <ele>311</ele>
        <time>2016-01-17T08:39:49.000Z</time>
      </trkpt>
      <trkpt lat="47.49008" lon="6.77533">
        <ele>312</ele>
        <time>2016-01-17T08:39:51.000Z</time>
      </trkpt>
      <trkpt lat="47.49006" lon="6.77535">
        <ele>312</ele>
        <time>2016-01-17T08:39:52.000Z</time>
      </trkpt>
      <trkpt lat="47.49004" lon="6.77537">
        <ele>312</ele>
        <time>2016-01-17T08:39:53.000Z</time>
      </trkpt>
      <trkpt lat="47.49002" lon="6.77539">
        <ele>312</ele>
        <time>2016-01-17T08:39:54.000Z</time>
      </trkpt>
      <trkpt lat="47.48999" lon="6.77541">
        <ele>313</ele>
        <time>2016-01-17T08:39:55.000Z</time>
      </trkpt>
      <trkpt lat="47.48997" lon="6.77543">
        <ele>313</ele>
        <time>2016-01-17T08:39:56.000Z</time>
      </trkpt>
      <trkpt lat="47.48994" lon="6.77545">
        <ele>313</ele>
        <time>2016-01-17T08:39:57.000Z</time>
      </trkpt>
      <trkpt lat="47.48991" lon="6.77547">
        <ele>313</ele>
        <time>2016-01-17T08:39:58.000Z</time>
      </trkpt>
      <trkpt lat="47.48988" lon="6.7755">
        <ele>313</ele>
        <time>2016-01-17T08:39:59.000Z</time>
      </trkpt>
      <trkpt lat="47.48986" lon="6.77553">
        <ele>313</ele>
        <time>2016-01-17T08:40:00.000Z</time>
      </trkpt>
      <trkpt lat="47.48982" lon="6.77555">
        <ele>313</ele>
        <time>2016-01-17T08:40:01.000Z</time>
      </trkpt>
      <trkpt lat="47.4898" lon="6.77558">
        <ele>313</ele>
        <time>2016-01-17T08:40:02.000Z</time>
      </trkpt>
      <trkpt lat="47.48976" lon="6.7756">
        <ele>313</ele>
        <time>2016-01-17T08:40:03.001Z</time>
      </trkpt>
      <trkpt lat="47.48974" lon="6.77563">
        <ele>313</ele>
        <time>2016-01-17T08:40:04.000Z</time>
      </trkpt>
      <trkpt lat="47.48972" lon="6.77564">
        <ele>313</ele>
        <time>2016-01-17T08:40:05.000Z</time>
      </trkpt>
      <trkpt lat="47.4897" lon="6.77566">
        <ele>313</ele>
        <time>2016-01-17T08:40:06.000Z</time>
      </trkpt>
      <trkpt lat="47.48968" lon="6.77569">
        <ele>313</ele>
        <time>2016-01-17T08:40:07.000Z</time>
      </trkpt>
      <trkpt lat="47.48966" lon="6.77572">
        <ele>313</ele>
        <time>2016-01-17T08:40:08.000Z</time>
      </trkpt>
      <trkpt lat="47.48963" lon="6.77575">
        <ele>313</ele>
        <time>2016-01-17T08:40:09.000Z</time>
      </trkpt>
      <trkpt lat="47.4896" lon="6.77579">
        <ele>313</ele>
        <time>2016-01-17T08:40:10.000Z</time>
      </trkpt>
      <trkpt lat="47.48957" lon="6.77583">
        <ele>314</ele>
        <time>2016-01-17T08:40:11.000Z</time>
      </trkpt>
      <trkpt lat="47.48951" lon="6.77589">
        <ele>315</ele>
        <time>2016-01-17T08:40:12.000Z</time>
      </trkpt>
      <trkpt lat="47.48947" lon="6.77592">
        <ele>316</ele>
        <time>2016-01-17T08:40:13.000Z</time>
      </trkpt>
      <trkpt lat="47.48944" lon="6.77592">
        <ele>316</ele>
        <time>2016-01-17T08:40:14.000Z</time>
      </trkpt>
      <trkpt lat="47.4894" lon="6.77592">
        <ele>316</ele>
        <time>2016-01-17T08:40:15.000Z</time>
      </trkpt>
      <trkpt lat="47.48939" lon="6.7759">
        <ele>316</ele>
        <time>2016-01-17T08:40:16.000Z</time>
      </trkpt>
      <trkpt lat="47.48936" lon="6.77592">
        <ele>316</ele>
        <time>2016-01-17T08:40:17.000Z</time>
      </trkpt>
      <trkpt lat="47.48934" lon="6.77592">
        <ele>316</ele>
        <time>2016-01-17T08:40:18.000Z</time>
      </trkpt>
      <trkpt lat="47.4893" lon="6.77595">
        <ele>316</ele>
        <time>2016-01-17T08:40:25.000Z</time>
      </trkpt>
      <trkpt lat="47.48929" lon="6.77596">
        <ele>316</ele>
        <time>2016-01-17T08:40:26.000Z</time>
      </trkpt>
      <trkpt lat="47.48926" lon="6.776">
        <ele>316</ele>
        <time>2016-01-17T08:40:34.000Z</time>
      </trkpt>
      <trkpt lat="47.48926" lon="6.77601">
        <ele>316</ele>
        <time>2016-01-17T08:40:35.000Z</time>
      </trkpt>
      <trkpt lat="47.48923" lon="6.77605">
        <ele>316</ele>
        <time>2016-01-17T08:40:42.000Z</time>
      </trkpt>
      <trkpt lat="47.48923" lon="6.77606">
        <ele>316</ele>
        <time>2016-01-17T08:40:43.000Z</time>
      </trkpt>
      <trkpt lat="47.48921" lon="6.77611">
        <ele>316</ele>
        <time>2016-01-17T08:40:45.000Z</time>
      </trkpt>
      <trkpt lat="47.4892" lon="6.77613">
        <ele>316</ele>
        <time>2016-01-17T08:40:46.000Z</time>
      </trkpt>
      <trkpt lat="47.48918" lon="6.77618">
        <ele>316</ele>
        <time>2016-01-17T08:40:48.000Z</time>
      </trkpt>
      <trkpt lat="47.48916" lon="6.77621">
        <ele>320</ele>
        <time>2016-01-17T08:40:49.000Z</time>
      </trkpt>
      <trkpt lat="47.48914" lon="6.77625">
        <ele>320</ele>
        <time>2016-01-17T08:40:51.000Z</time>
      </trkpt>
      <trkpt lat="47.48913" lon="6.77627">
        <ele>320</ele>
        <time>2016-01-17T08:40:52.000Z</time>
      </trkpt>
      <trkpt lat="47.48911" lon="6.77632">
        <ele>320</ele>
        <time>2016-01-17T08:40:55.000Z</time>
      </trkpt>
      <trkpt lat="47.4891" lon="6.77633">
        <ele>320</ele>
        <time>2016-01-17T08:40:56.000Z</time>
      </trkpt>
      <trkpt lat="47.48908" lon="6.77639">
        <ele>321</ele>
        <time>2016-01-17T08:41:05.000Z</time>
      </trkpt>
      <trkpt lat="47.48908" lon="6.77639">
        <ele>321</ele>
        <time>2016-01-17T08:41:06.000Z</time>
      </trkpt>
      <trkpt lat="47.48905" lon="6.77644">
        <ele>321</ele>
        <time>2016-01-17T08:41:14.000Z</time>
      </trkpt>
      <trkpt lat="47.48905" lon="6.77645">
        <ele>321</ele>
        <time>2016-01-17T08:41:15.000Z</time>
      </trkpt>
      <trkpt lat="47.48908" lon="6.77647">
        <ele>321</ele>
        <time>2016-01-17T08:41:22.000Z</time>
      </trkpt>
      <trkpt lat="47.48911" lon="6.77648">
        <ele>321</ele>
        <time>2016-01-17T08:41:23.000Z</time>
      </trkpt>
      <trkpt lat="47.48913" lon="6.77649">
        <ele>321</ele>
        <time>2016-01-17T08:41:24.000Z</time>
      </trkpt>
      <trkpt lat="47.48915" lon="6.7765">
        <ele>321</ele>
        <time>2016-01-17T08:41:25.000Z</time>
      </trkpt>
      <trkpt lat="47.48918" lon="6.77651">
        <ele>319</ele>
        <time>2016-01-17T08:41:26.000Z</time>
      </trkpt>
      <trkpt lat="47.4892" lon="6.7765">
        <ele>318</ele>
        <time>2016-01-17T08:41:27.000Z</time>
      </trkpt>
      <trkpt lat="47.48922" lon="6.77645">
        <ele>318</ele>
        <time>2016-01-17T08:41:29.000Z</time>
      </trkpt>
      <trkpt lat="47.4892" lon="6.77643">
        <ele>318</ele>
        <time>2016-01-17T08:41:30.000Z</time>
      </trkpt>
      <trkpt lat="47.48918" lon="6.7764">
        <ele>318</ele>
        <time>2016-01-17T08:41:31.000Z</time>
      </trkpt>
      <trkpt lat="47.48915" lon="6.77638">
        <ele>320</ele>
        <time>2016-01-17T08:41:32.000Z</time>
      </trkpt>
      <trkpt lat="47.48912" lon="6.77635">
        <ele>320</ele>
        <time>2016-01-17T08:41:33.000Z</time>
      </trkpt>
      <trkpt lat="47.48909" lon="6.77632">
        <ele>320</ele>
        <time>2016-01-17T08:41:34.000Z</time>
      </trkpt>
      <trkpt lat="47.48905" lon="6.77629">
        <ele>320</ele>
        <time>2016-01-17T08:41:35.000Z</time>
      </trkpt>
      <trkpt lat="47.48902" lon="6.77626">
        <ele>320</ele>
        <time>2016-01-17T08:41:36.000Z</time>
      </trkpt>
      <trkpt lat="47.48899" lon="6.77623">
        <ele>320</ele>
        <time>2016-01-17T08:41:37.000Z</time>
      </trkpt>
      <trkpt lat="47.48896" lon="6.77619">
        <ele>320</ele>
        <time>2016-01-17T08:41:38.000Z</time>
      </trkpt>
      <trkpt lat="47.48893" lon="6.77616">
        <ele>320</ele>
        <time>2016-01-17T08:41:39.000Z</time>
      </trkpt>
      <trkpt lat="47.4889" lon="6.77613">
        <ele>320</ele>
        <time>2016-01-17T08:41:40.000Z</time>
      </trkpt>
      <trkpt lat="47.48887" lon="6.7761">
        <ele>320</ele>
        <time>2016-01-17T08:41:41.000Z</time>
      </trkpt>
      <trkpt lat="47.48883" lon="6.77608">
        <ele>320</ele>
        <time>2016-01-17T08:41:42.000Z</time>
      </trkpt>
      <trkpt lat="47.4888" lon="6.77605">
        <ele>320</ele>
        <time>2016-01-17T08:41:43.000Z</time>
      </trkpt>
      <trkpt lat="47.48877" lon="6.77602">
        <ele>320</ele>
        <time>2016-01-17T08:41:44.000Z</time>
      </trkpt>
      <trkpt lat="47.48874" lon="6.776">
        <ele>320</ele>
        <time>2016-01-17T08:41:45.000Z</time>
      </trkpt>
      <trkpt lat="47.4887" lon="6.77598">
        <ele>320</ele>
        <time>2016-01-17T08:41:46.000Z</time>
      </trkpt>
      <trkpt lat="47.48867" lon="6.77596">
        <ele>320</ele>
        <time>2016-01-17T08:41:47.000Z</time>
      </trkpt>
      <trkpt lat="47.48865" lon="6.77594">
        <ele>320</ele>
        <time>2016-01-17T08:41:48.000Z</time>
      </trkpt>
      <trkpt lat="47.48862" lon="6.77592">
        <ele>320</ele>
        <time>2016-01-17T08:41:49.000Z</time>
      </trkpt>
      <trkpt lat="47.48859" lon="6.7759">
        <ele>320</ele>
        <time>2016-01-17T08:41:50.000Z</time>
      </trkpt>
      <trkpt lat="47.48856" lon="6.77589">
        <ele>320</ele>
        <time>2016-01-17T08:41:51.000Z</time>
      </trkpt>
      <trkpt lat="47.48854" lon="6.77588">
        <ele>320</ele>
        <time>2016-01-17T08:41:52.000Z</time>
      </trkpt>
      <trkpt lat="47.4885" lon="6.77587">
        <ele>320</ele>
        <time>2016-01-17T08:41:54.000Z</time>
      </trkpt>
      <trkpt lat="47.48848" lon="6.77587">
        <ele>320</ele>
        <time>2016-01-17T08:41:55.000Z</time>
      </trkpt>
      <trkpt lat="47.48846" lon="6.77585">
        <ele>320</ele>
        <time>2016-01-17T08:41:57.000Z</time>
      </trkpt>
      <trkpt lat="47.48844" lon="6.77583">
        <ele>318</ele>
        <time>2016-01-17T08:41:58.000Z</time>
      </trkpt>
      <trkpt lat="47.48841" lon="6.7758">
        <ele>319</ele>
        <time>2016-01-17T08:42:00.000Z</time>
      </trkpt>
      <trkpt lat="47.48839" lon="6.77579">
        <ele>319</ele>
        <time>2016-01-17T08:42:01.000Z</time>
      </trkpt>
      <trkpt lat="47.48836" lon="6.77576">
        <ele>319</ele>
        <time>2016-01-17T08:42:03.000Z</time>
      </trkpt>
      <trkpt lat="47.48835" lon="6.77574">
        <ele>319</ele>
        <time>2016-01-17T08:42:04.000Z</time>
      </trkpt>
      <trkpt lat="47.48831" lon="6.77571">
        <ele>322</ele>
        <time>2016-01-17T08:42:06.000Z</time>
      </trkpt>
      <trkpt lat="47.48829" lon="6.77569">
        <ele>323</ele>
        <time>2016-01-17T08:42:07.000Z</time>
      </trkpt>
      <trkpt lat="47.48827" lon="6.77567">
        <ele>323</ele>
        <time>2016-01-17T08:42:08.000Z</time>
      </trkpt>
      <trkpt lat="47.48824" lon="6.77566">
        <ele>323</ele>
        <time>2016-01-17T08:42:09.000Z</time>
      </trkpt>
      <trkpt lat="47.48821" lon="6.77564">
        <ele>324</ele>
        <time>2016-01-17T08:42:11.000Z</time>
      </trkpt>
      <trkpt lat="47.48819" lon="6.77563">
        <ele>324</ele>
        <time>2016-01-17T08:42:12.000Z</time>
      </trkpt>
      <trkpt lat="47.48815" lon="6.7756">
        <ele>324</ele>
        <time>2016-01-17T08:42:16.000Z</time>
      </trkpt>
      <trkpt lat="47.48814" lon="6.7756">
        <ele>324</ele>
        <time>2016-01-17T08:42:17.000Z</time>
      </trkpt>
      <trkpt lat="47.4881" lon="6.77559">
        <ele>325</ele>
        <time>2016-01-17T08:42:22.000Z</time>
      </trkpt>
      <trkpt lat="47.48809" lon="6.77558">
        <ele>325</ele>
        <time>2016-01-17T08:42:23.000Z</time>
      </trkpt>
      <trkpt lat="47.48805" lon="6.77555">
        <ele>325</ele>
        <time>2016-01-17T08:42:27.000Z</time>
      </trkpt>
      <trkpt lat="47.48804" lon="6.77554">
        <ele>325</ele>
        <time>2016-01-17T08:42:28.000Z</time>
      </trkpt>
      <trkpt lat="47.48801" lon="6.77551">
        <ele>326</ele>
        <time>2016-01-17T08:42:31.000Z</time>
      </trkpt>
      <trkpt lat="47.48799" lon="6.7755">
        <ele>326</ele>
        <time>2016-01-17T08:42:32.000Z</time>
      </trkpt>
      <trkpt lat="47.48795" lon="6.77547">
        <ele>326</ele>
        <time>2016-01-17T08:42:35.000Z</time>
      </trkpt>
      <trkpt lat="47.48795" lon="6.77546">
        <ele>326</ele>
        <time>2016-01-17T08:42:36.000Z</time>
      </trkpt>
      <trkpt lat="47.48792" lon="6.77541">
        <ele>326</ele>
        <time>2016-01-17T08:42:39.000Z</time>
      </trkpt>
      <trkpt lat="47.48791" lon="6.77541">
        <ele>326</ele>
        <time>2016-01-17T08:42:40.000Z</time>
      </trkpt>
      <trkpt lat="47.48788" lon="6.77539">
        <ele>327</ele>
        <time>2016-01-17T08:42:43.000Z</time>
      </trkpt>
      <trkpt lat="47.48787" lon="6.77539">
        <ele>327</ele>
        <time>2016-01-17T08:42:44.000Z</time>
      </trkpt>
      <trkpt lat="47.48783" lon="6.77538">
        <ele>327</ele>
        <time>2016-01-17T08:42:46.000Z</time>
      </trkpt>
      <trkpt lat="47.48782" lon="6.77537">
        <ele>327</ele>
        <time>2016-01-17T08:42:47.000Z</time>
      </trkpt>
      <trkpt lat="47.48778" lon="6.77536">
        <ele>327</ele>
        <time>2016-01-17T08:42:50.000Z</time>
      </trkpt>
      <trkpt lat="47.48778" lon="6.77534">
        <ele>328</ele>
        <time>2016-01-17T08:42:51.000Z</time>
      </trkpt>
      <trkpt lat="47.48773" lon="6.77532">
        <ele>328</ele>
        <time>2016-01-17T08:42:56.000Z</time>
      </trkpt>
      <trkpt lat="47.48772" lon="6.77532">
        <ele>328</ele>
        <time>2016-01-17T08:42:57.000Z</time>
      </trkpt>
      <trkpt lat="47.48769" lon="6.7753">
        <ele>328</ele>
        <time>2016-01-17T08:43:00.000Z</time>
      </trkpt>
      <trkpt lat="47.48767" lon="6.7753">
        <ele>328</ele>
        <time>2016-01-17T08:43:01.000Z</time>
      </trkpt>
      <trkpt lat="47.48764" lon="6.77529">
        <ele>329</ele>
        <time>2016-01-17T08:43:03.000Z</time>
      </trkpt>
      <trkpt lat="47.48762" lon="6.77528">
        <ele>329</ele>
        <time>2016-01-17T08:43:04.000Z</time>
      </trkpt>
      <trkpt lat="47.48758" lon="6.77527">
        <ele>329</ele>
        <time>2016-01-17T08:43:06.000Z</time>
      </trkpt>
      <trkpt lat="47.48757" lon="6.77526">
        <ele>329</ele>
        <time>2016-01-17T08:43:07.000Z</time>
      </trkpt>
      <trkpt lat="47.48753" lon="6.77523">
        <ele>329</ele>
        <time>2016-01-17T08:43:09.000Z</time>
      </trkpt>
      <trkpt lat="47.48751" lon="6.77522">
        <ele>329</ele>
        <time>2016-01-17T08:43:10.000Z</time>
      </trkpt>
      <trkpt lat="47.48748" lon="6.7752">
        <ele>334</ele>
        <time>2016-01-17T08:43:12.000Z</time>
      </trkpt>
      <trkpt lat="47.48747" lon="6.77518">
        <ele>334</ele>
        <time>2016-01-17T08:43:13.000Z</time>
      </trkpt>
      <trkpt lat="47.48744" lon="6.77514">
        <ele>334</ele>
        <time>2016-01-17T08:43:16.000Z</time>
      </trkpt>
      <trkpt lat="47.48743" lon="6.77512">
        <ele>334</ele>
        <time>2016-01-17T08:43:17.000Z</time>
      </trkpt>
      <trkpt lat="47.4874" lon="6.77509">
        <ele>334</ele>
        <time>2016-01-17T08:43:19.000Z</time>
      </trkpt>
      <trkpt lat="47.48739" lon="6.77507">
        <ele>334</ele>
        <time>2016-01-17T08:43:20.000Z</time>
      </trkpt>
      <trkpt lat="47.48736" lon="6.77503">
        <ele>334</ele>
        <time>2016-01-17T08:43:22.000Z</time>
      </trkpt>
      <trkpt lat="47.48734" lon="6.775">
        <ele>334</ele>
        <time>2016-01-17T08:43:23.000Z</time>
      </trkpt>
      <trkpt lat="47.48732" lon="6.77498">
        <ele>332</ele>
        <time>2016-01-17T08:43:24.000Z</time>
      </trkpt>
      <trkpt lat="47.4873" lon="6.77496">
        <ele>332</ele>
        <time>2016-01-17T08:43:25.000Z</time>
      </trkpt>
      <trkpt lat="47.48729" lon="6.77493">
        <ele>332</ele>
        <time>2016-01-17T08:43:26.000Z</time>
      </trkpt>
      <trkpt lat="47.48727" lon="6.77492">
        <ele>332</ele>
        <time>2016-01-17T08:43:27.000Z</time>
      </trkpt>
      <trkpt lat="47.48723" lon="6.77488">
        <ele>332</ele>
        <time>2016-01-17T08:43:29.000Z</time>
      </trkpt>
      <trkpt lat="47.48721" lon="6.77486">
        <ele>332</ele>
        <time>2016-01-17T08:43:30.000Z</time>
      </trkpt>
      <trkpt lat="47.48719" lon="6.77484">
        <ele>332</ele>
        <time>2016-01-17T08:43:31.000Z</time>
      </trkpt>
      <trkpt lat="47.48717" lon="6.77483">
        <ele>332</ele>
        <time>2016-01-17T08:43:32.000Z</time>
      </trkpt>
      <trkpt lat="47.48714" lon="6.7748">
        <ele>332</ele>
        <time>2016-01-17T08:43:34.000Z</time>
      </trkpt>
      <trkpt lat="47.48712" lon="6.77479">
        <ele>332</ele>
        <time>2016-01-17T08:43:35.000Z</time>
      </trkpt>
      <trkpt lat="47.48709" lon="6.77475">
        <ele>332</ele>
        <time>2016-01-17T08:43:38.000Z</time>
      </trkpt>
      <trkpt lat="47.48707" lon="6.77474">
        <ele>333</ele>
        <time>2016-01-17T08:43:39.000Z</time>
      </trkpt>
      <trkpt lat="47.48704" lon="6.77471">
        <ele>333</ele>
        <time>2016-01-17T08:43:41.000Z</time>
      </trkpt>
      <trkpt lat="47.48703" lon="6.7747">
        <ele>333</ele>
        <time>2016-01-17T08:43:42.000Z</time>
      </trkpt>
      <trkpt lat="47.48702" lon="6.77464">
        <ele>332</ele>
        <time>2016-01-17T08:43:52.000Z</time>
      </trkpt>
      <trkpt lat="47.48701" lon="6.77463">
        <ele>332</ele>
        <time>2016-01-17T08:43:53.000Z</time>
      </trkpt>
      <trkpt lat="47.487" lon="6.77457">
        <ele>332</ele>
        <time>2016-01-17T08:44:03.000Z</time>
      </trkpt>
      <trkpt lat="47.487" lon="6.77456">
        <ele>332</ele>
        <time>2016-01-17T08:44:04.000Z</time>
      </trkpt>
      <trkpt lat="47.48697" lon="6.77453">
        <ele>332</ele>
        <time>2016-01-17T08:44:14.000Z</time>
      </trkpt>
      <trkpt lat="47.48696" lon="6.77452">
        <ele>332</ele>
        <time>2016-01-17T08:44:15.000Z</time>
      </trkpt>
      <trkpt lat="47.48692" lon="6.77449">
        <ele>333</ele>
        <time>2016-01-17T08:44:19.000Z</time>
      </trkpt>
      <trkpt lat="47.48691" lon="6.77448">
        <ele>333</ele>
        <time>2016-01-17T08:44:20.000Z</time>
      </trkpt>
      <trkpt lat="47.48689" lon="6.77443">
        <ele>333</ele>
        <time>2016-01-17T08:44:24.000Z</time>
      </trkpt>
      <trkpt lat="47.48689" lon="6.77442">
        <ele>333</ele>
        <time>2016-01-17T08:44:25.000Z</time>
      </trkpt>
      <trkpt lat="47.48686" lon="6.77438">
        <ele>333</ele>
        <time>2016-01-17T08:44:28.000Z</time>
      </trkpt>
      <trkpt lat="47.48684" lon="6.77436">
        <ele>333</ele>
        <time>2016-01-17T08:44:29.000Z</time>
      </trkpt>
      <trkpt lat="47.48683" lon="6.77434">
        <ele>333</ele>
        <time>2016-01-17T08:44:30.000Z</time>
      </trkpt>
      <trkpt lat="47.48681" lon="6.77431">
        <ele>334</ele>
        <time>2016-01-17T08:44:31.000Z</time>
      </trkpt>
      <trkpt lat="47.48677" lon="6.77428">
        <ele>334</ele>
        <time>2016-01-17T08:44:33.000Z</time>
      </trkpt>
      <trkpt lat="47.48676" lon="6.77427">
        <ele>335</ele>
        <time>2016-01-17T08:44:34.000Z</time>
      </trkpt>
      <trkpt lat="47.48672" lon="6.77424">
        <ele>335</ele>
        <time>2016-01-17T08:44:36.000Z</time>
      </trkpt>
      <trkpt lat="47.4867" lon="6.77422">
        <ele>336</ele>
        <time>2016-01-17T08:44:37.000Z</time>
      </trkpt>
      <trkpt lat="47.48667" lon="6.77419">
        <ele>337</ele>
        <time>2016-01-17T08:44:39.000Z</time>
      </trkpt>
      <trkpt lat="47.48666" lon="6.77417">
        <ele>337</ele>
        <time>2016-01-17T08:44:40.000Z</time>
      </trkpt>
      <trkpt lat="47.48663" lon="6.77414">
        <ele>336</ele>
        <time>2016-01-17T08:44:42.000Z</time>
      </trkpt>
      <trkpt lat="47.48662" lon="6.77413">
        <ele>336</ele>
        <time>2016-01-17T08:44:43.000Z</time>
      </trkpt>
      <trkpt lat="47.48658" lon="6.7741">
        <ele>336</ele>
        <time>2016-01-17T08:44:48.000Z</time>
      </trkpt>
      <trkpt lat="47.48658" lon="6.77409">
        <ele>336</ele>
        <time>2016-01-17T08:44:49.000Z</time>
      </trkpt>
      <trkpt lat="47.48655" lon="6.77406">
        <ele>335</ele>
        <time>2016-01-17T08:44:53.000Z</time>
      </trkpt>
      <trkpt lat="47.48654" lon="6.77404">
        <ele>335</ele>
        <time>2016-01-17T08:44:54.000Z</time>
      </trkpt>
      <trkpt lat="47.48651" lon="6.77402">
        <ele>335</ele>
        <time>2016-01-17T08:45:00.000Z</time>
      </trkpt>
      <trkpt lat="47.48649" lon="6.77401">
        <ele>335</ele>
        <time>2016-01-17T08:45:01.000Z</time>
      </trkpt>
      <trkpt lat="47.48646" lon="6.774">
        <ele>335</ele>
        <time>2016-01-17T08:45:05.000Z</time>
      </trkpt>
      <trkpt lat="47.48644" lon="6.77399">
        <ele>335</ele>
        <time>2016-01-17T08:45:06.000Z</time>
      </trkpt>
      <trkpt lat="47.48641" lon="6.77397">
        <ele>335</ele>
        <time>2016-01-17T08:45:08.000Z</time>
      </trkpt>
      <trkpt lat="47.48639" lon="6.77396">
        <ele>335</ele>
        <time>2016-01-17T08:45:09.000Z</time>
      </trkpt>
      <trkpt lat="47.48637" lon="6.77395">
        <ele>335</ele>
        <time>2016-01-17T08:45:10.000Z</time>
      </trkpt>
      <trkpt lat="47.48634" lon="6.77394">
        <ele>335</ele>
        <time>2016-01-17T08:45:11.000Z</time>
      </trkpt>
      <trkpt lat="47.48632" lon="6.77393">
        <ele>335</ele>
        <time>2016-01-17T08:45:12.000Z</time>
      </trkpt>
      <trkpt lat="47.4863" lon="6.77391">
        <ele>335</ele>
        <time>2016-01-17T08:45:13.000Z</time>
      </trkpt>
      <trkpt lat="47.48626" lon="6.77388">
        <ele>335</ele>
        <time>2016-01-17T08:45:15.000Z</time>
      </trkpt>
      <trkpt lat="47.48624" lon="6.77387">
        <ele>335</ele>
        <time>2016-01-17T08:45:16.000Z</time>
      </trkpt>
      <trkpt lat="47.4862" lon="6.77387">
        <ele>335</ele>
        <time>2016-01-17T08:45:18.000Z</time>
      </trkpt>
      <trkpt lat="47.48618" lon="6.77387">
        <ele>335</ele>
        <time>2016-01-17T08:45:19.000Z</time>
      </trkpt>
      <trkpt lat="47.48614" lon="6.77389">
        <ele>335</ele>
        <time>2016-01-17T08:45:21.000Z</time>
      </trkpt>
      <trkpt lat="47.48613" lon="6.7739">
        <ele>335</ele>
        <time>2016-01-17T08:45:22.000Z</time>
      </trkpt>
      <trkpt lat="47.4861" lon="6.77393">
        <ele>336</ele>
        <time>2016-01-17T08:45:24.000Z</time>
      </trkpt>
      <trkpt lat="47.48609" lon="6.77394">
        <ele>336</ele>
        <time>2016-01-17T08:45:25.000Z</time>
      </trkpt>
      <trkpt lat="47.48606" lon="6.77399">
        <ele>336</ele>
        <time>2016-01-17T08:45:28.000Z</time>
      </trkpt>
      <trkpt lat="47.48606" lon="6.77401">
        <ele>336</ele>
        <time>2016-01-17T08:45:29.000Z</time>
      </trkpt>
      <trkpt lat="47.48606" lon="6.77407">
        <ele>337</ele>
        <time>2016-01-17T08:45:32.000Z</time>
      </trkpt>
      <trkpt lat="47.48606" lon="6.77408">
        <ele>337</ele>
        <time>2016-01-17T08:45:33.000Z</time>
      </trkpt>
      <trkpt lat="47.48603" lon="6.77412">
        <ele>337</ele>
        <time>2016-01-17T08:45:36.000Z</time>
      </trkpt>
      <trkpt lat="47.48602" lon="6.77413">
        <ele>338</ele>
        <time>2016-01-17T08:45:37.000Z</time>
      </trkpt>
      <trkpt lat="47.48599" lon="6.77418">
        <ele>339</ele>
        <time>2016-01-17T08:45:40.000Z</time>
      </trkpt>
      <trkpt lat="47.48599" lon="6.7742">
        <ele>339</ele>
        <time>2016-01-17T08:45:41.000Z</time>
      </trkpt>
      <trkpt lat="47.48598" lon="6.77425">
        <ele>338</ele>
        <time>2016-01-17T08:45:44.000Z</time>
      </trkpt>
      <trkpt lat="47.48597" lon="6.77427">
        <ele>338</ele>
        <time>2016-01-17T08:45:45.000Z</time>
      </trkpt>
      <trkpt lat="47.48595" lon="6.77432">
        <ele>338</ele>
        <time>2016-01-17T08:45:48.000Z</time>
      </trkpt>
      <trkpt lat="47.48595" lon="6.77434">
        <ele>338</ele>
        <time>2016-01-17T08:45:49.000Z</time>
      </trkpt>
      <trkpt lat="47.48594" lon="6.77438">
        <ele>337</ele>
        <time>2016-01-17T08:45:51.000Z</time>
      </trkpt>
      <trkpt lat="47.48593" lon="6.7744">
        <ele>337</ele>
        <time>2016-01-17T08:45:52.000Z</time>
      </trkpt>
      <trkpt lat="47.4859" lon="6.77442">
        <ele>337</ele>
        <time>2016-01-17T08:45:54.000Z</time>
      </trkpt>
      <trkpt lat="47.48588" lon="6.77442">
        <ele>337</ele>
        <time>2016-01-17T08:45:55.000Z</time>
      </trkpt>
      <trkpt lat="47.48586" lon="6.77442">
        <ele>337</ele>
        <time>2016-01-17T08:45:56.000Z</time>
      </trkpt>
      <trkpt lat="47.48583" lon="6.7744">
        <ele>337</ele>
        <time>2016-01-17T08:45:57.000Z</time>
      </trkpt>
      <trkpt lat="47.48581" lon="6.77439">
        <ele>333</ele>
        <time>2016-01-17T08:45:58.000Z</time>
      </trkpt>
      <trkpt lat="47.48579" lon="6.77437">
        <ele>333</ele>
        <time>2016-01-17T08:45:59.000Z</time>
      </trkpt>
      <trkpt lat="47.48576" lon="6.77436">
        <ele>333</ele>
        <time>2016-01-17T08:46:00.000Z</time>
      </trkpt>
      <trkpt lat="47.48574" lon="6.77434">
        <ele>333</ele>
        <time>2016-01-17T08:46:01.000Z</time>
      </trkpt>
      <trkpt lat="47.48571" lon="6.77433">
        <ele>333</ele>
        <time>2016-01-17T08:46:02.000Z</time>
      </trkpt>
      <trkpt lat="47.48568" lon="6.77431">
        <ele>333</ele>
        <time>2016-01-17T08:46:03.000Z</time>
      </trkpt>
      <trkpt lat="47.48566" lon="6.7743">
        <ele>333</ele>
        <time>2016-01-17T08:46:04.000Z</time>
      </trkpt>
      <trkpt lat="47.48563" lon="6.77428">
        <ele>332</ele>
        <time>2016-01-17T08:46:05.000Z</time>
      </trkpt>
      <trkpt lat="47.4856" lon="6.77425">
        <ele>332</ele>
        <time>2016-01-17T08:46:07.000Z</time>
      </trkpt>
      <trkpt lat="47.48558" lon="6.77424">
        <ele>332</ele>
        <time>2016-01-17T08:46:08.000Z</time>
      </trkpt>
      <trkpt lat="47.48555" lon="6.7742">
        <ele>331</ele>
        <time>2016-01-17T08:46:10.000Z</time>
      </trkpt>
      <trkpt lat="47.48553" lon="6.77418">
        <ele>331</ele>
        <time>2016-01-17T08:46:11.000Z</time>
      </trkpt>
      <trkpt lat="47.4855" lon="6.77414">
        <ele>336</ele>
        <time>2016-01-17T08:46:13.000Z</time>
      </trkpt>
      <trkpt lat="47.48548" lon="6.77413">
        <ele>336</ele>
        <time>2016-01-17T08:46:14.000Z</time>
      </trkpt>
      <trkpt lat="47.48545" lon="6.77411">
        <ele>335</ele>
        <time>2016-01-17T08:46:15.000Z</time>
      </trkpt>
      <trkpt lat="47.48542" lon="6.7741">
        <ele>335</ele>
        <time>2016-01-17T08:46:16.000Z</time>
      </trkpt>
      <trkpt lat="47.4854" lon="6.77409">
        <ele>335</ele>
        <time>2016-01-17T08:46:17.000Z</time>
      </trkpt>
      <trkpt lat="47.48537" lon="6.77409">
        <ele>335</ele>
        <time>2016-01-17T08:46:18.000Z</time>
      </trkpt>
      <trkpt lat="47.48534" lon="6.77408">
        <ele>334</ele>
        <time>2016-01-17T08:46:19.000Z</time>
      </trkpt>
      <trkpt lat="47.48531" lon="6.77406">
        <ele>334</ele>
        <time>2016-01-17T08:46:20.000Z</time>
      </trkpt>
      <trkpt lat="47.48528" lon="6.77405">
        <ele>334</ele>
        <time>2016-01-17T08:46:21.000Z</time>
      </trkpt>
      <trkpt lat="47.48526" lon="6.77404">
        <ele>333</ele>
        <time>2016-01-17T08:46:22.000Z</time>
      </trkpt>
      <trkpt lat="47.48523" lon="6.77402">
        <ele>333</ele>
        <time>2016-01-17T08:46:23.000Z</time>
      </trkpt>
      <trkpt lat="47.48521" lon="6.774">
        <ele>333</ele>
        <time>2016-01-17T08:46:24.000Z</time>
      </trkpt>
      <trkpt lat="47.48518" lon="6.77398">
        <ele>333</ele>
        <time>2016-01-17T08:46:25.000Z</time>
      </trkpt>
      <trkpt lat="47.48516" lon="6.77396">
        <ele>333</ele>
        <time>2016-01-17T08:46:26.000Z</time>
      </trkpt>
      <trkpt lat="47.48514" lon="6.77393">
        <ele>333</ele>
        <time>2016-01-17T08:46:27.000Z</time>
      </trkpt>
      <trkpt lat="47.48511" lon="6.77391">
        <ele>333</ele>
        <time>2016-01-17T08:46:28.000Z</time>
      </trkpt>
      <trkpt lat="47.48508" lon="6.77389">
        <ele>333</ele>
        <time>2016-01-17T08:46:29.000Z</time>
      </trkpt>
      <trkpt lat="47.48505" lon="6.77387">
        <ele>334</ele>
        <time>2016-01-17T08:46:30.000Z</time>
      </trkpt>
      <trkpt lat="47.48503" lon="6.77385">
        <ele>334</ele>
        <time>2016-01-17T08:46:31.000Z</time>
      </trkpt>
      <trkpt lat="47.48501" lon="6.77384">
        <ele>334</ele>
        <time>2016-01-17T08:46:32.000Z</time>
      </trkpt>
      <trkpt lat="47.48498" lon="6.7738">
        <ele>328</ele>
        <time>2016-01-17T08:46:34.000Z</time>
      </trkpt>
      <trkpt lat="47.48497" lon="6.77377">
        <ele>329</ele>
        <time>2016-01-17T08:46:35.000Z</time>
      </trkpt>
      <trkpt lat="47.48496" lon="6.77374">
        <ele>329</ele>
        <time>2016-01-17T08:46:36.000Z</time>
      </trkpt>
      <trkpt lat="47.48495" lon="6.77371">
        <ele>329</ele>
        <time>2016-01-17T08:46:37.000Z</time>
      </trkpt>
      <trkpt lat="47.48493" lon="6.77368">
        <ele>330</ele>
        <time>2016-01-17T08:46:38.000Z</time>
      </trkpt>
      <trkpt lat="47.48491" lon="6.77365">
        <ele>330</ele>
        <time>2016-01-17T08:46:39.000Z</time>
      </trkpt>
      <trkpt lat="47.48489" lon="6.77363">
        <ele>330</ele>
        <time>2016-01-17T08:46:40.000Z</time>
      </trkpt>
      <trkpt lat="47.48487" lon="6.77359">
        <ele>331</ele>
        <time>2016-01-17T08:46:41.000Z</time>
      </trkpt>
      <trkpt lat="47.48484" lon="6.77356">
        <ele>331</ele>
        <time>2016-01-17T08:46:42.000Z</time>
      </trkpt>
      <trkpt lat="47.48482" lon="6.77352">
        <ele>331</ele>
        <time>2016-01-17T08:46:43.000Z</time>
      </trkpt>
      <trkpt lat="47.48479" lon="6.77349">
        <ele>331</ele>
        <time>2016-01-17T08:46:44.000Z</time>
      </trkpt>
      <trkpt lat="47.48477" lon="6.77346">
        <ele>331</ele>
        <time>2016-01-17T08:46:45.000Z</time>
      </trkpt>
      <trkpt lat="47.48474" lon="6.77344">
        <ele>331</ele>
        <time>2016-01-17T08:46:46.000Z</time>
      </trkpt>
      <trkpt lat="47.48471" lon="6.77342">
        <ele>330</ele>
        <time>2016-01-17T08:46:47.000Z</time>
      </trkpt>
      <trkpt lat="47.48468" lon="6.7734">
        <ele>330</ele>
        <time>2016-01-17T08:46:48.000Z</time>
      </trkpt>
      <trkpt lat="47.48465" lon="6.77338">
        <ele>330</ele>
        <time>2016-01-17T08:46:49.000Z</time>
      </trkpt>
      <trkpt lat="47.48463" lon="6.77335">
        <ele>330</ele>
        <time>2016-01-17T08:46:50.000Z</time>
      </trkpt>
      <trkpt lat="47.4846" lon="6.77333">
        <ele>334</ele>
        <time>2016-01-17T08:46:51.000Z</time>
      </trkpt>
      <trkpt lat="47.48458" lon="6.7733">
        <ele>334</ele>
        <time>2016-01-17T08:46:52.000Z</time>
      </trkpt>
      <trkpt lat="47.48455" lon="6.77326">
        <ele>333</ele>
        <time>2016-01-17T08:46:53.000Z</time>
      </trkpt>
      <trkpt lat="47.48452" lon="6.77322">
        <ele>333</ele>
        <time>2016-01-17T08:46:54.000Z</time>
      </trkpt>
      <trkpt lat="47.4845" lon="6.77319">
        <ele>333</ele>
        <time>2016-01-17T08:46:55.000Z</time>
      </trkpt>
      <trkpt lat="47.48448" lon="6.77315">
        <ele>333</ele>
        <time>2016-01-17T08:46:56.000Z</time>
      </trkpt>
      <trkpt lat="47.48445" lon="6.77312">
        <ele>333</ele>
        <time>2016-01-17T08:46:57.000Z</time>
      </trkpt>
      <trkpt lat="47.48442" lon="6.77309">
        <ele>333</ele>
        <time>2016-01-17T08:46:58.000Z</time>
      </trkpt>
      <trkpt lat="47.4844" lon="6.77307">
        <ele>333</ele>
        <time>2016-01-17T08:46:59.000Z</time>
      </trkpt>
      <trkpt lat="47.48437" lon="6.77305">
        <ele>333</ele>
        <time>2016-01-17T08:47:00.000Z</time>
      </trkpt>
      <trkpt lat="47.48434" lon="6.77302">
        <ele>333</ele>
        <time>2016-01-17T08:47:01.000Z</time>
      </trkpt>
      <trkpt lat="47.48432" lon="6.77299">
        <ele>333</ele>
        <time>2016-01-17T08:47:02.000Z</time>
      </trkpt>
      <trkpt lat="47.48429" lon="6.77296">
        <ele>333</ele>
        <time>2016-01-17T08:47:03.000Z</time>
      </trkpt>
      <trkpt lat="47.48426" lon="6.77293">
        <ele>333</ele>
        <time>2016-01-17T08:47:04.000Z</time>
      </trkpt>
      <trkpt lat="47.48423" lon="6.77291">
        <ele>333</ele>
        <time>2016-01-17T08:47:05.000Z</time>
      </trkpt>
      <trkpt lat="47.4842" lon="6.77289">
        <ele>333</ele>
        <time>2016-01-17T08:47:06.000Z</time>
      </trkpt>
      <trkpt lat="47.48417" lon="6.77287">
        <ele>333</ele>
        <time>2016-01-17T08:47:07.000Z</time>
      </trkpt>
      <trkpt lat="47.48414" lon="6.77285">
        <ele>327</ele>
        <time>2016-01-17T08:47:08.000Z</time>
      </trkpt>
      <trkpt lat="47.4841" lon="6.77282">
        <ele>328</ele>
        <time>2016-01-17T08:47:09.000Z</time>
      </trkpt>
      <trkpt lat="47.48407" lon="6.77279">
        <ele>328</ele>
        <time>2016-01-17T08:47:10.000Z</time>
      </trkpt>
      <trkpt lat="47.48404" lon="6.77276">
        <ele>328</ele>
        <time>2016-01-17T08:47:11.000Z</time>
      </trkpt>
      <trkpt lat="47.48402" lon="6.77274">
        <ele>328</ele>
        <time>2016-01-17T08:47:12.000Z</time>
      </trkpt>
      <trkpt lat="47.48399" lon="6.77271">
        <ele>328</ele>
        <time>2016-01-17T08:47:13.000Z</time>
      </trkpt>
      <trkpt lat="47.48397" lon="6.77267">
        <ele>328</ele>
        <time>2016-01-17T08:47:14.000Z</time>
      </trkpt>
      <trkpt lat="47.48394" lon="6.77264">
        <ele>328</ele>
        <time>2016-01-17T08:47:15.000Z</time>
      </trkpt>
      <trkpt lat="47.48391" lon="6.7726">
        <ele>328</ele>
        <time>2016-01-17T08:47:16.000Z</time>
      </trkpt>
      <trkpt lat="47.48388" lon="6.77256">
        <ele>328</ele>
        <time>2016-01-17T08:47:17.000Z</time>
      </trkpt>
      <trkpt lat="47.48385" lon="6.77252">
        <ele>327</ele>
        <time>2016-01-17T08:47:18.000Z</time>
      </trkpt>
      <trkpt lat="47.48381" lon="6.77248">
        <ele>330</ele>
        <time>2016-01-17T08:47:19.000Z</time>
      </trkpt>
      <trkpt lat="47.48378" lon="6.77245">
        <ele>330</ele>
        <time>2016-01-17T08:47:20.000Z</time>
      </trkpt>
      <trkpt lat="47.48374" lon="6.77242">
        <ele>330</ele>
        <time>2016-01-17T08:47:21.000Z</time>
      </trkpt>
      <trkpt lat="47.4837" lon="6.77241">
        <ele>329</ele>
        <time>2016-01-17T08:47:22.000Z</time>
      </trkpt>
      <trkpt lat="47.48366" lon="6.77239">
        <ele>329</ele>
        <time>2016-01-17T08:47:23.000Z</time>
      </trkpt>
      <trkpt lat="47.48362" lon="6.77237">
        <ele>329</ele>
        <time>2016-01-17T08:47:24.000Z</time>
      </trkpt>
      <trkpt lat="47.48359" lon="6.77235">
        <ele>329</ele>
        <time>2016-01-17T08:47:25.000Z</time>
      </trkpt>
      <trkpt lat="47.48355" lon="6.77233">
        <ele>328</ele>
        <time>2016-01-17T08:47:26.000Z</time>
      </trkpt>
      <trkpt lat="47.48353" lon="6.77231">
        <ele>328</ele>
        <time>2016-01-17T08:47:27.000Z</time>
      </trkpt>
      <trkpt lat="47.48349" lon="6.77229">
        <ele>328</ele>
        <time>2016-01-17T08:47:29.000Z</time>
      </trkpt>
      <trkpt lat="47.48348" lon="6.77227">
        <ele>328</ele>
        <time>2016-01-17T08:47:30.000Z</time>
      </trkpt>
      <trkpt lat="47.48346" lon="6.77222">
        <ele>328</ele>
        <time>2016-01-17T08:47:32.000Z</time>
      </trkpt>
      <trkpt lat="47.48346" lon="6.7722">
        <ele>329</ele>
        <time>2016-01-17T08:47:33.000Z</time>
      </trkpt>
      <trkpt lat="47.48344" lon="6.77214">
        <ele>329</ele>
        <time>2016-01-17T08:47:35.000Z</time>
      </trkpt>
      <trkpt lat="47.48343" lon="6.77209">
        <ele>329</ele>
        <time>2016-01-17T08:47:36.000Z</time>
      </trkpt>
      <trkpt lat="47.48342" lon="6.77203">
        <ele>329</ele>
        <time>2016-01-17T08:47:37.000Z</time>
      </trkpt>
      <trkpt lat="47.4834" lon="6.77197">
        <ele>330</ele>
        <time>2016-01-17T08:47:38.000Z</time>
      </trkpt>
      <trkpt lat="47.48339" lon="6.77181">
        <ele>330</ele>
        <time>2016-01-17T08:47:39.000Z</time>
      </trkpt>
      <trkpt lat="47.48338" lon="6.77174">
        <ele>331</ele>
        <time>2016-01-17T08:47:40.000Z</time>
      </trkpt>
      <trkpt lat="47.48337" lon="6.77167">
        <ele>331</ele>
        <time>2016-01-17T08:47:41.000Z</time>
      </trkpt>
      <trkpt lat="47.48337" lon="6.77159">
        <ele>329</ele>
        <time>2016-01-17T08:47:42.000Z</time>
      </trkpt>
      <trkpt lat="47.48338" lon="6.77153">
        <ele>328</ele>
        <time>2016-01-17T08:47:43.000Z</time>
      </trkpt>
      <trkpt lat="47.4834" lon="6.77147">
        <ele>328</ele>
        <time>2016-01-17T08:47:44.000Z</time>
      </trkpt>
      <trkpt lat="47.48343" lon="6.77141">
        <ele>327</ele>
        <time>2016-01-17T08:47:45.000Z</time>
      </trkpt>
      <trkpt lat="47.48345" lon="6.77134">
        <ele>326</ele>
        <time>2016-01-17T08:47:46.000Z</time>
      </trkpt>
      <trkpt lat="47.48348" lon="6.77127">
        <ele>326</ele>
        <time>2016-01-17T08:47:47.000Z</time>
      </trkpt>
      <trkpt lat="47.48349" lon="6.77122">
        <ele>325</ele>
        <time>2016-01-17T08:47:48.000Z</time>
      </trkpt>
      <trkpt lat="47.48349" lon="6.77118">
        <ele>325</ele>
        <time>2016-01-17T08:47:49.000Z</time>
      </trkpt>
      <trkpt lat="47.48347" lon="6.77114">
        <ele>325</ele>
        <time>2016-01-17T08:47:50.000Z</time>
      </trkpt>
      <trkpt lat="47.48344" lon="6.77111">
        <ele>325</ele>
        <time>2016-01-17T08:47:51.000Z</time>
      </trkpt>
      <trkpt lat="47.4834" lon="6.77108">
        <ele>325</ele>
        <time>2016-01-17T08:47:52.000Z</time>
      </trkpt>
      <trkpt lat="47.48338" lon="6.77107">
        <ele>325</ele>
        <time>2016-01-17T08:47:53.000Z</time>
      </trkpt>
      <trkpt lat="47.48335" lon="6.77106">
        <ele>325</ele>
        <time>2016-01-17T08:47:54.000Z</time>
      </trkpt>
      <trkpt lat="47.48333" lon="6.77105">
        <ele>324</ele>
        <time>2016-01-17T08:47:55.000Z</time>
      </trkpt>
      <trkpt lat="47.48329" lon="6.77104">
        <ele>324</ele>
        <time>2016-01-17T08:47:56.000Z</time>
      </trkpt>
      <trkpt lat="47.48327" lon="6.77103">
        <ele>324</ele>
        <time>2016-01-17T08:47:57.000Z</time>
      </trkpt>
      <trkpt lat="47.48324" lon="6.77102">
        <ele>324</ele>
        <time>2016-01-17T08:47:58.000Z</time>
      </trkpt>
      <trkpt lat="47.48315" lon="6.77106">
        <ele>324</ele>
        <time>2016-01-17T08:47:59.000Z</time>
      </trkpt>
      <trkpt lat="47.48309" lon="6.77103">
        <ele>323</ele>
        <time>2016-01-17T08:48:00.000Z</time>
      </trkpt>
      <trkpt lat="47.48303" lon="6.771">
        <ele>323</ele>
        <time>2016-01-17T08:48:01.000Z</time>
      </trkpt>
      <trkpt lat="47.48299" lon="6.77099">
        <ele>323</ele>
        <time>2016-01-17T08:48:02.000Z</time>
      </trkpt>
      <trkpt lat="47.48294" lon="6.77098">
        <ele>322</ele>
        <time>2016-01-17T08:48:03.000Z</time>
      </trkpt>
      <trkpt lat="47.48291" lon="6.771">
        <ele>322</ele>
        <time>2016-01-17T08:48:04.000Z</time>
      </trkpt>
      <trkpt lat="47.48284" lon="6.77103">
        <ele>322</ele>
        <time>2016-01-17T08:48:05.000Z</time>
      </trkpt>
      <trkpt lat="47.4828" lon="6.77105">
        <ele>322</ele>
        <time>2016-01-17T08:48:06.000Z</time>
      </trkpt>
      <trkpt lat="47.48277" lon="6.77108">
        <ele>322</ele>
        <time>2016-01-17T08:48:07.000Z</time>
      </trkpt>
      <trkpt lat="47.48274" lon="6.77111">
        <ele>322</ele>
        <time>2016-01-17T08:48:08.000Z</time>
      </trkpt>
      <trkpt lat="47.48271" lon="6.77115">
        <ele>322</ele>
        <time>2016-01-17T08:48:09.000Z</time>
      </trkpt>
      <trkpt lat="47.4827" lon="6.77119">
        <ele>322</ele>
        <time>2016-01-17T08:48:10.000Z</time>
      </trkpt>
      <trkpt lat="47.48268" lon="6.77122">
        <ele>322</ele>
        <time>2016-01-17T08:48:11.000Z</time>
      </trkpt>
      <trkpt lat="47.48266" lon="6.77123">
        <ele>322</ele>
        <time>2016-01-17T08:48:12.000Z</time>
      </trkpt>
      <trkpt lat="47.48263" lon="6.77121">
        <ele>321</ele>
        <time>2016-01-17T08:48:14.000Z</time>
      </trkpt>
      <trkpt lat="47.48261" lon="6.77122">
        <ele>321</ele>
        <time>2016-01-17T08:48:15.000Z</time>
      </trkpt>
      <trkpt lat="47.48258" lon="6.77126">
        <ele>321</ele>
        <time>2016-01-17T08:48:17.000Z</time>
      </trkpt>
      <trkpt lat="47.48257" lon="6.77129">
        <ele>322</ele>
        <time>2016-01-17T08:48:18.000Z</time>
      </trkpt>
      <trkpt lat="47.48256" lon="6.77133">
        <ele>322</ele>
        <time>2016-01-17T08:48:19.000Z</time>
      </trkpt>
      <trkpt lat="47.48255" lon="6.77137">
        <ele>322</ele>
        <time>2016-01-17T08:48:20.000Z</time>
      </trkpt>
      <trkpt lat="47.48254" lon="6.77141">
        <ele>322</ele>
        <time>2016-01-17T08:48:21.000Z</time>
      </trkpt>
      <trkpt lat="47.48254" lon="6.77145">
        <ele>321</ele>
        <time>2016-01-17T08:48:22.000Z</time>
      </trkpt>
      <trkpt lat="47.48253" lon="6.77149">
        <ele>321</ele>
        <time>2016-01-17T08:48:23.000Z</time>
      </trkpt>
      <trkpt lat="47.48252" lon="6.77153">
        <ele>321</ele>
        <time>2016-01-17T08:48:24.000Z</time>
      </trkpt>
      <trkpt lat="47.48251" lon="6.77157">
        <ele>321</ele>
        <time>2016-01-17T08:48:25.000Z</time>
      </trkpt>
      <trkpt lat="47.4825" lon="6.77161">
        <ele>321</ele>
        <time>2016-01-17T08:48:26.000Z</time>
      </trkpt>
      <trkpt lat="47.4825" lon="6.77166">
        <ele>320</ele>
        <time>2016-01-17T08:48:27.000Z</time>
      </trkpt>
      <trkpt lat="47.48249" lon="6.7717">
        <ele>319</ele>
        <time>2016-01-17T08:48:28.000Z</time>
      </trkpt>
      <trkpt lat="47.48249" lon="6.77174">
        <ele>319</ele>
        <time>2016-01-17T08:48:29.000Z</time>
      </trkpt>
      <trkpt lat="47.48248" lon="6.77179">
        <ele>318</ele>
        <time>2016-01-17T08:48:30.000Z</time>
      </trkpt>
      <trkpt lat="47.48247" lon="6.77183">
        <ele>318</ele>
        <time>2016-01-17T08:48:31.000Z</time>
      </trkpt>
      <trkpt lat="47.48247" lon="6.77188">
        <ele>317</ele>
        <time>2016-01-17T08:48:32.000Z</time>
      </trkpt>
      <trkpt lat="47.48246" lon="6.77193">
        <ele>317</ele>
        <time>2016-01-17T08:48:33.000Z</time>
      </trkpt>
      <trkpt lat="47.48246" lon="6.77197">
        <ele>317</ele>
        <time>2016-01-17T08:48:34.000Z</time>
      </trkpt>
      <trkpt lat="47.48247" lon="6.77202">
        <ele>317</ele>
        <time>2016-01-17T08:48:35.000Z</time>
      </trkpt>
      <trkpt lat="47.48248" lon="6.77206">
        <ele>317</ele>
        <time>2016-01-17T08:48:36.000Z</time>
      </trkpt>
      <trkpt lat="47.4825" lon="6.77211">
        <ele>321</ele>
        <time>2016-01-17T08:48:37.000Z</time>
      </trkpt>
      <trkpt lat="47.48253" lon="6.77215">
        <ele>321</ele>
        <time>2016-01-17T08:48:38.000Z</time>
      </trkpt>
      <trkpt lat="47.48256" lon="6.77218">
        <ele>321</ele>
        <time>2016-01-17T08:48:39.000Z</time>
      </trkpt>
      <trkpt lat="47.4826" lon="6.7722">
        <ele>321</ele>
        <time>2016-01-17T08:48:40.000Z</time>
      </trkpt>
      <trkpt lat="47.48264" lon="6.77221">
        <ele>321</ele>
        <time>2016-01-17T08:48:41.000Z</time>
      </trkpt>
      <trkpt lat="47.48268" lon="6.77223">
        <ele>321</ele>
        <time>2016-01-17T08:48:42.000Z</time>
      </trkpt>
      <trkpt lat="47.48272" lon="6.77225">
        <ele>321</ele>
        <time>2016-01-17T08:48:43.000Z</time>
      </trkpt>
      <trkpt lat="47.48276" lon="6.77227">
        <ele>322</ele>
        <time>2016-01-17T08:48:44.000Z</time>
      </trkpt>
      <trkpt lat="47.4828" lon="6.77228">
        <ele>322</ele>
        <time>2016-01-17T08:48:45.000Z</time>
      </trkpt>
      <trkpt lat="47.48283" lon="6.7723">
        <ele>322</ele>
        <time>2016-01-17T08:48:46.000Z</time>
      </trkpt>
      <trkpt lat="47.48287" lon="6.77231">
        <ele>322</ele>
        <time>2016-01-17T08:48:47.000Z</time>
      </trkpt>
      <trkpt lat="47.48291" lon="6.77232">
        <ele>322</ele>
        <time>2016-01-17T08:48:48.000Z</time>
      </trkpt>
      <trkpt lat="47.48294" lon="6.77233">
        <ele>322</ele>
        <time>2016-01-17T08:48:49.000Z</time>
      </trkpt>
      <trkpt lat="47.48298" lon="6.77234">
        <ele>323</ele>
        <time>2016-01-17T08:48:50.000Z</time>
      </trkpt>
      <trkpt lat="47.48301" lon="6.77236">
        <ele>323</ele>
        <time>2016-01-17T08:48:51.000Z</time>
      </trkpt>
      <trkpt lat="47.48306" lon="6.77237">
        <ele>323</ele>
        <time>2016-01-17T08:48:52.000Z</time>
      </trkpt>
      <trkpt lat="47.4831" lon="6.7724">
        <ele>323</ele>
        <time>2016-01-17T08:48:53.000Z</time>
      </trkpt>
      <trkpt lat="47.48313" lon="6.77242">
        <ele>323</ele>
        <time>2016-01-17T08:48:54.000Z</time>
      </trkpt>
      <trkpt lat="47.48317" lon="6.77245">
        <ele>323</ele>
        <time>2016-01-17T08:48:55.000Z</time>
      </trkpt>
      <trkpt lat="47.4832" lon="6.77248">
        <ele>324</ele>
        <time>2016-01-17T08:48:56.000Z</time>
      </trkpt>
      <trkpt lat="47.48324" lon="6.77252">
        <ele>322</ele>
        <time>2016-01-17T08:48:57.000Z</time>
      </trkpt>
      <trkpt lat="47.48327" lon="6.77255">
        <ele>322</ele>
        <time>2016-01-17T08:48:58.000Z</time>
      </trkpt>
      <trkpt lat="47.48331" lon="6.77259">
        <ele>322</ele>
        <time>2016-01-17T08:48:59.000Z</time>
      </trkpt>
      <trkpt lat="47.48336" lon="6.77262">
        <ele>324</ele>
        <time>2016-01-17T08:49:00.000Z</time>
      </trkpt>
      <trkpt lat="47.4834" lon="6.77264">
        <ele>324</ele>
        <time>2016-01-17T08:49:01.000Z</time>
      </trkpt>
      <trkpt lat="47.48345" lon="6.77265">
        <ele>324</ele>
        <time>2016-01-17T08:49:02.000Z</time>
      </trkpt>
      <trkpt lat="47.48349" lon="6.77267">
        <ele>324</ele>
        <time>2016-01-17T08:49:03.000Z</time>
      </trkpt>
      <trkpt lat="47.48352" lon="6.77271">
        <ele>324</ele>
        <time>2016-01-17T08:49:04.000Z</time>
      </trkpt>
      <trkpt lat="47.48356" lon="6.77274">
        <ele>324</ele>
        <time>2016-01-17T08:49:05.000Z</time>
      </trkpt>
      <trkpt lat="47.48359" lon="6.77278">
        <ele>324</ele>
        <time>2016-01-17T08:49:06.000Z</time>
      </trkpt>
      <trkpt lat="47.48363" lon="6.7728">
        <ele>324</ele>
        <time>2016-01-17T08:49:07.000Z</time>
      </trkpt>
      <trkpt lat="47.48368" lon="6.77283">
        <ele>325</ele>
        <time>2016-01-17T08:49:08.000Z</time>
      </trkpt>
      <trkpt lat="47.48372" lon="6.77286">
        <ele>325</ele>
        <time>2016-01-17T08:49:09.000Z</time>
      </trkpt>
      <trkpt lat="47.48376" lon="6.77289">
        <ele>325</ele>
        <time>2016-01-17T08:49:10.000Z</time>
      </trkpt>
      <trkpt lat="47.4838" lon="6.77292">
        <ele>325</ele>
        <time>2016-01-17T08:49:11.000Z</time>
      </trkpt>
      <trkpt lat="47.48384" lon="6.77294">
        <ele>325</ele>
        <time>2016-01-17T08:49:12.000Z</time>
      </trkpt>
      <trkpt lat="47.48388" lon="6.77297">
        <ele>325</ele>
        <time>2016-01-17T08:49:13.000Z</time>
      </trkpt>
      <trkpt lat="47.48392" lon="6.77301">
        <ele>325</ele>
        <time>2016-01-17T08:49:14.000Z</time>
      </trkpt>
      <trkpt lat="47.48397" lon="6.77302">
        <ele>325</ele>
        <time>2016-01-17T08:49:15.000Z</time>
      </trkpt>
      <trkpt lat="47.48401" lon="6.77305">
        <ele>325</ele>
        <time>2016-01-17T08:49:16.000Z</time>
      </trkpt>
      <trkpt lat="47.48405" lon="6.77308">
        <ele>325</ele>
        <time>2016-01-17T08:49:17.000Z</time>
      </trkpt>
      <trkpt lat="47.48409" lon="6.77311">
        <ele>325</ele>
        <time>2016-01-17T08:49:18.000Z</time>
      </trkpt>
      <trkpt lat="47.48413" lon="6.77315">
        <ele>326</ele>
        <time>2016-01-17T08:49:19.000Z</time>
      </trkpt>
      <trkpt lat="47.48416" lon="6.77317">
        <ele>326</ele>
        <time>2016-01-17T08:49:20.000Z</time>
      </trkpt>
      <trkpt lat="47.48419" lon="6.7732">
        <ele>330</ele>
        <time>2016-01-17T08:49:21.000Z</time>
      </trkpt>
      <trkpt lat="47.48423" lon="6.77325">
        <ele>329</ele>
        <time>2016-01-17T08:49:22.000Z</time>
      </trkpt>
      <trkpt lat="47.48427" lon="6.77329">
        <ele>329</ele>
        <time>2016-01-17T08:49:23.000Z</time>
      </trkpt>
      <trkpt lat="47.48431" lon="6.77331">
        <ele>330</ele>
        <time>2016-01-17T08:49:24.000Z</time>
      </trkpt>
      <trkpt lat="47.48434" lon="6.77335">
        <ele>327</ele>
        <time>2016-01-17T08:49:25.000Z</time>
      </trkpt>
      <trkpt lat="47.48438" lon="6.77339">
        <ele>327</ele>
        <time>2016-01-17T08:49:26.000Z</time>
      </trkpt>
      <trkpt lat="47.48441" lon="6.77342">
        <ele>327</ele>
        <time>2016-01-17T08:49:27.000Z</time>
      </trkpt>
      <trkpt lat="47.48445" lon="6.77346">
        <ele>327</ele>
        <time>2016-01-17T08:49:28.000Z</time>
      </trkpt>
      <trkpt lat="47.48449" lon="6.77348">
        <ele>327</ele>
        <time>2016-01-17T08:49:29.000Z</time>
      </trkpt>
      <trkpt lat="47.48452" lon="6.7735">
        <ele>328</ele>
        <time>2016-01-17T08:49:30.000Z</time>
      </trkpt>
      <trkpt lat="47.48456" lon="6.77352">
        <ele>328</ele>
        <time>2016-01-17T08:49:31.000Z</time>
      </trkpt>
      <trkpt lat="47.4846" lon="6.77355">
        <ele>328</ele>
        <time>2016-01-17T08:49:32.000Z</time>
      </trkpt>
      <trkpt lat="47.48463" lon="6.77359">
        <ele>328</ele>
        <time>2016-01-17T08:49:33.000Z</time>
      </trkpt>
      <trkpt lat="47.48467" lon="6.77363">
        <ele>328</ele>
        <time>2016-01-17T08:49:34.000Z</time>
      </trkpt>
      <trkpt lat="47.4847" lon="6.77367">
        <ele>328</ele>
        <time>2016-01-17T08:49:35.000Z</time>
      </trkpt>
      <trkpt lat="47.48473" lon="6.77372">
        <ele>328</ele>
        <time>2016-01-17T08:49:36.000Z</time>
      </trkpt>
      <trkpt lat="47.48476" lon="6.77376">
        <ele>328</ele>
        <time>2016-01-17T08:49:37.000Z</time>
      </trkpt>
      <trkpt lat="47.48479" lon="6.7738">
        <ele>328</ele>
        <time>2016-01-17T08:49:38.000Z</time>
      </trkpt>
      <trkpt lat="47.48482" lon="6.77384">
        <ele>327</ele>
        <time>2016-01-17T08:49:39.000Z</time>
      </trkpt>
      <trkpt lat="47.48485" lon="6.77389">
        <ele>327</ele>
        <time>2016-01-17T08:49:40.000Z</time>
      </trkpt>
      <trkpt lat="47.48488" lon="6.77393">
        <ele>327</ele>
        <time>2016-01-17T08:49:41.000Z</time>
      </trkpt>
      <trkpt lat="47.48491" lon="6.77398">
        <ele>327</ele>
        <time>2016-01-17T08:49:42.000Z</time>
      </trkpt>
      <trkpt lat="47.48494" lon="6.77402">
        <ele>326</ele>
        <time>2016-01-17T08:49:43.000Z</time>
      </trkpt>
      <trkpt lat="47.48496" lon="6.77407">
        <ele>326</ele>
        <time>2016-01-17T08:49:44.000Z</time>
      </trkpt>
      <trkpt lat="47.48499" lon="6.77412">
        <ele>326</ele>
        <time>2016-01-17T08:49:45.000Z</time>
      </trkpt>
      <trkpt lat="47.48502" lon="6.77417">
        <ele>326</ele>
        <time>2016-01-17T08:49:46.000Z</time>
      </trkpt>
      <trkpt lat="47.48505" lon="6.77422">
        <ele>326</ele>
        <time>2016-01-17T08:49:47.000Z</time>
      </trkpt>
      <trkpt lat="47.48508" lon="6.77426">
        <ele>326</ele>
        <time>2016-01-17T08:49:48.000Z</time>
      </trkpt>
      <trkpt lat="47.48512" lon="6.77429">
        <ele>326</ele>
        <time>2016-01-17T08:49:49.000Z</time>
      </trkpt>
      <trkpt lat="47.48516" lon="6.77433">
        <ele>326</ele>
        <time>2016-01-17T08:49:50.000Z</time>
      </trkpt>
      <trkpt lat="47.48519" lon="6.77437">
        <ele>327</ele>
        <time>2016-01-17T08:49:51.000Z</time>
      </trkpt>
      <trkpt lat="47.48523" lon="6.7744">
        <ele>327</ele>
        <time>2016-01-17T08:49:52.000Z</time>
      </trkpt>
      <trkpt lat="47.48526" lon="6.77444">
        <ele>327</ele>
        <time>2016-01-17T08:49:53.000Z</time>
      </trkpt>
      <trkpt lat="47.48529" lon="6.77447">
        <ele>327</ele>
        <time>2016-01-17T08:49:54.000Z</time>
      </trkpt>
      <trkpt lat="47.48532" lon="6.7745">
        <ele>327</ele>
        <time>2016-01-17T08:49:55.000Z</time>
      </trkpt>
      <trkpt lat="47.48536" lon="6.77453">
        <ele>327</ele>
        <time>2016-01-17T08:49:56.000Z</time>
      </trkpt>
      <trkpt lat="47.48539" lon="6.77457">
        <ele>327</ele>
        <time>2016-01-17T08:49:57.000Z</time>
      </trkpt>
      <trkpt lat="47.48541" lon="6.77461">
        <ele>327</ele>
        <time>2016-01-17T08:49:58.000Z</time>
      </trkpt>
      <trkpt lat="47.48544" lon="6.77465">
        <ele>326</ele>
        <time>2016-01-17T08:49:59.000Z</time>
      </trkpt>
      <trkpt lat="47.48547" lon="6.77468">
        <ele>326</ele>
        <time>2016-01-17T08:50:00.000Z</time>
      </trkpt>
      <trkpt lat="47.4855" lon="6.77471">
        <ele>326</ele>
        <time>2016-01-17T08:50:01.000Z</time>
      </trkpt>
      <trkpt lat="47.48553" lon="6.77474">
        <ele>326</ele>
        <time>2016-01-17T08:50:02.000Z</time>
      </trkpt>
      <trkpt lat="47.48556" lon="6.77477">
        <ele>326</ele>
        <time>2016-01-17T08:50:03.000Z</time>
      </trkpt>
      <trkpt lat="47.48559" lon="6.77481">
        <ele>326</ele>
        <time>2016-01-17T08:50:04.000Z</time>
      </trkpt>
      <trkpt lat="47.48563" lon="6.77484">
        <ele>326</ele>
        <time>2016-01-17T08:50:05.000Z</time>
      </trkpt>
      <trkpt lat="47.48566" lon="6.77487">
        <ele>326</ele>
        <time>2016-01-17T08:50:06.000Z</time>
      </trkpt>
      <trkpt lat="47.48569" lon="6.7749">
        <ele>326</ele>
        <time>2016-01-17T08:50:07.000Z</time>
      </trkpt>
      <trkpt lat="47.48571" lon="6.77495">
        <ele>326</ele>
        <time>2016-01-17T08:50:08.000Z</time>
      </trkpt>
      <trkpt lat="47.48572" lon="6.775">
        <ele>326</ele>
        <time>2016-01-17T08:50:09.000Z</time>
      </trkpt>
      <trkpt lat="47.48573" lon="6.77505">
        <ele>322</ele>
        <time>2016-01-17T08:50:10.000Z</time>
      </trkpt>
      <trkpt lat="47.48573" lon="6.77515">
        <ele>321</ele>
        <time>2016-01-17T08:50:11.000Z</time>
      </trkpt>
      <trkpt lat="47.48576" lon="6.77521">
        <ele>321</ele>
        <time>2016-01-17T08:50:12.000Z</time>
      </trkpt>
      <trkpt lat="47.48579" lon="6.77527">
        <ele>320</ele>
        <time>2016-01-17T08:50:13.000Z</time>
      </trkpt>
      <trkpt lat="47.48583" lon="6.77531">
        <ele>320</ele>
        <time>2016-01-17T08:50:14.000Z</time>
      </trkpt>
      <trkpt lat="47.48587" lon="6.77536">
        <ele>326</ele>
        <time>2016-01-17T08:50:15.000Z</time>
      </trkpt>
      <trkpt lat="47.4859" lon="6.77541">
        <ele>326</ele>
        <time>2016-01-17T08:50:16.000Z</time>
      </trkpt>
      <trkpt lat="47.48594" lon="6.77547">
        <ele>326</ele>
        <time>2016-01-17T08:50:17.000Z</time>
      </trkpt>
      <trkpt lat="47.48597" lon="6.77553">
        <ele>325</ele>
        <time>2016-01-17T08:50:18.000Z</time>
      </trkpt>
      <trkpt lat="47.48601" lon="6.77559">
        <ele>325</ele>
        <time>2016-01-17T08:50:19.000Z</time>
      </trkpt>
      <trkpt lat="47.48603" lon="6.77566">
        <ele>324</ele>
        <time>2016-01-17T08:50:20.000Z</time>
      </trkpt>
      <trkpt lat="47.48606" lon="6.77572">
        <ele>324</ele>
        <time>2016-01-17T08:50:21.000Z</time>
      </trkpt>
      <trkpt lat="47.48608" lon="6.77577">
        <ele>324</ele>
        <time>2016-01-17T08:50:22.000Z</time>
      </trkpt>
      <trkpt lat="47.48611" lon="6.77583">
        <ele>324</ele>
        <time>2016-01-17T08:50:23.000Z</time>
      </trkpt>
      <trkpt lat="47.48613" lon="6.77588">
        <ele>319</ele>
        <time>2016-01-17T08:50:24.000Z</time>
      </trkpt>
      <trkpt lat="47.48613" lon="6.77594">
        <ele>319</ele>
        <time>2016-01-17T08:50:25.000Z</time>
      </trkpt>
      <trkpt lat="47.48615" lon="6.77599">
        <ele>319</ele>
        <time>2016-01-17T08:50:26.000Z</time>
      </trkpt>
      <trkpt lat="47.48614" lon="6.77604">
        <ele>319</ele>
        <time>2016-01-17T08:50:27.000Z</time>
      </trkpt>
      <trkpt lat="47.48612" lon="6.77609">
        <ele>319</ele>
        <time>2016-01-17T08:50:28.000Z</time>
      </trkpt>
      <trkpt lat="47.48611" lon="6.77614">
        <ele>319</ele>
        <time>2016-01-17T08:50:29.000Z</time>
      </trkpt>
      <trkpt lat="47.4861" lon="6.77618">
        <ele>319</ele>
        <time>2016-01-17T08:50:30.000Z</time>
      </trkpt>
      <trkpt lat="47.48609" lon="6.77624">
        <ele>318</ele>
        <time>2016-01-17T08:50:31.000Z</time>
      </trkpt>
      <trkpt lat="47.48608" lon="6.77629">
        <ele>318</ele>
        <time>2016-01-17T08:50:32.000Z</time>
      </trkpt>
      <trkpt lat="47.48607" lon="6.77634">
        <ele>318</ele>
        <time>2016-01-17T08:50:33.000Z</time>
      </trkpt>
      <trkpt lat="47.48606" lon="6.77639">
        <ele>318</ele>
        <time>2016-01-17T08:50:34.000Z</time>
      </trkpt>
      <trkpt lat="47.48605" lon="6.77645">
        <ele>317</ele>
        <time>2016-01-17T08:50:35.000Z</time>
      </trkpt>
      <trkpt lat="47.48604" lon="6.77652">
        <ele>317</ele>
        <time>2016-01-17T08:50:36.000Z</time>
      </trkpt>
      <trkpt lat="47.48603" lon="6.77658">
        <ele>316</ele>
        <time>2016-01-17T08:50:37.000Z</time>
      </trkpt>
      <trkpt lat="47.48602" lon="6.77665">
        <ele>316</ele>
        <time>2016-01-17T08:50:38.000Z</time>
      </trkpt>
      <trkpt lat="47.486" lon="6.77671">
        <ele>314</ele>
        <time>2016-01-17T08:50:39.000Z</time>
      </trkpt>
      <trkpt lat="47.48599" lon="6.77678">
        <ele>314</ele>
        <time>2016-01-17T08:50:40.000Z</time>
      </trkpt>
      <trkpt lat="47.48597" lon="6.77684">
        <ele>314</ele>
        <time>2016-01-17T08:50:41.000Z</time>
      </trkpt>
      <trkpt lat="47.48595" lon="6.77691">
        <ele>314</ele>
        <time>2016-01-17T08:50:42.000Z</time>
      </trkpt>
      <trkpt lat="47.48594" lon="6.77697">
        <ele>314</ele>
        <time>2016-01-17T08:50:43.000Z</time>
      </trkpt>
      <trkpt lat="47.48592" lon="6.77703">
        <ele>314</ele>
        <time>2016-01-17T08:50:44.000Z</time>
      </trkpt>
      <trkpt lat="47.48591" lon="6.77709">
        <ele>313</ele>
        <time>2016-01-17T08:50:45.000Z</time>
      </trkpt>
      <trkpt lat="47.48588" lon="6.77717">
        <ele>313</ele>
        <time>2016-01-17T08:50:46.000Z</time>
      </trkpt>
      <trkpt lat="47.48587" lon="6.77725">
        <ele>313</ele>
        <time>2016-01-17T08:50:47.000Z</time>
      </trkpt>
      <trkpt lat="47.48586" lon="6.77732">
        <ele>313</ele>
        <time>2016-01-17T08:50:48.000Z</time>
      </trkpt>
      <trkpt lat="47.48586" lon="6.77738">
        <ele>313</ele>
        <time>2016-01-17T08:50:49.000Z</time>
      </trkpt>
      <trkpt lat="47.48585" lon="6.77745">
        <ele>313</ele>
        <time>2016-01-17T08:50:50.000Z</time>
      </trkpt>
      <trkpt lat="47.48584" lon="6.77752">
        <ele>313</ele>
        <time>2016-01-17T08:50:51.000Z</time>
      </trkpt>
      <trkpt lat="47.48583" lon="6.77758">
        <ele>313</ele>
        <time>2016-01-17T08:50:52.000Z</time>
      </trkpt>
      <trkpt lat="47.48582" lon="6.77763">
        <ele>313</ele>
        <time>2016-01-17T08:50:53.000Z</time>
      </trkpt>
      <trkpt lat="47.48581" lon="6.77771">
        <ele>313</ele>
        <time>2016-01-17T08:50:54.000Z</time>
      </trkpt>
      <trkpt lat="47.48581" lon="6.77777">
        <ele>312</ele>
        <time>2016-01-17T08:50:55.000Z</time>
      </trkpt>
      <trkpt lat="47.48581" lon="6.77785">
        <ele>312</ele>
        <time>2016-01-17T08:50:56.000Z</time>
      </trkpt>
      <trkpt lat="47.48581" lon="6.77791">
        <ele>312</ele>
        <time>2016-01-17T08:50:57.000Z</time>
      </trkpt>
      <trkpt lat="47.4858" lon="6.77799">
        <ele>312</ele>
        <time>2016-01-17T08:50:58.000Z</time>
      </trkpt>
      <trkpt lat="47.48578" lon="6.77805">
        <ele>312</ele>
        <time>2016-01-17T08:50:59.000Z</time>
      </trkpt>
      <trkpt lat="47.48577" lon="6.77811">
        <ele>312</ele>
        <time>2016-01-17T08:51:00.000Z</time>
      </trkpt>
      <trkpt lat="47.48576" lon="6.77815">
        <ele>312</ele>
        <time>2016-01-17T08:51:01.000Z</time>
      </trkpt>
      <trkpt lat="47.48574" lon="6.77821">
        <ele>312</ele>
        <time>2016-01-17T08:51:02.000Z</time>
      </trkpt>
      <trkpt lat="47.48572" lon="6.77827">
        <ele>312</ele>
        <time>2016-01-17T08:51:03.000Z</time>
      </trkpt>
      <trkpt lat="47.48571" lon="6.77833">
        <ele>312</ele>
        <time>2016-01-17T08:51:04.000Z</time>
      </trkpt>
      <trkpt lat="47.48571" lon="6.7784">
        <ele>312</ele>
        <time>2016-01-17T08:51:05.000Z</time>
      </trkpt>
      <trkpt lat="47.48569" lon="6.77846">
        <ele>312</ele>
        <time>2016-01-17T08:51:06.000Z</time>
      </trkpt>
      <trkpt lat="47.48568" lon="6.77853">
        <ele>312</ele>
        <time>2016-01-17T08:51:07.000Z</time>
      </trkpt>
      <trkpt lat="47.48568" lon="6.7786">
        <ele>312</ele>
        <time>2016-01-17T08:51:08.000Z</time>
      </trkpt>
      <trkpt lat="47.48567" lon="6.77866">
        <ele>312</ele>
        <time>2016-01-17T08:51:09.000Z</time>
      </trkpt>
      <trkpt lat="47.48566" lon="6.77872">
        <ele>312</ele>
        <time>2016-01-17T08:51:09.998Z</time>
      </trkpt>
      <trkpt lat="47.48564" lon="6.77881">
        <ele>312</ele>
        <time>2016-01-17T08:51:11.000Z</time>
      </trkpt>
      <trkpt lat="47.48563" lon="6.77888">
        <ele>312</ele>
        <time>2016-01-17T08:51:12.000Z</time>
      </trkpt>
      <trkpt lat="47.48562" lon="6.77894">
        <ele>312</ele>
        <time>2016-01-17T08:51:13.000Z</time>
      </trkpt>
      <trkpt lat="47.4856" lon="6.77901">
        <ele>312</ele>
        <time>2016-01-17T08:51:14.000Z</time>
      </trkpt>
      <trkpt lat="47.48558" lon="6.77907">
        <ele>312</ele>
        <time>2016-01-17T08:51:15.000Z</time>
      </trkpt>
      <trkpt lat="47.48557" lon="6.77915">
        <ele>312</ele>
        <time>2016-01-17T08:51:16.000Z</time>
      </trkpt>
      <trkpt lat="47.48555" lon="6.77922">
        <ele>313</ele>
        <time>2016-01-17T08:51:17.000Z</time>
      </trkpt>
      <trkpt lat="47.48554" lon="6.77928">
        <ele>313</ele>
        <time>2016-01-17T08:51:18.000Z</time>
      </trkpt>
      <trkpt lat="47.48553" lon="6.77935">
        <ele>313</ele>
        <time>2016-01-17T08:51:19.000Z</time>
      </trkpt>
      <trkpt lat="47.48552" lon="6.77942">
        <ele>313</ele>
        <time>2016-01-17T08:51:20.000Z</time>
      </trkpt>
      <trkpt lat="47.48552" lon="6.77949">
        <ele>313</ele>
        <time>2016-01-17T08:51:21.000Z</time>
      </trkpt>
      <trkpt lat="47.48551" lon="6.77955">
        <ele>313</ele>
        <time>2016-01-17T08:51:22.000Z</time>
      </trkpt>
      <trkpt lat="47.48548" lon="6.7796">
        <ele>313</ele>
        <time>2016-01-17T08:51:23.000Z</time>
      </trkpt>
      <trkpt lat="47.48545" lon="6.77966">
        <ele>313</ele>
        <time>2016-01-17T08:51:24.000Z</time>
      </trkpt>
      <trkpt lat="47.48541" lon="6.77969">
        <ele>313</ele>
        <time>2016-01-17T08:51:25.000Z</time>
      </trkpt>
      <trkpt lat="47.48537" lon="6.7797">
        <ele>313</ele>
        <time>2016-01-17T08:51:26.000Z</time>
      </trkpt>
      <trkpt lat="47.48531" lon="6.77971">
        <ele>313</ele>
        <time>2016-01-17T08:51:27.000Z</time>
      </trkpt>
      <trkpt lat="47.48526" lon="6.77972">
        <ele>313</ele>
        <time>2016-01-17T08:51:28.000Z</time>
      </trkpt>
      <trkpt lat="47.48521" lon="6.77974">
        <ele>313</ele>
        <time>2016-01-17T08:51:29.000Z</time>
      </trkpt>
      <trkpt lat="47.48518" lon="6.77976">
        <ele>313</ele>
        <time>2016-01-17T08:51:30.000Z</time>
      </trkpt>
      <trkpt lat="47.48513" lon="6.77979">
        <ele>313</ele>
        <time>2016-01-17T08:51:31.000Z</time>
      </trkpt>
      <trkpt lat="47.48509" lon="6.77982">
        <ele>313</ele>
        <time>2016-01-17T08:51:32.000Z</time>
      </trkpt>
      <trkpt lat="47.48506" lon="6.77987">
        <ele>314</ele>
        <time>2016-01-17T08:51:33.000Z</time>
      </trkpt>
      <trkpt lat="47.48502" lon="6.77992">
        <ele>314</ele>
        <time>2016-01-17T08:51:34.000Z</time>
      </trkpt>
      <trkpt lat="47.48499" lon="6.77997">
        <ele>314</ele>
        <time>2016-01-17T08:51:35.000Z</time>
      </trkpt>
      <trkpt lat="47.48498" lon="6.78002">
        <ele>314</ele>
        <time>2016-01-17T08:51:36.000Z</time>
      </trkpt>
      <trkpt lat="47.48496" lon="6.78008">
        <ele>314</ele>
        <time>2016-01-17T08:51:36.999Z</time>
      </trkpt>
      <trkpt lat="47.48495" lon="6.78013">
        <ele>314</ele>
        <time>2016-01-17T08:51:38.001Z</time>
      </trkpt>
      <trkpt lat="47.48492" lon="6.78021">
        <ele>314</ele>
        <time>2016-01-17T08:51:39.000Z</time>
      </trkpt>
      <trkpt lat="47.48491" lon="6.78029">
        <ele>313</ele>
        <time>2016-01-17T08:51:40.000Z</time>
      </trkpt>
      <trkpt lat="47.4849" lon="6.78037">
        <ele>313</ele>
        <time>2016-01-17T08:51:41.000Z</time>
      </trkpt>
      <trkpt lat="47.48488" lon="6.78044">
        <ele>313</ele>
        <time>2016-01-17T08:51:42.000Z</time>
      </trkpt>
      <trkpt lat="47.48487" lon="6.7805">
        <ele>313</ele>
        <time>2016-01-17T08:51:43.000Z</time>
      </trkpt>
      <trkpt lat="47.48486" lon="6.78057">
        <ele>313</ele>
        <time>2016-01-17T08:51:44.000Z</time>
      </trkpt>
      <trkpt lat="47.48484" lon="6.78064">
        <ele>313</ele>
        <time>2016-01-17T08:51:45.000Z</time>
      </trkpt>
      <trkpt lat="47.48482" lon="6.7807">
        <ele>313</ele>
        <time>2016-01-17T08:51:46.000Z</time>
      </trkpt>
      <trkpt lat="47.4848" lon="6.78076">
        <ele>313</ele>
        <time>2016-01-17T08:51:47.000Z</time>
      </trkpt>
      <trkpt lat="47.4848" lon="6.78083">
        <ele>313</ele>
        <time>2016-01-17T08:51:48.000Z</time>
      </trkpt>
      <trkpt lat="47.48478" lon="6.7809">
        <ele>313</ele>
        <time>2016-01-17T08:51:49.000Z</time>
      </trkpt>
      <trkpt lat="47.48477" lon="6.78096">
        <ele>313</ele>
        <time>2016-01-17T08:51:50.000Z</time>
      </trkpt>
      <trkpt lat="47.48475" lon="6.78103">
        <ele>313</ele>
        <time>2016-01-17T08:51:51.000Z</time>
      </trkpt>
      <trkpt lat="47.48473" lon="6.78111">
        <ele>313</ele>
        <time>2016-01-17T08:51:52.000Z</time>
      </trkpt>
      <trkpt lat="47.48472" lon="6.78117">
        <ele>312</ele>
        <time>2016-01-17T08:51:53.000Z</time>
      </trkpt>
      <trkpt lat="47.48469" lon="6.78124">
        <ele>312</ele>
        <time>2016-01-17T08:51:54.000Z</time>
      </trkpt>
      <trkpt lat="47.48468" lon="6.78131">
        <ele>312</ele>
        <time>2016-01-17T08:51:55.000Z</time>
      </trkpt>
      <trkpt lat="47.48465" lon="6.78138">
        <ele>312</ele>
        <time>2016-01-17T08:51:56.000Z</time>
      </trkpt>
      <trkpt lat="47.48464" lon="6.78146">
        <ele>312</ele>
        <time>2016-01-17T08:51:57.000Z</time>
      </trkpt>
      <trkpt lat="47.48462" lon="6.78152">
        <ele>312</ele>
        <time>2016-01-17T08:51:58.000Z</time>
      </trkpt>
      <trkpt lat="47.48462" lon="6.78159">
        <ele>312</ele>
        <time>2016-01-17T08:51:59.000Z</time>
      </trkpt>
      <trkpt lat="47.48461" lon="6.78166">
        <ele>312</ele>
        <time>2016-01-17T08:52:00.000Z</time>
      </trkpt>
      <trkpt lat="47.48461" lon="6.78174">
        <ele>312</ele>
        <time>2016-01-17T08:52:01.000Z</time>
      </trkpt>
      <trkpt lat="47.48459" lon="6.78181">
        <ele>312</ele>
        <time>2016-01-17T08:52:02.000Z</time>
      </trkpt>
      <trkpt lat="47.48458" lon="6.78187">
        <ele>312</ele>
        <time>2016-01-17T08:52:03.000Z</time>
      </trkpt>
      <trkpt lat="47.48459" lon="6.78194">
        <ele>312</ele>
        <time>2016-01-17T08:52:04.000Z</time>
      </trkpt>
      <trkpt lat="47.48459" lon="6.78201">
        <ele>312</ele>
        <time>2016-01-17T08:52:05.000Z</time>
      </trkpt>
      <trkpt lat="47.4846" lon="6.78208">
        <ele>312</ele>
        <time>2016-01-17T08:52:06.000Z</time>
      </trkpt>
      <trkpt lat="47.4846" lon="6.78215">
        <ele>312</ele>
        <time>2016-01-17T08:52:07.000Z</time>
      </trkpt>
      <trkpt lat="47.48461" lon="6.78222">
        <ele>312</ele>
        <time>2016-01-17T08:52:08.000Z</time>
      </trkpt>
      <trkpt lat="47.48462" lon="6.78229">
        <ele>312</ele>
        <time>2016-01-17T08:52:09.000Z</time>
      </trkpt>
      <trkpt lat="47.48464" lon="6.78236">
        <ele>312</ele>
        <time>2016-01-17T08:52:10.000Z</time>
      </trkpt>
      <trkpt lat="47.48465" lon="6.78243">
        <ele>312</ele>
        <time>2016-01-17T08:52:11.000Z</time>
      </trkpt>
      <trkpt lat="47.48466" lon="6.78251">
        <ele>312</ele>
        <time>2016-01-17T08:52:12.000Z</time>
      </trkpt>
      <trkpt lat="47.48467" lon="6.78259">
        <ele>312</ele>
        <time>2016-01-17T08:52:13.000Z</time>
      </trkpt>
      <trkpt lat="47.48468" lon="6.78266">
        <ele>312</ele>
        <time>2016-01-17T08:52:14.000Z</time>
      </trkpt>
      <trkpt lat="47.48469" lon="6.78273">
        <ele>312</ele>
        <time>2016-01-17T08:52:15.000Z</time>
      </trkpt>
      <trkpt lat="47.48469" lon="6.78281">
        <ele>312</ele>
        <time>2016-01-17T08:52:16.000Z</time>
      </trkpt>
      <trkpt lat="47.48469" lon="6.78289">
        <ele>312</ele>
        <time>2016-01-17T08:52:17.000Z</time>
      </trkpt>
      <trkpt lat="47.48469" lon="6.78297">
        <ele>312</ele>
        <time>2016-01-17T08:52:18.000Z</time>
      </trkpt>
      <trkpt lat="47.4847" lon="6.78304">
        <ele>312</ele>
        <time>2016-01-17T08:52:19.000Z</time>
      </trkpt>
      <trkpt lat="47.4847" lon="6.78311">
        <ele>312</ele>
        <time>2016-01-17T08:52:20.000Z</time>
      </trkpt>
      <trkpt lat="47.4847" lon="6.78319">
        <ele>312</ele>
        <time>2016-01-17T08:52:21.000Z</time>
      </trkpt>
      <trkpt lat="47.48471" lon="6.78326">
        <ele>312</ele>
        <time>2016-01-17T08:52:22.000Z</time>
      </trkpt>
      <trkpt lat="47.48472" lon="6.78334">
        <ele>313</ele>
        <time>2016-01-17T08:52:23.000Z</time>
      </trkpt>
      <trkpt lat="47.48474" lon="6.78341">
        <ele>313</ele>
        <time>2016-01-17T08:52:24.000Z</time>
      </trkpt>
      <trkpt lat="47.48475" lon="6.78349">
        <ele>313</ele>
        <time>2016-01-17T08:52:25.000Z</time>
      </trkpt>
      <trkpt lat="47.48476" lon="6.78355">
        <ele>313</ele>
        <time>2016-01-17T08:52:26.000Z</time>
      </trkpt>
      <trkpt lat="47.48477" lon="6.78361">
        <ele>313</ele>
        <time>2016-01-17T08:52:27.000Z</time>
      </trkpt>
      <trkpt lat="47.48478" lon="6.78369">
        <ele>313</ele>
        <time>2016-01-17T08:52:28.000Z</time>
      </trkpt>
      <trkpt lat="47.48478" lon="6.78376">
        <ele>313</ele>
        <time>2016-01-17T08:52:29.000Z</time>
      </trkpt>
      <trkpt lat="47.48478" lon="6.78383">
        <ele>313</ele>
        <time>2016-01-17T08:52:30.000Z</time>
      </trkpt>
      <trkpt lat="47.4848" lon="6.78391">
        <ele>313</ele>
        <time>2016-01-17T08:52:31.000Z</time>
      </trkpt>
      <trkpt lat="47.48482" lon="6.78398">
        <ele>313</ele>
        <time>2016-01-17T08:52:32.000Z</time>
      </trkpt>
      <trkpt lat="47.48482" lon="6.78406">
        <ele>313</ele>
        <time>2016-01-17T08:52:33.000Z</time>
      </trkpt>
      <trkpt lat="47.48483" lon="6.78415">
        <ele>313</ele>
        <time>2016-01-17T08:52:34.000Z</time>
      </trkpt>
      <trkpt lat="47.48483" lon="6.78422">
        <ele>313</ele>
        <time>2016-01-17T08:52:35.000Z</time>
      </trkpt>
      <trkpt lat="47.48484" lon="6.78429">
        <ele>313</ele>
        <time>2016-01-17T08:52:36.000Z</time>
      </trkpt>
      <trkpt lat="47.48485" lon="6.78436">
        <ele>313</ele>
        <time>2016-01-17T08:52:37.000Z</time>
      </trkpt>
      <trkpt lat="47.48487" lon="6.78443">
        <ele>313</ele>
        <time>2016-01-17T08:52:38.000Z</time>
      </trkpt>
      <trkpt lat="47.48488" lon="6.7845">
        <ele>313</ele>
        <time>2016-01-17T08:52:39.000Z</time>
      </trkpt>
      <trkpt lat="47.4849" lon="6.78457">
        <ele>313</ele>
        <time>2016-01-17T08:52:40.000Z</time>
      </trkpt>
      <trkpt lat="47.48491" lon="6.78464">
        <ele>312</ele>
        <time>2016-01-17T08:52:41.000Z</time>
      </trkpt>
      <trkpt lat="47.48492" lon="6.78471">
        <ele>312</ele>
        <time>2016-01-17T08:52:42.000Z</time>
      </trkpt>
      <trkpt lat="47.48494" lon="6.78478">
        <ele>312</ele>
        <time>2016-01-17T08:52:43.000Z</time>
      </trkpt>
      <trkpt lat="47.48494" lon="6.78484">
        <ele>312</ele>
        <time>2016-01-17T08:52:44.000Z</time>
      </trkpt>
      <trkpt lat="47.48495" lon="6.78491">
        <ele>312</ele>
        <time>2016-01-17T08:52:45.000Z</time>
      </trkpt>
      <trkpt lat="47.48496" lon="6.78498">
        <ele>311</ele>
        <time>2016-01-17T08:52:46.000Z</time>
      </trkpt>
      <trkpt lat="47.48497" lon="6.78506">
        <ele>311</ele>
        <time>2016-01-17T08:52:47.000Z</time>
      </trkpt>
      <trkpt lat="47.48498" lon="6.78513">
        <ele>311</ele>
        <time>2016-01-17T08:52:48.000Z</time>
      </trkpt>
      <trkpt lat="47.48498" lon="6.78518">
        <ele>312</ele>
        <time>2016-01-17T08:52:49.000Z</time>
      </trkpt>
      <trkpt lat="47.48501" lon="6.78524">
        <ele>312</ele>
        <time>2016-01-17T08:52:50.000Z</time>
      </trkpt>
      <trkpt lat="47.48502" lon="6.78532">
        <ele>312</ele>
        <time>2016-01-17T08:52:51.000Z</time>
      </trkpt>
      <trkpt lat="47.48504" lon="6.78539">
        <ele>312</ele>
        <time>2016-01-17T08:52:52.000Z</time>
      </trkpt>
      <trkpt lat="47.48505" lon="6.78546">
        <ele>312</ele>
        <time>2016-01-17T08:52:53.000Z</time>
      </trkpt>
      <trkpt lat="47.48507" lon="6.78553">
        <ele>312</ele>
        <time>2016-01-17T08:52:54.000Z</time>
      </trkpt>
      <trkpt lat="47.48508" lon="6.7856">
        <ele>312</ele>
        <time>2016-01-17T08:52:55.000Z</time>
      </trkpt>
      <trkpt lat="47.48508" lon="6.78568">
        <ele>312</ele>
        <time>2016-01-17T08:52:56.000Z</time>
      </trkpt>
      <trkpt lat="47.48508" lon="6.78574">
        <ele>311</ele>
        <time>2016-01-17T08:52:57.000Z</time>
      </trkpt>
      <trkpt lat="47.48507" lon="6.7858">
        <ele>311</ele>
        <time>2016-01-17T08:52:58.000Z</time>
      </trkpt>
      <trkpt lat="47.48505" lon="6.78585">
        <ele>311</ele>
        <time>2016-01-17T08:52:59.000Z</time>
      </trkpt>
      <trkpt lat="47.48504" lon="6.78591">
        <ele>312</ele>
        <time>2016-01-17T08:53:00.000Z</time>
      </trkpt>
      <trkpt lat="47.48503" lon="6.78596">
        <ele>312</ele>
        <time>2016-01-17T08:53:01.000Z</time>
      </trkpt>
      <trkpt lat="47.48503" lon="6.78601">
        <ele>312</ele>
        <time>2016-01-17T08:53:02.000Z</time>
      </trkpt>
      <trkpt lat="47.48502" lon="6.78605">
        <ele>312</ele>
        <time>2016-01-17T08:53:03.000Z</time>
      </trkpt>
      <trkpt lat="47.48501" lon="6.7861">
        <ele>312</ele>
        <time>2016-01-17T08:53:04.000Z</time>
      </trkpt>
      <trkpt lat="47.48501" lon="6.78615">
        <ele>312</ele>
        <time>2016-01-17T08:53:05.000Z</time>
      </trkpt>
      <trkpt lat="47.48501" lon="6.78619">
        <ele>313</ele>
        <time>2016-01-17T08:53:06.000Z</time>
      </trkpt>
      <trkpt lat="47.485" lon="6.78624">
        <ele>313</ele>
        <time>2016-01-17T08:53:07.000Z</time>
      </trkpt>
      <trkpt lat="47.48499" lon="6.78629">
        <ele>313</ele>
        <time>2016-01-17T08:53:08.000Z</time>
      </trkpt>
      <trkpt lat="47.48498" lon="6.78634">
        <ele>313</ele>
        <time>2016-01-17T08:53:09.000Z</time>
      </trkpt>
      <trkpt lat="47.48497" lon="6.78639">
        <ele>313</ele>
        <time>2016-01-17T08:53:10.000Z</time>
      </trkpt>
      <trkpt lat="47.48496" lon="6.78644">
        <ele>313</ele>
        <time>2016-01-17T08:53:11.000Z</time>
      </trkpt>
      <trkpt lat="47.48495" lon="6.78648">
        <ele>313</ele>
        <time>2016-01-17T08:53:12.000Z</time>
      </trkpt>
      <trkpt lat="47.48494" lon="6.78653">
        <ele>313</ele>
        <time>2016-01-17T08:53:13.000Z</time>
      </trkpt>
      <trkpt lat="47.48493" lon="6.78657">
        <ele>313</ele>
        <time>2016-01-17T08:53:14.000Z</time>
      </trkpt>
      <trkpt lat="47.48492" lon="6.78662">
        <ele>313</ele>
        <time>2016-01-17T08:53:15.000Z</time>
      </trkpt>
      <trkpt lat="47.48491" lon="6.78668">
        <ele>313</ele>
        <time>2016-01-17T08:53:16.000Z</time>
      </trkpt>
      <trkpt lat="47.4849" lon="6.78673">
        <ele>313</ele>
        <time>2016-01-17T08:53:17.000Z</time>
      </trkpt>
      <trkpt lat="47.48489" lon="6.78679">
        <ele>313</ele>
        <time>2016-01-17T08:53:18.000Z</time>
      </trkpt>
      <trkpt lat="47.48488" lon="6.78685">
        <ele>313</ele>
        <time>2016-01-17T08:53:19.000Z</time>
      </trkpt>
      <trkpt lat="47.48486" lon="6.78691">
        <ele>313</ele>
        <time>2016-01-17T08:53:20.000Z</time>
      </trkpt>
      <trkpt lat="47.48485" lon="6.78697">
        <ele>313</ele>
        <time>2016-01-17T08:53:21.000Z</time>
      </trkpt>
      <trkpt lat="47.48484" lon="6.78702">
        <ele>313</ele>
        <time>2016-01-17T08:53:22.000Z</time>
      </trkpt>
      <trkpt lat="47.48483" lon="6.78709">
        <ele>313</ele>
        <time>2016-01-17T08:53:23.000Z</time>
      </trkpt>
      <trkpt lat="47.48483" lon="6.78715">
        <ele>313</ele>
        <time>2016-01-17T08:53:24.000Z</time>
      </trkpt>
      <trkpt lat="47.48482" lon="6.78722">
        <ele>313</ele>
        <time>2016-01-17T08:53:25.000Z</time>
      </trkpt>
      <trkpt lat="47.48481" lon="6.78728">
        <ele>313</ele>
        <time>2016-01-17T08:53:26.000Z</time>
      </trkpt>
      <trkpt lat="47.48481" lon="6.78735">
        <ele>313</ele>
        <time>2016-01-17T08:53:27.000Z</time>
      </trkpt>
      <trkpt lat="47.4848" lon="6.78743">
        <ele>313</ele>
        <time>2016-01-17T08:53:28.000Z</time>
      </trkpt>
      <trkpt lat="47.48478" lon="6.7875">
        <ele>313</ele>
        <time>2016-01-17T08:53:29.000Z</time>
      </trkpt>
      <trkpt lat="47.48476" lon="6.78756">
        <ele>312</ele>
        <time>2016-01-17T08:53:30.000Z</time>
      </trkpt>
      <trkpt lat="47.48475" lon="6.78762">
        <ele>312</ele>
        <time>2016-01-17T08:53:31.000Z</time>
      </trkpt>
      <trkpt lat="47.48474" lon="6.78768">
        <ele>312</ele>
        <time>2016-01-17T08:53:32.000Z</time>
      </trkpt>
      <trkpt lat="47.48472" lon="6.78776">
        <ele>312</ele>
        <time>2016-01-17T08:53:33.000Z</time>
      </trkpt>
      <trkpt lat="47.48471" lon="6.78782">
        <ele>312</ele>
        <time>2016-01-17T08:53:34.000Z</time>
      </trkpt>
      <trkpt lat="47.4847" lon="6.78788">
        <ele>312</ele>
        <time>2016-01-17T08:53:35.000Z</time>
      </trkpt>
      <trkpt lat="47.48469" lon="6.78794">
        <ele>312</ele>
        <time>2016-01-17T08:53:36.000Z</time>
      </trkpt>
      <trkpt lat="47.48468" lon="6.788">
        <ele>312</ele>
        <time>2016-01-17T08:53:37.000Z</time>
      </trkpt>
      <trkpt lat="47.48468" lon="6.78806">
        <ele>312</ele>
        <time>2016-01-17T08:53:38.000Z</time>
      </trkpt>
      <trkpt lat="47.48467" lon="6.78812">
        <ele>312</ele>
        <time>2016-01-17T08:53:39.000Z</time>
      </trkpt>
      <trkpt lat="47.48465" lon="6.78817">
        <ele>312</ele>
        <time>2016-01-17T08:53:40.000Z</time>
      </trkpt>
      <trkpt lat="47.48464" lon="6.78823">
        <ele>312</ele>
        <time>2016-01-17T08:53:41.000Z</time>
      </trkpt>
      <trkpt lat="47.48463" lon="6.7883">
        <ele>312</ele>
        <time>2016-01-17T08:53:42.000Z</time>
      </trkpt>
      <trkpt lat="47.48462" lon="6.78836">
        <ele>311</ele>
        <time>2016-01-17T08:53:43.000Z</time>
      </trkpt>
      <trkpt lat="47.48462" lon="6.78842">
        <ele>311</ele>
        <time>2016-01-17T08:53:44.000Z</time>
      </trkpt>
      <trkpt lat="47.48461" lon="6.78848">
        <ele>311</ele>
        <time>2016-01-17T08:53:45.000Z</time>
      </trkpt>
      <trkpt lat="47.48461" lon="6.78854">
        <ele>311</ele>
        <time>2016-01-17T08:53:46.000Z</time>
      </trkpt>
      <trkpt lat="47.4846" lon="6.7886">
        <ele>311</ele>
        <time>2016-01-17T08:53:47.000Z</time>
      </trkpt>
      <trkpt lat="47.48459" lon="6.78867">
        <ele>311</ele>
        <time>2016-01-17T08:53:48.000Z</time>
      </trkpt>
      <trkpt lat="47.48457" lon="6.78873">
        <ele>311</ele>
        <time>2016-01-17T08:53:49.000Z</time>
      </trkpt>
      <trkpt lat="47.48455" lon="6.7888">
        <ele>311</ele>
        <time>2016-01-17T08:53:50.000Z</time>
      </trkpt>
      <trkpt lat="47.48455" lon="6.78886">
        <ele>311</ele>
        <time>2016-01-17T08:53:51.000Z</time>
      </trkpt>
      <trkpt lat="47.48454" lon="6.78893">
        <ele>311</ele>
        <time>2016-01-17T08:53:52.000Z</time>
      </trkpt>
      <trkpt lat="47.48452" lon="6.78899">
        <ele>311</ele>
        <time>2016-01-17T08:53:53.000Z</time>
      </trkpt>
      <trkpt lat="47.48451" lon="6.78906">
        <ele>311</ele>
        <time>2016-01-17T08:53:54.000Z</time>
      </trkpt>
      <trkpt lat="47.4845" lon="6.78913">
        <ele>311</ele>
        <time>2016-01-17T08:53:55.000Z</time>
      </trkpt>
      <trkpt lat="47.48449" lon="6.7892">
        <ele>311</ele>
        <time>2016-01-17T08:53:56.000Z</time>
      </trkpt>
      <trkpt lat="47.48448" lon="6.78927">
        <ele>311</ele>
        <time>2016-01-17T08:53:57.000Z</time>
      </trkpt>
      <trkpt lat="47.48448" lon="6.78934">
        <ele>311</ele>
        <time>2016-01-17T08:53:58.000Z</time>
      </trkpt>
      <trkpt lat="47.48447" lon="6.78941">
        <ele>311</ele>
        <time>2016-01-17T08:53:59.000Z</time>
      </trkpt>
      <trkpt lat="47.48445" lon="6.78948">
        <ele>311</ele>
        <time>2016-01-17T08:54:00.000Z</time>
      </trkpt>
      <trkpt lat="47.48444" lon="6.78954">
        <ele>311</ele>
        <time>2016-01-17T08:54:01.000Z</time>
      </trkpt>
      <trkpt lat="47.48442" lon="6.78961">
        <ele>311</ele>
        <time>2016-01-17T08:54:02.000Z</time>
      </trkpt>
      <trkpt lat="47.4844" lon="6.78967">
        <ele>311</ele>
        <time>2016-01-17T08:54:03.000Z</time>
      </trkpt>
      <trkpt lat="47.4844" lon="6.78974">
        <ele>311</ele>
        <time>2016-01-17T08:54:04.000Z</time>
      </trkpt>
      <trkpt lat="47.48439" lon="6.7898">
        <ele>311</ele>
        <time>2016-01-17T08:54:05.000Z</time>
      </trkpt>
      <trkpt lat="47.48438" lon="6.78987">
        <ele>312</ele>
        <time>2016-01-17T08:54:06.000Z</time>
      </trkpt>
      <trkpt lat="47.48437" lon="6.78993">
        <ele>312</ele>
        <time>2016-01-17T08:54:07.000Z</time>
      </trkpt>
      <trkpt lat="47.48436" lon="6.78999">
        <ele>312</ele>
        <time>2016-01-17T08:54:08.000Z</time>
      </trkpt>
      <trkpt lat="47.48435" lon="6.79006">
        <ele>312</ele>
        <time>2016-01-17T08:54:09.000Z</time>
      </trkpt>
      <trkpt lat="47.48433" lon="6.79012">
        <ele>312</ele>
        <time>2016-01-17T08:54:10.000Z</time>
      </trkpt>
      <trkpt lat="47.48433" lon="6.79018">
        <ele>312</ele>
        <time>2016-01-17T08:54:11.000Z</time>
      </trkpt>
      <trkpt lat="47.48431" lon="6.79025">
        <ele>312</ele>
        <time>2016-01-17T08:54:12.000Z</time>
      </trkpt>
      <trkpt lat="47.4843" lon="6.79031">
        <ele>312</ele>
        <time>2016-01-17T08:54:13.000Z</time>
      </trkpt>
      <trkpt lat="47.4843" lon="6.79037">
        <ele>312</ele>
        <time>2016-01-17T08:54:14.000Z</time>
      </trkpt>
      <trkpt lat="47.48429" lon="6.79043">
        <ele>312</ele>
        <time>2016-01-17T08:54:15.000Z</time>
      </trkpt>
      <trkpt lat="47.48429" lon="6.7905">
        <ele>312</ele>
        <time>2016-01-17T08:54:16.000Z</time>
      </trkpt>
      <trkpt lat="47.48428" lon="6.79056">
        <ele>312</ele>
        <time>2016-01-17T08:54:17.000Z</time>
      </trkpt>
      <trkpt lat="47.48427" lon="6.79062">
        <ele>312</ele>
        <time>2016-01-17T08:54:18.000Z</time>
      </trkpt>
      <trkpt lat="47.48426" lon="6.79068">
        <ele>312</ele>
        <time>2016-01-17T08:54:19.000Z</time>
      </trkpt>
      <trkpt lat="47.48424" lon="6.79074">
        <ele>313</ele>
        <time>2016-01-17T08:54:20.000Z</time>
      </trkpt>
      <trkpt lat="47.48423" lon="6.7908">
        <ele>313</ele>
        <time>2016-01-17T08:54:21.000Z</time>
      </trkpt>
      <trkpt lat="47.48422" lon="6.79087">
        <ele>313</ele>
        <time>2016-01-17T08:54:22.000Z</time>
      </trkpt>
      <trkpt lat="47.48422" lon="6.79093">
        <ele>313</ele>
        <time>2016-01-17T08:54:23.000Z</time>
      </trkpt>
      <trkpt lat="47.48422" lon="6.79099">
        <ele>313</ele>
        <time>2016-01-17T08:54:24.000Z</time>
      </trkpt>
      <trkpt lat="47.48422" lon="6.79105">
        <ele>313</ele>
        <time>2016-01-17T08:54:25.000Z</time>
      </trkpt>
      <trkpt lat="47.48423" lon="6.79111">
        <ele>313</ele>
        <time>2016-01-17T08:54:26.000Z</time>
      </trkpt>
      <trkpt lat="47.48425" lon="6.79116">
        <ele>313</ele>
        <time>2016-01-17T08:54:27.000Z</time>
      </trkpt>
      <trkpt lat="47.48427" lon="6.79121">
        <ele>313</ele>
        <time>2016-01-17T08:54:28.000Z</time>
      </trkpt>
      <trkpt lat="47.4843" lon="6.79126">
        <ele>313</ele>
        <time>2016-01-17T08:54:29.000Z</time>
      </trkpt>
      <trkpt lat="47.48437" lon="6.79131">
        <ele>313</ele>
        <time>2016-01-17T08:54:30.000Z</time>
      </trkpt>
      <trkpt lat="47.48438" lon="6.79137">
        <ele>313</ele>
        <time>2016-01-17T08:54:31.000Z</time>
      </trkpt>
      <trkpt lat="47.48441" lon="6.79142">
        <ele>313</ele>
        <time>2016-01-17T08:54:32.000Z</time>
      </trkpt>
      <trkpt lat="47.48444" lon="6.79149">
        <ele>313</ele>
        <time>2016-01-17T08:54:33.000Z</time>
      </trkpt>
      <trkpt lat="47.48446" lon="6.79155">
        <ele>313</ele>
        <time>2016-01-17T08:54:34.000Z</time>
      </trkpt>
      <trkpt lat="47.48449" lon="6.79162">
        <ele>313</ele>
        <time>2016-01-17T08:54:35.000Z</time>
      </trkpt>
      <trkpt lat="47.48451" lon="6.79169">
        <ele>313</ele>
        <time>2016-01-17T08:54:36.000Z</time>
      </trkpt>
      <trkpt lat="47.48454" lon="6.79175">
        <ele>313</ele>
        <time>2016-01-17T08:54:37.000Z</time>
      </trkpt>
      <trkpt lat="47.48455" lon="6.79181">
        <ele>313</ele>
        <time>2016-01-17T08:54:38.000Z</time>
      </trkpt>
      <trkpt lat="47.48458" lon="6.79187">
        <ele>313</ele>
        <time>2016-01-17T08:54:39.000Z</time>
      </trkpt>
      <trkpt lat="47.4846" lon="6.79193">
        <ele>313</ele>
        <time>2016-01-17T08:54:40.000Z</time>
      </trkpt>
      <trkpt lat="47.48463" lon="6.79199">
        <ele>313</ele>
        <time>2016-01-17T08:54:41.000Z</time>
      </trkpt>
      <trkpt lat="47.48465" lon="6.79206">
        <ele>313</ele>
        <time>2016-01-17T08:54:42.000Z</time>
      </trkpt>
      <trkpt lat="47.48468" lon="6.79213">
        <ele>313</ele>
        <time>2016-01-17T08:54:43.000Z</time>
      </trkpt>
      <trkpt lat="47.48472" lon="6.79219">
        <ele>312</ele>
        <time>2016-01-17T08:54:44.000Z</time>
      </trkpt>
      <trkpt lat="47.48475" lon="6.79225">
        <ele>312</ele>
        <time>2016-01-17T08:54:45.000Z</time>
      </trkpt>
      <trkpt lat="47.48477" lon="6.79232">
        <ele>312</ele>
        <time>2016-01-17T08:54:46.000Z</time>
      </trkpt>
      <trkpt lat="47.48479" lon="6.79239">
        <ele>312</ele>
        <time>2016-01-17T08:54:47.000Z</time>
      </trkpt>
      <trkpt lat="47.48482" lon="6.79244">
        <ele>312</ele>
        <time>2016-01-17T08:54:48.000Z</time>
      </trkpt>
      <trkpt lat="47.48485" lon="6.7925">
        <ele>312</ele>
        <time>2016-01-17T08:54:49.000Z</time>
      </trkpt>
      <trkpt lat="47.48488" lon="6.79256">
        <ele>312</ele>
        <time>2016-01-17T08:54:50.000Z</time>
      </trkpt>
      <trkpt lat="47.4849" lon="6.79263">
        <ele>312</ele>
        <time>2016-01-17T08:54:51.000Z</time>
      </trkpt>
      <trkpt lat="47.48493" lon="6.79268">
        <ele>312</ele>
        <time>2016-01-17T08:54:52.000Z</time>
      </trkpt>
      <trkpt lat="47.48496" lon="6.79275">
        <ele>312</ele>
        <time>2016-01-17T08:54:53.000Z</time>
      </trkpt>
      <trkpt lat="47.48499" lon="6.7928">
        <ele>312</ele>
        <time>2016-01-17T08:54:54.000Z</time>
      </trkpt>
      <trkpt lat="47.48501" lon="6.79286">
        <ele>311</ele>
        <time>2016-01-17T08:54:55.000Z</time>
      </trkpt>
      <trkpt lat="47.48504" lon="6.79292">
        <ele>311</ele>
        <time>2016-01-17T08:54:56.000Z</time>
      </trkpt>
      <trkpt lat="47.48508" lon="6.79297">
        <ele>311</ele>
        <time>2016-01-17T08:54:57.000Z</time>
      </trkpt>
      <trkpt lat="47.48511" lon="6.79303">
        <ele>311</ele>
        <time>2016-01-17T08:54:58.000Z</time>
      </trkpt>
      <trkpt lat="47.48514" lon="6.79309">
        <ele>311</ele>
        <time>2016-01-17T08:54:59.000Z</time>
      </trkpt>
      <trkpt lat="47.48516" lon="6.79315">
        <ele>311</ele>
        <time>2016-01-17T08:55:00.000Z</time>
      </trkpt>
      <trkpt lat="47.48519" lon="6.79321">
        <ele>311</ele>
        <time>2016-01-17T08:55:01.000Z</time>
      </trkpt>
      <trkpt lat="47.48521" lon="6.79327">
        <ele>311</ele>
        <time>2016-01-17T08:55:02.000Z</time>
      </trkpt>
      <trkpt lat="47.48523" lon="6.79333">
        <ele>311</ele>
        <time>2016-01-17T08:55:03.000Z</time>
      </trkpt>
      <trkpt lat="47.48526" lon="6.79339">
        <ele>311</ele>
        <time>2016-01-17T08:55:04.000Z</time>
      </trkpt>
      <trkpt lat="47.48529" lon="6.79345">
        <ele>311</ele>
        <time>2016-01-17T08:55:05.000Z</time>
      </trkpt>
      <trkpt lat="47.48531" lon="6.79352">
        <ele>311</ele>
        <time>2016-01-17T08:55:06.000Z</time>
      </trkpt>
      <trkpt lat="47.48534" lon="6.79358">
        <ele>311</ele>
        <time>2016-01-17T08:55:07.000Z</time>
      </trkpt>
      <trkpt lat="47.48537" lon="6.79363">
        <ele>311</ele>
        <time>2016-01-17T08:55:08.000Z</time>
      </trkpt>
      <trkpt lat="47.4854" lon="6.7937">
        <ele>311</ele>
        <time>2016-01-17T08:55:09.000Z</time>
      </trkpt>
      <trkpt lat="47.48542" lon="6.79376">
        <ele>311</ele>
        <time>2016-01-17T08:55:10.000Z</time>
      </trkpt>
      <trkpt lat="47.48544" lon="6.79383">
        <ele>311</ele>
        <time>2016-01-17T08:55:11.000Z</time>
      </trkpt>
      <trkpt lat="47.48548" lon="6.79389">
        <ele>311</ele>
        <time>2016-01-17T08:55:12.000Z</time>
      </trkpt>
      <trkpt lat="47.48551" lon="6.79395">
        <ele>311</ele>
        <time>2016-01-17T08:55:13.000Z</time>
      </trkpt>
      <trkpt lat="47.48554" lon="6.79401">
        <ele>311</ele>
        <time>2016-01-17T08:55:14.000Z</time>
      </trkpt>
      <trkpt lat="47.48556" lon="6.79407">
        <ele>311</ele>
        <time>2016-01-17T08:55:15.000Z</time>
      </trkpt>
      <trkpt lat="47.48559" lon="6.79412">
        <ele>311</ele>
        <time>2016-01-17T08:55:16.000Z</time>
      </trkpt>
      <trkpt lat="47.48562" lon="6.79418">
        <ele>311</ele>
        <time>2016-01-17T08:55:16.999Z</time>
      </trkpt>
      <trkpt lat="47.48565" lon="6.79424">
        <ele>311</ele>
        <time>2016-01-17T08:55:18.000Z</time>
      </trkpt>
      <trkpt lat="47.48568" lon="6.79429">
        <ele>311</ele>
        <time>2016-01-17T08:55:19.000Z</time>
      </trkpt>
      <trkpt lat="47.48571" lon="6.79436">
        <ele>311</ele>
        <time>2016-01-17T08:55:20.000Z</time>
      </trkpt>
      <trkpt lat="47.48573" lon="6.79441">
        <ele>311</ele>
        <time>2016-01-17T08:55:21.000Z</time>
      </trkpt>
      <trkpt lat="47.48576" lon="6.79447">
        <ele>311</ele>
        <time>2016-01-17T08:55:22.000Z</time>
      </trkpt>
      <trkpt lat="47.48579" lon="6.79454">
        <ele>311</ele>
        <time>2016-01-17T08:55:23.000Z</time>
      </trkpt>
      <trkpt lat="47.48582" lon="6.7946">
        <ele>311</ele>
        <time>2016-01-17T08:55:24.000Z</time>
      </trkpt>
      <trkpt lat="47.48586" lon="6.79466">
        <ele>312</ele>
        <time>2016-01-17T08:55:25.000Z</time>
      </trkpt>
      <trkpt lat="47.48589" lon="6.79472">
        <ele>312</ele>
        <time>2016-01-17T08:55:26.000Z</time>
      </trkpt>
      <trkpt lat="47.48593" lon="6.79479">
        <ele>312</ele>
        <time>2016-01-17T08:55:27.000Z</time>
      </trkpt>
      <trkpt lat="47.48597" lon="6.79486">
        <ele>312</ele>
        <time>2016-01-17T08:55:28.000Z</time>
      </trkpt>
      <trkpt lat="47.48599" lon="6.79493">
        <ele>312</ele>
        <time>2016-01-17T08:55:29.000Z</time>
      </trkpt>
      <trkpt lat="47.48601" lon="6.795">
        <ele>312</ele>
        <time>2016-01-17T08:55:30.000Z</time>
      </trkpt>
      <trkpt lat="47.48604" lon="6.79505">
        <ele>312</ele>
        <time>2016-01-17T08:55:31.000Z</time>
      </trkpt>
      <trkpt lat="47.48607" lon="6.7951">
        <ele>312</ele>
        <time>2016-01-17T08:55:32.000Z</time>
      </trkpt>
      <trkpt lat="47.48611" lon="6.79516">
        <ele>312</ele>
        <time>2016-01-17T08:55:33.000Z</time>
      </trkpt>
      <trkpt lat="47.48614" lon="6.79521">
        <ele>312</ele>
        <time>2016-01-17T08:55:34.000Z</time>
      </trkpt>
      <trkpt lat="47.48617" lon="6.79526">
        <ele>312</ele>
        <time>2016-01-17T08:55:35.000Z</time>
      </trkpt>
      <trkpt lat="47.4862" lon="6.79532">
        <ele>312</ele>
        <time>2016-01-17T08:55:36.000Z</time>
      </trkpt>
      <trkpt lat="47.48623" lon="6.79538">
        <ele>312</ele>
        <time>2016-01-17T08:55:37.000Z</time>
      </trkpt>
      <trkpt lat="47.48627" lon="6.79544">
        <ele>313</ele>
        <time>2016-01-17T08:55:38.000Z</time>
      </trkpt>
      <trkpt lat="47.48631" lon="6.7955">
        <ele>313</ele>
        <time>2016-01-17T08:55:39.000Z</time>
      </trkpt>
      <trkpt lat="47.48634" lon="6.79557">
        <ele>313</ele>
        <time>2016-01-17T08:55:40.000Z</time>
      </trkpt>
      <trkpt lat="47.48638" lon="6.79563">
        <ele>313</ele>
        <time>2016-01-17T08:55:41.000Z</time>
      </trkpt>
      <trkpt lat="47.48641" lon="6.7957">
        <ele>313</ele>
        <time>2016-01-17T08:55:42.001Z</time>
      </trkpt>
      <trkpt lat="47.48644" lon="6.79577">
        <ele>313</ele>
        <time>2016-01-17T08:55:43.000Z</time>
      </trkpt>
      <trkpt lat="47.48647" lon="6.79584">
        <ele>313</ele>
        <time>2016-01-17T08:55:43.999Z</time>
      </trkpt>
      <trkpt lat="47.48649" lon="6.79591">
        <ele>313</ele>
        <time>2016-01-17T08:55:45.000Z</time>
      </trkpt>
      <trkpt lat="47.48651" lon="6.79598">
        <ele>313</ele>
        <time>2016-01-17T08:55:46.000Z</time>
      </trkpt>
      <trkpt lat="47.48653" lon="6.79605">
        <ele>313</ele>
        <time>2016-01-17T08:55:47.000Z</time>
      </trkpt>
      <trkpt lat="47.48656" lon="6.79612">
        <ele>313</ele>
        <time>2016-01-17T08:55:48.000Z</time>
      </trkpt>
      <trkpt lat="47.48659" lon="6.79619">
        <ele>313</ele>
        <time>2016-01-17T08:55:49.000Z</time>
      </trkpt>
      <trkpt lat="47.48661" lon="6.79626">
        <ele>313</ele>
        <time>2016-01-17T08:55:50.000Z</time>
      </trkpt>
      <trkpt lat="47.48663" lon="6.79633">
        <ele>313</ele>
        <time>2016-01-17T08:55:51.000Z</time>
      </trkpt>
      <trkpt lat="47.48665" lon="6.79641">
        <ele>313</ele>
        <time>2016-01-17T08:55:52.000Z</time>
      </trkpt>
      <trkpt lat="47.48667" lon="6.79648">
        <ele>313</ele>
        <time>2016-01-17T08:55:53.000Z</time>
      </trkpt>
      <trkpt lat="47.48669" lon="6.79654">
        <ele>313</ele>
        <time>2016-01-17T08:55:54.000Z</time>
      </trkpt>
      <trkpt lat="47.48671" lon="6.7966">
        <ele>313</ele>
        <time>2016-01-17T08:55:55.000Z</time>
      </trkpt>
      <trkpt lat="47.48672" lon="6.79668">
        <ele>313</ele>
        <time>2016-01-17T08:55:56.000Z</time>
      </trkpt>
      <trkpt lat="47.48672" lon="6.79677">
        <ele>313</ele>
        <time>2016-01-17T08:55:57.000Z</time>
      </trkpt>
      <trkpt lat="47.48673" lon="6.79684">
        <ele>313</ele>
        <time>2016-01-17T08:55:58.000Z</time>
      </trkpt>
      <trkpt lat="47.48674" lon="6.79692">
        <ele>313</ele>
        <time>2016-01-17T08:55:59.000Z</time>
      </trkpt>
      <trkpt lat="47.48674" lon="6.79699">
        <ele>313</ele>
        <time>2016-01-17T08:56:00.000Z</time>
      </trkpt>
      <trkpt lat="47.48675" lon="6.79707">
        <ele>313</ele>
        <time>2016-01-17T08:56:00.999Z</time>
      </trkpt>
      <trkpt lat="47.48676" lon="6.79714">
        <ele>312</ele>
        <time>2016-01-17T08:56:02.000Z</time>
      </trkpt>
      <trkpt lat="47.48677" lon="6.79722">
        <ele>312</ele>
        <time>2016-01-17T08:56:03.000Z</time>
      </trkpt>
      <trkpt lat="47.48677" lon="6.7973">
        <ele>312</ele>
        <time>2016-01-17T08:56:04.000Z</time>
      </trkpt>
      <trkpt lat="47.48681" lon="6.79737">
        <ele>312</ele>
        <time>2016-01-17T08:56:05.000Z</time>
      </trkpt>
      <trkpt lat="47.48683" lon="6.79745">
        <ele>312</ele>
        <time>2016-01-17T08:56:06.000Z</time>
      </trkpt>
      <trkpt lat="47.48684" lon="6.79753">
        <ele>311</ele>
        <time>2016-01-17T08:56:07.000Z</time>
      </trkpt>
      <trkpt lat="47.48685" lon="6.79759">
        <ele>312</ele>
        <time>2016-01-17T08:56:08.000Z</time>
      </trkpt>
      <trkpt lat="47.48686" lon="6.79766">
        <ele>312</ele>
        <time>2016-01-17T08:56:09.000Z</time>
      </trkpt>
      <trkpt lat="47.48687" lon="6.79774">
        <ele>312</ele>
        <time>2016-01-17T08:56:10.001Z</time>
      </trkpt>
      <trkpt lat="47.48689" lon="6.79781">
        <ele>312</ele>
        <time>2016-01-17T08:56:11.000Z</time>
      </trkpt>
      <trkpt lat="47.4869" lon="6.79789">
        <ele>312</ele>
        <time>2016-01-17T08:56:12.000Z</time>
      </trkpt>
      <trkpt lat="47.48691" lon="6.79796">
        <ele>312</ele>
        <time>2016-01-17T08:56:13.000Z</time>
      </trkpt>
      <trkpt lat="47.48692" lon="6.79803">
        <ele>312</ele>
        <time>2016-01-17T08:56:14.000Z</time>
      </trkpt>
      <trkpt lat="47.48693" lon="6.79811">
        <ele>312</ele>
        <time>2016-01-17T08:56:15.000Z</time>
      </trkpt>
      <trkpt lat="47.48693" lon="6.79819">
        <ele>312</ele>
        <time>2016-01-17T08:56:16.000Z</time>
      </trkpt>
      <trkpt lat="47.48695" lon="6.79827">
        <ele>312</ele>
        <time>2016-01-17T08:56:17.000Z</time>
      </trkpt>
      <trkpt lat="47.48696" lon="6.79836">
        <ele>312</ele>
        <time>2016-01-17T08:56:18.000Z</time>
      </trkpt>
      <trkpt lat="47.48697" lon="6.79843">
        <ele>312</ele>
        <time>2016-01-17T08:56:19.000Z</time>
      </trkpt>
      <trkpt lat="47.48696" lon="6.7985">
        <ele>312</ele>
        <time>2016-01-17T08:56:20.000Z</time>
      </trkpt>
      <trkpt lat="47.48696" lon="6.79858">
        <ele>312</ele>
        <time>2016-01-17T08:56:21.000Z</time>
      </trkpt>
      <trkpt lat="47.48697" lon="6.79865">
        <ele>312</ele>
        <time>2016-01-17T08:56:22.000Z</time>
      </trkpt>
      <trkpt lat="47.48698" lon="6.79872">
        <ele>312</ele>
        <time>2016-01-17T08:56:23.000Z</time>
      </trkpt>
      <trkpt lat="47.487" lon="6.79881">
        <ele>312</ele>
        <time>2016-01-17T08:56:24.000Z</time>
      </trkpt>
      <trkpt lat="47.48699" lon="6.79888">
        <ele>312</ele>
        <time>2016-01-17T08:56:25.000Z</time>
      </trkpt>
      <trkpt lat="47.487" lon="6.79896">
        <ele>313</ele>
        <time>2016-01-17T08:56:26.000Z</time>
      </trkpt>
      <trkpt lat="47.487" lon="6.79903">
        <ele>313</ele>
        <time>2016-01-17T08:56:27.000Z</time>
      </trkpt>
      <trkpt lat="47.487" lon="6.79911">
        <ele>313</ele>
        <time>2016-01-17T08:56:28.000Z</time>
      </trkpt>
      <trkpt lat="47.48701" lon="6.79918">
        <ele>312</ele>
        <time>2016-01-17T08:56:29.000Z</time>
      </trkpt>
      <trkpt lat="47.48702" lon="6.79927">
        <ele>312</ele>
        <time>2016-01-17T08:56:30.000Z</time>
      </trkpt>
      <trkpt lat="47.48703" lon="6.79935">
        <ele>312</ele>
        <time>2016-01-17T08:56:31.000Z</time>
      </trkpt>
      <trkpt lat="47.48704" lon="6.79942">
        <ele>312</ele>
        <time>2016-01-17T08:56:32.000Z</time>
      </trkpt>
      <trkpt lat="47.48705" lon="6.79949">
        <ele>312</ele>
        <time>2016-01-17T08:56:33.000Z</time>
      </trkpt>
      <trkpt lat="47.48706" lon="6.79957">
        <ele>312</ele>
        <time>2016-01-17T08:56:34.000Z</time>
      </trkpt>
      <trkpt lat="47.48706" lon="6.79965">
        <ele>311</ele>
        <time>2016-01-17T08:56:35.000Z</time>
      </trkpt>
      <trkpt lat="47.48706" lon="6.79973">
        <ele>311</ele>
        <time>2016-01-17T08:56:36.000Z</time>
      </trkpt>
      <trkpt lat="47.48705" lon="6.7998">
        <ele>311</ele>
        <time>2016-01-17T08:56:37.000Z</time>
      </trkpt>
      <trkpt lat="47.48704" lon="6.79988">
        <ele>311</ele>
        <time>2016-01-17T08:56:38.000Z</time>
      </trkpt>
      <trkpt lat="47.48705" lon="6.79995">
        <ele>311</ele>
        <time>2016-01-17T08:56:39.000Z</time>
      </trkpt>
      <trkpt lat="47.48706" lon="6.80003">
        <ele>311</ele>
        <time>2016-01-17T08:56:40.000Z</time>
      </trkpt>
      <trkpt lat="47.48706" lon="6.80012">
        <ele>311</ele>
        <time>2016-01-17T08:56:41.000Z</time>
      </trkpt>
      <trkpt lat="47.48706" lon="6.80019">
        <ele>311</ele>
        <time>2016-01-17T08:56:42.000Z</time>
      </trkpt>
      <trkpt lat="47.48706" lon="6.80026">
        <ele>311</ele>
        <time>2016-01-17T08:56:43.000Z</time>
      </trkpt>
      <trkpt lat="47.48707" lon="6.80034">
        <ele>311</ele>
        <time>2016-01-17T08:56:44.000Z</time>
      </trkpt>
      <trkpt lat="47.48706" lon="6.80042">
        <ele>311</ele>
        <time>2016-01-17T08:56:45.000Z</time>
      </trkpt>
      <trkpt lat="47.48707" lon="6.8005">
        <ele>311</ele>
        <time>2016-01-17T08:56:46.000Z</time>
      </trkpt>
      <trkpt lat="47.48707" lon="6.80057">
        <ele>311</ele>
        <time>2016-01-17T08:56:47.000Z</time>
      </trkpt>
      <trkpt lat="47.48706" lon="6.80065">
        <ele>311</ele>
        <time>2016-01-17T08:56:47.999Z</time>
      </trkpt>
      <trkpt lat="47.48706" lon="6.80073">
        <ele>312</ele>
        <time>2016-01-17T08:56:49.000Z</time>
      </trkpt>
      <trkpt lat="47.48708" lon="6.8008">
        <ele>312</ele>
        <time>2016-01-17T08:56:50.000Z</time>
      </trkpt>
      <trkpt lat="47.4871" lon="6.80088">
        <ele>312</ele>
        <time>2016-01-17T08:56:51.001Z</time>
      </trkpt>
      <trkpt lat="47.48711" lon="6.80094">
        <ele>312</ele>
        <time>2016-01-17T08:56:52.000Z</time>
      </trkpt>
      <trkpt lat="47.48712" lon="6.80102">
        <ele>312</ele>
        <time>2016-01-17T08:56:53.000Z</time>
      </trkpt>
      <trkpt lat="47.48713" lon="6.80109">
        <ele>313</ele>
        <time>2016-01-17T08:56:54.000Z</time>
      </trkpt>
      <trkpt lat="47.48713" lon="6.80116">
        <ele>313</ele>
        <time>2016-01-17T08:56:54.999Z</time>
      </trkpt>
      <trkpt lat="47.48714" lon="6.80122">
        <ele>313</ele>
        <time>2016-01-17T08:56:56.000Z</time>
      </trkpt>
      <trkpt lat="47.48714" lon="6.80128">
        <ele>313</ele>
        <time>2016-01-17T08:56:57.000Z</time>
      </trkpt>
      <trkpt lat="47.48712" lon="6.80134">
        <ele>313</ele>
        <time>2016-01-17T08:56:58.000Z</time>
      </trkpt>
      <trkpt lat="47.48712" lon="6.8014">
        <ele>313</ele>
        <time>2016-01-17T08:56:59.000Z</time>
      </trkpt>
      <trkpt lat="47.48712" lon="6.80148">
        <ele>313</ele>
        <time>2016-01-17T08:57:00.000Z</time>
      </trkpt>
      <trkpt lat="47.48711" lon="6.80156">
        <ele>313</ele>
        <time>2016-01-17T08:57:01.000Z</time>
      </trkpt>
      <trkpt lat="47.48711" lon="6.80163">
        <ele>313</ele>
        <time>2016-01-17T08:57:02.000Z</time>
      </trkpt>
      <trkpt lat="47.4871" lon="6.80171">
        <ele>314</ele>
        <time>2016-01-17T08:57:03.000Z</time>
      </trkpt>
      <trkpt lat="47.48709" lon="6.80177">
        <ele>314</ele>
        <time>2016-01-17T08:57:04.000Z</time>
      </trkpt>
      <trkpt lat="47.48708" lon="6.80184">
        <ele>314</ele>
        <time>2016-01-17T08:57:05.000Z</time>
      </trkpt>
      <trkpt lat="47.48707" lon="6.80191">
        <ele>314</ele>
        <time>2016-01-17T08:57:06.000Z</time>
      </trkpt>
      <trkpt lat="47.48706" lon="6.80197">
        <ele>314</ele>
        <time>2016-01-17T08:57:07.000Z</time>
      </trkpt>
      <trkpt lat="47.48704" lon="6.80203">
        <ele>314</ele>
        <time>2016-01-17T08:57:08.000Z</time>
      </trkpt>
      <trkpt lat="47.48702" lon="6.80209">
        <ele>314</ele>
        <time>2016-01-17T08:57:09.000Z</time>
      </trkpt>
      <trkpt lat="47.48699" lon="6.80215">
        <ele>314</ele>
        <time>2016-01-17T08:57:10.000Z</time>
      </trkpt>
      <trkpt lat="47.48696" lon="6.80222">
        <ele>314</ele>
        <time>2016-01-17T08:57:11.000Z</time>
      </trkpt>
      <trkpt lat="47.48694" lon="6.80227">
        <ele>314</ele>
        <time>2016-01-17T08:57:12.000Z</time>
      </trkpt>
      <trkpt lat="47.4869" lon="6.80233">
        <ele>314</ele>
        <time>2016-01-17T08:57:13.000Z</time>
      </trkpt>
      <trkpt lat="47.48686" lon="6.80239">
        <ele>314</ele>
        <time>2016-01-17T08:57:14.000Z</time>
      </trkpt>
      <trkpt lat="47.48682" lon="6.80246">
        <ele>315</ele>
        <time>2016-01-17T08:57:15.000Z</time>
      </trkpt>
      <trkpt lat="47.48679" lon="6.80251">
        <ele>315</ele>
        <time>2016-01-17T08:57:16.000Z</time>
      </trkpt>
      <trkpt lat="47.48676" lon="6.80257">
        <ele>315</ele>
        <time>2016-01-17T08:57:17.000Z</time>
      </trkpt>
      <trkpt lat="47.48672" lon="6.80262">
        <ele>315</ele>
        <time>2016-01-17T08:57:18.000Z</time>
      </trkpt>
      <trkpt lat="47.4867" lon="6.80267">
        <ele>315</ele>
        <time>2016-01-17T08:57:19.000Z</time>
      </trkpt>
      <trkpt lat="47.48667" lon="6.80274">
        <ele>314</ele>
        <time>2016-01-17T08:57:20.000Z</time>
      </trkpt>
      <trkpt lat="47.48663" lon="6.80279">
        <ele>314</ele>
        <time>2016-01-17T08:57:21.000Z</time>
      </trkpt>
      <trkpt lat="47.4866" lon="6.80285">
        <ele>314</ele>
        <time>2016-01-17T08:57:22.000Z</time>
      </trkpt>
      <trkpt lat="47.48658" lon="6.80291">
        <ele>314</ele>
        <time>2016-01-17T08:57:23.000Z</time>
      </trkpt>
      <trkpt lat="47.48655" lon="6.80297">
        <ele>314</ele>
        <time>2016-01-17T08:57:24.000Z</time>
      </trkpt>
      <trkpt lat="47.48653" lon="6.80301">
        <ele>314</ele>
        <time>2016-01-17T08:57:25.000Z</time>
      </trkpt>
      <trkpt lat="47.4865" lon="6.80309">
        <ele>314</ele>
        <time>2016-01-17T08:57:26.000Z</time>
      </trkpt>
      <trkpt lat="47.48646" lon="6.80315">
        <ele>314</ele>
        <time>2016-01-17T08:57:27.000Z</time>
      </trkpt>
      <trkpt lat="47.48643" lon="6.8032">
        <ele>314</ele>
        <time>2016-01-17T08:57:28.000Z</time>
      </trkpt>
      <trkpt lat="47.4864" lon="6.80325">
        <ele>314</ele>
        <time>2016-01-17T08:57:29.000Z</time>
      </trkpt>
      <trkpt lat="47.48637" lon="6.80332">
        <ele>314</ele>
        <time>2016-01-17T08:57:30.000Z</time>
      </trkpt>
      <trkpt lat="47.48634" lon="6.80338">
        <ele>313</ele>
        <time>2016-01-17T08:57:31.000Z</time>
      </trkpt>
      <trkpt lat="47.48631" lon="6.80345">
        <ele>313</ele>
        <time>2016-01-17T08:57:32.000Z</time>
      </trkpt>
      <trkpt lat="47.48626" lon="6.8035">
        <ele>313</ele>
        <time>2016-01-17T08:57:33.000Z</time>
      </trkpt>
      <trkpt lat="47.48624" lon="6.80355">
        <ele>313</ele>
        <time>2016-01-17T08:57:34.000Z</time>
      </trkpt>
      <trkpt lat="47.4862" lon="6.80362">
        <ele>313</ele>
        <time>2016-01-17T08:57:35.000Z</time>
      </trkpt>
      <trkpt lat="47.48615" lon="6.80367">
        <ele>313</ele>
        <time>2016-01-17T08:57:36.000Z</time>
      </trkpt>
      <trkpt lat="47.48613" lon="6.80374">
        <ele>313</ele>
        <time>2016-01-17T08:57:37.000Z</time>
      </trkpt>
      <trkpt lat="47.48609" lon="6.8038">
        <ele>313</ele>
        <time>2016-01-17T08:57:38.000Z</time>
      </trkpt>
      <trkpt lat="47.48605" lon="6.80386">
        <ele>313</ele>
        <time>2016-01-17T08:57:39.000Z</time>
      </trkpt>
      <trkpt lat="47.48602" lon="6.80391">
        <ele>313</ele>
        <time>2016-01-17T08:57:40.000Z</time>
      </trkpt>
      <trkpt lat="47.48599" lon="6.80396">
        <ele>313</ele>
        <time>2016-01-17T08:57:41.000Z</time>
      </trkpt>
      <trkpt lat="47.48596" lon="6.80403">
        <ele>314</ele>
        <time>2016-01-17T08:57:42.000Z</time>
      </trkpt>
      <trkpt lat="47.48593" lon="6.80409">
        <ele>314</ele>
        <time>2016-01-17T08:57:43.000Z</time>
      </trkpt>
      <trkpt lat="47.48588" lon="6.80416">
        <ele>314</ele>
        <time>2016-01-17T08:57:44.000Z</time>
      </trkpt>
      <trkpt lat="47.48585" lon="6.80422">
        <ele>314</ele>
        <time>2016-01-17T08:57:45.000Z</time>
      </trkpt>
      <trkpt lat="47.48581" lon="6.80429">
        <ele>314</ele>
        <time>2016-01-17T08:57:46.000Z</time>
      </trkpt>
      <trkpt lat="47.48578" lon="6.80438">
        <ele>314</ele>
        <time>2016-01-17T08:57:47.000Z</time>
      </trkpt>
      <trkpt lat="47.48576" lon="6.80445">
        <ele>314</ele>
        <time>2016-01-17T08:57:48.000Z</time>
      </trkpt>
      <trkpt lat="47.48573" lon="6.80451">
        <ele>314</ele>
        <time>2016-01-17T08:57:49.000Z</time>
      </trkpt>
      <trkpt lat="47.4857" lon="6.80458">
        <ele>314</ele>
        <time>2016-01-17T08:57:50.000Z</time>
      </trkpt>
      <trkpt lat="47.48569" lon="6.80465">
        <ele>314</ele>
        <time>2016-01-17T08:57:51.000Z</time>
      </trkpt>
      <trkpt lat="47.48566" lon="6.80472">
        <ele>314</ele>
        <time>2016-01-17T08:57:52.000Z</time>
      </trkpt>
      <trkpt lat="47.48565" lon="6.80479">
        <ele>314</ele>
        <time>2016-01-17T08:57:53.000Z</time>
      </trkpt>
      <trkpt lat="47.48563" lon="6.80486">
        <ele>313</ele>
        <time>2016-01-17T08:57:54.000Z</time>
      </trkpt>
      <trkpt lat="47.48562" lon="6.80495">
        <ele>313</ele>
        <time>2016-01-17T08:57:55.000Z</time>
      </trkpt>
      <trkpt lat="47.4856" lon="6.80502">
        <ele>313</ele>
        <time>2016-01-17T08:57:56.000Z</time>
      </trkpt>
      <trkpt lat="47.48559" lon="6.80508">
        <ele>313</ele>
        <time>2016-01-17T08:57:57.000Z</time>
      </trkpt>
      <trkpt lat="47.48557" lon="6.80516">
        <ele>313</ele>
        <time>2016-01-17T08:57:58.000Z</time>
      </trkpt>
      <trkpt lat="47.48556" lon="6.80522">
        <ele>313</ele>
        <time>2016-01-17T08:57:59.000Z</time>
      </trkpt>
      <trkpt lat="47.48554" lon="6.80529">
        <ele>313</ele>
        <time>2016-01-17T08:58:00.000Z</time>
      </trkpt>
      <trkpt lat="47.48552" lon="6.80536">
        <ele>313</ele>
        <time>2016-01-17T08:58:01.000Z</time>
      </trkpt>
      <trkpt lat="47.4855" lon="6.80543">
        <ele>313</ele>
        <time>2016-01-17T08:58:02.000Z</time>
      </trkpt>
      <trkpt lat="47.48549" lon="6.8055">
        <ele>313</ele>
        <time>2016-01-17T08:58:03.000Z</time>
      </trkpt>
      <trkpt lat="47.48547" lon="6.80557">
        <ele>313</ele>
        <time>2016-01-17T08:58:04.000Z</time>
      </trkpt>
      <trkpt lat="47.48545" lon="6.80564">
        <ele>313</ele>
        <time>2016-01-17T08:58:05.000Z</time>
      </trkpt>
      <trkpt lat="47.48543" lon="6.80573">
        <ele>313</ele>
        <time>2016-01-17T08:58:06.000Z</time>
      </trkpt>
      <trkpt lat="47.48542" lon="6.80579">
        <ele>313</ele>
        <time>2016-01-17T08:58:07.000Z</time>
      </trkpt>
      <trkpt lat="47.48541" lon="6.80587">
        <ele>313</ele>
        <time>2016-01-17T08:58:08.000Z</time>
      </trkpt>
      <trkpt lat="47.4854" lon="6.80595">
        <ele>313</ele>
        <time>2016-01-17T08:58:09.000Z</time>
      </trkpt>
      <trkpt lat="47.48538" lon="6.80602">
        <ele>313</ele>
        <time>2016-01-17T08:58:10.000Z</time>
      </trkpt>
      <trkpt lat="47.48537" lon="6.8061">
        <ele>313</ele>
        <time>2016-01-17T08:58:11.000Z</time>
      </trkpt>
      <trkpt lat="47.48534" lon="6.80616">
        <ele>313</ele>
        <time>2016-01-17T08:58:12.000Z</time>
      </trkpt>
      <trkpt lat="47.48531" lon="6.80623">
        <ele>313</ele>
        <time>2016-01-17T08:58:13.000Z</time>
      </trkpt>
      <trkpt lat="47.48527" lon="6.80629">
        <ele>313</ele>
        <time>2016-01-17T08:58:14.000Z</time>
      </trkpt>
      <trkpt lat="47.48525" lon="6.80635">
        <ele>313</ele>
        <time>2016-01-17T08:58:15.000Z</time>
      </trkpt>
      <trkpt lat="47.48523" lon="6.80641">
        <ele>313</ele>
        <time>2016-01-17T08:58:16.000Z</time>
      </trkpt>
      <trkpt lat="47.48522" lon="6.80648">
        <ele>313</ele>
        <time>2016-01-17T08:58:17.000Z</time>
      </trkpt>
      <trkpt lat="47.48519" lon="6.80653">
        <ele>313</ele>
        <time>2016-01-17T08:58:18.000Z</time>
      </trkpt>
      <trkpt lat="47.48516" lon="6.80658">
        <ele>313</ele>
        <time>2016-01-17T08:58:19.000Z</time>
      </trkpt>
      <trkpt lat="47.48512" lon="6.80663">
        <ele>313</ele>
        <time>2016-01-17T08:58:20.000Z</time>
      </trkpt>
      <trkpt lat="47.4851" lon="6.80666">
        <ele>313</ele>
        <time>2016-01-17T08:58:21.000Z</time>
      </trkpt>
      <trkpt lat="47.48507" lon="6.80669">
        <ele>314</ele>
        <time>2016-01-17T08:58:22.000Z</time>
      </trkpt>
      <trkpt lat="47.48503" lon="6.80674">
        <ele>314</ele>
        <time>2016-01-17T08:58:23.000Z</time>
      </trkpt>
      <trkpt lat="47.485" lon="6.8068">
        <ele>315</ele>
        <time>2016-01-17T08:58:24.000Z</time>
      </trkpt>
      <trkpt lat="47.48497" lon="6.80686">
        <ele>315</ele>
        <time>2016-01-17T08:58:25.000Z</time>
      </trkpt>
      <trkpt lat="47.48493" lon="6.80693">
        <ele>315</ele>
        <time>2016-01-17T08:58:26.000Z</time>
      </trkpt>
      <trkpt lat="47.48489" lon="6.80706">
        <ele>316</ele>
        <time>2016-01-17T08:58:27.000Z</time>
      </trkpt>
      <trkpt lat="47.48487" lon="6.80716">
        <ele>316</ele>
        <time>2016-01-17T08:58:28.000Z</time>
      </trkpt>
      <trkpt lat="47.48486" lon="6.80727">
        <ele>316</ele>
        <time>2016-01-17T08:58:29.000Z</time>
      </trkpt>
      <trkpt lat="47.48482" lon="6.80736">
        <ele>316</ele>
        <time>2016-01-17T08:58:30.000Z</time>
      </trkpt>
      <trkpt lat="47.48483" lon="6.80743">
        <ele>315</ele>
        <time>2016-01-17T08:58:31.000Z</time>
      </trkpt>
      <trkpt lat="47.4848" lon="6.80752">
        <ele>315</ele>
        <time>2016-01-17T08:58:32.000Z</time>
      </trkpt>
      <trkpt lat="47.48482" lon="6.80759">
        <ele>315</ele>
        <time>2016-01-17T08:58:33.000Z</time>
      </trkpt>
      <trkpt lat="47.48484" lon="6.80766">
        <ele>315</ele>
        <time>2016-01-17T08:58:34.000Z</time>
      </trkpt>
      <trkpt lat="47.48484" lon="6.80773">
        <ele>316</ele>
        <time>2016-01-17T08:58:35.000Z</time>
      </trkpt>
      <trkpt lat="47.48484" lon="6.8078">
        <ele>316</ele>
        <time>2016-01-17T08:58:36.000Z</time>
      </trkpt>
      <trkpt lat="47.48484" lon="6.80789">
        <ele>316</ele>
        <time>2016-01-17T08:58:37.000Z</time>
      </trkpt>
      <trkpt lat="47.48483" lon="6.80796">
        <ele>316</ele>
        <time>2016-01-17T08:58:38.000Z</time>
      </trkpt>
      <trkpt lat="47.48482" lon="6.80804">
        <ele>316</ele>
        <time>2016-01-17T08:58:39.000Z</time>
      </trkpt>
      <trkpt lat="47.48481" lon="6.80811">
        <ele>316</ele>
        <time>2016-01-17T08:58:40.000Z</time>
      </trkpt>
      <trkpt lat="47.48481" lon="6.80819">
        <ele>316</ele>
        <time>2016-01-17T08:58:41.000Z</time>
      </trkpt>
      <trkpt lat="47.4848" lon="6.80826">
        <ele>316</ele>
        <time>2016-01-17T08:58:42.000Z</time>
      </trkpt>
      <trkpt lat="47.48479" lon="6.80832">
        <ele>316</ele>
        <time>2016-01-17T08:58:43.000Z</time>
      </trkpt>
      <trkpt lat="47.4848" lon="6.8084">
        <ele>316</ele>
        <time>2016-01-17T08:58:44.000Z</time>
      </trkpt>
      <trkpt lat="47.48479" lon="6.80847">
        <ele>316</ele>
        <time>2016-01-17T08:58:45.000Z</time>
      </trkpt>
      <trkpt lat="47.48477" lon="6.80854">
        <ele>316</ele>
        <time>2016-01-17T08:58:46.000Z</time>
      </trkpt>
      <trkpt lat="47.48475" lon="6.80861">
        <ele>316</ele>
        <time>2016-01-17T08:58:47.000Z</time>
      </trkpt>
      <trkpt lat="47.48473" lon="6.80869">
        <ele>316</ele>
        <time>2016-01-17T08:58:48.000Z</time>
      </trkpt>
      <trkpt lat="47.48472" lon="6.80876">
        <ele>316</ele>
        <time>2016-01-17T08:58:49.000Z</time>
      </trkpt>
      <trkpt lat="47.4847" lon="6.80883">
        <ele>316</ele>
        <time>2016-01-17T08:58:50.000Z</time>
      </trkpt>
      <trkpt lat="47.48468" lon="6.80891">
        <ele>316</ele>
        <time>2016-01-17T08:58:51.000Z</time>
      </trkpt>
      <trkpt lat="47.48467" lon="6.80899">
        <ele>316</ele>
        <time>2016-01-17T08:58:52.000Z</time>
      </trkpt>
      <trkpt lat="47.48466" lon="6.80907">
        <ele>316</ele>
        <time>2016-01-17T08:58:53.000Z</time>
      </trkpt>
      <trkpt lat="47.48464" lon="6.80915">
        <ele>316</ele>
        <time>2016-01-17T08:58:54.000Z</time>
      </trkpt>
      <trkpt lat="47.48462" lon="6.80922">
        <ele>316</ele>
        <time>2016-01-17T08:58:55.000Z</time>
      </trkpt>
      <trkpt lat="47.48461" lon="6.8093">
        <ele>316</ele>
        <time>2016-01-17T08:58:56.000Z</time>
      </trkpt>
      <trkpt lat="47.48459" lon="6.80937">
        <ele>316</ele>
        <time>2016-01-17T08:58:57.000Z</time>
      </trkpt>
      <trkpt lat="47.48458" lon="6.80945">
        <ele>316</ele>
        <time>2016-01-17T08:58:58.000Z</time>
      </trkpt>
      <trkpt lat="47.48455" lon="6.80953">
        <ele>316</ele>
        <time>2016-01-17T08:58:59.000Z</time>
      </trkpt>
      <trkpt lat="47.48453" lon="6.80961">
        <ele>316</ele>
        <time>2016-01-17T08:59:00.000Z</time>
      </trkpt>
      <trkpt lat="47.48452" lon="6.80969">
        <ele>316</ele>
        <time>2016-01-17T08:59:01.000Z</time>
      </trkpt>
      <trkpt lat="47.4845" lon="6.80976">
        <ele>316</ele>
        <time>2016-01-17T08:59:02.000Z</time>
      </trkpt>
      <trkpt lat="47.48448" lon="6.80983">
        <ele>316</ele>
        <time>2016-01-17T08:59:03.000Z</time>
      </trkpt>
      <trkpt lat="47.48446" lon="6.80991">
        <ele>316</ele>
        <time>2016-01-17T08:59:04.000Z</time>
      </trkpt>
      <trkpt lat="47.48444" lon="6.80998">
        <ele>316</ele>
        <time>2016-01-17T08:59:05.000Z</time>
      </trkpt>
      <trkpt lat="47.48443" lon="6.81006">
        <ele>317</ele>
        <time>2016-01-17T08:59:06.000Z</time>
      </trkpt>
      <trkpt lat="47.48442" lon="6.81013">
        <ele>317</ele>
        <time>2016-01-17T08:59:07.000Z</time>
      </trkpt>
      <trkpt lat="47.4844" lon="6.81021">
        <ele>317</ele>
        <time>2016-01-17T08:59:08.000Z</time>
      </trkpt>
      <trkpt lat="47.48438" lon="6.81029">
        <ele>317</ele>
        <time>2016-01-17T08:59:09.000Z</time>
      </trkpt>
      <trkpt lat="47.48435" lon="6.81037">
        <ele>317</ele>
        <time>2016-01-17T08:59:10.000Z</time>
      </trkpt>
      <trkpt lat="47.48434" lon="6.81044">
        <ele>317</ele>
        <time>2016-01-17T08:59:11.000Z</time>
      </trkpt>
      <trkpt lat="47.48432" lon="6.81053">
        <ele>317</ele>
        <time>2016-01-17T08:59:12.000Z</time>
      </trkpt>
      <trkpt lat="47.48431" lon="6.8106">
        <ele>317</ele>
        <time>2016-01-17T08:59:13.000Z</time>
      </trkpt>
      <trkpt lat="47.48429" lon="6.81067">
        <ele>317</ele>
        <time>2016-01-17T08:59:14.000Z</time>
      </trkpt>
      <trkpt lat="47.48427" lon="6.81075">
        <ele>317</ele>
        <time>2016-01-17T08:59:15.000Z</time>
      </trkpt>
      <trkpt lat="47.48426" lon="6.81083">
        <ele>317</ele>
        <time>2016-01-17T08:59:16.000Z</time>
      </trkpt>
      <trkpt lat="47.48424" lon="6.8109">
        <ele>317</ele>
        <time>2016-01-17T08:59:17.000Z</time>
      </trkpt>
      <trkpt lat="47.48423" lon="6.81097">
        <ele>317</ele>
        <time>2016-01-17T08:59:18.000Z</time>
      </trkpt>
      <trkpt lat="47.48422" lon="6.81104">
        <ele>317</ele>
        <time>2016-01-17T08:59:19.000Z</time>
      </trkpt>
      <trkpt lat="47.48421" lon="6.81111">
        <ele>317</ele>
        <time>2016-01-17T08:59:20.000Z</time>
      </trkpt>
      <trkpt lat="47.4842" lon="6.81118">
        <ele>317</ele>
        <time>2016-01-17T08:59:21.000Z</time>
      </trkpt>
      <trkpt lat="47.48419" lon="6.81126">
        <ele>317</ele>
        <time>2016-01-17T08:59:22.000Z</time>
      </trkpt>
      <trkpt lat="47.4842" lon="6.81133">
        <ele>317</ele>
        <time>2016-01-17T08:59:23.000Z</time>
      </trkpt>
      <trkpt lat="47.48418" lon="6.8114">
        <ele>316</ele>
        <time>2016-01-17T08:59:24.000Z</time>
      </trkpt>
      <trkpt lat="47.48416" lon="6.81148">
        <ele>318</ele>
        <time>2016-01-17T08:59:25.000Z</time>
      </trkpt>
      <trkpt lat="47.48415" lon="6.81155">
        <ele>318</ele>
        <time>2016-01-17T08:59:26.000Z</time>
      </trkpt>
      <trkpt lat="47.48413" lon="6.81161">
        <ele>317</ele>
        <time>2016-01-17T08:59:27.000Z</time>
      </trkpt>
      <trkpt lat="47.48412" lon="6.81169">
        <ele>316</ele>
        <time>2016-01-17T08:59:28.000Z</time>
      </trkpt>
      <trkpt lat="47.48411" lon="6.81176">
        <ele>316</ele>
        <time>2016-01-17T08:59:29.000Z</time>
      </trkpt>
      <trkpt lat="47.48409" lon="6.81183">
        <ele>316</ele>
        <time>2016-01-17T08:59:30.000Z</time>
      </trkpt>
      <trkpt lat="47.48409" lon="6.81191">
        <ele>316</ele>
        <time>2016-01-17T08:59:31.000Z</time>
      </trkpt>
      <trkpt lat="47.48406" lon="6.81197">
        <ele>316</ele>
        <time>2016-01-17T08:59:32.000Z</time>
      </trkpt>
      <trkpt lat="47.48405" lon="6.81205">
        <ele>316</ele>
        <time>2016-01-17T08:59:33.000Z</time>
      </trkpt>
      <trkpt lat="47.48403" lon="6.81211">
        <ele>316</ele>
        <time>2016-01-17T08:59:34.000Z</time>
      </trkpt>
      <trkpt lat="47.48401" lon="6.81218">
        <ele>316</ele>
        <time>2016-01-17T08:59:35.000Z</time>
      </trkpt>
      <trkpt lat="47.484" lon="6.81225">
        <ele>316</ele>
        <time>2016-01-17T08:59:36.000Z</time>
      </trkpt>
      <trkpt lat="47.48399" lon="6.81232">
        <ele>316</ele>
        <time>2016-01-17T08:59:37.000Z</time>
      </trkpt>
      <trkpt lat="47.48398" lon="6.8124">
        <ele>316</ele>
        <time>2016-01-17T08:59:38.000Z</time>
      </trkpt>
      <trkpt lat="47.48396" lon="6.81249">
        <ele>316</ele>
        <time>2016-01-17T08:59:39.000Z</time>
      </trkpt>
      <trkpt lat="47.48394" lon="6.81257">
        <ele>315</ele>
        <time>2016-01-17T08:59:40.000Z</time>
      </trkpt>
      <trkpt lat="47.48392" lon="6.81265">
        <ele>315</ele>
        <time>2016-01-17T08:59:41.000Z</time>
      </trkpt>
      <trkpt lat="47.48391" lon="6.81273">
        <ele>315</ele>
        <time>2016-01-17T08:59:42.000Z</time>
      </trkpt>
      <trkpt lat="47.4839" lon="6.8128">
        <ele>315</ele>
        <time>2016-01-17T08:59:43.000Z</time>
      </trkpt>
      <trkpt lat="47.48389" lon="6.81288">
        <ele>315</ele>
        <time>2016-01-17T08:59:44.000Z</time>
      </trkpt>
      <trkpt lat="47.48389" lon="6.81297">
        <ele>315</ele>
        <time>2016-01-17T08:59:45.000Z</time>
      </trkpt>
      <trkpt lat="47.48387" lon="6.81304">
        <ele>315</ele>
        <time>2016-01-17T08:59:46.000Z</time>
      </trkpt>
      <trkpt lat="47.48387" lon="6.81312">
        <ele>315</ele>
        <time>2016-01-17T08:59:47.000Z</time>
      </trkpt>
      <trkpt lat="47.48388" lon="6.8132">
        <ele>315</ele>
        <time>2016-01-17T08:59:48.000Z</time>
      </trkpt>
      <trkpt lat="47.48389" lon="6.81328">
        <ele>315</ele>
        <time>2016-01-17T08:59:49.000Z</time>
      </trkpt>
      <trkpt lat="47.48389" lon="6.81336">
        <ele>314</ele>
        <time>2016-01-17T08:59:50.000Z</time>
      </trkpt>
      <trkpt lat="47.4839" lon="6.81344">
        <ele>314</ele>
        <time>2016-01-17T08:59:51.000Z</time>
      </trkpt>
      <trkpt lat="47.4839" lon="6.81352">
        <ele>314</ele>
        <time>2016-01-17T08:59:52.000Z</time>
      </trkpt>
      <trkpt lat="47.48392" lon="6.81359">
        <ele>314</ele>
        <time>2016-01-17T08:59:53.000Z</time>
      </trkpt>
      <trkpt lat="47.48393" lon="6.81366">
        <ele>314</ele>
        <time>2016-01-17T08:59:54.000Z</time>
      </trkpt>
      <trkpt lat="47.48395" lon="6.81375">
        <ele>314</ele>
        <time>2016-01-17T08:59:55.000Z</time>
      </trkpt>
      <trkpt lat="47.48397" lon="6.81382">
        <ele>314</ele>
        <time>2016-01-17T08:59:56.000Z</time>
      </trkpt>
      <trkpt lat="47.48397" lon="6.8139">
        <ele>314</ele>
        <time>2016-01-17T08:59:57.000Z</time>
      </trkpt>
      <trkpt lat="47.48398" lon="6.81398">
        <ele>314</ele>
        <time>2016-01-17T08:59:58.000Z</time>
      </trkpt>
      <trkpt lat="47.48398" lon="6.81406">
        <ele>314</ele>
        <time>2016-01-17T08:59:59.000Z</time>
      </trkpt>
      <trkpt lat="47.48399" lon="6.81414">
        <ele>314</ele>
        <time>2016-01-17T09:00:00.000Z</time>
      </trkpt>
      <trkpt lat="47.484" lon="6.81423">
        <ele>314</ele>
        <time>2016-01-17T09:00:01.000Z</time>
      </trkpt>
      <trkpt lat="47.48401" lon="6.8143">
        <ele>314</ele>
        <time>2016-01-17T09:00:02.000Z</time>
      </trkpt>
      <trkpt lat="47.48401" lon="6.81438">
        <ele>314</ele>
        <time>2016-01-17T09:00:03.000Z</time>
      </trkpt>
      <trkpt lat="47.48401" lon="6.81447">
        <ele>314</ele>
        <time>2016-01-17T09:00:04.000Z</time>
      </trkpt>
      <trkpt lat="47.484" lon="6.81455">
        <ele>314</ele>
        <time>2016-01-17T09:00:05.000Z</time>
      </trkpt>
      <trkpt lat="47.48401" lon="6.81463">
        <ele>314</ele>
        <time>2016-01-17T09:00:06.000Z</time>
      </trkpt>
      <trkpt lat="47.48403" lon="6.81471">
        <ele>314</ele>
        <time>2016-01-17T09:00:07.000Z</time>
      </trkpt>
      <trkpt lat="47.48404" lon="6.81479">
        <ele>314</ele>
        <time>2016-01-17T09:00:08.000Z</time>
      </trkpt>
      <trkpt lat="47.48405" lon="6.81488">
        <ele>313</ele>
        <time>2016-01-17T09:00:09.000Z</time>
      </trkpt>
      <trkpt lat="47.48407" lon="6.81495">
        <ele>313</ele>
        <time>2016-01-17T09:00:10.000Z</time>
      </trkpt>
      <trkpt lat="47.48407" lon="6.81504">
        <ele>313</ele>
        <time>2016-01-17T09:00:11.000Z</time>
      </trkpt>
      <trkpt lat="47.48408" lon="6.81511">
        <ele>314</ele>
        <time>2016-01-17T09:00:12.000Z</time>
      </trkpt>
      <trkpt lat="47.48408" lon="6.81519">
        <ele>314</ele>
        <time>2016-01-17T09:00:13.000Z</time>
      </trkpt>
      <trkpt lat="47.48409" lon="6.81527">
        <ele>314</ele>
        <time>2016-01-17T09:00:14.000Z</time>
      </trkpt>
      <trkpt lat="47.48409" lon="6.81534">
        <ele>314</ele>
        <time>2016-01-17T09:00:15.000Z</time>
      </trkpt>
      <trkpt lat="47.4841" lon="6.81542">
        <ele>314</ele>
        <time>2016-01-17T09:00:16.000Z</time>
      </trkpt>
      <trkpt lat="47.48411" lon="6.81549">
        <ele>314</ele>
        <time>2016-01-17T09:00:17.000Z</time>
      </trkpt>
      <trkpt lat="47.48412" lon="6.81557">
        <ele>314</ele>
        <time>2016-01-17T09:00:18.000Z</time>
      </trkpt>
      <trkpt lat="47.48413" lon="6.81565">
        <ele>314</ele>
        <time>2016-01-17T09:00:19.000Z</time>
      </trkpt>
      <trkpt lat="47.48414" lon="6.81572">
        <ele>313</ele>
        <time>2016-01-17T09:00:20.000Z</time>
      </trkpt>
      <trkpt lat="47.48416" lon="6.8158">
        <ele>313</ele>
        <time>2016-01-17T09:00:21.000Z</time>
      </trkpt>
      <trkpt lat="47.48417" lon="6.81586">
        <ele>313</ele>
        <time>2016-01-17T09:00:22.000Z</time>
      </trkpt>
      <trkpt lat="47.4842" lon="6.81591">
        <ele>313</ele>
        <time>2016-01-17T09:00:23.000Z</time>
      </trkpt>
      <trkpt lat="47.48422" lon="6.81595">
        <ele>313</ele>
        <time>2016-01-17T09:00:24.000Z</time>
      </trkpt>
      <trkpt lat="47.48425" lon="6.81598">
        <ele>313</ele>
        <time>2016-01-17T09:00:25.000Z</time>
      </trkpt>
      <trkpt lat="47.48427" lon="6.81601">
        <ele>313</ele>
        <time>2016-01-17T09:00:26.000Z</time>
      </trkpt>
      <trkpt lat="47.48428" lon="6.81603">
        <ele>313</ele>
        <time>2016-01-17T09:00:27.000Z</time>
      </trkpt>
      <trkpt lat="47.4843" lon="6.81608">
        <ele>313</ele>
        <time>2016-01-17T09:00:30.000Z</time>
      </trkpt>
      <trkpt lat="47.4843" lon="6.81609">
        <ele>313</ele>
        <time>2016-01-17T09:00:31.000Z</time>
      </trkpt>
      <trkpt lat="47.48427" lon="6.81612">
        <ele>313</ele>
        <time>2016-01-17T09:00:34.000Z</time>
      </trkpt>
      <trkpt lat="47.48424" lon="6.81613">
        <ele>313</ele>
        <time>2016-01-17T09:00:35.000Z</time>
      </trkpt>
      <trkpt lat="47.48421" lon="6.81613">
        <ele>313</ele>
        <time>2016-01-17T09:00:36.000Z</time>
      </trkpt>
      <trkpt lat="47.48417" lon="6.81614">
        <ele>313</ele>
        <time>2016-01-17T09:00:37.001Z</time>
      </trkpt>
      <trkpt lat="47.48413" lon="6.81615">
        <ele>314</ele>
        <time>2016-01-17T09:00:38.000Z</time>
      </trkpt>
      <trkpt lat="47.48409" lon="6.81615">
        <ele>314</ele>
        <time>2016-01-17T09:00:39.000Z</time>
      </trkpt>
      <trkpt lat="47.48404" lon="6.81617">
        <ele>314</ele>
        <time>2016-01-17T09:00:40.000Z</time>
      </trkpt>
      <trkpt lat="47.48401" lon="6.81618">
        <ele>314</ele>
        <time>2016-01-17T09:00:41.000Z</time>
      </trkpt>
      <trkpt lat="47.48396" lon="6.81619">
        <ele>314</ele>
        <time>2016-01-17T09:00:42.000Z</time>
      </trkpt>
      <trkpt lat="47.48392" lon="6.81621">
        <ele>314</ele>
        <time>2016-01-17T09:00:43.000Z</time>
      </trkpt>
      <trkpt lat="47.48387" lon="6.81622">
        <ele>314</ele>
        <time>2016-01-17T09:00:44.000Z</time>
      </trkpt>
      <trkpt lat="47.48383" lon="6.81622">
        <ele>314</ele>
        <time>2016-01-17T09:00:45.000Z</time>
      </trkpt>
      <trkpt lat="47.48378" lon="6.81623">
        <ele>314</ele>
        <time>2016-01-17T09:00:46.000Z</time>
      </trkpt>
      <trkpt lat="47.48374" lon="6.81624">
        <ele>315</ele>
        <time>2016-01-17T09:00:47.000Z</time>
      </trkpt>
      <trkpt lat="47.4837" lon="6.81624">
        <ele>315</ele>
        <time>2016-01-17T09:00:48.000Z</time>
      </trkpt>
      <trkpt lat="47.48366" lon="6.81625">
        <ele>315</ele>
        <time>2016-01-17T09:00:49.000Z</time>
      </trkpt>
      <trkpt lat="47.48362" lon="6.81626">
        <ele>315</ele>
        <time>2016-01-17T09:00:49.999Z</time>
      </trkpt>
      <trkpt lat="47.48357" lon="6.81627">
        <ele>315</ele>
        <time>2016-01-17T09:00:51.000Z</time>
      </trkpt>
      <trkpt lat="47.48353" lon="6.81628">
        <ele>315</ele>
        <time>2016-01-17T09:00:52.000Z</time>
      </trkpt>
      <trkpt lat="47.4835" lon="6.81628">
        <ele>315</ele>
        <time>2016-01-17T09:00:53.000Z</time>
      </trkpt>
      <trkpt lat="47.48346" lon="6.81629">
        <ele>315</ele>
        <time>2016-01-17T09:00:54.001Z</time>
      </trkpt>
      <trkpt lat="47.48343" lon="6.81626">
        <ele>315</ele>
        <time>2016-01-17T09:00:55.000Z</time>
      </trkpt>
      <trkpt lat="47.4834" lon="6.81623">
        <ele>315</ele>
        <time>2016-01-17T09:00:56.000Z</time>
      </trkpt>
      <trkpt lat="47.48337" lon="6.81619">
        <ele>315</ele>
        <time>2016-01-17T09:00:57.000Z</time>
      </trkpt>
      <trkpt lat="47.48334" lon="6.81614">
        <ele>315</ele>
        <time>2016-01-17T09:00:58.000Z</time>
      </trkpt>
      <trkpt lat="47.48331" lon="6.81605">
        <ele>316</ele>
        <time>2016-01-17T09:00:59.000Z</time>
      </trkpt>
      <trkpt lat="47.48328" lon="6.81601">
        <ele>316</ele>
        <time>2016-01-17T09:01:00.000Z</time>
      </trkpt>
      <trkpt lat="47.48325" lon="6.81597">
        <ele>316</ele>
        <time>2016-01-17T09:01:01.000Z</time>
      </trkpt>
      <trkpt lat="47.48322" lon="6.81592">
        <ele>316</ele>
        <time>2016-01-17T09:01:02.000Z</time>
      </trkpt>
      <trkpt lat="47.48319" lon="6.81587">
        <ele>316</ele>
        <time>2016-01-17T09:01:03.000Z</time>
      </trkpt>
      <trkpt lat="47.48317" lon="6.8158">
        <ele>316</ele>
        <time>2016-01-17T09:01:04.000Z</time>
      </trkpt>
      <trkpt lat="47.48315" lon="6.81574">
        <ele>316</ele>
        <time>2016-01-17T09:01:05.000Z</time>
      </trkpt>
      <trkpt lat="47.48314" lon="6.81567">
        <ele>316</ele>
        <time>2016-01-17T09:01:06.000Z</time>
      </trkpt>
      <trkpt lat="47.48313" lon="6.81561">
        <ele>316</ele>
        <time>2016-01-17T09:01:07.000Z</time>
      </trkpt>
      <trkpt lat="47.48311" lon="6.81555">
        <ele>316</ele>
        <time>2016-01-17T09:01:08.000Z</time>
      </trkpt>
      <trkpt lat="47.4831" lon="6.81547">
        <ele>316</ele>
        <time>2016-01-17T09:01:09.000Z</time>
      </trkpt>
      <trkpt lat="47.48309" lon="6.81541">
        <ele>316</ele>
        <time>2016-01-17T09:01:10.000Z</time>
      </trkpt>
      <trkpt lat="47.48308" lon="6.81536">
        <ele>316</ele>
        <time>2016-01-17T09:01:11.000Z</time>
      </trkpt>
      <trkpt lat="47.48307" lon="6.81529">
        <ele>316</ele>
        <time>2016-01-17T09:01:12.000Z</time>
      </trkpt>
      <trkpt lat="47.48307" lon="6.81522">
        <ele>316</ele>
        <time>2016-01-17T09:01:13.000Z</time>
      </trkpt>
      <trkpt lat="47.48305" lon="6.81516">
        <ele>316</ele>
        <time>2016-01-17T09:01:14.000Z</time>
      </trkpt>
      <trkpt lat="47.48304" lon="6.81509">
        <ele>316</ele>
        <time>2016-01-17T09:01:15.000Z</time>
      </trkpt>
      <trkpt lat="47.48302" lon="6.81504">
        <ele>316</ele>
        <time>2016-01-17T09:01:16.000Z</time>
      </trkpt>
      <trkpt lat="47.48301" lon="6.81498">
        <ele>317</ele>
        <time>2016-01-17T09:01:17.000Z</time>
      </trkpt>
      <trkpt lat="47.483" lon="6.81492">
        <ele>317</ele>
        <time>2016-01-17T09:01:18.000Z</time>
      </trkpt>
      <trkpt lat="47.483" lon="6.81485">
        <ele>317</ele>
        <time>2016-01-17T09:01:19.000Z</time>
      </trkpt>
      <trkpt lat="47.48298" lon="6.81479">
        <ele>317</ele>
        <time>2016-01-17T09:01:20.000Z</time>
      </trkpt>
      <trkpt lat="47.48296" lon="6.81472">
        <ele>318</ele>
        <time>2016-01-17T09:01:21.000Z</time>
      </trkpt>
      <trkpt lat="47.48295" lon="6.81466">
        <ele>318</ele>
        <time>2016-01-17T09:01:22.000Z</time>
      </trkpt>
      <trkpt lat="47.48293" lon="6.81459">
        <ele>318</ele>
        <time>2016-01-17T09:01:23.000Z</time>
      </trkpt>
      <trkpt lat="47.48292" lon="6.81453">
        <ele>318</ele>
        <time>2016-01-17T09:01:24.000Z</time>
      </trkpt>
      <trkpt lat="47.4829" lon="6.81447">
        <ele>318</ele>
        <time>2016-01-17T09:01:25.000Z</time>
      </trkpt>
      <trkpt lat="47.48288" lon="6.8144">
        <ele>319</ele>
        <time>2016-01-17T09:01:26.000Z</time>
      </trkpt>
      <trkpt lat="47.48287" lon="6.81432">
        <ele>319</ele>
        <time>2016-01-17T09:01:27.000Z</time>
      </trkpt>
      <trkpt lat="47.48285" lon="6.81425">
        <ele>319</ele>
        <time>2016-01-17T09:01:28.000Z</time>
      </trkpt>
      <trkpt lat="47.48284" lon="6.81417">
        <ele>319</ele>
        <time>2016-01-17T09:01:29.000Z</time>
      </trkpt>
      <trkpt lat="47.48282" lon="6.8141">
        <ele>322</ele>
        <time>2016-01-17T09:01:30.000Z</time>
      </trkpt>
      <trkpt lat="47.48282" lon="6.81404">
        <ele>322</ele>
        <time>2016-01-17T09:01:31.000Z</time>
      </trkpt>
      <trkpt lat="47.48281" lon="6.81398">
        <ele>322</ele>
        <time>2016-01-17T09:01:32.000Z</time>
      </trkpt>
      <trkpt lat="47.48279" lon="6.81394">
        <ele>322</ele>
        <time>2016-01-17T09:01:33.000Z</time>
      </trkpt>
      <trkpt lat="47.48277" lon="6.81392">
        <ele>322</ele>
        <time>2016-01-17T09:01:34.000Z</time>
      </trkpt>
      <trkpt lat="47.48274" lon="6.81392">
        <ele>323</ele>
        <time>2016-01-17T09:01:35.000Z</time>
      </trkpt>
      <trkpt lat="47.48273" lon="6.81398">
        <ele>323</ele>
        <time>2016-01-17T09:01:36.000Z</time>
      </trkpt>
      <trkpt lat="47.4827" lon="6.81402">
        <ele>323</ele>
        <time>2016-01-17T09:01:37.000Z</time>
      </trkpt>
      <trkpt lat="47.48267" lon="6.81406">
        <ele>323</ele>
        <time>2016-01-17T09:01:38.000Z</time>
      </trkpt>
      <trkpt lat="47.48264" lon="6.81409">
        <ele>323</ele>
        <time>2016-01-17T09:01:38.999Z</time>
      </trkpt>
      <trkpt lat="47.48261" lon="6.81412">
        <ele>324</ele>
        <time>2016-01-17T09:01:40.000Z</time>
      </trkpt>
      <trkpt lat="47.48257" lon="6.81416">
        <ele>324</ele>
        <time>2016-01-17T09:01:41.000Z</time>
      </trkpt>
      <trkpt lat="47.48253" lon="6.8142">
        <ele>324</ele>
        <time>2016-01-17T09:01:42.000Z</time>
      </trkpt>
      <trkpt lat="47.48249" lon="6.81423">
        <ele>326</ele>
        <time>2016-01-17T09:01:43.000Z</time>
      </trkpt>
      <trkpt lat="47.48244" lon="6.81426">
        <ele>326</ele>
        <time>2016-01-17T09:01:44.000Z</time>
      </trkpt>
      <trkpt lat="47.4824" lon="6.8143">
        <ele>327</ele>
        <time>2016-01-17T09:01:45.000Z</time>
      </trkpt>
      <trkpt lat="47.48236" lon="6.81432">
        <ele>327</ele>
        <time>2016-01-17T09:01:46.000Z</time>
      </trkpt>
      <trkpt lat="47.48232" lon="6.81433">
        <ele>328</ele>
        <time>2016-01-17T09:01:47.000Z</time>
      </trkpt>
      <trkpt lat="47.48229" lon="6.81435">
        <ele>328</ele>
        <time>2016-01-17T09:01:48.000Z</time>
      </trkpt>
      <trkpt lat="47.48225" lon="6.81436">
        <ele>328</ele>
        <time>2016-01-17T09:01:49.000Z</time>
      </trkpt>
      <trkpt lat="47.48221" lon="6.81437">
        <ele>329</ele>
        <time>2016-01-17T09:01:50.000Z</time>
      </trkpt>
      <trkpt lat="47.48217" lon="6.81439">
        <ele>329</ele>
        <time>2016-01-17T09:01:51.000Z</time>
      </trkpt>
      <trkpt lat="47.48214" lon="6.81439">
        <ele>329</ele>
        <time>2016-01-17T09:01:52.000Z</time>
      </trkpt>
      <trkpt lat="47.48211" lon="6.8144">
        <ele>330</ele>
        <time>2016-01-17T09:01:53.000Z</time>
      </trkpt>
      <trkpt lat="47.48209" lon="6.81441">
        <ele>330</ele>
        <time>2016-01-17T09:01:54.000Z</time>
      </trkpt>
      <trkpt lat="47.48205" lon="6.81442">
        <ele>330</ele>
        <time>2016-01-17T09:01:55.000Z</time>
      </trkpt>
      <trkpt lat="47.48202" lon="6.81442">
        <ele>330</ele>
        <time>2016-01-17T09:01:56.000Z</time>
      </trkpt>
      <trkpt lat="47.482" lon="6.81443">
        <ele>331</ele>
        <time>2016-01-17T09:01:57.000Z</time>
      </trkpt>
      <trkpt lat="47.48197" lon="6.81443">
        <ele>331</ele>
        <time>2016-01-17T09:01:58.000Z</time>
      </trkpt>
      <trkpt lat="47.48195" lon="6.81443">
        <ele>331</ele>
        <time>2016-01-17T09:01:59.000Z</time>
      </trkpt>
      <trkpt lat="47.48192" lon="6.81443">
        <ele>332</ele>
        <time>2016-01-17T09:02:00.000Z</time>
      </trkpt>
      <trkpt lat="47.48188" lon="6.81441">
        <ele>332</ele>
        <time>2016-01-17T09:02:02.000Z</time>
      </trkpt>
      <trkpt lat="47.48186" lon="6.8144">
        <ele>333</ele>
        <time>2016-01-17T09:02:03.000Z</time>
      </trkpt>
      <trkpt lat="47.48182" lon="6.81439">
        <ele>333</ele>
        <time>2016-01-17T09:02:05.000Z</time>
      </trkpt>
      <trkpt lat="47.48179" lon="6.81438">
        <ele>334</ele>
        <time>2016-01-17T09:02:06.000Z</time>
      </trkpt>
      <trkpt lat="47.48175" lon="6.81438">
        <ele>334</ele>
        <time>2016-01-17T09:02:08.000Z</time>
      </trkpt>
      <trkpt lat="47.48173" lon="6.81439">
        <ele>334</ele>
        <time>2016-01-17T09:02:09.000Z</time>
      </trkpt>
      <trkpt lat="47.48171" lon="6.81439">
        <ele>334</ele>
        <time>2016-01-17T09:02:10.000Z</time>
      </trkpt>
      <trkpt lat="47.48168" lon="6.8144">
        <ele>334</ele>
        <time>2016-01-17T09:02:11.000Z</time>
      </trkpt>
      <trkpt lat="47.48165" lon="6.81439">
        <ele>341</ele>
        <time>2016-01-17T09:02:13.000Z</time>
      </trkpt>
      <trkpt lat="47.48163" lon="6.81438">
        <ele>341</ele>
        <time>2016-01-17T09:02:14.000Z</time>
      </trkpt>
      <trkpt lat="47.48159" lon="6.81437">
        <ele>341</ele>
        <time>2016-01-17T09:02:16.000Z</time>
      </trkpt>
      <trkpt lat="47.48156" lon="6.81437">
        <ele>341</ele>
        <time>2016-01-17T09:02:17.000Z</time>
      </trkpt>
      <trkpt lat="47.48154" lon="6.81438">
        <ele>341</ele>
        <time>2016-01-17T09:02:18.000Z</time>
      </trkpt>
      <trkpt lat="47.48152" lon="6.81438">
        <ele>341</ele>
        <time>2016-01-17T09:02:19.000Z</time>
      </trkpt>
      <trkpt lat="47.48147" lon="6.81438">
        <ele>341</ele>
        <time>2016-01-17T09:02:21.000Z</time>
      </trkpt>
      <trkpt lat="47.48145" lon="6.81437">
        <ele>341</ele>
        <time>2016-01-17T09:02:22.000Z</time>
      </trkpt>
      <trkpt lat="47.48142" lon="6.81437">
        <ele>341</ele>
        <time>2016-01-17T09:02:24.000Z</time>
      </trkpt>
      <trkpt lat="47.4814" lon="6.81437">
        <ele>342</ele>
        <time>2016-01-17T09:02:25.000Z</time>
      </trkpt>
      <trkpt lat="47.48137" lon="6.81437">
        <ele>342</ele>
        <time>2016-01-17T09:02:27.000Z</time>
      </trkpt>
      <trkpt lat="47.48135" lon="6.81437">
        <ele>342</ele>
        <time>2016-01-17T09:02:28.000Z</time>
      </trkpt>
      <trkpt lat="47.48132" lon="6.81436">
        <ele>342</ele>
        <time>2016-01-17T09:02:30.000Z</time>
      </trkpt>
      <trkpt lat="47.4813" lon="6.81437">
        <ele>342</ele>
        <time>2016-01-17T09:02:31.000Z</time>
      </trkpt>
      <trkpt lat="47.48127" lon="6.81437">
        <ele>342</ele>
        <time>2016-01-17T09:02:32.000Z</time>
      </trkpt>
      <trkpt lat="47.48125" lon="6.81437">
        <ele>342</ele>
        <time>2016-01-17T09:02:33.000Z</time>
      </trkpt>
      <trkpt lat="47.48122" lon="6.81438">
        <ele>342</ele>
        <time>2016-01-17T09:02:34.000Z</time>
      </trkpt>
      <trkpt lat="47.48119" lon="6.81438">
        <ele>342</ele>
        <time>2016-01-17T09:02:35.000Z</time>
      </trkpt>
      <trkpt lat="47.48117" lon="6.81439">
        <ele>343</ele>
        <time>2016-01-17T09:02:36.000Z</time>
      </trkpt>
      <trkpt lat="47.48115" lon="6.81439">
        <ele>343</ele>
        <time>2016-01-17T09:02:37.000Z</time>
      </trkpt>
      <trkpt lat="47.48112" lon="6.8144">
        <ele>343</ele>
        <time>2016-01-17T09:02:38.000Z</time>
      </trkpt>
      <trkpt lat="47.48109" lon="6.8144">
        <ele>343</ele>
        <time>2016-01-17T09:02:39.000Z</time>
      </trkpt>
      <trkpt lat="47.48106" lon="6.81439">
        <ele>343</ele>
        <time>2016-01-17T09:02:40.000Z</time>
      </trkpt>
      <trkpt lat="47.48104" lon="6.81439">
        <ele>343</ele>
        <time>2016-01-17T09:02:41.000Z</time>
      </trkpt>
      <trkpt lat="47.481" lon="6.8144">
        <ele>343</ele>
        <time>2016-01-17T09:02:43.000Z</time>
      </trkpt>
      <trkpt lat="47.48098" lon="6.8144">
        <ele>343</ele>
        <time>2016-01-17T09:02:44.000Z</time>
      </trkpt>
      <trkpt lat="47.48095" lon="6.81442">
        <ele>344</ele>
        <time>2016-01-17T09:02:46.000Z</time>
      </trkpt>
      <trkpt lat="47.48093" lon="6.81442">
        <ele>344</ele>
        <time>2016-01-17T09:02:47.000Z</time>
      </trkpt>
      <trkpt lat="47.48089" lon="6.81442">
        <ele>344</ele>
        <time>2016-01-17T09:02:49.000Z</time>
      </trkpt>
      <trkpt lat="47.48087" lon="6.81442">
        <ele>344</ele>
        <time>2016-01-17T09:02:50.000Z</time>
      </trkpt>
      <trkpt lat="47.48083" lon="6.81441">
        <ele>348</ele>
        <time>2016-01-17T09:02:52.000Z</time>
      </trkpt>
      <trkpt lat="47.4808" lon="6.81441">
        <ele>348</ele>
        <time>2016-01-17T09:02:53.000Z</time>
      </trkpt>
      <trkpt lat="47.48078" lon="6.8144">
        <ele>349</ele>
        <time>2016-01-17T09:02:54.000Z</time>
      </trkpt>
      <trkpt lat="47.48075" lon="6.8144">
        <ele>349</ele>
        <time>2016-01-17T09:02:55.000Z</time>
      </trkpt>
      <trkpt lat="47.48072" lon="6.8144">
        <ele>349</ele>
        <time>2016-01-17T09:02:56.000Z</time>
      </trkpt>
      <trkpt lat="47.4807" lon="6.81439">
        <ele>349</ele>
        <time>2016-01-17T09:02:57.000Z</time>
      </trkpt>
      <trkpt lat="47.48067" lon="6.81439">
        <ele>349</ele>
        <time>2016-01-17T09:02:59.000Z</time>
      </trkpt>
      <trkpt lat="47.48065" lon="6.8144">
        <ele>349</ele>
        <time>2016-01-17T09:03:00.000Z</time>
      </trkpt>
      <trkpt lat="47.48062" lon="6.81443">
        <ele>349</ele>
        <time>2016-01-17T09:03:02.000Z</time>
      </trkpt>
      <trkpt lat="47.48061" lon="6.81445">
        <ele>349</ele>
        <time>2016-01-17T09:03:03.000Z</time>
      </trkpt>
      <trkpt lat="47.48061" lon="6.81448">
        <ele>349</ele>
        <time>2016-01-17T09:03:04.000Z</time>
      </trkpt>
      <trkpt lat="47.48061" lon="6.81452">
        <ele>350</ele>
        <time>2016-01-17T09:03:05.000Z</time>
      </trkpt>
      <trkpt lat="47.4806" lon="6.81458">
        <ele>350</ele>
        <time>2016-01-17T09:03:07.000Z</time>
      </trkpt>
      <trkpt lat="47.4806" lon="6.81459">
        <ele>350</ele>
        <time>2016-01-17T09:03:08.000Z</time>
      </trkpt>
      <trkpt lat="47.48057" lon="6.81465">
        <ele>350</ele>
        <time>2016-01-17T09:03:24.000Z</time>
      </trkpt>
      <trkpt lat="47.48057" lon="6.81466">
        <ele>350</ele>
        <time>2016-01-17T09:03:25.000Z</time>
      </trkpt>
      <trkpt lat="47.48055" lon="6.81472">
        <ele>350</ele>
        <time>2016-01-17T09:03:29.000Z</time>
      </trkpt>
      <trkpt lat="47.48054" lon="6.81473">
        <ele>350</ele>
        <time>2016-01-17T09:03:30.000Z</time>
      </trkpt>
      <trkpt lat="47.48051" lon="6.81476">
        <ele>350</ele>
        <time>2016-01-17T09:03:33.000Z</time>
      </trkpt>
      <trkpt lat="47.4805" lon="6.81477">
        <ele>350</ele>
        <time>2016-01-17T09:03:34.000Z</time>
      </trkpt>
      <trkpt lat="47.48047" lon="6.81477">
        <ele>351</ele>
        <time>2016-01-17T09:03:41.000Z</time>
      </trkpt>
      <trkpt lat="47.48045" lon="6.81478">
        <ele>351</ele>
        <time>2016-01-17T09:03:42.000Z</time>
      </trkpt>
      <trkpt lat="47.48041" lon="6.81478">
        <ele>351</ele>
        <time>2016-01-17T09:03:49.000Z</time>
      </trkpt>
      <trkpt lat="47.4804" lon="6.81478">
        <ele>351</ele>
        <time>2016-01-17T09:03:50.000Z</time>
      </trkpt>
      <trkpt lat="47.48036" lon="6.81477">
        <ele>351</ele>
        <time>2016-01-17T09:03:56.000Z</time>
      </trkpt>
      <trkpt lat="47.48035" lon="6.81478">
        <ele>351</ele>
        <time>2016-01-17T09:03:57.000Z</time>
      </trkpt>
      <trkpt lat="47.48031" lon="6.81478">
        <ele>352</ele>
        <time>2016-01-17T09:04:01.000Z</time>
      </trkpt>
      <trkpt lat="47.4803" lon="6.81478">
        <ele>352</ele>
        <time>2016-01-17T09:04:02.000Z</time>
      </trkpt>
      <trkpt lat="47.48026" lon="6.81477">
        <ele>352</ele>
        <time>2016-01-17T09:04:05.000Z</time>
      </trkpt>
      <trkpt lat="47.48025" lon="6.81477">
        <ele>352</ele>
        <time>2016-01-17T09:04:06.000Z</time>
      </trkpt>
      <trkpt lat="47.48021" lon="6.81477">
        <ele>352</ele>
        <time>2016-01-17T09:04:09.000Z</time>
      </trkpt>
      <trkpt lat="47.4802" lon="6.81477">
        <ele>352</ele>
        <time>2016-01-17T09:04:10.000Z</time>
      </trkpt>
      <trkpt lat="47.48017" lon="6.81479">
        <ele>353</ele>
        <time>2016-01-17T09:04:14.000Z</time>
      </trkpt>
      <trkpt lat="47.48015" lon="6.81479">
        <ele>353</ele>
        <time>2016-01-17T09:04:15.000Z</time>
      </trkpt>
      <trkpt lat="47.48011" lon="6.8148">
        <ele>353</ele>
        <time>2016-01-17T09:04:18.000Z</time>
      </trkpt>
      <trkpt lat="47.4801" lon="6.8148">
        <ele>353</ele>
        <time>2016-01-17T09:04:19.000Z</time>
      </trkpt>
      <trkpt lat="47.48007" lon="6.81482">
        <ele>354</ele>
        <time>2016-01-17T09:04:22.000Z</time>
      </trkpt>
      <trkpt lat="47.48006" lon="6.81483">
        <ele>354</ele>
        <time>2016-01-17T09:04:23.000Z</time>
      </trkpt>
      <trkpt lat="47.48001" lon="6.81485">
        <ele>354</ele>
        <time>2016-01-17T09:04:26.000Z</time>
      </trkpt>
      <trkpt lat="47.48" lon="6.81485">
        <ele>354</ele>
        <time>2016-01-17T09:04:27.000Z</time>
      </trkpt>
      <trkpt lat="47.47997" lon="6.81485">
        <ele>358</ele>
        <time>2016-01-17T09:04:30.000Z</time>
      </trkpt>
      <trkpt lat="47.47995" lon="6.81485">
        <ele>358</ele>
        <time>2016-01-17T09:04:31.000Z</time>
      </trkpt>
      <trkpt lat="47.47991" lon="6.81487">
        <ele>358</ele>
        <time>2016-01-17T09:04:34.000Z</time>
      </trkpt>
      <trkpt lat="47.4799" lon="6.81487">
        <ele>358</ele>
        <time>2016-01-17T09:04:35.000Z</time>
      </trkpt>
      <trkpt lat="47.47986" lon="6.81488">
        <ele>358</ele>
        <time>2016-01-17T09:04:38.000Z</time>
      </trkpt>
      <trkpt lat="47.47985" lon="6.81488">
        <ele>358</ele>
        <time>2016-01-17T09:04:39.000Z</time>
      </trkpt>
      <trkpt lat="47.47981" lon="6.81488">
        <ele>358</ele>
        <time>2016-01-17T09:04:42.000Z</time>
      </trkpt>
      <trkpt lat="47.4798" lon="6.81488">
        <ele>358</ele>
        <time>2016-01-17T09:04:43.000Z</time>
      </trkpt>
      <trkpt lat="47.47976" lon="6.81491">
        <ele>358</ele>
        <time>2016-01-17T09:04:48.000Z</time>
      </trkpt>
      <trkpt lat="47.47976" lon="6.81491">
        <ele>358</ele>
        <time>2016-01-17T09:04:49.000Z</time>
      </trkpt>
      <trkpt lat="47.47973" lon="6.81493">
        <ele>358</ele>
        <time>2016-01-17T09:04:52.000Z</time>
      </trkpt>
      <trkpt lat="47.47971" lon="6.81493">
        <ele>358</ele>
        <time>2016-01-17T09:04:53.000Z</time>
      </trkpt>
      <trkpt lat="47.47968" lon="6.81496">
        <ele>359</ele>
        <time>2016-01-17T09:04:55.000Z</time>
      </trkpt>
      <trkpt lat="47.47966" lon="6.81498">
        <ele>359</ele>
        <time>2016-01-17T09:04:56.000Z</time>
      </trkpt>
      <trkpt lat="47.47963" lon="6.81502">
        <ele>360</ele>
        <time>2016-01-17T09:04:58.000Z</time>
      </trkpt>
      <trkpt lat="47.47962" lon="6.81505">
        <ele>360</ele>
        <time>2016-01-17T09:04:59.000Z</time>
      </trkpt>
      <trkpt lat="47.47961" lon="6.8151">
        <ele>360</ele>
        <time>2016-01-17T09:05:01.000Z</time>
      </trkpt>
      <trkpt lat="47.4796" lon="6.81513">
        <ele>360</ele>
        <time>2016-01-17T09:05:02.000Z</time>
      </trkpt>
      <trkpt lat="47.47958" lon="6.81518">
        <ele>360</ele>
        <time>2016-01-17T09:05:04.000Z</time>
      </trkpt>
      <trkpt lat="47.47957" lon="6.81521">
        <ele>360</ele>
        <time>2016-01-17T09:05:05.000Z</time>
      </trkpt>
      <trkpt lat="47.47956" lon="6.81524">
        <ele>360</ele>
        <time>2016-01-17T09:05:06.000Z</time>
      </trkpt>
      <trkpt lat="47.47955" lon="6.81527">
        <ele>361</ele>
        <time>2016-01-17T09:05:07.000Z</time>
      </trkpt>
      <trkpt lat="47.47955" lon="6.81531">
        <ele>361</ele>
        <time>2016-01-17T09:05:08.000Z</time>
      </trkpt>
      <trkpt lat="47.47955" lon="6.81535">
        <ele>361</ele>
        <time>2016-01-17T09:05:09.000Z</time>
      </trkpt>
      <trkpt lat="47.47955" lon="6.81538">
        <ele>361</ele>
        <time>2016-01-17T09:05:10.000Z</time>
      </trkpt>
      <trkpt lat="47.47954" lon="6.81542">
        <ele>361</ele>
        <time>2016-01-17T09:05:11.000Z</time>
      </trkpt>
      <trkpt lat="47.47953" lon="6.81545">
        <ele>361</ele>
        <time>2016-01-17T09:05:12.000Z</time>
      </trkpt>
      <trkpt lat="47.47952" lon="6.81548">
        <ele>361</ele>
        <time>2016-01-17T09:05:13.000Z</time>
      </trkpt>
      <trkpt lat="47.4795" lon="6.81552">
        <ele>361</ele>
        <time>2016-01-17T09:05:14.000Z</time>
      </trkpt>
      <trkpt lat="47.47949" lon="6.81555">
        <ele>361</ele>
        <time>2016-01-17T09:05:15.000Z</time>
      </trkpt>
      <trkpt lat="47.47948" lon="6.81558">
        <ele>361</ele>
        <time>2016-01-17T09:05:16.000Z</time>
      </trkpt>
      <trkpt lat="47.47947" lon="6.81562">
        <ele>361</ele>
        <time>2016-01-17T09:05:17.000Z</time>
      </trkpt>
      <trkpt lat="47.47946" lon="6.81565">
        <ele>361</ele>
        <time>2016-01-17T09:05:18.000Z</time>
      </trkpt>
      <trkpt lat="47.47945" lon="6.8157">
        <ele>361</ele>
        <time>2016-01-17T09:05:19.000Z</time>
      </trkpt>
      <trkpt lat="47.47944" lon="6.81574">
        <ele>361</ele>
        <time>2016-01-17T09:05:20.000Z</time>
      </trkpt>
      <trkpt lat="47.47942" lon="6.81579">
        <ele>361</ele>
        <time>2016-01-17T09:05:21.000Z</time>
      </trkpt>
      <trkpt lat="47.4794" lon="6.81583">
        <ele>361</ele>
        <time>2016-01-17T09:05:22.000Z</time>
      </trkpt>
      <trkpt lat="47.47938" lon="6.81589">
        <ele>361</ele>
        <time>2016-01-17T09:05:23.000Z</time>
      </trkpt>
      <trkpt lat="47.47937" lon="6.81594">
        <ele>361</ele>
        <time>2016-01-17T09:05:24.000Z</time>
      </trkpt>
      <trkpt lat="47.47936" lon="6.816">
        <ele>360</ele>
        <time>2016-01-17T09:05:25.000Z</time>
      </trkpt>
      <trkpt lat="47.47936" lon="6.81605">
        <ele>360</ele>
        <time>2016-01-17T09:05:26.000Z</time>
      </trkpt>
      <trkpt lat="47.47935" lon="6.81609">
        <ele>360</ele>
        <time>2016-01-17T09:05:27.000Z</time>
      </trkpt>
      <trkpt lat="47.47933" lon="6.81614">
        <ele>360</ele>
        <time>2016-01-17T09:05:28.000Z</time>
      </trkpt>
      <trkpt lat="47.47932" lon="6.81617">
        <ele>360</ele>
        <time>2016-01-17T09:05:29.000Z</time>
      </trkpt>
      <trkpt lat="47.47931" lon="6.81621">
        <ele>359</ele>
        <time>2016-01-17T09:05:30.000Z</time>
      </trkpt>
      <trkpt lat="47.47929" lon="6.81625">
        <ele>359</ele>
        <time>2016-01-17T09:05:31.000Z</time>
      </trkpt>
      <trkpt lat="47.47928" lon="6.81628">
        <ele>359</ele>
        <time>2016-01-17T09:05:32.000Z</time>
      </trkpt>
      <trkpt lat="47.47926" lon="6.81632">
        <ele>359</ele>
        <time>2016-01-17T09:05:33.000Z</time>
      </trkpt>
      <trkpt lat="47.47923" lon="6.81634">
        <ele>359</ele>
        <time>2016-01-17T09:05:34.000Z</time>
      </trkpt>
      <trkpt lat="47.47921" lon="6.81637">
        <ele>359</ele>
        <time>2016-01-17T09:05:35.000Z</time>
      </trkpt>
      <trkpt lat="47.47917" lon="6.8164">
        <ele>359</ele>
        <time>2016-01-17T09:05:36.000Z</time>
      </trkpt>
      <trkpt lat="47.47915" lon="6.81643">
        <ele>361</ele>
        <time>2016-01-17T09:05:37.000Z</time>
      </trkpt>
      <trkpt lat="47.47912" lon="6.81646">
        <ele>361</ele>
        <time>2016-01-17T09:05:38.000Z</time>
      </trkpt>
      <trkpt lat="47.4791" lon="6.81651">
        <ele>360</ele>
        <time>2016-01-17T09:05:39.000Z</time>
      </trkpt>
      <trkpt lat="47.47908" lon="6.81655">
        <ele>360</ele>
        <time>2016-01-17T09:05:40.000Z</time>
      </trkpt>
      <trkpt lat="47.47907" lon="6.8166">
        <ele>359</ele>
        <time>2016-01-17T09:05:41.000Z</time>
      </trkpt>
      <trkpt lat="47.47906" lon="6.81665">
        <ele>359</ele>
        <time>2016-01-17T09:05:42.000Z</time>
      </trkpt>
      <trkpt lat="47.47905" lon="6.8167">
        <ele>357</ele>
        <time>2016-01-17T09:05:43.000Z</time>
      </trkpt>
      <trkpt lat="47.47905" lon="6.81675">
        <ele>357</ele>
        <time>2016-01-17T09:05:44.000Z</time>
      </trkpt>
      <trkpt lat="47.47905" lon="6.8168">
        <ele>357</ele>
        <time>2016-01-17T09:05:45.000Z</time>
      </trkpt>
      <trkpt lat="47.47905" lon="6.81685">
        <ele>357</ele>
        <time>2016-01-17T09:05:46.000Z</time>
      </trkpt>
      <trkpt lat="47.47905" lon="6.8169">
        <ele>357</ele>
        <time>2016-01-17T09:05:47.000Z</time>
      </trkpt>
      <trkpt lat="47.47905" lon="6.81694">
        <ele>357</ele>
        <time>2016-01-17T09:05:48.000Z</time>
      </trkpt>
      <trkpt lat="47.47905" lon="6.81697">
        <ele>357</ele>
        <time>2016-01-17T09:05:49.000Z</time>
      </trkpt>
      <trkpt lat="47.47903" lon="6.81703">
        <ele>357</ele>
        <time>2016-01-17T09:05:51.000Z</time>
      </trkpt>
      <trkpt lat="47.47901" lon="6.81704">
        <ele>357</ele>
        <time>2016-01-17T09:05:52.000Z</time>
      </trkpt>
      <trkpt lat="47.47898" lon="6.81704">
        <ele>357</ele>
        <time>2016-01-17T09:05:53.000Z</time>
      </trkpt>
      <trkpt lat="47.47896" lon="6.81704">
        <ele>357</ele>
        <time>2016-01-17T09:05:54.000Z</time>
      </trkpt>
      <trkpt lat="47.47893" lon="6.81704">
        <ele>357</ele>
        <time>2016-01-17T09:05:55.000Z</time>
      </trkpt>
      <trkpt lat="47.47891" lon="6.81704">
        <ele>357</ele>
        <time>2016-01-17T09:05:56.000Z</time>
      </trkpt>
      <trkpt lat="47.47888" lon="6.81703">
        <ele>357</ele>
        <time>2016-01-17T09:05:57.000Z</time>
      </trkpt>
      <trkpt lat="47.47885" lon="6.81703">
        <ele>357</ele>
        <time>2016-01-17T09:05:58.000Z</time>
      </trkpt>
      <trkpt lat="47.47882" lon="6.81702">
        <ele>357</ele>
        <time>2016-01-17T09:05:59.000Z</time>
      </trkpt>
      <trkpt lat="47.4788" lon="6.81702">
        <ele>357</ele>
        <time>2016-01-17T09:06:00.000Z</time>
      </trkpt>
      <trkpt lat="47.47876" lon="6.81704">
        <ele>357</ele>
        <time>2016-01-17T09:06:02.000Z</time>
      </trkpt>
      <trkpt lat="47.47874" lon="6.81707">
        <ele>357</ele>
        <time>2016-01-17T09:06:03.000Z</time>
      </trkpt>
      <trkpt lat="47.47873" lon="6.81712">
        <ele>357</ele>
        <time>2016-01-17T09:06:05.000Z</time>
      </trkpt>
      <trkpt lat="47.47872" lon="6.81715">
        <ele>357</ele>
        <time>2016-01-17T09:06:06.000Z</time>
      </trkpt>
      <trkpt lat="47.47872" lon="6.8172">
        <ele>357</ele>
        <time>2016-01-17T09:06:08.000Z</time>
      </trkpt>
      <trkpt lat="47.47872" lon="6.81723">
        <ele>357</ele>
        <time>2016-01-17T09:06:09.000Z</time>
      </trkpt>
      <trkpt lat="47.47872" lon="6.81726">
        <ele>357</ele>
        <time>2016-01-17T09:06:10.000Z</time>
      </trkpt>
      <trkpt lat="47.47873" lon="6.8173">
        <ele>356</ele>
        <time>2016-01-17T09:06:11.000Z</time>
      </trkpt>
      <trkpt lat="47.47874" lon="6.81734">
        <ele>356</ele>
        <time>2016-01-17T09:06:12.000Z</time>
      </trkpt>
      <trkpt lat="47.47875" lon="6.81739">
        <ele>356</ele>
        <time>2016-01-17T09:06:13.000Z</time>
      </trkpt>
      <trkpt lat="47.47877" lon="6.81745">
        <ele>356</ele>
        <time>2016-01-17T09:06:14.000Z</time>
      </trkpt>
      <trkpt lat="47.47877" lon="6.81749">
        <ele>356</ele>
        <time>2016-01-17T09:06:15.000Z</time>
      </trkpt>
      <trkpt lat="47.47877" lon="6.81754">
        <ele>354</ele>
        <time>2016-01-17T09:06:16.000Z</time>
      </trkpt>
      <trkpt lat="47.47876" lon="6.81758">
        <ele>354</ele>
        <time>2016-01-17T09:06:17.000Z</time>
      </trkpt>
      <trkpt lat="47.47875" lon="6.81762">
        <ele>354</ele>
        <time>2016-01-17T09:06:18.000Z</time>
      </trkpt>
      <trkpt lat="47.47874" lon="6.81766">
        <ele>354</ele>
        <time>2016-01-17T09:06:19.000Z</time>
      </trkpt>
      <trkpt lat="47.47874" lon="6.8177">
        <ele>354</ele>
        <time>2016-01-17T09:06:20.000Z</time>
      </trkpt>
      <trkpt lat="47.47874" lon="6.81775">
        <ele>354</ele>
        <time>2016-01-17T09:06:21.000Z</time>
      </trkpt>
      <trkpt lat="47.47874" lon="6.81779">
        <ele>354</ele>
        <time>2016-01-17T09:06:22.000Z</time>
      </trkpt>
      <trkpt lat="47.47873" lon="6.81782">
        <ele>354</ele>
        <time>2016-01-17T09:06:23.000Z</time>
      </trkpt>
      <trkpt lat="47.47872" lon="6.81785">
        <ele>354</ele>
        <time>2016-01-17T09:06:24.000Z</time>
      </trkpt>
      <trkpt lat="47.4787" lon="6.81788">
        <ele>354</ele>
        <time>2016-01-17T09:06:25.000Z</time>
      </trkpt>
      <trkpt lat="47.47866" lon="6.81791">
        <ele>354</ele>
        <time>2016-01-17T09:06:27.000Z</time>
      </trkpt>
      <trkpt lat="47.47864" lon="6.81792">
        <ele>354</ele>
        <time>2016-01-17T09:06:28.000Z</time>
      </trkpt>
      <trkpt lat="47.47862" lon="6.81793">
        <ele>354</ele>
        <time>2016-01-17T09:06:29.000Z</time>
      </trkpt>
      <trkpt lat="47.4786" lon="6.81795">
        <ele>354</ele>
        <time>2016-01-17T09:06:30.000Z</time>
      </trkpt>
      <trkpt lat="47.47858" lon="6.81798">
        <ele>354</ele>
        <time>2016-01-17T09:06:31.000Z</time>
      </trkpt>
      <trkpt lat="47.47856" lon="6.81801">
        <ele>354</ele>
        <time>2016-01-17T09:06:32.000Z</time>
      </trkpt>
      <trkpt lat="47.47853" lon="6.81804">
        <ele>354</ele>
        <time>2016-01-17T09:06:33.000Z</time>
      </trkpt>
      <trkpt lat="47.47851" lon="6.81807">
        <ele>354</ele>
        <time>2016-01-17T09:06:34.000Z</time>
      </trkpt>
      <trkpt lat="47.4785" lon="6.81811">
        <ele>354</ele>
        <time>2016-01-17T09:06:35.000Z</time>
      </trkpt>
      <trkpt lat="47.47849" lon="6.81814">
        <ele>354</ele>
        <time>2016-01-17T09:06:36.000Z</time>
      </trkpt>
      <trkpt lat="47.47848" lon="6.81818">
        <ele>354</ele>
        <time>2016-01-17T09:06:37.000Z</time>
      </trkpt>
      <trkpt lat="47.47847" lon="6.81823">
        <ele>354</ele>
        <time>2016-01-17T09:06:38.000Z</time>
      </trkpt>
      <trkpt lat="47.47847" lon="6.81828">
        <ele>354</ele>
        <time>2016-01-17T09:06:39.000Z</time>
      </trkpt>
      <trkpt lat="47.47847" lon="6.81834">
        <ele>355</ele>
        <time>2016-01-17T09:06:40.000Z</time>
      </trkpt>
      <trkpt lat="47.47846" lon="6.81839">
        <ele>355</ele>
        <time>2016-01-17T09:06:41.000Z</time>
      </trkpt>
      <trkpt lat="47.47846" lon="6.81844">
        <ele>355</ele>
        <time>2016-01-17T09:06:42.000Z</time>
      </trkpt>
      <trkpt lat="47.47846" lon="6.81848">
        <ele>355</ele>
        <time>2016-01-17T09:06:43.000Z</time>
      </trkpt>
      <trkpt lat="47.47845" lon="6.81852">
        <ele>356</ele>
        <time>2016-01-17T09:06:44.000Z</time>
      </trkpt>
      <trkpt lat="47.47844" lon="6.81855">
        <ele>356</ele>
        <time>2016-01-17T09:06:45.000Z</time>
      </trkpt>
      <trkpt lat="47.47843" lon="6.81858">
        <ele>356</ele>
        <time>2016-01-17T09:06:46.000Z</time>
      </trkpt>
      <trkpt lat="47.47841" lon="6.81863">
        <ele>356</ele>
        <time>2016-01-17T09:06:48.000Z</time>
      </trkpt>
      <trkpt lat="47.4784" lon="6.81864">
        <ele>357</ele>
        <time>2016-01-17T09:06:49.000Z</time>
      </trkpt>
      <trkpt lat="47.47837" lon="6.81868">
        <ele>357</ele>
        <time>2016-01-17T09:06:51.000Z</time>
      </trkpt>
      <trkpt lat="47.47835" lon="6.8187">
        <ele>357</ele>
        <time>2016-01-17T09:06:52.000Z</time>
      </trkpt>
      <trkpt lat="47.47833" lon="6.81874">
        <ele>361</ele>
        <time>2016-01-17T09:06:54.000Z</time>
      </trkpt>
      <trkpt lat="47.47833" lon="6.81876">
        <ele>362</ele>
        <time>2016-01-17T09:06:55.000Z</time>
      </trkpt>
      <trkpt lat="47.47832" lon="6.81882">
        <ele>362</ele>
        <time>2016-01-17T09:06:58.000Z</time>
      </trkpt>
      <trkpt lat="47.47832" lon="6.81884">
        <ele>362</ele>
        <time>2016-01-17T09:06:59.000Z</time>
      </trkpt>
      <trkpt lat="47.47831" lon="6.81889">
        <ele>362</ele>
        <time>2016-01-17T09:07:03.000Z</time>
      </trkpt>
      <trkpt lat="47.47831" lon="6.81891">
        <ele>362</ele>
        <time>2016-01-17T09:07:04.000Z</time>
      </trkpt>
      <trkpt lat="47.47828" lon="6.81894">
        <ele>363</ele>
        <time>2016-01-17T09:07:07.000Z</time>
      </trkpt>
      <trkpt lat="47.47827" lon="6.81896">
        <ele>363</ele>
        <time>2016-01-17T09:07:08.000Z</time>
      </trkpt>
      <trkpt lat="47.47824" lon="6.81898">
        <ele>363</ele>
        <time>2016-01-17T09:07:10.000Z</time>
      </trkpt>
      <trkpt lat="47.47823" lon="6.819">
        <ele>363</ele>
        <time>2016-01-17T09:07:11.000Z</time>
      </trkpt>
      <trkpt lat="47.4782" lon="6.81903">
        <ele>363</ele>
        <time>2016-01-17T09:07:14.000Z</time>
      </trkpt>
      <trkpt lat="47.47818" lon="6.81904">
        <ele>363</ele>
        <time>2016-01-17T09:07:15.000Z</time>
      </trkpt>
      <trkpt lat="47.47816" lon="6.81909">
        <ele>363</ele>
        <time>2016-01-17T09:07:19.000Z</time>
      </trkpt>
      <trkpt lat="47.47815" lon="6.81911">
        <ele>363</ele>
        <time>2016-01-17T09:07:20.000Z</time>
      </trkpt>
      <trkpt lat="47.47812" lon="6.81915">
        <ele>363</ele>
        <time>2016-01-17T09:07:23.000Z</time>
      </trkpt>
      <trkpt lat="47.47812" lon="6.81916">
        <ele>363</ele>
        <time>2016-01-17T09:07:24.000Z</time>
      </trkpt>
      <trkpt lat="47.4781" lon="6.81921">
        <ele>366</ele>
        <time>2016-01-17T09:07:27.000Z</time>
      </trkpt>
      <trkpt lat="47.47809" lon="6.81922">
        <ele>366</ele>
        <time>2016-01-17T09:07:28.000Z</time>
      </trkpt>
      <trkpt lat="47.47807" lon="6.81926">
        <ele>367</ele>
        <time>2016-01-17T09:07:31.000Z</time>
      </trkpt>
      <trkpt lat="47.47805" lon="6.81927">
        <ele>367</ele>
        <time>2016-01-17T09:07:32.000Z</time>
      </trkpt>
      <trkpt lat="47.47802" lon="6.81929">
        <ele>367</ele>
        <time>2016-01-17T09:07:34.000Z</time>
      </trkpt>
      <trkpt lat="47.47801" lon="6.8193">
        <ele>367</ele>
        <time>2016-01-17T09:07:35.000Z</time>
      </trkpt>
      <trkpt lat="47.47798" lon="6.81933">
        <ele>367</ele>
        <time>2016-01-17T09:07:37.000Z</time>
      </trkpt>
      <trkpt lat="47.47797" lon="6.81935">
        <ele>368</ele>
        <time>2016-01-17T09:07:38.000Z</time>
      </trkpt>
      <trkpt lat="47.47793" lon="6.81939">
        <ele>368</ele>
        <time>2016-01-17T09:07:41.000Z</time>
      </trkpt>
      <trkpt lat="47.47793" lon="6.8194">
        <ele>368</ele>
        <time>2016-01-17T09:07:42.000Z</time>
      </trkpt>
      <trkpt lat="47.47791" lon="6.81945">
        <ele>368</ele>
        <time>2016-01-17T09:07:45.000Z</time>
      </trkpt>
      <trkpt lat="47.47791" lon="6.81946">
        <ele>368</ele>
        <time>2016-01-17T09:07:46.000Z</time>
      </trkpt>
      <trkpt lat="47.47789" lon="6.81951">
        <ele>368</ele>
        <time>2016-01-17T09:07:49.000Z</time>
      </trkpt>
      <trkpt lat="47.47788" lon="6.81952">
        <ele>369</ele>
        <time>2016-01-17T09:07:50.000Z</time>
      </trkpt>
      <trkpt lat="47.47785" lon="6.81954">
        <ele>369</ele>
        <time>2016-01-17T09:07:52.000Z</time>
      </trkpt>
      <trkpt lat="47.47784" lon="6.81955">
        <ele>369</ele>
        <time>2016-01-17T09:07:53.000Z</time>
      </trkpt>
      <trkpt lat="47.4778" lon="6.81959">
        <ele>369</ele>
        <time>2016-01-17T09:07:55.000Z</time>
      </trkpt>
      <trkpt lat="47.47779" lon="6.81961">
        <ele>369</ele>
        <time>2016-01-17T09:07:56.000Z</time>
      </trkpt>
      <trkpt lat="47.47776" lon="6.81964">
        <ele>369</ele>
        <time>2016-01-17T09:07:58.000Z</time>
      </trkpt>
      <trkpt lat="47.47774" lon="6.81966">
        <ele>370</ele>
        <time>2016-01-17T09:07:59.000Z</time>
      </trkpt>
      <trkpt lat="47.47771" lon="6.81969">
        <ele>370</ele>
        <time>2016-01-17T09:08:01.000Z</time>
      </trkpt>
      <trkpt lat="47.4777" lon="6.81971">
        <ele>370</ele>
        <time>2016-01-17T09:08:02.000Z</time>
      </trkpt>
      <trkpt lat="47.47767" lon="6.81974">
        <ele>370</ele>
        <time>2016-01-17T09:08:04.000Z</time>
      </trkpt>
      <trkpt lat="47.47766" lon="6.81975">
        <ele>370</ele>
        <time>2016-01-17T09:08:05.000Z</time>
      </trkpt>
      <trkpt lat="47.47764" lon="6.81978">
        <ele>371</ele>
        <time>2016-01-17T09:08:07.000Z</time>
      </trkpt>
      <trkpt lat="47.47762" lon="6.8198">
        <ele>371</ele>
        <time>2016-01-17T09:08:08.000Z</time>
      </trkpt>
      <trkpt lat="47.4776" lon="6.81984">
        <ele>371</ele>
        <time>2016-01-17T09:08:10.000Z</time>
      </trkpt>
      <trkpt lat="47.47759" lon="6.81986">
        <ele>371</ele>
        <time>2016-01-17T09:08:11.000Z</time>
      </trkpt>
      <trkpt lat="47.47757" lon="6.81989">
        <ele>372</ele>
        <time>2016-01-17T09:08:13.000Z</time>
      </trkpt>
      <trkpt lat="47.47755" lon="6.81991">
        <ele>372</ele>
        <time>2016-01-17T09:08:14.000Z</time>
      </trkpt>
      <trkpt lat="47.47753" lon="6.81994">
        <ele>373</ele>
        <time>2016-01-17T09:08:15.000Z</time>
      </trkpt>
      <trkpt lat="47.4775" lon="6.81997">
        <ele>373</ele>
        <time>2016-01-17T09:08:16.000Z</time>
      </trkpt>
      <trkpt lat="47.47749" lon="6.81999">
        <ele>374</ele>
        <time>2016-01-17T09:08:17.000Z</time>
      </trkpt>
      <trkpt lat="47.47747" lon="6.82002">
        <ele>374</ele>
        <time>2016-01-17T09:08:18.000Z</time>
      </trkpt>
      <trkpt lat="47.47745" lon="6.82004">
        <ele>375</ele>
        <time>2016-01-17T09:08:19.000Z</time>
      </trkpt>
      <trkpt lat="47.47743" lon="6.82006">
        <ele>375</ele>
        <time>2016-01-17T09:08:20.000Z</time>
      </trkpt>
      <trkpt lat="47.4774" lon="6.82008">
        <ele>375</ele>
        <time>2016-01-17T09:08:21.000Z</time>
      </trkpt>
      <trkpt lat="47.47737" lon="6.8201">
        <ele>375</ele>
        <time>2016-01-17T09:08:22.000Z</time>
      </trkpt>
      <trkpt lat="47.47734" lon="6.82012">
        <ele>375</ele>
        <time>2016-01-17T09:08:23.000Z</time>
      </trkpt>
      <trkpt lat="47.47732" lon="6.82013">
        <ele>376</ele>
        <time>2016-01-17T09:08:24.000Z</time>
      </trkpt>
      <trkpt lat="47.47728" lon="6.82015">
        <ele>376</ele>
        <time>2016-01-17T09:08:26.000Z</time>
      </trkpt>
      <trkpt lat="47.47726" lon="6.82017">
        <ele>376</ele>
        <time>2016-01-17T09:08:27.000Z</time>
      </trkpt>
      <trkpt lat="47.47724" lon="6.82021">
        <ele>376</ele>
        <time>2016-01-17T09:08:29.000Z</time>
      </trkpt>
      <trkpt lat="47.47722" lon="6.82023">
        <ele>376</ele>
        <time>2016-01-17T09:08:30.000Z</time>
      </trkpt>
      <trkpt lat="47.47721" lon="6.82027">
        <ele>376</ele>
        <time>2016-01-17T09:08:32.000Z</time>
      </trkpt>
      <trkpt lat="47.47721" lon="6.82029">
        <ele>376</ele>
        <time>2016-01-17T09:08:33.000Z</time>
      </trkpt>
      <trkpt lat="47.47719" lon="6.82033">
        <ele>376</ele>
        <time>2016-01-17T09:08:35.000Z</time>
      </trkpt>
      <trkpt lat="47.47717" lon="6.82035">
        <ele>376</ele>
        <time>2016-01-17T09:08:36.000Z</time>
      </trkpt>
      <trkpt lat="47.47714" lon="6.82037">
        <ele>377</ele>
        <time>2016-01-17T09:08:38.000Z</time>
      </trkpt>
      <trkpt lat="47.47711" lon="6.82038">
        <ele>377</ele>
        <time>2016-01-17T09:08:39.000Z</time>
      </trkpt>
      <trkpt lat="47.47709" lon="6.82039">
        <ele>377</ele>
        <time>2016-01-17T09:08:40.000Z</time>
      </trkpt>
      <trkpt lat="47.47707" lon="6.82041">
        <ele>377</ele>
        <time>2016-01-17T09:08:41.000Z</time>
      </trkpt>
      <trkpt lat="47.47704" lon="6.82043">
        <ele>377</ele>
        <time>2016-01-17T09:08:43.000Z</time>
      </trkpt>
      <trkpt lat="47.47702" lon="6.82045">
        <ele>377</ele>
        <time>2016-01-17T09:08:44.000Z</time>
      </trkpt>
      <trkpt lat="47.477" lon="6.82048">
        <ele>377</ele>
        <time>2016-01-17T09:08:45.000Z</time>
      </trkpt>
      <trkpt lat="47.47698" lon="6.8205">
        <ele>377</ele>
        <time>2016-01-17T09:08:46.000Z</time>
      </trkpt>
      <trkpt lat="47.47695" lon="6.82055">
        <ele>377</ele>
        <time>2016-01-17T09:08:48.000Z</time>
      </trkpt>
      <trkpt lat="47.47694" lon="6.82056">
        <ele>377</ele>
        <time>2016-01-17T09:08:49.000Z</time>
      </trkpt>
      <trkpt lat="47.4769" lon="6.82059">
        <ele>378</ele>
        <time>2016-01-17T09:08:52.000Z</time>
      </trkpt>
      <trkpt lat="47.47688" lon="6.8206">
        <ele>378</ele>
        <time>2016-01-17T09:08:53.000Z</time>
      </trkpt>
      <trkpt lat="47.47685" lon="6.82061">
        <ele>378</ele>
        <time>2016-01-17T09:08:55.000Z</time>
      </trkpt>
      <trkpt lat="47.47683" lon="6.82062">
        <ele>378</ele>
        <time>2016-01-17T09:08:56.000Z</time>
      </trkpt>
      <trkpt lat="47.47679" lon="6.82064">
        <ele>378</ele>
        <time>2016-01-17T09:08:58.000Z</time>
      </trkpt>
      <trkpt lat="47.47678" lon="6.82066">
        <ele>378</ele>
        <time>2016-01-17T09:08:59.000Z</time>
      </trkpt>
      <trkpt lat="47.47674" lon="6.82068">
        <ele>378</ele>
        <time>2016-01-17T09:09:01.000Z</time>
      </trkpt>
      <trkpt lat="47.47672" lon="6.82068">
        <ele>378</ele>
        <time>2016-01-17T09:09:02.000Z</time>
      </trkpt>
      <trkpt lat="47.4767" lon="6.82069">
        <ele>379</ele>
        <time>2016-01-17T09:09:03.000Z</time>
      </trkpt>
      <trkpt lat="47.47667" lon="6.8207">
        <ele>379</ele>
        <time>2016-01-17T09:09:04.000Z</time>
      </trkpt>
      <trkpt lat="47.47663" lon="6.82072">
        <ele>381</ele>
        <time>2016-01-17T09:09:06.000Z</time>
      </trkpt>
      <trkpt lat="47.47661" lon="6.82073">
        <ele>381</ele>
        <time>2016-01-17T09:09:07.000Z</time>
      </trkpt>
      <trkpt lat="47.47657" lon="6.82075">
        <ele>381</ele>
        <time>2016-01-17T09:09:09.000Z</time>
      </trkpt>
      <trkpt lat="47.47655" lon="6.82076">
        <ele>381</ele>
        <time>2016-01-17T09:09:10.000Z</time>
      </trkpt>
      <trkpt lat="47.47653" lon="6.82079">
        <ele>381</ele>
        <time>2016-01-17T09:09:12.000Z</time>
      </trkpt>
      <trkpt lat="47.47651" lon="6.82079">
        <ele>382</ele>
        <time>2016-01-17T09:09:13.000Z</time>
      </trkpt>
      <trkpt lat="47.47647" lon="6.82081">
        <ele>382</ele>
        <time>2016-01-17T09:09:15.000Z</time>
      </trkpt>
      <trkpt lat="47.47645" lon="6.82081">
        <ele>382</ele>
        <time>2016-01-17T09:09:16.000Z</time>
      </trkpt>
      <trkpt lat="47.4764" lon="6.8208">
        <ele>382</ele>
        <time>2016-01-17T09:09:18.000Z</time>
      </trkpt>
      <trkpt lat="47.47638" lon="6.8208">
        <ele>383</ele>
        <time>2016-01-17T09:09:19.000Z</time>
      </trkpt>
      <trkpt lat="47.47635" lon="6.8208">
        <ele>383</ele>
        <time>2016-01-17T09:09:20.000Z</time>
      </trkpt>
      <trkpt lat="47.47633" lon="6.82079">
        <ele>383</ele>
        <time>2016-01-17T09:09:21.000Z</time>
      </trkpt>
      <trkpt lat="47.47631" lon="6.82079">
        <ele>383</ele>
        <time>2016-01-17T09:09:22.000Z</time>
      </trkpt>
      <trkpt lat="47.47628" lon="6.82079">
        <ele>383</ele>
        <time>2016-01-17T09:09:23.000Z</time>
      </trkpt>
      <trkpt lat="47.47624" lon="6.82079">
        <ele>383</ele>
        <time>2016-01-17T09:09:25.000Z</time>
      </trkpt>
      <trkpt lat="47.47622" lon="6.82079">
        <ele>383</ele>
        <time>2016-01-17T09:09:26.000Z</time>
      </trkpt>
      <trkpt lat="47.47618" lon="6.82079">
        <ele>384</ele>
        <time>2016-01-17T09:09:28.000Z</time>
      </trkpt>
      <trkpt lat="47.47616" lon="6.82078">
        <ele>384</ele>
        <time>2016-01-17T09:09:29.000Z</time>
      </trkpt>
      <trkpt lat="47.47612" lon="6.82078">
        <ele>384</ele>
        <time>2016-01-17T09:09:31.000Z</time>
      </trkpt>
      <trkpt lat="47.4761" lon="6.82077">
        <ele>384</ele>
        <time>2016-01-17T09:09:32.000Z</time>
      </trkpt>
      <trkpt lat="47.47608" lon="6.82076">
        <ele>384</ele>
        <time>2016-01-17T09:09:33.000Z</time>
      </trkpt>
      <trkpt lat="47.47605" lon="6.82075">
        <ele>384</ele>
        <time>2016-01-17T09:09:34.000Z</time>
      </trkpt>
      <trkpt lat="47.47603" lon="6.82074">
        <ele>385</ele>
        <time>2016-01-17T09:09:35.000Z</time>
      </trkpt>
      <trkpt lat="47.476" lon="6.82073">
        <ele>385</ele>
        <time>2016-01-17T09:09:36.000Z</time>
      </trkpt>
      <trkpt lat="47.47598" lon="6.82071">
        <ele>385</ele>
        <time>2016-01-17T09:09:37.000Z</time>
      </trkpt>
      <trkpt lat="47.47596" lon="6.8207">
        <ele>385</ele>
        <time>2016-01-17T09:09:38.000Z</time>
      </trkpt>
      <trkpt lat="47.47592" lon="6.82067">
        <ele>385</ele>
        <time>2016-01-17T09:09:40.000Z</time>
      </trkpt>
      <trkpt lat="47.4759" lon="6.82066">
        <ele>385</ele>
        <time>2016-01-17T09:09:41.000Z</time>
      </trkpt>
      <trkpt lat="47.47587" lon="6.82064">
        <ele>385</ele>
        <time>2016-01-17T09:09:43.000Z</time>
      </trkpt>
      <trkpt lat="47.47585" lon="6.82062">
        <ele>385</ele>
        <time>2016-01-17T09:09:44.000Z</time>
      </trkpt>
      <trkpt lat="47.47581" lon="6.8206">
        <ele>387</ele>
        <time>2016-01-17T09:09:46.000Z</time>
      </trkpt>
      <trkpt lat="47.47579" lon="6.82059">
        <ele>387</ele>
        <time>2016-01-17T09:09:47.000Z</time>
      </trkpt>
      <trkpt lat="47.47576" lon="6.82056">
        <ele>387</ele>
        <time>2016-01-17T09:09:49.000Z</time>
      </trkpt>
      <trkpt lat="47.47574" lon="6.82055">
        <ele>387</ele>
        <time>2016-01-17T09:09:50.000Z</time>
      </trkpt>
      <trkpt lat="47.47572" lon="6.82052">
        <ele>387</ele>
        <time>2016-01-17T09:09:52.000Z</time>
      </trkpt>
      <trkpt lat="47.4757" lon="6.82051">
        <ele>387</ele>
        <time>2016-01-17T09:09:53.000Z</time>
      </trkpt>
      <trkpt lat="47.47568" lon="6.82049">
        <ele>387</ele>
        <time>2016-01-17T09:09:55.000Z</time>
      </trkpt>
      <trkpt lat="47.47566" lon="6.82048">
        <ele>387</ele>
        <time>2016-01-17T09:09:56.000Z</time>
      </trkpt>
      <trkpt lat="47.47562" lon="6.82048">
        <ele>387</ele>
        <time>2016-01-17T09:09:58.000Z</time>
      </trkpt>
      <trkpt lat="47.47559" lon="6.82049">
        <ele>387</ele>
        <time>2016-01-17T09:09:59.000Z</time>
      </trkpt>
      <trkpt lat="47.47557" lon="6.82049">
        <ele>387</ele>
        <time>2016-01-17T09:10:00.000Z</time>
      </trkpt>
      <trkpt lat="47.47554" lon="6.8205">
        <ele>387</ele>
        <time>2016-01-17T09:10:01.000Z</time>
      </trkpt>
      <trkpt lat="47.47551" lon="6.8205">
        <ele>387</ele>
        <time>2016-01-17T09:10:02.000Z</time>
      </trkpt>
      <trkpt lat="47.47548" lon="6.82051">
        <ele>387</ele>
        <time>2016-01-17T09:10:03.000Z</time>
      </trkpt>
      <trkpt lat="47.47545" lon="6.82051">
        <ele>386</ele>
        <time>2016-01-17T09:10:04.000Z</time>
      </trkpt>
      <trkpt lat="47.47542" lon="6.82051">
        <ele>386</ele>
        <time>2016-01-17T09:10:05.000Z</time>
      </trkpt>
      <trkpt lat="47.47539" lon="6.82051">
        <ele>386</ele>
        <time>2016-01-17T09:10:06.000Z</time>
      </trkpt>
      <trkpt lat="47.47536" lon="6.82052">
        <ele>386</ele>
        <time>2016-01-17T09:10:07.000Z</time>
      </trkpt>
      <trkpt lat="47.47533" lon="6.82051">
        <ele>386</ele>
        <time>2016-01-17T09:10:08.000Z</time>
      </trkpt>
      <trkpt lat="47.47531" lon="6.8205">
        <ele>386</ele>
        <time>2016-01-17T09:10:09.000Z</time>
      </trkpt>
      <trkpt lat="47.47528" lon="6.82049">
        <ele>386</ele>
        <time>2016-01-17T09:10:10.000Z</time>
      </trkpt>
      <trkpt lat="47.47525" lon="6.82047">
        <ele>386</ele>
        <time>2016-01-17T09:10:11.000Z</time>
      </trkpt>
      <trkpt lat="47.47523" lon="6.82046">
        <ele>386</ele>
        <time>2016-01-17T09:10:12.000Z</time>
      </trkpt>
      <trkpt lat="47.4752" lon="6.82046">
        <ele>386</ele>
        <time>2016-01-17T09:10:13.000Z</time>
      </trkpt>
      <trkpt lat="47.47518" lon="6.82045">
        <ele>386</ele>
        <time>2016-01-17T09:10:14.000Z</time>
      </trkpt>
      <trkpt lat="47.47515" lon="6.82045">
        <ele>386</ele>
        <time>2016-01-17T09:10:15.000Z</time>
      </trkpt>
      <trkpt lat="47.47512" lon="6.82045">
        <ele>386</ele>
        <time>2016-01-17T09:10:16.000Z</time>
      </trkpt>
      <trkpt lat="47.47508" lon="6.82046">
        <ele>386</ele>
        <time>2016-01-17T09:10:17.000Z</time>
      </trkpt>
      <trkpt lat="47.47504" lon="6.82048">
        <ele>386</ele>
        <time>2016-01-17T09:10:18.000Z</time>
      </trkpt>
      <trkpt lat="47.47499" lon="6.82049">
        <ele>383</ele>
        <time>2016-01-17T09:10:19.000Z</time>
      </trkpt>
      <trkpt lat="47.47495" lon="6.82051">
        <ele>383</ele>
        <time>2016-01-17T09:10:20.000Z</time>
      </trkpt>
      <trkpt lat="47.47491" lon="6.82052">
        <ele>383</ele>
        <time>2016-01-17T09:10:21.000Z</time>
      </trkpt>
      <trkpt lat="47.47487" lon="6.82053">
        <ele>383</ele>
        <time>2016-01-17T09:10:22.000Z</time>
      </trkpt>
      <trkpt lat="47.47482" lon="6.82055">
        <ele>383</ele>
        <time>2016-01-17T09:10:23.000Z</time>
      </trkpt>
      <trkpt lat="47.47478" lon="6.82056">
        <ele>382</ele>
        <time>2016-01-17T09:10:24.000Z</time>
      </trkpt>
      <trkpt lat="47.47473" lon="6.82058">
        <ele>382</ele>
        <time>2016-01-17T09:10:25.000Z</time>
      </trkpt>
      <trkpt lat="47.47465" lon="6.82058">
        <ele>382</ele>
        <time>2016-01-17T09:10:26.000Z</time>
      </trkpt>
      <trkpt lat="47.47461" lon="6.82058">
        <ele>382</ele>
        <time>2016-01-17T09:10:27.000Z</time>
      </trkpt>
      <trkpt lat="47.47456" lon="6.82059">
        <ele>382</ele>
        <time>2016-01-17T09:10:28.000Z</time>
      </trkpt>
      <trkpt lat="47.47452" lon="6.82059">
        <ele>382</ele>
        <time>2016-01-17T09:10:29.000Z</time>
      </trkpt>
      <trkpt lat="47.47449" lon="6.82057">
        <ele>382</ele>
        <time>2016-01-17T09:10:30.000Z</time>
      </trkpt>
      <trkpt lat="47.47446" lon="6.82057">
        <ele>381</ele>
        <time>2016-01-17T09:10:31.000Z</time>
      </trkpt>
      <trkpt lat="47.47442" lon="6.82057">
        <ele>381</ele>
        <time>2016-01-17T09:10:32.000Z</time>
      </trkpt>
      <trkpt lat="47.47437" lon="6.82056">
        <ele>381</ele>
        <time>2016-01-17T09:10:34.000Z</time>
      </trkpt>
      <trkpt lat="47.47434" lon="6.82054">
        <ele>381</ele>
        <time>2016-01-17T09:10:35.000Z</time>
      </trkpt>
      <trkpt lat="47.47431" lon="6.82053">
        <ele>381</ele>
        <time>2016-01-17T09:10:36.000Z</time>
      </trkpt>
      <trkpt lat="47.47428" lon="6.8205">
        <ele>381</ele>
        <time>2016-01-17T09:10:37.000Z</time>
      </trkpt>
      <trkpt lat="47.47425" lon="6.82048">
        <ele>381</ele>
        <time>2016-01-17T09:10:38.000Z</time>
      </trkpt>
      <trkpt lat="47.47422" lon="6.82045">
        <ele>381</ele>
        <time>2016-01-17T09:10:39.000Z</time>
      </trkpt>
      <trkpt lat="47.47418" lon="6.82043">
        <ele>381</ele>
        <time>2016-01-17T09:10:40.000Z</time>
      </trkpt>
      <trkpt lat="47.47415" lon="6.8204">
        <ele>379</ele>
        <time>2016-01-17T09:10:41.000Z</time>
      </trkpt>
      <trkpt lat="47.47411" lon="6.82039">
        <ele>379</ele>
        <time>2016-01-17T09:10:42.000Z</time>
      </trkpt>
      <trkpt lat="47.47407" lon="6.82037">
        <ele>379</ele>
        <time>2016-01-17T09:10:43.000Z</time>
      </trkpt>
      <trkpt lat="47.47404" lon="6.82034">
        <ele>379</ele>
        <time>2016-01-17T09:10:44.000Z</time>
      </trkpt>
      <trkpt lat="47.474" lon="6.82033">
        <ele>379</ele>
        <time>2016-01-17T09:10:45.000Z</time>
      </trkpt>
      <trkpt lat="47.47396" lon="6.8203">
        <ele>379</ele>
        <time>2016-01-17T09:10:46.000Z</time>
      </trkpt>
      <trkpt lat="47.47391" lon="6.82028">
        <ele>379</ele>
        <time>2016-01-17T09:10:47.000Z</time>
      </trkpt>
      <trkpt lat="47.47387" lon="6.82025">
        <ele>379</ele>
        <time>2016-01-17T09:10:48.000Z</time>
      </trkpt>
      <trkpt lat="47.47382" lon="6.82022">
        <ele>379</ele>
        <time>2016-01-17T09:10:49.000Z</time>
      </trkpt>
      <trkpt lat="47.47377" lon="6.82019">
        <ele>379</ele>
        <time>2016-01-17T09:10:50.000Z</time>
      </trkpt>
      <trkpt lat="47.47372" lon="6.82017">
        <ele>378</ele>
        <time>2016-01-17T09:10:51.000Z</time>
      </trkpt>
      <trkpt lat="47.47368" lon="6.82017">
        <ele>378</ele>
        <time>2016-01-17T09:10:52.000Z</time>
      </trkpt>
      <trkpt lat="47.47364" lon="6.82017">
        <ele>378</ele>
        <time>2016-01-17T09:10:53.000Z</time>
      </trkpt>
      <trkpt lat="47.47361" lon="6.82018">
        <ele>378</ele>
        <time>2016-01-17T09:10:54.000Z</time>
      </trkpt>
      <trkpt lat="47.47358" lon="6.82019">
        <ele>378</ele>
        <time>2016-01-17T09:10:55.000Z</time>
      </trkpt>
      <trkpt lat="47.47354" lon="6.82019">
        <ele>378</ele>
        <time>2016-01-17T09:10:57.000Z</time>
      </trkpt>
      <trkpt lat="47.47352" lon="6.82019">
        <ele>378</ele>
        <time>2016-01-17T09:10:58.000Z</time>
      </trkpt>
      <trkpt lat="47.47348" lon="6.82018">
        <ele>378</ele>
        <time>2016-01-17T09:11:00.000Z</time>
      </trkpt>
      <trkpt lat="47.47346" lon="6.82018">
        <ele>378</ele>
        <time>2016-01-17T09:11:01.000Z</time>
      </trkpt>
      <trkpt lat="47.47342" lon="6.82016">
        <ele>378</ele>
        <time>2016-01-17T09:11:02.999Z</time>
      </trkpt>
      <trkpt lat="47.4734" lon="6.82016">
        <ele>378</ele>
        <time>2016-01-17T09:11:04.000Z</time>
      </trkpt>
      <trkpt lat="47.47337" lon="6.82016">
        <ele>378</ele>
        <time>2016-01-17T09:11:06.000Z</time>
      </trkpt>
      <trkpt lat="47.47335" lon="6.82016">
        <ele>378</ele>
        <time>2016-01-17T09:11:07.000Z</time>
      </trkpt>
      <trkpt lat="47.47333" lon="6.82017">
        <ele>380</ele>
        <time>2016-01-17T09:11:08.000Z</time>
      </trkpt>
      <trkpt lat="47.47331" lon="6.82018">
        <ele>380</ele>
        <time>2016-01-17T09:11:09.001Z</time>
      </trkpt>
      <trkpt lat="47.47328" lon="6.82022">
        <ele>381</ele>
        <time>2016-01-17T09:11:11.001Z</time>
      </trkpt>
      <trkpt lat="47.47327" lon="6.82025">
        <ele>381</ele>
        <time>2016-01-17T09:11:12.000Z</time>
      </trkpt>
      <trkpt lat="47.47325" lon="6.8203">
        <ele>381</ele>
        <time>2016-01-17T09:11:14.000Z</time>
      </trkpt>
      <trkpt lat="47.47324" lon="6.82033">
        <ele>381</ele>
        <time>2016-01-17T09:11:15.000Z</time>
      </trkpt>
      <trkpt lat="47.47323" lon="6.82038">
        <ele>382</ele>
        <time>2016-01-17T09:11:17.000Z</time>
      </trkpt>
      <trkpt lat="47.47322" lon="6.82041">
        <ele>382</ele>
        <time>2016-01-17T09:11:18.000Z</time>
      </trkpt>
      <trkpt lat="47.47321" lon="6.82047">
        <ele>382</ele>
        <time>2016-01-17T09:11:20.000Z</time>
      </trkpt>
      <trkpt lat="47.47321" lon="6.8205">
        <ele>382</ele>
        <time>2016-01-17T09:11:21.000Z</time>
      </trkpt>
      <trkpt lat="47.47319" lon="6.82055">
        <ele>382</ele>
        <time>2016-01-17T09:11:23.000Z</time>
      </trkpt>
      <trkpt lat="47.47319" lon="6.82058">
        <ele>381</ele>
        <time>2016-01-17T09:11:24.000Z</time>
      </trkpt>
      <trkpt lat="47.47317" lon="6.82064">
        <ele>381</ele>
        <time>2016-01-17T09:11:26.000Z</time>
      </trkpt>
      <trkpt lat="47.47317" lon="6.82067">
        <ele>381</ele>
        <time>2016-01-17T09:11:27.000Z</time>
      </trkpt>
      <trkpt lat="47.47316" lon="6.82073">
        <ele>381</ele>
        <time>2016-01-17T09:11:29.000Z</time>
      </trkpt>
      <trkpt lat="47.47315" lon="6.82076">
        <ele>381</ele>
        <time>2016-01-17T09:11:30.000Z</time>
      </trkpt>
      <trkpt lat="47.47313" lon="6.82081">
        <ele>381</ele>
        <time>2016-01-17T09:11:32.000Z</time>
      </trkpt>
      <trkpt lat="47.47312" lon="6.82084">
        <ele>381</ele>
        <time>2016-01-17T09:11:33.000Z</time>
      </trkpt>
      <trkpt lat="47.47311" lon="6.82088">
        <ele>381</ele>
        <time>2016-01-17T09:11:35.000Z</time>
      </trkpt>
      <trkpt lat="47.4731" lon="6.8209">
        <ele>381</ele>
        <time>2016-01-17T09:11:36.000Z</time>
      </trkpt>
      <trkpt lat="47.47308" lon="6.82094">
        <ele>381</ele>
        <time>2016-01-17T09:11:38.000Z</time>
      </trkpt>
      <trkpt lat="47.47307" lon="6.82097">
        <ele>382</ele>
        <time>2016-01-17T09:11:39.000Z</time>
      </trkpt>
      <trkpt lat="47.47306" lon="6.82101">
        <ele>382</ele>
        <time>2016-01-17T09:11:41.000Z</time>
      </trkpt>
      <trkpt lat="47.47306" lon="6.82103">
        <ele>382</ele>
        <time>2016-01-17T09:11:42.000Z</time>
      </trkpt>
      <trkpt lat="47.47305" lon="6.82108">
        <ele>382</ele>
        <time>2016-01-17T09:11:44.000Z</time>
      </trkpt>
      <trkpt lat="47.47304" lon="6.82111">
        <ele>382</ele>
        <time>2016-01-17T09:11:45.000Z</time>
      </trkpt>
      <trkpt lat="47.47302" lon="6.82116">
        <ele>382</ele>
        <time>2016-01-17T09:11:47.000Z</time>
      </trkpt>
      <trkpt lat="47.47301" lon="6.82118">
        <ele>382</ele>
        <time>2016-01-17T09:11:48.000Z</time>
      </trkpt>
      <trkpt lat="47.473" lon="6.82123">
        <ele>382</ele>
        <time>2016-01-17T09:11:50.000Z</time>
      </trkpt>
      <trkpt lat="47.47299" lon="6.82125">
        <ele>382</ele>
        <time>2016-01-17T09:11:51.000Z</time>
      </trkpt>
      <trkpt lat="47.47297" lon="6.82131">
        <ele>382</ele>
        <time>2016-01-17T09:11:53.000Z</time>
      </trkpt>
      <trkpt lat="47.47296" lon="6.82133">
        <ele>382</ele>
        <time>2016-01-17T09:11:54.000Z</time>
      </trkpt>
      <trkpt lat="47.47294" lon="6.82138">
        <ele>382</ele>
        <time>2016-01-17T09:11:56.000Z</time>
      </trkpt>
      <trkpt lat="47.47294" lon="6.82141">
        <ele>382</ele>
        <time>2016-01-17T09:11:57.000Z</time>
      </trkpt>
      <trkpt lat="47.47293" lon="6.82146">
        <ele>383</ele>
        <time>2016-01-17T09:11:59.000Z</time>
      </trkpt>
      <trkpt lat="47.47292" lon="6.82149">
        <ele>383</ele>
        <time>2016-01-17T09:12:00.000Z</time>
      </trkpt>
      <trkpt lat="47.4729" lon="6.82154">
        <ele>383</ele>
        <time>2016-01-17T09:12:02.000Z</time>
      </trkpt>
      <trkpt lat="47.47289" lon="6.82157">
        <ele>383</ele>
        <time>2016-01-17T09:12:03.000Z</time>
      </trkpt>
      <trkpt lat="47.47287" lon="6.82162">
        <ele>383</ele>
        <time>2016-01-17T09:12:05.000Z</time>
      </trkpt>
      <trkpt lat="47.47286" lon="6.82164">
        <ele>383</ele>
        <time>2016-01-17T09:12:06.000Z</time>
      </trkpt>
      <trkpt lat="47.47285" lon="6.82169">
        <ele>382</ele>
        <time>2016-01-17T09:12:08.000Z</time>
      </trkpt>
      <trkpt lat="47.47284" lon="6.82172">
        <ele>383</ele>
        <time>2016-01-17T09:12:09.000Z</time>
      </trkpt>
      <trkpt lat="47.47282" lon="6.82177">
        <ele>383</ele>
        <time>2016-01-17T09:12:11.000Z</time>
      </trkpt>
      <trkpt lat="47.47282" lon="6.8218">
        <ele>383</ele>
        <time>2016-01-17T09:12:12.000Z</time>
      </trkpt>
      <trkpt lat="47.47279" lon="6.82185">
        <ele>383</ele>
        <time>2016-01-17T09:12:14.000Z</time>
      </trkpt>
      <trkpt lat="47.47278" lon="6.82188">
        <ele>383</ele>
        <time>2016-01-17T09:12:15.000Z</time>
      </trkpt>
      <trkpt lat="47.47276" lon="6.82193">
        <ele>383</ele>
        <time>2016-01-17T09:12:17.000Z</time>
      </trkpt>
      <trkpt lat="47.47275" lon="6.82196">
        <ele>383</ele>
        <time>2016-01-17T09:12:18.000Z</time>
      </trkpt>
      <trkpt lat="47.47273" lon="6.82201">
        <ele>383</ele>
        <time>2016-01-17T09:12:20.000Z</time>
      </trkpt>
      <trkpt lat="47.47272" lon="6.82204">
        <ele>383</ele>
        <time>2016-01-17T09:12:21.000Z</time>
      </trkpt>
      <trkpt lat="47.47271" lon="6.82209">
        <ele>383</ele>
        <time>2016-01-17T09:12:23.000Z</time>
      </trkpt>
      <trkpt lat="47.4727" lon="6.82212">
        <ele>383</ele>
        <time>2016-01-17T09:12:24.000Z</time>
      </trkpt>
      <trkpt lat="47.47268" lon="6.82217">
        <ele>383</ele>
        <time>2016-01-17T09:12:26.000Z</time>
      </trkpt>
      <trkpt lat="47.47267" lon="6.8222">
        <ele>383</ele>
        <time>2016-01-17T09:12:27.000Z</time>
      </trkpt>
      <trkpt lat="47.47266" lon="6.82225">
        <ele>384</ele>
        <time>2016-01-17T09:12:29.000Z</time>
      </trkpt>
      <trkpt lat="47.47265" lon="6.82228">
        <ele>384</ele>
        <time>2016-01-17T09:12:30.000Z</time>
      </trkpt>
      <trkpt lat="47.47263" lon="6.82233">
        <ele>384</ele>
        <time>2016-01-17T09:12:32.000Z</time>
      </trkpt>
      <trkpt lat="47.47262" lon="6.82235">
        <ele>384</ele>
        <time>2016-01-17T09:12:33.000Z</time>
      </trkpt>
      <trkpt lat="47.47261" lon="6.8224">
        <ele>385</ele>
        <time>2016-01-17T09:12:35.000Z</time>
      </trkpt>
      <trkpt lat="47.4726" lon="6.82242">
        <ele>385</ele>
        <time>2016-01-17T09:12:36.000Z</time>
      </trkpt>
      <trkpt lat="47.47258" lon="6.82247">
        <ele>386</ele>
        <time>2016-01-17T09:12:38.000Z</time>
      </trkpt>
      <trkpt lat="47.47257" lon="6.82249">
        <ele>386</ele>
        <time>2016-01-17T09:12:39.000Z</time>
      </trkpt>
      <trkpt lat="47.47254" lon="6.82251">
        <ele>387</ele>
        <time>2016-01-17T09:12:41.000Z</time>
      </trkpt>
      <trkpt lat="47.47253" lon="6.82252">
        <ele>387</ele>
        <time>2016-01-17T09:12:42.000Z</time>
      </trkpt>
      <trkpt lat="47.47249" lon="6.82251">
        <ele>388</ele>
        <time>2016-01-17T09:12:44.000Z</time>
      </trkpt>
      <trkpt lat="47.47247" lon="6.8225">
        <ele>389</ele>
        <time>2016-01-17T09:12:45.000Z</time>
      </trkpt>
      <trkpt lat="47.47244" lon="6.82246">
        <ele>389</ele>
        <time>2016-01-17T09:12:47.000Z</time>
      </trkpt>
      <trkpt lat="47.47243" lon="6.82244">
        <ele>390</ele>
        <time>2016-01-17T09:12:48.000Z</time>
      </trkpt>
      <trkpt lat="47.47241" lon="6.8224">
        <ele>390</ele>
        <time>2016-01-17T09:12:49.000Z</time>
      </trkpt>
      <trkpt lat="47.47239" lon="6.82237">
        <ele>391</ele>
        <time>2016-01-17T09:12:50.000Z</time>
      </trkpt>
      <trkpt lat="47.47236" lon="6.82233">
        <ele>391</ele>
        <time>2016-01-17T09:12:52.000Z</time>
      </trkpt>
      <trkpt lat="47.47235" lon="6.82232">
        <ele>391</ele>
        <time>2016-01-17T09:12:53.000Z</time>
      </trkpt>
      <trkpt lat="47.47233" lon="6.82229">
        <ele>392</ele>
        <time>2016-01-17T09:12:56.000Z</time>
      </trkpt>
      <trkpt lat="47.47231" lon="6.82227">
        <ele>392</ele>
        <time>2016-01-17T09:12:57.000Z</time>
      </trkpt>
      <trkpt lat="47.47227" lon="6.82224">
        <ele>392</ele>
        <time>2016-01-17T09:13:01.000Z</time>
      </trkpt>
      <trkpt lat="47.47226" lon="6.82224">
        <ele>392</ele>
        <time>2016-01-17T09:13:02.000Z</time>
      </trkpt>
      <trkpt lat="47.47222" lon="6.82223">
        <ele>393</ele>
        <time>2016-01-17T09:13:04.000Z</time>
      </trkpt>
      <trkpt lat="47.4722" lon="6.82222">
        <ele>393</ele>
        <time>2016-01-17T09:13:05.000Z</time>
      </trkpt>
      <trkpt lat="47.47217" lon="6.8222">
        <ele>393</ele>
        <time>2016-01-17T09:13:07.000Z</time>
      </trkpt>
      <trkpt lat="47.47216" lon="6.8222">
        <ele>393</ele>
        <time>2016-01-17T09:13:08.000Z</time>
      </trkpt>
      <trkpt lat="47.47212" lon="6.82218">
        <ele>393</ele>
        <time>2016-01-17T09:13:11.000Z</time>
      </trkpt>
      <trkpt lat="47.47211" lon="6.82217">
        <ele>394</ele>
        <time>2016-01-17T09:13:12.000Z</time>
      </trkpt>
      <trkpt lat="47.47207" lon="6.82215">
        <ele>394</ele>
        <time>2016-01-17T09:13:15.000Z</time>
      </trkpt>
      <trkpt lat="47.47205" lon="6.82214">
        <ele>394</ele>
        <time>2016-01-17T09:13:16.000Z</time>
      </trkpt>
      <trkpt lat="47.47201" lon="6.82212">
        <ele>394</ele>
        <time>2016-01-17T09:13:18.000Z</time>
      </trkpt>
      <trkpt lat="47.47199" lon="6.82212">
        <ele>394</ele>
        <time>2016-01-17T09:13:19.000Z</time>
      </trkpt>
      <trkpt lat="47.47196" lon="6.82211">
        <ele>394</ele>
        <time>2016-01-17T09:13:21.000Z</time>
      </trkpt>
      <trkpt lat="47.47194" lon="6.82211">
        <ele>395</ele>
        <time>2016-01-17T09:13:22.000Z</time>
      </trkpt>
      <trkpt lat="47.47191" lon="6.8221">
        <ele>395</ele>
        <time>2016-01-17T09:13:24.000Z</time>
      </trkpt>
      <trkpt lat="47.47189" lon="6.82209">
        <ele>395</ele>
        <time>2016-01-17T09:13:25.000Z</time>
      </trkpt>
      <trkpt lat="47.47186" lon="6.82207">
        <ele>395</ele>
        <time>2016-01-17T09:13:27.000Z</time>
      </trkpt>
      <trkpt lat="47.47185" lon="6.82207">
        <ele>395</ele>
        <time>2016-01-17T09:13:28.000Z</time>
      </trkpt>
      <trkpt lat="47.47181" lon="6.82208">
        <ele>395</ele>
        <time>2016-01-17T09:13:31.000Z</time>
      </trkpt>
      <trkpt lat="47.4718" lon="6.82209">
        <ele>395</ele>
        <time>2016-01-17T09:13:32.000Z</time>
      </trkpt>
      <trkpt lat="47.47176" lon="6.82209">
        <ele>395</ele>
        <time>2016-01-17T09:13:34.000Z</time>
      </trkpt>
      <trkpt lat="47.47174" lon="6.82209">
        <ele>395</ele>
        <time>2016-01-17T09:13:35.000Z</time>
      </trkpt>
      <trkpt lat="47.4717" lon="6.82209">
        <ele>395</ele>
        <time>2016-01-17T09:13:37.000Z</time>
      </trkpt>
      <trkpt lat="47.47168" lon="6.8221">
        <ele>396</ele>
        <time>2016-01-17T09:13:38.000Z</time>
      </trkpt>
      <trkpt lat="47.47166" lon="6.82211">
        <ele>399</ele>
        <time>2016-01-17T09:13:39.000Z</time>
      </trkpt>
      <trkpt lat="47.47164" lon="6.82213">
        <ele>399</ele>
        <time>2016-01-17T09:13:40.000Z</time>
      </trkpt>
      <trkpt lat="47.47162" lon="6.82215">
        <ele>399</ele>
        <time>2016-01-17T09:13:41.000Z</time>
      </trkpt>
      <trkpt lat="47.4716" lon="6.82217">
        <ele>399</ele>
        <time>2016-01-17T09:13:42.000Z</time>
      </trkpt>
      <trkpt lat="47.47157" lon="6.82219">
        <ele>399</ele>
        <time>2016-01-17T09:13:43.000Z</time>
      </trkpt>
      <trkpt lat="47.47155" lon="6.8222">
        <ele>399</ele>
        <time>2016-01-17T09:13:44.000Z</time>
      </trkpt>
      <trkpt lat="47.47151" lon="6.82222">
        <ele>399</ele>
        <time>2016-01-17T09:13:46.000Z</time>
      </trkpt>
      <trkpt lat="47.4715" lon="6.82223">
        <ele>399</ele>
        <time>2016-01-17T09:13:47.000Z</time>
      </trkpt>
      <trkpt lat="47.47146" lon="6.82224">
        <ele>399</ele>
        <time>2016-01-17T09:13:49.000Z</time>
      </trkpt>
      <trkpt lat="47.47144" lon="6.82224">
        <ele>399</ele>
        <time>2016-01-17T09:13:50.000Z</time>
      </trkpt>
      <trkpt lat="47.4714" lon="6.82225">
        <ele>399</ele>
        <time>2016-01-17T09:13:52.000Z</time>
      </trkpt>
      <trkpt lat="47.47139" lon="6.82226">
        <ele>399</ele>
        <time>2016-01-17T09:13:53.000Z</time>
      </trkpt>
      <trkpt lat="47.47136" lon="6.82227">
        <ele>400</ele>
        <time>2016-01-17T09:13:55.000Z</time>
      </trkpt>
      <trkpt lat="47.47134" lon="6.82228">
        <ele>400</ele>
        <time>2016-01-17T09:13:56.000Z</time>
      </trkpt>
      <trkpt lat="47.4713" lon="6.82229">
        <ele>400</ele>
        <time>2016-01-17T09:13:58.000Z</time>
      </trkpt>
      <trkpt lat="47.47129" lon="6.82229">
        <ele>400</ele>
        <time>2016-01-17T09:13:59.000Z</time>
      </trkpt>
      <trkpt lat="47.47126" lon="6.82229">
        <ele>400</ele>
        <time>2016-01-17T09:14:01.000Z</time>
      </trkpt>
      <trkpt lat="47.47124" lon="6.82228">
        <ele>400</ele>
        <time>2016-01-17T09:14:02.000Z</time>
      </trkpt>
      <trkpt lat="47.4712" lon="6.82225">
        <ele>400</ele>
        <time>2016-01-17T09:14:05.000Z</time>
      </trkpt>
      <trkpt lat="47.4712" lon="6.82223">
        <ele>400</ele>
        <time>2016-01-17T09:14:06.000Z</time>
      </trkpt>
      <trkpt lat="47.47117" lon="6.8222">
        <ele>400</ele>
        <time>2016-01-17T09:14:08.000Z</time>
      </trkpt>
      <trkpt lat="47.47116" lon="6.82218">
        <ele>400</ele>
        <time>2016-01-17T09:14:09.000Z</time>
      </trkpt>
      <trkpt lat="47.47114" lon="6.82214">
        <ele>400</ele>
        <time>2016-01-17T09:14:11.000Z</time>
      </trkpt>
      <trkpt lat="47.47113" lon="6.82211">
        <ele>400</ele>
        <time>2016-01-17T09:14:12.000Z</time>
      </trkpt>
      <trkpt lat="47.47111" lon="6.82208">
        <ele>400</ele>
        <time>2016-01-17T09:14:13.000Z</time>
      </trkpt>
      <trkpt lat="47.47108" lon="6.82206">
        <ele>400</ele>
        <time>2016-01-17T09:14:14.000Z</time>
      </trkpt>
      <trkpt lat="47.47106" lon="6.82204">
        <ele>400</ele>
        <time>2016-01-17T09:14:15.000Z</time>
      </trkpt>
      <trkpt lat="47.47103" lon="6.82203">
        <ele>400</ele>
        <time>2016-01-17T09:14:16.000Z</time>
      </trkpt>
      <trkpt lat="47.47098" lon="6.82203">
        <ele>400</ele>
        <time>2016-01-17T09:14:18.000Z</time>
      </trkpt>
      <trkpt lat="47.47097" lon="6.82203">
        <ele>400</ele>
        <time>2016-01-17T09:14:19.000Z</time>
      </trkpt>
      <trkpt lat="47.47094" lon="6.82204">
        <ele>400</ele>
        <time>2016-01-17T09:14:21.000Z</time>
      </trkpt>
      <trkpt lat="47.47092" lon="6.82205">
        <ele>400</ele>
        <time>2016-01-17T09:14:22.000Z</time>
      </trkpt>
      <trkpt lat="47.47089" lon="6.82206">
        <ele>400</ele>
        <time>2016-01-17T09:14:24.000Z</time>
      </trkpt>
      <trkpt lat="47.47086" lon="6.82207">
        <ele>400</ele>
        <time>2016-01-17T09:14:25.000Z</time>
      </trkpt>
      <trkpt lat="47.47082" lon="6.82209">
        <ele>399</ele>
        <time>2016-01-17T09:14:27.000Z</time>
      </trkpt>
      <trkpt lat="47.47079" lon="6.82209">
        <ele>399</ele>
        <time>2016-01-17T09:14:28.000Z</time>
      </trkpt>
      <trkpt lat="47.47076" lon="6.82209">
        <ele>399</ele>
        <time>2016-01-17T09:14:29.000Z</time>
      </trkpt>
      <trkpt lat="47.47073" lon="6.82209">
        <ele>399</ele>
        <time>2016-01-17T09:14:30.000Z</time>
      </trkpt>
      <trkpt lat="47.47069" lon="6.82209">
        <ele>399</ele>
        <time>2016-01-17T09:14:31.000Z</time>
      </trkpt>
      <trkpt lat="47.47066" lon="6.82208">
        <ele>399</ele>
        <time>2016-01-17T09:14:32.000Z</time>
      </trkpt>
      <trkpt lat="47.47063" lon="6.82208">
        <ele>399</ele>
        <time>2016-01-17T09:14:33.000Z</time>
      </trkpt>
      <trkpt lat="47.47061" lon="6.82208">
        <ele>399</ele>
        <time>2016-01-17T09:14:34.000Z</time>
      </trkpt>
      <trkpt lat="47.47058" lon="6.82207">
        <ele>399</ele>
        <time>2016-01-17T09:14:35.000Z</time>
      </trkpt>
      <trkpt lat="47.47055" lon="6.82208">
        <ele>399</ele>
        <time>2016-01-17T09:14:36.000Z</time>
      </trkpt>
      <trkpt lat="47.47051" lon="6.82208">
        <ele>399</ele>
        <time>2016-01-17T09:14:37.000Z</time>
      </trkpt>
      <trkpt lat="47.47048" lon="6.82208">
        <ele>398</ele>
        <time>2016-01-17T09:14:38.000Z</time>
      </trkpt>
      <trkpt lat="47.47044" lon="6.82208">
        <ele>398</ele>
        <time>2016-01-17T09:14:39.000Z</time>
      </trkpt>
      <trkpt lat="47.47041" lon="6.82207">
        <ele>398</ele>
        <time>2016-01-17T09:14:40.000Z</time>
      </trkpt>
      <trkpt lat="47.47038" lon="6.82207">
        <ele>398</ele>
        <time>2016-01-17T09:14:41.000Z</time>
      </trkpt>
      <trkpt lat="47.47034" lon="6.82207">
        <ele>398</ele>
        <time>2016-01-17T09:14:42.000Z</time>
      </trkpt>
      <trkpt lat="47.4703" lon="6.82207">
        <ele>398</ele>
        <time>2016-01-17T09:14:43.000Z</time>
      </trkpt>
      <trkpt lat="47.47027" lon="6.82208">
        <ele>398</ele>
        <time>2016-01-17T09:14:44.000Z</time>
      </trkpt>
      <trkpt lat="47.47023" lon="6.82207">
        <ele>398</ele>
        <time>2016-01-17T09:14:45.000Z</time>
      </trkpt>
      <trkpt lat="47.4702" lon="6.82206">
        <ele>398</ele>
        <time>2016-01-17T09:14:46.000Z</time>
      </trkpt>
      <trkpt lat="47.47016" lon="6.82205">
        <ele>398</ele>
        <time>2016-01-17T09:14:47.000Z</time>
      </trkpt>
      <trkpt lat="47.47013" lon="6.82204">
        <ele>397</ele>
        <time>2016-01-17T09:14:48.000Z</time>
      </trkpt>
      <trkpt lat="47.4701" lon="6.82203">
        <ele>397</ele>
        <time>2016-01-17T09:14:49.000Z</time>
      </trkpt>
      <trkpt lat="47.47006" lon="6.82203">
        <ele>397</ele>
        <time>2016-01-17T09:14:50.000Z</time>
      </trkpt>
      <trkpt lat="47.47003" lon="6.82202">
        <ele>397</ele>
        <time>2016-01-17T09:14:51.000Z</time>
      </trkpt>
      <trkpt lat="47.47" lon="6.82201">
        <ele>395</ele>
        <time>2016-01-17T09:14:52.000Z</time>
      </trkpt>
      <trkpt lat="47.46997" lon="6.82201">
        <ele>395</ele>
        <time>2016-01-17T09:14:53.000Z</time>
      </trkpt>
      <trkpt lat="47.46993" lon="6.822">
        <ele>395</ele>
        <time>2016-01-17T09:14:54.000Z</time>
      </trkpt>
      <trkpt lat="47.4699" lon="6.822">
        <ele>395</ele>
        <time>2016-01-17T09:14:55.000Z</time>
      </trkpt>
      <trkpt lat="47.46987" lon="6.822">
        <ele>395</ele>
        <time>2016-01-17T09:14:56.000Z</time>
      </trkpt>
      <trkpt lat="47.46984" lon="6.822">
        <ele>395</ele>
        <time>2016-01-17T09:14:57.000Z</time>
      </trkpt>
      <trkpt lat="47.46982" lon="6.82199">
        <ele>395</ele>
        <time>2016-01-17T09:14:58.000Z</time>
      </trkpt>
      <trkpt lat="47.46979" lon="6.82197">
        <ele>395</ele>
        <time>2016-01-17T09:14:59.000Z</time>
      </trkpt>
      <trkpt lat="47.46977" lon="6.82195">
        <ele>395</ele>
        <time>2016-01-17T09:15:00.000Z</time>
      </trkpt>
      <trkpt lat="47.46974" lon="6.82194">
        <ele>395</ele>
        <time>2016-01-17T09:15:01.000Z</time>
      </trkpt>
      <trkpt lat="47.4697" lon="6.82194">
        <ele>395</ele>
        <time>2016-01-17T09:15:02.000Z</time>
      </trkpt>
      <trkpt lat="47.46967" lon="6.82195">
        <ele>395</ele>
        <time>2016-01-17T09:15:03.000Z</time>
      </trkpt>
      <trkpt lat="47.46964" lon="6.82196">
        <ele>395</ele>
        <time>2016-01-17T09:15:04.000Z</time>
      </trkpt>
      <trkpt lat="47.46961" lon="6.82196">
        <ele>395</ele>
        <time>2016-01-17T09:15:06.000Z</time>
      </trkpt>
      <trkpt lat="47.4696" lon="6.82195">
        <ele>395</ele>
        <time>2016-01-17T09:15:07.000Z</time>
      </trkpt>
      <trkpt lat="47.46956" lon="6.82193">
        <ele>395</ele>
        <time>2016-01-17T09:15:11.000Z</time>
      </trkpt>
      <trkpt lat="47.46954" lon="6.82192">
        <ele>395</ele>
        <time>2016-01-17T09:15:12.000Z</time>
      </trkpt>
      <trkpt lat="47.46951" lon="6.82191">
        <ele>395</ele>
        <time>2016-01-17T09:15:15.000Z</time>
      </trkpt>
      <trkpt lat="47.4695" lon="6.82191">
        <ele>395</ele>
        <time>2016-01-17T09:15:16.000Z</time>
      </trkpt>
      <trkpt lat="47.46946" lon="6.82189">
        <ele>395</ele>
        <time>2016-01-17T09:15:20.000Z</time>
      </trkpt>
      <trkpt lat="47.46945" lon="6.82189">
        <ele>395</ele>
        <time>2016-01-17T09:15:21.000Z</time>
      </trkpt>
      <trkpt lat="47.4694" lon="6.82189">
        <ele>395</ele>
        <time>2016-01-17T09:15:25.000Z</time>
      </trkpt>
      <trkpt lat="47.4694" lon="6.82189">
        <ele>395</ele>
        <time>2016-01-17T09:15:26.000Z</time>
      </trkpt>
      <trkpt lat="47.46935" lon="6.82191">
        <ele>395</ele>
        <time>2016-01-17T09:15:30.000Z</time>
      </trkpt>
      <trkpt lat="47.46934" lon="6.8219">
        <ele>396</ele>
        <time>2016-01-17T09:15:31.000Z</time>
      </trkpt>
      <trkpt lat="47.4693" lon="6.82189">
        <ele>396</ele>
        <time>2016-01-17T09:15:34.000Z</time>
      </trkpt>
      <trkpt lat="47.46929" lon="6.82189">
        <ele>396</ele>
        <time>2016-01-17T09:15:35.000Z</time>
      </trkpt>
      <trkpt lat="47.46925" lon="6.82187">
        <ele>396</ele>
        <time>2016-01-17T09:15:38.000Z</time>
      </trkpt>
      <trkpt lat="47.46923" lon="6.82187">
        <ele>396</ele>
        <time>2016-01-17T09:15:39.000Z</time>
      </trkpt>
      <trkpt lat="47.46919" lon="6.82185">
        <ele>396</ele>
        <time>2016-01-17T09:15:41.000Z</time>
      </trkpt>
      <trkpt lat="47.46918" lon="6.82184">
        <ele>396</ele>
        <time>2016-01-17T09:15:42.000Z</time>
      </trkpt>
      <trkpt lat="47.46922" lon="6.82184">
        <ele>396</ele>
        <time>2016-01-17T09:15:52.000Z</time>
      </trkpt>
      <trkpt lat="47.46925" lon="6.82184">
        <ele>396</ele>
        <time>2016-01-17T09:15:53.000Z</time>
      </trkpt>
      <trkpt lat="47.46927" lon="6.82185">
        <ele>396</ele>
        <time>2016-01-17T09:15:54.000Z</time>
      </trkpt>
      <trkpt lat="47.4693" lon="6.82186">
        <ele>396</ele>
        <time>2016-01-17T09:15:55.000Z</time>
      </trkpt>
      <trkpt lat="47.46933" lon="6.82186">
        <ele>396</ele>
        <time>2016-01-17T09:15:57.000Z</time>
      </trkpt>
      <trkpt lat="47.46935" lon="6.82186">
        <ele>396</ele>
        <time>2016-01-17T09:15:58.000Z</time>
      </trkpt>
      <trkpt lat="47.46938" lon="6.82186">
        <ele>396</ele>
        <time>2016-01-17T09:16:00.000Z</time>
      </trkpt>
      <trkpt lat="47.4694" lon="6.82186">
        <ele>396</ele>
        <time>2016-01-17T09:16:01.000Z</time>
      </trkpt>
      <trkpt lat="47.46944" lon="6.82185">
        <ele>396</ele>
        <time>2016-01-17T09:16:04.000Z</time>
      </trkpt>
      <trkpt lat="47.46945" lon="6.82185">
        <ele>396</ele>
        <time>2016-01-17T09:16:05.000Z</time>
      </trkpt>
      <trkpt lat="47.46949" lon="6.82187">
        <ele>395</ele>
        <time>2016-01-17T09:16:09.000Z</time>
      </trkpt>
      <trkpt lat="47.4695" lon="6.82187">
        <ele>395</ele>
        <time>2016-01-17T09:16:10.000Z</time>
      </trkpt>
      <trkpt lat="47.46946" lon="6.8219">
        <ele>395</ele>
        <time>2016-01-17T09:17:52.000Z</time>
      </trkpt>
      <trkpt lat="47.46945" lon="6.82191">
        <ele>395</ele>
        <time>2016-01-17T09:17:53.000Z</time>
      </trkpt>
      <trkpt lat="47.46941" lon="6.82191">
        <ele>395</ele>
        <time>2016-01-17T09:17:57.000Z</time>
      </trkpt>
      <trkpt lat="47.4694" lon="6.82192">
        <ele>395</ele>
        <time>2016-01-17T09:17:58.000Z</time>
      </trkpt>
      <trkpt lat="47.46936" lon="6.82192">
        <ele>395</ele>
        <time>2016-01-17T09:18:03.000Z</time>
      </trkpt>
      <trkpt lat="47.46935" lon="6.82192">
        <ele>395</ele>
        <time>2016-01-17T09:18:04.000Z</time>
      </trkpt>
      <trkpt lat="47.46931" lon="6.82191">
        <ele>396</ele>
        <time>2016-01-17T09:18:07.000Z</time>
      </trkpt>
      <trkpt lat="47.46929" lon="6.8219">
        <ele>396</ele>
        <time>2016-01-17T09:18:08.000Z</time>
      </trkpt>
      <trkpt lat="47.46927" lon="6.82188">
        <ele>396</ele>
        <time>2016-01-17T09:18:09.000Z</time>
      </trkpt>
      <trkpt lat="47.46925" lon="6.82186">
        <ele>396</ele>
        <time>2016-01-17T09:18:10.000Z</time>
      </trkpt>
      <trkpt lat="47.46922" lon="6.82183">
        <ele>396</ele>
        <time>2016-01-17T09:18:11.000Z</time>
      </trkpt>
      <trkpt lat="47.46919" lon="6.82181">
        <ele>397</ele>
        <time>2016-01-17T09:18:12.000Z</time>
      </trkpt>
      <trkpt lat="47.46916" lon="6.8218">
        <ele>396</ele>
        <time>2016-01-17T09:18:13.000Z</time>
      </trkpt>
      <trkpt lat="47.46914" lon="6.82179">
        <ele>396</ele>
        <time>2016-01-17T09:18:14.000Z</time>
      </trkpt>
      <trkpt lat="47.46911" lon="6.82177">
        <ele>396</ele>
        <time>2016-01-17T09:18:15.000Z</time>
      </trkpt>
      <trkpt lat="47.46909" lon="6.82176">
        <ele>396</ele>
        <time>2016-01-17T09:18:16.000Z</time>
      </trkpt>
      <trkpt lat="47.46905" lon="6.82174">
        <ele>396</ele>
        <time>2016-01-17T09:18:18.000Z</time>
      </trkpt>
      <trkpt lat="47.46904" lon="6.82173">
        <ele>396</ele>
        <time>2016-01-17T09:18:19.000Z</time>
      </trkpt>
      <trkpt lat="47.46902" lon="6.82171">
        <ele>396</ele>
        <time>2016-01-17T09:18:20.000Z</time>
      </trkpt>
      <trkpt lat="47.469" lon="6.82168">
        <ele>396</ele>
        <time>2016-01-17T09:18:21.000Z</time>
      </trkpt>
      <trkpt lat="47.46899" lon="6.82165">
        <ele>400</ele>
        <time>2016-01-17T09:18:22.000Z</time>
      </trkpt>
      <trkpt lat="47.46897" lon="6.82162">
        <ele>400</ele>
        <time>2016-01-17T09:18:23.000Z</time>
      </trkpt>
      <trkpt lat="47.46895" lon="6.82159">
        <ele>401</ele>
        <time>2016-01-17T09:18:24.000Z</time>
      </trkpt>
      <trkpt lat="47.46893" lon="6.82157">
        <ele>401</ele>
        <time>2016-01-17T09:18:25.000Z</time>
      </trkpt>
      <trkpt lat="47.46892" lon="6.82155">
        <ele>401</ele>
        <time>2016-01-17T09:18:26.000Z</time>
      </trkpt>
      <trkpt lat="47.4689" lon="6.82153">
        <ele>401</ele>
        <time>2016-01-17T09:18:27.000Z</time>
      </trkpt>
      <trkpt lat="47.46888" lon="6.82151">
        <ele>401</ele>
        <time>2016-01-17T09:18:28.000Z</time>
      </trkpt>
      <trkpt lat="47.46886" lon="6.82148">
        <ele>401</ele>
        <time>2016-01-17T09:18:29.000Z</time>
      </trkpt>
      <trkpt lat="47.46884" lon="6.82146">
        <ele>401</ele>
        <time>2016-01-17T09:18:30.000Z</time>
      </trkpt>
      <trkpt lat="47.46882" lon="6.82144">
        <ele>401</ele>
        <time>2016-01-17T09:18:31.000Z</time>
      </trkpt>
      <trkpt lat="47.46879" lon="6.8214">
        <ele>402</ele>
        <time>2016-01-17T09:18:33.000Z</time>
      </trkpt>
      <trkpt lat="47.46876" lon="6.82138">
        <ele>402</ele>
        <time>2016-01-17T09:18:34.000Z</time>
      </trkpt>
      <trkpt lat="47.46873" lon="6.82135">
        <ele>402</ele>
        <time>2016-01-17T09:18:36.000Z</time>
      </trkpt>
      <trkpt lat="47.46871" lon="6.82133">
        <ele>402</ele>
        <time>2016-01-17T09:18:37.000Z</time>
      </trkpt>
      <trkpt lat="47.46867" lon="6.82129">
        <ele>402</ele>
        <time>2016-01-17T09:18:39.000Z</time>
      </trkpt>
      <trkpt lat="47.46866" lon="6.82126">
        <ele>402</ele>
        <time>2016-01-17T09:18:40.000Z</time>
      </trkpt>
      <trkpt lat="47.46863" lon="6.82122">
        <ele>403</ele>
        <time>2016-01-17T09:18:42.000Z</time>
      </trkpt>
      <trkpt lat="47.46861" lon="6.8212">
        <ele>403</ele>
        <time>2016-01-17T09:18:43.000Z</time>
      </trkpt>
      <trkpt lat="47.46858" lon="6.82117">
        <ele>403</ele>
        <time>2016-01-17T09:18:45.000Z</time>
      </trkpt>
      <trkpt lat="47.46856" lon="6.82115">
        <ele>403</ele>
        <time>2016-01-17T09:18:46.000Z</time>
      </trkpt>
      <trkpt lat="47.46852" lon="6.82113">
        <ele>403</ele>
        <time>2016-01-17T09:18:48.000Z</time>
      </trkpt>
      <trkpt lat="47.4685" lon="6.82112">
        <ele>404</ele>
        <time>2016-01-17T09:18:49.000Z</time>
      </trkpt>
      <trkpt lat="47.46848" lon="6.8211">
        <ele>404</ele>
        <time>2016-01-17T09:18:50.000Z</time>
      </trkpt>
      <trkpt lat="47.46846" lon="6.82109">
        <ele>404</ele>
        <time>2016-01-17T09:18:51.000Z</time>
      </trkpt>
      <trkpt lat="47.46843" lon="6.82105">
        <ele>405</ele>
        <time>2016-01-17T09:18:53.000Z</time>
      </trkpt>
      <trkpt lat="47.46841" lon="6.82103">
        <ele>405</ele>
        <time>2016-01-17T09:18:54.000Z</time>
      </trkpt>
      <trkpt lat="47.46839" lon="6.82101">
        <ele>405</ele>
        <time>2016-01-17T09:18:55.000Z</time>
      </trkpt>
      <trkpt lat="47.46837" lon="6.82099">
        <ele>406</ele>
        <time>2016-01-17T09:18:56.000Z</time>
      </trkpt>
      <trkpt lat="47.46835" lon="6.82097">
        <ele>406</ele>
        <time>2016-01-17T09:18:57.000Z</time>
      </trkpt>
      <trkpt lat="47.46832" lon="6.82096">
        <ele>407</ele>
        <time>2016-01-17T09:18:58.000Z</time>
      </trkpt>
      <trkpt lat="47.4683" lon="6.82094">
        <ele>407</ele>
        <time>2016-01-17T09:18:59.000Z</time>
      </trkpt>
      <trkpt lat="47.46828" lon="6.82092">
        <ele>407</ele>
        <time>2016-01-17T09:19:00.000Z</time>
      </trkpt>
      <trkpt lat="47.46825" lon="6.82089">
        <ele>407</ele>
        <time>2016-01-17T09:19:01.000Z</time>
      </trkpt>
      <trkpt lat="47.46822" lon="6.82087">
        <ele>407</ele>
        <time>2016-01-17T09:19:02.000Z</time>
      </trkpt>
      <trkpt lat="47.46819" lon="6.82085">
        <ele>407</ele>
        <time>2016-01-17T09:19:03.000Z</time>
      </trkpt>
      <trkpt lat="47.46816" lon="6.82083">
        <ele>409</ele>
        <time>2016-01-17T09:19:04.000Z</time>
      </trkpt>
      <trkpt lat="47.46814" lon="6.82081">
        <ele>409</ele>
        <time>2016-01-17T09:19:05.000Z</time>
      </trkpt>
      <trkpt lat="47.46811" lon="6.8208">
        <ele>409</ele>
        <time>2016-01-17T09:19:06.000Z</time>
      </trkpt>
      <trkpt lat="47.46808" lon="6.82078">
        <ele>409</ele>
        <time>2016-01-17T09:19:07.000Z</time>
      </trkpt>
      <trkpt lat="47.46804" lon="6.82077">
        <ele>409</ele>
        <time>2016-01-17T09:19:08.000Z</time>
      </trkpt>
      <trkpt lat="47.46801" lon="6.82075">
        <ele>409</ele>
        <time>2016-01-17T09:19:09.000Z</time>
      </trkpt>
      <trkpt lat="47.46798" lon="6.82073">
        <ele>409</ele>
        <time>2016-01-17T09:19:10.000Z</time>
      </trkpt>
      <trkpt lat="47.46794" lon="6.82071">
        <ele>409</ele>
        <time>2016-01-17T09:19:11.000Z</time>
      </trkpt>
      <trkpt lat="47.46792" lon="6.82069">
        <ele>409</ele>
        <time>2016-01-17T09:19:12.000Z</time>
      </trkpt>
      <trkpt lat="47.46789" lon="6.82067">
        <ele>409</ele>
        <time>2016-01-17T09:19:13.000Z</time>
      </trkpt>
      <trkpt lat="47.46787" lon="6.82065">
        <ele>410</ele>
        <time>2016-01-17T09:19:14.000Z</time>
      </trkpt>
      <trkpt lat="47.46785" lon="6.82064">
        <ele>410</ele>
        <time>2016-01-17T09:19:15.000Z</time>
      </trkpt>
      <trkpt lat="47.46782" lon="6.82061">
        <ele>410</ele>
        <time>2016-01-17T09:19:16.000Z</time>
      </trkpt>
      <trkpt lat="47.46779" lon="6.82059">
        <ele>410</ele>
        <time>2016-01-17T09:19:17.000Z</time>
      </trkpt>
      <trkpt lat="47.46776" lon="6.82057">
        <ele>410</ele>
        <time>2016-01-17T09:19:18.000Z</time>
      </trkpt>
      <trkpt lat="47.46772" lon="6.82055">
        <ele>410</ele>
        <time>2016-01-17T09:19:19.000Z</time>
      </trkpt>
      <trkpt lat="47.46768" lon="6.82052">
        <ele>410</ele>
        <time>2016-01-17T09:19:20.000Z</time>
      </trkpt>
      <trkpt lat="47.46764" lon="6.8205">
        <ele>410</ele>
        <time>2016-01-17T09:19:21.000Z</time>
      </trkpt>
      <trkpt lat="47.46761" lon="6.82047">
        <ele>410</ele>
        <time>2016-01-17T09:19:22.000Z</time>
      </trkpt>
      <trkpt lat="47.46757" lon="6.82044">
        <ele>410</ele>
        <time>2016-01-17T09:19:23.000Z</time>
      </trkpt>
      <trkpt lat="47.46753" lon="6.82041">
        <ele>410</ele>
        <time>2016-01-17T09:19:24.000Z</time>
      </trkpt>
      <trkpt lat="47.4675" lon="6.82038">
        <ele>408</ele>
        <time>2016-01-17T09:19:25.000Z</time>
      </trkpt>
      <trkpt lat="47.46747" lon="6.82036">
        <ele>408</ele>
        <time>2016-01-17T09:19:26.000Z</time>
      </trkpt>
      <trkpt lat="47.46744" lon="6.82034">
        <ele>408</ele>
        <time>2016-01-17T09:19:27.000Z</time>
      </trkpt>
      <trkpt lat="47.46741" lon="6.82032">
        <ele>408</ele>
        <time>2016-01-17T09:19:28.000Z</time>
      </trkpt>
      <trkpt lat="47.46738" lon="6.82031">
        <ele>408</ele>
        <time>2016-01-17T09:19:29.000Z</time>
      </trkpt>
      <trkpt lat="47.46734" lon="6.8203">
        <ele>408</ele>
        <time>2016-01-17T09:19:30.000Z</time>
      </trkpt>
      <trkpt lat="47.46731" lon="6.82029">
        <ele>408</ele>
        <time>2016-01-17T09:19:31.000Z</time>
      </trkpt>
      <trkpt lat="47.46728" lon="6.82029">
        <ele>408</ele>
        <time>2016-01-17T09:19:32.000Z</time>
      </trkpt>
      <trkpt lat="47.46725" lon="6.82028">
        <ele>408</ele>
        <time>2016-01-17T09:19:33.000Z</time>
      </trkpt>
      <trkpt lat="47.46722" lon="6.82028">
        <ele>408</ele>
        <time>2016-01-17T09:19:34.000Z</time>
      </trkpt>
      <trkpt lat="47.46718" lon="6.82028">
        <ele>407</ele>
        <time>2016-01-17T09:19:35.000Z</time>
      </trkpt>
      <trkpt lat="47.46715" lon="6.82029">
        <ele>407</ele>
        <time>2016-01-17T09:19:36.000Z</time>
      </trkpt>
      <trkpt lat="47.46711" lon="6.8203">
        <ele>407</ele>
        <time>2016-01-17T09:19:37.000Z</time>
      </trkpt>
      <trkpt lat="47.46707" lon="6.82033">
        <ele>407</ele>
        <time>2016-01-17T09:19:38.000Z</time>
      </trkpt>
      <trkpt lat="47.46703" lon="6.82035">
        <ele>407</ele>
        <time>2016-01-17T09:19:39.000Z</time>
      </trkpt>
      <trkpt lat="47.46696" lon="6.82043">
        <ele>406</ele>
        <time>2016-01-17T09:19:40.000Z</time>
      </trkpt>
      <trkpt lat="47.46689" lon="6.82047">
        <ele>406</ele>
        <time>2016-01-17T09:19:41.000Z</time>
      </trkpt>
      <trkpt lat="47.46682" lon="6.82051">
        <ele>406</ele>
        <time>2016-01-17T09:19:42.000Z</time>
      </trkpt>
      <trkpt lat="47.46676" lon="6.8205">
        <ele>406</ele>
        <time>2016-01-17T09:19:43.000Z</time>
      </trkpt>
      <trkpt lat="47.46669" lon="6.82052">
        <ele>405</ele>
        <time>2016-01-17T09:19:44.000Z</time>
      </trkpt>
      <trkpt lat="47.46661" lon="6.82052">
        <ele>400</ele>
        <time>2016-01-17T09:19:45.000Z</time>
      </trkpt>
      <trkpt lat="47.46652" lon="6.82051">
        <ele>400</ele>
        <time>2016-01-17T09:19:46.000Z</time>
      </trkpt>
      <trkpt lat="47.46644" lon="6.82047">
        <ele>399</ele>
        <time>2016-01-17T09:19:47.000Z</time>
      </trkpt>
      <trkpt lat="47.46634" lon="6.82044">
        <ele>399</ele>
        <time>2016-01-17T09:19:48.000Z</time>
      </trkpt>
      <trkpt lat="47.46624" lon="6.82039">
        <ele>398</ele>
        <time>2016-01-17T09:19:49.000Z</time>
      </trkpt>
      <trkpt lat="47.46617" lon="6.82035">
        <ele>398</ele>
        <time>2016-01-17T09:19:50.000Z</time>
      </trkpt>
      <trkpt lat="47.4661" lon="6.82031">
        <ele>398</ele>
        <time>2016-01-17T09:19:51.000Z</time>
      </trkpt>
      <trkpt lat="47.46604" lon="6.82027">
        <ele>397</ele>
        <time>2016-01-17T09:19:52.000Z</time>
      </trkpt>
      <trkpt lat="47.46598" lon="6.82024">
        <ele>397</ele>
        <time>2016-01-17T09:19:53.000Z</time>
      </trkpt>
      <trkpt lat="47.46592" lon="6.82021">
        <ele>397</ele>
        <time>2016-01-17T09:19:54.000Z</time>
      </trkpt>
      <trkpt lat="47.46588" lon="6.82017">
        <ele>396</ele>
        <time>2016-01-17T09:19:55.000Z</time>
      </trkpt>
      <trkpt lat="47.46583" lon="6.82014">
        <ele>393</ele>
        <time>2016-01-17T09:19:56.000Z</time>
      </trkpt>
      <trkpt lat="47.4658" lon="6.82012">
        <ele>393</ele>
        <time>2016-01-17T09:19:57.000Z</time>
      </trkpt>
      <trkpt lat="47.46578" lon="6.82009">
        <ele>394</ele>
        <time>2016-01-17T09:19:58.000Z</time>
      </trkpt>
      <trkpt lat="47.46575" lon="6.82004">
        <ele>394</ele>
        <time>2016-01-17T09:19:59.000Z</time>
      </trkpt>
      <trkpt lat="47.46572" lon="6.82002">
        <ele>394</ele>
        <time>2016-01-17T09:20:00.000Z</time>
      </trkpt>
      <trkpt lat="47.46573" lon="6.81997">
        <ele>396</ele>
        <time>2016-01-17T09:20:01.000Z</time>
      </trkpt>
      <trkpt lat="47.46572" lon="6.81994">
        <ele>396</ele>
        <time>2016-01-17T09:20:02.000Z</time>
      </trkpt>
      <trkpt lat="47.46573" lon="6.81989">
        <ele>396</ele>
        <time>2016-01-17T09:20:03.000Z</time>
      </trkpt>
      <trkpt lat="47.46576" lon="6.81985">
        <ele>396</ele>
        <time>2016-01-17T09:20:04.000Z</time>
      </trkpt>
      <trkpt lat="47.46577" lon="6.81981">
        <ele>396</ele>
        <time>2016-01-17T09:20:05.000Z</time>
      </trkpt>
      <trkpt lat="47.46578" lon="6.81977">
        <ele>397</ele>
        <time>2016-01-17T09:20:06.000Z</time>
      </trkpt>
      <trkpt lat="47.46579" lon="6.81973">
        <ele>397</ele>
        <time>2016-01-17T09:20:07.000Z</time>
      </trkpt>
      <trkpt lat="47.46581" lon="6.81969">
        <ele>397</ele>
        <time>2016-01-17T09:20:08.000Z</time>
      </trkpt>
      <trkpt lat="47.46583" lon="6.81966">
        <ele>397</ele>
        <time>2016-01-17T09:20:09.000Z</time>
      </trkpt>
      <trkpt lat="47.46584" lon="6.81963">
        <ele>399</ele>
        <time>2016-01-17T09:20:10.000Z</time>
      </trkpt>
      <trkpt lat="47.46586" lon="6.81961">
        <ele>399</ele>
        <time>2016-01-17T09:20:11.000Z</time>
      </trkpt>
      <trkpt lat="47.46588" lon="6.81958">
        <ele>399</ele>
        <time>2016-01-17T09:20:12.000Z</time>
      </trkpt>
      <trkpt lat="47.4659" lon="6.81955">
        <ele>399</ele>
        <time>2016-01-17T09:20:13.000Z</time>
      </trkpt>
      <trkpt lat="47.46591" lon="6.81952">
        <ele>399</ele>
        <time>2016-01-17T09:20:14.000Z</time>
      </trkpt>
      <trkpt lat="47.46593" lon="6.81949">
        <ele>399</ele>
        <time>2016-01-17T09:20:15.000Z</time>
      </trkpt>
      <trkpt lat="47.46594" lon="6.81946">
        <ele>399</ele>
        <time>2016-01-17T09:20:16.000Z</time>
      </trkpt>
      <trkpt lat="47.46596" lon="6.81943">
        <ele>399</ele>
        <time>2016-01-17T09:20:17.000Z</time>
      </trkpt>
      <trkpt lat="47.46597" lon="6.8194">
        <ele>399</ele>
        <time>2016-01-17T09:20:18.000Z</time>
      </trkpt>
      <trkpt lat="47.46598" lon="6.81936">
        <ele>399</ele>
        <time>2016-01-17T09:20:19.000Z</time>
      </trkpt>
      <trkpt lat="47.466" lon="6.81933">
        <ele>399</ele>
        <time>2016-01-17T09:20:20.000Z</time>
      </trkpt>
      <trkpt lat="47.46601" lon="6.81929">
        <ele>399</ele>
        <time>2016-01-17T09:20:21.000Z</time>
      </trkpt>
      <trkpt lat="47.46602" lon="6.81925">
        <ele>399</ele>
        <time>2016-01-17T09:20:22.000Z</time>
      </trkpt>
      <trkpt lat="47.46604" lon="6.81922">
        <ele>399</ele>
        <time>2016-01-17T09:20:23.000Z</time>
      </trkpt>
      <trkpt lat="47.46605" lon="6.81918">
        <ele>399</ele>
        <time>2016-01-17T09:20:24.000Z</time>
      </trkpt>
      <trkpt lat="47.46607" lon="6.81914">
        <ele>400</ele>
        <time>2016-01-17T09:20:24.999Z</time>
      </trkpt>
      <trkpt lat="47.46608" lon="6.81911">
        <ele>400</ele>
        <time>2016-01-17T09:20:26.000Z</time>
      </trkpt>
      <trkpt lat="47.4661" lon="6.81908">
        <ele>400</ele>
        <time>2016-01-17T09:20:27.000Z</time>
      </trkpt>
      <trkpt lat="47.46611" lon="6.81904">
        <ele>400</ele>
        <time>2016-01-17T09:20:28.000Z</time>
      </trkpt>
      <trkpt lat="47.46613" lon="6.81901">
        <ele>400</ele>
        <time>2016-01-17T09:20:29.000Z</time>
      </trkpt>
      <trkpt lat="47.46615" lon="6.81897">
        <ele>400</ele>
        <time>2016-01-17T09:20:30.000Z</time>
      </trkpt>
      <trkpt lat="47.46617" lon="6.81894">
        <ele>400</ele>
        <time>2016-01-17T09:20:31.000Z</time>
      </trkpt>
      <trkpt lat="47.46618" lon="6.81891">
        <ele>400</ele>
        <time>2016-01-17T09:20:32.000Z</time>
      </trkpt>
      <trkpt lat="47.4662" lon="6.81888">
        <ele>400</ele>
        <time>2016-01-17T09:20:33.000Z</time>
      </trkpt>
      <trkpt lat="47.46622" lon="6.81884">
        <ele>400</ele>
        <time>2016-01-17T09:20:34.000Z</time>
      </trkpt>
      <trkpt lat="47.46624" lon="6.81881">
        <ele>400</ele>
        <time>2016-01-17T09:20:35.000Z</time>
      </trkpt>
      <trkpt lat="47.46625" lon="6.81878">
        <ele>401</ele>
        <time>2016-01-17T09:20:36.000Z</time>
      </trkpt>
      <trkpt lat="47.46627" lon="6.81875">
        <ele>401</ele>
        <time>2016-01-17T09:20:37.000Z</time>
      </trkpt>
      <trkpt lat="47.46629" lon="6.81871">
        <ele>401</ele>
        <time>2016-01-17T09:20:38.000Z</time>
      </trkpt>
      <trkpt lat="47.4663" lon="6.81868">
        <ele>401</ele>
        <time>2016-01-17T09:20:39.000Z</time>
      </trkpt>
      <trkpt lat="47.46632" lon="6.81864">
        <ele>401</ele>
        <time>2016-01-17T09:20:40.000Z</time>
      </trkpt>
      <trkpt lat="47.46634" lon="6.8186">
        <ele>401</ele>
        <time>2016-01-17T09:20:41.000Z</time>
      </trkpt>
      <trkpt lat="47.46636" lon="6.81856">
        <ele>401</ele>
        <time>2016-01-17T09:20:42.000Z</time>
      </trkpt>
      <trkpt lat="47.46638" lon="6.81852">
        <ele>401</ele>
        <time>2016-01-17T09:20:43.000Z</time>
      </trkpt>
      <trkpt lat="47.46639" lon="6.81848">
        <ele>401</ele>
        <time>2016-01-17T09:20:44.000Z</time>
      </trkpt>
      <trkpt lat="47.46641" lon="6.81844">
        <ele>401</ele>
        <time>2016-01-17T09:20:45.000Z</time>
      </trkpt>
      <trkpt lat="47.46643" lon="6.8184">
        <ele>401</ele>
        <time>2016-01-17T09:20:46.000Z</time>
      </trkpt>
      <trkpt lat="47.46645" lon="6.81836">
        <ele>401</ele>
        <time>2016-01-17T09:20:47.000Z</time>
      </trkpt>
      <trkpt lat="47.46647" lon="6.81831">
        <ele>400</ele>
        <time>2016-01-17T09:20:48.000Z</time>
      </trkpt>
      <trkpt lat="47.46649" lon="6.81826">
        <ele>400</ele>
        <time>2016-01-17T09:20:49.000Z</time>
      </trkpt>
      <trkpt lat="47.46651" lon="6.81822">
        <ele>400</ele>
        <time>2016-01-17T09:20:50.000Z</time>
      </trkpt>
      <trkpt lat="47.46653" lon="6.81817">
        <ele>400</ele>
        <time>2016-01-17T09:20:51.000Z</time>
      </trkpt>
      <trkpt lat="47.46654" lon="6.81812">
        <ele>400</ele>
        <time>2016-01-17T09:20:52.000Z</time>
      </trkpt>
      <trkpt lat="47.46656" lon="6.81806">
        <ele>400</ele>
        <time>2016-01-17T09:20:53.000Z</time>
      </trkpt>
      <trkpt lat="47.46658" lon="6.81801">
        <ele>399</ele>
        <time>2016-01-17T09:20:54.000Z</time>
      </trkpt>
      <trkpt lat="47.4666" lon="6.81795">
        <ele>399</ele>
        <time>2016-01-17T09:20:55.000Z</time>
      </trkpt>
      <trkpt lat="47.46662" lon="6.8179">
        <ele>399</ele>
        <time>2016-01-17T09:20:56.000Z</time>
      </trkpt>
      <trkpt lat="47.46663" lon="6.81784">
        <ele>399</ele>
        <time>2016-01-17T09:20:57.000Z</time>
      </trkpt>
      <trkpt lat="47.46664" lon="6.81777">
        <ele>399</ele>
        <time>2016-01-17T09:20:58.000Z</time>
      </trkpt>
      <trkpt lat="47.46666" lon="6.81771">
        <ele>398</ele>
        <time>2016-01-17T09:20:59.000Z</time>
      </trkpt>
      <trkpt lat="47.46668" lon="6.81765">
        <ele>400</ele>
        <time>2016-01-17T09:21:00.000Z</time>
      </trkpt>
      <trkpt lat="47.4667" lon="6.81759">
        <ele>400</ele>
        <time>2016-01-17T09:21:01.000Z</time>
      </trkpt>
      <trkpt lat="47.46671" lon="6.81753">
        <ele>399</ele>
        <time>2016-01-17T09:21:02.000Z</time>
      </trkpt>
      <trkpt lat="47.46673" lon="6.81749">
        <ele>399</ele>
        <time>2016-01-17T09:21:03.000Z</time>
      </trkpt>
      <trkpt lat="47.46674" lon="6.81743">
        <ele>399</ele>
        <time>2016-01-17T09:21:04.000Z</time>
      </trkpt>
      <trkpt lat="47.46676" lon="6.81737">
        <ele>400</ele>
        <time>2016-01-17T09:21:05.000Z</time>
      </trkpt>
      <trkpt lat="47.46678" lon="6.81732">
        <ele>400</ele>
        <time>2016-01-17T09:21:06.000Z</time>
      </trkpt>
      <trkpt lat="47.46679" lon="6.81726">
        <ele>400</ele>
        <time>2016-01-17T09:21:07.000Z</time>
      </trkpt>
      <trkpt lat="47.46681" lon="6.81721">
        <ele>400</ele>
        <time>2016-01-17T09:21:08.000Z</time>
      </trkpt>
      <trkpt lat="47.46682" lon="6.81716">
        <ele>400</ele>
        <time>2016-01-17T09:21:09.000Z</time>
      </trkpt>
      <trkpt lat="47.46684" lon="6.8171">
        <ele>400</ele>
        <time>2016-01-17T09:21:10.000Z</time>
      </trkpt>
      <trkpt lat="47.46685" lon="6.81705">
        <ele>400</ele>
        <time>2016-01-17T09:21:11.000Z</time>
      </trkpt>
      <trkpt lat="47.46687" lon="6.81698">
        <ele>400</ele>
        <time>2016-01-17T09:21:12.000Z</time>
      </trkpt>
      <trkpt lat="47.46689" lon="6.81692">
        <ele>400</ele>
        <time>2016-01-17T09:21:13.000Z</time>
      </trkpt>
      <trkpt lat="47.46691" lon="6.81686">
        <ele>400</ele>
        <time>2016-01-17T09:21:14.000Z</time>
      </trkpt>
      <trkpt lat="47.46692" lon="6.8168">
        <ele>400</ele>
        <time>2016-01-17T09:21:15.000Z</time>
      </trkpt>
      <trkpt lat="47.46694" lon="6.81674">
        <ele>400</ele>
        <time>2016-01-17T09:21:16.000Z</time>
      </trkpt>
      <trkpt lat="47.46695" lon="6.81667">
        <ele>400</ele>
        <time>2016-01-17T09:21:17.001Z</time>
      </trkpt>
      <trkpt lat="47.46698" lon="6.8166">
        <ele>398</ele>
        <time>2016-01-17T09:21:18.000Z</time>
      </trkpt>
      <trkpt lat="47.46698" lon="6.81654">
        <ele>398</ele>
        <time>2016-01-17T09:21:19.000Z</time>
      </trkpt>
      <trkpt lat="47.46699" lon="6.81648">
        <ele>398</ele>
        <time>2016-01-17T09:21:20.000Z</time>
      </trkpt>
      <trkpt lat="47.46701" lon="6.81641">
        <ele>398</ele>
        <time>2016-01-17T09:21:21.000Z</time>
      </trkpt>
      <trkpt lat="47.46703" lon="6.81635">
        <ele>398</ele>
        <time>2016-01-17T09:21:22.000Z</time>
      </trkpt>
      <trkpt lat="47.46705" lon="6.81629">
        <ele>398</ele>
        <time>2016-01-17T09:21:23.000Z</time>
      </trkpt>
      <trkpt lat="47.46706" lon="6.81624">
        <ele>398</ele>
        <time>2016-01-17T09:21:23.999Z</time>
      </trkpt>
      <trkpt lat="47.46708" lon="6.81617">
        <ele>398</ele>
        <time>2016-01-17T09:21:25.000Z</time>
      </trkpt>
      <trkpt lat="47.46709" lon="6.81611">
        <ele>398</ele>
        <time>2016-01-17T09:21:26.000Z</time>
      </trkpt>
      <trkpt lat="47.4671" lon="6.81605">
        <ele>398</ele>
        <time>2016-01-17T09:21:27.000Z</time>
      </trkpt>
      <trkpt lat="47.46711" lon="6.81599">
        <ele>398</ele>
        <time>2016-01-17T09:21:28.000Z</time>
      </trkpt>
      <trkpt lat="47.46713" lon="6.81593">
        <ele>398</ele>
        <time>2016-01-17T09:21:29.000Z</time>
      </trkpt>
      <trkpt lat="47.46714" lon="6.81587">
        <ele>398</ele>
        <time>2016-01-17T09:21:30.000Z</time>
      </trkpt>
      <trkpt lat="47.46717" lon="6.81581">
        <ele>395</ele>
        <time>2016-01-17T09:21:31.000Z</time>
      </trkpt>
      <trkpt lat="47.46719" lon="6.81576">
        <ele>395</ele>
        <time>2016-01-17T09:21:31.999Z</time>
      </trkpt>
      <trkpt lat="47.46721" lon="6.8157">
        <ele>395</ele>
        <time>2016-01-17T09:21:33.000Z</time>
      </trkpt>
      <trkpt lat="47.46722" lon="6.81564">
        <ele>395</ele>
        <time>2016-01-17T09:21:34.000Z</time>
      </trkpt>
      <trkpt lat="47.46725" lon="6.81558">
        <ele>395</ele>
        <time>2016-01-17T09:21:35.000Z</time>
      </trkpt>
      <trkpt lat="47.46727" lon="6.81552">
        <ele>394</ele>
        <time>2016-01-17T09:21:36.000Z</time>
      </trkpt>
      <trkpt lat="47.46729" lon="6.81546">
        <ele>394</ele>
        <time>2016-01-17T09:21:37.000Z</time>
      </trkpt>
      <trkpt lat="47.46731" lon="6.8154">
        <ele>394</ele>
        <time>2016-01-17T09:21:38.000Z</time>
      </trkpt>
      <trkpt lat="47.46732" lon="6.81536">
        <ele>394</ele>
        <time>2016-01-17T09:21:39.000Z</time>
      </trkpt>
      <trkpt lat="47.46733" lon="6.81532">
        <ele>394</ele>
        <time>2016-01-17T09:21:40.000Z</time>
      </trkpt>
      <trkpt lat="47.46734" lon="6.81527">
        <ele>394</ele>
        <time>2016-01-17T09:21:41.000Z</time>
      </trkpt>
      <trkpt lat="47.46734" lon="6.81523">
        <ele>394</ele>
        <time>2016-01-17T09:21:42.000Z</time>
      </trkpt>
      <trkpt lat="47.46734" lon="6.81519">
        <ele>393</ele>
        <time>2016-01-17T09:21:43.000Z</time>
      </trkpt>
      <trkpt lat="47.46731" lon="6.81516">
        <ele>393</ele>
        <time>2016-01-17T09:21:44.000Z</time>
      </trkpt>
      <trkpt lat="47.46728" lon="6.81514">
        <ele>393</ele>
        <time>2016-01-17T09:21:45.000Z</time>
      </trkpt>
      <trkpt lat="47.46727" lon="6.81511">
        <ele>393</ele>
        <time>2016-01-17T09:21:46.000Z</time>
      </trkpt>
      <trkpt lat="47.46724" lon="6.81508">
        <ele>393</ele>
        <time>2016-01-17T09:21:47.000Z</time>
      </trkpt>
      <trkpt lat="47.46722" lon="6.81506">
        <ele>393</ele>
        <time>2016-01-17T09:21:48.000Z</time>
      </trkpt>
      <trkpt lat="47.4672" lon="6.81504">
        <ele>393</ele>
        <time>2016-01-17T09:21:49.000Z</time>
      </trkpt>
      <trkpt lat="47.46718" lon="6.81502">
        <ele>393</ele>
        <time>2016-01-17T09:21:50.000Z</time>
      </trkpt>
      <trkpt lat="47.46716" lon="6.815">
        <ele>392</ele>
        <time>2016-01-17T09:21:51.000Z</time>
      </trkpt>
      <trkpt lat="47.46714" lon="6.81498">
        <ele>392</ele>
        <time>2016-01-17T09:21:52.000Z</time>
      </trkpt>
      <trkpt lat="47.46712" lon="6.81495">
        <ele>391</ele>
        <time>2016-01-17T09:21:53.000Z</time>
      </trkpt>
      <trkpt lat="47.46709" lon="6.81493">
        <ele>391</ele>
        <time>2016-01-17T09:21:54.000Z</time>
      </trkpt>
      <trkpt lat="47.46706" lon="6.81491">
        <ele>391</ele>
        <time>2016-01-17T09:21:55.000Z</time>
      </trkpt>
      <trkpt lat="47.46704" lon="6.81488">
        <ele>391</ele>
        <time>2016-01-17T09:21:56.000Z</time>
      </trkpt>
      <trkpt lat="47.467" lon="6.81485">
        <ele>391</ele>
        <time>2016-01-17T09:21:57.000Z</time>
      </trkpt>
      <trkpt lat="47.46697" lon="6.81483">
        <ele>391</ele>
        <time>2016-01-17T09:21:58.000Z</time>
      </trkpt>
      <trkpt lat="47.46694" lon="6.8148">
        <ele>391</ele>
        <time>2016-01-17T09:21:59.000Z</time>
      </trkpt>
      <trkpt lat="47.46687" lon="6.81475">
        <ele>391</ele>
        <time>2016-01-17T09:22:00.000Z</time>
      </trkpt>
      <trkpt lat="47.46683" lon="6.8147">
        <ele>391</ele>
        <time>2016-01-17T09:22:01.000Z</time>
      </trkpt>
      <trkpt lat="47.46678" lon="6.81465">
        <ele>391</ele>
        <time>2016-01-17T09:22:02.000Z</time>
      </trkpt>
      <trkpt lat="47.46674" lon="6.8146">
        <ele>391</ele>
        <time>2016-01-17T09:22:03.000Z</time>
      </trkpt>
      <trkpt lat="47.46669" lon="6.81456">
        <ele>391</ele>
        <time>2016-01-17T09:22:04.000Z</time>
      </trkpt>
      <trkpt lat="47.46665" lon="6.81452">
        <ele>392</ele>
        <time>2016-01-17T09:22:05.000Z</time>
      </trkpt>
      <trkpt lat="47.4666" lon="6.81449">
        <ele>392</ele>
        <time>2016-01-17T09:22:06.000Z</time>
      </trkpt>
      <trkpt lat="47.46656" lon="6.81447">
        <ele>392</ele>
        <time>2016-01-17T09:22:07.000Z</time>
      </trkpt>
      <trkpt lat="47.46653" lon="6.81448">
        <ele>392</ele>
        <time>2016-01-17T09:22:08.000Z</time>
      </trkpt>
      <trkpt lat="47.46649" lon="6.81449">
        <ele>392</ele>
        <time>2016-01-17T09:22:09.000Z</time>
      </trkpt>
      <trkpt lat="47.46645" lon="6.81453">
        <ele>393</ele>
        <time>2016-01-17T09:22:10.000Z</time>
      </trkpt>
      <trkpt lat="47.46642" lon="6.81456">
        <ele>393</ele>
        <time>2016-01-17T09:22:11.000Z</time>
      </trkpt>
      <trkpt lat="47.46638" lon="6.81458">
        <ele>393</ele>
        <time>2016-01-17T09:22:12.000Z</time>
      </trkpt>
      <trkpt lat="47.46634" lon="6.8146">
        <ele>393</ele>
        <time>2016-01-17T09:22:13.000Z</time>
      </trkpt>
      <trkpt lat="47.46631" lon="6.8146">
        <ele>393</ele>
        <time>2016-01-17T09:22:14.000Z</time>
      </trkpt>
      <trkpt lat="47.46627" lon="6.81459">
        <ele>393</ele>
        <time>2016-01-17T09:22:15.000Z</time>
      </trkpt>
      <trkpt lat="47.46624" lon="6.81459">
        <ele>394</ele>
        <time>2016-01-17T09:22:16.000Z</time>
      </trkpt>
      <trkpt lat="47.46621" lon="6.81458">
        <ele>394</ele>
        <time>2016-01-17T09:22:17.000Z</time>
      </trkpt>
      <trkpt lat="47.46617" lon="6.81457">
        <ele>394</ele>
        <time>2016-01-17T09:22:18.000Z</time>
      </trkpt>
      <trkpt lat="47.46614" lon="6.81455">
        <ele>394</ele>
        <time>2016-01-17T09:22:19.000Z</time>
      </trkpt>
      <trkpt lat="47.46611" lon="6.81454">
        <ele>394</ele>
        <time>2016-01-17T09:22:20.000Z</time>
      </trkpt>
      <trkpt lat="47.46608" lon="6.81453">
        <ele>394</ele>
        <time>2016-01-17T09:22:21.000Z</time>
      </trkpt>
      <trkpt lat="47.46605" lon="6.81452">
        <ele>394</ele>
        <time>2016-01-17T09:22:22.000Z</time>
      </trkpt>
      <trkpt lat="47.46602" lon="6.81451">
        <ele>394</ele>
        <time>2016-01-17T09:22:23.000Z</time>
      </trkpt>
      <trkpt lat="47.46599" lon="6.8145">
        <ele>394</ele>
        <time>2016-01-17T09:22:24.000Z</time>
      </trkpt>
      <trkpt lat="47.46595" lon="6.81448">
        <ele>394</ele>
        <time>2016-01-17T09:22:25.000Z</time>
      </trkpt>
      <trkpt lat="47.46592" lon="6.81446">
        <ele>395</ele>
        <time>2016-01-17T09:22:26.000Z</time>
      </trkpt>
      <trkpt lat="47.46588" lon="6.81444">
        <ele>395</ele>
        <time>2016-01-17T09:22:27.000Z</time>
      </trkpt>
      <trkpt lat="47.46585" lon="6.81442">
        <ele>395</ele>
        <time>2016-01-17T09:22:28.000Z</time>
      </trkpt>
      <trkpt lat="47.46582" lon="6.8144">
        <ele>399</ele>
        <time>2016-01-17T09:22:29.000Z</time>
      </trkpt>
      <trkpt lat="47.46579" lon="6.81439">
        <ele>399</ele>
        <time>2016-01-17T09:22:30.000Z</time>
      </trkpt>
      <trkpt lat="47.46575" lon="6.81438">
        <ele>399</ele>
        <time>2016-01-17T09:22:31.000Z</time>
      </trkpt>
      <trkpt lat="47.46572" lon="6.81437">
        <ele>399</ele>
        <time>2016-01-17T09:22:32.000Z</time>
      </trkpt>
      <trkpt lat="47.46568" lon="6.81437">
        <ele>400</ele>
        <time>2016-01-17T09:22:33.000Z</time>
      </trkpt>
      <trkpt lat="47.46565" lon="6.81436">
        <ele>400</ele>
        <time>2016-01-17T09:22:34.000Z</time>
      </trkpt>
      <trkpt lat="47.46562" lon="6.81434">
        <ele>400</ele>
        <time>2016-01-17T09:22:35.000Z</time>
      </trkpt>
      <trkpt lat="47.46559" lon="6.81433">
        <ele>400</ele>
        <time>2016-01-17T09:22:36.000Z</time>
      </trkpt>
      <trkpt lat="47.46557" lon="6.81431">
        <ele>400</ele>
        <time>2016-01-17T09:22:37.000Z</time>
      </trkpt>
      <trkpt lat="47.46554" lon="6.8143">
        <ele>401</ele>
        <time>2016-01-17T09:22:38.000Z</time>
      </trkpt>
      <trkpt lat="47.46551" lon="6.81429">
        <ele>401</ele>
        <time>2016-01-17T09:22:39.000Z</time>
      </trkpt>
      <trkpt lat="47.46548" lon="6.81428">
        <ele>401</ele>
        <time>2016-01-17T09:22:40.000Z</time>
      </trkpt>
      <trkpt lat="47.46545" lon="6.81428">
        <ele>401</ele>
        <time>2016-01-17T09:22:41.000Z</time>
      </trkpt>
      <trkpt lat="47.46542" lon="6.81428">
        <ele>402</ele>
        <time>2016-01-17T09:22:42.000Z</time>
      </trkpt>
      <trkpt lat="47.46539" lon="6.81428">
        <ele>402</ele>
        <time>2016-01-17T09:22:43.000Z</time>
      </trkpt>
      <trkpt lat="47.46536" lon="6.81427">
        <ele>402</ele>
        <time>2016-01-17T09:22:44.000Z</time>
      </trkpt>
      <trkpt lat="47.46534" lon="6.81426">
        <ele>402</ele>
        <time>2016-01-17T09:22:45.000Z</time>
      </trkpt>
      <trkpt lat="47.46531" lon="6.81425">
        <ele>402</ele>
        <time>2016-01-17T09:22:46.000Z</time>
      </trkpt>
      <trkpt lat="47.46529" lon="6.81424">
        <ele>402</ele>
        <time>2016-01-17T09:22:47.000Z</time>
      </trkpt>
      <trkpt lat="47.46527" lon="6.81423">
        <ele>403</ele>
        <time>2016-01-17T09:22:48.000Z</time>
      </trkpt>
      <trkpt lat="47.46525" lon="6.81422">
        <ele>403</ele>
        <time>2016-01-17T09:22:49.000Z</time>
      </trkpt>
      <trkpt lat="47.46522" lon="6.81421">
        <ele>403</ele>
        <time>2016-01-17T09:22:50.000Z</time>
      </trkpt>
      <trkpt lat="47.4652" lon="6.8142">
        <ele>403</ele>
        <time>2016-01-17T09:22:51.000Z</time>
      </trkpt>
      <trkpt lat="47.46517" lon="6.81419">
        <ele>403</ele>
        <time>2016-01-17T09:22:52.000Z</time>
      </trkpt>
      <trkpt lat="47.46515" lon="6.81418">
        <ele>403</ele>
        <time>2016-01-17T09:22:53.000Z</time>
      </trkpt>
      <trkpt lat="47.46512" lon="6.81418">
        <ele>403</ele>
        <time>2016-01-17T09:22:54.000Z</time>
      </trkpt>
      <trkpt lat="47.46509" lon="6.81418">
        <ele>403</ele>
        <time>2016-01-17T09:22:55.000Z</time>
      </trkpt>
      <trkpt lat="47.46506" lon="6.81418">
        <ele>404</ele>
        <time>2016-01-17T09:22:56.000Z</time>
      </trkpt>
      <trkpt lat="47.46503" lon="6.81417">
        <ele>404</ele>
        <time>2016-01-17T09:22:57.000Z</time>
      </trkpt>
      <trkpt lat="47.465" lon="6.81417">
        <ele>404</ele>
        <time>2016-01-17T09:22:58.000Z</time>
      </trkpt>
      <trkpt lat="47.46497" lon="6.81415">
        <ele>404</ele>
        <time>2016-01-17T09:22:59.000Z</time>
      </trkpt>
      <trkpt lat="47.46495" lon="6.81413">
        <ele>404</ele>
        <time>2016-01-17T09:23:00.000Z</time>
      </trkpt>
      <trkpt lat="47.46493" lon="6.81411">
        <ele>405</ele>
        <time>2016-01-17T09:23:01.000Z</time>
      </trkpt>
      <trkpt lat="47.46491" lon="6.81409">
        <ele>405</ele>
        <time>2016-01-17T09:23:02.000Z</time>
      </trkpt>
      <trkpt lat="47.46489" lon="6.81408">
        <ele>405</ele>
        <time>2016-01-17T09:23:03.000Z</time>
      </trkpt>
      <trkpt lat="47.46487" lon="6.81406">
        <ele>405</ele>
        <time>2016-01-17T09:23:04.000Z</time>
      </trkpt>
      <trkpt lat="47.46484" lon="6.81405">
        <ele>405</ele>
        <time>2016-01-17T09:23:05.000Z</time>
      </trkpt>
      <trkpt lat="47.46482" lon="6.81404">
        <ele>405</ele>
        <time>2016-01-17T09:23:06.000Z</time>
      </trkpt>
      <trkpt lat="47.46478" lon="6.81402">
        <ele>406</ele>
        <time>2016-01-17T09:23:08.000Z</time>
      </trkpt>
      <trkpt lat="47.46476" lon="6.814">
        <ele>406</ele>
        <time>2016-01-17T09:23:09.000Z</time>
      </trkpt>
      <trkpt lat="47.46472" lon="6.81397">
        <ele>406</ele>
        <time>2016-01-17T09:23:11.000Z</time>
      </trkpt>
      <trkpt lat="47.4647" lon="6.81395">
        <ele>406</ele>
        <time>2016-01-17T09:23:12.000Z</time>
      </trkpt>
      <trkpt lat="47.46468" lon="6.81394">
        <ele>406</ele>
        <time>2016-01-17T09:23:13.000Z</time>
      </trkpt>
      <trkpt lat="47.46465" lon="6.81393">
        <ele>406</ele>
        <time>2016-01-17T09:23:14.000Z</time>
      </trkpt>
      <trkpt lat="47.46462" lon="6.81393">
        <ele>407</ele>
        <time>2016-01-17T09:23:15.000Z</time>
      </trkpt>
      <trkpt lat="47.4646" lon="6.81392">
        <ele>407</ele>
        <time>2016-01-17T09:23:16.000Z</time>
      </trkpt>
      <trkpt lat="47.46455" lon="6.81391">
        <ele>407</ele>
        <time>2016-01-17T09:23:18.000Z</time>
      </trkpt>
      <trkpt lat="47.46453" lon="6.8139">
        <ele>407</ele>
        <time>2016-01-17T09:23:19.000Z</time>
      </trkpt>
      <trkpt lat="47.46449" lon="6.81388">
        <ele>407</ele>
        <time>2016-01-17T09:23:21.000Z</time>
      </trkpt>
      <trkpt lat="47.46447" lon="6.81386">
        <ele>408</ele>
        <time>2016-01-17T09:23:22.000Z</time>
      </trkpt>
      <trkpt lat="47.46443" lon="6.81385">
        <ele>408</ele>
        <time>2016-01-17T09:23:24.000Z</time>
      </trkpt>
      <trkpt lat="47.46441" lon="6.81384">
        <ele>408</ele>
        <time>2016-01-17T09:23:25.000Z</time>
      </trkpt>
      <trkpt lat="47.46438" lon="6.81383">
        <ele>408</ele>
        <time>2016-01-17T09:23:26.000Z</time>
      </trkpt>
      <trkpt lat="47.46435" lon="6.81382">
        <ele>408</ele>
        <time>2016-01-17T09:23:27.000Z</time>
      </trkpt>
      <trkpt lat="47.46432" lon="6.81381">
        <ele>408</ele>
        <time>2016-01-17T09:23:28.000Z</time>
      </trkpt>
      <trkpt lat="47.4643" lon="6.81381">
        <ele>408</ele>
        <time>2016-01-17T09:23:29.000Z</time>
      </trkpt>
      <trkpt lat="47.46426" lon="6.81378">
        <ele>408</ele>
        <time>2016-01-17T09:23:31.000Z</time>
      </trkpt>
      <trkpt lat="47.46424" lon="6.81377">
        <ele>408</ele>
        <time>2016-01-17T09:23:32.000Z</time>
      </trkpt>
      <trkpt lat="47.46422" lon="6.81376">
        <ele>408</ele>
        <time>2016-01-17T09:23:33.000Z</time>
      </trkpt>
      <trkpt lat="47.4642" lon="6.81374">
        <ele>409</ele>
        <time>2016-01-17T09:23:34.000Z</time>
      </trkpt>
      <trkpt lat="47.46416" lon="6.81372">
        <ele>415</ele>
        <time>2016-01-17T09:23:36.000Z</time>
      </trkpt>
      <trkpt lat="47.46414" lon="6.81371">
        <ele>415</ele>
        <time>2016-01-17T09:23:37.000Z</time>
      </trkpt>
      <trkpt lat="47.4641" lon="6.81368">
        <ele>415</ele>
        <time>2016-01-17T09:23:39.000Z</time>
      </trkpt>
      <trkpt lat="47.46408" lon="6.81367">
        <ele>415</ele>
        <time>2016-01-17T09:23:40.000Z</time>
      </trkpt>
      <trkpt lat="47.46404" lon="6.81364">
        <ele>415</ele>
        <time>2016-01-17T09:23:42.000Z</time>
      </trkpt>
      <trkpt lat="47.46402" lon="6.81363">
        <ele>415</ele>
        <time>2016-01-17T09:23:43.000Z</time>
      </trkpt>
      <trkpt lat="47.46398" lon="6.81359">
        <ele>415</ele>
        <time>2016-01-17T09:23:45.000Z</time>
      </trkpt>
      <trkpt lat="47.46397" lon="6.81358">
        <ele>415</ele>
        <time>2016-01-17T09:23:46.000Z</time>
      </trkpt>
      <trkpt lat="47.46393" lon="6.81354">
        <ele>415</ele>
        <time>2016-01-17T09:23:48.000Z</time>
      </trkpt>
      <trkpt lat="47.46391" lon="6.81353">
        <ele>415</ele>
        <time>2016-01-17T09:23:49.000Z</time>
      </trkpt>
      <trkpt lat="47.46388" lon="6.81351">
        <ele>415</ele>
        <time>2016-01-17T09:23:50.000Z</time>
      </trkpt>
      <trkpt lat="47.46386" lon="6.81349">
        <ele>415</ele>
        <time>2016-01-17T09:23:51.000Z</time>
      </trkpt>
      <trkpt lat="47.46383" lon="6.81347">
        <ele>416</ele>
        <time>2016-01-17T09:23:52.000Z</time>
      </trkpt>
      <trkpt lat="47.46381" lon="6.81345">
        <ele>416</ele>
        <time>2016-01-17T09:23:53.000Z</time>
      </trkpt>
      <trkpt lat="47.46378" lon="6.81344">
        <ele>416</ele>
        <time>2016-01-17T09:23:54.000Z</time>
      </trkpt>
      <trkpt lat="47.46376" lon="6.81342">
        <ele>416</ele>
        <time>2016-01-17T09:23:55.000Z</time>
      </trkpt>
      <trkpt lat="47.46374" lon="6.81341">
        <ele>416</ele>
        <time>2016-01-17T09:23:56.000Z</time>
      </trkpt>
      <trkpt lat="47.46372" lon="6.81339">
        <ele>416</ele>
        <time>2016-01-17T09:23:57.000Z</time>
      </trkpt>
      <trkpt lat="47.46368" lon="6.81336">
        <ele>417</ele>
        <time>2016-01-17T09:23:59.000Z</time>
      </trkpt>
      <trkpt lat="47.46367" lon="6.81334">
        <ele>417</ele>
        <time>2016-01-17T09:24:00.000Z</time>
      </trkpt>
      <trkpt lat="47.46364" lon="6.81329">
        <ele>415</ele>
        <time>2016-01-17T09:24:02.000Z</time>
      </trkpt>
      <trkpt lat="47.46363" lon="6.81326">
        <ele>415</ele>
        <time>2016-01-17T09:24:03.000Z</time>
      </trkpt>
      <trkpt lat="47.4636" lon="6.81323">
        <ele>415</ele>
        <time>2016-01-17T09:24:05.000Z</time>
      </trkpt>
      <trkpt lat="47.46359" lon="6.81321">
        <ele>415</ele>
        <time>2016-01-17T09:24:06.000Z</time>
      </trkpt>
      <trkpt lat="47.46355" lon="6.81318">
        <ele>415</ele>
        <time>2016-01-17T09:24:08.000Z</time>
      </trkpt>
      <trkpt lat="47.46354" lon="6.81317">
        <ele>415</ele>
        <time>2016-01-17T09:24:09.000Z</time>
      </trkpt>
      <trkpt lat="47.4635" lon="6.81314">
        <ele>415</ele>
        <time>2016-01-17T09:24:11.000Z</time>
      </trkpt>
      <trkpt lat="47.46348" lon="6.81313">
        <ele>415</ele>
        <time>2016-01-17T09:24:12.000Z</time>
      </trkpt>
      <trkpt lat="47.46344" lon="6.81311">
        <ele>415</ele>
        <time>2016-01-17T09:24:14.000Z</time>
      </trkpt>
      <trkpt lat="47.46342" lon="6.8131">
        <ele>415</ele>
        <time>2016-01-17T09:24:15.000Z</time>
      </trkpt>
      <trkpt lat="47.46338" lon="6.81307">
        <ele>415</ele>
        <time>2016-01-17T09:24:17.000Z</time>
      </trkpt>
      <trkpt lat="47.46336" lon="6.81305">
        <ele>415</ele>
        <time>2016-01-17T09:24:18.000Z</time>
      </trkpt>
      <trkpt lat="47.46334" lon="6.81304">
        <ele>415</ele>
        <time>2016-01-17T09:24:19.000Z</time>
      </trkpt>
      <trkpt lat="47.46332" lon="6.81302">
        <ele>417</ele>
        <time>2016-01-17T09:24:20.000Z</time>
      </trkpt>
      <trkpt lat="47.4633" lon="6.813">
        <ele>417</ele>
        <time>2016-01-17T09:24:21.000Z</time>
      </trkpt>
      <trkpt lat="47.46328" lon="6.81298">
        <ele>417</ele>
        <time>2016-01-17T09:24:22.000Z</time>
      </trkpt>
      <trkpt lat="47.46325" lon="6.81297">
        <ele>417</ele>
        <time>2016-01-17T09:24:23.000Z</time>
      </trkpt>
      <trkpt lat="47.46323" lon="6.81296">
        <ele>417</ele>
        <time>2016-01-17T09:24:24.000Z</time>
      </trkpt>
      <trkpt lat="47.4632" lon="6.81294">
        <ele>417</ele>
        <time>2016-01-17T09:24:26.000Z</time>
      </trkpt>
      <trkpt lat="47.46318" lon="6.81293">
        <ele>416</ele>
        <time>2016-01-17T09:24:27.000Z</time>
      </trkpt>
      <trkpt lat="47.46315" lon="6.81291">
        <ele>416</ele>
        <time>2016-01-17T09:24:29.000Z</time>
      </trkpt>
      <trkpt lat="47.46312" lon="6.81289">
        <ele>416</ele>
        <time>2016-01-17T09:24:30.000Z</time>
      </trkpt>
      <trkpt lat="47.4631" lon="6.81288">
        <ele>416</ele>
        <time>2016-01-17T09:24:31.000Z</time>
      </trkpt>
      <trkpt lat="47.46308" lon="6.81286">
        <ele>416</ele>
        <time>2016-01-17T09:24:32.000Z</time>
      </trkpt>
      <trkpt lat="47.46305" lon="6.81284">
        <ele>416</ele>
        <time>2016-01-17T09:24:33.000Z</time>
      </trkpt>
      <trkpt lat="47.46303" lon="6.81282">
        <ele>416</ele>
        <time>2016-01-17T09:24:34.000Z</time>
      </trkpt>
      <trkpt lat="47.46301" lon="6.81281">
        <ele>416</ele>
        <time>2016-01-17T09:24:35.000Z</time>
      </trkpt>
      <trkpt lat="47.46298" lon="6.81279">
        <ele>416</ele>
        <time>2016-01-17T09:24:36.000Z</time>
      </trkpt>
      <trkpt lat="47.46296" lon="6.81277">
        <ele>416</ele>
        <time>2016-01-17T09:24:37.000Z</time>
      </trkpt>
      <trkpt lat="47.46294" lon="6.81276">
        <ele>416</ele>
        <time>2016-01-17T09:24:38.000Z</time>
      </trkpt>
      <trkpt lat="47.46291" lon="6.81274">
        <ele>416</ele>
        <time>2016-01-17T09:24:39.000Z</time>
      </trkpt>
      <trkpt lat="47.46289" lon="6.81273">
        <ele>416</ele>
        <time>2016-01-17T09:24:40.000Z</time>
      </trkpt>
      <trkpt lat="47.46286" lon="6.81271">
        <ele>416</ele>
        <time>2016-01-17T09:24:41.000Z</time>
      </trkpt>
      <trkpt lat="47.46284" lon="6.81269">
        <ele>416</ele>
        <time>2016-01-17T09:24:42.000Z</time>
      </trkpt>
      <trkpt lat="47.46282" lon="6.81267">
        <ele>416</ele>
        <time>2016-01-17T09:24:43.000Z</time>
      </trkpt>
      <trkpt lat="47.46279" lon="6.81266">
        <ele>415</ele>
        <time>2016-01-17T09:24:44.000Z</time>
      </trkpt>
      <trkpt lat="47.46277" lon="6.81264">
        <ele>415</ele>
        <time>2016-01-17T09:24:45.000Z</time>
      </trkpt>
      <trkpt lat="47.46274" lon="6.81262">
        <ele>415</ele>
        <time>2016-01-17T09:24:46.000Z</time>
      </trkpt>
      <trkpt lat="47.46271" lon="6.8126">
        <ele>415</ele>
        <time>2016-01-17T09:24:47.000Z</time>
      </trkpt>
      <trkpt lat="47.46269" lon="6.81259">
        <ele>415</ele>
        <time>2016-01-17T09:24:48.000Z</time>
      </trkpt>
      <trkpt lat="47.46267" lon="6.81257">
        <ele>415</ele>
        <time>2016-01-17T09:24:49.000Z</time>
      </trkpt>
      <trkpt lat="47.46265" lon="6.81255">
        <ele>415</ele>
        <time>2016-01-17T09:24:50.000Z</time>
      </trkpt>
      <trkpt lat="47.46261" lon="6.81252">
        <ele>414</ele>
        <time>2016-01-17T09:24:52.000Z</time>
      </trkpt>
      <trkpt lat="47.4626" lon="6.81251">
        <ele>414</ele>
        <time>2016-01-17T09:24:53.000Z</time>
      </trkpt>
      <trkpt lat="47.46257" lon="6.81248">
        <ele>413</ele>
        <time>2016-01-17T09:24:55.000Z</time>
      </trkpt>
      <trkpt lat="47.46256" lon="6.81246">
        <ele>413</ele>
        <time>2016-01-17T09:24:56.000Z</time>
      </trkpt>
      <trkpt lat="47.46252" lon="6.81243">
        <ele>413</ele>
        <time>2016-01-17T09:24:58.000Z</time>
      </trkpt>
      <trkpt lat="47.4625" lon="6.81241">
        <ele>412</ele>
        <time>2016-01-17T09:24:59.000Z</time>
      </trkpt>
      <trkpt lat="47.46247" lon="6.81237">
        <ele>413</ele>
        <time>2016-01-17T09:25:02.000Z</time>
      </trkpt>
      <trkpt lat="47.46246" lon="6.81236">
        <ele>413</ele>
        <time>2016-01-17T09:25:03.000Z</time>
      </trkpt>
      <trkpt lat="47.46242" lon="6.81235">
        <ele>413</ele>
        <time>2016-01-17T09:25:29.000Z</time>
      </trkpt>
      <trkpt lat="47.46242" lon="6.81235">
        <ele>413</ele>
        <time>2016-01-17T09:25:30.000Z</time>
      </trkpt>
      <trkpt lat="47.46238" lon="6.81232">
        <ele>413</ele>
        <time>2016-01-17T09:26:40.000Z</time>
      </trkpt>
      <trkpt lat="47.46237" lon="6.81231">
        <ele>413</ele>
        <time>2016-01-17T09:26:41.000Z</time>
      </trkpt>
      <trkpt lat="47.46233" lon="6.81229">
        <ele>413</ele>
        <time>2016-01-17T09:26:43.000Z</time>
      </trkpt>
      <trkpt lat="47.46231" lon="6.81227">
        <ele>413</ele>
        <time>2016-01-17T09:26:44.000Z</time>
      </trkpt>
      <trkpt lat="47.46229" lon="6.81225">
        <ele>413</ele>
        <time>2016-01-17T09:26:45.000Z</time>
      </trkpt>
      <trkpt lat="47.46227" lon="6.81223">
        <ele>413</ele>
        <time>2016-01-17T09:26:46.000Z</time>
      </trkpt>
      <trkpt lat="47.46224" lon="6.81218">
        <ele>413</ele>
        <time>2016-01-17T09:26:48.000Z</time>
      </trkpt>
      <trkpt lat="47.46223" lon="6.81216">
        <ele>412</ele>
        <time>2016-01-17T09:26:49.000Z</time>
      </trkpt>
      <trkpt lat="47.4622" lon="6.81214">
        <ele>412</ele>
        <time>2016-01-17T09:26:50.000Z</time>
      </trkpt>
      <trkpt lat="47.46218" lon="6.81213">
        <ele>412</ele>
        <time>2016-01-17T09:26:51.000Z</time>
      </trkpt>
      <trkpt lat="47.46215" lon="6.81211">
        <ele>412</ele>
        <time>2016-01-17T09:26:52.000Z</time>
      </trkpt>
      <trkpt lat="47.46212" lon="6.81209">
        <ele>412</ele>
        <time>2016-01-17T09:26:53.000Z</time>
      </trkpt>
      <trkpt lat="47.46209" lon="6.81206">
        <ele>412</ele>
        <time>2016-01-17T09:26:54.000Z</time>
      </trkpt>
      <trkpt lat="47.46206" lon="6.81204">
        <ele>412</ele>
        <time>2016-01-17T09:26:55.000Z</time>
      </trkpt>
      <trkpt lat="47.46202" lon="6.81201">
        <ele>412</ele>
        <time>2016-01-17T09:26:56.000Z</time>
      </trkpt>
      <trkpt lat="47.46198" lon="6.81197">
        <ele>412</ele>
        <time>2016-01-17T09:26:57.000Z</time>
      </trkpt>
      <trkpt lat="47.46194" lon="6.81194">
        <ele>412</ele>
        <time>2016-01-17T09:26:58.000Z</time>
      </trkpt>
      <trkpt lat="47.46189" lon="6.81191">
        <ele>412</ele>
        <time>2016-01-17T09:26:59.000Z</time>
      </trkpt>
      <trkpt lat="47.46179" lon="6.81186">
        <ele>412</ele>
        <time>2016-01-17T09:27:00.000Z</time>
      </trkpt>
      <trkpt lat="47.46174" lon="6.81183">
        <ele>412</ele>
        <time>2016-01-17T09:27:01.000Z</time>
      </trkpt>
      <trkpt lat="47.46167" lon="6.81178">
        <ele>412</ele>
        <time>2016-01-17T09:27:02.000Z</time>
      </trkpt>
      <trkpt lat="47.4616" lon="6.81173">
        <ele>411</ele>
        <time>2016-01-17T09:27:03.000Z</time>
      </trkpt>
      <trkpt lat="47.46152" lon="6.81169">
        <ele>411</ele>
        <time>2016-01-17T09:27:04.000Z</time>
      </trkpt>
      <trkpt lat="47.46143" lon="6.81164">
        <ele>408</ele>
        <time>2016-01-17T09:27:05.000Z</time>
      </trkpt>
      <trkpt lat="47.46136" lon="6.81159">
        <ele>408</ele>
        <time>2016-01-17T09:27:06.000Z</time>
      </trkpt>
      <trkpt lat="47.46126" lon="6.81151">
        <ele>407</ele>
        <time>2016-01-17T09:27:07.000Z</time>
      </trkpt>
      <trkpt lat="47.46117" lon="6.81142">
        <ele>407</ele>
        <time>2016-01-17T09:27:08.000Z</time>
      </trkpt>
      <trkpt lat="47.4611" lon="6.81137">
        <ele>407</ele>
        <time>2016-01-17T09:27:09.000Z</time>
      </trkpt>
      <trkpt lat="47.46103" lon="6.81131">
        <ele>407</ele>
        <time>2016-01-17T09:27:10.000Z</time>
      </trkpt>
      <trkpt lat="47.46096" lon="6.81124">
        <ele>406</ele>
        <time>2016-01-17T09:27:11.000Z</time>
      </trkpt>
      <trkpt lat="47.46088" lon="6.81117">
        <ele>406</ele>
        <time>2016-01-17T09:27:12.000Z</time>
      </trkpt>
      <trkpt lat="47.4608" lon="6.81112">
        <ele>404</ele>
        <time>2016-01-17T09:27:13.000Z</time>
      </trkpt>
      <trkpt lat="47.46071" lon="6.81108">
        <ele>403</ele>
        <time>2016-01-17T09:27:14.000Z</time>
      </trkpt>
      <trkpt lat="47.46063" lon="6.81103">
        <ele>403</ele>
        <time>2016-01-17T09:27:15.000Z</time>
      </trkpt>
      <trkpt lat="47.46057" lon="6.81095">
        <ele>403</ele>
        <time>2016-01-17T09:27:16.000Z</time>
      </trkpt>
      <trkpt lat="47.4605" lon="6.8109">
        <ele>402</ele>
        <time>2016-01-17T09:27:17.000Z</time>
      </trkpt>
      <trkpt lat="47.46044" lon="6.81086">
        <ele>402</ele>
        <time>2016-01-17T09:27:18.000Z</time>
      </trkpt>
      <trkpt lat="47.46035" lon="6.81082">
        <ele>400</ele>
        <time>2016-01-17T09:27:19.000Z</time>
      </trkpt>
      <trkpt lat="47.46028" lon="6.81076">
        <ele>399</ele>
        <time>2016-01-17T09:27:20.000Z</time>
      </trkpt>
      <trkpt lat="47.46023" lon="6.81072">
        <ele>399</ele>
        <time>2016-01-17T09:27:21.000Z</time>
      </trkpt>
      <trkpt lat="47.46016" lon="6.81069">
        <ele>398</ele>
        <time>2016-01-17T09:27:22.000Z</time>
      </trkpt>
      <trkpt lat="47.46009" lon="6.81065">
        <ele>398</ele>
        <time>2016-01-17T09:27:23.000Z</time>
      </trkpt>
      <trkpt lat="47.46002" lon="6.81061">
        <ele>398</ele>
        <time>2016-01-17T09:27:24.000Z</time>
      </trkpt>
      <trkpt lat="47.45993" lon="6.81055">
        <ele>394</ele>
        <time>2016-01-17T09:27:25.000Z</time>
      </trkpt>
      <trkpt lat="47.45987" lon="6.81049">
        <ele>393</ele>
        <time>2016-01-17T09:27:26.000Z</time>
      </trkpt>
      <trkpt lat="47.45981" lon="6.81043">
        <ele>393</ele>
        <time>2016-01-17T09:27:27.000Z</time>
      </trkpt>
      <trkpt lat="47.45974" lon="6.81038">
        <ele>392</ele>
        <time>2016-01-17T09:27:28.000Z</time>
      </trkpt>
      <trkpt lat="47.45969" lon="6.81032">
        <ele>392</ele>
        <time>2016-01-17T09:27:29.000Z</time>
      </trkpt>
      <trkpt lat="47.45965" lon="6.8103">
        <ele>392</ele>
        <time>2016-01-17T09:27:30.000Z</time>
      </trkpt>
      <trkpt lat="47.45962" lon="6.81026">
        <ele>392</ele>
        <time>2016-01-17T09:27:31.000Z</time>
      </trkpt>
      <trkpt lat="47.45958" lon="6.81025">
        <ele>391</ele>
        <time>2016-01-17T09:27:32.000Z</time>
      </trkpt>
      <trkpt lat="47.45956" lon="6.81023">
        <ele>391</ele>
        <time>2016-01-17T09:27:33.000Z</time>
      </trkpt>
      <trkpt lat="47.45953" lon="6.81019">
        <ele>391</ele>
        <time>2016-01-17T09:27:36.000Z</time>
      </trkpt>
      <trkpt lat="47.45952" lon="6.81017">
        <ele>391</ele>
        <time>2016-01-17T09:27:37.000Z</time>
      </trkpt>
      <trkpt lat="47.45953" lon="6.8101">
        <ele>390</ele>
        <time>2016-01-17T09:27:39.000Z</time>
      </trkpt>
      <trkpt lat="47.45956" lon="6.81007">
        <ele>391</ele>
        <time>2016-01-17T09:27:40.000Z</time>
      </trkpt>
      <trkpt lat="47.45958" lon="6.81004">
        <ele>391</ele>
        <time>2016-01-17T09:27:41.000Z</time>
      </trkpt>
      <trkpt lat="47.4596" lon="6.81">
        <ele>388</ele>
        <time>2016-01-17T09:27:42.000Z</time>
      </trkpt>
      <trkpt lat="47.45962" lon="6.80995">
        <ele>388</ele>
        <time>2016-01-17T09:27:43.000Z</time>
      </trkpt>
      <trkpt lat="47.45964" lon="6.8099">
        <ele>388</ele>
        <time>2016-01-17T09:27:44.000Z</time>
      </trkpt>
      <trkpt lat="47.45965" lon="6.80985">
        <ele>388</ele>
        <time>2016-01-17T09:27:45.000Z</time>
      </trkpt>
      <trkpt lat="47.45967" lon="6.80978">
        <ele>388</ele>
        <time>2016-01-17T09:27:46.000Z</time>
      </trkpt>
      <trkpt lat="47.4597" lon="6.80966">
        <ele>388</ele>
        <time>2016-01-17T09:27:47.000Z</time>
      </trkpt>
      <trkpt lat="47.45972" lon="6.80958">
        <ele>387</ele>
        <time>2016-01-17T09:27:48.000Z</time>
      </trkpt>
      <trkpt lat="47.45974" lon="6.80951">
        <ele>387</ele>
        <time>2016-01-17T09:27:49.000Z</time>
      </trkpt>
      <trkpt lat="47.45976" lon="6.80946">
        <ele>388</ele>
        <time>2016-01-17T09:27:50.000Z</time>
      </trkpt>
      <trkpt lat="47.45977" lon="6.80941">
        <ele>388</ele>
        <time>2016-01-17T09:27:51.000Z</time>
      </trkpt>
      <trkpt lat="47.45977" lon="6.80935">
        <ele>388</ele>
        <time>2016-01-17T09:27:53.000Z</time>
      </trkpt>
      <trkpt lat="47.45976" lon="6.80933">
        <ele>388</ele>
        <time>2016-01-17T09:27:54.000Z</time>
      </trkpt>
      <trkpt lat="47.45975" lon="6.80928">
        <ele>388</ele>
        <time>2016-01-17T09:27:56.000Z</time>
      </trkpt>
      <trkpt lat="47.45973" lon="6.80926">
        <ele>387</ele>
        <time>2016-01-17T09:27:57.000Z</time>
      </trkpt>
      <trkpt lat="47.45972" lon="6.80922">
        <ele>387</ele>
        <time>2016-01-17T09:27:58.000Z</time>
      </trkpt>
      <trkpt lat="47.45972" lon="6.80918">
        <ele>387</ele>
        <time>2016-01-17T09:27:59.000Z</time>
      </trkpt>
      <trkpt lat="47.45971" lon="6.80913">
        <ele>386</ele>
        <time>2016-01-17T09:28:00.000Z</time>
      </trkpt>
      <trkpt lat="47.45971" lon="6.80908">
        <ele>386</ele>
        <time>2016-01-17T09:28:01.000Z</time>
      </trkpt>
      <trkpt lat="47.45972" lon="6.80902">
        <ele>386</ele>
        <time>2016-01-17T09:28:02.000Z</time>
      </trkpt>
      <trkpt lat="47.45973" lon="6.80897">
        <ele>386</ele>
        <time>2016-01-17T09:28:03.000Z</time>
      </trkpt>
      <trkpt lat="47.45975" lon="6.80894">
        <ele>387</ele>
        <time>2016-01-17T09:28:04.000Z</time>
      </trkpt>
      <trkpt lat="47.45976" lon="6.80892">
        <ele>387</ele>
        <time>2016-01-17T09:28:05.000Z</time>
      </trkpt>
      <trkpt lat="47.45979" lon="6.80887">
        <ele>387</ele>
        <time>2016-01-17T09:28:10.000Z</time>
      </trkpt>
      <trkpt lat="47.45979" lon="6.80885">
        <ele>387</ele>
        <time>2016-01-17T09:28:11.000Z</time>
      </trkpt>
      <trkpt lat="47.45977" lon="6.80879">
        <ele>387</ele>
        <time>2016-01-17T09:28:25.000Z</time>
      </trkpt>
      <trkpt lat="47.45977" lon="6.80879">
        <ele>387</ele>
        <time>2016-01-17T09:28:26.000Z</time>
      </trkpt>
      <trkpt lat="47.45973" lon="6.80876">
        <ele>386</ele>
        <time>2016-01-17T09:28:34.000Z</time>
      </trkpt>
      <trkpt lat="47.45972" lon="6.80875">
        <ele>386</ele>
        <time>2016-01-17T09:28:35.000Z</time>
      </trkpt>
      <trkpt lat="47.4597" lon="6.8087">
        <ele>386</ele>
        <time>2016-01-17T09:28:38.000Z</time>
      </trkpt>
      <trkpt lat="47.45969" lon="6.80868">
        <ele>386</ele>
        <time>2016-01-17T09:28:39.000Z</time>
      </trkpt>
      <trkpt lat="47.45967" lon="6.80864">
        <ele>386</ele>
        <time>2016-01-17T09:28:41.000Z</time>
      </trkpt>
      <trkpt lat="47.45967" lon="6.8086">
        <ele>386</ele>
        <time>2016-01-17T09:28:42.000Z</time>
      </trkpt>
      <trkpt lat="47.45966" lon="6.80854">
        <ele>386</ele>
        <time>2016-01-17T09:28:44.000Z</time>
      </trkpt>
      <trkpt lat="47.45966" lon="6.80851">
        <ele>386</ele>
        <time>2016-01-17T09:28:45.000Z</time>
      </trkpt>
      <trkpt lat="47.45966" lon="6.80846">
        <ele>386</ele>
        <time>2016-01-17T09:28:48.000Z</time>
      </trkpt>
      <trkpt lat="47.45967" lon="6.80844">
        <ele>386</ele>
        <time>2016-01-17T09:28:49.000Z</time>
      </trkpt>
      <trkpt lat="47.45968" lon="6.80838">
        <ele>387</ele>
        <time>2016-01-17T09:28:51.000Z</time>
      </trkpt>
      <trkpt lat="47.45968" lon="6.80835">
        <ele>387</ele>
        <time>2016-01-17T09:28:52.000Z</time>
      </trkpt>
      <trkpt lat="47.45966" lon="6.80832">
        <ele>387</ele>
        <time>2016-01-17T09:28:53.000Z</time>
      </trkpt>
      <trkpt lat="47.45965" lon="6.80829">
        <ele>386</ele>
        <time>2016-01-17T09:28:54.000Z</time>
      </trkpt>
      <trkpt lat="47.45966" lon="6.80824">
        <ele>386</ele>
        <time>2016-01-17T09:28:56.000Z</time>
      </trkpt>
      <trkpt lat="47.45967" lon="6.80822">
        <ele>387</ele>
        <time>2016-01-17T09:28:57.000Z</time>
      </trkpt>
      <trkpt lat="47.4597" lon="6.80818">
        <ele>387</ele>
        <time>2016-01-17T09:28:59.000Z</time>
      </trkpt>
      <trkpt lat="47.4597" lon="6.80816">
        <ele>387</ele>
        <time>2016-01-17T09:29:00.000Z</time>
      </trkpt>
      <trkpt lat="47.4597" lon="6.80811">
        <ele>387</ele>
        <time>2016-01-17T09:29:02.000Z</time>
      </trkpt>
      <trkpt lat="47.4597" lon="6.80808">
        <ele>387</ele>
        <time>2016-01-17T09:29:03.000Z</time>
      </trkpt>
      <trkpt lat="47.4597" lon="6.80802">
        <ele>387</ele>
        <time>2016-01-17T09:29:05.000Z</time>
      </trkpt>
      <trkpt lat="47.45971" lon="6.80799">
        <ele>387</ele>
        <time>2016-01-17T09:29:06.000Z</time>
      </trkpt>
      <trkpt lat="47.4597" lon="6.80793">
        <ele>386</ele>
        <time>2016-01-17T09:29:11.000Z</time>
      </trkpt>
      <trkpt lat="47.4597" lon="6.80792">
        <ele>386</ele>
        <time>2016-01-17T09:29:12.000Z</time>
      </trkpt>
      <trkpt lat="47.45972" lon="6.80786">
        <ele>387</ele>
        <time>2016-01-17T09:29:34.000Z</time>
      </trkpt>
      <trkpt lat="47.45973" lon="6.80786">
        <ele>387</ele>
        <time>2016-01-17T09:29:35.000Z</time>
      </trkpt>
      <trkpt lat="47.45977" lon="6.80786">
        <ele>387</ele>
        <time>2016-01-17T09:29:41.000Z</time>
      </trkpt>
      <trkpt lat="47.45978" lon="6.80785">
        <ele>387</ele>
        <time>2016-01-17T09:29:42.000Z</time>
      </trkpt>
      <trkpt lat="47.45981" lon="6.80781">
        <ele>387</ele>
        <time>2016-01-17T09:29:49.000Z</time>
      </trkpt>
      <trkpt lat="47.45982" lon="6.80781">
        <ele>387</ele>
        <time>2016-01-17T09:29:50.000Z</time>
      </trkpt>
      <trkpt lat="47.45984" lon="6.80776">
        <ele>387</ele>
        <time>2016-01-17T09:30:01.000Z</time>
      </trkpt>
      <trkpt lat="47.45984" lon="6.80775">
        <ele>387</ele>
        <time>2016-01-17T09:30:02.000Z</time>
      </trkpt>
      <trkpt lat="47.45983" lon="6.80769">
        <ele>388</ele>
        <time>2016-01-17T09:30:13.000Z</time>
      </trkpt>
      <trkpt lat="47.45984" lon="6.80768">
        <ele>388</ele>
        <time>2016-01-17T09:30:14.000Z</time>
      </trkpt>
      <trkpt lat="47.45986" lon="6.80764">
        <ele>388</ele>
        <time>2016-01-17T09:30:17.000Z</time>
      </trkpt>
      <trkpt lat="47.45987" lon="6.80762">
        <ele>388</ele>
        <time>2016-01-17T09:30:18.000Z</time>
      </trkpt>
      <trkpt lat="47.45988" lon="6.80758">
        <ele>389</ele>
        <time>2016-01-17T09:30:20.000Z</time>
      </trkpt>
      <trkpt lat="47.45988" lon="6.80756">
        <ele>389</ele>
        <time>2016-01-17T09:30:21.000Z</time>
      </trkpt>
      <trkpt lat="47.45989" lon="6.8075">
        <ele>389</ele>
        <time>2016-01-17T09:30:23.000Z</time>
      </trkpt>
      <trkpt lat="47.4599" lon="6.80747">
        <ele>389</ele>
        <time>2016-01-17T09:30:24.000Z</time>
      </trkpt>
      <trkpt lat="47.45991" lon="6.80742">
        <ele>388</ele>
        <time>2016-01-17T09:30:26.000Z</time>
      </trkpt>
      <trkpt lat="47.45991" lon="6.80739">
        <ele>388</ele>
        <time>2016-01-17T09:30:27.000Z</time>
      </trkpt>
      <trkpt lat="47.45993" lon="6.80734">
        <ele>387</ele>
        <time>2016-01-17T09:30:29.000Z</time>
      </trkpt>
      <trkpt lat="47.45993" lon="6.80732">
        <ele>387</ele>
        <time>2016-01-17T09:30:30.000Z</time>
      </trkpt>
      <trkpt lat="47.45994" lon="6.80727">
        <ele>387</ele>
        <time>2016-01-17T09:30:32.000Z</time>
      </trkpt>
      <trkpt lat="47.45995" lon="6.80725">
        <ele>387</ele>
        <time>2016-01-17T09:30:33.000Z</time>
      </trkpt>
      <trkpt lat="47.45996" lon="6.80721">
        <ele>387</ele>
        <time>2016-01-17T09:30:35.000Z</time>
      </trkpt>
      <trkpt lat="47.45997" lon="6.80719">
        <ele>387</ele>
        <time>2016-01-17T09:30:36.000Z</time>
      </trkpt>
      <trkpt lat="47.45999" lon="6.80715">
        <ele>386</ele>
        <time>2016-01-17T09:30:38.000Z</time>
      </trkpt>
      <trkpt lat="47.45999" lon="6.80712">
        <ele>386</ele>
        <time>2016-01-17T09:30:39.000Z</time>
      </trkpt>
      <trkpt lat="47.46001" lon="6.80706">
        <ele>391</ele>
        <time>2016-01-17T09:30:42.000Z</time>
      </trkpt>
      <trkpt lat="47.46001" lon="6.80704">
        <ele>391</ele>
        <time>2016-01-17T09:30:43.000Z</time>
      </trkpt>
      <trkpt lat="47.46001" lon="6.80699">
        <ele>391</ele>
        <time>2016-01-17T09:30:46.000Z</time>
      </trkpt>
      <trkpt lat="47.46002" lon="6.80697">
        <ele>391</ele>
        <time>2016-01-17T09:30:47.000Z</time>
      </trkpt>
      <trkpt lat="47.46003" lon="6.80692">
        <ele>391</ele>
        <time>2016-01-17T09:30:49.000Z</time>
      </trkpt>
      <trkpt lat="47.46004" lon="6.80689">
        <ele>391</ele>
        <time>2016-01-17T09:30:50.000Z</time>
      </trkpt>
      <trkpt lat="47.46005" lon="6.80686">
        <ele>391</ele>
        <time>2016-01-17T09:30:51.000Z</time>
      </trkpt>
      <trkpt lat="47.46006" lon="6.80683">
        <ele>391</ele>
        <time>2016-01-17T09:30:52.000Z</time>
      </trkpt>
      <trkpt lat="47.46009" lon="6.80678">
        <ele>391</ele>
        <time>2016-01-17T09:30:54.000Z</time>
      </trkpt>
      <trkpt lat="47.4601" lon="6.80675">
        <ele>391</ele>
        <time>2016-01-17T09:30:55.000Z</time>
      </trkpt>
      <trkpt lat="47.46011" lon="6.8067">
        <ele>391</ele>
        <time>2016-01-17T09:30:57.000Z</time>
      </trkpt>
      <trkpt lat="47.46011" lon="6.80667">
        <ele>391</ele>
        <time>2016-01-17T09:30:58.000Z</time>
      </trkpt>
      <trkpt lat="47.46013" lon="6.80662">
        <ele>393</ele>
        <time>2016-01-17T09:31:00.000Z</time>
      </trkpt>
      <trkpt lat="47.46014" lon="6.80659">
        <ele>393</ele>
        <time>2016-01-17T09:31:01.000Z</time>
      </trkpt>
      <trkpt lat="47.46015" lon="6.80654">
        <ele>393</ele>
        <time>2016-01-17T09:31:03.000Z</time>
      </trkpt>
      <trkpt lat="47.46016" lon="6.8065">
        <ele>393</ele>
        <time>2016-01-17T09:31:04.000Z</time>
      </trkpt>
      <trkpt lat="47.46017" lon="6.80647">
        <ele>394</ele>
        <time>2016-01-17T09:31:05.000Z</time>
      </trkpt>
      <trkpt lat="47.46018" lon="6.80644">
        <ele>394</ele>
        <time>2016-01-17T09:31:06.000Z</time>
      </trkpt>
      <trkpt lat="47.46019" lon="6.8064">
        <ele>394</ele>
        <time>2016-01-17T09:31:07.000Z</time>
      </trkpt>
      <trkpt lat="47.4602" lon="6.80637">
        <ele>394</ele>
        <time>2016-01-17T09:31:08.000Z</time>
      </trkpt>
      <trkpt lat="47.46021" lon="6.80633">
        <ele>394</ele>
        <time>2016-01-17T09:31:09.000Z</time>
      </trkpt>
      <trkpt lat="47.46022" lon="6.8063">
        <ele>395</ele>
        <time>2016-01-17T09:31:10.000Z</time>
      </trkpt>
      <trkpt lat="47.46022" lon="6.80627">
        <ele>395</ele>
        <time>2016-01-17T09:31:11.000Z</time>
      </trkpt>
      <trkpt lat="47.46023" lon="6.80623">
        <ele>395</ele>
        <time>2016-01-17T09:31:12.000Z</time>
      </trkpt>
      <trkpt lat="47.46025" lon="6.80617">
        <ele>395</ele>
        <time>2016-01-17T09:31:14.000Z</time>
      </trkpt>
      <trkpt lat="47.46025" lon="6.80614">
        <ele>395</ele>
        <time>2016-01-17T09:31:15.000Z</time>
      </trkpt>
      <trkpt lat="47.46026" lon="6.80611">
        <ele>395</ele>
        <time>2016-01-17T09:31:16.000Z</time>
      </trkpt>
      <trkpt lat="47.46027" lon="6.80608">
        <ele>395</ele>
        <time>2016-01-17T09:31:17.000Z</time>
      </trkpt>
      <trkpt lat="47.46029" lon="6.80602">
        <ele>395</ele>
        <time>2016-01-17T09:31:18.999Z</time>
      </trkpt>
      <trkpt lat="47.4603" lon="6.80599">
        <ele>396</ele>
        <time>2016-01-17T09:31:20.000Z</time>
      </trkpt>
      <trkpt lat="47.4603" lon="6.80595">
        <ele>396</ele>
        <time>2016-01-17T09:31:22.000Z</time>
      </trkpt>
      <trkpt lat="47.46028" lon="6.80593">
        <ele>396</ele>
        <time>2016-01-17T09:31:23.000Z</time>
      </trkpt>
      <trkpt lat="47.46027" lon="6.8059">
        <ele>396</ele>
        <time>2016-01-17T09:31:24.000Z</time>
      </trkpt>
      <trkpt lat="47.46025" lon="6.80587">
        <ele>396</ele>
        <time>2016-01-17T09:31:25.000Z</time>
      </trkpt>
      <trkpt lat="47.46024" lon="6.80584">
        <ele>396</ele>
        <time>2016-01-17T09:31:26.000Z</time>
      </trkpt>
      <trkpt lat="47.46023" lon="6.80581">
        <ele>397</ele>
        <time>2016-01-17T09:31:27.001Z</time>
      </trkpt>
      <trkpt lat="47.46024" lon="6.80575">
        <ele>397</ele>
        <time>2016-01-17T09:31:28.000Z</time>
      </trkpt>
      <trkpt lat="47.46024" lon="6.80571">
        <ele>397</ele>
        <time>2016-01-17T09:31:29.000Z</time>
      </trkpt>
      <trkpt lat="47.46025" lon="6.80567">
        <ele>397</ele>
        <time>2016-01-17T09:31:30.000Z</time>
      </trkpt>
      <trkpt lat="47.46027" lon="6.80563">
        <ele>397</ele>
        <time>2016-01-17T09:31:31.000Z</time>
      </trkpt>
      <trkpt lat="47.46029" lon="6.8056">
        <ele>397</ele>
        <time>2016-01-17T09:31:32.000Z</time>
      </trkpt>
      <trkpt lat="47.4603" lon="6.80556">
        <ele>397</ele>
        <time>2016-01-17T09:31:33.000Z</time>
      </trkpt>
      <trkpt lat="47.46031" lon="6.80553">
        <ele>398</ele>
        <time>2016-01-17T09:31:34.000Z</time>
      </trkpt>
      <trkpt lat="47.46032" lon="6.8055">
        <ele>398</ele>
        <time>2016-01-17T09:31:35.000Z</time>
      </trkpt>
      <trkpt lat="47.46033" lon="6.80544">
        <ele>398</ele>
        <time>2016-01-17T09:31:37.000Z</time>
      </trkpt>
      <trkpt lat="47.46033" lon="6.8054">
        <ele>398</ele>
        <time>2016-01-17T09:31:38.000Z</time>
      </trkpt>
      <trkpt lat="47.46032" lon="6.80535">
        <ele>398</ele>
        <time>2016-01-17T09:31:39.000Z</time>
      </trkpt>
      <trkpt lat="47.46032" lon="6.80531">
        <ele>397</ele>
        <time>2016-01-17T09:31:40.000Z</time>
      </trkpt>
      <trkpt lat="47.46031" lon="6.80527">
        <ele>397</ele>
        <time>2016-01-17T09:31:41.000Z</time>
      </trkpt>
      <trkpt lat="47.46031" lon="6.80523">
        <ele>397</ele>
        <time>2016-01-17T09:31:42.000Z</time>
      </trkpt>
      <trkpt lat="47.46031" lon="6.80516">
        <ele>397</ele>
        <time>2016-01-17T09:31:44.000Z</time>
      </trkpt>
      <trkpt lat="47.46032" lon="6.80513">
        <ele>397</ele>
        <time>2016-01-17T09:31:45.000Z</time>
      </trkpt>
      <trkpt lat="47.46034" lon="6.80508">
        <ele>397</ele>
        <time>2016-01-17T09:31:47.000Z</time>
      </trkpt>
      <trkpt lat="47.46035" lon="6.80505">
        <ele>397</ele>
        <time>2016-01-17T09:31:48.000Z</time>
      </trkpt>
      <trkpt lat="47.46036" lon="6.805">
        <ele>398</ele>
        <time>2016-01-17T09:31:50.000Z</time>
      </trkpt>
      <trkpt lat="47.46037" lon="6.80497">
        <ele>398</ele>
        <time>2016-01-17T09:31:51.000Z</time>
      </trkpt>
      <trkpt lat="47.46039" lon="6.80493">
        <ele>398</ele>
        <time>2016-01-17T09:31:53.000Z</time>
      </trkpt>
      <trkpt lat="47.4604" lon="6.80491">
        <ele>399</ele>
        <time>2016-01-17T09:31:54.000Z</time>
      </trkpt>
      <trkpt lat="47.46042" lon="6.80486">
        <ele>399</ele>
        <time>2016-01-17T09:31:56.000Z</time>
      </trkpt>
      <trkpt lat="47.46042" lon="6.80483">
        <ele>399</ele>
        <time>2016-01-17T09:31:57.000Z</time>
      </trkpt>
      <trkpt lat="47.46043" lon="6.80479">
        <ele>399</ele>
        <time>2016-01-17T09:31:59.000Z</time>
      </trkpt>
      <trkpt lat="47.46044" lon="6.80477">
        <ele>399</ele>
        <time>2016-01-17T09:32:00.000Z</time>
      </trkpt>
      <trkpt lat="47.46044" lon="6.8047">
        <ele>399</ele>
        <time>2016-01-17T09:32:04.000Z</time>
      </trkpt>
      <trkpt lat="47.46044" lon="6.80468">
        <ele>399</ele>
        <time>2016-01-17T09:32:05.000Z</time>
      </trkpt>
      <trkpt lat="47.46045" lon="6.80463">
        <ele>399</ele>
        <time>2016-01-17T09:32:08.000Z</time>
      </trkpt>
      <trkpt lat="47.46045" lon="6.80461">
        <ele>399</ele>
        <time>2016-01-17T09:32:09.000Z</time>
      </trkpt>
      <trkpt lat="47.46047" lon="6.80456">
        <ele>399</ele>
        <time>2016-01-17T09:32:12.000Z</time>
      </trkpt>
      <trkpt lat="47.46048" lon="6.80455">
        <ele>400</ele>
        <time>2016-01-17T09:32:13.000Z</time>
      </trkpt>
      <trkpt lat="47.4605" lon="6.80451">
        <ele>400</ele>
        <time>2016-01-17T09:32:17.000Z</time>
      </trkpt>
      <trkpt lat="47.46051" lon="6.80448">
        <ele>400</ele>
        <time>2016-01-17T09:32:18.000Z</time>
      </trkpt>
      <trkpt lat="47.4605" lon="6.80443">
        <ele>400</ele>
        <time>2016-01-17T09:32:20.000Z</time>
      </trkpt>
      <trkpt lat="47.4605" lon="6.80441">
        <ele>400</ele>
        <time>2016-01-17T09:32:21.000Z</time>
      </trkpt>
      <trkpt lat="47.46049" lon="6.80436">
        <ele>400</ele>
        <time>2016-01-17T09:32:23.000Z</time>
      </trkpt>
      <trkpt lat="47.46049" lon="6.80433">
        <ele>400</ele>
        <time>2016-01-17T09:32:24.000Z</time>
      </trkpt>
      <trkpt lat="47.46049" lon="6.80428">
        <ele>400</ele>
        <time>2016-01-17T09:32:26.000Z</time>
      </trkpt>
      <trkpt lat="47.46049" lon="6.80425">
        <ele>400</ele>
        <time>2016-01-17T09:32:27.000Z</time>
      </trkpt>
      <trkpt lat="47.46049" lon="6.80419">
        <ele>400</ele>
        <time>2016-01-17T09:32:29.000Z</time>
      </trkpt>
      <trkpt lat="47.46049" lon="6.80417">
        <ele>400</ele>
        <time>2016-01-17T09:32:30.000Z</time>
      </trkpt>
      <trkpt lat="47.46049" lon="6.80413">
        <ele>402</ele>
        <time>2016-01-17T09:32:32.000Z</time>
      </trkpt>
      <trkpt lat="47.46049" lon="6.8041">
        <ele>402</ele>
        <time>2016-01-17T09:32:33.000Z</time>
      </trkpt>
      <trkpt lat="47.46048" lon="6.80404">
        <ele>402</ele>
        <time>2016-01-17T09:32:35.000Z</time>
      </trkpt>
      <trkpt lat="47.46048" lon="6.80401">
        <ele>402</ele>
        <time>2016-01-17T09:32:36.000Z</time>
      </trkpt>
      <trkpt lat="47.46047" lon="6.80396">
        <ele>402</ele>
        <time>2016-01-17T09:32:38.000Z</time>
      </trkpt>
      <trkpt lat="47.46046" lon="6.80393">
        <ele>402</ele>
        <time>2016-01-17T09:32:39.000Z</time>
      </trkpt>
      <trkpt lat="47.46045" lon="6.80388">
        <ele>402</ele>
        <time>2016-01-17T09:32:41.000Z</time>
      </trkpt>
      <trkpt lat="47.46044" lon="6.80386">
        <ele>402</ele>
        <time>2016-01-17T09:32:42.000Z</time>
      </trkpt>
      <trkpt lat="47.46043" lon="6.80381">
        <ele>402</ele>
        <time>2016-01-17T09:32:44.000Z</time>
      </trkpt>
      <trkpt lat="47.46043" lon="6.80379">
        <ele>402</ele>
        <time>2016-01-17T09:32:45.000Z</time>
      </trkpt>
      <trkpt lat="47.46042" lon="6.80375">
        <ele>402</ele>
        <time>2016-01-17T09:32:47.000Z</time>
      </trkpt>
      <trkpt lat="47.46041" lon="6.80372">
        <ele>401</ele>
        <time>2016-01-17T09:32:48.000Z</time>
      </trkpt>
      <trkpt lat="47.4604" lon="6.80368">
        <ele>401</ele>
        <time>2016-01-17T09:32:50.000Z</time>
      </trkpt>
      <trkpt lat="47.4604" lon="6.80366">
        <ele>401</ele>
        <time>2016-01-17T09:32:51.000Z</time>
      </trkpt>
      <trkpt lat="47.46039" lon="6.80361">
        <ele>402</ele>
        <time>2016-01-17T09:32:53.000Z</time>
      </trkpt>
      <trkpt lat="47.46039" lon="6.80358">
        <ele>402</ele>
        <time>2016-01-17T09:32:54.000Z</time>
      </trkpt>
      <trkpt lat="47.46039" lon="6.80354">
        <ele>402</ele>
        <time>2016-01-17T09:32:56.000Z</time>
      </trkpt>
      <trkpt lat="47.46039" lon="6.80351">
        <ele>402</ele>
        <time>2016-01-17T09:32:57.000Z</time>
      </trkpt>
      <trkpt lat="47.46038" lon="6.80346">
        <ele>402</ele>
        <time>2016-01-17T09:32:59.000Z</time>
      </trkpt>
      <trkpt lat="47.46037" lon="6.80344">
        <ele>402</ele>
        <time>2016-01-17T09:33:00.000Z</time>
      </trkpt>
      <trkpt lat="47.46037" lon="6.80338">
        <ele>401</ele>
        <time>2016-01-17T09:33:02.000Z</time>
      </trkpt>
      <trkpt lat="47.46036" lon="6.80336">
        <ele>401</ele>
        <time>2016-01-17T09:33:03.000Z</time>
      </trkpt>
      <trkpt lat="47.46035" lon="6.8033">
        <ele>403</ele>
        <time>2016-01-17T09:33:05.000Z</time>
      </trkpt>
      <trkpt lat="47.46035" lon="6.80327">
        <ele>403</ele>
        <time>2016-01-17T09:33:06.000Z</time>
      </trkpt>
      <trkpt lat="47.46034" lon="6.80322">
        <ele>403</ele>
        <time>2016-01-17T09:33:08.000Z</time>
      </trkpt>
      <trkpt lat="47.46033" lon="6.8032">
        <ele>403</ele>
        <time>2016-01-17T09:33:09.000Z</time>
      </trkpt>
      <trkpt lat="47.46032" lon="6.80315">
        <ele>403</ele>
        <time>2016-01-17T09:33:11.000Z</time>
      </trkpt>
      <trkpt lat="47.46032" lon="6.80313">
        <ele>403</ele>
        <time>2016-01-17T09:33:12.000Z</time>
      </trkpt>
      <trkpt lat="47.46031" lon="6.80308">
        <ele>403</ele>
        <time>2016-01-17T09:33:14.000Z</time>
      </trkpt>
      <trkpt lat="47.4603" lon="6.80305">
        <ele>403</ele>
        <time>2016-01-17T09:33:15.000Z</time>
      </trkpt>
      <trkpt lat="47.46028" lon="6.803">
        <ele>403</ele>
        <time>2016-01-17T09:33:17.000Z</time>
      </trkpt>
      <trkpt lat="47.46027" lon="6.80297">
        <ele>403</ele>
        <time>2016-01-17T09:33:18.000Z</time>
      </trkpt>
      <trkpt lat="47.46026" lon="6.80292">
        <ele>403</ele>
        <time>2016-01-17T09:33:20.000Z</time>
      </trkpt>
      <trkpt lat="47.46025" lon="6.80288">
        <ele>403</ele>
        <time>2016-01-17T09:33:21.000Z</time>
      </trkpt>
      <trkpt lat="47.46025" lon="6.80284">
        <ele>403</ele>
        <time>2016-01-17T09:33:22.000Z</time>
      </trkpt>
      <trkpt lat="47.46025" lon="6.8028">
        <ele>403</ele>
        <time>2016-01-17T09:33:23.000Z</time>
      </trkpt>
      <trkpt lat="47.46024" lon="6.80277">
        <ele>403</ele>
        <time>2016-01-17T09:33:24.000Z</time>
      </trkpt>
      <trkpt lat="47.46024" lon="6.80273">
        <ele>403</ele>
        <time>2016-01-17T09:33:25.000Z</time>
      </trkpt>
      <trkpt lat="47.46023" lon="6.80267">
        <ele>403</ele>
        <time>2016-01-17T09:33:27.000Z</time>
      </trkpt>
      <trkpt lat="47.46022" lon="6.80265">
        <ele>403</ele>
        <time>2016-01-17T09:33:28.000Z</time>
      </trkpt>
      <trkpt lat="47.46021" lon="6.80262">
        <ele>402</ele>
        <time>2016-01-17T09:33:29.000Z</time>
      </trkpt>
      <trkpt lat="47.46021" lon="6.80258">
        <ele>402</ele>
        <time>2016-01-17T09:33:30.000Z</time>
      </trkpt>
      <trkpt lat="47.46019" lon="6.80252">
        <ele>402</ele>
        <time>2016-01-17T09:33:32.000Z</time>
      </trkpt>
      <trkpt lat="47.46019" lon="6.80248">
        <ele>403</ele>
        <time>2016-01-17T09:33:33.000Z</time>
      </trkpt>
      <trkpt lat="47.46018" lon="6.80245">
        <ele>403</ele>
        <time>2016-01-17T09:33:34.000Z</time>
      </trkpt>
      <trkpt lat="47.46018" lon="6.80241">
        <ele>403</ele>
        <time>2016-01-17T09:33:35.000Z</time>
      </trkpt>
      <trkpt lat="47.46018" lon="6.80236">
        <ele>403</ele>
        <time>2016-01-17T09:33:36.000Z</time>
      </trkpt>
      <trkpt lat="47.46018" lon="6.80232">
        <ele>404</ele>
        <time>2016-01-17T09:33:37.000Z</time>
      </trkpt>
      <trkpt lat="47.46017" lon="6.80228">
        <ele>404</ele>
        <time>2016-01-17T09:33:38.000Z</time>
      </trkpt>
      <trkpt lat="47.46017" lon="6.80224">
        <ele>404</ele>
        <time>2016-01-17T09:33:39.000Z</time>
      </trkpt>
      <trkpt lat="47.46017" lon="6.8022">
        <ele>404</ele>
        <time>2016-01-17T09:33:40.000Z</time>
      </trkpt>
      <trkpt lat="47.46017" lon="6.80215">
        <ele>404</ele>
        <time>2016-01-17T09:33:41.000Z</time>
      </trkpt>
      <trkpt lat="47.46016" lon="6.80211">
        <ele>405</ele>
        <time>2016-01-17T09:33:42.000Z</time>
      </trkpt>
      <trkpt lat="47.46016" lon="6.80206">
        <ele>405</ele>
        <time>2016-01-17T09:33:43.000Z</time>
      </trkpt>
      <trkpt lat="47.46015" lon="6.80202">
        <ele>405</ele>
        <time>2016-01-17T09:33:44.000Z</time>
      </trkpt>
      <trkpt lat="47.46014" lon="6.80198">
        <ele>405</ele>
        <time>2016-01-17T09:33:45.000Z</time>
      </trkpt>
      <trkpt lat="47.46013" lon="6.80193">
        <ele>405</ele>
        <time>2016-01-17T09:33:46.000Z</time>
      </trkpt>
      <trkpt lat="47.46012" lon="6.80189">
        <ele>405</ele>
        <time>2016-01-17T09:33:47.000Z</time>
      </trkpt>
      <trkpt lat="47.46011" lon="6.80185">
        <ele>404</ele>
        <time>2016-01-17T09:33:48.000Z</time>
      </trkpt>
      <trkpt lat="47.4601" lon="6.8018">
        <ele>404</ele>
        <time>2016-01-17T09:33:49.000Z</time>
      </trkpt>
      <trkpt lat="47.46008" lon="6.80175">
        <ele>404</ele>
        <time>2016-01-17T09:33:50.000Z</time>
      </trkpt>
      <trkpt lat="47.46007" lon="6.80169">
        <ele>404</ele>
        <time>2016-01-17T09:33:51.000Z</time>
      </trkpt>
      <trkpt lat="47.46006" lon="6.80164">
        <ele>404</ele>
        <time>2016-01-17T09:33:52.000Z</time>
      </trkpt>
      <trkpt lat="47.46005" lon="6.80158">
        <ele>404</ele>
        <time>2016-01-17T09:33:53.000Z</time>
      </trkpt>
      <trkpt lat="47.46005" lon="6.80152">
        <ele>405</ele>
        <time>2016-01-17T09:33:54.000Z</time>
      </trkpt>
      <trkpt lat="47.46004" lon="6.80146">
        <ele>405</ele>
        <time>2016-01-17T09:33:55.000Z</time>
      </trkpt>
      <trkpt lat="47.46004" lon="6.8014">
        <ele>405</ele>
        <time>2016-01-17T09:33:56.000Z</time>
      </trkpt>
      <trkpt lat="47.46004" lon="6.80134">
        <ele>406</ele>
        <time>2016-01-17T09:33:57.000Z</time>
      </trkpt>
      <trkpt lat="47.46004" lon="6.80128">
        <ele>406</ele>
        <time>2016-01-17T09:33:58.000Z</time>
      </trkpt>
      <trkpt lat="47.46004" lon="6.80122">
        <ele>406</ele>
        <time>2016-01-17T09:33:59.000Z</time>
      </trkpt>
      <trkpt lat="47.46003" lon="6.80116">
        <ele>406</ele>
        <time>2016-01-17T09:34:00.000Z</time>
      </trkpt>
      <trkpt lat="47.46003" lon="6.8011">
        <ele>406</ele>
        <time>2016-01-17T09:34:01.000Z</time>
      </trkpt>
      <trkpt lat="47.46003" lon="6.80104">
        <ele>405</ele>
        <time>2016-01-17T09:34:02.000Z</time>
      </trkpt>
      <trkpt lat="47.46002" lon="6.80098">
        <ele>405</ele>
        <time>2016-01-17T09:34:03.000Z</time>
      </trkpt>
      <trkpt lat="47.46001" lon="6.80091">
        <ele>405</ele>
        <time>2016-01-17T09:34:04.000Z</time>
      </trkpt>
      <trkpt lat="47.46" lon="6.80085">
        <ele>404</ele>
        <time>2016-01-17T09:34:05.000Z</time>
      </trkpt>
      <trkpt lat="47.45999" lon="6.80076">
        <ele>399</ele>
        <time>2016-01-17T09:34:06.000Z</time>
      </trkpt>
      <trkpt lat="47.45998" lon="6.80069">
        <ele>397</ele>
        <time>2016-01-17T09:34:07.000Z</time>
      </trkpt>
      <trkpt lat="47.45997" lon="6.80063">
        <ele>395</ele>
        <time>2016-01-17T09:34:08.000Z</time>
      </trkpt>
      <trkpt lat="47.45995" lon="6.80056">
        <ele>393</ele>
        <time>2016-01-17T09:34:09.000Z</time>
      </trkpt>
      <trkpt lat="47.45995" lon="6.80047">
        <ele>392</ele>
        <time>2016-01-17T09:34:10.000Z</time>
      </trkpt>
      <trkpt lat="47.45995" lon="6.80039">
        <ele>392</ele>
        <time>2016-01-17T09:34:11.000Z</time>
      </trkpt>
      <trkpt lat="47.45995" lon="6.80032">
        <ele>392</ele>
        <time>2016-01-17T09:34:12.000Z</time>
      </trkpt>
      <trkpt lat="47.45995" lon="6.80025">
        <ele>393</ele>
        <time>2016-01-17T09:34:13.000Z</time>
      </trkpt>
      <trkpt lat="47.45994" lon="6.80017">
        <ele>395</ele>
        <time>2016-01-17T09:34:14.000Z</time>
      </trkpt>
      <trkpt lat="47.45994" lon="6.80009">
        <ele>397</ele>
        <time>2016-01-17T09:34:15.000Z</time>
      </trkpt>
      <trkpt lat="47.45993" lon="6.80001">
        <ele>398</ele>
        <time>2016-01-17T09:34:16.000Z</time>
      </trkpt>
      <trkpt lat="47.45993" lon="6.79993">
        <ele>397</ele>
        <time>2016-01-17T09:34:17.000Z</time>
      </trkpt>
      <trkpt lat="47.45993" lon="6.79985">
        <ele>395</ele>
        <time>2016-01-17T09:34:18.000Z</time>
      </trkpt>
      <trkpt lat="47.45993" lon="6.79977">
        <ele>393</ele>
        <time>2016-01-17T09:34:19.000Z</time>
      </trkpt>
      <trkpt lat="47.45992" lon="6.79968">
        <ele>392</ele>
        <time>2016-01-17T09:34:20.000Z</time>
      </trkpt>
      <trkpt lat="47.45992" lon="6.79958">
        <ele>391</ele>
        <time>2016-01-17T09:34:21.000Z</time>
      </trkpt>
      <trkpt lat="47.45993" lon="6.79949">
        <ele>392</ele>
        <time>2016-01-17T09:34:22.000Z</time>
      </trkpt>
      <trkpt lat="47.45996" lon="6.79941">
        <ele>393</ele>
        <time>2016-01-17T09:34:23.000Z</time>
      </trkpt>
      <trkpt lat="47.45996" lon="6.79931">
        <ele>395</ele>
        <time>2016-01-17T09:34:24.000Z</time>
      </trkpt>
      <trkpt lat="47.45996" lon="6.79922">
        <ele>397</ele>
        <time>2016-01-17T09:34:25.000Z</time>
      </trkpt>
      <trkpt lat="47.45996" lon="6.79912">
        <ele>398</ele>
        <time>2016-01-17T09:34:26.000Z</time>
      </trkpt>
      <trkpt lat="47.45998" lon="6.79901">
        <ele>394</ele>
        <time>2016-01-17T09:34:27.000Z</time>
      </trkpt>
      <trkpt lat="47.45999" lon="6.79889">
        <ele>392</ele>
        <time>2016-01-17T09:34:28.000Z</time>
      </trkpt>
      <trkpt lat="47.46001" lon="6.79879">
        <ele>401</ele>
        <time>2016-01-17T09:34:29.000Z</time>
      </trkpt>
      <trkpt lat="47.46003" lon="6.7987">
        <ele>401</ele>
        <time>2016-01-17T09:34:30.000Z</time>
      </trkpt>
      <trkpt lat="47.46007" lon="6.79861">
        <ele>401</ele>
        <time>2016-01-17T09:34:31.000Z</time>
      </trkpt>
      <trkpt lat="47.46012" lon="6.79852">
        <ele>400</ele>
        <time>2016-01-17T09:34:32.000Z</time>
      </trkpt>
      <trkpt lat="47.46017" lon="6.79844">
        <ele>400</ele>
        <time>2016-01-17T09:34:33.000Z</time>
      </trkpt>
      <trkpt lat="47.46022" lon="6.79835">
        <ele>400</ele>
        <time>2016-01-17T09:34:34.000Z</time>
      </trkpt>
      <trkpt lat="47.46027" lon="6.79825">
        <ele>399</ele>
        <time>2016-01-17T09:34:35.000Z</time>
      </trkpt>
      <trkpt lat="47.46033" lon="6.79816">
        <ele>400</ele>
        <time>2016-01-17T09:34:36.000Z</time>
      </trkpt>
      <trkpt lat="47.46037" lon="6.79808">
        <ele>400</ele>
        <time>2016-01-17T09:34:37.000Z</time>
      </trkpt>
      <trkpt lat="47.46041" lon="6.79801">
        <ele>400</ele>
        <time>2016-01-17T09:34:38.000Z</time>
      </trkpt>
      <trkpt lat="47.46044" lon="6.79793">
        <ele>400</ele>
        <time>2016-01-17T09:34:39.000Z</time>
      </trkpt>
      <trkpt lat="47.46046" lon="6.79787">
        <ele>400</ele>
        <time>2016-01-17T09:34:40.000Z</time>
      </trkpt>
      <trkpt lat="47.46045" lon="6.7978">
        <ele>400</ele>
        <time>2016-01-17T09:34:41.000Z</time>
      </trkpt>
      <trkpt lat="47.46046" lon="6.79772">
        <ele>400</ele>
        <time>2016-01-17T09:34:42.000Z</time>
      </trkpt>
      <trkpt lat="47.46046" lon="6.79768">
        <ele>400</ele>
        <time>2016-01-17T09:34:43.000Z</time>
      </trkpt>
      <trkpt lat="47.46046" lon="6.79762">
        <ele>400</ele>
        <time>2016-01-17T09:34:44.000Z</time>
      </trkpt>
      <trkpt lat="47.46046" lon="6.79757">
        <ele>400</ele>
        <time>2016-01-17T09:34:45.000Z</time>
      </trkpt>
      <trkpt lat="47.46046" lon="6.79752">
        <ele>400</ele>
        <time>2016-01-17T09:34:46.000Z</time>
      </trkpt>
      <trkpt lat="47.46046" lon="6.79748">
        <ele>396</ele>
        <time>2016-01-17T09:34:47.000Z</time>
      </trkpt>
      <trkpt lat="47.46046" lon="6.79744">
        <ele>396</ele>
        <time>2016-01-17T09:34:48.000Z</time>
      </trkpt>
      <trkpt lat="47.46045" lon="6.79737">
        <ele>396</ele>
        <time>2016-01-17T09:34:49.000Z</time>
      </trkpt>
      <trkpt lat="47.46045" lon="6.79729">
        <ele>396</ele>
        <time>2016-01-17T09:34:50.000Z</time>
      </trkpt>
      <trkpt lat="47.46044" lon="6.79721">
        <ele>395</ele>
        <time>2016-01-17T09:34:51.000Z</time>
      </trkpt>
      <trkpt lat="47.46045" lon="6.79714">
        <ele>395</ele>
        <time>2016-01-17T09:34:52.000Z</time>
      </trkpt>
      <trkpt lat="47.46045" lon="6.79708">
        <ele>395</ele>
        <time>2016-01-17T09:34:53.000Z</time>
      </trkpt>
      <trkpt lat="47.46045" lon="6.797">
        <ele>395</ele>
        <time>2016-01-17T09:34:54.000Z</time>
      </trkpt>
      <trkpt lat="47.46045" lon="6.79694">
        <ele>394</ele>
        <time>2016-01-17T09:34:55.000Z</time>
      </trkpt>
      <trkpt lat="47.46045" lon="6.79685">
        <ele>394</ele>
        <time>2016-01-17T09:34:56.000Z</time>
      </trkpt>
      <trkpt lat="47.46044" lon="6.79678">
        <ele>394</ele>
        <time>2016-01-17T09:34:57.000Z</time>
      </trkpt>
      <trkpt lat="47.46044" lon="6.79671">
        <ele>394</ele>
        <time>2016-01-17T09:34:58.000Z</time>
      </trkpt>
      <trkpt lat="47.46043" lon="6.79663">
        <ele>390</ele>
        <time>2016-01-17T09:34:59.000Z</time>
      </trkpt>
      <trkpt lat="47.46043" lon="6.79657">
        <ele>390</ele>
        <time>2016-01-17T09:35:00.000Z</time>
      </trkpt>
      <trkpt lat="47.46042" lon="6.7965">
        <ele>390</ele>
        <time>2016-01-17T09:35:01.000Z</time>
      </trkpt>
      <trkpt lat="47.46044" lon="6.79642">
        <ele>390</ele>
        <time>2016-01-17T09:35:02.000Z</time>
      </trkpt>
      <trkpt lat="47.46045" lon="6.79636">
        <ele>390</ele>
        <time>2016-01-17T09:35:03.000Z</time>
      </trkpt>
      <trkpt lat="47.46046" lon="6.7963">
        <ele>390</ele>
        <time>2016-01-17T09:35:04.000Z</time>
      </trkpt>
      <trkpt lat="47.46047" lon="6.79625">
        <ele>390</ele>
        <time>2016-01-17T09:35:05.000Z</time>
      </trkpt>
      <trkpt lat="47.46048" lon="6.7962">
        <ele>390</ele>
        <time>2016-01-17T09:35:06.000Z</time>
      </trkpt>
      <trkpt lat="47.46048" lon="6.79615">
        <ele>390</ele>
        <time>2016-01-17T09:35:07.000Z</time>
      </trkpt>
      <trkpt lat="47.46048" lon="6.7961">
        <ele>390</ele>
        <time>2016-01-17T09:35:08.001Z</time>
      </trkpt>
      <trkpt lat="47.46049" lon="6.79606">
        <ele>390</ele>
        <time>2016-01-17T09:35:09.000Z</time>
      </trkpt>
      <trkpt lat="47.4605" lon="6.79602">
        <ele>390</ele>
        <time>2016-01-17T09:35:10.000Z</time>
      </trkpt>
      <trkpt lat="47.46051" lon="6.79597">
        <ele>390</ele>
        <time>2016-01-17T09:35:11.000Z</time>
      </trkpt>
      <trkpt lat="47.46052" lon="6.79592">
        <ele>390</ele>
        <time>2016-01-17T09:35:12.000Z</time>
      </trkpt>
      <trkpt lat="47.46052" lon="6.79588">
        <ele>390</ele>
        <time>2016-01-17T09:35:13.000Z</time>
      </trkpt>
      <trkpt lat="47.46053" lon="6.79583">
        <ele>390</ele>
        <time>2016-01-17T09:35:14.000Z</time>
      </trkpt>
      <trkpt lat="47.46054" lon="6.7958">
        <ele>388</ele>
        <time>2016-01-17T09:35:15.000Z</time>
      </trkpt>
      <trkpt lat="47.46055" lon="6.79576">
        <ele>388</ele>
        <time>2016-01-17T09:35:16.000Z</time>
      </trkpt>
      <trkpt lat="47.46056" lon="6.79572">
        <ele>388</ele>
        <time>2016-01-17T09:35:17.000Z</time>
      </trkpt>
      <trkpt lat="47.46056" lon="6.79568">
        <ele>388</ele>
        <time>2016-01-17T09:35:18.000Z</time>
      </trkpt>
      <trkpt lat="47.46057" lon="6.79564">
        <ele>388</ele>
        <time>2016-01-17T09:35:19.000Z</time>
      </trkpt>
      <trkpt lat="47.46058" lon="6.7956">
        <ele>388</ele>
        <time>2016-01-17T09:35:20.000Z</time>
      </trkpt>
      <trkpt lat="47.46059" lon="6.79556">
        <ele>388</ele>
        <time>2016-01-17T09:35:21.000Z</time>
      </trkpt>
      <trkpt lat="47.46059" lon="6.79551">
        <ele>388</ele>
        <time>2016-01-17T09:35:22.000Z</time>
      </trkpt>
      <trkpt lat="47.4606" lon="6.79547">
        <ele>387</ele>
        <time>2016-01-17T09:35:23.000Z</time>
      </trkpt>
      <trkpt lat="47.46061" lon="6.79543">
        <ele>387</ele>
        <time>2016-01-17T09:35:24.000Z</time>
      </trkpt>
      <trkpt lat="47.46061" lon="6.79538">
        <ele>387</ele>
        <time>2016-01-17T09:35:25.000Z</time>
      </trkpt>
      <trkpt lat="47.46062" lon="6.79532">
        <ele>387</ele>
        <time>2016-01-17T09:35:26.000Z</time>
      </trkpt>
      <trkpt lat="47.46063" lon="6.79527">
        <ele>388</ele>
        <time>2016-01-17T09:35:27.000Z</time>
      </trkpt>
      <trkpt lat="47.46063" lon="6.79521">
        <ele>388</ele>
        <time>2016-01-17T09:35:28.000Z</time>
      </trkpt>
      <trkpt lat="47.46064" lon="6.79515">
        <ele>388</ele>
        <time>2016-01-17T09:35:29.000Z</time>
      </trkpt>
      <trkpt lat="47.46064" lon="6.79509">
        <ele>388</ele>
        <time>2016-01-17T09:35:30.000Z</time>
      </trkpt>
      <trkpt lat="47.46065" lon="6.79504">
        <ele>389</ele>
        <time>2016-01-17T09:35:31.000Z</time>
      </trkpt>
      <trkpt lat="47.46066" lon="6.79499">
        <ele>388</ele>
        <time>2016-01-17T09:35:32.000Z</time>
      </trkpt>
      <trkpt lat="47.46067" lon="6.79494">
        <ele>388</ele>
        <time>2016-01-17T09:35:33.000Z</time>
      </trkpt>
      <trkpt lat="47.46067" lon="6.79489">
        <ele>388</ele>
        <time>2016-01-17T09:35:34.000Z</time>
      </trkpt>
      <trkpt lat="47.46068" lon="6.79484">
        <ele>387</ele>
        <time>2016-01-17T09:35:35.000Z</time>
      </trkpt>
      <trkpt lat="47.46069" lon="6.79479">
        <ele>387</ele>
        <time>2016-01-17T09:35:36.000Z</time>
      </trkpt>
      <trkpt lat="47.46069" lon="6.79474">
        <ele>387</ele>
        <time>2016-01-17T09:35:37.000Z</time>
      </trkpt>
      <trkpt lat="47.4607" lon="6.7947">
        <ele>387</ele>
        <time>2016-01-17T09:35:38.000Z</time>
      </trkpt>
      <trkpt lat="47.46071" lon="6.79465">
        <ele>387</ele>
        <time>2016-01-17T09:35:39.000Z</time>
      </trkpt>
      <trkpt lat="47.46073" lon="6.7946">
        <ele>387</ele>
        <time>2016-01-17T09:35:40.006Z</time>
      </trkpt>
      <trkpt lat="47.46073" lon="6.79456">
        <ele>387</ele>
        <time>2016-01-17T09:35:41.000Z</time>
      </trkpt>
      <trkpt lat="47.46074" lon="6.79451">
        <ele>387</ele>
        <time>2016-01-17T09:35:42.000Z</time>
      </trkpt>
      <trkpt lat="47.46074" lon="6.79446">
        <ele>387</ele>
        <time>2016-01-17T09:35:43.000Z</time>
      </trkpt>
      <trkpt lat="47.46075" lon="6.79442">
        <ele>387</ele>
        <time>2016-01-17T09:35:44.000Z</time>
      </trkpt>
      <trkpt lat="47.46075" lon="6.79437">
        <ele>388</ele>
        <time>2016-01-17T09:35:45.000Z</time>
      </trkpt>
      <trkpt lat="47.46075" lon="6.79433">
        <ele>388</ele>
        <time>2016-01-17T09:35:46.000Z</time>
      </trkpt>
      <trkpt lat="47.46075" lon="6.79428">
        <ele>389</ele>
        <time>2016-01-17T09:35:47.000Z</time>
      </trkpt>
      <trkpt lat="47.46075" lon="6.79423">
        <ele>389</ele>
        <time>2016-01-17T09:35:48.000Z</time>
      </trkpt>
      <trkpt lat="47.46075" lon="6.79417">
        <ele>390</ele>
        <time>2016-01-17T09:35:49.000Z</time>
      </trkpt>
      <trkpt lat="47.46075" lon="6.79412">
        <ele>389</ele>
        <time>2016-01-17T09:35:50.000Z</time>
      </trkpt>
      <trkpt lat="47.46075" lon="6.79406">
        <ele>388</ele>
        <time>2016-01-17T09:35:51.000Z</time>
      </trkpt>
      <trkpt lat="47.46075" lon="6.79401">
        <ele>388</ele>
        <time>2016-01-17T09:35:52.000Z</time>
      </trkpt>
      <trkpt lat="47.46075" lon="6.79395">
        <ele>387</ele>
        <time>2016-01-17T09:35:53.000Z</time>
      </trkpt>
      <trkpt lat="47.46075" lon="6.7939">
        <ele>387</ele>
        <time>2016-01-17T09:35:53.999Z</time>
      </trkpt>
      <trkpt lat="47.46075" lon="6.79385">
        <ele>386</ele>
        <time>2016-01-17T09:35:55.000Z</time>
      </trkpt>
      <trkpt lat="47.46074" lon="6.7938">
        <ele>386</ele>
        <time>2016-01-17T09:35:56.000Z</time>
      </trkpt>
      <trkpt lat="47.46074" lon="6.79375">
        <ele>386</ele>
        <time>2016-01-17T09:35:57.000Z</time>
      </trkpt>
      <trkpt lat="47.46074" lon="6.7937">
        <ele>386</ele>
        <time>2016-01-17T09:35:58.000Z</time>
      </trkpt>
      <trkpt lat="47.46073" lon="6.79364">
        <ele>386</ele>
        <time>2016-01-17T09:35:59.000Z</time>
      </trkpt>
      <trkpt lat="47.46073" lon="6.79358">
        <ele>386</ele>
        <time>2016-01-17T09:36:00.000Z</time>
      </trkpt>
      <trkpt lat="47.46072" lon="6.79352">
        <ele>386</ele>
        <time>2016-01-17T09:36:01.000Z</time>
      </trkpt>
      <trkpt lat="47.46072" lon="6.79346">
        <ele>386</ele>
        <time>2016-01-17T09:36:02.000Z</time>
      </trkpt>
      <trkpt lat="47.46072" lon="6.79341">
        <ele>387</ele>
        <time>2016-01-17T09:36:03.000Z</time>
      </trkpt>
      <trkpt lat="47.46071" lon="6.79336">
        <ele>387</ele>
        <time>2016-01-17T09:36:04.000Z</time>
      </trkpt>
      <trkpt lat="47.46071" lon="6.7933">
        <ele>387</ele>
        <time>2016-01-17T09:36:05.001Z</time>
      </trkpt>
      <trkpt lat="47.4607" lon="6.79325">
        <ele>386</ele>
        <time>2016-01-17T09:36:06.000Z</time>
      </trkpt>
      <trkpt lat="47.46069" lon="6.7932">
        <ele>386</ele>
        <time>2016-01-17T09:36:07.000Z</time>
      </trkpt>
      <trkpt lat="47.46069" lon="6.79315">
        <ele>386</ele>
        <time>2016-01-17T09:36:08.000Z</time>
      </trkpt>
      <trkpt lat="47.46067" lon="6.7931">
        <ele>385</ele>
        <time>2016-01-17T09:36:09.000Z</time>
      </trkpt>
      <trkpt lat="47.46067" lon="6.79305">
        <ele>385</ele>
        <time>2016-01-17T09:36:10.000Z</time>
      </trkpt>
      <trkpt lat="47.46066" lon="6.793">
        <ele>385</ele>
        <time>2016-01-17T09:36:11.000Z</time>
      </trkpt>
      <trkpt lat="47.46065" lon="6.79294">
        <ele>385</ele>
        <time>2016-01-17T09:36:12.000Z</time>
      </trkpt>
      <trkpt lat="47.46064" lon="6.79289">
        <ele>385</ele>
        <time>2016-01-17T09:36:13.000Z</time>
      </trkpt>
      <trkpt lat="47.46063" lon="6.79283">
        <ele>385</ele>
        <time>2016-01-17T09:36:14.000Z</time>
      </trkpt>
      <trkpt lat="47.46062" lon="6.79277">
        <ele>385</ele>
        <time>2016-01-17T09:36:15.000Z</time>
      </trkpt>
      <trkpt lat="47.46061" lon="6.79272">
        <ele>385</ele>
        <time>2016-01-17T09:36:16.000Z</time>
      </trkpt>
      <trkpt lat="47.4606" lon="6.79266">
        <ele>385</ele>
        <time>2016-01-17T09:36:17.000Z</time>
      </trkpt>
      <trkpt lat="47.46059" lon="6.7926">
        <ele>385</ele>
        <time>2016-01-17T09:36:18.000Z</time>
      </trkpt>
      <trkpt lat="47.46058" lon="6.79254">
        <ele>385</ele>
        <time>2016-01-17T09:36:19.000Z</time>
      </trkpt>
      <trkpt lat="47.46057" lon="6.79248">
        <ele>385</ele>
        <time>2016-01-17T09:36:20.000Z</time>
      </trkpt>
      <trkpt lat="47.46056" lon="6.79242">
        <ele>385</ele>
        <time>2016-01-17T09:36:21.000Z</time>
      </trkpt>
      <trkpt lat="47.46055" lon="6.79237">
        <ele>385</ele>
        <time>2016-01-17T09:36:22.000Z</time>
      </trkpt>
      <trkpt lat="47.46054" lon="6.79231">
        <ele>385</ele>
        <time>2016-01-17T09:36:23.000Z</time>
      </trkpt>
      <trkpt lat="47.46053" lon="6.79225">
        <ele>385</ele>
        <time>2016-01-17T09:36:24.000Z</time>
      </trkpt>
      <trkpt lat="47.46052" lon="6.79219">
        <ele>385</ele>
        <time>2016-01-17T09:36:25.000Z</time>
      </trkpt>
      <trkpt lat="47.46051" lon="6.79213">
        <ele>385</ele>
        <time>2016-01-17T09:36:26.000Z</time>
      </trkpt>
      <trkpt lat="47.4605" lon="6.79208">
        <ele>385</ele>
        <time>2016-01-17T09:36:27.000Z</time>
      </trkpt>
      <trkpt lat="47.46049" lon="6.79202">
        <ele>385</ele>
        <time>2016-01-17T09:36:28.000Z</time>
      </trkpt>
      <trkpt lat="47.46048" lon="6.79198">
        <ele>385</ele>
        <time>2016-01-17T09:36:29.000Z</time>
      </trkpt>
      <trkpt lat="47.46048" lon="6.79194">
        <ele>385</ele>
        <time>2016-01-17T09:36:30.000Z</time>
      </trkpt>
      <trkpt lat="47.46048" lon="6.79189">
        <ele>385</ele>
        <time>2016-01-17T09:36:32.000Z</time>
      </trkpt>
      <trkpt lat="47.46049" lon="6.79187">
        <ele>385</ele>
        <time>2016-01-17T09:36:33.000Z</time>
      </trkpt>
      <trkpt lat="47.46052" lon="6.79186">
        <ele>385</ele>
        <time>2016-01-17T09:36:35.000Z</time>
      </trkpt>
      <trkpt lat="47.46054" lon="6.79185">
        <ele>385</ele>
        <time>2016-01-17T09:36:36.000Z</time>
      </trkpt>
      <trkpt lat="47.46058" lon="6.79187">
        <ele>386</ele>
        <time>2016-01-17T09:36:39.000Z</time>
      </trkpt>
      <trkpt lat="47.46059" lon="6.79188">
        <ele>386</ele>
        <time>2016-01-17T09:36:40.000Z</time>
      </trkpt>
      <trkpt lat="47.46061" lon="6.79193">
        <ele>386</ele>
        <time>2016-01-17T09:37:14.000Z</time>
      </trkpt>
      <trkpt lat="47.46063" lon="6.79194">
        <ele>386</ele>
        <time>2016-01-17T09:37:15.000Z</time>
      </trkpt>
      <trkpt lat="47.46065" lon="6.79195">
        <ele>386</ele>
        <time>2016-01-17T09:37:16.000Z</time>
      </trkpt>
      <trkpt lat="47.46068" lon="6.79196">
        <ele>386</ele>
        <time>2016-01-17T09:37:17.000Z</time>
      </trkpt>
      <trkpt lat="47.4607" lon="6.79197">
        <ele>386</ele>
        <time>2016-01-17T09:37:18.000Z</time>
      </trkpt>
      <trkpt lat="47.46073" lon="6.79199">
        <ele>386</ele>
        <time>2016-01-17T09:37:19.000Z</time>
      </trkpt>
      <trkpt lat="47.46075" lon="6.79202">
        <ele>386</ele>
        <time>2016-01-17T09:37:20.000Z</time>
      </trkpt>
      <trkpt lat="47.46078" lon="6.79204">
        <ele>386</ele>
        <time>2016-01-17T09:37:21.000Z</time>
      </trkpt>
      <trkpt lat="47.4608" lon="6.79208">
        <ele>386</ele>
        <time>2016-01-17T09:37:22.000Z</time>
      </trkpt>
      <trkpt lat="47.46082" lon="6.7921">
        <ele>386</ele>
        <time>2016-01-17T09:37:23.000Z</time>
      </trkpt>
      <trkpt lat="47.46084" lon="6.79213">
        <ele>391</ele>
        <time>2016-01-17T09:37:24.000Z</time>
      </trkpt>
      <trkpt lat="47.46086" lon="6.79215">
        <ele>391</ele>
        <time>2016-01-17T09:37:25.000Z</time>
      </trkpt>
      <trkpt lat="47.46089" lon="6.79217">
        <ele>391</ele>
        <time>2016-01-17T09:37:26.000Z</time>
      </trkpt>
      <trkpt lat="47.46091" lon="6.79219">
        <ele>391</ele>
        <time>2016-01-17T09:37:27.000Z</time>
      </trkpt>
      <trkpt lat="47.46094" lon="6.79222">
        <ele>391</ele>
        <time>2016-01-17T09:37:28.000Z</time>
      </trkpt>
      <trkpt lat="47.46096" lon="6.79225">
        <ele>391</ele>
        <time>2016-01-17T09:37:29.000Z</time>
      </trkpt>
      <trkpt lat="47.46098" lon="6.79227">
        <ele>391</ele>
        <time>2016-01-17T09:37:30.000Z</time>
      </trkpt>
      <trkpt lat="47.461" lon="6.7923">
        <ele>391</ele>
        <time>2016-01-17T09:37:31.000Z</time>
      </trkpt>
      <trkpt lat="47.46102" lon="6.79232">
        <ele>391</ele>
        <time>2016-01-17T09:37:32.000Z</time>
      </trkpt>
      <trkpt lat="47.46104" lon="6.79234">
        <ele>391</ele>
        <time>2016-01-17T09:37:33.000Z</time>
      </trkpt>
      <trkpt lat="47.46107" lon="6.79236">
        <ele>391</ele>
        <time>2016-01-17T09:37:34.000Z</time>
      </trkpt>
      <trkpt lat="47.46109" lon="6.79238">
        <ele>391</ele>
        <time>2016-01-17T09:37:35.000Z</time>
      </trkpt>
      <trkpt lat="47.46111" lon="6.7924">
        <ele>391</ele>
        <time>2016-01-17T09:37:36.000Z</time>
      </trkpt>
      <trkpt lat="47.46113" lon="6.79242">
        <ele>391</ele>
        <time>2016-01-17T09:37:37.000Z</time>
      </trkpt>
      <trkpt lat="47.46115" lon="6.79244">
        <ele>391</ele>
        <time>2016-01-17T09:37:38.000Z</time>
      </trkpt>
      <trkpt lat="47.46117" lon="6.79246">
        <ele>391</ele>
        <time>2016-01-17T09:37:39.000Z</time>
      </trkpt>
      <trkpt lat="47.4612" lon="6.7925">
        <ele>391</ele>
        <time>2016-01-17T09:37:41.000Z</time>
      </trkpt>
      <trkpt lat="47.46122" lon="6.79252">
        <ele>391</ele>
        <time>2016-01-17T09:37:42.000Z</time>
      </trkpt>
      <trkpt lat="47.46124" lon="6.79253">
        <ele>391</ele>
        <time>2016-01-17T09:37:43.000Z</time>
      </trkpt>
      <trkpt lat="47.46126" lon="6.79255">
        <ele>392</ele>
        <time>2016-01-17T09:37:44.000Z</time>
      </trkpt>
      <trkpt lat="47.46128" lon="6.79257">
        <ele>392</ele>
        <time>2016-01-17T09:37:45.000Z</time>
      </trkpt>
      <trkpt lat="47.4613" lon="6.79259">
        <ele>392</ele>
        <time>2016-01-17T09:37:46.000Z</time>
      </trkpt>
      <trkpt lat="47.46132" lon="6.79261">
        <ele>392</ele>
        <time>2016-01-17T09:37:47.000Z</time>
      </trkpt>
      <trkpt lat="47.46135" lon="6.79264">
        <ele>392</ele>
        <time>2016-01-17T09:37:48.000Z</time>
      </trkpt>
      <trkpt lat="47.46137" lon="6.79266">
        <ele>392</ele>
        <time>2016-01-17T09:37:49.000Z</time>
      </trkpt>
      <trkpt lat="47.46139" lon="6.79269">
        <ele>392</ele>
        <time>2016-01-17T09:37:50.000Z</time>
      </trkpt>
      <trkpt lat="47.4614" lon="6.79273">
        <ele>392</ele>
        <time>2016-01-17T09:37:51.000Z</time>
      </trkpt>
      <trkpt lat="47.46142" lon="6.79277">
        <ele>392</ele>
        <time>2016-01-17T09:37:52.000Z</time>
      </trkpt>
      <trkpt lat="47.46143" lon="6.79282">
        <ele>392</ele>
        <time>2016-01-17T09:37:53.000Z</time>
      </trkpt>
      <trkpt lat="47.46144" lon="6.79286">
        <ele>392</ele>
        <time>2016-01-17T09:37:54.000Z</time>
      </trkpt>
      <trkpt lat="47.46146" lon="6.79291">
        <ele>392</ele>
        <time>2016-01-17T09:37:55.000Z</time>
      </trkpt>
      <trkpt lat="47.46147" lon="6.79295">
        <ele>392</ele>
        <time>2016-01-17T09:37:56.000Z</time>
      </trkpt>
      <trkpt lat="47.46148" lon="6.79299">
        <ele>392</ele>
        <time>2016-01-17T09:37:57.000Z</time>
      </trkpt>
      <trkpt lat="47.4615" lon="6.79303">
        <ele>392</ele>
        <time>2016-01-17T09:37:58.000Z</time>
      </trkpt>
      <trkpt lat="47.46151" lon="6.79307">
        <ele>392</ele>
        <time>2016-01-17T09:37:59.000Z</time>
      </trkpt>
      <trkpt lat="47.46153" lon="6.79311">
        <ele>392</ele>
        <time>2016-01-17T09:38:00.000Z</time>
      </trkpt>
      <trkpt lat="47.46154" lon="6.79315">
        <ele>393</ele>
        <time>2016-01-17T09:38:01.000Z</time>
      </trkpt>
      <trkpt lat="47.46157" lon="6.79316">
        <ele>393</ele>
        <time>2016-01-17T09:38:02.000Z</time>
      </trkpt>
      <trkpt lat="47.46159" lon="6.79317">
        <ele>393</ele>
        <time>2016-01-17T09:38:02.999Z</time>
      </trkpt>
      <trkpt lat="47.46163" lon="6.79315">
        <ele>393</ele>
        <time>2016-01-17T09:38:04.000Z</time>
      </trkpt>
      <trkpt lat="47.46167" lon="6.79311">
        <ele>393</ele>
        <time>2016-01-17T09:38:05.000Z</time>
      </trkpt>
      <trkpt lat="47.4617" lon="6.79308">
        <ele>393</ele>
        <time>2016-01-17T09:38:06.000Z</time>
      </trkpt>
      <trkpt lat="47.46173" lon="6.79305">
        <ele>393</ele>
        <time>2016-01-17T09:38:06.998Z</time>
      </trkpt>
      <trkpt lat="47.46175" lon="6.79301">
        <ele>393</ele>
        <time>2016-01-17T09:38:08.002Z</time>
      </trkpt>
      <trkpt lat="47.46178" lon="6.79296">
        <ele>393</ele>
        <time>2016-01-17T09:38:09.000Z</time>
      </trkpt>
      <trkpt lat="47.46181" lon="6.79292">
        <ele>393</ele>
        <time>2016-01-17T09:38:10.000Z</time>
      </trkpt>
      <trkpt lat="47.46184" lon="6.79288">
        <ele>393</ele>
        <time>2016-01-17T09:38:11.000Z</time>
      </trkpt>
      <trkpt lat="47.46187" lon="6.79284">
        <ele>393</ele>
        <time>2016-01-17T09:38:12.000Z</time>
      </trkpt>
      <trkpt lat="47.46189" lon="6.79282">
        <ele>393</ele>
        <time>2016-01-17T09:38:13.000Z</time>
      </trkpt>
      <trkpt lat="47.46192" lon="6.79279">
        <ele>393</ele>
        <time>2016-01-17T09:38:14.000Z</time>
      </trkpt>
      <trkpt lat="47.46194" lon="6.79277">
        <ele>393</ele>
        <time>2016-01-17T09:38:15.000Z</time>
      </trkpt>
      <trkpt lat="47.46196" lon="6.79274">
        <ele>393</ele>
        <time>2016-01-17T09:38:16.000Z</time>
      </trkpt>
      <trkpt lat="47.46198" lon="6.79272">
        <ele>393</ele>
        <time>2016-01-17T09:38:17.000Z</time>
      </trkpt>
      <trkpt lat="47.462" lon="6.7927">
        <ele>393</ele>
        <time>2016-01-17T09:38:18.000Z</time>
      </trkpt>
      <trkpt lat="47.46203" lon="6.79268">
        <ele>393</ele>
        <time>2016-01-17T09:38:19.000Z</time>
      </trkpt>
      <trkpt lat="47.46206" lon="6.79266">
        <ele>393</ele>
        <time>2016-01-17T09:38:20.000Z</time>
      </trkpt>
      <trkpt lat="47.46209" lon="6.79266">
        <ele>393</ele>
        <time>2016-01-17T09:38:21.000Z</time>
      </trkpt>
      <trkpt lat="47.46212" lon="6.79266">
        <ele>393</ele>
        <time>2016-01-17T09:38:22.001Z</time>
      </trkpt>
      <trkpt lat="47.46216" lon="6.79268">
        <ele>393</ele>
        <time>2016-01-17T09:38:23.000Z</time>
      </trkpt>
      <trkpt lat="47.46219" lon="6.79273">
        <ele>392</ele>
        <time>2016-01-17T09:38:24.000Z</time>
      </trkpt>
      <trkpt lat="47.46222" lon="6.79277">
        <ele>392</ele>
        <time>2016-01-17T09:38:25.000Z</time>
      </trkpt>
      <trkpt lat="47.46224" lon="6.7928">
        <ele>392</ele>
        <time>2016-01-17T09:38:26.001Z</time>
      </trkpt>
      <trkpt lat="47.46227" lon="6.79284">
        <ele>392</ele>
        <time>2016-01-17T09:38:27.000Z</time>
      </trkpt>
      <trkpt lat="47.46229" lon="6.79287">
        <ele>392</ele>
        <time>2016-01-17T09:38:28.001Z</time>
      </trkpt>
      <trkpt lat="47.46231" lon="6.7929">
        <ele>392</ele>
        <time>2016-01-17T09:38:29.000Z</time>
      </trkpt>
      <trkpt lat="47.46233" lon="6.79293">
        <ele>392</ele>
        <time>2016-01-17T09:38:30.000Z</time>
      </trkpt>
      <trkpt lat="47.46235" lon="6.79295">
        <ele>392</ele>
        <time>2016-01-17T09:38:31.000Z</time>
      </trkpt>
      <trkpt lat="47.46237" lon="6.79298">
        <ele>392</ele>
        <time>2016-01-17T09:38:32.000Z</time>
      </trkpt>
      <trkpt lat="47.46239" lon="6.793">
        <ele>392</ele>
        <time>2016-01-17T09:38:33.000Z</time>
      </trkpt>
      <trkpt lat="47.46242" lon="6.79302">
        <ele>392</ele>
        <time>2016-01-17T09:38:34.000Z</time>
      </trkpt>
      <trkpt lat="47.46244" lon="6.79305">
        <ele>392</ele>
        <time>2016-01-17T09:38:34.999Z</time>
      </trkpt>
      <trkpt lat="47.46248" lon="6.79307">
        <ele>392</ele>
        <time>2016-01-17T09:38:36.000Z</time>
      </trkpt>
      <trkpt lat="47.46251" lon="6.79309">
        <ele>389</ele>
        <time>2016-01-17T09:38:37.001Z</time>
      </trkpt>
      <trkpt lat="47.46253" lon="6.79313">
        <ele>389</ele>
        <time>2016-01-17T09:38:38.000Z</time>
      </trkpt>
      <trkpt lat="47.46255" lon="6.79315">
        <ele>389</ele>
        <time>2016-01-17T09:38:39.000Z</time>
      </trkpt>
      <trkpt lat="47.46258" lon="6.79317">
        <ele>389</ele>
        <time>2016-01-17T09:38:40.000Z</time>
      </trkpt>
      <trkpt lat="47.4626" lon="6.7932">
        <ele>389</ele>
        <time>2016-01-17T09:38:41.000Z</time>
      </trkpt>
      <trkpt lat="47.46262" lon="6.79322">
        <ele>389</ele>
        <time>2016-01-17T09:38:42.000Z</time>
      </trkpt>
      <trkpt lat="47.46264" lon="6.79324">
        <ele>389</ele>
        <time>2016-01-17T09:38:43.000Z</time>
      </trkpt>
      <trkpt lat="47.46265" lon="6.79326">
        <ele>389</ele>
        <time>2016-01-17T09:38:44.000Z</time>
      </trkpt>
      <trkpt lat="47.46268" lon="6.79331">
        <ele>389</ele>
        <time>2016-01-17T09:38:46.000Z</time>
      </trkpt>
      <trkpt lat="47.4627" lon="6.79333">
        <ele>389</ele>
        <time>2016-01-17T09:38:47.000Z</time>
      </trkpt>
      <trkpt lat="47.46272" lon="6.79334">
        <ele>389</ele>
        <time>2016-01-17T09:38:48.000Z</time>
      </trkpt>
      <trkpt lat="47.46274" lon="6.79336">
        <ele>389</ele>
        <time>2016-01-17T09:38:49.000Z</time>
      </trkpt>
      <trkpt lat="47.46276" lon="6.79338">
        <ele>388</ele>
        <time>2016-01-17T09:38:49.999Z</time>
      </trkpt>
      <trkpt lat="47.4628" lon="6.79339">
        <ele>388</ele>
        <time>2016-01-17T09:38:51.000Z</time>
      </trkpt>
      <trkpt lat="47.46282" lon="6.79342">
        <ele>388</ele>
        <time>2016-01-17T09:38:52.000Z</time>
      </trkpt>
      <trkpt lat="47.46285" lon="6.79344">
        <ele>388</ele>
        <time>2016-01-17T09:38:53.000Z</time>
      </trkpt>
      <trkpt lat="47.46287" lon="6.79347">
        <ele>388</ele>
        <time>2016-01-17T09:38:54.000Z</time>
      </trkpt>
      <trkpt lat="47.46289" lon="6.7935">
        <ele>388</ele>
        <time>2016-01-17T09:38:55.000Z</time>
      </trkpt>
      <trkpt lat="47.46291" lon="6.79352">
        <ele>388</ele>
        <time>2016-01-17T09:38:56.001Z</time>
      </trkpt>
      <trkpt lat="47.46293" lon="6.79355">
        <ele>388</ele>
        <time>2016-01-17T09:38:57.000Z</time>
      </trkpt>
      <trkpt lat="47.46296" lon="6.79358">
        <ele>388</ele>
        <time>2016-01-17T09:38:58.000Z</time>
      </trkpt>
      <trkpt lat="47.46298" lon="6.79361">
        <ele>388</ele>
        <time>2016-01-17T09:38:59.000Z</time>
      </trkpt>
      <trkpt lat="47.46302" lon="6.79364">
        <ele>388</ele>
        <time>2016-01-17T09:39:00.000Z</time>
      </trkpt>
      <trkpt lat="47.46305" lon="6.79366">
        <ele>387</ele>
        <time>2016-01-17T09:39:01.000Z</time>
      </trkpt>
      <trkpt lat="47.46308" lon="6.79369">
        <ele>387</ele>
        <time>2016-01-17T09:39:02.000Z</time>
      </trkpt>
      <trkpt lat="47.46312" lon="6.79372">
        <ele>387</ele>
        <time>2016-01-17T09:39:03.000Z</time>
      </trkpt>
      <trkpt lat="47.46315" lon="6.79375">
        <ele>387</ele>
        <time>2016-01-17T09:39:04.000Z</time>
      </trkpt>
      <trkpt lat="47.46318" lon="6.79378">
        <ele>387</ele>
        <time>2016-01-17T09:39:05.000Z</time>
      </trkpt>
      <trkpt lat="47.46322" lon="6.79382">
        <ele>387</ele>
        <time>2016-01-17T09:39:06.000Z</time>
      </trkpt>
      <trkpt lat="47.46324" lon="6.79386">
        <ele>387</ele>
        <time>2016-01-17T09:39:07.000Z</time>
      </trkpt>
      <trkpt lat="47.46327" lon="6.7939">
        <ele>387</ele>
        <time>2016-01-17T09:39:08.000Z</time>
      </trkpt>
      <trkpt lat="47.46329" lon="6.79395">
        <ele>387</ele>
        <time>2016-01-17T09:39:09.000Z</time>
      </trkpt>
      <trkpt lat="47.4633" lon="6.794">
        <ele>387</ele>
        <time>2016-01-17T09:39:10.000Z</time>
      </trkpt>
      <trkpt lat="47.46332" lon="6.79406">
        <ele>387</ele>
        <time>2016-01-17T09:39:11.000Z</time>
      </trkpt>
      <trkpt lat="47.46333" lon="6.79411">
        <ele>386</ele>
        <time>2016-01-17T09:39:12.000Z</time>
      </trkpt>
      <trkpt lat="47.46334" lon="6.79415">
        <ele>386</ele>
        <time>2016-01-17T09:39:13.000Z</time>
      </trkpt>
      <trkpt lat="47.46335" lon="6.79419">
        <ele>386</ele>
        <time>2016-01-17T09:39:14.000Z</time>
      </trkpt>
      <trkpt lat="47.46336" lon="6.79422">
        <ele>386</ele>
        <time>2016-01-17T09:39:15.000Z</time>
      </trkpt>
      <trkpt lat="47.46337" lon="6.79427">
        <ele>386</ele>
        <time>2016-01-17T09:39:17.000Z</time>
      </trkpt>
      <trkpt lat="47.46337" lon="6.79429">
        <ele>386</ele>
        <time>2016-01-17T09:39:18.000Z</time>
      </trkpt>
      <trkpt lat="47.46336" lon="6.79435">
        <ele>386</ele>
        <time>2016-01-17T09:39:20.000Z</time>
      </trkpt>
      <trkpt lat="47.46335" lon="6.79438">
        <ele>386</ele>
        <time>2016-01-17T09:39:21.000Z</time>
      </trkpt>
      <trkpt lat="47.46333" lon="6.79442">
        <ele>386</ele>
        <time>2016-01-17T09:39:22.000Z</time>
      </trkpt>
      <trkpt lat="47.46332" lon="6.79446">
        <ele>388</ele>
        <time>2016-01-17T09:39:23.000Z</time>
      </trkpt>
      <trkpt lat="47.46332" lon="6.7945">
        <ele>388</ele>
        <time>2016-01-17T09:39:24.000Z</time>
      </trkpt>
      <trkpt lat="47.46332" lon="6.79455">
        <ele>388</ele>
        <time>2016-01-17T09:39:25.000Z</time>
      </trkpt>
      <trkpt lat="47.46333" lon="6.7946">
        <ele>388</ele>
        <time>2016-01-17T09:39:26.000Z</time>
      </trkpt>
      <trkpt lat="47.46333" lon="6.79465">
        <ele>388</ele>
        <time>2016-01-17T09:39:27.000Z</time>
      </trkpt>
      <trkpt lat="47.46334" lon="6.79469">
        <ele>387</ele>
        <time>2016-01-17T09:39:28.000Z</time>
      </trkpt>
      <trkpt lat="47.46335" lon="6.79474">
        <ele>387</ele>
        <time>2016-01-17T09:39:29.000Z</time>
      </trkpt>
      <trkpt lat="47.46336" lon="6.79478">
        <ele>387</ele>
        <time>2016-01-17T09:39:30.000Z</time>
      </trkpt>
      <trkpt lat="47.46337" lon="6.79482">
        <ele>387</ele>
        <time>2016-01-17T09:39:31.000Z</time>
      </trkpt>
      <trkpt lat="47.46339" lon="6.79486">
        <ele>387</ele>
        <time>2016-01-17T09:39:32.000Z</time>
      </trkpt>
      <trkpt lat="47.4634" lon="6.79491">
        <ele>387</ele>
        <time>2016-01-17T09:39:33.000Z</time>
      </trkpt>
      <trkpt lat="47.46342" lon="6.79495">
        <ele>387</ele>
        <time>2016-01-17T09:39:34.000Z</time>
      </trkpt>
      <trkpt lat="47.46344" lon="6.79499">
        <ele>387</ele>
        <time>2016-01-17T09:39:35.000Z</time>
      </trkpt>
      <trkpt lat="47.46346" lon="6.79503">
        <ele>387</ele>
        <time>2016-01-17T09:39:36.000Z</time>
      </trkpt>
      <trkpt lat="47.46348" lon="6.79507">
        <ele>387</ele>
        <time>2016-01-17T09:39:37.000Z</time>
      </trkpt>
      <trkpt lat="47.46351" lon="6.79511">
        <ele>387</ele>
        <time>2016-01-17T09:39:38.000Z</time>
      </trkpt>
      <trkpt lat="47.46353" lon="6.79514">
        <ele>387</ele>
        <time>2016-01-17T09:39:39.000Z</time>
      </trkpt>
      <trkpt lat="47.46355" lon="6.79516">
        <ele>386</ele>
        <time>2016-01-17T09:39:40.000Z</time>
      </trkpt>
      <trkpt lat="47.46357" lon="6.79518">
        <ele>386</ele>
        <time>2016-01-17T09:39:41.000Z</time>
      </trkpt>
      <trkpt lat="47.4636" lon="6.79517">
        <ele>386</ele>
        <time>2016-01-17T09:39:43.000Z</time>
      </trkpt>
      <trkpt lat="47.46361" lon="6.79516">
        <ele>386</ele>
        <time>2016-01-17T09:39:44.000Z</time>
      </trkpt>
      <trkpt lat="47.46364" lon="6.79513">
        <ele>386</ele>
        <time>2016-01-17T09:39:46.000Z</time>
      </trkpt>
      <trkpt lat="47.46365" lon="6.7951">
        <ele>386</ele>
        <time>2016-01-17T09:39:47.000Z</time>
      </trkpt>
      <trkpt lat="47.46367" lon="6.79505">
        <ele>386</ele>
        <time>2016-01-17T09:39:49.000Z</time>
      </trkpt>
      <trkpt lat="47.46368" lon="6.79502">
        <ele>386</ele>
        <time>2016-01-17T09:39:50.000Z</time>
      </trkpt>
      <trkpt lat="47.46369" lon="6.79499">
        <ele>387</ele>
        <time>2016-01-17T09:39:51.000Z</time>
      </trkpt>
      <trkpt lat="47.4637" lon="6.79495">
        <ele>387</ele>
        <time>2016-01-17T09:39:52.000Z</time>
      </trkpt>
      <trkpt lat="47.46371" lon="6.79492">
        <ele>387</ele>
        <time>2016-01-17T09:39:53.000Z</time>
      </trkpt>
      <trkpt lat="47.46373" lon="6.79488">
        <ele>387</ele>
        <time>2016-01-17T09:39:54.000Z</time>
      </trkpt>
      <trkpt lat="47.46375" lon="6.79484">
        <ele>386</ele>
        <time>2016-01-17T09:39:55.000Z</time>
      </trkpt>
      <trkpt lat="47.46376" lon="6.79481">
        <ele>386</ele>
        <time>2016-01-17T09:39:56.000Z</time>
      </trkpt>
      <trkpt lat="47.46377" lon="6.79477">
        <ele>386</ele>
        <time>2016-01-17T09:39:57.000Z</time>
      </trkpt>
      <trkpt lat="47.46378" lon="6.79474">
        <ele>386</ele>
        <time>2016-01-17T09:39:58.000Z</time>
      </trkpt>
      <trkpt lat="47.4638" lon="6.79468">
        <ele>386</ele>
        <time>2016-01-17T09:40:00.000Z</time>
      </trkpt>
      <trkpt lat="47.46381" lon="6.79466">
        <ele>386</ele>
        <time>2016-01-17T09:40:01.000Z</time>
      </trkpt>
      <trkpt lat="47.46384" lon="6.79462">
        <ele>386</ele>
        <time>2016-01-17T09:40:03.000Z</time>
      </trkpt>
      <trkpt lat="47.46385" lon="6.7946">
        <ele>386</ele>
        <time>2016-01-17T09:40:04.000Z</time>
      </trkpt>
      <trkpt lat="47.46387" lon="6.79454">
        <ele>386</ele>
        <time>2016-01-17T09:40:06.000Z</time>
      </trkpt>
      <trkpt lat="47.46387" lon="6.79452">
        <ele>386</ele>
        <time>2016-01-17T09:40:07.000Z</time>
      </trkpt>
      <trkpt lat="47.46389" lon="6.79446">
        <ele>386</ele>
        <time>2016-01-17T09:40:10.000Z</time>
      </trkpt>
      <trkpt lat="47.4639" lon="6.79444">
        <ele>386</ele>
        <time>2016-01-17T09:40:11.000Z</time>
      </trkpt>
      <trkpt lat="47.46393" lon="6.79439">
        <ele>386</ele>
        <time>2016-01-17T09:40:14.000Z</time>
      </trkpt>
      <trkpt lat="47.46393" lon="6.79438">
        <ele>386</ele>
        <time>2016-01-17T09:40:15.000Z</time>
      </trkpt>
      <trkpt lat="47.46395" lon="6.79434">
        <ele>386</ele>
        <time>2016-01-17T09:40:17.000Z</time>
      </trkpt>
      <trkpt lat="47.46396" lon="6.79432">
        <ele>386</ele>
        <time>2016-01-17T09:40:18.000Z</time>
      </trkpt>
      <trkpt lat="47.46399" lon="6.79429">
        <ele>386</ele>
        <time>2016-01-17T09:40:20.000Z</time>
      </trkpt>
      <trkpt lat="47.464" lon="6.79427">
        <ele>386</ele>
        <time>2016-01-17T09:40:21.000Z</time>
      </trkpt>
      <trkpt lat="47.46401" lon="6.79423">
        <ele>386</ele>
        <time>2016-01-17T09:40:23.000Z</time>
      </trkpt>
      <trkpt lat="47.46402" lon="6.79421">
        <ele>386</ele>
        <time>2016-01-17T09:40:24.000Z</time>
      </trkpt>
      <trkpt lat="47.46404" lon="6.79416">
        <ele>385</ele>
        <time>2016-01-17T09:40:26.000Z</time>
      </trkpt>
      <trkpt lat="47.46405" lon="6.79414">
        <ele>385</ele>
        <time>2016-01-17T09:40:27.000Z</time>
      </trkpt>
      <trkpt lat="47.46407" lon="6.79412">
        <ele>385</ele>
        <time>2016-01-17T09:40:29.000Z</time>
      </trkpt>
      <trkpt lat="47.46409" lon="6.7941">
        <ele>385</ele>
        <time>2016-01-17T09:40:30.000Z</time>
      </trkpt>
      <trkpt lat="47.46411" lon="6.79404">
        <ele>385</ele>
        <time>2016-01-17T09:40:32.000Z</time>
      </trkpt>
      <trkpt lat="47.46412" lon="6.79401">
        <ele>385</ele>
        <time>2016-01-17T09:40:33.000Z</time>
      </trkpt>
      <trkpt lat="47.46413" lon="6.79395">
        <ele>385</ele>
        <time>2016-01-17T09:40:36.000Z</time>
      </trkpt>
      <trkpt lat="47.46413" lon="6.79394">
        <ele>385</ele>
        <time>2016-01-17T09:40:37.000Z</time>
      </trkpt>
      <trkpt lat="47.46416" lon="6.79389">
        <ele>385</ele>
        <time>2016-01-17T09:40:41.000Z</time>
      </trkpt>
      <trkpt lat="47.46417" lon="6.79386">
        <ele>384</ele>
        <time>2016-01-17T09:40:42.000Z</time>
      </trkpt>
      <trkpt lat="47.46418" lon="6.79383">
        <ele>384</ele>
        <time>2016-01-17T09:40:43.000Z</time>
      </trkpt>
      <trkpt lat="47.46419" lon="6.7938">
        <ele>384</ele>
        <time>2016-01-17T09:40:44.000Z</time>
      </trkpt>
      <trkpt lat="47.46422" lon="6.79375">
        <ele>384</ele>
        <time>2016-01-17T09:40:46.000Z</time>
      </trkpt>
      <trkpt lat="47.46423" lon="6.79373">
        <ele>384</ele>
        <time>2016-01-17T09:40:47.000Z</time>
      </trkpt>
      <trkpt lat="47.46425" lon="6.7937">
        <ele>384</ele>
        <time>2016-01-17T09:40:49.000Z</time>
      </trkpt>
      <trkpt lat="47.46426" lon="6.79368">
        <ele>384</ele>
        <time>2016-01-17T09:40:50.000Z</time>
      </trkpt>
      <trkpt lat="47.46428" lon="6.79364">
        <ele>384</ele>
        <time>2016-01-17T09:40:52.000Z</time>
      </trkpt>
      <trkpt lat="47.4643" lon="6.79362">
        <ele>384</ele>
        <time>2016-01-17T09:40:53.000Z</time>
      </trkpt>
      <trkpt lat="47.46433" lon="6.79358">
        <ele>384</ele>
        <time>2016-01-17T09:40:55.000Z</time>
      </trkpt>
      <trkpt lat="47.46434" lon="6.79356">
        <ele>384</ele>
        <time>2016-01-17T09:40:56.000Z</time>
      </trkpt>
      <trkpt lat="47.46438" lon="6.79351">
        <ele>384</ele>
        <time>2016-01-17T09:40:58.000Z</time>
      </trkpt>
      <trkpt lat="47.46439" lon="6.79349">
        <ele>384</ele>
        <time>2016-01-17T09:40:59.000Z</time>
      </trkpt>
      <trkpt lat="47.46441" lon="6.79347">
        <ele>384</ele>
        <time>2016-01-17T09:41:00.000Z</time>
      </trkpt>
      <trkpt lat="47.46442" lon="6.79344">
        <ele>384</ele>
        <time>2016-01-17T09:41:01.000Z</time>
      </trkpt>
      <trkpt lat="47.46445" lon="6.79339">
        <ele>384</ele>
        <time>2016-01-17T09:41:03.000Z</time>
      </trkpt>
      <trkpt lat="47.46446" lon="6.79337">
        <ele>384</ele>
        <time>2016-01-17T09:41:04.000Z</time>
      </trkpt>
      <trkpt lat="47.46448" lon="6.79332">
        <ele>386</ele>
        <time>2016-01-17T09:41:06.000Z</time>
      </trkpt>
      <trkpt lat="47.46449" lon="6.7933">
        <ele>386</ele>
        <time>2016-01-17T09:41:07.000Z</time>
      </trkpt>
      <trkpt lat="47.46452" lon="6.79327">
        <ele>386</ele>
        <time>2016-01-17T09:41:09.000Z</time>
      </trkpt>
      <trkpt lat="47.46454" lon="6.79326">
        <ele>386</ele>
        <time>2016-01-17T09:41:10.000Z</time>
      </trkpt>
      <trkpt lat="47.46456" lon="6.79322">
        <ele>386</ele>
        <time>2016-01-17T09:41:12.000Z</time>
      </trkpt>
      <trkpt lat="47.46457" lon="6.7932">
        <ele>386</ele>
        <time>2016-01-17T09:41:13.000Z</time>
      </trkpt>
      <trkpt lat="47.46459" lon="6.79316">
        <ele>386</ele>
        <time>2016-01-17T09:41:15.000Z</time>
      </trkpt>
      <trkpt lat="47.4646" lon="6.79314">
        <ele>386</ele>
        <time>2016-01-17T09:41:16.000Z</time>
      </trkpt>
      <trkpt lat="47.46462" lon="6.79311">
        <ele>386</ele>
        <time>2016-01-17T09:41:18.000Z</time>
      </trkpt>
      <trkpt lat="47.46463" lon="6.79309">
        <ele>386</ele>
        <time>2016-01-17T09:41:19.000Z</time>
      </trkpt>
      <trkpt lat="47.46464" lon="6.79305">
        <ele>386</ele>
        <time>2016-01-17T09:41:21.000Z</time>
      </trkpt>
      <trkpt lat="47.46465" lon="6.79303">
        <ele>386</ele>
        <time>2016-01-17T09:41:22.000Z</time>
      </trkpt>
      <trkpt lat="47.46467" lon="6.79298">
        <ele>386</ele>
        <time>2016-01-17T09:41:25.000Z</time>
      </trkpt>
      <trkpt lat="47.46468" lon="6.79297">
        <ele>386</ele>
        <time>2016-01-17T09:41:26.000Z</time>
      </trkpt>
      <trkpt lat="47.4647" lon="6.79292">
        <ele>386</ele>
        <time>2016-01-17T09:41:29.000Z</time>
      </trkpt>
      <trkpt lat="47.4647" lon="6.7929">
        <ele>386</ele>
        <time>2016-01-17T09:41:30.000Z</time>
      </trkpt>
      <trkpt lat="47.46471" lon="6.79285">
        <ele>386</ele>
        <time>2016-01-17T09:41:32.000Z</time>
      </trkpt>
      <trkpt lat="47.46472" lon="6.79283">
        <ele>386</ele>
        <time>2016-01-17T09:41:33.000Z</time>
      </trkpt>
      <trkpt lat="47.46474" lon="6.79277">
        <ele>387</ele>
        <time>2016-01-17T09:41:37.000Z</time>
      </trkpt>
      <trkpt lat="47.46475" lon="6.79275">
        <ele>387</ele>
        <time>2016-01-17T09:41:38.000Z</time>
      </trkpt>
      <trkpt lat="47.46476" lon="6.7927">
        <ele>387</ele>
        <time>2016-01-17T09:41:40.000Z</time>
      </trkpt>
      <trkpt lat="47.46477" lon="6.79267">
        <ele>387</ele>
        <time>2016-01-17T09:41:41.000Z</time>
      </trkpt>
      <trkpt lat="47.46478" lon="6.7926">
        <ele>387</ele>
        <time>2016-01-17T09:41:43.000Z</time>
      </trkpt>
      <trkpt lat="47.46478" lon="6.79258">
        <ele>387</ele>
        <time>2016-01-17T09:41:44.000Z</time>
      </trkpt>
      <trkpt lat="47.4648" lon="6.79252">
        <ele>387</ele>
        <time>2016-01-17T09:41:46.000Z</time>
      </trkpt>
      <trkpt lat="47.46481" lon="6.79249">
        <ele>388</ele>
        <time>2016-01-17T09:41:47.000Z</time>
      </trkpt>
      <trkpt lat="47.46483" lon="6.79245">
        <ele>388</ele>
        <time>2016-01-17T09:41:49.000Z</time>
      </trkpt>
      <trkpt lat="47.46485" lon="6.79243">
        <ele>388</ele>
        <time>2016-01-17T09:41:50.000Z</time>
      </trkpt>
      <trkpt lat="47.46488" lon="6.7924">
        <ele>388</ele>
        <time>2016-01-17T09:41:52.000Z</time>
      </trkpt>
      <trkpt lat="47.46489" lon="6.79238">
        <ele>388</ele>
        <time>2016-01-17T09:41:53.000Z</time>
      </trkpt>
      <trkpt lat="47.46492" lon="6.79234">
        <ele>388</ele>
        <time>2016-01-17T09:41:55.000Z</time>
      </trkpt>
      <trkpt lat="47.46493" lon="6.79232">
        <ele>389</ele>
        <time>2016-01-17T09:41:56.000Z</time>
      </trkpt>
      <trkpt lat="47.46496" lon="6.79227">
        <ele>389</ele>
        <time>2016-01-17T09:41:58.000Z</time>
      </trkpt>
      <trkpt lat="47.46497" lon="6.79225">
        <ele>389</ele>
        <time>2016-01-17T09:41:59.000Z</time>
      </trkpt>
      <trkpt lat="47.46499" lon="6.79221">
        <ele>389</ele>
        <time>2016-01-17T09:42:01.000Z</time>
      </trkpt>
      <trkpt lat="47.46501" lon="6.7922">
        <ele>387</ele>
        <time>2016-01-17T09:42:02.000Z</time>
      </trkpt>
      <trkpt lat="47.46504" lon="6.79216">
        <ele>387</ele>
        <time>2016-01-17T09:42:05.000Z</time>
      </trkpt>
      <trkpt lat="47.46504" lon="6.79214">
        <ele>387</ele>
        <time>2016-01-17T09:42:06.000Z</time>
      </trkpt>
      <trkpt lat="47.46505" lon="6.79208">
        <ele>387</ele>
        <time>2016-01-17T09:42:10.000Z</time>
      </trkpt>
      <trkpt lat="47.46506" lon="6.79207">
        <ele>387</ele>
        <time>2016-01-17T09:42:11.000Z</time>
      </trkpt>
      <trkpt lat="47.46507" lon="6.79203">
        <ele>387</ele>
        <time>2016-01-17T09:42:13.000Z</time>
      </trkpt>
      <trkpt lat="47.46508" lon="6.79201">
        <ele>387</ele>
        <time>2016-01-17T09:42:14.000Z</time>
      </trkpt>
      <trkpt lat="47.4651" lon="6.79196">
        <ele>387</ele>
        <time>2016-01-17T09:42:16.000Z</time>
      </trkpt>
      <trkpt lat="47.46511" lon="6.79193">
        <ele>387</ele>
        <time>2016-01-17T09:42:17.000Z</time>
      </trkpt>
      <trkpt lat="47.46514" lon="6.79188">
        <ele>387</ele>
        <time>2016-01-17T09:42:20.000Z</time>
      </trkpt>
      <trkpt lat="47.46515" lon="6.79187">
        <ele>387</ele>
        <time>2016-01-17T09:42:21.000Z</time>
      </trkpt>
      <trkpt lat="47.46517" lon="6.79184">
        <ele>387</ele>
        <time>2016-01-17T09:42:23.000Z</time>
      </trkpt>
      <trkpt lat="47.46518" lon="6.79182">
        <ele>387</ele>
        <time>2016-01-17T09:42:24.000Z</time>
      </trkpt>
      <trkpt lat="47.46521" lon="6.79178">
        <ele>387</ele>
        <time>2016-01-17T09:42:26.000Z</time>
      </trkpt>
      <trkpt lat="47.46523" lon="6.79175">
        <ele>387</ele>
        <time>2016-01-17T09:42:27.000Z</time>
      </trkpt>
      <trkpt lat="47.46525" lon="6.79171">
        <ele>387</ele>
        <time>2016-01-17T09:42:29.000Z</time>
      </trkpt>
      <trkpt lat="47.46527" lon="6.79169">
        <ele>387</ele>
        <time>2016-01-17T09:42:30.000Z</time>
      </trkpt>
      <trkpt lat="47.46529" lon="6.79164">
        <ele>387</ele>
        <time>2016-01-17T09:42:32.000Z</time>
      </trkpt>
      <trkpt lat="47.46531" lon="6.79161">
        <ele>387</ele>
        <time>2016-01-17T09:42:33.000Z</time>
      </trkpt>
      <trkpt lat="47.46532" lon="6.79158">
        <ele>387</ele>
        <time>2016-01-17T09:42:34.000Z</time>
      </trkpt>
      <trkpt lat="47.46534" lon="6.79155">
        <ele>387</ele>
        <time>2016-01-17T09:42:35.000Z</time>
      </trkpt>
      <trkpt lat="47.46535" lon="6.79152">
        <ele>387</ele>
        <time>2016-01-17T09:42:36.000Z</time>
      </trkpt>
      <trkpt lat="47.46536" lon="6.79149">
        <ele>387</ele>
        <time>2016-01-17T09:42:37.000Z</time>
      </trkpt>
      <trkpt lat="47.46538" lon="6.79147">
        <ele>387</ele>
        <time>2016-01-17T09:42:38.000Z</time>
      </trkpt>
      <trkpt lat="47.46539" lon="6.79144">
        <ele>387</ele>
        <time>2016-01-17T09:42:39.000Z</time>
      </trkpt>
      <trkpt lat="47.46541" lon="6.79142">
        <ele>387</ele>
        <time>2016-01-17T09:42:40.000Z</time>
      </trkpt>
      <trkpt lat="47.46543" lon="6.79139">
        <ele>387</ele>
        <time>2016-01-17T09:42:41.000Z</time>
      </trkpt>
      <trkpt lat="47.46545" lon="6.79137">
        <ele>387</ele>
        <time>2016-01-17T09:42:42.000Z</time>
      </trkpt>
      <trkpt lat="47.46547" lon="6.79135">
        <ele>387</ele>
        <time>2016-01-17T09:42:43.000Z</time>
      </trkpt>
      <trkpt lat="47.4655" lon="6.79133">
        <ele>386</ele>
        <time>2016-01-17T09:42:44.000Z</time>
      </trkpt>
      <trkpt lat="47.46552" lon="6.79131">
        <ele>386</ele>
        <time>2016-01-17T09:42:45.000Z</time>
      </trkpt>
      <trkpt lat="47.46555" lon="6.79129">
        <ele>386</ele>
        <time>2016-01-17T09:42:46.000Z</time>
      </trkpt>
      <trkpt lat="47.46557" lon="6.79126">
        <ele>386</ele>
        <time>2016-01-17T09:42:47.000Z</time>
      </trkpt>
      <trkpt lat="47.4656" lon="6.79122">
        <ele>386</ele>
        <time>2016-01-17T09:42:48.000Z</time>
      </trkpt>
      <trkpt lat="47.46562" lon="6.79118">
        <ele>386</ele>
        <time>2016-01-17T09:42:49.000Z</time>
      </trkpt>
      <trkpt lat="47.46564" lon="6.79115">
        <ele>386</ele>
        <time>2016-01-17T09:42:50.000Z</time>
      </trkpt>
      <trkpt lat="47.46565" lon="6.79112">
        <ele>386</ele>
        <time>2016-01-17T09:42:51.000Z</time>
      </trkpt>
      <trkpt lat="47.46567" lon="6.79108">
        <ele>386</ele>
        <time>2016-01-17T09:42:53.000Z</time>
      </trkpt>
      <trkpt lat="47.46568" lon="6.79106">
        <ele>386</ele>
        <time>2016-01-17T09:42:54.000Z</time>
      </trkpt>
      <trkpt lat="47.46565" lon="6.7911">
        <ele>386</ele>
        <time>2016-01-17T09:44:10.000Z</time>
      </trkpt>
      <trkpt lat="47.46564" lon="6.79112">
        <ele>386</ele>
        <time>2016-01-17T09:44:11.000Z</time>
      </trkpt>
      <trkpt lat="47.46562" lon="6.79115">
        <ele>386</ele>
        <time>2016-01-17T09:44:14.000Z</time>
      </trkpt>
      <trkpt lat="47.4656" lon="6.79115">
        <ele>386</ele>
        <time>2016-01-17T09:44:15.000Z</time>
      </trkpt>
      <trkpt lat="47.46557" lon="6.79113">
        <ele>386</ele>
        <time>2016-01-17T09:44:17.000Z</time>
      </trkpt>
      <trkpt lat="47.46556" lon="6.79112">
        <ele>386</ele>
        <time>2016-01-17T09:44:18.000Z</time>
      </trkpt>
      <trkpt lat="47.46552" lon="6.7911">
        <ele>386</ele>
        <time>2016-01-17T09:44:22.000Z</time>
      </trkpt>
      <trkpt lat="47.46551" lon="6.79109">
        <ele>386</ele>
        <time>2016-01-17T09:44:23.000Z</time>
      </trkpt>
      <trkpt lat="47.46548" lon="6.79105">
        <ele>387</ele>
        <time>2016-01-17T09:44:27.000Z</time>
      </trkpt>
      <trkpt lat="47.46547" lon="6.79105">
        <ele>387</ele>
        <time>2016-01-17T09:44:28.000Z</time>
      </trkpt>
      <trkpt lat="47.46543" lon="6.79102">
        <ele>387</ele>
        <time>2016-01-17T09:44:32.000Z</time>
      </trkpt>
      <trkpt lat="47.46542" lon="6.791">
        <ele>387</ele>
        <time>2016-01-17T09:44:33.000Z</time>
      </trkpt>
      <trkpt lat="47.4654" lon="6.79095">
        <ele>387</ele>
        <time>2016-01-17T09:44:35.000Z</time>
      </trkpt>
      <trkpt lat="47.46539" lon="6.79093">
        <ele>387</ele>
        <time>2016-01-17T09:44:36.000Z</time>
      </trkpt>
      <trkpt lat="47.46536" lon="6.79088">
        <ele>387</ele>
        <time>2016-01-17T09:44:38.000Z</time>
      </trkpt>
      <trkpt lat="47.46535" lon="6.79086">
        <ele>387</ele>
        <time>2016-01-17T09:44:39.000Z</time>
      </trkpt>
      <trkpt lat="47.46532" lon="6.79082">
        <ele>387</ele>
        <time>2016-01-17T09:44:41.000Z</time>
      </trkpt>
      <trkpt lat="47.46531" lon="6.79079">
        <ele>387</ele>
        <time>2016-01-17T09:44:42.000Z</time>
      </trkpt>
      <trkpt lat="47.46528" lon="6.79076">
        <ele>388</ele>
        <time>2016-01-17T09:44:44.000Z</time>
      </trkpt>
      <trkpt lat="47.46527" lon="6.79074">
        <ele>388</ele>
        <time>2016-01-17T09:44:45.000Z</time>
      </trkpt>
      <trkpt lat="47.46524" lon="6.79071">
        <ele>388</ele>
        <time>2016-01-17T09:44:47.000Z</time>
      </trkpt>
      <trkpt lat="47.46523" lon="6.79069">
        <ele>388</ele>
        <time>2016-01-17T09:44:48.000Z</time>
      </trkpt>
      <trkpt lat="47.46522" lon="6.79064">
        <ele>388</ele>
        <time>2016-01-17T09:44:50.000Z</time>
      </trkpt>
      <trkpt lat="47.46521" lon="6.79061">
        <ele>388</ele>
        <time>2016-01-17T09:44:51.000Z</time>
      </trkpt>
      <trkpt lat="47.4652" lon="6.79057">
        <ele>388</ele>
        <time>2016-01-17T09:44:53.000Z</time>
      </trkpt>
      <trkpt lat="47.46519" lon="6.79056">
        <ele>388</ele>
        <time>2016-01-17T09:44:54.000Z</time>
      </trkpt>
      <trkpt lat="47.46516" lon="6.79052">
        <ele>388</ele>
        <time>2016-01-17T09:44:56.000Z</time>
      </trkpt>
      <trkpt lat="47.46515" lon="6.79051">
        <ele>388</ele>
        <time>2016-01-17T09:44:57.000Z</time>
      </trkpt>
      <trkpt lat="47.46513" lon="6.79047">
        <ele>388</ele>
        <time>2016-01-17T09:44:59.000Z</time>
      </trkpt>
      <trkpt lat="47.46512" lon="6.79045">
        <ele>388</ele>
        <time>2016-01-17T09:45:00.000Z</time>
      </trkpt>
      <trkpt lat="47.46511" lon="6.79039">
        <ele>388</ele>
        <time>2016-01-17T09:45:02.000Z</time>
      </trkpt>
      <trkpt lat="47.46511" lon="6.79037">
        <ele>388</ele>
        <time>2016-01-17T09:45:03.000Z</time>
      </trkpt>
      <trkpt lat="47.46509" lon="6.79031">
        <ele>388</ele>
        <time>2016-01-17T09:45:06.000Z</time>
      </trkpt>
      <trkpt lat="47.46508" lon="6.79029">
        <ele>388</ele>
        <time>2016-01-17T09:45:07.000Z</time>
      </trkpt>
      <trkpt lat="47.46509" lon="6.79023">
        <ele>388</ele>
        <time>2016-01-17T09:45:10.000Z</time>
      </trkpt>
      <trkpt lat="47.4651" lon="6.79021">
        <ele>388</ele>
        <time>2016-01-17T09:45:11.000Z</time>
      </trkpt>
      <trkpt lat="47.46511" lon="6.79017">
        <ele>389</ele>
        <time>2016-01-17T09:45:13.000Z</time>
      </trkpt>
      <trkpt lat="47.46512" lon="6.79014">
        <ele>389</ele>
        <time>2016-01-17T09:45:14.000Z</time>
      </trkpt>
      <trkpt lat="47.46515" lon="6.7901">
        <ele>389</ele>
        <time>2016-01-17T09:45:16.000Z</time>
      </trkpt>
      <trkpt lat="47.46516" lon="6.79008">
        <ele>389</ele>
        <time>2016-01-17T09:45:17.000Z</time>
      </trkpt>
      <trkpt lat="47.46518" lon="6.79004">
        <ele>389</ele>
        <time>2016-01-17T09:45:19.000Z</time>
      </trkpt>
      <trkpt lat="47.46519" lon="6.79002">
        <ele>389</ele>
        <time>2016-01-17T09:45:20.000Z</time>
      </trkpt>
      <trkpt lat="47.4652" lon="6.78997">
        <ele>389</ele>
        <time>2016-01-17T09:45:22.000Z</time>
      </trkpt>
      <trkpt lat="47.46521" lon="6.78995">
        <ele>389</ele>
        <time>2016-01-17T09:45:23.000Z</time>
      </trkpt>
      <trkpt lat="47.4652" lon="6.78991">
        <ele>389</ele>
        <time>2016-01-17T09:45:25.000Z</time>
      </trkpt>
      <trkpt lat="47.4652" lon="6.78988">
        <ele>389</ele>
        <time>2016-01-17T09:45:26.000Z</time>
      </trkpt>
      <trkpt lat="47.46517" lon="6.78983">
        <ele>389</ele>
        <time>2016-01-17T09:45:28.000Z</time>
      </trkpt>
      <trkpt lat="47.46516" lon="6.78981">
        <ele>390</ele>
        <time>2016-01-17T09:45:29.000Z</time>
      </trkpt>
      <trkpt lat="47.46515" lon="6.78975">
        <ele>390</ele>
        <time>2016-01-17T09:45:31.000Z</time>
      </trkpt>
      <trkpt lat="47.46515" lon="6.78971">
        <ele>390</ele>
        <time>2016-01-17T09:45:32.000Z</time>
      </trkpt>
      <trkpt lat="47.46515" lon="6.78966">
        <ele>390</ele>
        <time>2016-01-17T09:45:34.000Z</time>
      </trkpt>
      <trkpt lat="47.46514" lon="6.78963">
        <ele>390</ele>
        <time>2016-01-17T09:45:35.000Z</time>
      </trkpt>
      <trkpt lat="47.46513" lon="6.78959">
        <ele>390</ele>
        <time>2016-01-17T09:45:37.000Z</time>
      </trkpt>
      <trkpt lat="47.46512" lon="6.78957">
        <ele>390</ele>
        <time>2016-01-17T09:45:38.000Z</time>
      </trkpt>
      <trkpt lat="47.4651" lon="6.78954">
        <ele>390</ele>
        <time>2016-01-17T09:45:40.000Z</time>
      </trkpt>
      <trkpt lat="47.46508" lon="6.78952">
        <ele>390</ele>
        <time>2016-01-17T09:45:41.000Z</time>
      </trkpt>
      <trkpt lat="47.46506" lon="6.78949">
        <ele>391</ele>
        <time>2016-01-17T09:45:43.000Z</time>
      </trkpt>
      <trkpt lat="47.46505" lon="6.78946">
        <ele>391</ele>
        <time>2016-01-17T09:45:44.000Z</time>
      </trkpt>
      <trkpt lat="47.46503" lon="6.78942">
        <ele>391</ele>
        <time>2016-01-17T09:45:46.000Z</time>
      </trkpt>
      <trkpt lat="47.46502" lon="6.7894">
        <ele>392</ele>
        <time>2016-01-17T09:45:47.000Z</time>
      </trkpt>
      <trkpt lat="47.46499" lon="6.78936">
        <ele>397</ele>
        <time>2016-01-17T09:45:50.000Z</time>
      </trkpt>
      <trkpt lat="47.46498" lon="6.78934">
        <ele>397</ele>
        <time>2016-01-17T09:45:51.000Z</time>
      </trkpt>
      <trkpt lat="47.46496" lon="6.7893">
        <ele>397</ele>
        <time>2016-01-17T09:45:54.000Z</time>
      </trkpt>
      <trkpt lat="47.46495" lon="6.78928">
        <ele>397</ele>
        <time>2016-01-17T09:45:55.000Z</time>
      </trkpt>
      <trkpt lat="47.46494" lon="6.78922">
        <ele>397</ele>
        <time>2016-01-17T09:45:58.000Z</time>
      </trkpt>
      <trkpt lat="47.46493" lon="6.7892">
        <ele>397</ele>
        <time>2016-01-17T09:45:59.000Z</time>
      </trkpt>
      <trkpt lat="47.46492" lon="6.78914">
        <ele>398</ele>
        <time>2016-01-17T09:46:02.000Z</time>
      </trkpt>
      <trkpt lat="47.46491" lon="6.78913">
        <ele>399</ele>
        <time>2016-01-17T09:46:03.000Z</time>
      </trkpt>
      <trkpt lat="47.46487" lon="6.78911">
        <ele>400</ele>
        <time>2016-01-17T09:46:09.000Z</time>
      </trkpt>
      <trkpt lat="47.46486" lon="6.78911">
        <ele>400</ele>
        <time>2016-01-17T09:46:10.000Z</time>
      </trkpt>
      <trkpt lat="47.46482" lon="6.78908">
        <ele>400</ele>
        <time>2016-01-17T09:46:16.000Z</time>
      </trkpt>
      <trkpt lat="47.46482" lon="6.78907">
        <ele>401</ele>
        <time>2016-01-17T09:46:17.000Z</time>
      </trkpt>
      <trkpt lat="47.46479" lon="6.78903">
        <ele>401</ele>
        <time>2016-01-17T09:46:21.000Z</time>
      </trkpt>
      <trkpt lat="47.46478" lon="6.78902">
        <ele>401</ele>
        <time>2016-01-17T09:46:22.000Z</time>
      </trkpt>
      <trkpt lat="47.46478" lon="6.78896">
        <ele>402</ele>
        <time>2016-01-17T09:46:25.000Z</time>
      </trkpt>
      <trkpt lat="47.46478" lon="6.78895">
        <ele>402</ele>
        <time>2016-01-17T09:46:26.000Z</time>
      </trkpt>
      <trkpt lat="47.46478" lon="6.78889">
        <ele>402</ele>
        <time>2016-01-17T09:46:29.000Z</time>
      </trkpt>
      <trkpt lat="47.46478" lon="6.78887">
        <ele>402</ele>
        <time>2016-01-17T09:46:30.000Z</time>
      </trkpt>
      <trkpt lat="47.46476" lon="6.78882">
        <ele>402</ele>
        <time>2016-01-17T09:46:33.000Z</time>
      </trkpt>
      <trkpt lat="47.46475" lon="6.7888">
        <ele>403</ele>
        <time>2016-01-17T09:46:34.000Z</time>
      </trkpt>
      <trkpt lat="47.46473" lon="6.78875">
        <ele>403</ele>
        <time>2016-01-17T09:46:37.000Z</time>
      </trkpt>
      <trkpt lat="47.46473" lon="6.78873">
        <ele>403</ele>
        <time>2016-01-17T09:46:38.000Z</time>
      </trkpt>
      <trkpt lat="47.46471" lon="6.78867">
        <ele>403</ele>
        <time>2016-01-17T09:46:42.000Z</time>
      </trkpt>
      <trkpt lat="47.4647" lon="6.78866">
        <ele>403</ele>
        <time>2016-01-17T09:46:43.000Z</time>
      </trkpt>
      <trkpt lat="47.46467" lon="6.78861">
        <ele>404</ele>
        <time>2016-01-17T09:46:46.000Z</time>
      </trkpt>
      <trkpt lat="47.46466" lon="6.78859">
        <ele>404</ele>
        <time>2016-01-17T09:46:47.000Z</time>
      </trkpt>
      <trkpt lat="47.46465" lon="6.78855">
        <ele>404</ele>
        <time>2016-01-17T09:46:49.000Z</time>
      </trkpt>
      <trkpt lat="47.46464" lon="6.78853">
        <ele>404</ele>
        <time>2016-01-17T09:46:50.000Z</time>
      </trkpt>
      <trkpt lat="47.46462" lon="6.78847">
        <ele>404</ele>
        <time>2016-01-17T09:46:53.000Z</time>
      </trkpt>
      <trkpt lat="47.46462" lon="6.78845">
        <ele>404</ele>
        <time>2016-01-17T09:46:54.000Z</time>
      </trkpt>
      <trkpt lat="47.4646" lon="6.78839">
        <ele>404</ele>
        <time>2016-01-17T09:46:57.000Z</time>
      </trkpt>
      <trkpt lat="47.4646" lon="6.78837">
        <ele>405</ele>
        <time>2016-01-17T09:46:58.000Z</time>
      </trkpt>
      <trkpt lat="47.4646" lon="6.78833">
        <ele>406</ele>
        <time>2016-01-17T09:47:00.000Z</time>
      </trkpt>
      <trkpt lat="47.46459" lon="6.7883">
        <ele>406</ele>
        <time>2016-01-17T09:47:01.000Z</time>
      </trkpt>
      <trkpt lat="47.46459" lon="6.78824">
        <ele>406</ele>
        <time>2016-01-17T09:47:03.000Z</time>
      </trkpt>
      <trkpt lat="47.46459" lon="6.78821">
        <ele>407</ele>
        <time>2016-01-17T09:47:04.000Z</time>
      </trkpt>
      <trkpt lat="47.46458" lon="6.78814">
        <ele>407</ele>
        <time>2016-01-17T09:47:06.000Z</time>
      </trkpt>
      <trkpt lat="47.46457" lon="6.78812">
        <ele>407</ele>
        <time>2016-01-17T09:47:07.000Z</time>
      </trkpt>
      <trkpt lat="47.46455" lon="6.78807">
        <ele>407</ele>
        <time>2016-01-17T09:47:09.000Z</time>
      </trkpt>
      <trkpt lat="47.46454" lon="6.78805">
        <ele>407</ele>
        <time>2016-01-17T09:47:10.000Z</time>
      </trkpt>
      <trkpt lat="47.46452" lon="6.788">
        <ele>407</ele>
        <time>2016-01-17T09:47:13.000Z</time>
      </trkpt>
      <trkpt lat="47.46452" lon="6.78797">
        <ele>407</ele>
        <time>2016-01-17T09:47:14.000Z</time>
      </trkpt>
      <trkpt lat="47.4645" lon="6.78792">
        <ele>407</ele>
        <time>2016-01-17T09:47:16.000Z</time>
      </trkpt>
      <trkpt lat="47.4645" lon="6.78789">
        <ele>407</ele>
        <time>2016-01-17T09:47:17.000Z</time>
      </trkpt>
      <trkpt lat="47.4645" lon="6.78786">
        <ele>408</ele>
        <time>2016-01-17T09:47:18.000Z</time>
      </trkpt>
      <trkpt lat="47.4645" lon="6.78782">
        <ele>408</ele>
        <time>2016-01-17T09:47:19.000Z</time>
      </trkpt>
      <trkpt lat="47.4645" lon="6.78778">
        <ele>408</ele>
        <time>2016-01-17T09:47:20.000Z</time>
      </trkpt>
      <trkpt lat="47.4645" lon="6.78774">
        <ele>408</ele>
        <time>2016-01-17T09:47:21.000Z</time>
      </trkpt>
      <trkpt lat="47.4645" lon="6.7877">
        <ele>408</ele>
        <time>2016-01-17T09:47:22.000Z</time>
      </trkpt>
      <trkpt lat="47.4645" lon="6.78767">
        <ele>408</ele>
        <time>2016-01-17T09:47:23.000Z</time>
      </trkpt>
      <trkpt lat="47.46449" lon="6.78761">
        <ele>408</ele>
        <time>2016-01-17T09:47:25.000Z</time>
      </trkpt>
      <trkpt lat="47.46448" lon="6.78758">
        <ele>408</ele>
        <time>2016-01-17T09:47:26.000Z</time>
      </trkpt>
      <trkpt lat="47.46446" lon="6.78752">
        <ele>409</ele>
        <time>2016-01-17T09:47:28.000Z</time>
      </trkpt>
      <trkpt lat="47.46445" lon="6.78749">
        <ele>410</ele>
        <time>2016-01-17T09:47:29.000Z</time>
      </trkpt>
      <trkpt lat="47.46443" lon="6.78743">
        <ele>410</ele>
        <time>2016-01-17T09:47:31.000Z</time>
      </trkpt>
      <trkpt lat="47.46441" lon="6.78741">
        <ele>410</ele>
        <time>2016-01-17T09:47:32.000Z</time>
      </trkpt>
      <trkpt lat="47.46439" lon="6.78736">
        <ele>410</ele>
        <time>2016-01-17T09:47:34.000Z</time>
      </trkpt>
      <trkpt lat="47.46437" lon="6.78734">
        <ele>411</ele>
        <time>2016-01-17T09:47:35.000Z</time>
      </trkpt>
      <trkpt lat="47.46434" lon="6.7873">
        <ele>411</ele>
        <time>2016-01-17T09:47:37.000Z</time>
      </trkpt>
      <trkpt lat="47.46433" lon="6.78727">
        <ele>411</ele>
        <time>2016-01-17T09:47:38.000Z</time>
      </trkpt>
      <trkpt lat="47.46432" lon="6.78724">
        <ele>411</ele>
        <time>2016-01-17T09:47:39.000Z</time>
      </trkpt>
      <trkpt lat="47.46431" lon="6.78721">
        <ele>411</ele>
        <time>2016-01-17T09:47:40.000Z</time>
      </trkpt>
      <trkpt lat="47.46429" lon="6.78716">
        <ele>411</ele>
        <time>2016-01-17T09:47:42.000Z</time>
      </trkpt>
      <trkpt lat="47.46429" lon="6.78714">
        <ele>411</ele>
        <time>2016-01-17T09:47:43.000Z</time>
      </trkpt>
      <trkpt lat="47.46428" lon="6.78709">
        <ele>411</ele>
        <time>2016-01-17T09:47:45.000Z</time>
      </trkpt>
      <trkpt lat="47.46427" lon="6.78706">
        <ele>411</ele>
        <time>2016-01-17T09:47:46.000Z</time>
      </trkpt>
      <trkpt lat="47.46427" lon="6.78701">
        <ele>411</ele>
        <time>2016-01-17T09:47:48.000Z</time>
      </trkpt>
      <trkpt lat="47.46427" lon="6.78698">
        <ele>411</ele>
        <time>2016-01-17T09:47:49.000Z</time>
      </trkpt>
      <trkpt lat="47.46427" lon="6.78691">
        <ele>411</ele>
        <time>2016-01-17T09:47:51.000Z</time>
      </trkpt>
      <trkpt lat="47.46427" lon="6.78687">
        <ele>411</ele>
        <time>2016-01-17T09:47:52.000Z</time>
      </trkpt>
      <trkpt lat="47.46426" lon="6.78684">
        <ele>412</ele>
        <time>2016-01-17T09:47:53.000Z</time>
      </trkpt>
      <trkpt lat="47.46426" lon="6.78681">
        <ele>412</ele>
        <time>2016-01-17T09:47:54.000Z</time>
      </trkpt>
      <trkpt lat="47.46425" lon="6.78677">
        <ele>412</ele>
        <time>2016-01-17T09:47:55.000Z</time>
      </trkpt>
      <trkpt lat="47.46424" lon="6.78674">
        <ele>413</ele>
        <time>2016-01-17T09:47:56.000Z</time>
      </trkpt>
      <trkpt lat="47.46424" lon="6.7867">
        <ele>413</ele>
        <time>2016-01-17T09:47:57.000Z</time>
      </trkpt>
      <trkpt lat="47.46423" lon="6.78667">
        <ele>414</ele>
        <time>2016-01-17T09:47:58.000Z</time>
      </trkpt>
      <trkpt lat="47.46421" lon="6.78661">
        <ele>413</ele>
        <time>2016-01-17T09:48:00.000Z</time>
      </trkpt>
      <trkpt lat="47.4642" lon="6.78659">
        <ele>413</ele>
        <time>2016-01-17T09:48:01.000Z</time>
      </trkpt>
      <trkpt lat="47.46419" lon="6.78654">
        <ele>413</ele>
        <time>2016-01-17T09:48:03.000Z</time>
      </trkpt>
      <trkpt lat="47.46418" lon="6.78652">
        <ele>412</ele>
        <time>2016-01-17T09:48:04.000Z</time>
      </trkpt>
      <trkpt lat="47.46416" lon="6.78648">
        <ele>413</ele>
        <time>2016-01-17T09:48:06.000Z</time>
      </trkpt>
      <trkpt lat="47.46415" lon="6.78646">
        <ele>413</ele>
        <time>2016-01-17T09:48:07.000Z</time>
      </trkpt>
      <trkpt lat="47.46414" lon="6.78642">
        <ele>413</ele>
        <time>2016-01-17T09:48:09.000Z</time>
      </trkpt>
      <trkpt lat="47.46413" lon="6.78639">
        <ele>413</ele>
        <time>2016-01-17T09:48:10.000Z</time>
      </trkpt>
      <trkpt lat="47.46411" lon="6.78634">
        <ele>413</ele>
        <time>2016-01-17T09:48:12.000Z</time>
      </trkpt>
      <trkpt lat="47.4641" lon="6.78631">
        <ele>413</ele>
        <time>2016-01-17T09:48:13.000Z</time>
      </trkpt>
      <trkpt lat="47.46409" lon="6.78628">
        <ele>412</ele>
        <time>2016-01-17T09:48:14.000Z</time>
      </trkpt>
      <trkpt lat="47.46409" lon="6.78623">
        <ele>412</ele>
        <time>2016-01-17T09:48:15.000Z</time>
      </trkpt>
      <trkpt lat="47.46408" lon="6.78619">
        <ele>412</ele>
        <time>2016-01-17T09:48:16.000Z</time>
      </trkpt>
      <trkpt lat="47.46407" lon="6.78615">
        <ele>412</ele>
        <time>2016-01-17T09:48:17.000Z</time>
      </trkpt>
      <trkpt lat="47.46406" lon="6.7861">
        <ele>412</ele>
        <time>2016-01-17T09:48:18.000Z</time>
      </trkpt>
      <trkpt lat="47.46405" lon="6.78606">
        <ele>412</ele>
        <time>2016-01-17T09:48:19.000Z</time>
      </trkpt>
      <trkpt lat="47.46404" lon="6.78602">
        <ele>412</ele>
        <time>2016-01-17T09:48:20.000Z</time>
      </trkpt>
      <trkpt lat="47.46403" lon="6.78598">
        <ele>412</ele>
        <time>2016-01-17T09:48:21.000Z</time>
      </trkpt>
      <trkpt lat="47.46402" lon="6.78594">
        <ele>412</ele>
        <time>2016-01-17T09:48:22.000Z</time>
      </trkpt>
      <trkpt lat="47.46401" lon="6.7859">
        <ele>412</ele>
        <time>2016-01-17T09:48:23.000Z</time>
      </trkpt>
      <trkpt lat="47.464" lon="6.78586">
        <ele>412</ele>
        <time>2016-01-17T09:48:24.000Z</time>
      </trkpt>
      <trkpt lat="47.46399" lon="6.78582">
        <ele>411</ele>
        <time>2016-01-17T09:48:25.000Z</time>
      </trkpt>
      <trkpt lat="47.46398" lon="6.78578">
        <ele>410</ele>
        <time>2016-01-17T09:48:26.000Z</time>
      </trkpt>
      <trkpt lat="47.46396" lon="6.78573">
        <ele>410</ele>
        <time>2016-01-17T09:48:27.000Z</time>
      </trkpt>
      <trkpt lat="47.46395" lon="6.78568">
        <ele>410</ele>
        <time>2016-01-17T09:48:28.000Z</time>
      </trkpt>
      <trkpt lat="47.46393" lon="6.78564">
        <ele>410</ele>
        <time>2016-01-17T09:48:29.000Z</time>
      </trkpt>
      <trkpt lat="47.46393" lon="6.78558">
        <ele>409</ele>
        <time>2016-01-17T09:48:30.000Z</time>
      </trkpt>
      <trkpt lat="47.46392" lon="6.78552">
        <ele>409</ele>
        <time>2016-01-17T09:48:31.000Z</time>
      </trkpt>
      <trkpt lat="47.46392" lon="6.78542">
        <ele>409</ele>
        <time>2016-01-17T09:48:32.000Z</time>
      </trkpt>
      <trkpt lat="47.46392" lon="6.78534">
        <ele>409</ele>
        <time>2016-01-17T09:48:33.000Z</time>
      </trkpt>
      <trkpt lat="47.46392" lon="6.78526">
        <ele>408</ele>
        <time>2016-01-17T09:48:34.000Z</time>
      </trkpt>
      <trkpt lat="47.46391" lon="6.78518">
        <ele>408</ele>
        <time>2016-01-17T09:48:35.000Z</time>
      </trkpt>
      <trkpt lat="47.46391" lon="6.78512">
        <ele>408</ele>
        <time>2016-01-17T09:48:36.000Z</time>
      </trkpt>
      <trkpt lat="47.46392" lon="6.78504">
        <ele>408</ele>
        <time>2016-01-17T09:48:37.000Z</time>
      </trkpt>
      <trkpt lat="47.46392" lon="6.78498">
        <ele>405</ele>
        <time>2016-01-17T09:48:38.000Z</time>
      </trkpt>
      <trkpt lat="47.46392" lon="6.78491">
        <ele>405</ele>
        <time>2016-01-17T09:48:39.000Z</time>
      </trkpt>
      <trkpt lat="47.46392" lon="6.78482">
        <ele>405</ele>
        <time>2016-01-17T09:48:40.000Z</time>
      </trkpt>
      <trkpt lat="47.46392" lon="6.78475">
        <ele>404</ele>
        <time>2016-01-17T09:48:41.000Z</time>
      </trkpt>
      <trkpt lat="47.46391" lon="6.78468">
        <ele>404</ele>
        <time>2016-01-17T09:48:42.000Z</time>
      </trkpt>
      <trkpt lat="47.4639" lon="6.7846">
        <ele>404</ele>
        <time>2016-01-17T09:48:43.000Z</time>
      </trkpt>
      <trkpt lat="47.46388" lon="6.78454">
        <ele>403</ele>
        <time>2016-01-17T09:48:44.000Z</time>
      </trkpt>
      <trkpt lat="47.46387" lon="6.78448">
        <ele>403</ele>
        <time>2016-01-17T09:48:45.000Z</time>
      </trkpt>
      <trkpt lat="47.46385" lon="6.78442">
        <ele>403</ele>
        <time>2016-01-17T09:48:46.000Z</time>
      </trkpt>
      <trkpt lat="47.46383" lon="6.78436">
        <ele>403</ele>
        <time>2016-01-17T09:48:47.000Z</time>
      </trkpt>
      <trkpt lat="47.46381" lon="6.78432">
        <ele>403</ele>
        <time>2016-01-17T09:48:48.000Z</time>
      </trkpt>
      <trkpt lat="47.46377" lon="6.78431">
        <ele>402</ele>
        <time>2016-01-17T09:48:56.000Z</time>
      </trkpt>
      <trkpt lat="47.46377" lon="6.7843">
        <ele>402</ele>
        <time>2016-01-17T09:48:57.000Z</time>
      </trkpt>
      <trkpt lat="47.46373" lon="6.7843">
        <ele>402</ele>
        <time>2016-01-17T09:49:28.000Z</time>
      </trkpt>
      <trkpt lat="47.46372" lon="6.7843">
        <ele>402</ele>
        <time>2016-01-17T09:49:29.000Z</time>
      </trkpt>
      <trkpt lat="47.46368" lon="6.78431">
        <ele>402</ele>
        <time>2016-01-17T09:49:31.000Z</time>
      </trkpt>
      <trkpt lat="47.46366" lon="6.78432">
        <ele>402</ele>
        <time>2016-01-17T09:49:32.000Z</time>
      </trkpt>
      <trkpt lat="47.46361" lon="6.78433">
        <ele>402</ele>
        <time>2016-01-17T09:49:34.000Z</time>
      </trkpt>
      <trkpt lat="47.46359" lon="6.78434">
        <ele>402</ele>
        <time>2016-01-17T09:49:35.000Z</time>
      </trkpt>
      <trkpt lat="47.46355" lon="6.78436">
        <ele>402</ele>
        <time>2016-01-17T09:49:37.000Z</time>
      </trkpt>
      <trkpt lat="47.46353" lon="6.78437">
        <ele>402</ele>
        <time>2016-01-17T09:49:38.000Z</time>
      </trkpt>
      <trkpt lat="47.46351" lon="6.78438">
        <ele>402</ele>
        <time>2016-01-17T09:49:39.000Z</time>
      </trkpt>
      <trkpt lat="47.46348" lon="6.7844">
        <ele>402</ele>
        <time>2016-01-17T09:49:40.000Z</time>
      </trkpt>
      <trkpt lat="47.46346" lon="6.78441">
        <ele>402</ele>
        <time>2016-01-17T09:49:41.000Z</time>
      </trkpt>
      <trkpt lat="47.46344" lon="6.78442">
        <ele>402</ele>
        <time>2016-01-17T09:49:42.000Z</time>
      </trkpt>
      <trkpt lat="47.46341" lon="6.78444">
        <ele>402</ele>
        <time>2016-01-17T09:49:43.000Z</time>
      </trkpt>
      <trkpt lat="47.46338" lon="6.78445">
        <ele>402</ele>
        <time>2016-01-17T09:49:44.000Z</time>
      </trkpt>
      <trkpt lat="47.46336" lon="6.78445">
        <ele>402</ele>
        <time>2016-01-17T09:49:45.000Z</time>
      </trkpt>
      <trkpt lat="47.46333" lon="6.78446">
        <ele>402</ele>
        <time>2016-01-17T09:49:46.000Z</time>
      </trkpt>
      <trkpt lat="47.46329" lon="6.78447">
        <ele>402</ele>
        <time>2016-01-17T09:49:48.000Z</time>
      </trkpt>
      <trkpt lat="47.46327" lon="6.78447">
        <ele>402</ele>
        <time>2016-01-17T09:49:49.000Z</time>
      </trkpt>
      <trkpt lat="47.46323" lon="6.78448">
        <ele>402</ele>
        <time>2016-01-17T09:49:51.000Z</time>
      </trkpt>
      <trkpt lat="47.46321" lon="6.78448">
        <ele>402</ele>
        <time>2016-01-17T09:49:52.000Z</time>
      </trkpt>
      <trkpt lat="47.46317" lon="6.78449">
        <ele>402</ele>
        <time>2016-01-17T09:49:54.000Z</time>
      </trkpt>
      <trkpt lat="47.46315" lon="6.7845">
        <ele>402</ele>
        <time>2016-01-17T09:49:55.000Z</time>
      </trkpt>
      <trkpt lat="47.46312" lon="6.78451">
        <ele>402</ele>
        <time>2016-01-17T09:49:56.000Z</time>
      </trkpt>
      <trkpt lat="47.4631" lon="6.78452">
        <ele>402</ele>
        <time>2016-01-17T09:49:57.000Z</time>
      </trkpt>
      <trkpt lat="47.46308" lon="6.78453">
        <ele>402</ele>
        <time>2016-01-17T09:49:58.000Z</time>
      </trkpt>
      <trkpt lat="47.46305" lon="6.78454">
        <ele>402</ele>
        <time>2016-01-17T09:49:59.000Z</time>
      </trkpt>
      <trkpt lat="47.46303" lon="6.78455">
        <ele>402</ele>
        <time>2016-01-17T09:50:00.000Z</time>
      </trkpt>
      <trkpt lat="47.463" lon="6.78455">
        <ele>402</ele>
        <time>2016-01-17T09:50:01.000Z</time>
      </trkpt>
      <trkpt lat="47.46297" lon="6.78456">
        <ele>402</ele>
        <time>2016-01-17T09:50:02.000Z</time>
      </trkpt>
      <trkpt lat="47.46294" lon="6.78457">
        <ele>402</ele>
        <time>2016-01-17T09:50:03.000Z</time>
      </trkpt>
      <trkpt lat="47.46291" lon="6.78459">
        <ele>403</ele>
        <time>2016-01-17T09:50:04.000Z</time>
      </trkpt>
      <trkpt lat="47.46288" lon="6.7846">
        <ele>403</ele>
        <time>2016-01-17T09:50:05.000Z</time>
      </trkpt>
      <trkpt lat="47.46285" lon="6.78461">
        <ele>403</ele>
        <time>2016-01-17T09:50:06.000Z</time>
      </trkpt>
      <trkpt lat="47.46282" lon="6.78462">
        <ele>403</ele>
        <time>2016-01-17T09:50:07.000Z</time>
      </trkpt>
      <trkpt lat="47.4628" lon="6.78463">
        <ele>403</ele>
        <time>2016-01-17T09:50:08.000Z</time>
      </trkpt>
      <trkpt lat="47.46278" lon="6.78464">
        <ele>403</ele>
        <time>2016-01-17T09:50:09.000Z</time>
      </trkpt>
      <trkpt lat="47.46274" lon="6.78465">
        <ele>403</ele>
        <time>2016-01-17T09:50:11.000Z</time>
      </trkpt>
      <trkpt lat="47.46272" lon="6.78466">
        <ele>403</ele>
        <time>2016-01-17T09:50:12.000Z</time>
      </trkpt>
      <trkpt lat="47.46268" lon="6.78468">
        <ele>403</ele>
        <time>2016-01-17T09:50:14.000Z</time>
      </trkpt>
      <trkpt lat="47.46266" lon="6.78469">
        <ele>403</ele>
        <time>2016-01-17T09:50:15.000Z</time>
      </trkpt>
      <trkpt lat="47.46263" lon="6.78472">
        <ele>403</ele>
        <time>2016-01-17T09:50:17.000Z</time>
      </trkpt>
      <trkpt lat="47.46261" lon="6.78473">
        <ele>403</ele>
        <time>2016-01-17T09:50:18.000Z</time>
      </trkpt>
      <trkpt lat="47.46257" lon="6.78475">
        <ele>403</ele>
        <time>2016-01-17T09:50:20.000Z</time>
      </trkpt>
      <trkpt lat="47.46255" lon="6.78476">
        <ele>403</ele>
        <time>2016-01-17T09:50:21.000Z</time>
      </trkpt>
      <trkpt lat="47.46251" lon="6.78477">
        <ele>403</ele>
        <time>2016-01-17T09:50:23.000Z</time>
      </trkpt>
      <trkpt lat="47.46249" lon="6.78478">
        <ele>405</ele>
        <time>2016-01-17T09:50:24.000Z</time>
      </trkpt>
      <trkpt lat="47.46246" lon="6.7848">
        <ele>405</ele>
        <time>2016-01-17T09:50:27.000Z</time>
      </trkpt>
      <trkpt lat="47.46245" lon="6.78481">
        <ele>405</ele>
        <time>2016-01-17T09:50:28.000Z</time>
      </trkpt>
      <trkpt lat="47.46242" lon="6.78481">
        <ele>405</ele>
        <time>2016-01-17T09:50:30.000Z</time>
      </trkpt>
      <trkpt lat="47.4624" lon="6.78481">
        <ele>405</ele>
        <time>2016-01-17T09:50:31.000Z</time>
      </trkpt>
      <trkpt lat="47.46239" lon="6.78482">
        <ele>405</ele>
        <time>2016-01-17T09:50:32.000Z</time>
      </trkpt>
      <trkpt lat="47.46236" lon="6.78482">
        <ele>405</ele>
        <time>2016-01-17T09:50:34.000Z</time>
      </trkpt>
      <trkpt lat="47.46233" lon="6.78483">
        <ele>405</ele>
        <time>2016-01-17T09:50:36.000Z</time>
      </trkpt>
      <trkpt lat="47.46231" lon="6.78484">
        <ele>406</ele>
        <time>2016-01-17T09:50:37.000Z</time>
      </trkpt>
      <trkpt lat="47.46228" lon="6.78486">
        <ele>406</ele>
        <time>2016-01-17T09:50:38.000Z</time>
      </trkpt>
      <trkpt lat="47.46226" lon="6.78487">
        <ele>406</ele>
        <time>2016-01-17T09:50:39.000Z</time>
      </trkpt>
      <trkpt lat="47.46223" lon="6.78488">
        <ele>406</ele>
        <time>2016-01-17T09:50:40.000Z</time>
      </trkpt>
      <trkpt lat="47.46221" lon="6.78489">
        <ele>406</ele>
        <time>2016-01-17T09:50:41.000Z</time>
      </trkpt>
      <trkpt lat="47.46217" lon="6.78492">
        <ele>406</ele>
        <time>2016-01-17T09:50:43.000Z</time>
      </trkpt>
      <trkpt lat="47.46215" lon="6.78494">
        <ele>406</ele>
        <time>2016-01-17T09:50:44.000Z</time>
      </trkpt>
      <trkpt lat="47.46211" lon="6.78497">
        <ele>406</ele>
        <time>2016-01-17T09:50:46.000Z</time>
      </trkpt>
      <trkpt lat="47.46209" lon="6.78498">
        <ele>407</ele>
        <time>2016-01-17T09:50:47.000Z</time>
      </trkpt>
      <trkpt lat="47.46205" lon="6.785">
        <ele>406</ele>
        <time>2016-01-17T09:50:49.000Z</time>
      </trkpt>
      <trkpt lat="47.46203" lon="6.78501">
        <ele>406</ele>
        <time>2016-01-17T09:50:50.000Z</time>
      </trkpt>
      <trkpt lat="47.46199" lon="6.78502">
        <ele>406</ele>
        <time>2016-01-17T09:50:52.000Z</time>
      </trkpt>
      <trkpt lat="47.46197" lon="6.78503">
        <ele>406</ele>
        <time>2016-01-17T09:50:53.000Z</time>
      </trkpt>
      <trkpt lat="47.46193" lon="6.78504">
        <ele>407</ele>
        <time>2016-01-17T09:50:55.000Z</time>
      </trkpt>
      <trkpt lat="47.46192" lon="6.78505">
        <ele>407</ele>
        <time>2016-01-17T09:50:56.000Z</time>
      </trkpt>
      <trkpt lat="47.46188" lon="6.78506">
        <ele>407</ele>
        <time>2016-01-17T09:50:58.000Z</time>
      </trkpt>
      <trkpt lat="47.46186" lon="6.78507">
        <ele>407</ele>
        <time>2016-01-17T09:50:59.000Z</time>
      </trkpt>
      <trkpt lat="47.46184" lon="6.78507">
        <ele>407</ele>
        <time>2016-01-17T09:51:00.000Z</time>
      </trkpt>
      <trkpt lat="47.46181" lon="6.78508">
        <ele>407</ele>
        <time>2016-01-17T09:51:01.000Z</time>
      </trkpt>
      <trkpt lat="47.46177" lon="6.78509">
        <ele>408</ele>
        <time>2016-01-17T09:51:03.000Z</time>
      </trkpt>
      <trkpt lat="47.46174" lon="6.7851">
        <ele>408</ele>
        <time>2016-01-17T09:51:04.000Z</time>
      </trkpt>
      <trkpt lat="47.46172" lon="6.7851">
        <ele>408</ele>
        <time>2016-01-17T09:51:05.000Z</time>
      </trkpt>
      <trkpt lat="47.4617" lon="6.78511">
        <ele>408</ele>
        <time>2016-01-17T09:51:06.000Z</time>
      </trkpt>
      <trkpt lat="47.46167" lon="6.78512">
        <ele>408</ele>
        <time>2016-01-17T09:51:07.000Z</time>
      </trkpt>
      <trkpt lat="47.46165" lon="6.78513">
        <ele>408</ele>
        <time>2016-01-17T09:51:08.000Z</time>
      </trkpt>
      <trkpt lat="47.46162" lon="6.78515">
        <ele>408</ele>
        <time>2016-01-17T09:51:09.000Z</time>
      </trkpt>
      <trkpt lat="47.4616" lon="6.78516">
        <ele>408</ele>
        <time>2016-01-17T09:51:10.000Z</time>
      </trkpt>
      <trkpt lat="47.46158" lon="6.78517">
        <ele>408</ele>
        <time>2016-01-17T09:51:11.000Z</time>
      </trkpt>
      <trkpt lat="47.46156" lon="6.78518">
        <ele>408</ele>
        <time>2016-01-17T09:51:12.000Z</time>
      </trkpt>
      <trkpt lat="47.46153" lon="6.78519">
        <ele>408</ele>
        <time>2016-01-17T09:51:13.000Z</time>
      </trkpt>
      <trkpt lat="47.46151" lon="6.7852">
        <ele>408</ele>
        <time>2016-01-17T09:51:14.000Z</time>
      </trkpt>
      <trkpt lat="47.46148" lon="6.78522">
        <ele>408</ele>
        <time>2016-01-17T09:51:15.000Z</time>
      </trkpt>
      <trkpt lat="47.46145" lon="6.78522">
        <ele>408</ele>
        <time>2016-01-17T09:51:16.000Z</time>
      </trkpt>
      <trkpt lat="47.46142" lon="6.78523">
        <ele>408</ele>
        <time>2016-01-17T09:51:17.000Z</time>
      </trkpt>
      <trkpt lat="47.4614" lon="6.78524">
        <ele>408</ele>
        <time>2016-01-17T09:51:18.000Z</time>
      </trkpt>
      <trkpt lat="47.46138" lon="6.78525">
        <ele>408</ele>
        <time>2016-01-17T09:51:19.000Z</time>
      </trkpt>
      <trkpt lat="47.46135" lon="6.78526">
        <ele>408</ele>
        <time>2016-01-17T09:51:20.000Z</time>
      </trkpt>
      <trkpt lat="47.46133" lon="6.78527">
        <ele>408</ele>
        <time>2016-01-17T09:51:21.000Z</time>
      </trkpt>
      <trkpt lat="47.46131" lon="6.78528">
        <ele>408</ele>
        <time>2016-01-17T09:51:22.000Z</time>
      </trkpt>
      <trkpt lat="47.46129" lon="6.78529">
        <ele>408</ele>
        <time>2016-01-17T09:51:23.000Z</time>
      </trkpt>
      <trkpt lat="47.46126" lon="6.7853">
        <ele>408</ele>
        <time>2016-01-17T09:51:24.000Z</time>
      </trkpt>
      <trkpt lat="47.46124" lon="6.78531">
        <ele>408</ele>
        <time>2016-01-17T09:51:25.000Z</time>
      </trkpt>
      <trkpt lat="47.46122" lon="6.78532">
        <ele>408</ele>
        <time>2016-01-17T09:51:26.000Z</time>
      </trkpt>
      <trkpt lat="47.4612" lon="6.78533">
        <ele>408</ele>
        <time>2016-01-17T09:51:27.000Z</time>
      </trkpt>
      <trkpt lat="47.46117" lon="6.78534">
        <ele>408</ele>
        <time>2016-01-17T09:51:28.000Z</time>
      </trkpt>
      <trkpt lat="47.46115" lon="6.78536">
        <ele>408</ele>
        <time>2016-01-17T09:51:29.000Z</time>
      </trkpt>
      <trkpt lat="47.46113" lon="6.78537">
        <ele>408</ele>
        <time>2016-01-17T09:51:30.000Z</time>
      </trkpt>
      <trkpt lat="47.46108" lon="6.78539">
        <ele>408</ele>
        <time>2016-01-17T09:51:32.000Z</time>
      </trkpt>
      <trkpt lat="47.46106" lon="6.78539">
        <ele>408</ele>
        <time>2016-01-17T09:51:33.000Z</time>
      </trkpt>
      <trkpt lat="47.46104" lon="6.7854">
        <ele>408</ele>
        <time>2016-01-17T09:51:34.000Z</time>
      </trkpt>
      <trkpt lat="47.46101" lon="6.7854">
        <ele>408</ele>
        <time>2016-01-17T09:51:35.000Z</time>
      </trkpt>
      <trkpt lat="47.46098" lon="6.7854">
        <ele>408</ele>
        <time>2016-01-17T09:51:36.000Z</time>
      </trkpt>
      <trkpt lat="47.46096" lon="6.7854">
        <ele>408</ele>
        <time>2016-01-17T09:51:37.000Z</time>
      </trkpt>
      <trkpt lat="47.46093" lon="6.78539">
        <ele>408</ele>
        <time>2016-01-17T09:51:38.000Z</time>
      </trkpt>
      <trkpt lat="47.46091" lon="6.78537">
        <ele>408</ele>
        <time>2016-01-17T09:51:39.000Z</time>
      </trkpt>
      <trkpt lat="47.46089" lon="6.78535">
        <ele>408</ele>
        <time>2016-01-17T09:51:40.000Z</time>
      </trkpt>
      <trkpt lat="47.46087" lon="6.78533">
        <ele>408</ele>
        <time>2016-01-17T09:51:41.000Z</time>
      </trkpt>
      <trkpt lat="47.46084" lon="6.7853">
        <ele>408</ele>
        <time>2016-01-17T09:51:42.000Z</time>
      </trkpt>
      <trkpt lat="47.46082" lon="6.78527">
        <ele>406</ele>
        <time>2016-01-17T09:51:43.000Z</time>
      </trkpt>
      <trkpt lat="47.46079" lon="6.78524">
        <ele>406</ele>
        <time>2016-01-17T09:51:44.000Z</time>
      </trkpt>
      <trkpt lat="47.46077" lon="6.78521">
        <ele>406</ele>
        <time>2016-01-17T09:51:45.000Z</time>
      </trkpt>
      <trkpt lat="47.46074" lon="6.78518">
        <ele>406</ele>
        <time>2016-01-17T09:51:46.000Z</time>
      </trkpt>
      <trkpt lat="47.46071" lon="6.78515">
        <ele>407</ele>
        <time>2016-01-17T09:51:47.000Z</time>
      </trkpt>
      <trkpt lat="47.46069" lon="6.78512">
        <ele>407</ele>
        <time>2016-01-17T09:51:48.000Z</time>
      </trkpt>
      <trkpt lat="47.46066" lon="6.78509">
        <ele>406</ele>
        <time>2016-01-17T09:51:49.000Z</time>
      </trkpt>
      <trkpt lat="47.46063" lon="6.78507">
        <ele>406</ele>
        <time>2016-01-17T09:51:50.000Z</time>
      </trkpt>
      <trkpt lat="47.4606" lon="6.78505">
        <ele>406</ele>
        <time>2016-01-17T09:51:51.000Z</time>
      </trkpt>
      <trkpt lat="47.46057" lon="6.78504">
        <ele>405</ele>
        <time>2016-01-17T09:51:52.000Z</time>
      </trkpt>
      <trkpt lat="47.46053" lon="6.78503">
        <ele>405</ele>
        <time>2016-01-17T09:51:53.000Z</time>
      </trkpt>
      <trkpt lat="47.46049" lon="6.78503">
        <ele>404</ele>
        <time>2016-01-17T09:51:54.000Z</time>
      </trkpt>
      <trkpt lat="47.46045" lon="6.78503">
        <ele>404</ele>
        <time>2016-01-17T09:51:55.000Z</time>
      </trkpt>
      <trkpt lat="47.46042" lon="6.78503">
        <ele>404</ele>
        <time>2016-01-17T09:51:56.000Z</time>
      </trkpt>
      <trkpt lat="47.46039" lon="6.78502">
        <ele>404</ele>
        <time>2016-01-17T09:51:57.000Z</time>
      </trkpt>
      <trkpt lat="47.46035" lon="6.78501">
        <ele>403</ele>
        <time>2016-01-17T09:51:58.000Z</time>
      </trkpt>
      <trkpt lat="47.46032" lon="6.785">
        <ele>403</ele>
        <time>2016-01-17T09:51:59.000Z</time>
      </trkpt>
      <trkpt lat="47.46029" lon="6.78499">
        <ele>405</ele>
        <time>2016-01-17T09:52:00.000Z</time>
      </trkpt>
      <trkpt lat="47.46026" lon="6.78497">
        <ele>404</ele>
        <time>2016-01-17T09:52:01.000Z</time>
      </trkpt>
      <trkpt lat="47.46023" lon="6.78496">
        <ele>404</ele>
        <time>2016-01-17T09:52:02.000Z</time>
      </trkpt>
      <trkpt lat="47.4602" lon="6.78494">
        <ele>404</ele>
        <time>2016-01-17T09:52:03.000Z</time>
      </trkpt>
      <trkpt lat="47.46017" lon="6.78493">
        <ele>403</ele>
        <time>2016-01-17T09:52:04.000Z</time>
      </trkpt>
      <trkpt lat="47.46014" lon="6.78492">
        <ele>403</ele>
        <time>2016-01-17T09:52:05.000Z</time>
      </trkpt>
      <trkpt lat="47.46011" lon="6.78492">
        <ele>403</ele>
        <time>2016-01-17T09:52:06.000Z</time>
      </trkpt>
      <trkpt lat="47.46008" lon="6.78491">
        <ele>402</ele>
        <time>2016-01-17T09:52:07.000Z</time>
      </trkpt>
      <trkpt lat="47.46004" lon="6.78491">
        <ele>402</ele>
        <time>2016-01-17T09:52:08.000Z</time>
      </trkpt>
      <trkpt lat="47.46" lon="6.78489">
        <ele>398</ele>
        <time>2016-01-17T09:52:09.000Z</time>
      </trkpt>
      <trkpt lat="47.45996" lon="6.78487">
        <ele>397</ele>
        <time>2016-01-17T09:52:10.000Z</time>
      </trkpt>
      <trkpt lat="47.45993" lon="6.78484">
        <ele>396</ele>
        <time>2016-01-17T09:52:11.000Z</time>
      </trkpt>
      <trkpt lat="47.45994" lon="6.78479">
        <ele>396</ele>
        <time>2016-01-17T09:52:16.000Z</time>
      </trkpt>
      <trkpt lat="47.45995" lon="6.78478">
        <ele>396</ele>
        <time>2016-01-17T09:52:17.000Z</time>
      </trkpt>
      <trkpt lat="47.45995" lon="6.78471">
        <ele>396</ele>
        <time>2016-01-17T09:52:55.000Z</time>
      </trkpt>
      <trkpt lat="47.45995" lon="6.7847">
        <ele>396</ele>
        <time>2016-01-17T09:52:56.000Z</time>
      </trkpt>
      <trkpt lat="47.45994" lon="6.78464">
        <ele>396</ele>
        <time>2016-01-17T09:52:59.000Z</time>
      </trkpt>
      <trkpt lat="47.45993" lon="6.7846">
        <ele>396</ele>
        <time>2016-01-17T09:53:00.000Z</time>
      </trkpt>
      <trkpt lat="47.45992" lon="6.78456">
        <ele>396</ele>
        <time>2016-01-17T09:53:01.000Z</time>
      </trkpt>
      <trkpt lat="47.45991" lon="6.78452">
        <ele>396</ele>
        <time>2016-01-17T09:53:02.000Z</time>
      </trkpt>
      <trkpt lat="47.45989" lon="6.78447">
        <ele>396</ele>
        <time>2016-01-17T09:53:03.000Z</time>
      </trkpt>
      <trkpt lat="47.45989" lon="6.78443">
        <ele>396</ele>
        <time>2016-01-17T09:53:04.000Z</time>
      </trkpt>
      <trkpt lat="47.45988" lon="6.7844">
        <ele>396</ele>
        <time>2016-01-17T09:53:05.000Z</time>
      </trkpt>
      <trkpt lat="47.45988" lon="6.78436">
        <ele>397</ele>
        <time>2016-01-17T09:53:06.000Z</time>
      </trkpt>
      <trkpt lat="47.45987" lon="6.7843">
        <ele>397</ele>
        <time>2016-01-17T09:53:08.000Z</time>
      </trkpt>
      <trkpt lat="47.45987" lon="6.78426">
        <ele>398</ele>
        <time>2016-01-17T09:53:09.000Z</time>
      </trkpt>
      <trkpt lat="47.45987" lon="6.78423">
        <ele>398</ele>
        <time>2016-01-17T09:53:10.000Z</time>
      </trkpt>
      <trkpt lat="47.45989" lon="6.7842">
        <ele>399</ele>
        <time>2016-01-17T09:53:11.000Z</time>
      </trkpt>
      <trkpt lat="47.45991" lon="6.78417">
        <ele>399</ele>
        <time>2016-01-17T09:53:12.000Z</time>
      </trkpt>
      <trkpt lat="47.45993" lon="6.78416">
        <ele>400</ele>
        <time>2016-01-17T09:53:13.000Z</time>
      </trkpt>
      <trkpt lat="47.45996" lon="6.78414">
        <ele>401</ele>
        <time>2016-01-17T09:53:14.000Z</time>
      </trkpt>
      <trkpt lat="47.45998" lon="6.78412">
        <ele>401</ele>
        <time>2016-01-17T09:53:15.000Z</time>
      </trkpt>
      <trkpt lat="47.46001" lon="6.7841">
        <ele>403</ele>
        <time>2016-01-17T09:53:16.000Z</time>
      </trkpt>
      <trkpt lat="47.46004" lon="6.78409">
        <ele>403</ele>
        <time>2016-01-17T09:53:17.000Z</time>
      </trkpt>
      <trkpt lat="47.46007" lon="6.78408">
        <ele>403</ele>
        <time>2016-01-17T09:53:18.000Z</time>
      </trkpt>
      <trkpt lat="47.4601" lon="6.78407">
        <ele>404</ele>
        <time>2016-01-17T09:53:19.000Z</time>
      </trkpt>
      <trkpt lat="47.46012" lon="6.78405">
        <ele>404</ele>
        <time>2016-01-17T09:53:20.000Z</time>
      </trkpt>
      <trkpt lat="47.46014" lon="6.78404">
        <ele>404</ele>
        <time>2016-01-17T09:53:21.000Z</time>
      </trkpt>
      <trkpt lat="47.46017" lon="6.78401">
        <ele>404</ele>
        <time>2016-01-17T09:53:23.000Z</time>
      </trkpt>
      <trkpt lat="47.46019" lon="6.78399">
        <ele>404</ele>
        <time>2016-01-17T09:53:24.000Z</time>
      </trkpt>
      <trkpt lat="47.46023" lon="6.78395">
        <ele>405</ele>
        <time>2016-01-17T09:53:26.000Z</time>
      </trkpt>
      <trkpt lat="47.46024" lon="6.78393">
        <ele>405</ele>
        <time>2016-01-17T09:53:27.000Z</time>
      </trkpt>
      <trkpt lat="47.46026" lon="6.78391">
        <ele>405</ele>
        <time>2016-01-17T09:53:28.000Z</time>
      </trkpt>
      <trkpt lat="47.46028" lon="6.78388">
        <ele>405</ele>
        <time>2016-01-17T09:53:29.000Z</time>
      </trkpt>
      <trkpt lat="47.46031" lon="6.78383">
        <ele>405</ele>
        <time>2016-01-17T09:53:31.000Z</time>
      </trkpt>
      <trkpt lat="47.46032" lon="6.78381">
        <ele>405</ele>
        <time>2016-01-17T09:53:32.000Z</time>
      </trkpt>
      <trkpt lat="47.46033" lon="6.78375">
        <ele>405</ele>
        <time>2016-01-17T09:53:34.000Z</time>
      </trkpt>
      <trkpt lat="47.46033" lon="6.78372">
        <ele>405</ele>
        <time>2016-01-17T09:53:35.000Z</time>
      </trkpt>
      <trkpt lat="47.46031" lon="6.78369">
        <ele>405</ele>
        <time>2016-01-17T09:53:36.000Z</time>
      </trkpt>
      <trkpt lat="47.46029" lon="6.78367">
        <ele>405</ele>
        <time>2016-01-17T09:53:37.000Z</time>
      </trkpt>
      <trkpt lat="47.46027" lon="6.78366">
        <ele>405</ele>
        <time>2016-01-17T09:53:38.000Z</time>
      </trkpt>
      <trkpt lat="47.46024" lon="6.78366">
        <ele>405</ele>
        <time>2016-01-17T09:53:39.000Z</time>
      </trkpt>
      <trkpt lat="47.46022" lon="6.78366">
        <ele>404</ele>
        <time>2016-01-17T09:53:40.000Z</time>
      </trkpt>
      <trkpt lat="47.46019" lon="6.78366">
        <ele>404</ele>
        <time>2016-01-17T09:53:41.000Z</time>
      </trkpt>
      <trkpt lat="47.46017" lon="6.78367">
        <ele>404</ele>
        <time>2016-01-17T09:53:42.000Z</time>
      </trkpt>
      <trkpt lat="47.46014" lon="6.78368">
        <ele>404</ele>
        <time>2016-01-17T09:53:43.000Z</time>
      </trkpt>
      <trkpt lat="47.46011" lon="6.78369">
        <ele>404</ele>
        <time>2016-01-17T09:53:44.000Z</time>
      </trkpt>
      <trkpt lat="47.46008" lon="6.78369">
        <ele>404</ele>
        <time>2016-01-17T09:53:45.000Z</time>
      </trkpt>
      <trkpt lat="47.46004" lon="6.78368">
        <ele>404</ele>
        <time>2016-01-17T09:53:47.000Z</time>
      </trkpt>
      <trkpt lat="47.46003" lon="6.78367">
        <ele>404</ele>
        <time>2016-01-17T09:53:48.000Z</time>
      </trkpt>
      <trkpt lat="47.46" lon="6.78364">
        <ele>404</ele>
        <time>2016-01-17T09:53:50.000Z</time>
      </trkpt>
      <trkpt lat="47.46" lon="6.78362">
        <ele>398</ele>
        <time>2016-01-17T09:53:51.000Z</time>
      </trkpt>
      <trkpt lat="47.45998" lon="6.78358">
        <ele>398</ele>
        <time>2016-01-17T09:53:53.000Z</time>
      </trkpt>
      <trkpt lat="47.45997" lon="6.78355">
        <ele>398</ele>
        <time>2016-01-17T09:53:54.000Z</time>
      </trkpt>
      <trkpt lat="47.45995" lon="6.7835">
        <ele>398</ele>
        <time>2016-01-17T09:53:56.000Z</time>
      </trkpt>
      <trkpt lat="47.45994" lon="6.78347">
        <ele>398</ele>
        <time>2016-01-17T09:53:57.000Z</time>
      </trkpt>
      <trkpt lat="47.45994" lon="6.78341">
        <ele>399</ele>
        <time>2016-01-17T09:53:59.000Z</time>
      </trkpt>
      <trkpt lat="47.45994" lon="6.78338">
        <ele>399</ele>
        <time>2016-01-17T09:54:00.000Z</time>
      </trkpt>
      <trkpt lat="47.45996" lon="6.78334">
        <ele>400</ele>
        <time>2016-01-17T09:54:02.000Z</time>
      </trkpt>
      <trkpt lat="47.45998" lon="6.78332">
        <ele>401</ele>
        <time>2016-01-17T09:54:03.000Z</time>
      </trkpt>
      <trkpt lat="47.46001" lon="6.78329">
        <ele>402</ele>
        <time>2016-01-17T09:54:05.000Z</time>
      </trkpt>
      <trkpt lat="47.46002" lon="6.78328">
        <ele>402</ele>
        <time>2016-01-17T09:54:06.000Z</time>
      </trkpt>
      <trkpt lat="47.46005" lon="6.78323">
        <ele>404</ele>
        <time>2016-01-17T09:54:09.000Z</time>
      </trkpt>
      <trkpt lat="47.46007" lon="6.78322">
        <ele>404</ele>
        <time>2016-01-17T09:54:10.000Z</time>
      </trkpt>
      <trkpt lat="47.4601" lon="6.7832">
        <ele>404</ele>
        <time>2016-01-17T09:54:12.000Z</time>
      </trkpt>
      <trkpt lat="47.46011" lon="6.78319">
        <ele>405</ele>
        <time>2016-01-17T09:54:13.000Z</time>
      </trkpt>
      <trkpt lat="47.46014" lon="6.78315">
        <ele>405</ele>
        <time>2016-01-17T09:54:16.000Z</time>
      </trkpt>
      <trkpt lat="47.46015" lon="6.78314">
        <ele>405</ele>
        <time>2016-01-17T09:54:17.000Z</time>
      </trkpt>
      <trkpt lat="47.46018" lon="6.7831">
        <ele>406</ele>
        <time>2016-01-17T09:54:20.000Z</time>
      </trkpt>
      <trkpt lat="47.46019" lon="6.78308">
        <ele>406</ele>
        <time>2016-01-17T09:54:21.000Z</time>
      </trkpt>
      <trkpt lat="47.46021" lon="6.78302">
        <ele>407</ele>
        <time>2016-01-17T09:54:24.000Z</time>
      </trkpt>
      <trkpt lat="47.46022" lon="6.78301">
        <ele>407</ele>
        <time>2016-01-17T09:54:25.000Z</time>
      </trkpt>
      <trkpt lat="47.46023" lon="6.78295">
        <ele>407</ele>
        <time>2016-01-17T09:54:28.000Z</time>
      </trkpt>
      <trkpt lat="47.46024" lon="6.78294">
        <ele>407</ele>
        <time>2016-01-17T09:54:29.000Z</time>
      </trkpt>
      <trkpt lat="47.46026" lon="6.78288">
        <ele>408</ele>
        <time>2016-01-17T09:54:34.000Z</time>
      </trkpt>
      <trkpt lat="47.46026" lon="6.78287">
        <ele>408</ele>
        <time>2016-01-17T09:54:35.000Z</time>
      </trkpt>
      <trkpt lat="47.46027" lon="6.78282">
        <ele>408</ele>
        <time>2016-01-17T09:54:38.000Z</time>
      </trkpt>
      <trkpt lat="47.46027" lon="6.7828">
        <ele>408</ele>
        <time>2016-01-17T09:54:39.000Z</time>
      </trkpt>
      <trkpt lat="47.46026" lon="6.78275">
        <ele>408</ele>
        <time>2016-01-17T09:54:41.000Z</time>
      </trkpt>
      <trkpt lat="47.46025" lon="6.78272">
        <ele>408</ele>
        <time>2016-01-17T09:54:42.000Z</time>
      </trkpt>
      <trkpt lat="47.46025" lon="6.78266">
        <ele>408</ele>
        <time>2016-01-17T09:54:44.000Z</time>
      </trkpt>
      <trkpt lat="47.46024" lon="6.78264">
        <ele>408</ele>
        <time>2016-01-17T09:54:45.000Z</time>
      </trkpt>
      <trkpt lat="47.46024" lon="6.78258">
        <ele>408</ele>
        <time>2016-01-17T09:54:48.000Z</time>
      </trkpt>
      <trkpt lat="47.46024" lon="6.78256">
        <ele>408</ele>
        <time>2016-01-17T09:54:49.000Z</time>
      </trkpt>
      <trkpt lat="47.46024" lon="6.7825">
        <ele>412</ele>
        <time>2016-01-17T09:54:52.000Z</time>
      </trkpt>
      <trkpt lat="47.46024" lon="6.78248">
        <ele>412</ele>
        <time>2016-01-17T09:54:53.000Z</time>
      </trkpt>
      <trkpt lat="47.46025" lon="6.78242">
        <ele>412</ele>
        <time>2016-01-17T09:54:57.000Z</time>
      </trkpt>
      <trkpt lat="47.46025" lon="6.78241">
        <ele>412</ele>
        <time>2016-01-17T09:54:58.000Z</time>
      </trkpt>
      <trkpt lat="47.46024" lon="6.78235">
        <ele>412</ele>
        <time>2016-01-17T09:55:01.000Z</time>
      </trkpt>
      <trkpt lat="47.46024" lon="6.78233">
        <ele>412</ele>
        <time>2016-01-17T09:55:02.000Z</time>
      </trkpt>
      <trkpt lat="47.46023" lon="6.78228">
        <ele>412</ele>
        <time>2016-01-17T09:55:04.000Z</time>
      </trkpt>
      <trkpt lat="47.46023" lon="6.78225">
        <ele>413</ele>
        <time>2016-01-17T09:55:05.000Z</time>
      </trkpt>
      <trkpt lat="47.46024" lon="6.7822">
        <ele>413</ele>
        <time>2016-01-17T09:55:08.000Z</time>
      </trkpt>
      <trkpt lat="47.46024" lon="6.78218">
        <ele>413</ele>
        <time>2016-01-17T09:55:09.000Z</time>
      </trkpt>
      <trkpt lat="47.46026" lon="6.78213">
        <ele>413</ele>
        <time>2016-01-17T09:55:11.000Z</time>
      </trkpt>
      <trkpt lat="47.46027" lon="6.7821">
        <ele>413</ele>
        <time>2016-01-17T09:55:12.000Z</time>
      </trkpt>
      <trkpt lat="47.46028" lon="6.78204">
        <ele>414</ele>
        <time>2016-01-17T09:55:14.000Z</time>
      </trkpt>
      <trkpt lat="47.46028" lon="6.78202">
        <ele>414</ele>
        <time>2016-01-17T09:55:15.000Z</time>
      </trkpt>
      <trkpt lat="47.4603" lon="6.78197">
        <ele>414</ele>
        <time>2016-01-17T09:55:18.000Z</time>
      </trkpt>
      <trkpt lat="47.46031" lon="6.78194">
        <ele>414</ele>
        <time>2016-01-17T09:55:19.000Z</time>
      </trkpt>
      <trkpt lat="47.46031" lon="6.78189">
        <ele>414</ele>
        <time>2016-01-17T09:55:21.000Z</time>
      </trkpt>
      <trkpt lat="47.46031" lon="6.78185">
        <ele>414</ele>
        <time>2016-01-17T09:55:22.000Z</time>
      </trkpt>
      <trkpt lat="47.46031" lon="6.7818">
        <ele>414</ele>
        <time>2016-01-17T09:55:24.000Z</time>
      </trkpt>
      <trkpt lat="47.46031" lon="6.78178">
        <ele>414</ele>
        <time>2016-01-17T09:55:25.000Z</time>
      </trkpt>
      <trkpt lat="47.46031" lon="6.78173">
        <ele>414</ele>
        <time>2016-01-17T09:55:27.000Z</time>
      </trkpt>
      <trkpt lat="47.46032" lon="6.78171">
        <ele>414</ele>
        <time>2016-01-17T09:55:28.000Z</time>
      </trkpt>
      <trkpt lat="47.46032" lon="6.78165">
        <ele>417</ele>
        <time>2016-01-17T09:55:31.000Z</time>
      </trkpt>
      <trkpt lat="47.46032" lon="6.78163">
        <ele>417</ele>
        <time>2016-01-17T09:55:32.000Z</time>
      </trkpt>
      <trkpt lat="47.46032" lon="6.78157">
        <ele>418</ele>
        <time>2016-01-17T09:55:34.000Z</time>
      </trkpt>
      <trkpt lat="47.46032" lon="6.78153">
        <ele>418</ele>
        <time>2016-01-17T09:55:35.000Z</time>
      </trkpt>
      <trkpt lat="47.46033" lon="6.78148">
        <ele>418</ele>
        <time>2016-01-17T09:55:37.000Z</time>
      </trkpt>
      <trkpt lat="47.46033" lon="6.78145">
        <ele>418</ele>
        <time>2016-01-17T09:55:38.000Z</time>
      </trkpt>
      <trkpt lat="47.46033" lon="6.7814">
        <ele>418</ele>
        <time>2016-01-17T09:55:40.000Z</time>
      </trkpt>
      <trkpt lat="47.46032" lon="6.78138">
        <ele>418</ele>
        <time>2016-01-17T09:55:41.000Z</time>
      </trkpt>
      <trkpt lat="47.46031" lon="6.78132">
        <ele>418</ele>
        <time>2016-01-17T09:55:43.000Z</time>
      </trkpt>
      <trkpt lat="47.4603" lon="6.7813">
        <ele>418</ele>
        <time>2016-01-17T09:55:44.000Z</time>
      </trkpt>
      <trkpt lat="47.46028" lon="6.78125">
        <ele>419</ele>
        <time>2016-01-17T09:55:46.000Z</time>
      </trkpt>
      <trkpt lat="47.46026" lon="6.78122">
        <ele>419</ele>
        <time>2016-01-17T09:55:47.000Z</time>
      </trkpt>
      <trkpt lat="47.46024" lon="6.7812">
        <ele>419</ele>
        <time>2016-01-17T09:55:48.000Z</time>
      </trkpt>
      <trkpt lat="47.46022" lon="6.78117">
        <ele>419</ele>
        <time>2016-01-17T09:55:49.000Z</time>
      </trkpt>
      <trkpt lat="47.46021" lon="6.78114">
        <ele>419</ele>
        <time>2016-01-17T09:55:50.000Z</time>
      </trkpt>
      <trkpt lat="47.46019" lon="6.78112">
        <ele>419</ele>
        <time>2016-01-17T09:55:51.000Z</time>
      </trkpt>
      <trkpt lat="47.46017" lon="6.78109">
        <ele>419</ele>
        <time>2016-01-17T09:55:52.000Z</time>
      </trkpt>
      <trkpt lat="47.46016" lon="6.78107">
        <ele>419</ele>
        <time>2016-01-17T09:55:53.000Z</time>
      </trkpt>
      <trkpt lat="47.46014" lon="6.78102">
        <ele>419</ele>
        <time>2016-01-17T09:55:55.000Z</time>
      </trkpt>
      <trkpt lat="47.46013" lon="6.78099">
        <ele>419</ele>
        <time>2016-01-17T09:55:56.000Z</time>
      </trkpt>
      <trkpt lat="47.46013" lon="6.78094">
        <ele>419</ele>
        <time>2016-01-17T09:55:58.000Z</time>
      </trkpt>
      <trkpt lat="47.46013" lon="6.78093">
        <ele>419</ele>
        <time>2016-01-17T09:55:59.000Z</time>
      </trkpt>
      <trkpt lat="47.46012" lon="6.78087">
        <ele>419</ele>
        <time>2016-01-17T09:56:02.000Z</time>
      </trkpt>
      <trkpt lat="47.46012" lon="6.78085">
        <ele>419</ele>
        <time>2016-01-17T09:56:03.000Z</time>
      </trkpt>
      <trkpt lat="47.46011" lon="6.78081">
        <ele>420</ele>
        <time>2016-01-17T09:56:05.000Z</time>
      </trkpt>
      <trkpt lat="47.46011" lon="6.78078">
        <ele>420</ele>
        <time>2016-01-17T09:56:06.000Z</time>
      </trkpt>
      <trkpt lat="47.46009" lon="6.78073">
        <ele>421</ele>
        <time>2016-01-17T09:56:08.000Z</time>
      </trkpt>
      <trkpt lat="47.46009" lon="6.7807">
        <ele>421</ele>
        <time>2016-01-17T09:56:09.000Z</time>
      </trkpt>
      <trkpt lat="47.46009" lon="6.78065">
        <ele>421</ele>
        <time>2016-01-17T09:56:11.000Z</time>
      </trkpt>
      <trkpt lat="47.4601" lon="6.78062">
        <ele>421</ele>
        <time>2016-01-17T09:56:12.000Z</time>
      </trkpt>
      <trkpt lat="47.46012" lon="6.78056">
        <ele>422</ele>
        <time>2016-01-17T09:56:14.000Z</time>
      </trkpt>
      <trkpt lat="47.46013" lon="6.78053">
        <ele>422</ele>
        <time>2016-01-17T09:56:15.000Z</time>
      </trkpt>
      <trkpt lat="47.46015" lon="6.78048">
        <ele>422</ele>
        <time>2016-01-17T09:56:17.000Z</time>
      </trkpt>
      <trkpt lat="47.46015" lon="6.78046">
        <ele>422</ele>
        <time>2016-01-17T09:56:18.000Z</time>
      </trkpt>
      <trkpt lat="47.46017" lon="6.7804">
        <ele>422</ele>
        <time>2016-01-17T09:56:20.000Z</time>
      </trkpt>
      <trkpt lat="47.46018" lon="6.78038">
        <ele>422</ele>
        <time>2016-01-17T09:56:21.000Z</time>
      </trkpt>
      <trkpt lat="47.46019" lon="6.78033">
        <ele>422</ele>
        <time>2016-01-17T09:56:23.000Z</time>
      </trkpt>
      <trkpt lat="47.46019" lon="6.78031">
        <ele>422</ele>
        <time>2016-01-17T09:56:24.000Z</time>
      </trkpt>
      <trkpt lat="47.46019" lon="6.78025">
        <ele>422</ele>
        <time>2016-01-17T09:56:27.000Z</time>
      </trkpt>
      <trkpt lat="47.46019" lon="6.78024">
        <ele>422</ele>
        <time>2016-01-17T09:56:28.000Z</time>
      </trkpt>
      <trkpt lat="47.46019" lon="6.78019">
        <ele>422</ele>
        <time>2016-01-17T09:56:31.000Z</time>
      </trkpt>
      <trkpt lat="47.46019" lon="6.78017">
        <ele>422</ele>
        <time>2016-01-17T09:56:32.000Z</time>
      </trkpt>
      <trkpt lat="47.46019" lon="6.7801">
        <ele>422</ele>
        <time>2016-01-17T09:56:36.000Z</time>
      </trkpt>
      <trkpt lat="47.46019" lon="6.78008">
        <ele>422</ele>
        <time>2016-01-17T09:56:37.000Z</time>
      </trkpt>
      <trkpt lat="47.46018" lon="6.78002">
        <ele>422</ele>
        <time>2016-01-17T09:56:40.000Z</time>
      </trkpt>
      <trkpt lat="47.46017" lon="6.78">
        <ele>422</ele>
        <time>2016-01-17T09:56:41.000Z</time>
      </trkpt>
      <trkpt lat="47.46016" lon="6.77996">
        <ele>422</ele>
        <time>2016-01-17T09:56:43.000Z</time>
      </trkpt>
      <trkpt lat="47.46015" lon="6.77994">
        <ele>422</ele>
        <time>2016-01-17T09:56:44.000Z</time>
      </trkpt>
      <trkpt lat="47.46015" lon="6.77989">
        <ele>422</ele>
        <time>2016-01-17T09:56:46.000Z</time>
      </trkpt>
      <trkpt lat="47.46015" lon="6.77987">
        <ele>422</ele>
        <time>2016-01-17T09:56:47.000Z</time>
      </trkpt>
      <trkpt lat="47.46015" lon="6.77982">
        <ele>422</ele>
        <time>2016-01-17T09:56:49.000Z</time>
      </trkpt>
      <trkpt lat="47.46015" lon="6.7798">
        <ele>422</ele>
        <time>2016-01-17T09:56:50.000Z</time>
      </trkpt>
      <trkpt lat="47.46016" lon="6.77974">
        <ele>422</ele>
        <time>2016-01-17T09:56:53.000Z</time>
      </trkpt>
      <trkpt lat="47.46017" lon="6.77972">
        <ele>422</ele>
        <time>2016-01-17T09:56:54.000Z</time>
      </trkpt>
      <trkpt lat="47.46017" lon="6.77967">
        <ele>422</ele>
        <time>2016-01-17T09:56:59.000Z</time>
      </trkpt>
      <trkpt lat="47.46017" lon="6.77965">
        <ele>422</ele>
        <time>2016-01-17T09:57:00.000Z</time>
      </trkpt>
      <trkpt lat="47.46018" lon="6.77959">
        <ele>422</ele>
        <time>2016-01-17T09:57:04.000Z</time>
      </trkpt>
      <trkpt lat="47.46019" lon="6.77957">
        <ele>422</ele>
        <time>2016-01-17T09:57:05.000Z</time>
      </trkpt>
      <trkpt lat="47.46019" lon="6.77951">
        <ele>422</ele>
        <time>2016-01-17T09:57:19.000Z</time>
      </trkpt>
      <trkpt lat="47.46019" lon="6.77951">
        <ele>422</ele>
        <time>2016-01-17T09:57:20.000Z</time>
      </trkpt>
      <trkpt lat="47.46019" lon="6.77945">
        <ele>422</ele>
        <time>2016-01-17T09:57:41.000Z</time>
      </trkpt>
      <trkpt lat="47.46019" lon="6.77944">
        <ele>422</ele>
        <time>2016-01-17T09:57:42.000Z</time>
      </trkpt>
      <trkpt lat="47.46019" lon="6.77937">
        <ele>422</ele>
        <time>2016-01-17T09:57:47.000Z</time>
      </trkpt>
      <trkpt lat="47.46019" lon="6.77936">
        <ele>422</ele>
        <time>2016-01-17T09:57:48.000Z</time>
      </trkpt>
      <trkpt lat="47.46017" lon="6.77931">
        <ele>421</ele>
        <time>2016-01-17T09:57:51.000Z</time>
      </trkpt>
      <trkpt lat="47.46017" lon="6.77929">
        <ele>421</ele>
        <time>2016-01-17T09:57:52.000Z</time>
      </trkpt>
      <trkpt lat="47.46016" lon="6.77923">
        <ele>421</ele>
        <time>2016-01-17T09:57:55.000Z</time>
      </trkpt>
      <trkpt lat="47.46015" lon="6.77921">
        <ele>421</ele>
        <time>2016-01-17T09:57:56.000Z</time>
      </trkpt>
      <trkpt lat="47.46014" lon="6.77916">
        <ele>420</ele>
        <time>2016-01-17T09:57:59.000Z</time>
      </trkpt>
      <trkpt lat="47.46013" lon="6.77914">
        <ele>420</ele>
        <time>2016-01-17T09:58:00.000Z</time>
      </trkpt>
      <trkpt lat="47.46012" lon="6.77908">
        <ele>420</ele>
        <time>2016-01-17T09:58:04.000Z</time>
      </trkpt>
      <trkpt lat="47.46011" lon="6.77907">
        <ele>420</ele>
        <time>2016-01-17T09:58:05.000Z</time>
      </trkpt>
      <trkpt lat="47.46009" lon="6.77901">
        <ele>420</ele>
        <time>2016-01-17T09:58:09.000Z</time>
      </trkpt>
      <trkpt lat="47.46009" lon="6.77899">
        <ele>420</ele>
        <time>2016-01-17T09:58:10.000Z</time>
      </trkpt>
      <trkpt lat="47.46008" lon="6.77893">
        <ele>421</ele>
        <time>2016-01-17T09:58:14.000Z</time>
      </trkpt>
      <trkpt lat="47.46008" lon="6.77891">
        <ele>421</ele>
        <time>2016-01-17T09:58:15.000Z</time>
      </trkpt>
      <trkpt lat="47.46008" lon="6.77886">
        <ele>421</ele>
        <time>2016-01-17T09:58:17.000Z</time>
      </trkpt>
      <trkpt lat="47.46007" lon="6.77884">
        <ele>421</ele>
        <time>2016-01-17T09:58:18.000Z</time>
      </trkpt>
      <trkpt lat="47.46007" lon="6.77879">
        <ele>421</ele>
        <time>2016-01-17T09:58:20.000Z</time>
      </trkpt>
      <trkpt lat="47.46006" lon="6.77876">
        <ele>421</ele>
        <time>2016-01-17T09:58:21.000Z</time>
      </trkpt>
      <trkpt lat="47.46006" lon="6.77872">
        <ele>421</ele>
        <time>2016-01-17T09:58:23.000Z</time>
      </trkpt>
      <trkpt lat="47.46005" lon="6.77869">
        <ele>421</ele>
        <time>2016-01-17T09:58:24.000Z</time>
      </trkpt>
      <trkpt lat="47.46004" lon="6.77865">
        <ele>421</ele>
        <time>2016-01-17T09:58:26.000Z</time>
      </trkpt>
      <trkpt lat="47.46003" lon="6.77863">
        <ele>421</ele>
        <time>2016-01-17T09:58:27.000Z</time>
      </trkpt>
      <trkpt lat="47.46001" lon="6.77858">
        <ele>421</ele>
        <time>2016-01-17T09:58:30.000Z</time>
      </trkpt>
      <trkpt lat="47.46001" lon="6.77856">
        <ele>421</ele>
        <time>2016-01-17T09:58:31.000Z</time>
      </trkpt>
      <trkpt lat="47.46" lon="6.77851">
        <ele>418</ele>
        <time>2016-01-17T09:58:34.000Z</time>
      </trkpt>
      <trkpt lat="47.45999" lon="6.77849">
        <ele>418</ele>
        <time>2016-01-17T09:58:35.000Z</time>
      </trkpt>
      <trkpt lat="47.45999" lon="6.77845">
        <ele>419</ele>
        <time>2016-01-17T09:58:37.000Z</time>
      </trkpt>
      <trkpt lat="47.45999" lon="6.77842">
        <ele>419</ele>
        <time>2016-01-17T09:58:38.000Z</time>
      </trkpt>
      <trkpt lat="47.45998" lon="6.77836">
        <ele>420</ele>
        <time>2016-01-17T09:58:40.000Z</time>
      </trkpt>
      <trkpt lat="47.45998" lon="6.77833">
        <ele>421</ele>
        <time>2016-01-17T09:58:41.000Z</time>
      </trkpt>
      <trkpt lat="47.45997" lon="6.77829">
        <ele>420</ele>
        <time>2016-01-17T09:58:42.000Z</time>
      </trkpt>
      <trkpt lat="47.45997" lon="6.77826">
        <ele>420</ele>
        <time>2016-01-17T09:58:43.000Z</time>
      </trkpt>
      <trkpt lat="47.45996" lon="6.7782">
        <ele>420</ele>
        <time>2016-01-17T09:58:45.000Z</time>
      </trkpt>
      <trkpt lat="47.45995" lon="6.77817">
        <ele>420</ele>
        <time>2016-01-17T09:58:46.000Z</time>
      </trkpt>
      <trkpt lat="47.45994" lon="6.77812">
        <ele>419</ele>
        <time>2016-01-17T09:58:48.000Z</time>
      </trkpt>
      <trkpt lat="47.45993" lon="6.7781">
        <ele>419</ele>
        <time>2016-01-17T09:58:49.000Z</time>
      </trkpt>
      <trkpt lat="47.4599" lon="6.77805">
        <ele>419</ele>
        <time>2016-01-17T09:58:51.000Z</time>
      </trkpt>
      <trkpt lat="47.45989" lon="6.77803">
        <ele>419</ele>
        <time>2016-01-17T09:58:52.000Z</time>
      </trkpt>
      <trkpt lat="47.45987" lon="6.77797">
        <ele>419</ele>
        <time>2016-01-17T09:58:54.000Z</time>
      </trkpt>
      <trkpt lat="47.45986" lon="6.77794">
        <ele>419</ele>
        <time>2016-01-17T09:58:55.000Z</time>
      </trkpt>
      <trkpt lat="47.45986" lon="6.77788">
        <ele>419</ele>
        <time>2016-01-17T09:58:57.000Z</time>
      </trkpt>
      <trkpt lat="47.45985" lon="6.77785">
        <ele>419</ele>
        <time>2016-01-17T09:58:58.000Z</time>
      </trkpt>
      <trkpt lat="47.45985" lon="6.77779">
        <ele>420</ele>
        <time>2016-01-17T09:59:00.000Z</time>
      </trkpt>
      <trkpt lat="47.45985" lon="6.77776">
        <ele>420</ele>
        <time>2016-01-17T09:59:01.000Z</time>
      </trkpt>
      <trkpt lat="47.45985" lon="6.7777">
        <ele>420</ele>
        <time>2016-01-17T09:59:03.000Z</time>
      </trkpt>
      <trkpt lat="47.45985" lon="6.77767">
        <ele>420</ele>
        <time>2016-01-17T09:59:04.000Z</time>
      </trkpt>
      <trkpt lat="47.45984" lon="6.77762">
        <ele>420</ele>
        <time>2016-01-17T09:59:06.000Z</time>
      </trkpt>
      <trkpt lat="47.45983" lon="6.7776">
        <ele>420</ele>
        <time>2016-01-17T09:59:07.000Z</time>
      </trkpt>
      <trkpt lat="47.45983" lon="6.77753">
        <ele>421</ele>
        <time>2016-01-17T09:59:10.000Z</time>
      </trkpt>
      <trkpt lat="47.45982" lon="6.77751">
        <ele>421</ele>
        <time>2016-01-17T09:59:11.000Z</time>
      </trkpt>
      <trkpt lat="47.45981" lon="6.77746">
        <ele>422</ele>
        <time>2016-01-17T09:59:13.000Z</time>
      </trkpt>
      <trkpt lat="47.4598" lon="6.77743">
        <ele>422</ele>
        <time>2016-01-17T09:59:14.000Z</time>
      </trkpt>
      <trkpt lat="47.45979" lon="6.7774">
        <ele>422</ele>
        <time>2016-01-17T09:59:15.000Z</time>
      </trkpt>
      <trkpt lat="47.45979" lon="6.77737">
        <ele>422</ele>
        <time>2016-01-17T09:59:16.000Z</time>
      </trkpt>
      <trkpt lat="47.45978" lon="6.77733">
        <ele>422</ele>
        <time>2016-01-17T09:59:17.000Z</time>
      </trkpt>
      <trkpt lat="47.45976" lon="6.7773">
        <ele>422</ele>
        <time>2016-01-17T09:59:18.000Z</time>
      </trkpt>
      <trkpt lat="47.45975" lon="6.77726">
        <ele>422</ele>
        <time>2016-01-17T09:59:19.000Z</time>
      </trkpt>
      <trkpt lat="47.45974" lon="6.77723">
        <ele>422</ele>
        <time>2016-01-17T09:59:20.000Z</time>
      </trkpt>
      <trkpt lat="47.45974" lon="6.77719">
        <ele>422</ele>
        <time>2016-01-17T09:59:21.000Z</time>
      </trkpt>
      <trkpt lat="47.45973" lon="6.77715">
        <ele>422</ele>
        <time>2016-01-17T09:59:22.000Z</time>
      </trkpt>
      <trkpt lat="47.45973" lon="6.77711">
        <ele>422</ele>
        <time>2016-01-17T09:59:23.000Z</time>
      </trkpt>
      <trkpt lat="47.45973" lon="6.77708">
        <ele>422</ele>
        <time>2016-01-17T09:59:24.000Z</time>
      </trkpt>
      <trkpt lat="47.45973" lon="6.77704">
        <ele>422</ele>
        <time>2016-01-17T09:59:25.000Z</time>
      </trkpt>
      <trkpt lat="47.45973" lon="6.77701">
        <ele>422</ele>
        <time>2016-01-17T09:59:26.000Z</time>
      </trkpt>
      <trkpt lat="47.45972" lon="6.77695">
        <ele>422</ele>
        <time>2016-01-17T09:59:28.000Z</time>
      </trkpt>
      <trkpt lat="47.45971" lon="6.77691">
        <ele>422</ele>
        <time>2016-01-17T09:59:29.000Z</time>
      </trkpt>
      <trkpt lat="47.45969" lon="6.77686">
        <ele>422</ele>
        <time>2016-01-17T09:59:31.000Z</time>
      </trkpt>
      <trkpt lat="47.45969" lon="6.77683">
        <ele>422</ele>
        <time>2016-01-17T09:59:32.000Z</time>
      </trkpt>
      <trkpt lat="47.45968" lon="6.77678">
        <ele>422</ele>
        <time>2016-01-17T09:59:34.000Z</time>
      </trkpt>
      <trkpt lat="47.45967" lon="6.77675">
        <ele>422</ele>
        <time>2016-01-17T09:59:35.000Z</time>
      </trkpt>
      <trkpt lat="47.45966" lon="6.77672">
        <ele>422</ele>
        <time>2016-01-17T09:59:36.000Z</time>
      </trkpt>
      <trkpt lat="47.45966" lon="6.77668">
        <ele>422</ele>
        <time>2016-01-17T09:59:37.000Z</time>
      </trkpt>
      <trkpt lat="47.45965" lon="6.77663">
        <ele>424</ele>
        <time>2016-01-17T09:59:39.000Z</time>
      </trkpt>
      <trkpt lat="47.45965" lon="6.7766">
        <ele>424</ele>
        <time>2016-01-17T09:59:40.000Z</time>
      </trkpt>
      <trkpt lat="47.45966" lon="6.77655">
        <ele>424</ele>
        <time>2016-01-17T09:59:42.000Z</time>
      </trkpt>
      <trkpt lat="47.45966" lon="6.77653">
        <ele>424</ele>
        <time>2016-01-17T09:59:43.000Z</time>
      </trkpt>
      <trkpt lat="47.45965" lon="6.77647">
        <ele>424</ele>
        <time>2016-01-17T09:59:46.000Z</time>
      </trkpt>
      <trkpt lat="47.45964" lon="6.77645">
        <ele>424</ele>
        <time>2016-01-17T09:59:47.000Z</time>
      </trkpt>
      <trkpt lat="47.45962" lon="6.77642">
        <ele>424</ele>
        <time>2016-01-17T09:59:49.000Z</time>
      </trkpt>
      <trkpt lat="47.45961" lon="6.7764">
        <ele>424</ele>
        <time>2016-01-17T09:59:50.000Z</time>
      </trkpt>
      <trkpt lat="47.4596" lon="6.77635">
        <ele>424</ele>
        <time>2016-01-17T09:59:52.000Z</time>
      </trkpt>
      <trkpt lat="47.45959" lon="6.77632">
        <ele>424</ele>
        <time>2016-01-17T09:59:53.000Z</time>
      </trkpt>
      <trkpt lat="47.45957" lon="6.77627">
        <ele>424</ele>
        <time>2016-01-17T09:59:55.000Z</time>
      </trkpt>
      <trkpt lat="47.45956" lon="6.77624">
        <ele>424</ele>
        <time>2016-01-17T09:59:56.000Z</time>
      </trkpt>
      <trkpt lat="47.45953" lon="6.77619">
        <ele>424</ele>
        <time>2016-01-17T09:59:58.000Z</time>
      </trkpt>
      <trkpt lat="47.45952" lon="6.77617">
        <ele>424</ele>
        <time>2016-01-17T09:59:59.000Z</time>
      </trkpt>
      <trkpt lat="47.45952" lon="6.77612">
        <ele>424</ele>
        <time>2016-01-17T10:00:01.000Z</time>
      </trkpt>
      <trkpt lat="47.45952" lon="6.7761">
        <ele>424</ele>
        <time>2016-01-17T10:00:02.000Z</time>
      </trkpt>
      <trkpt lat="47.45952" lon="6.77605">
        <ele>424</ele>
        <time>2016-01-17T10:00:04.000Z</time>
      </trkpt>
      <trkpt lat="47.45952" lon="6.77603">
        <ele>424</ele>
        <time>2016-01-17T10:00:05.000Z</time>
      </trkpt>
      <trkpt lat="47.45953" lon="6.77597">
        <ele>424</ele>
        <time>2016-01-17T10:00:09.000Z</time>
      </trkpt>
      <trkpt lat="47.45953" lon="6.77595">
        <ele>424</ele>
        <time>2016-01-17T10:00:10.000Z</time>
      </trkpt>
      <trkpt lat="47.45953" lon="6.77589">
        <ele>424</ele>
        <time>2016-01-17T10:00:15.000Z</time>
      </trkpt>
      <trkpt lat="47.45953" lon="6.77588">
        <ele>424</ele>
        <time>2016-01-17T10:00:16.000Z</time>
      </trkpt>
      <trkpt lat="47.4595" lon="6.77583">
        <ele>424</ele>
        <time>2016-01-17T10:00:21.000Z</time>
      </trkpt>
      <trkpt lat="47.45949" lon="6.77582">
        <ele>424</ele>
        <time>2016-01-17T10:00:22.000Z</time>
      </trkpt>
      <trkpt lat="47.45947" lon="6.77578">
        <ele>424</ele>
        <time>2016-01-17T10:00:25.000Z</time>
      </trkpt>
      <trkpt lat="47.45946" lon="6.77577">
        <ele>424</ele>
        <time>2016-01-17T10:00:26.000Z</time>
      </trkpt>
      <trkpt lat="47.45945" lon="6.7757">
        <ele>424</ele>
        <time>2016-01-17T10:00:31.000Z</time>
      </trkpt>
      <trkpt lat="47.45945" lon="6.77569">
        <ele>424</ele>
        <time>2016-01-17T10:00:32.000Z</time>
      </trkpt>
      <trkpt lat="47.45946" lon="6.77563">
        <ele>424</ele>
        <time>2016-01-17T10:00:45.000Z</time>
      </trkpt>
      <trkpt lat="47.45946" lon="6.77563">
        <ele>424</ele>
        <time>2016-01-17T10:00:46.000Z</time>
      </trkpt>
      <trkpt lat="47.45944" lon="6.77557">
        <ele>424</ele>
        <time>2016-01-17T10:00:56.000Z</time>
      </trkpt>
      <trkpt lat="47.45943" lon="6.77555">
        <ele>424</ele>
        <time>2016-01-17T10:00:57.000Z</time>
      </trkpt>
      <trkpt lat="47.45941" lon="6.77549">
        <ele>424</ele>
        <time>2016-01-17T10:00:59.000Z</time>
      </trkpt>
      <trkpt lat="47.45941" lon="6.77547">
        <ele>424</ele>
        <time>2016-01-17T10:01:00.000Z</time>
      </trkpt>
      <trkpt lat="47.45938" lon="6.77542">
        <ele>424</ele>
        <time>2016-01-17T10:01:02.000Z</time>
      </trkpt>
      <trkpt lat="47.45937" lon="6.77539">
        <ele>424</ele>
        <time>2016-01-17T10:01:03.000Z</time>
      </trkpt>
      <trkpt lat="47.45936" lon="6.77536">
        <ele>424</ele>
        <time>2016-01-17T10:01:04.000Z</time>
      </trkpt>
      <trkpt lat="47.45935" lon="6.77533">
        <ele>424</ele>
        <time>2016-01-17T10:01:05.000Z</time>
      </trkpt>
      <trkpt lat="47.45933" lon="6.7753">
        <ele>424</ele>
        <time>2016-01-17T10:01:06.000Z</time>
      </trkpt>
      <trkpt lat="47.45932" lon="6.77526">
        <ele>424</ele>
        <time>2016-01-17T10:01:07.000Z</time>
      </trkpt>
      <trkpt lat="47.4593" lon="6.77522">
        <ele>424</ele>
        <time>2016-01-17T10:01:08.000Z</time>
      </trkpt>
      <trkpt lat="47.45928" lon="6.77518">
        <ele>424</ele>
        <time>2016-01-17T10:01:09.000Z</time>
      </trkpt>
      <trkpt lat="47.45926" lon="6.77515">
        <ele>423</ele>
        <time>2016-01-17T10:01:10.000Z</time>
      </trkpt>
      <trkpt lat="47.45925" lon="6.77511">
        <ele>423</ele>
        <time>2016-01-17T10:01:11.000Z</time>
      </trkpt>
      <trkpt lat="47.45923" lon="6.77507">
        <ele>423</ele>
        <time>2016-01-17T10:01:12.000Z</time>
      </trkpt>
      <trkpt lat="47.45922" lon="6.77503">
        <ele>423</ele>
        <time>2016-01-17T10:01:13.000Z</time>
      </trkpt>
      <trkpt lat="47.45921" lon="6.77499">
        <ele>423</ele>
        <time>2016-01-17T10:01:14.000Z</time>
      </trkpt>
      <trkpt lat="47.4592" lon="6.77495">
        <ele>423</ele>
        <time>2016-01-17T10:01:15.000Z</time>
      </trkpt>
      <trkpt lat="47.45918" lon="6.77491">
        <ele>423</ele>
        <time>2016-01-17T10:01:16.000Z</time>
      </trkpt>
      <trkpt lat="47.45917" lon="6.77488">
        <ele>422</ele>
        <time>2016-01-17T10:01:17.000Z</time>
      </trkpt>
      <trkpt lat="47.45914" lon="6.77485">
        <ele>422</ele>
        <time>2016-01-17T10:01:18.000Z</time>
      </trkpt>
      <trkpt lat="47.45912" lon="6.77482">
        <ele>422</ele>
        <time>2016-01-17T10:01:19.000Z</time>
      </trkpt>
      <trkpt lat="47.45911" lon="6.77479">
        <ele>422</ele>
        <time>2016-01-17T10:01:20.000Z</time>
      </trkpt>
      <trkpt lat="47.45909" lon="6.77477">
        <ele>422</ele>
        <time>2016-01-17T10:01:21.000Z</time>
      </trkpt>
      <trkpt lat="47.45908" lon="6.77471">
        <ele>421</ele>
        <time>2016-01-17T10:01:23.000Z</time>
      </trkpt>
      <trkpt lat="47.45907" lon="6.77468">
        <ele>421</ele>
        <time>2016-01-17T10:01:24.000Z</time>
      </trkpt>
      <trkpt lat="47.45907" lon="6.77464">
        <ele>421</ele>
        <time>2016-01-17T10:01:25.000Z</time>
      </trkpt>
      <trkpt lat="47.45906" lon="6.77461">
        <ele>421</ele>
        <time>2016-01-17T10:01:26.000Z</time>
      </trkpt>
      <trkpt lat="47.45906" lon="6.77457">
        <ele>421</ele>
        <time>2016-01-17T10:01:27.000Z</time>
      </trkpt>
      <trkpt lat="47.45906" lon="6.77454">
        <ele>421</ele>
        <time>2016-01-17T10:01:28.000Z</time>
      </trkpt>
      <trkpt lat="47.45907" lon="6.77447">
        <ele>421</ele>
        <time>2016-01-17T10:01:30.000Z</time>
      </trkpt>
      <trkpt lat="47.45908" lon="6.77444">
        <ele>421</ele>
        <time>2016-01-17T10:01:31.000Z</time>
      </trkpt>
      <trkpt lat="47.45909" lon="6.77438">
        <ele>421</ele>
        <time>2016-01-17T10:01:33.000Z</time>
      </trkpt>
      <trkpt lat="47.45909" lon="6.77436">
        <ele>421</ele>
        <time>2016-01-17T10:01:34.000Z</time>
      </trkpt>
      <trkpt lat="47.45908" lon="6.7743">
        <ele>421</ele>
        <time>2016-01-17T10:01:36.000Z</time>
      </trkpt>
      <trkpt lat="47.45908" lon="6.77427">
        <ele>421</ele>
        <time>2016-01-17T10:01:37.000Z</time>
      </trkpt>
      <trkpt lat="47.45909" lon="6.77422">
        <ele>421</ele>
        <time>2016-01-17T10:01:39.000Z</time>
      </trkpt>
      <trkpt lat="47.45909" lon="6.7742">
        <ele>421</ele>
        <time>2016-01-17T10:01:40.000Z</time>
      </trkpt>
      <trkpt lat="47.45909" lon="6.77413">
        <ele>421</ele>
        <time>2016-01-17T10:01:43.000Z</time>
      </trkpt>
      <trkpt lat="47.45909" lon="6.77411">
        <ele>421</ele>
        <time>2016-01-17T10:01:44.000Z</time>
      </trkpt>
      <trkpt lat="47.45909" lon="6.77407">
        <ele>421</ele>
        <time>2016-01-17T10:01:46.000Z</time>
      </trkpt>
      <trkpt lat="47.4591" lon="6.77404">
        <ele>421</ele>
        <time>2016-01-17T10:01:47.000Z</time>
      </trkpt>
      <trkpt lat="47.4591" lon="6.77398">
        <ele>421</ele>
        <time>2016-01-17T10:01:49.000Z</time>
      </trkpt>
      <trkpt lat="47.4591" lon="6.77396">
        <ele>421</ele>
        <time>2016-01-17T10:01:50.000Z</time>
      </trkpt>
      <trkpt lat="47.4591" lon="6.77391">
        <ele>421</ele>
        <time>2016-01-17T10:01:52.000Z</time>
      </trkpt>
      <trkpt lat="47.45909" lon="6.77388">
        <ele>421</ele>
        <time>2016-01-17T10:01:53.000Z</time>
      </trkpt>
      <trkpt lat="47.45909" lon="6.77384">
        <ele>421</ele>
        <time>2016-01-17T10:01:55.000Z</time>
      </trkpt>
      <trkpt lat="47.45909" lon="6.77381">
        <ele>421</ele>
        <time>2016-01-17T10:01:56.000Z</time>
      </trkpt>
      <trkpt lat="47.45908" lon="6.77376">
        <ele>421</ele>
        <time>2016-01-17T10:01:58.000Z</time>
      </trkpt>
      <trkpt lat="47.45908" lon="6.77374">
        <ele>421</ele>
        <time>2016-01-17T10:01:59.000Z</time>
      </trkpt>
      <trkpt lat="47.45909" lon="6.77367">
        <ele>421</ele>
        <time>2016-01-17T10:02:01.000Z</time>
      </trkpt>
      <trkpt lat="47.4591" lon="6.77364">
        <ele>421</ele>
        <time>2016-01-17T10:02:02.000Z</time>
      </trkpt>
      <trkpt lat="47.45911" lon="6.7736">
        <ele>421</ele>
        <time>2016-01-17T10:02:03.000Z</time>
      </trkpt>
      <trkpt lat="47.45911" lon="6.77357">
        <ele>421</ele>
        <time>2016-01-17T10:02:04.000Z</time>
      </trkpt>
      <trkpt lat="47.45911" lon="6.77354">
        <ele>421</ele>
        <time>2016-01-17T10:02:05.000Z</time>
      </trkpt>
      <trkpt lat="47.45911" lon="6.7735">
        <ele>421</ele>
        <time>2016-01-17T10:02:06.000Z</time>
      </trkpt>
      <trkpt lat="47.4591" lon="6.77347">
        <ele>422</ele>
        <time>2016-01-17T10:02:07.000Z</time>
      </trkpt>
      <trkpt lat="47.45911" lon="6.77343">
        <ele>422</ele>
        <time>2016-01-17T10:02:08.000Z</time>
      </trkpt>
      <trkpt lat="47.45912" lon="6.77339">
        <ele>422</ele>
        <time>2016-01-17T10:02:09.000Z</time>
      </trkpt>
      <trkpt lat="47.45912" lon="6.77335">
        <ele>422</ele>
        <time>2016-01-17T10:02:10.000Z</time>
      </trkpt>
      <trkpt lat="47.45913" lon="6.77331">
        <ele>422</ele>
        <time>2016-01-17T10:02:11.000Z</time>
      </trkpt>
      <trkpt lat="47.45914" lon="6.77328">
        <ele>422</ele>
        <time>2016-01-17T10:02:12.000Z</time>
      </trkpt>
      <trkpt lat="47.45914" lon="6.77325">
        <ele>422</ele>
        <time>2016-01-17T10:02:13.000Z</time>
      </trkpt>
      <trkpt lat="47.45915" lon="6.77321">
        <ele>422</ele>
        <time>2016-01-17T10:02:14.000Z</time>
      </trkpt>
      <trkpt lat="47.45917" lon="6.77316">
        <ele>422</ele>
        <time>2016-01-17T10:02:18.000Z</time>
      </trkpt>
      <trkpt lat="47.45917" lon="6.77315">
        <ele>422</ele>
        <time>2016-01-17T10:02:19.000Z</time>
      </trkpt>
      <trkpt lat="47.45921" lon="6.77315">
        <ele>422</ele>
        <time>2016-01-17T10:02:24.000Z</time>
      </trkpt>
      <trkpt lat="47.45922" lon="6.77314">
        <ele>422</ele>
        <time>2016-01-17T10:02:25.000Z</time>
      </trkpt>
      <trkpt lat="47.45926" lon="6.77313">
        <ele>423</ele>
        <time>2016-01-17T10:02:28.000Z</time>
      </trkpt>
      <trkpt lat="47.45927" lon="6.77312">
        <ele>423</ele>
        <time>2016-01-17T10:02:29.000Z</time>
      </trkpt>
      <trkpt lat="47.45931" lon="6.77312">
        <ele>423</ele>
        <time>2016-01-17T10:02:31.000Z</time>
      </trkpt>
      <trkpt lat="47.45932" lon="6.77312">
        <ele>423</ele>
        <time>2016-01-17T10:02:32.000Z</time>
      </trkpt>
      <trkpt lat="47.45936" lon="6.77312">
        <ele>423</ele>
        <time>2016-01-17T10:02:35.000Z</time>
      </trkpt>
      <trkpt lat="47.45938" lon="6.77312">
        <ele>423</ele>
        <time>2016-01-17T10:02:36.000Z</time>
      </trkpt>
      <trkpt lat="47.45941" lon="6.77314">
        <ele>423</ele>
        <time>2016-01-17T10:02:38.000Z</time>
      </trkpt>
      <trkpt lat="47.45942" lon="6.77315">
        <ele>423</ele>
        <time>2016-01-17T10:02:39.000Z</time>
      </trkpt>
      <trkpt lat="47.45946" lon="6.77317">
        <ele>423</ele>
        <time>2016-01-17T10:02:41.000Z</time>
      </trkpt>
      <trkpt lat="47.45948" lon="6.77319">
        <ele>423</ele>
        <time>2016-01-17T10:02:42.000Z</time>
      </trkpt>
      <trkpt lat="47.45951" lon="6.77323">
        <ele>423</ele>
        <time>2016-01-17T10:02:44.000Z</time>
      </trkpt>
      <trkpt lat="47.45952" lon="6.77325">
        <ele>423</ele>
        <time>2016-01-17T10:02:45.000Z</time>
      </trkpt>
      <trkpt lat="47.45955" lon="6.7733">
        <ele>423</ele>
        <time>2016-01-17T10:02:47.000Z</time>
      </trkpt>
      <trkpt lat="47.45956" lon="6.77333">
        <ele>423</ele>
        <time>2016-01-17T10:02:48.000Z</time>
      </trkpt>
      <trkpt lat="47.45957" lon="6.77337">
        <ele>423</ele>
        <time>2016-01-17T10:02:50.000Z</time>
      </trkpt>
      <trkpt lat="47.45958" lon="6.77339">
        <ele>423</ele>
        <time>2016-01-17T10:02:51.000Z</time>
      </trkpt>
      <trkpt lat="47.45961" lon="6.77344">
        <ele>423</ele>
        <time>2016-01-17T10:02:53.000Z</time>
      </trkpt>
      <trkpt lat="47.45962" lon="6.77346">
        <ele>423</ele>
        <time>2016-01-17T10:02:54.000Z</time>
      </trkpt>
      <trkpt lat="47.45964" lon="6.7735">
        <ele>423</ele>
        <time>2016-01-17T10:02:56.000Z</time>
      </trkpt>
      <trkpt lat="47.45965" lon="6.77352">
        <ele>423</ele>
        <time>2016-01-17T10:02:57.000Z</time>
      </trkpt>
      <trkpt lat="47.45967" lon="6.77357">
        <ele>424</ele>
        <time>2016-01-17T10:02:59.000Z</time>
      </trkpt>
      <trkpt lat="47.45968" lon="6.77359">
        <ele>424</ele>
        <time>2016-01-17T10:03:00.000Z</time>
      </trkpt>
      <trkpt lat="47.45969" lon="6.77364">
        <ele>424</ele>
        <time>2016-01-17T10:03:02.000Z</time>
      </trkpt>
      <trkpt lat="47.4597" lon="6.77366">
        <ele>424</ele>
        <time>2016-01-17T10:03:03.000Z</time>
      </trkpt>
      <trkpt lat="47.45973" lon="6.7737">
        <ele>424</ele>
        <time>2016-01-17T10:03:05.000Z</time>
      </trkpt>
      <trkpt lat="47.45975" lon="6.77372">
        <ele>424</ele>
        <time>2016-01-17T10:03:06.000Z</time>
      </trkpt>
      <trkpt lat="47.45977" lon="6.77377">
        <ele>424</ele>
        <time>2016-01-17T10:03:08.000Z</time>
      </trkpt>
      <trkpt lat="47.45978" lon="6.7738">
        <ele>424</ele>
        <time>2016-01-17T10:03:09.000Z</time>
      </trkpt>
      <trkpt lat="47.45979" lon="6.77386">
        <ele>424</ele>
        <time>2016-01-17T10:03:11.000Z</time>
      </trkpt>
      <trkpt lat="47.4598" lon="6.77389">
        <ele>424</ele>
        <time>2016-01-17T10:03:12.000Z</time>
      </trkpt>
      <trkpt lat="47.45981" lon="6.77395">
        <ele>424</ele>
        <time>2016-01-17T10:03:14.000Z</time>
      </trkpt>
      <trkpt lat="47.45983" lon="6.77397">
        <ele>424</ele>
        <time>2016-01-17T10:03:15.000Z</time>
      </trkpt>
      <trkpt lat="47.45984" lon="6.774">
        <ele>424</ele>
        <time>2016-01-17T10:03:16.000Z</time>
      </trkpt>
      <trkpt lat="47.45985" lon="6.77403">
        <ele>424</ele>
        <time>2016-01-17T10:03:17.000Z</time>
      </trkpt>
      <trkpt lat="47.45986" lon="6.77406">
        <ele>424</ele>
        <time>2016-01-17T10:03:18.000Z</time>
      </trkpt>
      <trkpt lat="47.45988" lon="6.77409">
        <ele>424</ele>
        <time>2016-01-17T10:03:19.000Z</time>
      </trkpt>
      <trkpt lat="47.4599" lon="6.77412">
        <ele>424</ele>
        <time>2016-01-17T10:03:20.000Z</time>
      </trkpt>
      <trkpt lat="47.45992" lon="6.77415">
        <ele>424</ele>
        <time>2016-01-17T10:03:21.000Z</time>
      </trkpt>
      <trkpt lat="47.45993" lon="6.77418">
        <ele>425</ele>
        <time>2016-01-17T10:03:22.000Z</time>
      </trkpt>
      <trkpt lat="47.45994" lon="6.77422">
        <ele>425</ele>
        <time>2016-01-17T10:03:23.000Z</time>
      </trkpt>
      <trkpt lat="47.45996" lon="6.77425">
        <ele>424</ele>
        <time>2016-01-17T10:03:24.000Z</time>
      </trkpt>
      <trkpt lat="47.45997" lon="6.77429">
        <ele>424</ele>
        <time>2016-01-17T10:03:25.000Z</time>
      </trkpt>
      <trkpt lat="47.45998" lon="6.77433">
        <ele>424</ele>
        <time>2016-01-17T10:03:26.000Z</time>
      </trkpt>
      <trkpt lat="47.46" lon="6.77437">
        <ele>423</ele>
        <time>2016-01-17T10:03:27.000Z</time>
      </trkpt>
      <trkpt lat="47.46002" lon="6.77441">
        <ele>423</ele>
        <time>2016-01-17T10:03:28.000Z</time>
      </trkpt>
      <trkpt lat="47.46003" lon="6.77445">
        <ele>423</ele>
        <time>2016-01-17T10:03:29.000Z</time>
      </trkpt>
      <trkpt lat="47.46004" lon="6.7745">
        <ele>423</ele>
        <time>2016-01-17T10:03:30.000Z</time>
      </trkpt>
      <trkpt lat="47.46005" lon="6.77454">
        <ele>423</ele>
        <time>2016-01-17T10:03:31.000Z</time>
      </trkpt>
      <trkpt lat="47.46005" lon="6.77458">
        <ele>423</ele>
        <time>2016-01-17T10:03:32.000Z</time>
      </trkpt>
      <trkpt lat="47.46006" lon="6.77462">
        <ele>423</ele>
        <time>2016-01-17T10:03:33.000Z</time>
      </trkpt>
      <trkpt lat="47.46007" lon="6.77466">
        <ele>423</ele>
        <time>2016-01-17T10:03:34.000Z</time>
      </trkpt>
      <trkpt lat="47.46008" lon="6.7747">
        <ele>423</ele>
        <time>2016-01-17T10:03:35.000Z</time>
      </trkpt>
      <trkpt lat="47.46009" lon="6.77474">
        <ele>423</ele>
        <time>2016-01-17T10:03:36.000Z</time>
      </trkpt>
      <trkpt lat="47.4601" lon="6.77479">
        <ele>423</ele>
        <time>2016-01-17T10:03:37.000Z</time>
      </trkpt>
      <trkpt lat="47.46011" lon="6.77483">
        <ele>423</ele>
        <time>2016-01-17T10:03:38.000Z</time>
      </trkpt>
      <trkpt lat="47.46012" lon="6.77486">
        <ele>423</ele>
        <time>2016-01-17T10:03:39.000Z</time>
      </trkpt>
      <trkpt lat="47.46013" lon="6.77492">
        <ele>423</ele>
        <time>2016-01-17T10:03:41.000Z</time>
      </trkpt>
      <trkpt lat="47.46014" lon="6.77495">
        <ele>423</ele>
        <time>2016-01-17T10:03:42.000Z</time>
      </trkpt>
      <trkpt lat="47.46013" lon="6.77498">
        <ele>423</ele>
        <time>2016-01-17T10:03:43.000Z</time>
      </trkpt>
      <trkpt lat="47.46013" lon="6.77502">
        <ele>423</ele>
        <time>2016-01-17T10:03:44.000Z</time>
      </trkpt>
      <trkpt lat="47.46013" lon="6.77506">
        <ele>423</ele>
        <time>2016-01-17T10:03:45.000Z</time>
      </trkpt>
      <trkpt lat="47.46013" lon="6.7751">
        <ele>423</ele>
        <time>2016-01-17T10:03:46.000Z</time>
      </trkpt>
      <trkpt lat="47.46014" lon="6.77514">
        <ele>423</ele>
        <time>2016-01-17T10:03:47.000Z</time>
      </trkpt>
      <trkpt lat="47.46015" lon="6.77517">
        <ele>423</ele>
        <time>2016-01-17T10:03:48.000Z</time>
      </trkpt>
      <trkpt lat="47.46016" lon="6.7752">
        <ele>423</ele>
        <time>2016-01-17T10:03:49.000Z</time>
      </trkpt>
      <trkpt lat="47.46018" lon="6.77523">
        <ele>423</ele>
        <time>2016-01-17T10:03:50.000Z</time>
      </trkpt>
      <trkpt lat="47.46019" lon="6.77526">
        <ele>423</ele>
        <time>2016-01-17T10:03:51.000Z</time>
      </trkpt>
      <trkpt lat="47.46021" lon="6.77529">
        <ele>423</ele>
        <time>2016-01-17T10:03:52.000Z</time>
      </trkpt>
      <trkpt lat="47.46022" lon="6.77532">
        <ele>423</ele>
        <time>2016-01-17T10:03:53.000Z</time>
      </trkpt>
      <trkpt lat="47.46023" lon="6.77535">
        <ele>423</ele>
        <time>2016-01-17T10:03:54.000Z</time>
      </trkpt>
      <trkpt lat="47.46024" lon="6.77537">
        <ele>423</ele>
        <time>2016-01-17T10:03:55.000Z</time>
      </trkpt>
      <trkpt lat="47.46026" lon="6.7754">
        <ele>423</ele>
        <time>2016-01-17T10:03:56.000Z</time>
      </trkpt>
      <trkpt lat="47.46028" lon="6.77543">
        <ele>423</ele>
        <time>2016-01-17T10:03:57.000Z</time>
      </trkpt>
      <trkpt lat="47.4603" lon="6.77545">
        <ele>423</ele>
        <time>2016-01-17T10:03:58.000Z</time>
      </trkpt>
      <trkpt lat="47.46033" lon="6.77548">
        <ele>423</ele>
        <time>2016-01-17T10:03:59.000Z</time>
      </trkpt>
      <trkpt lat="47.46035" lon="6.7755">
        <ele>423</ele>
        <time>2016-01-17T10:04:00.000Z</time>
      </trkpt>
      <trkpt lat="47.46038" lon="6.77552">
        <ele>423</ele>
        <time>2016-01-17T10:04:02.000Z</time>
      </trkpt>
      <trkpt lat="47.4604" lon="6.77553">
        <ele>423</ele>
        <time>2016-01-17T10:04:03.000Z</time>
      </trkpt>
      <trkpt lat="47.46042" lon="6.77556">
        <ele>423</ele>
        <time>2016-01-17T10:04:05.000Z</time>
      </trkpt>
      <trkpt lat="47.46043" lon="6.77557">
        <ele>423</ele>
        <time>2016-01-17T10:04:06.000Z</time>
      </trkpt>
      <trkpt lat="47.46046" lon="6.77561">
        <ele>423</ele>
        <time>2016-01-17T10:04:08.000Z</time>
      </trkpt>
      <trkpt lat="47.46047" lon="6.77563">
        <ele>423</ele>
        <time>2016-01-17T10:04:09.000Z</time>
      </trkpt>
      <trkpt lat="47.46048" lon="6.77567">
        <ele>423</ele>
        <time>2016-01-17T10:04:11.000Z</time>
      </trkpt>
      <trkpt lat="47.46049" lon="6.77569">
        <ele>423</ele>
        <time>2016-01-17T10:04:12.000Z</time>
      </trkpt>
      <trkpt lat="47.46051" lon="6.77572">
        <ele>423</ele>
        <time>2016-01-17T10:04:14.000Z</time>
      </trkpt>
      <trkpt lat="47.46053" lon="6.77573">
        <ele>423</ele>
        <time>2016-01-17T10:04:15.000Z</time>
      </trkpt>
      <trkpt lat="47.46055" lon="6.77577">
        <ele>423</ele>
        <time>2016-01-17T10:04:17.000Z</time>
      </trkpt>
      <trkpt lat="47.46056" lon="6.77579">
        <ele>423</ele>
        <time>2016-01-17T10:04:18.000Z</time>
      </trkpt>
      <trkpt lat="47.46058" lon="6.77581">
        <ele>423</ele>
        <time>2016-01-17T10:04:19.000Z</time>
      </trkpt>
      <trkpt lat="47.4606" lon="6.77583">
        <ele>422</ele>
        <time>2016-01-17T10:04:20.000Z</time>
      </trkpt>
      <trkpt lat="47.46062" lon="6.77586">
        <ele>423</ele>
        <time>2016-01-17T10:04:21.000Z</time>
      </trkpt>
      <trkpt lat="47.46064" lon="6.77589">
        <ele>423</ele>
        <time>2016-01-17T10:04:22.000Z</time>
      </trkpt>
      <trkpt lat="47.46066" lon="6.77593">
        <ele>423</ele>
        <time>2016-01-17T10:04:23.000Z</time>
      </trkpt>
      <trkpt lat="47.46068" lon="6.77596">
        <ele>423</ele>
        <time>2016-01-17T10:04:24.000Z</time>
      </trkpt>
      <trkpt lat="47.4607" lon="6.776">
        <ele>423</ele>
        <time>2016-01-17T10:04:25.000Z</time>
      </trkpt>
      <trkpt lat="47.46072" lon="6.77603">
        <ele>423</ele>
        <time>2016-01-17T10:04:26.000Z</time>
      </trkpt>
      <trkpt lat="47.46074" lon="6.77607">
        <ele>423</ele>
        <time>2016-01-17T10:04:27.000Z</time>
      </trkpt>
      <trkpt lat="47.46075" lon="6.77611">
        <ele>424</ele>
        <time>2016-01-17T10:04:28.000Z</time>
      </trkpt>
      <trkpt lat="47.46077" lon="6.77615">
        <ele>424</ele>
        <time>2016-01-17T10:04:29.000Z</time>
      </trkpt>
      <trkpt lat="47.46078" lon="6.77619">
        <ele>424</ele>
        <time>2016-01-17T10:04:30.000Z</time>
      </trkpt>
      <trkpt lat="47.4608" lon="6.77622">
        <ele>424</ele>
        <time>2016-01-17T10:04:31.000Z</time>
      </trkpt>
      <trkpt lat="47.46081" lon="6.77625">
        <ele>424</ele>
        <time>2016-01-17T10:04:32.000Z</time>
      </trkpt>
      <trkpt lat="47.46083" lon="6.77631">
        <ele>424</ele>
        <time>2016-01-17T10:04:34.000Z</time>
      </trkpt>
      <trkpt lat="47.46084" lon="6.77633">
        <ele>422</ele>
        <time>2016-01-17T10:04:35.000Z</time>
      </trkpt>
      <trkpt lat="47.46086" lon="6.77636">
        <ele>422</ele>
        <time>2016-01-17T10:04:36.000Z</time>
      </trkpt>
      <trkpt lat="47.46088" lon="6.77639">
        <ele>422</ele>
        <time>2016-01-17T10:04:37.000Z</time>
      </trkpt>
      <trkpt lat="47.46089" lon="6.77642">
        <ele>422</ele>
        <time>2016-01-17T10:04:38.000Z</time>
      </trkpt>
      <trkpt lat="47.46091" lon="6.77645">
        <ele>422</ele>
        <time>2016-01-17T10:04:39.000Z</time>
      </trkpt>
      <trkpt lat="47.46094" lon="6.77649">
        <ele>422</ele>
        <time>2016-01-17T10:04:41.000Z</time>
      </trkpt>
      <trkpt lat="47.46095" lon="6.77651">
        <ele>422</ele>
        <time>2016-01-17T10:04:42.000Z</time>
      </trkpt>
      <trkpt lat="47.46097" lon="6.77655">
        <ele>422</ele>
        <time>2016-01-17T10:04:44.000Z</time>
      </trkpt>
      <trkpt lat="47.46098" lon="6.77658">
        <ele>422</ele>
        <time>2016-01-17T10:04:45.000Z</time>
      </trkpt>
      <trkpt lat="47.46101" lon="6.77663">
        <ele>422</ele>
        <time>2016-01-17T10:04:47.000Z</time>
      </trkpt>
      <trkpt lat="47.46102" lon="6.77665">
        <ele>422</ele>
        <time>2016-01-17T10:04:48.000Z</time>
      </trkpt>
      <trkpt lat="47.46104" lon="6.77669">
        <ele>423</ele>
        <time>2016-01-17T10:04:50.000Z</time>
      </trkpt>
      <trkpt lat="47.46105" lon="6.7767">
        <ele>423</ele>
        <time>2016-01-17T10:04:51.000Z</time>
      </trkpt>
      <trkpt lat="47.46108" lon="6.77674">
        <ele>423</ele>
        <time>2016-01-17T10:04:53.000Z</time>
      </trkpt>
      <trkpt lat="47.46109" lon="6.77676">
        <ele>423</ele>
        <time>2016-01-17T10:04:54.000Z</time>
      </trkpt>
      <trkpt lat="47.46111" lon="6.77682">
        <ele>423</ele>
        <time>2016-01-17T10:04:56.000Z</time>
      </trkpt>
      <trkpt lat="47.46113" lon="6.77686">
        <ele>423</ele>
        <time>2016-01-17T10:04:57.000Z</time>
      </trkpt>
      <trkpt lat="47.46114" lon="6.77689">
        <ele>423</ele>
        <time>2016-01-17T10:04:58.000Z</time>
      </trkpt>
      <trkpt lat="47.46116" lon="6.77692">
        <ele>423</ele>
        <time>2016-01-17T10:04:59.000Z</time>
      </trkpt>
      <trkpt lat="47.46118" lon="6.77695">
        <ele>423</ele>
        <time>2016-01-17T10:05:01.000Z</time>
      </trkpt>
      <trkpt lat="47.4612" lon="6.77696">
        <ele>423</ele>
        <time>2016-01-17T10:05:02.000Z</time>
      </trkpt>
      <trkpt lat="47.46123" lon="6.77699">
        <ele>423</ele>
        <time>2016-01-17T10:05:04.000Z</time>
      </trkpt>
      <trkpt lat="47.46124" lon="6.77701">
        <ele>423</ele>
        <time>2016-01-17T10:05:05.000Z</time>
      </trkpt>
      <trkpt lat="47.46126" lon="6.77705">
        <ele>423</ele>
        <time>2016-01-17T10:05:07.000Z</time>
      </trkpt>
      <trkpt lat="47.46127" lon="6.77708">
        <ele>423</ele>
        <time>2016-01-17T10:05:08.000Z</time>
      </trkpt>
      <trkpt lat="47.4613" lon="6.77711">
        <ele>423</ele>
        <time>2016-01-17T10:05:10.000Z</time>
      </trkpt>
      <trkpt lat="47.46131" lon="6.77713">
        <ele>423</ele>
        <time>2016-01-17T10:05:11.000Z</time>
      </trkpt>
      <trkpt lat="47.46135" lon="6.77716">
        <ele>423</ele>
        <time>2016-01-17T10:05:13.000Z</time>
      </trkpt>
      <trkpt lat="47.46137" lon="6.77718">
        <ele>423</ele>
        <time>2016-01-17T10:05:14.000Z</time>
      </trkpt>
      <trkpt lat="47.4614" lon="6.77721">
        <ele>423</ele>
        <time>2016-01-17T10:05:15.000Z</time>
      </trkpt>
      <trkpt lat="47.46142" lon="6.77724">
        <ele>423</ele>
        <time>2016-01-17T10:05:16.000Z</time>
      </trkpt>
      <trkpt lat="47.46145" lon="6.77727">
        <ele>423</ele>
        <time>2016-01-17T10:05:17.000Z</time>
      </trkpt>
      <trkpt lat="47.46148" lon="6.77729">
        <ele>423</ele>
        <time>2016-01-17T10:05:18.000Z</time>
      </trkpt>
      <trkpt lat="47.4615" lon="6.77732">
        <ele>423</ele>
        <time>2016-01-17T10:05:19.000Z</time>
      </trkpt>
      <trkpt lat="47.46152" lon="6.77735">
        <ele>423</ele>
        <time>2016-01-17T10:05:20.000Z</time>
      </trkpt>
      <trkpt lat="47.46155" lon="6.77737">
        <ele>423</ele>
        <time>2016-01-17T10:05:21.000Z</time>
      </trkpt>
      <trkpt lat="47.46157" lon="6.77739">
        <ele>423</ele>
        <time>2016-01-17T10:05:22.000Z</time>
      </trkpt>
      <trkpt lat="47.46159" lon="6.77741">
        <ele>423</ele>
        <time>2016-01-17T10:05:23.000Z</time>
      </trkpt>
      <trkpt lat="47.46161" lon="6.77743">
        <ele>423</ele>
        <time>2016-01-17T10:05:24.000Z</time>
      </trkpt>
      <trkpt lat="47.46163" lon="6.77745">
        <ele>423</ele>
        <time>2016-01-17T10:05:25.000Z</time>
      </trkpt>
      <trkpt lat="47.46165" lon="6.77748">
        <ele>423</ele>
        <time>2016-01-17T10:05:26.000Z</time>
      </trkpt>
      <trkpt lat="47.46167" lon="6.77751">
        <ele>423</ele>
        <time>2016-01-17T10:05:27.000Z</time>
      </trkpt>
      <trkpt lat="47.46169" lon="6.77753">
        <ele>423</ele>
        <time>2016-01-17T10:05:28.000Z</time>
      </trkpt>
      <trkpt lat="47.46171" lon="6.77755">
        <ele>423</ele>
        <time>2016-01-17T10:05:29.000Z</time>
      </trkpt>
      <trkpt lat="47.46174" lon="6.77758">
        <ele>423</ele>
        <time>2016-01-17T10:05:30.000Z</time>
      </trkpt>
      <trkpt lat="47.46176" lon="6.77761">
        <ele>424</ele>
        <time>2016-01-17T10:05:31.000Z</time>
      </trkpt>
      <trkpt lat="47.46179" lon="6.77764">
        <ele>424</ele>
        <time>2016-01-17T10:05:32.000Z</time>
      </trkpt>
      <trkpt lat="47.46181" lon="6.77767">
        <ele>424</ele>
        <time>2016-01-17T10:05:33.000Z</time>
      </trkpt>
      <trkpt lat="47.46183" lon="6.77769">
        <ele>424</ele>
        <time>2016-01-17T10:05:34.000Z</time>
      </trkpt>
      <trkpt lat="47.46185" lon="6.77772">
        <ele>424</ele>
        <time>2016-01-17T10:05:35.000Z</time>
      </trkpt>
      <trkpt lat="47.46187" lon="6.77774">
        <ele>424</ele>
        <time>2016-01-17T10:05:36.000Z</time>
      </trkpt>
      <trkpt lat="47.46189" lon="6.77777">
        <ele>424</ele>
        <time>2016-01-17T10:05:37.000Z</time>
      </trkpt>
      <trkpt lat="47.46191" lon="6.77779">
        <ele>424</ele>
        <time>2016-01-17T10:05:38.000Z</time>
      </trkpt>
      <trkpt lat="47.46193" lon="6.77781">
        <ele>424</ele>
        <time>2016-01-17T10:05:39.000Z</time>
      </trkpt>
      <trkpt lat="47.46195" lon="6.77785">
        <ele>424</ele>
        <time>2016-01-17T10:05:40.000Z</time>
      </trkpt>
      <trkpt lat="47.46197" lon="6.77789">
        <ele>424</ele>
        <time>2016-01-17T10:05:41.000Z</time>
      </trkpt>
      <trkpt lat="47.46199" lon="6.77793">
        <ele>424</ele>
        <time>2016-01-17T10:05:42.000Z</time>
      </trkpt>
      <trkpt lat="47.462" lon="6.77798">
        <ele>424</ele>
        <time>2016-01-17T10:05:43.000Z</time>
      </trkpt>
      <trkpt lat="47.46202" lon="6.77802">
        <ele>424</ele>
        <time>2016-01-17T10:05:44.000Z</time>
      </trkpt>
      <trkpt lat="47.46202" lon="6.77807">
        <ele>424</ele>
        <time>2016-01-17T10:05:45.000Z</time>
      </trkpt>
      <trkpt lat="47.46203" lon="6.77812">
        <ele>425</ele>
        <time>2016-01-17T10:05:46.000Z</time>
      </trkpt>
      <trkpt lat="47.46204" lon="6.77816">
        <ele>425</ele>
        <time>2016-01-17T10:05:47.000Z</time>
      </trkpt>
      <trkpt lat="47.46205" lon="6.77819">
        <ele>425</ele>
        <time>2016-01-17T10:05:48.000Z</time>
      </trkpt>
      <trkpt lat="47.46207" lon="6.77822">
        <ele>425</ele>
        <time>2016-01-17T10:05:49.000Z</time>
      </trkpt>
      <trkpt lat="47.46208" lon="6.77825">
        <ele>425</ele>
        <time>2016-01-17T10:05:50.000Z</time>
      </trkpt>
      <trkpt lat="47.4621" lon="6.77827">
        <ele>425</ele>
        <time>2016-01-17T10:05:51.000Z</time>
      </trkpt>
      <trkpt lat="47.46212" lon="6.77829">
        <ele>425</ele>
        <time>2016-01-17T10:05:52.000Z</time>
      </trkpt>
      <trkpt lat="47.46215" lon="6.7783">
        <ele>425</ele>
        <time>2016-01-17T10:05:53.000Z</time>
      </trkpt>
      <trkpt lat="47.46217" lon="6.77831">
        <ele>425</ele>
        <time>2016-01-17T10:05:54.000Z</time>
      </trkpt>
      <trkpt lat="47.4622" lon="6.7783">
        <ele>425</ele>
        <time>2016-01-17T10:05:56.000Z</time>
      </trkpt>
      <trkpt lat="47.46222" lon="6.77829">
        <ele>425</ele>
        <time>2016-01-17T10:05:57.000Z</time>
      </trkpt>
      <trkpt lat="47.46225" lon="6.77827">
        <ele>425</ele>
        <time>2016-01-17T10:05:59.000Z</time>
      </trkpt>
      <trkpt lat="47.46226" lon="6.77826">
        <ele>425</ele>
        <time>2016-01-17T10:06:00.000Z</time>
      </trkpt>
      <trkpt lat="47.4623" lon="6.77826">
        <ele>425</ele>
        <time>2016-01-17T10:06:02.000Z</time>
      </trkpt>
      <trkpt lat="47.46232" lon="6.77827">
        <ele>425</ele>
        <time>2016-01-17T10:06:03.000Z</time>
      </trkpt>
      <trkpt lat="47.46236" lon="6.77826">
        <ele>425</ele>
        <time>2016-01-17T10:06:05.000Z</time>
      </trkpt>
      <trkpt lat="47.46238" lon="6.77825">
        <ele>425</ele>
        <time>2016-01-17T10:06:06.000Z</time>
      </trkpt>
      <trkpt lat="47.4624" lon="6.77824">
        <ele>425</ele>
        <time>2016-01-17T10:06:07.000Z</time>
      </trkpt>
      <trkpt lat="47.46243" lon="6.77822">
        <ele>425</ele>
        <time>2016-01-17T10:06:08.000Z</time>
      </trkpt>
      <trkpt lat="47.46247" lon="6.77821">
        <ele>425</ele>
        <time>2016-01-17T10:06:10.000Z</time>
      </trkpt>
      <trkpt lat="47.46248" lon="6.7782">
        <ele>425</ele>
        <time>2016-01-17T10:06:11.000Z</time>
      </trkpt>
      <trkpt lat="47.4625" lon="6.77817">
        <ele>425</ele>
        <time>2016-01-17T10:06:13.000Z</time>
      </trkpt>
      <trkpt lat="47.46251" lon="6.77815">
        <ele>425</ele>
        <time>2016-01-17T10:06:14.000Z</time>
      </trkpt>
      <trkpt lat="47.46253" lon="6.77812">
        <ele>425</ele>
        <time>2016-01-17T10:06:15.000Z</time>
      </trkpt>
      <trkpt lat="47.46254" lon="6.77809">
        <ele>425</ele>
        <time>2016-01-17T10:06:16.000Z</time>
      </trkpt>
      <trkpt lat="47.46256" lon="6.77807">
        <ele>425</ele>
        <time>2016-01-17T10:06:17.000Z</time>
      </trkpt>
      <trkpt lat="47.46258" lon="6.77804">
        <ele>425</ele>
        <time>2016-01-17T10:06:18.000Z</time>
      </trkpt>
      <trkpt lat="47.46261" lon="6.77799">
        <ele>425</ele>
        <time>2016-01-17T10:06:20.000Z</time>
      </trkpt>
      <trkpt lat="47.46262" lon="6.77797">
        <ele>425</ele>
        <time>2016-01-17T10:06:21.000Z</time>
      </trkpt>
      <trkpt lat="47.46264" lon="6.77794">
        <ele>425</ele>
        <time>2016-01-17T10:06:23.000Z</time>
      </trkpt>
      <trkpt lat="47.46265" lon="6.77792">
        <ele>425</ele>
        <time>2016-01-17T10:06:24.000Z</time>
      </trkpt>
      <trkpt lat="47.46267" lon="6.77786">
        <ele>425</ele>
        <time>2016-01-17T10:06:27.000Z</time>
      </trkpt>
      <trkpt lat="47.46268" lon="6.77784">
        <ele>425</ele>
        <time>2016-01-17T10:06:28.000Z</time>
      </trkpt>
      <trkpt lat="47.4627" lon="6.7778">
        <ele>424</ele>
        <time>2016-01-17T10:06:30.000Z</time>
      </trkpt>
      <trkpt lat="47.46272" lon="6.77777">
        <ele>424</ele>
        <time>2016-01-17T10:06:31.000Z</time>
      </trkpt>
      <trkpt lat="47.46276" lon="6.77774">
        <ele>424</ele>
        <time>2016-01-17T10:06:33.000Z</time>
      </trkpt>
      <trkpt lat="47.46278" lon="6.77772">
        <ele>424</ele>
        <time>2016-01-17T10:06:34.000Z</time>
      </trkpt>
      <trkpt lat="47.4628" lon="6.7777">
        <ele>424</ele>
        <time>2016-01-17T10:06:35.000Z</time>
      </trkpt>
      <trkpt lat="47.46283" lon="6.77768">
        <ele>424</ele>
        <time>2016-01-17T10:06:36.000Z</time>
      </trkpt>
      <trkpt lat="47.46286" lon="6.77766">
        <ele>424</ele>
        <time>2016-01-17T10:06:40.000Z</time>
      </trkpt>
      <trkpt lat="47.46288" lon="6.77765">
        <ele>424</ele>
        <time>2016-01-17T10:06:41.000Z</time>
      </trkpt>
      <trkpt lat="47.46291" lon="6.77765">
        <ele>425</ele>
        <time>2016-01-17T10:06:43.000Z</time>
      </trkpt>
      <trkpt lat="47.46293" lon="6.77765">
        <ele>425</ele>
        <time>2016-01-17T10:06:44.000Z</time>
      </trkpt>
      <trkpt lat="47.46297" lon="6.77765">
        <ele>425</ele>
        <time>2016-01-17T10:06:46.000Z</time>
      </trkpt>
      <trkpt lat="47.46299" lon="6.77765">
        <ele>425</ele>
        <time>2016-01-17T10:06:47.000Z</time>
      </trkpt>
      <trkpt lat="47.46303" lon="6.77765">
        <ele>425</ele>
        <time>2016-01-17T10:06:49.000Z</time>
      </trkpt>
      <trkpt lat="47.46306" lon="6.77766">
        <ele>425</ele>
        <time>2016-01-17T10:06:50.000Z</time>
      </trkpt>
      <trkpt lat="47.46308" lon="6.77767">
        <ele>425</ele>
        <time>2016-01-17T10:06:51.000Z</time>
      </trkpt>
      <trkpt lat="47.46311" lon="6.77769">
        <ele>425</ele>
        <time>2016-01-17T10:06:52.000Z</time>
      </trkpt>
      <trkpt lat="47.46314" lon="6.77772">
        <ele>425</ele>
        <time>2016-01-17T10:06:54.000Z</time>
      </trkpt>
      <trkpt lat="47.46315" lon="6.77773">
        <ele>425</ele>
        <time>2016-01-17T10:06:55.000Z</time>
      </trkpt>
      <trkpt lat="47.46318" lon="6.77776">
        <ele>425</ele>
        <time>2016-01-17T10:06:57.000Z</time>
      </trkpt>
      <trkpt lat="47.4632" lon="6.77777">
        <ele>425</ele>
        <time>2016-01-17T10:06:58.000Z</time>
      </trkpt>
      <trkpt lat="47.46323" lon="6.7778">
        <ele>425</ele>
        <time>2016-01-17T10:07:00.000Z</time>
      </trkpt>
      <trkpt lat="47.46325" lon="6.77781">
        <ele>425</ele>
        <time>2016-01-17T10:07:01.000Z</time>
      </trkpt>
      <trkpt lat="47.46326" lon="6.77787">
        <ele>425</ele>
        <time>2016-01-17T10:07:08.000Z</time>
      </trkpt>
      <trkpt lat="47.46325" lon="6.77788">
        <ele>425</ele>
        <time>2016-01-17T10:07:09.000Z</time>
      </trkpt>
      <trkpt lat="47.46326" lon="6.77793">
        <ele>425</ele>
        <time>2016-01-17T10:07:12.000Z</time>
      </trkpt>
      <trkpt lat="47.46328" lon="6.77794">
        <ele>425</ele>
        <time>2016-01-17T10:07:13.000Z</time>
      </trkpt>
      <trkpt lat="47.46331" lon="6.77795">
        <ele>425</ele>
        <time>2016-01-17T10:07:16.000Z</time>
      </trkpt>
      <trkpt lat="47.46332" lon="6.77794">
        <ele>425</ele>
        <time>2016-01-17T10:07:17.000Z</time>
      </trkpt>
      <trkpt lat="47.46335" lon="6.77792">
        <ele>426</ele>
        <time>2016-01-17T10:07:19.000Z</time>
      </trkpt>
      <trkpt lat="47.46337" lon="6.77792">
        <ele>426</ele>
        <time>2016-01-17T10:07:20.000Z</time>
      </trkpt>
      <trkpt lat="47.46341" lon="6.77792">
        <ele>426</ele>
        <time>2016-01-17T10:07:22.000Z</time>
      </trkpt>
      <trkpt lat="47.46342" lon="6.77793">
        <ele>426</ele>
        <time>2016-01-17T10:07:23.000Z</time>
      </trkpt>
      <trkpt lat="47.46346" lon="6.77795">
        <ele>426</ele>
        <time>2016-01-17T10:07:26.000Z</time>
      </trkpt>
      <trkpt lat="47.46348" lon="6.77796">
        <ele>426</ele>
        <time>2016-01-17T10:07:27.000Z</time>
      </trkpt>
      <trkpt lat="47.46351" lon="6.77799">
        <ele>426</ele>
        <time>2016-01-17T10:07:30.000Z</time>
      </trkpt>
      <trkpt lat="47.46352" lon="6.778">
        <ele>426</ele>
        <time>2016-01-17T10:07:31.000Z</time>
      </trkpt>
      <trkpt lat="47.46356" lon="6.77801">
        <ele>426</ele>
        <time>2016-01-17T10:07:34.000Z</time>
      </trkpt>
      <trkpt lat="47.46357" lon="6.77802">
        <ele>426</ele>
        <time>2016-01-17T10:07:35.000Z</time>
      </trkpt>
      <trkpt lat="47.46361" lon="6.77803">
        <ele>426</ele>
        <time>2016-01-17T10:07:39.000Z</time>
      </trkpt>
      <trkpt lat="47.46362" lon="6.77803">
        <ele>426</ele>
        <time>2016-01-17T10:07:40.000Z</time>
      </trkpt>
      <trkpt lat="47.46366" lon="6.77803">
        <ele>426</ele>
        <time>2016-01-17T10:07:46.000Z</time>
      </trkpt>
      <trkpt lat="47.46367" lon="6.77804">
        <ele>426</ele>
        <time>2016-01-17T10:07:47.000Z</time>
      </trkpt>
      <trkpt lat="47.46371" lon="6.77806">
        <ele>426</ele>
        <time>2016-01-17T10:07:58.000Z</time>
      </trkpt>
      <trkpt lat="47.46372" lon="6.77806">
        <ele>426</ele>
        <time>2016-01-17T10:07:59.000Z</time>
      </trkpt>
      <trkpt lat="47.46376" lon="6.77807">
        <ele>426</ele>
        <time>2016-01-17T10:08:03.000Z</time>
      </trkpt>
      <trkpt lat="47.46377" lon="6.77807">
        <ele>426</ele>
        <time>2016-01-17T10:08:04.000Z</time>
      </trkpt>
      <trkpt lat="47.46381" lon="6.77808">
        <ele>426</ele>
        <time>2016-01-17T10:08:07.000Z</time>
      </trkpt>
      <trkpt lat="47.46382" lon="6.77808">
        <ele>426</ele>
        <time>2016-01-17T10:08:08.000Z</time>
      </trkpt>
      <trkpt lat="47.46386" lon="6.77809">
        <ele>426</ele>
        <time>2016-01-17T10:08:10.000Z</time>
      </trkpt>
      <trkpt lat="47.46387" lon="6.77809">
        <ele>426</ele>
        <time>2016-01-17T10:08:11.000Z</time>
      </trkpt>
      <trkpt lat="47.46391" lon="6.77808">
        <ele>426</ele>
        <time>2016-01-17T10:08:14.000Z</time>
      </trkpt>
      <trkpt lat="47.46392" lon="6.77808">
        <ele>426</ele>
        <time>2016-01-17T10:08:15.000Z</time>
      </trkpt>
      <trkpt lat="47.46395" lon="6.77805">
        <ele>426</ele>
        <time>2016-01-17T10:08:19.000Z</time>
      </trkpt>
      <trkpt lat="47.46396" lon="6.77804">
        <ele>426</ele>
        <time>2016-01-17T10:08:20.000Z</time>
      </trkpt>
      <trkpt lat="47.46399" lon="6.77801">
        <ele>427</ele>
        <time>2016-01-17T10:08:22.000Z</time>
      </trkpt>
      <trkpt lat="47.464" lon="6.778">
        <ele>427</ele>
        <time>2016-01-17T10:08:23.000Z</time>
      </trkpt>
      <trkpt lat="47.46402" lon="6.77799">
        <ele>427</ele>
        <time>2016-01-17T10:08:24.000Z</time>
      </trkpt>
      <trkpt lat="47.46405" lon="6.77797">
        <ele>427</ele>
        <time>2016-01-17T10:08:25.000Z</time>
      </trkpt>
      <trkpt lat="47.46407" lon="6.77795">
        <ele>427</ele>
        <time>2016-01-17T10:08:26.000Z</time>
      </trkpt>
      <trkpt lat="47.46409" lon="6.77793">
        <ele>427</ele>
        <time>2016-01-17T10:08:27.000Z</time>
      </trkpt>
      <trkpt lat="47.46412" lon="6.7779">
        <ele>427</ele>
        <time>2016-01-17T10:08:29.000Z</time>
      </trkpt>
      <trkpt lat="47.46414" lon="6.77789">
        <ele>427</ele>
        <time>2016-01-17T10:08:30.000Z</time>
      </trkpt>
      <trkpt lat="47.46416" lon="6.77786">
        <ele>427</ele>
        <time>2016-01-17T10:08:32.000Z</time>
      </trkpt>
      <trkpt lat="47.46417" lon="6.77784">
        <ele>427</ele>
        <time>2016-01-17T10:08:33.000Z</time>
      </trkpt>
      <trkpt lat="47.46419" lon="6.7778">
        <ele>427</ele>
        <time>2016-01-17T10:08:35.000Z</time>
      </trkpt>
      <trkpt lat="47.46421" lon="6.77778">
        <ele>427</ele>
        <time>2016-01-17T10:08:36.000Z</time>
      </trkpt>
      <trkpt lat="47.46422" lon="6.77775">
        <ele>427</ele>
        <time>2016-01-17T10:08:37.000Z</time>
      </trkpt>
      <trkpt lat="47.46424" lon="6.77773">
        <ele>427</ele>
        <time>2016-01-17T10:08:38.000Z</time>
      </trkpt>
      <trkpt lat="47.46427" lon="6.77771">
        <ele>427</ele>
        <time>2016-01-17T10:08:39.000Z</time>
      </trkpt>
      <trkpt lat="47.4643" lon="6.77769">
        <ele>427</ele>
        <time>2016-01-17T10:08:40.000Z</time>
      </trkpt>
      <trkpt lat="47.46433" lon="6.77768">
        <ele>427</ele>
        <time>2016-01-17T10:08:41.000Z</time>
      </trkpt>
      <trkpt lat="47.46435" lon="6.77768">
        <ele>427</ele>
        <time>2016-01-17T10:08:42.000Z</time>
      </trkpt>
      <trkpt lat="47.46438" lon="6.77767">
        <ele>427</ele>
        <time>2016-01-17T10:08:43.000Z</time>
      </trkpt>
      <trkpt lat="47.4644" lon="6.77766">
        <ele>426</ele>
        <time>2016-01-17T10:08:44.000Z</time>
      </trkpt>
      <trkpt lat="47.46444" lon="6.77765">
        <ele>426</ele>
        <time>2016-01-17T10:08:46.000Z</time>
      </trkpt>
      <trkpt lat="47.46445" lon="6.77765">
        <ele>426</ele>
        <time>2016-01-17T10:08:47.000Z</time>
      </trkpt>
      <trkpt lat="47.46449" lon="6.77764">
        <ele>426</ele>
        <time>2016-01-17T10:08:50.000Z</time>
      </trkpt>
      <trkpt lat="47.4645" lon="6.77762">
        <ele>426</ele>
        <time>2016-01-17T10:08:51.000Z</time>
      </trkpt>
      <trkpt lat="47.46451" lon="6.7776">
        <ele>426</ele>
        <time>2016-01-17T10:08:52.000Z</time>
      </trkpt>
      <trkpt lat="47.46453" lon="6.77757">
        <ele>426</ele>
        <time>2016-01-17T10:08:53.000Z</time>
      </trkpt>
      <trkpt lat="47.46454" lon="6.77754">
        <ele>426</ele>
        <time>2016-01-17T10:08:54.000Z</time>
      </trkpt>
      <trkpt lat="47.46455" lon="6.77751">
        <ele>426</ele>
        <time>2016-01-17T10:08:55.000Z</time>
      </trkpt>
      <trkpt lat="47.46454" lon="6.77745">
        <ele>425</ele>
        <time>2016-01-17T10:08:57.000Z</time>
      </trkpt>
      <trkpt lat="47.46453" lon="6.77743">
        <ele>425</ele>
        <time>2016-01-17T10:08:58.000Z</time>
      </trkpt>
      <trkpt lat="47.46454" lon="6.77738">
        <ele>425</ele>
        <time>2016-01-17T10:09:06.000Z</time>
      </trkpt>
      <trkpt lat="47.46453" lon="6.77736">
        <ele>425</ele>
        <time>2016-01-17T10:09:07.000Z</time>
      </trkpt>
      <trkpt lat="47.4645" lon="6.77731">
        <ele>425</ele>
        <time>2016-01-17T10:09:09.000Z</time>
      </trkpt>
      <trkpt lat="47.46449" lon="6.77728">
        <ele>425</ele>
        <time>2016-01-17T10:09:10.000Z</time>
      </trkpt>
      <trkpt lat="47.46446" lon="6.77724">
        <ele>425</ele>
        <time>2016-01-17T10:09:12.000Z</time>
      </trkpt>
      <trkpt lat="47.46444" lon="6.77723">
        <ele>425</ele>
        <time>2016-01-17T10:09:13.000Z</time>
      </trkpt>
      <trkpt lat="47.46441" lon="6.7772">
        <ele>425</ele>
        <time>2016-01-17T10:09:15.000Z</time>
      </trkpt>
      <trkpt lat="47.46439" lon="6.77719">
        <ele>425</ele>
        <time>2016-01-17T10:09:16.000Z</time>
      </trkpt>
      <trkpt lat="47.46437" lon="6.77713">
        <ele>425</ele>
        <time>2016-01-17T10:09:18.000Z</time>
      </trkpt>
      <trkpt lat="47.46436" lon="6.7771">
        <ele>425</ele>
        <time>2016-01-17T10:09:19.000Z</time>
      </trkpt>
      <trkpt lat="47.46435" lon="6.77706">
        <ele>425</ele>
        <time>2016-01-17T10:09:20.000Z</time>
      </trkpt>
      <trkpt lat="47.46434" lon="6.77702">
        <ele>425</ele>
        <time>2016-01-17T10:09:21.000Z</time>
      </trkpt>
      <trkpt lat="47.46434" lon="6.77698">
        <ele>425</ele>
        <time>2016-01-17T10:09:22.000Z</time>
      </trkpt>
      <trkpt lat="47.46433" lon="6.77695">
        <ele>425</ele>
        <time>2016-01-17T10:09:23.000Z</time>
      </trkpt>
      <trkpt lat="47.46432" lon="6.77691">
        <ele>425</ele>
        <time>2016-01-17T10:09:24.000Z</time>
      </trkpt>
      <trkpt lat="47.46432" lon="6.77687">
        <ele>425</ele>
        <time>2016-01-17T10:09:25.000Z</time>
      </trkpt>
      <trkpt lat="47.46432" lon="6.77683">
        <ele>425</ele>
        <time>2016-01-17T10:09:26.000Z</time>
      </trkpt>
      <trkpt lat="47.46432" lon="6.7768">
        <ele>425</ele>
        <time>2016-01-17T10:09:27.000Z</time>
      </trkpt>
      <trkpt lat="47.46431" lon="6.77676">
        <ele>426</ele>
        <time>2016-01-17T10:09:28.000Z</time>
      </trkpt>
      <trkpt lat="47.46431" lon="6.77672">
        <ele>426</ele>
        <time>2016-01-17T10:09:29.000Z</time>
      </trkpt>
      <trkpt lat="47.4643" lon="6.77667">
        <ele>426</ele>
        <time>2016-01-17T10:09:30.000Z</time>
      </trkpt>
      <trkpt lat="47.46429" lon="6.77663">
        <ele>425</ele>
        <time>2016-01-17T10:09:31.000Z</time>
      </trkpt>
      <trkpt lat="47.46427" lon="6.77659">
        <ele>425</ele>
        <time>2016-01-17T10:09:32.000Z</time>
      </trkpt>
      <trkpt lat="47.46425" lon="6.77648">
        <ele>425</ele>
        <time>2016-01-17T10:09:34.000Z</time>
      </trkpt>
      <trkpt lat="47.46424" lon="6.77643">
        <ele>425</ele>
        <time>2016-01-17T10:09:35.000Z</time>
      </trkpt>
      <trkpt lat="47.46424" lon="6.77638">
        <ele>425</ele>
        <time>2016-01-17T10:09:36.000Z</time>
      </trkpt>
      <trkpt lat="47.46423" lon="6.77633">
        <ele>424</ele>
        <time>2016-01-17T10:09:37.000Z</time>
      </trkpt>
      <trkpt lat="47.46423" lon="6.77628">
        <ele>424</ele>
        <time>2016-01-17T10:09:38.000Z</time>
      </trkpt>
      <trkpt lat="47.46422" lon="6.77623">
        <ele>424</ele>
        <time>2016-01-17T10:09:39.000Z</time>
      </trkpt>
      <trkpt lat="47.46421" lon="6.77617">
        <ele>425</ele>
        <time>2016-01-17T10:09:40.000Z</time>
      </trkpt>
      <trkpt lat="47.4642" lon="6.77611">
        <ele>425</ele>
        <time>2016-01-17T10:09:41.000Z</time>
      </trkpt>
      <trkpt lat="47.46419" lon="6.77606">
        <ele>425</ele>
        <time>2016-01-17T10:09:42.000Z</time>
      </trkpt>
      <trkpt lat="47.46417" lon="6.77601">
        <ele>425</ele>
        <time>2016-01-17T10:09:43.000Z</time>
      </trkpt>
      <trkpt lat="47.46416" lon="6.77595">
        <ele>426</ele>
        <time>2016-01-17T10:09:44.000Z</time>
      </trkpt>
      <trkpt lat="47.46415" lon="6.7759">
        <ele>427</ele>
        <time>2016-01-17T10:09:45.000Z</time>
      </trkpt>
      <trkpt lat="47.46414" lon="6.77585">
        <ele>427</ele>
        <time>2016-01-17T10:09:46.000Z</time>
      </trkpt>
      <trkpt lat="47.46414" lon="6.7758">
        <ele>427</ele>
        <time>2016-01-17T10:09:47.000Z</time>
      </trkpt>
      <trkpt lat="47.46414" lon="6.77574">
        <ele>426</ele>
        <time>2016-01-17T10:09:48.000Z</time>
      </trkpt>
      <trkpt lat="47.46414" lon="6.77569">
        <ele>426</ele>
        <time>2016-01-17T10:09:49.000Z</time>
      </trkpt>
      <trkpt lat="47.46414" lon="6.77564">
        <ele>425</ele>
        <time>2016-01-17T10:09:50.000Z</time>
      </trkpt>
      <trkpt lat="47.46414" lon="6.77559">
        <ele>425</ele>
        <time>2016-01-17T10:09:51.000Z</time>
      </trkpt>
      <trkpt lat="47.46414" lon="6.77554">
        <ele>425</ele>
        <time>2016-01-17T10:09:52.000Z</time>
      </trkpt>
      <trkpt lat="47.46414" lon="6.77549">
        <ele>425</ele>
        <time>2016-01-17T10:09:53.000Z</time>
      </trkpt>
      <trkpt lat="47.46414" lon="6.77544">
        <ele>425</ele>
        <time>2016-01-17T10:09:54.000Z</time>
      </trkpt>
      <trkpt lat="47.46415" lon="6.7754">
        <ele>425</ele>
        <time>2016-01-17T10:09:55.000Z</time>
      </trkpt>
      <trkpt lat="47.46415" lon="6.77536">
        <ele>425</ele>
        <time>2016-01-17T10:09:56.000Z</time>
      </trkpt>
      <trkpt lat="47.46416" lon="6.77532">
        <ele>425</ele>
        <time>2016-01-17T10:09:57.000Z</time>
      </trkpt>
      <trkpt lat="47.46416" lon="6.77527">
        <ele>425</ele>
        <time>2016-01-17T10:09:58.000Z</time>
      </trkpt>
      <trkpt lat="47.46415" lon="6.77523">
        <ele>425</ele>
        <time>2016-01-17T10:09:59.000Z</time>
      </trkpt>
      <trkpt lat="47.46415" lon="6.77519">
        <ele>425</ele>
        <time>2016-01-17T10:10:00.000Z</time>
      </trkpt>
      <trkpt lat="47.46415" lon="6.77514">
        <ele>425</ele>
        <time>2016-01-17T10:10:01.000Z</time>
      </trkpt>
      <trkpt lat="47.46414" lon="6.7751">
        <ele>425</ele>
        <time>2016-01-17T10:10:02.000Z</time>
      </trkpt>
      <trkpt lat="47.46414" lon="6.77506">
        <ele>425</ele>
        <time>2016-01-17T10:10:03.000Z</time>
      </trkpt>
      <trkpt lat="47.46412" lon="6.77503">
        <ele>425</ele>
        <time>2016-01-17T10:10:04.000Z</time>
      </trkpt>
      <trkpt lat="47.46411" lon="6.77498">
        <ele>424</ele>
        <time>2016-01-17T10:10:05.000Z</time>
      </trkpt>
      <trkpt lat="47.4641" lon="6.77494">
        <ele>424</ele>
        <time>2016-01-17T10:10:06.000Z</time>
      </trkpt>
      <trkpt lat="47.46409" lon="6.77489">
        <ele>424</ele>
        <time>2016-01-17T10:10:07.000Z</time>
      </trkpt>
      <trkpt lat="47.46408" lon="6.77485">
        <ele>423</ele>
        <time>2016-01-17T10:10:08.000Z</time>
      </trkpt>
      <trkpt lat="47.46408" lon="6.77481">
        <ele>423</ele>
        <time>2016-01-17T10:10:09.000Z</time>
      </trkpt>
      <trkpt lat="47.46407" lon="6.77477">
        <ele>423</ele>
        <time>2016-01-17T10:10:10.000Z</time>
      </trkpt>
      <trkpt lat="47.46406" lon="6.77474">
        <ele>423</ele>
        <time>2016-01-17T10:10:11.000Z</time>
      </trkpt>
      <trkpt lat="47.46406" lon="6.77469">
        <ele>422</ele>
        <time>2016-01-17T10:10:12.000Z</time>
      </trkpt>
      <trkpt lat="47.46406" lon="6.77464">
        <ele>422</ele>
        <time>2016-01-17T10:10:13.000Z</time>
      </trkpt>
      <trkpt lat="47.46407" lon="6.77459">
        <ele>422</ele>
        <time>2016-01-17T10:10:14.000Z</time>
      </trkpt>
      <trkpt lat="47.46407" lon="6.77455">
        <ele>422</ele>
        <time>2016-01-17T10:10:15.000Z</time>
      </trkpt>
      <trkpt lat="47.46408" lon="6.7745">
        <ele>422</ele>
        <time>2016-01-17T10:10:16.000Z</time>
      </trkpt>
      <trkpt lat="47.46408" lon="6.77447">
        <ele>422</ele>
        <time>2016-01-17T10:10:17.000Z</time>
      </trkpt>
      <trkpt lat="47.4641" lon="6.77443">
        <ele>422</ele>
        <time>2016-01-17T10:10:18.000Z</time>
      </trkpt>
      <trkpt lat="47.46412" lon="6.77438">
        <ele>422</ele>
        <time>2016-01-17T10:10:20.000Z</time>
      </trkpt>
      <trkpt lat="47.46413" lon="6.77435">
        <ele>422</ele>
        <time>2016-01-17T10:10:21.000Z</time>
      </trkpt>
      <trkpt lat="47.46414" lon="6.7743">
        <ele>422</ele>
        <time>2016-01-17T10:10:23.000Z</time>
      </trkpt>
      <trkpt lat="47.46415" lon="6.77427">
        <ele>422</ele>
        <time>2016-01-17T10:10:24.000Z</time>
      </trkpt>
      <trkpt lat="47.46415" lon="6.77423">
        <ele>422</ele>
        <time>2016-01-17T10:10:25.000Z</time>
      </trkpt>
      <trkpt lat="47.46416" lon="6.77419">
        <ele>422</ele>
        <time>2016-01-17T10:10:26.000Z</time>
      </trkpt>
      <trkpt lat="47.46416" lon="6.77415">
        <ele>422</ele>
        <time>2016-01-17T10:10:27.000Z</time>
      </trkpt>
      <trkpt lat="47.46417" lon="6.77411">
        <ele>421</ele>
        <time>2016-01-17T10:10:28.000Z</time>
      </trkpt>
      <trkpt lat="47.46417" lon="6.77404">
        <ele>420</ele>
        <time>2016-01-17T10:10:30.000Z</time>
      </trkpt>
      <trkpt lat="47.46418" lon="6.77401">
        <ele>420</ele>
        <time>2016-01-17T10:10:31.000Z</time>
      </trkpt>
      <trkpt lat="47.46419" lon="6.77397">
        <ele>419</ele>
        <time>2016-01-17T10:10:32.000Z</time>
      </trkpt>
      <trkpt lat="47.46421" lon="6.77389">
        <ele>419</ele>
        <time>2016-01-17T10:10:34.000Z</time>
      </trkpt>
      <trkpt lat="47.46422" lon="6.77385">
        <ele>419</ele>
        <time>2016-01-17T10:10:35.000Z</time>
      </trkpt>
      <trkpt lat="47.46423" lon="6.77381">
        <ele>418</ele>
        <time>2016-01-17T10:10:36.000Z</time>
      </trkpt>
      <trkpt lat="47.46425" lon="6.77377">
        <ele>418</ele>
        <time>2016-01-17T10:10:37.000Z</time>
      </trkpt>
      <trkpt lat="47.46427" lon="6.77374">
        <ele>418</ele>
        <time>2016-01-17T10:10:38.000Z</time>
      </trkpt>
      <trkpt lat="47.46429" lon="6.77371">
        <ele>418</ele>
        <time>2016-01-17T10:10:39.000Z</time>
      </trkpt>
      <trkpt lat="47.46431" lon="6.77369">
        <ele>418</ele>
        <time>2016-01-17T10:10:40.000Z</time>
      </trkpt>
      <trkpt lat="47.46434" lon="6.77365">
        <ele>418</ele>
        <time>2016-01-17T10:10:42.000Z</time>
      </trkpt>
      <trkpt lat="47.46435" lon="6.77364">
        <ele>418</ele>
        <time>2016-01-17T10:10:43.000Z</time>
      </trkpt>
      <trkpt lat="47.46437" lon="6.77362">
        <ele>418</ele>
        <time>2016-01-17T10:10:44.000Z</time>
      </trkpt>
      <trkpt lat="47.4644" lon="6.7736">
        <ele>418</ele>
        <time>2016-01-17T10:10:45.000Z</time>
      </trkpt>
      <trkpt lat="47.46442" lon="6.77359">
        <ele>418</ele>
        <time>2016-01-17T10:10:46.000Z</time>
      </trkpt>
      <trkpt lat="47.46444" lon="6.77358">
        <ele>417</ele>
        <time>2016-01-17T10:10:47.000Z</time>
      </trkpt>
      <trkpt lat="47.46446" lon="6.77356">
        <ele>417</ele>
        <time>2016-01-17T10:10:48.000Z</time>
      </trkpt>
      <trkpt lat="47.46448" lon="6.77354">
        <ele>417</ele>
        <time>2016-01-17T10:10:49.000Z</time>
      </trkpt>
      <trkpt lat="47.4645" lon="6.77352">
        <ele>417</ele>
        <time>2016-01-17T10:10:50.000Z</time>
      </trkpt>
      <trkpt lat="47.46452" lon="6.77349">
        <ele>417</ele>
        <time>2016-01-17T10:10:51.000Z</time>
      </trkpt>
      <trkpt lat="47.46454" lon="6.77346">
        <ele>417</ele>
        <time>2016-01-17T10:10:52.000Z</time>
      </trkpt>
      <trkpt lat="47.46457" lon="6.77343">
        <ele>417</ele>
        <time>2016-01-17T10:10:53.000Z</time>
      </trkpt>
      <trkpt lat="47.46458" lon="6.77341">
        <ele>417</ele>
        <time>2016-01-17T10:10:54.000Z</time>
      </trkpt>
      <trkpt lat="47.4646" lon="6.77338">
        <ele>417</ele>
        <time>2016-01-17T10:10:55.000Z</time>
      </trkpt>
      <trkpt lat="47.46462" lon="6.77335">
        <ele>417</ele>
        <time>2016-01-17T10:10:56.000Z</time>
      </trkpt>
      <trkpt lat="47.46465" lon="6.77332">
        <ele>416</ele>
        <time>2016-01-17T10:10:57.000Z</time>
      </trkpt>
      <trkpt lat="47.46468" lon="6.7733">
        <ele>416</ele>
        <time>2016-01-17T10:10:58.000Z</time>
      </trkpt>
      <trkpt lat="47.46471" lon="6.77328">
        <ele>416</ele>
        <time>2016-01-17T10:10:59.000Z</time>
      </trkpt>
      <trkpt lat="47.46474" lon="6.77327">
        <ele>416</ele>
        <time>2016-01-17T10:11:00.000Z</time>
      </trkpt>
      <trkpt lat="47.46478" lon="6.77325">
        <ele>415</ele>
        <time>2016-01-17T10:11:01.000Z</time>
      </trkpt>
      <trkpt lat="47.46481" lon="6.77324">
        <ele>415</ele>
        <time>2016-01-17T10:11:02.000Z</time>
      </trkpt>
      <trkpt lat="47.46484" lon="6.77322">
        <ele>415</ele>
        <time>2016-01-17T10:11:03.000Z</time>
      </trkpt>
      <trkpt lat="47.46487" lon="6.77321">
        <ele>415</ele>
        <time>2016-01-17T10:11:03.999Z</time>
      </trkpt>
      <trkpt lat="47.46489" lon="6.77318">
        <ele>415</ele>
        <time>2016-01-17T10:11:05.000Z</time>
      </trkpt>
      <trkpt lat="47.46491" lon="6.77317">
        <ele>415</ele>
        <time>2016-01-17T10:11:06.000Z</time>
      </trkpt>
      <trkpt lat="47.46493" lon="6.77315">
        <ele>415</ele>
        <time>2016-01-17T10:11:07.000Z</time>
      </trkpt>
      <trkpt lat="47.46495" lon="6.77313">
        <ele>415</ele>
        <time>2016-01-17T10:11:08.000Z</time>
      </trkpt>
      <trkpt lat="47.46497" lon="6.7731">
        <ele>415</ele>
        <time>2016-01-17T10:11:09.000Z</time>
      </trkpt>
      <trkpt lat="47.46499" lon="6.77305">
        <ele>415</ele>
        <time>2016-01-17T10:11:10.000Z</time>
      </trkpt>
      <trkpt lat="47.46501" lon="6.773">
        <ele>412</ele>
        <time>2016-01-17T10:11:11.000Z</time>
      </trkpt>
      <trkpt lat="47.46502" lon="6.77295">
        <ele>412</ele>
        <time>2016-01-17T10:11:12.000Z</time>
      </trkpt>
      <trkpt lat="47.46504" lon="6.7729">
        <ele>412</ele>
        <time>2016-01-17T10:11:13.000Z</time>
      </trkpt>
      <trkpt lat="47.46507" lon="6.77286">
        <ele>412</ele>
        <time>2016-01-17T10:11:14.000Z</time>
      </trkpt>
      <trkpt lat="47.46509" lon="6.77281">
        <ele>412</ele>
        <time>2016-01-17T10:11:15.000Z</time>
      </trkpt>
      <trkpt lat="47.46512" lon="6.77277">
        <ele>412</ele>
        <time>2016-01-17T10:11:16.000Z</time>
      </trkpt>
      <trkpt lat="47.46514" lon="6.77273">
        <ele>412</ele>
        <time>2016-01-17T10:11:17.000Z</time>
      </trkpt>
      <trkpt lat="47.46516" lon="6.77269">
        <ele>412</ele>
        <time>2016-01-17T10:11:18.000Z</time>
      </trkpt>
      <trkpt lat="47.46518" lon="6.77264">
        <ele>412</ele>
        <time>2016-01-17T10:11:19.000Z</time>
      </trkpt>
      <trkpt lat="47.46519" lon="6.7726">
        <ele>412</ele>
        <time>2016-01-17T10:11:20.000Z</time>
      </trkpt>
      <trkpt lat="47.4652" lon="6.77256">
        <ele>412</ele>
        <time>2016-01-17T10:11:21.000Z</time>
      </trkpt>
      <trkpt lat="47.46521" lon="6.77251">
        <ele>412</ele>
        <time>2016-01-17T10:11:23.000Z</time>
      </trkpt>
      <trkpt lat="47.46521" lon="6.77248">
        <ele>411</ele>
        <time>2016-01-17T10:11:24.000Z</time>
      </trkpt>
      <trkpt lat="47.46524" lon="6.77246">
        <ele>411</ele>
        <time>2016-01-17T10:11:31.000Z</time>
      </trkpt>
      <trkpt lat="47.46525" lon="6.77245">
        <ele>411</ele>
        <time>2016-01-17T10:11:32.000Z</time>
      </trkpt>
      <trkpt lat="47.46527" lon="6.7724">
        <ele>411</ele>
        <time>2016-01-17T10:12:07.000Z</time>
      </trkpt>
      <trkpt lat="47.46527" lon="6.77239">
        <ele>411</ele>
        <time>2016-01-17T10:12:08.000Z</time>
      </trkpt>
      <trkpt lat="47.4653" lon="6.77235">
        <ele>410</ele>
        <time>2016-01-17T10:12:15.000Z</time>
      </trkpt>
      <trkpt lat="47.46531" lon="6.77234">
        <ele>410</ele>
        <time>2016-01-17T10:12:16.000Z</time>
      </trkpt>
      <trkpt lat="47.46532" lon="6.77232">
        <ele>410</ele>
        <time>2016-01-17T10:12:17.000Z</time>
      </trkpt>
      <trkpt lat="47.46535" lon="6.7723">
        <ele>410</ele>
        <time>2016-01-17T10:12:18.000Z</time>
      </trkpt>
      <trkpt lat="47.46537" lon="6.77228">
        <ele>410</ele>
        <time>2016-01-17T10:12:19.000Z</time>
      </trkpt>
      <trkpt lat="47.46539" lon="6.77226">
        <ele>410</ele>
        <time>2016-01-17T10:12:20.000Z</time>
      </trkpt>
      <trkpt lat="47.46541" lon="6.77224">
        <ele>410</ele>
        <time>2016-01-17T10:12:21.000Z</time>
      </trkpt>
      <trkpt lat="47.46543" lon="6.77222">
        <ele>410</ele>
        <time>2016-01-17T10:12:22.000Z</time>
      </trkpt>
      <trkpt lat="47.46545" lon="6.7722">
        <ele>409</ele>
        <time>2016-01-17T10:12:23.000Z</time>
      </trkpt>
      <trkpt lat="47.46548" lon="6.77218">
        <ele>409</ele>
        <time>2016-01-17T10:12:24.000Z</time>
      </trkpt>
      <trkpt lat="47.4655" lon="6.77217">
        <ele>409</ele>
        <time>2016-01-17T10:12:25.000Z</time>
      </trkpt>
      <trkpt lat="47.46553" lon="6.77215">
        <ele>409</ele>
        <time>2016-01-17T10:12:26.000Z</time>
      </trkpt>
      <trkpt lat="47.46557" lon="6.77214">
        <ele>409</ele>
        <time>2016-01-17T10:12:27.000Z</time>
      </trkpt>
      <trkpt lat="47.4656" lon="6.77212">
        <ele>409</ele>
        <time>2016-01-17T10:12:28.000Z</time>
      </trkpt>
      <trkpt lat="47.46564" lon="6.77212">
        <ele>409</ele>
        <time>2016-01-17T10:12:29.000Z</time>
      </trkpt>
      <trkpt lat="47.46569" lon="6.77212">
        <ele>408</ele>
        <time>2016-01-17T10:12:30.000Z</time>
      </trkpt>
      <trkpt lat="47.4658" lon="6.77212">
        <ele>408</ele>
        <time>2016-01-17T10:12:31.000Z</time>
      </trkpt>
      <trkpt lat="47.46588" lon="6.77214">
        <ele>400</ele>
        <time>2016-01-17T10:12:32.000Z</time>
      </trkpt>
      <trkpt lat="47.46594" lon="6.77215">
        <ele>400</ele>
        <time>2016-01-17T10:12:33.000Z</time>
      </trkpt>
      <trkpt lat="47.46599" lon="6.77218">
        <ele>400</ele>
        <time>2016-01-17T10:12:34.000Z</time>
      </trkpt>
      <trkpt lat="47.46606" lon="6.77221">
        <ele>399</ele>
        <time>2016-01-17T10:12:35.000Z</time>
      </trkpt>
      <trkpt lat="47.46613" lon="6.77224">
        <ele>398</ele>
        <time>2016-01-17T10:12:36.000Z</time>
      </trkpt>
      <trkpt lat="47.4662" lon="6.7723">
        <ele>398</ele>
        <time>2016-01-17T10:12:37.000Z</time>
      </trkpt>
      <trkpt lat="47.46626" lon="6.77234">
        <ele>397</ele>
        <time>2016-01-17T10:12:38.000Z</time>
      </trkpt>
      <trkpt lat="47.46632" lon="6.77239">
        <ele>396</ele>
        <time>2016-01-17T10:12:39.000Z</time>
      </trkpt>
      <trkpt lat="47.46637" lon="6.77245">
        <ele>395</ele>
        <time>2016-01-17T10:12:40.000Z</time>
      </trkpt>
      <trkpt lat="47.46642" lon="6.77254">
        <ele>397</ele>
        <time>2016-01-17T10:12:41.000Z</time>
      </trkpt>
      <trkpt lat="47.46647" lon="6.77263">
        <ele>396</ele>
        <time>2016-01-17T10:12:42.000Z</time>
      </trkpt>
      <trkpt lat="47.46652" lon="6.77271">
        <ele>396</ele>
        <time>2016-01-17T10:12:43.000Z</time>
      </trkpt>
      <trkpt lat="47.46656" lon="6.77279">
        <ele>397</ele>
        <time>2016-01-17T10:12:44.000Z</time>
      </trkpt>
      <trkpt lat="47.46659" lon="6.77289">
        <ele>397</ele>
        <time>2016-01-17T10:12:45.000Z</time>
      </trkpt>
      <trkpt lat="47.46662" lon="6.77298">
        <ele>398</ele>
        <time>2016-01-17T10:12:46.000Z</time>
      </trkpt>
      <trkpt lat="47.46664" lon="6.77308">
        <ele>398</ele>
        <time>2016-01-17T10:12:47.000Z</time>
      </trkpt>
      <trkpt lat="47.46666" lon="6.77319">
        <ele>397</ele>
        <time>2016-01-17T10:12:48.000Z</time>
      </trkpt>
      <trkpt lat="47.46668" lon="6.77331">
        <ele>395</ele>
        <time>2016-01-17T10:12:49.000Z</time>
      </trkpt>
      <trkpt lat="47.4667" lon="6.77344">
        <ele>392</ele>
        <time>2016-01-17T10:12:50.000Z</time>
      </trkpt>
      <trkpt lat="47.46672" lon="6.77355">
        <ele>389</ele>
        <time>2016-01-17T10:12:51.000Z</time>
      </trkpt>
      <trkpt lat="47.46675" lon="6.77368">
        <ele>388</ele>
        <time>2016-01-17T10:12:52.000Z</time>
      </trkpt>
      <trkpt lat="47.4668" lon="6.77381">
        <ele>387</ele>
        <time>2016-01-17T10:12:53.000Z</time>
      </trkpt>
      <trkpt lat="47.46684" lon="6.77394">
        <ele>388</ele>
        <time>2016-01-17T10:12:54.000Z</time>
      </trkpt>
      <trkpt lat="47.46687" lon="6.77408">
        <ele>388</ele>
        <time>2016-01-17T10:12:55.000Z</time>
      </trkpt>
      <trkpt lat="47.4669" lon="6.77421">
        <ele>387</ele>
        <time>2016-01-17T10:12:56.000Z</time>
      </trkpt>
      <trkpt lat="47.46692" lon="6.77436">
        <ele>386</ele>
        <time>2016-01-17T10:12:57.000Z</time>
      </trkpt>
      <trkpt lat="47.46695" lon="6.77448">
        <ele>385</ele>
        <time>2016-01-17T10:12:58.000Z</time>
      </trkpt>
      <trkpt lat="47.46697" lon="6.77458">
        <ele>384</ele>
        <time>2016-01-17T10:12:59.000Z</time>
      </trkpt>
      <trkpt lat="47.46701" lon="6.77469">
        <ele>384</ele>
        <time>2016-01-17T10:13:00.000Z</time>
      </trkpt>
      <trkpt lat="47.46704" lon="6.7748">
        <ele>383</ele>
        <time>2016-01-17T10:13:01.000Z</time>
      </trkpt>
      <trkpt lat="47.46708" lon="6.7749">
        <ele>383</ele>
        <time>2016-01-17T10:13:02.000Z</time>
      </trkpt>
      <trkpt lat="47.46712" lon="6.77502">
        <ele>383</ele>
        <time>2016-01-17T10:13:03.000Z</time>
      </trkpt>
      <trkpt lat="47.46715" lon="6.77516">
        <ele>383</ele>
        <time>2016-01-17T10:13:04.000Z</time>
      </trkpt>
      <trkpt lat="47.46719" lon="6.77527">
        <ele>383</ele>
        <time>2016-01-17T10:13:05.000Z</time>
      </trkpt>
      <trkpt lat="47.46723" lon="6.77538">
        <ele>383</ele>
        <time>2016-01-17T10:13:06.000Z</time>
      </trkpt>
      <trkpt lat="47.46729" lon="6.77549">
        <ele>383</ele>
        <time>2016-01-17T10:13:07.000Z</time>
      </trkpt>
      <trkpt lat="47.46733" lon="6.77561">
        <ele>382</ele>
        <time>2016-01-17T10:13:08.000Z</time>
      </trkpt>
      <trkpt lat="47.46738" lon="6.77571">
        <ele>381</ele>
        <time>2016-01-17T10:13:09.000Z</time>
      </trkpt>
      <trkpt lat="47.46743" lon="6.77582">
        <ele>380</ele>
        <time>2016-01-17T10:13:10.000Z</time>
      </trkpt>
      <trkpt lat="47.46747" lon="6.77592">
        <ele>381</ele>
        <time>2016-01-17T10:13:11.000Z</time>
      </trkpt>
      <trkpt lat="47.46751" lon="6.77602">
        <ele>373</ele>
        <time>2016-01-17T10:13:12.000Z</time>
      </trkpt>
      <trkpt lat="47.46756" lon="6.77613">
        <ele>372</ele>
        <time>2016-01-17T10:13:13.000Z</time>
      </trkpt>
      <trkpt lat="47.4676" lon="6.77624">
        <ele>371</ele>
        <time>2016-01-17T10:13:14.000Z</time>
      </trkpt>
      <trkpt lat="47.46767" lon="6.77636">
        <ele>371</ele>
        <time>2016-01-17T10:13:15.000Z</time>
      </trkpt>
      <trkpt lat="47.4677" lon="6.77647">
        <ele>371</ele>
        <time>2016-01-17T10:13:16.000Z</time>
      </trkpt>
      <trkpt lat="47.46773" lon="6.77655">
        <ele>371</ele>
        <time>2016-01-17T10:13:17.000Z</time>
      </trkpt>
      <trkpt lat="47.46778" lon="6.7766">
        <ele>370</ele>
        <time>2016-01-17T10:13:18.000Z</time>
      </trkpt>
      <trkpt lat="47.46782" lon="6.77663">
        <ele>370</ele>
        <time>2016-01-17T10:13:19.000Z</time>
      </trkpt>
      <trkpt lat="47.46786" lon="6.77662">
        <ele>369</ele>
        <time>2016-01-17T10:13:20.000Z</time>
      </trkpt>
      <trkpt lat="47.46789" lon="6.77659">
        <ele>368</ele>
        <time>2016-01-17T10:13:21.000Z</time>
      </trkpt>
      <trkpt lat="47.46792" lon="6.77656">
        <ele>367</ele>
        <time>2016-01-17T10:13:22.000Z</time>
      </trkpt>
      <trkpt lat="47.46794" lon="6.77653">
        <ele>367</ele>
        <time>2016-01-17T10:13:23.000Z</time>
      </trkpt>
      <trkpt lat="47.46796" lon="6.77651">
        <ele>367</ele>
        <time>2016-01-17T10:13:24.000Z</time>
      </trkpt>
      <trkpt lat="47.46798" lon="6.77647">
        <ele>366</ele>
        <time>2016-01-17T10:13:25.000Z</time>
      </trkpt>
      <trkpt lat="47.468" lon="6.77645">
        <ele>366</ele>
        <time>2016-01-17T10:13:26.000Z</time>
      </trkpt>
      <trkpt lat="47.46802" lon="6.77643">
        <ele>366</ele>
        <time>2016-01-17T10:13:27.000Z</time>
      </trkpt>
      <trkpt lat="47.46805" lon="6.77638">
        <ele>365</ele>
        <time>2016-01-17T10:13:29.000Z</time>
      </trkpt>
      <trkpt lat="47.46806" lon="6.77636">
        <ele>365</ele>
        <time>2016-01-17T10:13:30.000Z</time>
      </trkpt>
      <trkpt lat="47.46807" lon="6.7763">
        <ele>365</ele>
        <time>2016-01-17T10:13:35.000Z</time>
      </trkpt>
      <trkpt lat="47.46808" lon="6.77629">
        <ele>365</ele>
        <time>2016-01-17T10:13:36.000Z</time>
      </trkpt>
      <trkpt lat="47.46809" lon="6.77625">
        <ele>365</ele>
        <time>2016-01-17T10:13:55.000Z</time>
      </trkpt>
      <trkpt lat="47.4681" lon="6.77623">
        <ele>365</ele>
        <time>2016-01-17T10:13:56.000Z</time>
      </trkpt>
      <trkpt lat="47.46811" lon="6.77618">
        <ele>365</ele>
        <time>2016-01-17T10:13:58.000Z</time>
      </trkpt>
      <trkpt lat="47.46812" lon="6.77615">
        <ele>364</ele>
        <time>2016-01-17T10:13:59.000Z</time>
      </trkpt>
      <trkpt lat="47.46813" lon="6.77612">
        <ele>364</ele>
        <time>2016-01-17T10:14:00.000Z</time>
      </trkpt>
      <trkpt lat="47.46815" lon="6.77605">
        <ele>363</ele>
        <time>2016-01-17T10:14:01.000Z</time>
      </trkpt>
      <trkpt lat="47.46817" lon="6.77599">
        <ele>362</ele>
        <time>2016-01-17T10:14:02.000Z</time>
      </trkpt>
      <trkpt lat="47.46819" lon="6.77593">
        <ele>361</ele>
        <time>2016-01-17T10:14:03.000Z</time>
      </trkpt>
      <trkpt lat="47.46821" lon="6.77585">
        <ele>360</ele>
        <time>2016-01-17T10:14:04.000Z</time>
      </trkpt>
      <trkpt lat="47.46825" lon="6.77576">
        <ele>359</ele>
        <time>2016-01-17T10:14:05.000Z</time>
      </trkpt>
      <trkpt lat="47.46827" lon="6.77568">
        <ele>360</ele>
        <time>2016-01-17T10:14:06.000Z</time>
      </trkpt>
      <trkpt lat="47.4683" lon="6.77558">
        <ele>360</ele>
        <time>2016-01-17T10:14:07.000Z</time>
      </trkpt>
      <trkpt lat="47.46832" lon="6.77547">
        <ele>361</ele>
        <time>2016-01-17T10:14:08.000Z</time>
      </trkpt>
      <trkpt lat="47.46835" lon="6.77538">
        <ele>351</ele>
        <time>2016-01-17T10:14:09.000Z</time>
      </trkpt>
      <trkpt lat="47.46836" lon="6.77529">
        <ele>351</ele>
        <time>2016-01-17T10:14:10.000Z</time>
      </trkpt>
      <trkpt lat="47.46838" lon="6.77519">
        <ele>351</ele>
        <time>2016-01-17T10:14:11.000Z</time>
      </trkpt>
      <trkpt lat="47.46839" lon="6.77508">
        <ele>352</ele>
        <time>2016-01-17T10:14:12.000Z</time>
      </trkpt>
      <trkpt lat="47.4684" lon="6.77496">
        <ele>352</ele>
        <time>2016-01-17T10:14:13.000Z</time>
      </trkpt>
      <trkpt lat="47.46841" lon="6.77484">
        <ele>351</ele>
        <time>2016-01-17T10:14:14.000Z</time>
      </trkpt>
      <trkpt lat="47.46843" lon="6.77472">
        <ele>350</ele>
        <time>2016-01-17T10:14:15.000Z</time>
      </trkpt>
      <trkpt lat="47.46844" lon="6.77462">
        <ele>350</ele>
        <time>2016-01-17T10:14:16.000Z</time>
      </trkpt>
      <trkpt lat="47.46847" lon="6.77452">
        <ele>349</ele>
        <time>2016-01-17T10:14:17.000Z</time>
      </trkpt>
      <trkpt lat="47.46848" lon="6.77442">
        <ele>349</ele>
        <time>2016-01-17T10:14:18.000Z</time>
      </trkpt>
      <trkpt lat="47.46851" lon="6.77435">
        <ele>349</ele>
        <time>2016-01-17T10:14:19.000Z</time>
      </trkpt>
      <trkpt lat="47.46855" lon="6.77431">
        <ele>349</ele>
        <time>2016-01-17T10:14:20.000Z</time>
      </trkpt>
      <trkpt lat="47.46858" lon="6.7743">
        <ele>349</ele>
        <time>2016-01-17T10:14:21.000Z</time>
      </trkpt>
      <trkpt lat="47.46862" lon="6.77428">
        <ele>349</ele>
        <time>2016-01-17T10:14:22.000Z</time>
      </trkpt>
      <trkpt lat="47.46865" lon="6.7743">
        <ele>348</ele>
        <time>2016-01-17T10:14:25.000Z</time>
      </trkpt>
      <trkpt lat="47.46867" lon="6.77431">
        <ele>348</ele>
        <time>2016-01-17T10:14:26.000Z</time>
      </trkpt>
      <trkpt lat="47.4687" lon="6.77432">
        <ele>348</ele>
        <time>2016-01-17T10:14:28.000Z</time>
      </trkpt>
      <trkpt lat="47.46872" lon="6.77433">
        <ele>348</ele>
        <time>2016-01-17T10:14:29.000Z</time>
      </trkpt>
      <trkpt lat="47.46874" lon="6.77433">
        <ele>348</ele>
        <time>2016-01-17T10:14:30.000Z</time>
      </trkpt>
      <trkpt lat="47.46876" lon="6.77434">
        <ele>348</ele>
        <time>2016-01-17T10:14:31.000Z</time>
      </trkpt>
      <trkpt lat="47.46879" lon="6.77435">
        <ele>348</ele>
        <time>2016-01-17T10:14:32.000Z</time>
      </trkpt>
      <trkpt lat="47.46883" lon="6.77436">
        <ele>347</ele>
        <time>2016-01-17T10:14:33.000Z</time>
      </trkpt>
      <trkpt lat="47.46887" lon="6.77437">
        <ele>347</ele>
        <time>2016-01-17T10:14:34.000Z</time>
      </trkpt>
      <trkpt lat="47.46891" lon="6.77438">
        <ele>347</ele>
        <time>2016-01-17T10:14:35.000Z</time>
      </trkpt>
      <trkpt lat="47.46897" lon="6.7744">
        <ele>347</ele>
        <time>2016-01-17T10:14:36.000Z</time>
      </trkpt>
      <trkpt lat="47.46902" lon="6.77441">
        <ele>346</ele>
        <time>2016-01-17T10:14:36.999Z</time>
      </trkpt>
      <trkpt lat="47.46908" lon="6.77438">
        <ele>346</ele>
        <time>2016-01-17T10:14:38.000Z</time>
      </trkpt>
      <trkpt lat="47.46913" lon="6.77436">
        <ele>346</ele>
        <time>2016-01-17T10:14:39.000Z</time>
      </trkpt>
      <trkpt lat="47.46918" lon="6.77432">
        <ele>343</ele>
        <time>2016-01-17T10:14:40.000Z</time>
      </trkpt>
      <trkpt lat="47.46923" lon="6.77429">
        <ele>343</ele>
        <time>2016-01-17T10:14:41.000Z</time>
      </trkpt>
      <trkpt lat="47.46927" lon="6.77425">
        <ele>343</ele>
        <time>2016-01-17T10:14:42.000Z</time>
      </trkpt>
      <trkpt lat="47.46932" lon="6.7742">
        <ele>343</ele>
        <time>2016-01-17T10:14:43.000Z</time>
      </trkpt>
      <trkpt lat="47.46938" lon="6.77419">
        <ele>342</ele>
        <time>2016-01-17T10:14:44.000Z</time>
      </trkpt>
      <trkpt lat="47.46943" lon="6.77421">
        <ele>342</ele>
        <time>2016-01-17T10:14:45.000Z</time>
      </trkpt>
      <trkpt lat="47.46948" lon="6.77428">
        <ele>342</ele>
        <time>2016-01-17T10:14:46.000Z</time>
      </trkpt>
      <trkpt lat="47.46953" lon="6.77435">
        <ele>341</ele>
        <time>2016-01-17T10:14:47.000Z</time>
      </trkpt>
      <trkpt lat="47.46957" lon="6.77442">
        <ele>341</ele>
        <time>2016-01-17T10:14:48.000Z</time>
      </trkpt>
      <trkpt lat="47.46961" lon="6.77451">
        <ele>341</ele>
        <time>2016-01-17T10:14:49.000Z</time>
      </trkpt>
      <trkpt lat="47.46966" lon="6.77459">
        <ele>341</ele>
        <time>2016-01-17T10:14:50.000Z</time>
      </trkpt>
      <trkpt lat="47.46971" lon="6.77466">
        <ele>341</ele>
        <time>2016-01-17T10:14:51.000Z</time>
      </trkpt>
      <trkpt lat="47.46976" lon="6.77475">
        <ele>340</ele>
        <time>2016-01-17T10:14:52.000Z</time>
      </trkpt>
      <trkpt lat="47.46981" lon="6.77484">
        <ele>340</ele>
        <time>2016-01-17T10:14:53.000Z</time>
      </trkpt>
      <trkpt lat="47.46986" lon="6.77493">
        <ele>339</ele>
        <time>2016-01-17T10:14:54.000Z</time>
      </trkpt>
      <trkpt lat="47.4699" lon="6.77501">
        <ele>339</ele>
        <time>2016-01-17T10:14:55.000Z</time>
      </trkpt>
      <trkpt lat="47.46996" lon="6.7751">
        <ele>339</ele>
        <time>2016-01-17T10:14:56.000Z</time>
      </trkpt>
      <trkpt lat="47.47001" lon="6.77519">
        <ele>337</ele>
        <time>2016-01-17T10:14:56.999Z</time>
      </trkpt>
      <trkpt lat="47.47007" lon="6.77527">
        <ele>336</ele>
        <time>2016-01-17T10:14:58.000Z</time>
      </trkpt>
      <trkpt lat="47.47013" lon="6.77534">
        <ele>336</ele>
        <time>2016-01-17T10:14:59.000Z</time>
      </trkpt>
      <trkpt lat="47.47019" lon="6.77541">
        <ele>336</ele>
        <time>2016-01-17T10:15:00.000Z</time>
      </trkpt>
      <trkpt lat="47.47024" lon="6.77549">
        <ele>336</ele>
        <time>2016-01-17T10:15:01.000Z</time>
      </trkpt>
      <trkpt lat="47.4703" lon="6.77557">
        <ele>335</ele>
        <time>2016-01-17T10:15:02.000Z</time>
      </trkpt>
      <trkpt lat="47.47035" lon="6.77565">
        <ele>335</ele>
        <time>2016-01-17T10:15:03.000Z</time>
      </trkpt>
      <trkpt lat="47.47043" lon="6.77571">
        <ele>335</ele>
        <time>2016-01-17T10:15:04.000Z</time>
      </trkpt>
      <trkpt lat="47.47049" lon="6.77578">
        <ele>335</ele>
        <time>2016-01-17T10:15:05.000Z</time>
      </trkpt>
      <trkpt lat="47.47055" lon="6.77585">
        <ele>334</ele>
        <time>2016-01-17T10:15:06.000Z</time>
      </trkpt>
      <trkpt lat="47.47061" lon="6.77593">
        <ele>334</ele>
        <time>2016-01-17T10:15:07.000Z</time>
      </trkpt>
      <trkpt lat="47.47066" lon="6.77601">
        <ele>334</ele>
        <time>2016-01-17T10:15:08.000Z</time>
      </trkpt>
      <trkpt lat="47.47071" lon="6.77608">
        <ele>334</ele>
        <time>2016-01-17T10:15:09.000Z</time>
      </trkpt>
      <trkpt lat="47.47076" lon="6.77615">
        <ele>334</ele>
        <time>2016-01-17T10:15:10.000Z</time>
      </trkpt>
      <trkpt lat="47.47082" lon="6.77622">
        <ele>334</ele>
        <time>2016-01-17T10:15:11.000Z</time>
      </trkpt>
      <trkpt lat="47.47088" lon="6.77628">
        <ele>334</ele>
        <time>2016-01-17T10:15:12.000Z</time>
      </trkpt>
      <trkpt lat="47.47093" lon="6.77634">
        <ele>334</ele>
        <time>2016-01-17T10:15:13.000Z</time>
      </trkpt>
      <trkpt lat="47.47098" lon="6.77639">
        <ele>334</ele>
        <time>2016-01-17T10:15:14.000Z</time>
      </trkpt>
      <trkpt lat="47.47102" lon="6.77645">
        <ele>334</ele>
        <time>2016-01-17T10:15:15.000Z</time>
      </trkpt>
      <trkpt lat="47.47106" lon="6.7765">
        <ele>334</ele>
        <time>2016-01-17T10:15:16.000Z</time>
      </trkpt>
      <trkpt lat="47.47109" lon="6.77655">
        <ele>334</ele>
        <time>2016-01-17T10:15:17.000Z</time>
      </trkpt>
      <trkpt lat="47.47113" lon="6.7766">
        <ele>334</ele>
        <time>2016-01-17T10:15:18.000Z</time>
      </trkpt>
      <trkpt lat="47.47116" lon="6.77662">
        <ele>334</ele>
        <time>2016-01-17T10:15:19.000Z</time>
      </trkpt>
      <trkpt lat="47.4712" lon="6.77664">
        <ele>334</ele>
        <time>2016-01-17T10:15:20.000Z</time>
      </trkpt>
      <trkpt lat="47.47122" lon="6.7767">
        <ele>336</ele>
        <time>2016-01-17T10:15:24.000Z</time>
      </trkpt>
      <trkpt lat="47.47122" lon="6.77671">
        <ele>336</ele>
        <time>2016-01-17T10:15:25.001Z</time>
      </trkpt>
      <trkpt lat="47.47122" lon="6.77672">
        <ele>336</ele>
        <time>2016-01-17T10:15:26.000Z</time>
      </trkpt>
      <trkpt lat="47.47125" lon="6.77666">
        <ele>335</ele>
        <time>2016-01-17T10:15:27.000Z</time>
      </trkpt>
      <trkpt lat="47.47127" lon="6.77662">
        <ele>335</ele>
        <time>2016-01-17T10:15:29.000Z</time>
      </trkpt>
      <trkpt lat="47.47128" lon="6.77658">
        <ele>335</ele>
        <time>2016-01-17T10:15:30.000Z</time>
      </trkpt>
      <trkpt lat="47.4713" lon="6.77655">
        <ele>335</ele>
        <time>2016-01-17T10:15:31.000Z</time>
      </trkpt>
      <trkpt lat="47.47131" lon="6.77651">
        <ele>335</ele>
        <time>2016-01-17T10:15:32.000Z</time>
      </trkpt>
      <trkpt lat="47.4713" lon="6.77647">
        <ele>335</ele>
        <time>2016-01-17T10:15:33.000Z</time>
      </trkpt>
      <trkpt lat="47.47129" lon="6.77643">
        <ele>335</ele>
        <time>2016-01-17T10:15:34.000Z</time>
      </trkpt>
      <trkpt lat="47.47128" lon="6.77639">
        <ele>334</ele>
        <time>2016-01-17T10:15:35.000Z</time>
      </trkpt>
      <trkpt lat="47.4713" lon="6.77632">
        <ele>334</ele>
        <time>2016-01-17T10:15:36.000Z</time>
      </trkpt>
      <trkpt lat="47.47133" lon="6.77625">
        <ele>334</ele>
        <time>2016-01-17T10:15:37.000Z</time>
      </trkpt>
      <trkpt lat="47.47135" lon="6.77619">
        <ele>334</ele>
        <time>2016-01-17T10:15:38.000Z</time>
      </trkpt>
      <trkpt lat="47.47139" lon="6.77612">
        <ele>334</ele>
        <time>2016-01-17T10:15:39.000Z</time>
      </trkpt>
      <trkpt lat="47.47142" lon="6.77606">
        <ele>334</ele>
        <time>2016-01-17T10:15:40.000Z</time>
      </trkpt>
      <trkpt lat="47.47145" lon="6.776">
        <ele>334</ele>
        <time>2016-01-17T10:15:41.000Z</time>
      </trkpt>
      <trkpt lat="47.47148" lon="6.77595">
        <ele>334</ele>
        <time>2016-01-17T10:15:42.000Z</time>
      </trkpt>
      <trkpt lat="47.47151" lon="6.7759">
        <ele>334</ele>
        <time>2016-01-17T10:15:43.000Z</time>
      </trkpt>
      <trkpt lat="47.47154" lon="6.77584">
        <ele>334</ele>
        <time>2016-01-17T10:15:44.000Z</time>
      </trkpt>
      <trkpt lat="47.47157" lon="6.7758">
        <ele>334</ele>
        <time>2016-01-17T10:15:45.000Z</time>
      </trkpt>
      <trkpt lat="47.4716" lon="6.77575">
        <ele>334</ele>
        <time>2016-01-17T10:15:46.000Z</time>
      </trkpt>
      <trkpt lat="47.47163" lon="6.77571">
        <ele>334</ele>
        <time>2016-01-17T10:15:47.000Z</time>
      </trkpt>
      <trkpt lat="47.47166" lon="6.77568">
        <ele>334</ele>
        <time>2016-01-17T10:15:48.000Z</time>
      </trkpt>
      <trkpt lat="47.47169" lon="6.77565">
        <ele>333</ele>
        <time>2016-01-17T10:15:49.000Z</time>
      </trkpt>
      <trkpt lat="47.47172" lon="6.77562">
        <ele>332</ele>
        <time>2016-01-17T10:15:50.000Z</time>
      </trkpt>
      <trkpt lat="47.47174" lon="6.7756">
        <ele>332</ele>
        <time>2016-01-17T10:15:51.000Z</time>
      </trkpt>
      <trkpt lat="47.47178" lon="6.77558">
        <ele>332</ele>
        <time>2016-01-17T10:15:52.000Z</time>
      </trkpt>
      <trkpt lat="47.47182" lon="6.77558">
        <ele>332</ele>
        <time>2016-01-17T10:15:53.000Z</time>
      </trkpt>
      <trkpt lat="47.47186" lon="6.77558">
        <ele>332</ele>
        <time>2016-01-17T10:15:54.000Z</time>
      </trkpt>
      <trkpt lat="47.4719" lon="6.77559">
        <ele>332</ele>
        <time>2016-01-17T10:15:55.000Z</time>
      </trkpt>
      <trkpt lat="47.47194" lon="6.77559">
        <ele>332</ele>
        <time>2016-01-17T10:15:56.000Z</time>
      </trkpt>
      <trkpt lat="47.47197" lon="6.7756">
        <ele>332</ele>
        <time>2016-01-17T10:15:57.001Z</time>
      </trkpt>
      <trkpt lat="47.47204" lon="6.77562">
        <ele>332</ele>
        <time>2016-01-17T10:15:58.000Z</time>
      </trkpt>
      <trkpt lat="47.47208" lon="6.77563">
        <ele>331</ele>
        <time>2016-01-17T10:15:59.000Z</time>
      </trkpt>
      <trkpt lat="47.47213" lon="6.77564">
        <ele>331</ele>
        <time>2016-01-17T10:16:00.000Z</time>
      </trkpt>
      <trkpt lat="47.47217" lon="6.77565">
        <ele>331</ele>
        <time>2016-01-17T10:16:01.000Z</time>
      </trkpt>
      <trkpt lat="47.47223" lon="6.77565">
        <ele>331</ele>
        <time>2016-01-17T10:16:02.000Z</time>
      </trkpt>
      <trkpt lat="47.4723" lon="6.77565">
        <ele>331</ele>
        <time>2016-01-17T10:16:03.000Z</time>
      </trkpt>
      <trkpt lat="47.47237" lon="6.77564">
        <ele>331</ele>
        <time>2016-01-17T10:16:04.000Z</time>
      </trkpt>
      <trkpt lat="47.47242" lon="6.77564">
        <ele>331</ele>
        <time>2016-01-17T10:16:05.000Z</time>
      </trkpt>
      <trkpt lat="47.47248" lon="6.77564">
        <ele>331</ele>
        <time>2016-01-17T10:16:06.000Z</time>
      </trkpt>
      <trkpt lat="47.47252" lon="6.77564">
        <ele>328</ele>
        <time>2016-01-17T10:16:07.000Z</time>
      </trkpt>
      <trkpt lat="47.47258" lon="6.77564">
        <ele>328</ele>
        <time>2016-01-17T10:16:08.000Z</time>
      </trkpt>
      <trkpt lat="47.47263" lon="6.77564">
        <ele>328</ele>
        <time>2016-01-17T10:16:08.999Z</time>
      </trkpt>
      <trkpt lat="47.47268" lon="6.77564">
        <ele>328</ele>
        <time>2016-01-17T10:16:10.000Z</time>
      </trkpt>
      <trkpt lat="47.47273" lon="6.77564">
        <ele>328</ele>
        <time>2016-01-17T10:16:11.000Z</time>
      </trkpt>
      <trkpt lat="47.47278" lon="6.77563">
        <ele>327</ele>
        <time>2016-01-17T10:16:12.000Z</time>
      </trkpt>
      <trkpt lat="47.47282" lon="6.77563">
        <ele>327</ele>
        <time>2016-01-17T10:16:13.000Z</time>
      </trkpt>
      <trkpt lat="47.47287" lon="6.77563">
        <ele>327</ele>
        <time>2016-01-17T10:16:14.000Z</time>
      </trkpt>
      <trkpt lat="47.47294" lon="6.77564">
        <ele>327</ele>
        <time>2016-01-17T10:16:15.000Z</time>
      </trkpt>
      <trkpt lat="47.473" lon="6.77563">
        <ele>326</ele>
        <time>2016-01-17T10:16:16.000Z</time>
      </trkpt>
      <trkpt lat="47.47306" lon="6.77563">
        <ele>326</ele>
        <time>2016-01-17T10:16:16.999Z</time>
      </trkpt>
      <trkpt lat="47.47313" lon="6.77562">
        <ele>326</ele>
        <time>2016-01-17T10:16:18.000Z</time>
      </trkpt>
      <trkpt lat="47.4732" lon="6.77562">
        <ele>326</ele>
        <time>2016-01-17T10:16:19.000Z</time>
      </trkpt>
      <trkpt lat="47.47327" lon="6.77562">
        <ele>326</ele>
        <time>2016-01-17T10:16:20.000Z</time>
      </trkpt>
      <trkpt lat="47.47334" lon="6.77562">
        <ele>323</ele>
        <time>2016-01-17T10:16:21.000Z</time>
      </trkpt>
      <trkpt lat="47.47341" lon="6.77562">
        <ele>323</ele>
        <time>2016-01-17T10:16:22.000Z</time>
      </trkpt>
      <trkpt lat="47.47348" lon="6.77561">
        <ele>323</ele>
        <time>2016-01-17T10:16:23.000Z</time>
      </trkpt>
      <trkpt lat="47.47355" lon="6.77561">
        <ele>323</ele>
        <time>2016-01-17T10:16:24.000Z</time>
      </trkpt>
      <trkpt lat="47.47362" lon="6.77563">
        <ele>323</ele>
        <time>2016-01-17T10:16:25.000Z</time>
      </trkpt>
      <trkpt lat="47.4737" lon="6.77563">
        <ele>322</ele>
        <time>2016-01-17T10:16:26.000Z</time>
      </trkpt>
      <trkpt lat="47.47378" lon="6.77564">
        <ele>322</ele>
        <time>2016-01-17T10:16:27.000Z</time>
      </trkpt>
      <trkpt lat="47.47386" lon="6.77563">
        <ele>322</ele>
        <time>2016-01-17T10:16:28.000Z</time>
      </trkpt>
      <trkpt lat="47.47393" lon="6.77562">
        <ele>322</ele>
        <time>2016-01-17T10:16:29.000Z</time>
      </trkpt>
      <trkpt lat="47.47401" lon="6.7756">
        <ele>322</ele>
        <time>2016-01-17T10:16:30.000Z</time>
      </trkpt>
      <trkpt lat="47.47409" lon="6.77558">
        <ele>321</ele>
        <time>2016-01-17T10:16:31.000Z</time>
      </trkpt>
      <trkpt lat="47.47416" lon="6.77555">
        <ele>321</ele>
        <time>2016-01-17T10:16:32.000Z</time>
      </trkpt>
      <trkpt lat="47.4743" lon="6.77548">
        <ele>319</ele>
        <time>2016-01-17T10:16:34.000Z</time>
      </trkpt>
      <trkpt lat="47.47436" lon="6.77543">
        <ele>319</ele>
        <time>2016-01-17T10:16:35.000Z</time>
      </trkpt>
      <trkpt lat="47.47442" lon="6.77539">
        <ele>319</ele>
        <time>2016-01-17T10:16:36.000Z</time>
      </trkpt>
      <trkpt lat="47.47447" lon="6.77537">
        <ele>319</ele>
        <time>2016-01-17T10:16:37.000Z</time>
      </trkpt>
      <trkpt lat="47.47453" lon="6.77535">
        <ele>319</ele>
        <time>2016-01-17T10:16:38.000Z</time>
      </trkpt>
      <trkpt lat="47.47459" lon="6.77534">
        <ele>319</ele>
        <time>2016-01-17T10:16:39.000Z</time>
      </trkpt>
      <trkpt lat="47.47464" lon="6.7753">
        <ele>319</ele>
        <time>2016-01-17T10:16:40.000Z</time>
      </trkpt>
      <trkpt lat="47.47469" lon="6.77524">
        <ele>318</ele>
        <time>2016-01-17T10:16:41.000Z</time>
      </trkpt>
      <trkpt lat="47.47473" lon="6.77518">
        <ele>318</ele>
        <time>2016-01-17T10:16:42.000Z</time>
      </trkpt>
      <trkpt lat="47.47477" lon="6.77512">
        <ele>318</ele>
        <time>2016-01-17T10:16:43.000Z</time>
      </trkpt>
      <trkpt lat="47.47482" lon="6.77505">
        <ele>318</ele>
        <time>2016-01-17T10:16:44.000Z</time>
      </trkpt>
      <trkpt lat="47.47485" lon="6.77499">
        <ele>317</ele>
        <time>2016-01-17T10:16:45.000Z</time>
      </trkpt>
      <trkpt lat="47.47489" lon="6.77492">
        <ele>317</ele>
        <time>2016-01-17T10:16:46.000Z</time>
      </trkpt>
      <trkpt lat="47.47492" lon="6.77486">
        <ele>317</ele>
        <time>2016-01-17T10:16:47.000Z</time>
      </trkpt>
      <trkpt lat="47.47495" lon="6.7748">
        <ele>317</ele>
        <time>2016-01-17T10:16:48.000Z</time>
      </trkpt>
      <trkpt lat="47.47498" lon="6.77473">
        <ele>317</ele>
        <time>2016-01-17T10:16:49.000Z</time>
      </trkpt>
      <trkpt lat="47.47501" lon="6.77468">
        <ele>316</ele>
        <time>2016-01-17T10:16:50.000Z</time>
      </trkpt>
      <trkpt lat="47.47504" lon="6.77462">
        <ele>316</ele>
        <time>2016-01-17T10:16:51.000Z</time>
      </trkpt>
      <trkpt lat="47.47508" lon="6.77457">
        <ele>316</ele>
        <time>2016-01-17T10:16:52.000Z</time>
      </trkpt>
      <trkpt lat="47.4751" lon="6.77452">
        <ele>316</ele>
        <time>2016-01-17T10:16:53.000Z</time>
      </trkpt>
      <trkpt lat="47.47513" lon="6.77448">
        <ele>316</ele>
        <time>2016-01-17T10:16:54.000Z</time>
      </trkpt>
      <trkpt lat="47.47514" lon="6.77445">
        <ele>316</ele>
        <time>2016-01-17T10:16:55.000Z</time>
      </trkpt>
      <trkpt lat="47.47515" lon="6.77441">
        <ele>316</ele>
        <time>2016-01-17T10:16:56.000Z</time>
      </trkpt>
      <trkpt lat="47.47516" lon="6.77445">
        <ele>316</ele>
        <time>2016-01-17T10:17:14.000Z</time>
      </trkpt>
      <trkpt lat="47.47514" lon="6.77448">
        <ele>316</ele>
        <time>2016-01-17T10:17:15.000Z</time>
      </trkpt>
      <trkpt lat="47.47512" lon="6.77451">
        <ele>316</ele>
        <time>2016-01-17T10:17:16.000Z</time>
      </trkpt>
      <trkpt lat="47.47509" lon="6.77454">
        <ele>316</ele>
        <time>2016-01-17T10:17:17.000Z</time>
      </trkpt>
      <trkpt lat="47.47507" lon="6.77458">
        <ele>316</ele>
        <time>2016-01-17T10:17:18.000Z</time>
      </trkpt>
      <trkpt lat="47.47504" lon="6.77462">
        <ele>316</ele>
        <time>2016-01-17T10:17:19.000Z</time>
      </trkpt>
      <trkpt lat="47.47502" lon="6.77466">
        <ele>316</ele>
        <time>2016-01-17T10:17:20.000Z</time>
      </trkpt>
      <trkpt lat="47.475" lon="6.7747">
        <ele>317</ele>
        <time>2016-01-17T10:17:21.000Z</time>
      </trkpt>
      <trkpt lat="47.47497" lon="6.77474">
        <ele>317</ele>
        <time>2016-01-17T10:17:22.000Z</time>
      </trkpt>
      <trkpt lat="47.47495" lon="6.77478">
        <ele>317</ele>
        <time>2016-01-17T10:17:23.000Z</time>
      </trkpt>
      <trkpt lat="47.47493" lon="6.7748">
        <ele>317</ele>
        <time>2016-01-17T10:17:24.000Z</time>
      </trkpt>
      <trkpt lat="47.47492" lon="6.77483">
        <ele>317</ele>
        <time>2016-01-17T10:17:25.000Z</time>
      </trkpt>
      <trkpt lat="47.47496" lon="6.77484">
        <ele>317</ele>
        <time>2016-01-17T10:17:54.000Z</time>
      </trkpt>
      <trkpt lat="47.47496" lon="6.77484">
        <ele>317</ele>
        <time>2016-01-17T10:17:55.000Z</time>
      </trkpt>
      <trkpt lat="47.47498" lon="6.7748">
        <ele>317</ele>
        <time>2016-01-17T10:24:41.000Z</time>
      </trkpt>
      <trkpt lat="47.47499" lon="6.77479">
        <ele>317</ele>
        <time>2016-01-17T10:24:42.000Z</time>
      </trkpt>
      <trkpt lat="47.47501" lon="6.77475">
        <ele>316</ele>
        <time>2016-01-17T10:24:44.000Z</time>
      </trkpt>
      <trkpt lat="47.47502" lon="6.77472">
        <ele>316</ele>
        <time>2016-01-17T10:24:45.000Z</time>
      </trkpt>
      <trkpt lat="47.47503" lon="6.77469">
        <ele>316</ele>
        <time>2016-01-17T10:24:46.000Z</time>
      </trkpt>
      <trkpt lat="47.47505" lon="6.77465">
        <ele>316</ele>
        <time>2016-01-17T10:24:47.000Z</time>
      </trkpt>
      <trkpt lat="47.47507" lon="6.77463">
        <ele>316</ele>
        <time>2016-01-17T10:24:48.000Z</time>
      </trkpt>
      <trkpt lat="47.47509" lon="6.7746">
        <ele>316</ele>
        <time>2016-01-17T10:24:49.000Z</time>
      </trkpt>
      <trkpt lat="47.4751" lon="6.77457">
        <ele>316</ele>
        <time>2016-01-17T10:24:50.000Z</time>
      </trkpt>
      <trkpt lat="47.47512" lon="6.77454">
        <ele>316</ele>
        <time>2016-01-17T10:24:51.000Z</time>
      </trkpt>
      <trkpt lat="47.47513" lon="6.77452">
        <ele>316</ele>
        <time>2016-01-17T10:24:52.000Z</time>
      </trkpt>
      <trkpt lat="47.47514" lon="6.77449">
        <ele>316</ele>
        <time>2016-01-17T10:24:53.000Z</time>
      </trkpt>
      <trkpt lat="47.47515" lon="6.77445">
        <ele>316</ele>
        <time>2016-01-17T10:24:54.000Z</time>
      </trkpt>
      <trkpt lat="47.47517" lon="6.77442">
        <ele>316</ele>
        <time>2016-01-17T10:24:55.000Z</time>
      </trkpt>
      <trkpt lat="47.47518" lon="6.77438">
        <ele>316</ele>
        <time>2016-01-17T10:24:56.000Z</time>
      </trkpt>
      <trkpt lat="47.47519" lon="6.77434">
        <ele>316</ele>
        <time>2016-01-17T10:24:57.000Z</time>
      </trkpt>
      <trkpt lat="47.47521" lon="6.7743">
        <ele>316</ele>
        <time>2016-01-17T10:24:58.000Z</time>
      </trkpt>
      <trkpt lat="47.47522" lon="6.77426">
        <ele>316</ele>
        <time>2016-01-17T10:24:59.000Z</time>
      </trkpt>
      <trkpt lat="47.47524" lon="6.77423">
        <ele>316</ele>
        <time>2016-01-17T10:25:00.000Z</time>
      </trkpt>
      <trkpt lat="47.47527" lon="6.77419">
        <ele>316</ele>
        <time>2016-01-17T10:25:01.000Z</time>
      </trkpt>
      <trkpt lat="47.4753" lon="6.77416">
        <ele>315</ele>
        <time>2016-01-17T10:25:02.000Z</time>
      </trkpt>
      <trkpt lat="47.47533" lon="6.77412">
        <ele>315</ele>
        <time>2016-01-17T10:25:03.000Z</time>
      </trkpt>
      <trkpt lat="47.47538" lon="6.7741">
        <ele>315</ele>
        <time>2016-01-17T10:25:04.000Z</time>
      </trkpt>
      <trkpt lat="47.47542" lon="6.77409">
        <ele>314</ele>
        <time>2016-01-17T10:25:05.000Z</time>
      </trkpt>
      <trkpt lat="47.47547" lon="6.77409">
        <ele>314</ele>
        <time>2016-01-17T10:25:06.000Z</time>
      </trkpt>
      <trkpt lat="47.47551" lon="6.77411">
        <ele>314</ele>
        <time>2016-01-17T10:25:07.000Z</time>
      </trkpt>
      <trkpt lat="47.47555" lon="6.77414">
        <ele>314</ele>
        <time>2016-01-17T10:25:08.000Z</time>
      </trkpt>
      <trkpt lat="47.47558" lon="6.77417">
        <ele>315</ele>
        <time>2016-01-17T10:25:09.000Z</time>
      </trkpt>
      <trkpt lat="47.47562" lon="6.7742">
        <ele>315</ele>
        <time>2016-01-17T10:25:10.000Z</time>
      </trkpt>
      <trkpt lat="47.47565" lon="6.77424">
        <ele>315</ele>
        <time>2016-01-17T10:25:11.000Z</time>
      </trkpt>
      <trkpt lat="47.47569" lon="6.77427">
        <ele>315</ele>
        <time>2016-01-17T10:25:12.000Z</time>
      </trkpt>
      <trkpt lat="47.47573" lon="6.7743">
        <ele>315</ele>
        <time>2016-01-17T10:25:13.000Z</time>
      </trkpt>
      <trkpt lat="47.47576" lon="6.77434">
        <ele>315</ele>
        <time>2016-01-17T10:25:14.000Z</time>
      </trkpt>
      <trkpt lat="47.4758" lon="6.77437">
        <ele>315</ele>
        <time>2016-01-17T10:25:15.000Z</time>
      </trkpt>
      <trkpt lat="47.47584" lon="6.77441">
        <ele>314</ele>
        <time>2016-01-17T10:25:16.000Z</time>
      </trkpt>
      <trkpt lat="47.47588" lon="6.77443">
        <ele>314</ele>
        <time>2016-01-17T10:25:17.000Z</time>
      </trkpt>
      <trkpt lat="47.47591" lon="6.77445">
        <ele>314</ele>
        <time>2016-01-17T10:25:18.000Z</time>
      </trkpt>
      <trkpt lat="47.47594" lon="6.77445">
        <ele>314</ele>
        <time>2016-01-17T10:25:19.000Z</time>
      </trkpt>
      <trkpt lat="47.47597" lon="6.77442">
        <ele>314</ele>
        <time>2016-01-17T10:25:20.000Z</time>
      </trkpt>
      <trkpt lat="47.47599" lon="6.77429">
        <ele>314</ele>
        <time>2016-01-17T10:25:21.000Z</time>
      </trkpt>
      <trkpt lat="47.476" lon="6.77422">
        <ele>314</ele>
        <time>2016-01-17T10:25:22.000Z</time>
      </trkpt>
      <trkpt lat="47.47602" lon="6.77416">
        <ele>313</ele>
        <time>2016-01-17T10:25:23.000Z</time>
      </trkpt>
      <trkpt lat="47.47605" lon="6.7741">
        <ele>313</ele>
        <time>2016-01-17T10:25:24.000Z</time>
      </trkpt>
      <trkpt lat="47.47608" lon="6.77404">
        <ele>313</ele>
        <time>2016-01-17T10:25:25.000Z</time>
      </trkpt>
      <trkpt lat="47.47611" lon="6.77398">
        <ele>313</ele>
        <time>2016-01-17T10:25:26.000Z</time>
      </trkpt>
      <trkpt lat="47.47613" lon="6.77392">
        <ele>312</ele>
        <time>2016-01-17T10:25:27.000Z</time>
      </trkpt>
      <trkpt lat="47.47615" lon="6.77386">
        <ele>312</ele>
        <time>2016-01-17T10:25:28.000Z</time>
      </trkpt>
      <trkpt lat="47.47617" lon="6.7738">
        <ele>312</ele>
        <time>2016-01-17T10:25:29.000Z</time>
      </trkpt>
      <trkpt lat="47.47619" lon="6.77374">
        <ele>312</ele>
        <time>2016-01-17T10:25:30.000Z</time>
      </trkpt>
      <trkpt lat="47.47621" lon="6.77367">
        <ele>312</ele>
        <time>2016-01-17T10:25:31.000Z</time>
      </trkpt>
      <trkpt lat="47.47624" lon="6.7736">
        <ele>312</ele>
        <time>2016-01-17T10:25:32.000Z</time>
      </trkpt>
      <trkpt lat="47.47627" lon="6.77352">
        <ele>312</ele>
        <time>2016-01-17T10:25:33.000Z</time>
      </trkpt>
      <trkpt lat="47.47629" lon="6.77346">
        <ele>312</ele>
        <time>2016-01-17T10:25:34.000Z</time>
      </trkpt>
      <trkpt lat="47.47631" lon="6.7734">
        <ele>312</ele>
        <time>2016-01-17T10:25:35.000Z</time>
      </trkpt>
      <trkpt lat="47.47634" lon="6.77334">
        <ele>311</ele>
        <time>2016-01-17T10:25:36.000Z</time>
      </trkpt>
      <trkpt lat="47.47637" lon="6.77328">
        <ele>311</ele>
        <time>2016-01-17T10:25:37.000Z</time>
      </trkpt>
      <trkpt lat="47.47639" lon="6.77321">
        <ele>311</ele>
        <time>2016-01-17T10:25:38.000Z</time>
      </trkpt>
      <trkpt lat="47.47641" lon="6.77316">
        <ele>311</ele>
        <time>2016-01-17T10:25:39.000Z</time>
      </trkpt>
      <trkpt lat="47.47643" lon="6.7731">
        <ele>311</ele>
        <time>2016-01-17T10:25:40.000Z</time>
      </trkpt>
      <trkpt lat="47.47645" lon="6.77304">
        <ele>311</ele>
        <time>2016-01-17T10:25:41.000Z</time>
      </trkpt>
      <trkpt lat="47.47646" lon="6.77299">
        <ele>310</ele>
        <time>2016-01-17T10:25:42.000Z</time>
      </trkpt>
      <trkpt lat="47.47646" lon="6.77292">
        <ele>310</ele>
        <time>2016-01-17T10:25:43.000Z</time>
      </trkpt>
      <trkpt lat="47.47646" lon="6.77285">
        <ele>310</ele>
        <time>2016-01-17T10:25:44.000Z</time>
      </trkpt>
      <trkpt lat="47.47644" lon="6.77279">
        <ele>310</ele>
        <time>2016-01-17T10:25:45.000Z</time>
      </trkpt>
      <trkpt lat="47.47642" lon="6.77272">
        <ele>310</ele>
        <time>2016-01-17T10:25:46.000Z</time>
      </trkpt>
      <trkpt lat="47.47638" lon="6.77268">
        <ele>310</ele>
        <time>2016-01-17T10:25:47.000Z</time>
      </trkpt>
      <trkpt lat="47.47633" lon="6.77264">
        <ele>310</ele>
        <time>2016-01-17T10:25:48.000Z</time>
      </trkpt>
      <trkpt lat="47.47629" lon="6.7726">
        <ele>311</ele>
        <time>2016-01-17T10:25:49.000Z</time>
      </trkpt>
      <trkpt lat="47.47624" lon="6.77257">
        <ele>311</ele>
        <time>2016-01-17T10:25:50.000Z</time>
      </trkpt>
      <trkpt lat="47.4762" lon="6.77253">
        <ele>311</ele>
        <time>2016-01-17T10:25:51.000Z</time>
      </trkpt>
      <trkpt lat="47.47615" lon="6.77249">
        <ele>310</ele>
        <time>2016-01-17T10:25:52.000Z</time>
      </trkpt>
      <trkpt lat="47.4761" lon="6.77245">
        <ele>311</ele>
        <time>2016-01-17T10:25:53.000Z</time>
      </trkpt>
      <trkpt lat="47.47606" lon="6.77241">
        <ele>311</ele>
        <time>2016-01-17T10:25:54.000Z</time>
      </trkpt>
      <trkpt lat="47.47602" lon="6.77238">
        <ele>311</ele>
        <time>2016-01-17T10:25:55.000Z</time>
      </trkpt>
      <trkpt lat="47.47597" lon="6.77234">
        <ele>311</ele>
        <time>2016-01-17T10:25:56.000Z</time>
      </trkpt>
      <trkpt lat="47.47592" lon="6.77231">
        <ele>311</ele>
        <time>2016-01-17T10:25:57.000Z</time>
      </trkpt>
      <trkpt lat="47.47588" lon="6.77227">
        <ele>311</ele>
        <time>2016-01-17T10:25:58.000Z</time>
      </trkpt>
      <trkpt lat="47.47583" lon="6.77224">
        <ele>311</ele>
        <time>2016-01-17T10:25:59.000Z</time>
      </trkpt>
      <trkpt lat="47.47578" lon="6.7722">
        <ele>311</ele>
        <time>2016-01-17T10:26:00.000Z</time>
      </trkpt>
      <trkpt lat="47.47574" lon="6.77217">
        <ele>311</ele>
        <time>2016-01-17T10:26:01.000Z</time>
      </trkpt>
      <trkpt lat="47.47569" lon="6.77214">
        <ele>311</ele>
        <time>2016-01-17T10:26:02.000Z</time>
      </trkpt>
      <trkpt lat="47.47565" lon="6.7721">
        <ele>311</ele>
        <time>2016-01-17T10:26:03.000Z</time>
      </trkpt>
      <trkpt lat="47.47561" lon="6.77207">
        <ele>310</ele>
        <time>2016-01-17T10:26:04.000Z</time>
      </trkpt>
      <trkpt lat="47.47556" lon="6.77204">
        <ele>310</ele>
        <time>2016-01-17T10:26:05.000Z</time>
      </trkpt>
      <trkpt lat="47.47552" lon="6.77201">
        <ele>310</ele>
        <time>2016-01-17T10:26:06.000Z</time>
      </trkpt>
      <trkpt lat="47.47548" lon="6.77198">
        <ele>310</ele>
        <time>2016-01-17T10:26:07.000Z</time>
      </trkpt>
      <trkpt lat="47.47544" lon="6.77196">
        <ele>310</ele>
        <time>2016-01-17T10:26:08.000Z</time>
      </trkpt>
      <trkpt lat="47.4754" lon="6.77195">
        <ele>310</ele>
        <time>2016-01-17T10:26:09.000Z</time>
      </trkpt>
      <trkpt lat="47.47536" lon="6.77193">
        <ele>310</ele>
        <time>2016-01-17T10:26:10.000Z</time>
      </trkpt>
      <trkpt lat="47.47532" lon="6.7719">
        <ele>310</ele>
        <time>2016-01-17T10:26:11.000Z</time>
      </trkpt>
      <trkpt lat="47.47529" lon="6.77187">
        <ele>310</ele>
        <time>2016-01-17T10:26:12.000Z</time>
      </trkpt>
      <trkpt lat="47.47525" lon="6.77184">
        <ele>310</ele>
        <time>2016-01-17T10:26:13.000Z</time>
      </trkpt>
      <trkpt lat="47.47522" lon="6.7718">
        <ele>310</ele>
        <time>2016-01-17T10:26:14.000Z</time>
      </trkpt>
      <trkpt lat="47.47522" lon="6.77173">
        <ele>310</ele>
        <time>2016-01-17T10:26:15.000Z</time>
      </trkpt>
      <trkpt lat="47.47519" lon="6.77168">
        <ele>310</ele>
        <time>2016-01-17T10:26:16.000Z</time>
      </trkpt>
      <trkpt lat="47.47518" lon="6.77163">
        <ele>309</ele>
        <time>2016-01-17T10:26:17.000Z</time>
      </trkpt>
      <trkpt lat="47.47519" lon="6.77157">
        <ele>310</ele>
        <time>2016-01-17T10:26:18.000Z</time>
      </trkpt>
      <trkpt lat="47.4752" lon="6.77152">
        <ele>310</ele>
        <time>2016-01-17T10:26:19.000Z</time>
      </trkpt>
      <trkpt lat="47.47522" lon="6.77146">
        <ele>310</ele>
        <time>2016-01-17T10:26:20.000Z</time>
      </trkpt>
      <trkpt lat="47.47524" lon="6.77141">
        <ele>310</ele>
        <time>2016-01-17T10:26:21.000Z</time>
      </trkpt>
      <trkpt lat="47.47527" lon="6.77137">
        <ele>310</ele>
        <time>2016-01-17T10:26:22.000Z</time>
      </trkpt>
      <trkpt lat="47.47531" lon="6.77135">
        <ele>310</ele>
        <time>2016-01-17T10:26:23.000Z</time>
      </trkpt>
      <trkpt lat="47.47536" lon="6.77136">
        <ele>310</ele>
        <time>2016-01-17T10:26:24.000Z</time>
      </trkpt>
      <trkpt lat="47.47547" lon="6.77147">
        <ele>310</ele>
        <time>2016-01-17T10:26:25.000Z</time>
      </trkpt>
      <trkpt lat="47.47551" lon="6.77149">
        <ele>310</ele>
        <time>2016-01-17T10:26:26.000Z</time>
      </trkpt>
      <trkpt lat="47.47556" lon="6.77151">
        <ele>310</ele>
        <time>2016-01-17T10:26:27.000Z</time>
      </trkpt>
      <trkpt lat="47.47561" lon="6.77154">
        <ele>310</ele>
        <time>2016-01-17T10:26:28.000Z</time>
      </trkpt>
      <trkpt lat="47.47565" lon="6.77158">
        <ele>310</ele>
        <time>2016-01-17T10:26:29.000Z</time>
      </trkpt>
      <trkpt lat="47.4757" lon="6.77161">
        <ele>309</ele>
        <time>2016-01-17T10:26:30.000Z</time>
      </trkpt>
      <trkpt lat="47.47574" lon="6.77164">
        <ele>309</ele>
        <time>2016-01-17T10:26:31.000Z</time>
      </trkpt>
      <trkpt lat="47.47579" lon="6.77167">
        <ele>309</ele>
        <time>2016-01-17T10:26:32.000Z</time>
      </trkpt>
      <trkpt lat="47.47584" lon="6.7717">
        <ele>309</ele>
        <time>2016-01-17T10:26:33.000Z</time>
      </trkpt>
      <trkpt lat="47.47589" lon="6.77174">
        <ele>309</ele>
        <time>2016-01-17T10:26:34.000Z</time>
      </trkpt>
      <trkpt lat="47.47593" lon="6.77177">
        <ele>310</ele>
        <time>2016-01-17T10:26:35.000Z</time>
      </trkpt>
      <trkpt lat="47.47597" lon="6.77181">
        <ele>310</ele>
        <time>2016-01-17T10:26:36.000Z</time>
      </trkpt>
      <trkpt lat="47.47602" lon="6.77184">
        <ele>310</ele>
        <time>2016-01-17T10:26:37.000Z</time>
      </trkpt>
      <trkpt lat="47.47606" lon="6.77186">
        <ele>310</ele>
        <time>2016-01-17T10:26:38.000Z</time>
      </trkpt>
      <trkpt lat="47.4761" lon="6.77188">
        <ele>310</ele>
        <time>2016-01-17T10:26:39.000Z</time>
      </trkpt>
      <trkpt lat="47.47614" lon="6.77188">
        <ele>310</ele>
        <time>2016-01-17T10:26:40.000Z</time>
      </trkpt>
      <trkpt lat="47.47618" lon="6.77184">
        <ele>310</ele>
        <time>2016-01-17T10:26:41.000Z</time>
      </trkpt>
      <trkpt lat="47.47621" lon="6.7718">
        <ele>310</ele>
        <time>2016-01-17T10:26:42.000Z</time>
      </trkpt>
      <trkpt lat="47.47623" lon="6.77175">
        <ele>310</ele>
        <time>2016-01-17T10:26:43.000Z</time>
      </trkpt>
      <trkpt lat="47.47625" lon="6.77168">
        <ele>310</ele>
        <time>2016-01-17T10:26:44.000Z</time>
      </trkpt>
      <trkpt lat="47.47627" lon="6.77162">
        <ele>310</ele>
        <time>2016-01-17T10:26:45.000Z</time>
      </trkpt>
      <trkpt lat="47.47629" lon="6.77156">
        <ele>310</ele>
        <time>2016-01-17T10:26:46.000Z</time>
      </trkpt>
      <trkpt lat="47.47631" lon="6.7715">
        <ele>310</ele>
        <time>2016-01-17T10:26:47.000Z</time>
      </trkpt>
      <trkpt lat="47.47634" lon="6.77145">
        <ele>310</ele>
        <time>2016-01-17T10:26:48.000Z</time>
      </trkpt>
      <trkpt lat="47.47636" lon="6.77141">
        <ele>310</ele>
        <time>2016-01-17T10:26:49.000Z</time>
      </trkpt>
      <trkpt lat="47.47638" lon="6.77137">
        <ele>310</ele>
        <time>2016-01-17T10:26:50.000Z</time>
      </trkpt>
      <trkpt lat="47.47639" lon="6.77133">
        <ele>310</ele>
        <time>2016-01-17T10:26:51.000Z</time>
      </trkpt>
      <trkpt lat="47.47641" lon="6.77129">
        <ele>310</ele>
        <time>2016-01-17T10:26:51.999Z</time>
      </trkpt>
      <trkpt lat="47.47641" lon="6.77126">
        <ele>310</ele>
        <time>2016-01-17T10:26:53.000Z</time>
      </trkpt>
      <trkpt lat="47.47641" lon="6.77119">
        <ele>310</ele>
        <time>2016-01-17T10:26:55.000Z</time>
      </trkpt>
      <trkpt lat="47.47642" lon="6.77116">
        <ele>310</ele>
        <time>2016-01-17T10:26:56.000Z</time>
      </trkpt>
      <trkpt lat="47.47642" lon="6.77112">
        <ele>310</ele>
        <time>2016-01-17T10:26:57.000Z</time>
      </trkpt>
      <trkpt lat="47.47642" lon="6.77108">
        <ele>310</ele>
        <time>2016-01-17T10:26:58.000Z</time>
      </trkpt>
      <trkpt lat="47.47643" lon="6.77104">
        <ele>310</ele>
        <time>2016-01-17T10:26:59.000Z</time>
      </trkpt>
      <trkpt lat="47.47643" lon="6.771">
        <ele>311</ele>
        <time>2016-01-17T10:27:00.000Z</time>
      </trkpt>
      <trkpt lat="47.47644" lon="6.77096">
        <ele>311</ele>
        <time>2016-01-17T10:27:01.000Z</time>
      </trkpt>
      <trkpt lat="47.47645" lon="6.77091">
        <ele>311</ele>
        <time>2016-01-17T10:27:02.000Z</time>
      </trkpt>
      <trkpt lat="47.47646" lon="6.77087">
        <ele>311</ele>
        <time>2016-01-17T10:27:03.000Z</time>
      </trkpt>
      <trkpt lat="47.47647" lon="6.77083">
        <ele>311</ele>
        <time>2016-01-17T10:27:04.000Z</time>
      </trkpt>
      <trkpt lat="47.47648" lon="6.77078">
        <ele>311</ele>
        <time>2016-01-17T10:27:05.000Z</time>
      </trkpt>
      <trkpt lat="47.47648" lon="6.77074">
        <ele>311</ele>
        <time>2016-01-17T10:27:06.000Z</time>
      </trkpt>
      <trkpt lat="47.47649" lon="6.77069">
        <ele>311</ele>
        <time>2016-01-17T10:27:07.000Z</time>
      </trkpt>
      <trkpt lat="47.4765" lon="6.77064">
        <ele>311</ele>
        <time>2016-01-17T10:27:08.000Z</time>
      </trkpt>
      <trkpt lat="47.4765" lon="6.77059">
        <ele>311</ele>
        <time>2016-01-17T10:27:09.000Z</time>
      </trkpt>
      <trkpt lat="47.47651" lon="6.77054">
        <ele>311</ele>
        <time>2016-01-17T10:27:10.000Z</time>
      </trkpt>
      <trkpt lat="47.47652" lon="6.77048">
        <ele>311</ele>
        <time>2016-01-17T10:27:11.000Z</time>
      </trkpt>
      <trkpt lat="47.47652" lon="6.7704">
        <ele>311</ele>
        <time>2016-01-17T10:27:12.000Z</time>
      </trkpt>
      <trkpt lat="47.47653" lon="6.77033">
        <ele>311</ele>
        <time>2016-01-17T10:27:13.000Z</time>
      </trkpt>
      <trkpt lat="47.47655" lon="6.77025">
        <ele>311</ele>
        <time>2016-01-17T10:27:14.000Z</time>
      </trkpt>
      <trkpt lat="47.47656" lon="6.77016">
        <ele>311</ele>
        <time>2016-01-17T10:27:15.000Z</time>
      </trkpt>
      <trkpt lat="47.47657" lon="6.77008">
        <ele>311</ele>
        <time>2016-01-17T10:27:16.000Z</time>
      </trkpt>
      <trkpt lat="47.4766" lon="6.77">
        <ele>311</ele>
        <time>2016-01-17T10:27:17.000Z</time>
      </trkpt>
      <trkpt lat="47.47663" lon="6.76993">
        <ele>311</ele>
        <time>2016-01-17T10:27:17.999Z</time>
      </trkpt>
      <trkpt lat="47.47667" lon="6.76984">
        <ele>311</ele>
        <time>2016-01-17T10:27:19.000Z</time>
      </trkpt>
      <trkpt lat="47.4767" lon="6.76975">
        <ele>311</ele>
        <time>2016-01-17T10:27:20.000Z</time>
      </trkpt>
      <trkpt lat="47.47673" lon="6.76966">
        <ele>311</ele>
        <time>2016-01-17T10:27:21.000Z</time>
      </trkpt>
      <trkpt lat="47.47677" lon="6.76956">
        <ele>311</ele>
        <time>2016-01-17T10:27:22.000Z</time>
      </trkpt>
      <trkpt lat="47.4768" lon="6.76948">
        <ele>311</ele>
        <time>2016-01-17T10:27:23.000Z</time>
      </trkpt>
      <trkpt lat="47.47683" lon="6.76939">
        <ele>311</ele>
        <time>2016-01-17T10:27:24.000Z</time>
      </trkpt>
      <trkpt lat="47.47686" lon="6.76931">
        <ele>311</ele>
        <time>2016-01-17T10:27:25.000Z</time>
      </trkpt>
      <trkpt lat="47.47689" lon="6.76923">
        <ele>311</ele>
        <time>2016-01-17T10:27:26.000Z</time>
      </trkpt>
      <trkpt lat="47.47692" lon="6.76916">
        <ele>311</ele>
        <time>2016-01-17T10:27:27.000Z</time>
      </trkpt>
      <trkpt lat="47.47694" lon="6.76908">
        <ele>311</ele>
        <time>2016-01-17T10:27:28.000Z</time>
      </trkpt>
      <trkpt lat="47.47697" lon="6.76901">
        <ele>311</ele>
        <time>2016-01-17T10:27:28.999Z</time>
      </trkpt>
      <trkpt lat="47.47699" lon="6.76895">
        <ele>311</ele>
        <time>2016-01-17T10:27:30.000Z</time>
      </trkpt>
      <trkpt lat="47.47701" lon="6.7689">
        <ele>311</ele>
        <time>2016-01-17T10:27:31.000Z</time>
      </trkpt>
      <trkpt lat="47.47703" lon="6.76884">
        <ele>311</ele>
        <time>2016-01-17T10:27:32.000Z</time>
      </trkpt>
      <trkpt lat="47.47706" lon="6.76877">
        <ele>311</ele>
        <time>2016-01-17T10:27:33.000Z</time>
      </trkpt>
      <trkpt lat="47.47707" lon="6.76871">
        <ele>311</ele>
        <time>2016-01-17T10:27:34.000Z</time>
      </trkpt>
      <trkpt lat="47.47707" lon="6.76864">
        <ele>311</ele>
        <time>2016-01-17T10:27:35.000Z</time>
      </trkpt>
      <trkpt lat="47.4771" lon="6.76857">
        <ele>311</ele>
        <time>2016-01-17T10:27:36.000Z</time>
      </trkpt>
      <trkpt lat="47.47712" lon="6.76851">
        <ele>311</ele>
        <time>2016-01-17T10:27:37.000Z</time>
      </trkpt>
      <trkpt lat="47.47714" lon="6.76845">
        <ele>311</ele>
        <time>2016-01-17T10:27:38.000Z</time>
      </trkpt>
      <trkpt lat="47.47716" lon="6.76838">
        <ele>311</ele>
        <time>2016-01-17T10:27:39.000Z</time>
      </trkpt>
      <trkpt lat="47.47719" lon="6.76832">
        <ele>311</ele>
        <time>2016-01-17T10:27:40.000Z</time>
      </trkpt>
      <trkpt lat="47.47721" lon="6.76826">
        <ele>311</ele>
        <time>2016-01-17T10:27:41.000Z</time>
      </trkpt>
      <trkpt lat="47.47724" lon="6.7682">
        <ele>311</ele>
        <time>2016-01-17T10:27:42.000Z</time>
      </trkpt>
      <trkpt lat="47.47727" lon="6.76814">
        <ele>311</ele>
        <time>2016-01-17T10:27:43.000Z</time>
      </trkpt>
      <trkpt lat="47.47729" lon="6.76809">
        <ele>311</ele>
        <time>2016-01-17T10:27:44.000Z</time>
      </trkpt>
      <trkpt lat="47.47732" lon="6.76805">
        <ele>311</ele>
        <time>2016-01-17T10:27:45.000Z</time>
      </trkpt>
      <trkpt lat="47.47735" lon="6.76801">
        <ele>311</ele>
        <time>2016-01-17T10:27:46.000Z</time>
      </trkpt>
      <trkpt lat="47.47738" lon="6.76798">
        <ele>311</ele>
        <time>2016-01-17T10:27:47.000Z</time>
      </trkpt>
      <trkpt lat="47.47742" lon="6.76795">
        <ele>311</ele>
        <time>2016-01-17T10:27:48.000Z</time>
      </trkpt>
      <trkpt lat="47.47745" lon="6.76793">
        <ele>311</ele>
        <time>2016-01-17T10:27:49.000Z</time>
      </trkpt>
      <trkpt lat="47.47748" lon="6.76794">
        <ele>311</ele>
        <time>2016-01-17T10:27:50.000Z</time>
      </trkpt>
      <trkpt lat="47.47752" lon="6.76793">
        <ele>311</ele>
        <time>2016-01-17T10:27:51.000Z</time>
      </trkpt>
      <trkpt lat="47.47755" lon="6.76792">
        <ele>311</ele>
        <time>2016-01-17T10:27:52.000Z</time>
      </trkpt>
      <trkpt lat="47.47759" lon="6.76792">
        <ele>311</ele>
        <time>2016-01-17T10:27:53.000Z</time>
      </trkpt>
      <trkpt lat="47.47763" lon="6.76792">
        <ele>311</ele>
        <time>2016-01-17T10:27:54.000Z</time>
      </trkpt>
      <trkpt lat="47.47766" lon="6.76792">
        <ele>311</ele>
        <time>2016-01-17T10:27:55.000Z</time>
      </trkpt>
      <trkpt lat="47.4777" lon="6.76792">
        <ele>311</ele>
        <time>2016-01-17T10:27:56.000Z</time>
      </trkpt>
      <trkpt lat="47.47775" lon="6.76793">
        <ele>311</ele>
        <time>2016-01-17T10:27:57.000Z</time>
      </trkpt>
      <trkpt lat="47.4778" lon="6.76796">
        <ele>311</ele>
        <time>2016-01-17T10:27:58.000Z</time>
      </trkpt>
      <trkpt lat="47.47784" lon="6.76798">
        <ele>311</ele>
        <time>2016-01-17T10:27:58.999Z</time>
      </trkpt>
      <trkpt lat="47.4779" lon="6.76798">
        <ele>311</ele>
        <time>2016-01-17T10:28:00.000Z</time>
      </trkpt>
      <trkpt lat="47.47795" lon="6.768">
        <ele>310</ele>
        <time>2016-01-17T10:28:01.000Z</time>
      </trkpt>
      <trkpt lat="47.478" lon="6.76803">
        <ele>310</ele>
        <time>2016-01-17T10:28:02.000Z</time>
      </trkpt>
      <trkpt lat="47.47805" lon="6.76806">
        <ele>310</ele>
        <time>2016-01-17T10:28:03.000Z</time>
      </trkpt>
      <trkpt lat="47.4781" lon="6.76808">
        <ele>310</ele>
        <time>2016-01-17T10:28:03.999Z</time>
      </trkpt>
      <trkpt lat="47.47816" lon="6.7681">
        <ele>310</ele>
        <time>2016-01-17T10:28:05.000Z</time>
      </trkpt>
      <trkpt lat="47.47821" lon="6.76811">
        <ele>310</ele>
        <time>2016-01-17T10:28:06.000Z</time>
      </trkpt>
      <trkpt lat="47.47826" lon="6.7681">
        <ele>310</ele>
        <time>2016-01-17T10:28:07.000Z</time>
      </trkpt>
      <trkpt lat="47.4783" lon="6.76807">
        <ele>310</ele>
        <time>2016-01-17T10:28:08.000Z</time>
      </trkpt>
      <trkpt lat="47.47835" lon="6.76803">
        <ele>311</ele>
        <time>2016-01-17T10:28:09.000Z</time>
      </trkpt>
      <trkpt lat="47.47839" lon="6.76797">
        <ele>311</ele>
        <time>2016-01-17T10:28:10.000Z</time>
      </trkpt>
      <trkpt lat="47.47843" lon="6.76792">
        <ele>311</ele>
        <time>2016-01-17T10:28:11.000Z</time>
      </trkpt>
      <trkpt lat="47.47846" lon="6.76784">
        <ele>311</ele>
        <time>2016-01-17T10:28:12.000Z</time>
      </trkpt>
      <trkpt lat="47.47849" lon="6.76776">
        <ele>311</ele>
        <time>2016-01-17T10:28:13.000Z</time>
      </trkpt>
      <trkpt lat="47.47852" lon="6.7677">
        <ele>311</ele>
        <time>2016-01-17T10:28:14.000Z</time>
      </trkpt>
      <trkpt lat="47.47855" lon="6.76762">
        <ele>311</ele>
        <time>2016-01-17T10:28:15.000Z</time>
      </trkpt>
      <trkpt lat="47.47858" lon="6.76756">
        <ele>311</ele>
        <time>2016-01-17T10:28:16.000Z</time>
      </trkpt>
      <trkpt lat="47.47862" lon="6.76749">
        <ele>310</ele>
        <time>2016-01-17T10:28:17.001Z</time>
      </trkpt>
      <trkpt lat="47.47865" lon="6.76743">
        <ele>310</ele>
        <time>2016-01-17T10:28:18.000Z</time>
      </trkpt>
      <trkpt lat="47.47868" lon="6.76736">
        <ele>310</ele>
        <time>2016-01-17T10:28:19.000Z</time>
      </trkpt>
      <trkpt lat="47.47871" lon="6.76729">
        <ele>310</ele>
        <time>2016-01-17T10:28:20.000Z</time>
      </trkpt>
      <trkpt lat="47.47874" lon="6.76724">
        <ele>310</ele>
        <time>2016-01-17T10:28:21.000Z</time>
      </trkpt>
      <trkpt lat="47.47878" lon="6.76719">
        <ele>310</ele>
        <time>2016-01-17T10:28:22.000Z</time>
      </trkpt>
      <trkpt lat="47.47881" lon="6.76713">
        <ele>310</ele>
        <time>2016-01-17T10:28:23.001Z</time>
      </trkpt>
      <trkpt lat="47.47884" lon="6.76706">
        <ele>310</ele>
        <time>2016-01-17T10:28:24.000Z</time>
      </trkpt>
      <trkpt lat="47.47887" lon="6.76698">
        <ele>310</ele>
        <time>2016-01-17T10:28:25.000Z</time>
      </trkpt>
      <trkpt lat="47.4789" lon="6.7669">
        <ele>310</ele>
        <time>2016-01-17T10:28:26.000Z</time>
      </trkpt>
      <trkpt lat="47.47893" lon="6.76682">
        <ele>310</ele>
        <time>2016-01-17T10:28:27.000Z</time>
      </trkpt>
      <trkpt lat="47.47896" lon="6.76675">
        <ele>311</ele>
        <time>2016-01-17T10:28:28.000Z</time>
      </trkpt>
      <trkpt lat="47.47899" lon="6.76669">
        <ele>311</ele>
        <time>2016-01-17T10:28:29.000Z</time>
      </trkpt>
      <trkpt lat="47.47902" lon="6.76664">
        <ele>310</ele>
        <time>2016-01-17T10:28:30.000Z</time>
      </trkpt>
      <trkpt lat="47.47906" lon="6.7666">
        <ele>310</ele>
        <time>2016-01-17T10:28:31.000Z</time>
      </trkpt>
      <trkpt lat="47.4791" lon="6.76655">
        <ele>310</ele>
        <time>2016-01-17T10:28:32.000Z</time>
      </trkpt>
      <trkpt lat="47.47914" lon="6.76651">
        <ele>310</ele>
        <time>2016-01-17T10:28:33.000Z</time>
      </trkpt>
      <trkpt lat="47.47918" lon="6.76647">
        <ele>311</ele>
        <time>2016-01-17T10:28:34.000Z</time>
      </trkpt>
      <trkpt lat="47.47923" lon="6.76644">
        <ele>311</ele>
        <time>2016-01-17T10:28:35.000Z</time>
      </trkpt>
      <trkpt lat="47.47928" lon="6.7664">
        <ele>311</ele>
        <time>2016-01-17T10:28:35.999Z</time>
      </trkpt>
      <trkpt lat="47.47933" lon="6.76637">
        <ele>311</ele>
        <time>2016-01-17T10:28:37.000Z</time>
      </trkpt>
      <trkpt lat="47.47938" lon="6.76634">
        <ele>311</ele>
        <time>2016-01-17T10:28:38.000Z</time>
      </trkpt>
      <trkpt lat="47.47942" lon="6.76632">
        <ele>311</ele>
        <time>2016-01-17T10:28:39.000Z</time>
      </trkpt>
      <trkpt lat="47.47947" lon="6.76629">
        <ele>311</ele>
        <time>2016-01-17T10:28:40.000Z</time>
      </trkpt>
      <trkpt lat="47.4795" lon="6.76626">
        <ele>311</ele>
        <time>2016-01-17T10:28:41.000Z</time>
      </trkpt>
      <trkpt lat="47.47955" lon="6.76622">
        <ele>311</ele>
        <time>2016-01-17T10:28:42.000Z</time>
      </trkpt>
      <trkpt lat="47.47958" lon="6.7662">
        <ele>311</ele>
        <time>2016-01-17T10:28:43.000Z</time>
      </trkpt>
      <trkpt lat="47.47963" lon="6.76617">
        <ele>311</ele>
        <time>2016-01-17T10:28:44.000Z</time>
      </trkpt>
      <trkpt lat="47.47967" lon="6.76615">
        <ele>311</ele>
        <time>2016-01-17T10:28:45.000Z</time>
      </trkpt>
      <trkpt lat="47.47971" lon="6.76614">
        <ele>311</ele>
        <time>2016-01-17T10:28:46.000Z</time>
      </trkpt>
      <trkpt lat="47.47975" lon="6.76612">
        <ele>311</ele>
        <time>2016-01-17T10:28:47.000Z</time>
      </trkpt>
      <trkpt lat="47.47981" lon="6.7661">
        <ele>311</ele>
        <time>2016-01-17T10:28:48.000Z</time>
      </trkpt>
      <trkpt lat="47.47985" lon="6.76607">
        <ele>311</ele>
        <time>2016-01-17T10:28:49.000Z</time>
      </trkpt>
      <trkpt lat="47.47988" lon="6.76606">
        <ele>312</ele>
        <time>2016-01-17T10:28:50.000Z</time>
      </trkpt>
      <trkpt lat="47.47993" lon="6.76606">
        <ele>312</ele>
        <time>2016-01-17T10:28:51.000Z</time>
      </trkpt>
      <trkpt lat="47.47996" lon="6.76605">
        <ele>312</ele>
        <time>2016-01-17T10:28:52.000Z</time>
      </trkpt>
      <trkpt lat="47.47999" lon="6.76604">
        <ele>312</ele>
        <time>2016-01-17T10:28:53.000Z</time>
      </trkpt>
      <trkpt lat="47.48001" lon="6.76602">
        <ele>312</ele>
        <time>2016-01-17T10:28:54.000Z</time>
      </trkpt>
      <trkpt lat="47.48004" lon="6.766">
        <ele>312</ele>
        <time>2016-01-17T10:28:55.000Z</time>
      </trkpt>
      <trkpt lat="47.48007" lon="6.76598">
        <ele>312</ele>
        <time>2016-01-17T10:28:56.000Z</time>
      </trkpt>
      <trkpt lat="47.48009" lon="6.76596">
        <ele>312</ele>
        <time>2016-01-17T10:28:57.000Z</time>
      </trkpt>
      <trkpt lat="47.48012" lon="6.76594">
        <ele>312</ele>
        <time>2016-01-17T10:28:58.000Z</time>
      </trkpt>
      <trkpt lat="47.48014" lon="6.76593">
        <ele>312</ele>
        <time>2016-01-17T10:28:59.000Z</time>
      </trkpt>
      <trkpt lat="47.48016" lon="6.76591">
        <ele>312</ele>
        <time>2016-01-17T10:29:00.000Z</time>
      </trkpt>
      <trkpt lat="47.48018" lon="6.7659">
        <ele>312</ele>
        <time>2016-01-17T10:29:01.000Z</time>
      </trkpt>
      <trkpt lat="47.48021" lon="6.76588">
        <ele>312</ele>
        <time>2016-01-17T10:29:02.000Z</time>
      </trkpt>
      <trkpt lat="47.48023" lon="6.76586">
        <ele>312</ele>
        <time>2016-01-17T10:29:03.000Z</time>
      </trkpt>
      <trkpt lat="47.48026" lon="6.76583">
        <ele>312</ele>
        <time>2016-01-17T10:29:04.000Z</time>
      </trkpt>
      <trkpt lat="47.48029" lon="6.7658">
        <ele>312</ele>
        <time>2016-01-17T10:29:05.000Z</time>
      </trkpt>
      <trkpt lat="47.48033" lon="6.76577">
        <ele>312</ele>
        <time>2016-01-17T10:29:06.000Z</time>
      </trkpt>
      <trkpt lat="47.48037" lon="6.76572">
        <ele>312</ele>
        <time>2016-01-17T10:29:07.000Z</time>
      </trkpt>
      <trkpt lat="47.48041" lon="6.76569">
        <ele>312</ele>
        <time>2016-01-17T10:29:08.000Z</time>
      </trkpt>
      <trkpt lat="47.48046" lon="6.76565">
        <ele>312</ele>
        <time>2016-01-17T10:29:09.000Z</time>
      </trkpt>
      <trkpt lat="47.4805" lon="6.76562">
        <ele>312</ele>
        <time>2016-01-17T10:29:09.999Z</time>
      </trkpt>
      <trkpt lat="47.48054" lon="6.76558">
        <ele>312</ele>
        <time>2016-01-17T10:29:11.000Z</time>
      </trkpt>
      <trkpt lat="47.48058" lon="6.76554">
        <ele>312</ele>
        <time>2016-01-17T10:29:12.000Z</time>
      </trkpt>
      <trkpt lat="47.48062" lon="6.7655">
        <ele>312</ele>
        <time>2016-01-17T10:29:13.000Z</time>
      </trkpt>
      <trkpt lat="47.48067" lon="6.76546">
        <ele>312</ele>
        <time>2016-01-17T10:29:14.000Z</time>
      </trkpt>
      <trkpt lat="47.48071" lon="6.76543">
        <ele>312</ele>
        <time>2016-01-17T10:29:15.000Z</time>
      </trkpt>
      <trkpt lat="47.48074" lon="6.76539">
        <ele>312</ele>
        <time>2016-01-17T10:29:16.000Z</time>
      </trkpt>
      <trkpt lat="47.48079" lon="6.76535">
        <ele>312</ele>
        <time>2016-01-17T10:29:17.000Z</time>
      </trkpt>
      <trkpt lat="47.48083" lon="6.7653">
        <ele>317</ele>
        <time>2016-01-17T10:29:18.000Z</time>
      </trkpt>
      <trkpt lat="47.48087" lon="6.76526">
        <ele>317</ele>
        <time>2016-01-17T10:29:19.000Z</time>
      </trkpt>
      <trkpt lat="47.48091" lon="6.76522">
        <ele>317</ele>
        <time>2016-01-17T10:29:20.000Z</time>
      </trkpt>
      <trkpt lat="47.48095" lon="6.76518">
        <ele>317</ele>
        <time>2016-01-17T10:29:21.000Z</time>
      </trkpt>
      <trkpt lat="47.48098" lon="6.76515">
        <ele>317</ele>
        <time>2016-01-17T10:29:22.000Z</time>
      </trkpt>
      <trkpt lat="47.48102" lon="6.76511">
        <ele>318</ele>
        <time>2016-01-17T10:29:22.999Z</time>
      </trkpt>
      <trkpt lat="47.48106" lon="6.76512">
        <ele>318</ele>
        <time>2016-01-17T10:29:24.000Z</time>
      </trkpt>
      <trkpt lat="47.4811" lon="6.76513">
        <ele>319</ele>
        <time>2016-01-17T10:29:25.000Z</time>
      </trkpt>
      <trkpt lat="47.48113" lon="6.76519">
        <ele>319</ele>
        <time>2016-01-17T10:29:26.000Z</time>
      </trkpt>
      <trkpt lat="47.48115" lon="6.76524">
        <ele>320</ele>
        <time>2016-01-17T10:29:27.000Z</time>
      </trkpt>
      <trkpt lat="47.48117" lon="6.76528">
        <ele>320</ele>
        <time>2016-01-17T10:29:28.000Z</time>
      </trkpt>
      <trkpt lat="47.4812" lon="6.76533">
        <ele>320</ele>
        <time>2016-01-17T10:29:45.000Z</time>
      </trkpt>
      <trkpt lat="47.4812" lon="6.76534">
        <ele>320</ele>
        <time>2016-01-17T10:29:46.000Z</time>
      </trkpt>
      <trkpt lat="47.48123" lon="6.76539">
        <ele>320</ele>
        <time>2016-01-17T10:29:48.000Z</time>
      </trkpt>
      <trkpt lat="47.48124" lon="6.76543">
        <ele>320</ele>
        <time>2016-01-17T10:29:49.000Z</time>
      </trkpt>
      <trkpt lat="47.48119" lon="6.76553">
        <ele>319</ele>
        <time>2016-01-17T10:29:50.000Z</time>
      </trkpt>
      <trkpt lat="47.48116" lon="6.76559">
        <ele>318</ele>
        <time>2016-01-17T10:29:51.000Z</time>
      </trkpt>
      <trkpt lat="47.48113" lon="6.76565">
        <ele>318</ele>
        <time>2016-01-17T10:29:52.000Z</time>
      </trkpt>
      <trkpt lat="47.4811" lon="6.76571">
        <ele>317</ele>
        <time>2016-01-17T10:29:53.000Z</time>
      </trkpt>
      <trkpt lat="47.48107" lon="6.76578">
        <ele>317</ele>
        <time>2016-01-17T10:29:54.000Z</time>
      </trkpt>
      <trkpt lat="47.48105" lon="6.76585">
        <ele>313</ele>
        <time>2016-01-17T10:29:55.000Z</time>
      </trkpt>
      <trkpt lat="47.48103" lon="6.76592">
        <ele>313</ele>
        <time>2016-01-17T10:29:56.000Z</time>
      </trkpt>
      <trkpt lat="47.48101" lon="6.766">
        <ele>313</ele>
        <time>2016-01-17T10:29:57.000Z</time>
      </trkpt>
      <trkpt lat="47.48101" lon="6.76608">
        <ele>313</ele>
        <time>2016-01-17T10:29:58.000Z</time>
      </trkpt>
      <trkpt lat="47.48102" lon="6.76616">
        <ele>313</ele>
        <time>2016-01-17T10:29:59.000Z</time>
      </trkpt>
      <trkpt lat="47.48102" lon="6.76624">
        <ele>313</ele>
        <time>2016-01-17T10:30:00.000Z</time>
      </trkpt>
      <trkpt lat="47.48105" lon="6.7663">
        <ele>313</ele>
        <time>2016-01-17T10:30:01.000Z</time>
      </trkpt>
      <trkpt lat="47.48108" lon="6.76636">
        <ele>313</ele>
        <time>2016-01-17T10:30:02.000Z</time>
      </trkpt>
      <trkpt lat="47.48111" lon="6.76643">
        <ele>313</ele>
        <time>2016-01-17T10:30:03.000Z</time>
      </trkpt>
      <trkpt lat="47.48115" lon="6.76649">
        <ele>313</ele>
        <time>2016-01-17T10:30:04.000Z</time>
      </trkpt>
      <trkpt lat="47.4812" lon="6.76656">
        <ele>313</ele>
        <time>2016-01-17T10:30:05.000Z</time>
      </trkpt>
      <trkpt lat="47.48124" lon="6.76662">
        <ele>313</ele>
        <time>2016-01-17T10:30:06.000Z</time>
      </trkpt>
      <trkpt lat="47.48129" lon="6.76669">
        <ele>312</ele>
        <time>2016-01-17T10:30:07.000Z</time>
      </trkpt>
      <trkpt lat="47.48133" lon="6.76675">
        <ele>312</ele>
        <time>2016-01-17T10:30:08.000Z</time>
      </trkpt>
      <trkpt lat="47.48137" lon="6.76682">
        <ele>312</ele>
        <time>2016-01-17T10:30:09.000Z</time>
      </trkpt>
      <trkpt lat="47.48141" lon="6.7669">
        <ele>312</ele>
        <time>2016-01-17T10:30:10.000Z</time>
      </trkpt>
      <trkpt lat="47.48145" lon="6.76697">
        <ele>312</ele>
        <time>2016-01-17T10:30:11.000Z</time>
      </trkpt>
      <trkpt lat="47.48149" lon="6.76705">
        <ele>312</ele>
        <time>2016-01-17T10:30:12.000Z</time>
      </trkpt>
      <trkpt lat="47.48153" lon="6.76712">
        <ele>312</ele>
        <time>2016-01-17T10:30:13.000Z</time>
      </trkpt>
      <trkpt lat="47.48157" lon="6.76721">
        <ele>312</ele>
        <time>2016-01-17T10:30:14.000Z</time>
      </trkpt>
      <trkpt lat="47.4816" lon="6.76728">
        <ele>312</ele>
        <time>2016-01-17T10:30:15.000Z</time>
      </trkpt>
      <trkpt lat="47.48164" lon="6.76735">
        <ele>313</ele>
        <time>2016-01-17T10:30:16.000Z</time>
      </trkpt>
      <trkpt lat="47.48167" lon="6.76742">
        <ele>314</ele>
        <time>2016-01-17T10:30:17.000Z</time>
      </trkpt>
      <trkpt lat="47.48172" lon="6.76748">
        <ele>313</ele>
        <time>2016-01-17T10:30:18.000Z</time>
      </trkpt>
      <trkpt lat="47.48176" lon="6.76754">
        <ele>313</ele>
        <time>2016-01-17T10:30:19.000Z</time>
      </trkpt>
      <trkpt lat="47.48181" lon="6.76759">
        <ele>313</ele>
        <time>2016-01-17T10:30:20.000Z</time>
      </trkpt>
      <trkpt lat="47.48186" lon="6.76764">
        <ele>312</ele>
        <time>2016-01-17T10:30:21.000Z</time>
      </trkpt>
      <trkpt lat="47.48191" lon="6.76767">
        <ele>312</ele>
        <time>2016-01-17T10:30:22.000Z</time>
      </trkpt>
      <trkpt lat="47.48197" lon="6.76771">
        <ele>312</ele>
        <time>2016-01-17T10:30:23.000Z</time>
      </trkpt>
      <trkpt lat="47.48202" lon="6.76775">
        <ele>312</ele>
        <time>2016-01-17T10:30:24.000Z</time>
      </trkpt>
      <trkpt lat="47.48208" lon="6.76777">
        <ele>312</ele>
        <time>2016-01-17T10:30:25.000Z</time>
      </trkpt>
      <trkpt lat="47.48213" lon="6.7678">
        <ele>312</ele>
        <time>2016-01-17T10:30:26.000Z</time>
      </trkpt>
      <trkpt lat="47.48219" lon="6.76783">
        <ele>312</ele>
        <time>2016-01-17T10:30:27.000Z</time>
      </trkpt>
      <trkpt lat="47.48224" lon="6.76786">
        <ele>312</ele>
        <time>2016-01-17T10:30:28.000Z</time>
      </trkpt>
      <trkpt lat="47.48229" lon="6.76788">
        <ele>312</ele>
        <time>2016-01-17T10:30:29.000Z</time>
      </trkpt>
      <trkpt lat="47.48235" lon="6.76791">
        <ele>312</ele>
        <time>2016-01-17T10:30:30.000Z</time>
      </trkpt>
      <trkpt lat="47.4824" lon="6.76794">
        <ele>312</ele>
        <time>2016-01-17T10:30:31.000Z</time>
      </trkpt>
      <trkpt lat="47.48246" lon="6.76798">
        <ele>312</ele>
        <time>2016-01-17T10:30:32.000Z</time>
      </trkpt>
      <trkpt lat="47.4825" lon="6.76803">
        <ele>313</ele>
        <time>2016-01-17T10:30:33.000Z</time>
      </trkpt>
      <trkpt lat="47.48255" lon="6.76808">
        <ele>313</ele>
        <time>2016-01-17T10:30:34.000Z</time>
      </trkpt>
      <trkpt lat="47.4826" lon="6.76813">
        <ele>312</ele>
        <time>2016-01-17T10:30:35.000Z</time>
      </trkpt>
      <trkpt lat="47.48264" lon="6.76819">
        <ele>312</ele>
        <time>2016-01-17T10:30:36.000Z</time>
      </trkpt>
      <trkpt lat="47.48268" lon="6.76825">
        <ele>312</ele>
        <time>2016-01-17T10:30:37.000Z</time>
      </trkpt>
      <trkpt lat="47.48272" lon="6.76831">
        <ele>312</ele>
        <time>2016-01-17T10:30:38.000Z</time>
      </trkpt>
      <trkpt lat="47.48276" lon="6.76837">
        <ele>311</ele>
        <time>2016-01-17T10:30:39.000Z</time>
      </trkpt>
      <trkpt lat="47.48281" lon="6.76843">
        <ele>311</ele>
        <time>2016-01-17T10:30:40.000Z</time>
      </trkpt>
      <trkpt lat="47.48285" lon="6.76849">
        <ele>310</ele>
        <time>2016-01-17T10:30:41.000Z</time>
      </trkpt>
      <trkpt lat="47.48289" lon="6.76855">
        <ele>310</ele>
        <time>2016-01-17T10:30:42.000Z</time>
      </trkpt>
      <trkpt lat="47.48294" lon="6.76861">
        <ele>310</ele>
        <time>2016-01-17T10:30:43.000Z</time>
      </trkpt>
      <trkpt lat="47.48299" lon="6.76866">
        <ele>310</ele>
        <time>2016-01-17T10:30:44.000Z</time>
      </trkpt>
      <trkpt lat="47.48304" lon="6.7687">
        <ele>310</ele>
        <time>2016-01-17T10:30:45.000Z</time>
      </trkpt>
      <trkpt lat="47.48309" lon="6.76875">
        <ele>310</ele>
        <time>2016-01-17T10:30:46.000Z</time>
      </trkpt>
      <trkpt lat="47.48314" lon="6.76879">
        <ele>310</ele>
        <time>2016-01-17T10:30:47.000Z</time>
      </trkpt>
      <trkpt lat="47.4832" lon="6.76884">
        <ele>310</ele>
        <time>2016-01-17T10:30:48.000Z</time>
      </trkpt>
      <trkpt lat="47.48325" lon="6.76888">
        <ele>310</ele>
        <time>2016-01-17T10:30:49.000Z</time>
      </trkpt>
      <trkpt lat="47.4833" lon="6.76893">
        <ele>310</ele>
        <time>2016-01-17T10:30:50.000Z</time>
      </trkpt>
      <trkpt lat="47.48335" lon="6.76897">
        <ele>310</ele>
        <time>2016-01-17T10:30:51.000Z</time>
      </trkpt>
      <trkpt lat="47.48341" lon="6.769">
        <ele>310</ele>
        <time>2016-01-17T10:30:52.000Z</time>
      </trkpt>
      <trkpt lat="47.48346" lon="6.76904">
        <ele>310</ele>
        <time>2016-01-17T10:30:53.000Z</time>
      </trkpt>
      <trkpt lat="47.48352" lon="6.76908">
        <ele>310</ele>
        <time>2016-01-17T10:30:54.000Z</time>
      </trkpt>
      <trkpt lat="47.48357" lon="6.76912">
        <ele>311</ele>
        <time>2016-01-17T10:30:55.000Z</time>
      </trkpt>
      <trkpt lat="47.48362" lon="6.76915">
        <ele>311</ele>
        <time>2016-01-17T10:30:56.000Z</time>
      </trkpt>
      <trkpt lat="47.48368" lon="6.76918">
        <ele>311</ele>
        <time>2016-01-17T10:30:57.000Z</time>
      </trkpt>
      <trkpt lat="47.48373" lon="6.76922">
        <ele>312</ele>
        <time>2016-01-17T10:30:58.000Z</time>
      </trkpt>
      <trkpt lat="47.48378" lon="6.76925">
        <ele>312</ele>
        <time>2016-01-17T10:30:59.000Z</time>
      </trkpt>
      <trkpt lat="47.48384" lon="6.76929">
        <ele>312</ele>
        <time>2016-01-17T10:31:00.000Z</time>
      </trkpt>
      <trkpt lat="47.48389" lon="6.76933">
        <ele>312</ele>
        <time>2016-01-17T10:31:01.000Z</time>
      </trkpt>
      <trkpt lat="47.48395" lon="6.76936">
        <ele>312</ele>
        <time>2016-01-17T10:31:02.000Z</time>
      </trkpt>
      <trkpt lat="47.48401" lon="6.76939">
        <ele>312</ele>
        <time>2016-01-17T10:31:03.000Z</time>
      </trkpt>
      <trkpt lat="47.48406" lon="6.76943">
        <ele>312</ele>
        <time>2016-01-17T10:31:04.000Z</time>
      </trkpt>
      <trkpt lat="47.48413" lon="6.76946">
        <ele>312</ele>
        <time>2016-01-17T10:31:05.000Z</time>
      </trkpt>
      <trkpt lat="47.48419" lon="6.76948">
        <ele>314</ele>
        <time>2016-01-17T10:31:06.000Z</time>
      </trkpt>
      <trkpt lat="47.48425" lon="6.76952">
        <ele>314</ele>
        <time>2016-01-17T10:31:07.000Z</time>
      </trkpt>
      <trkpt lat="47.48431" lon="6.76955">
        <ele>314</ele>
        <time>2016-01-17T10:31:08.000Z</time>
      </trkpt>
      <trkpt lat="47.48437" lon="6.76958">
        <ele>315</ele>
        <time>2016-01-17T10:31:09.000Z</time>
      </trkpt>
      <trkpt lat="47.48443" lon="6.76961">
        <ele>315</ele>
        <time>2016-01-17T10:31:10.000Z</time>
      </trkpt>
      <trkpt lat="47.48449" lon="6.76965">
        <ele>315</ele>
        <time>2016-01-17T10:31:11.000Z</time>
      </trkpt>
      <trkpt lat="47.48454" lon="6.76971">
        <ele>315</ele>
        <time>2016-01-17T10:31:12.000Z</time>
      </trkpt>
      <trkpt lat="47.4846" lon="6.76975">
        <ele>315</ele>
        <time>2016-01-17T10:31:13.000Z</time>
      </trkpt>
      <trkpt lat="47.48465" lon="6.76979">
        <ele>315</ele>
        <time>2016-01-17T10:31:14.000Z</time>
      </trkpt>
      <trkpt lat="47.48471" lon="6.76983">
        <ele>315</ele>
        <time>2016-01-17T10:31:15.000Z</time>
      </trkpt>
      <trkpt lat="47.48477" lon="6.76987">
        <ele>315</ele>
        <time>2016-01-17T10:31:16.000Z</time>
      </trkpt>
      <trkpt lat="47.48482" lon="6.76991">
        <ele>315</ele>
        <time>2016-01-17T10:31:17.000Z</time>
      </trkpt>
      <trkpt lat="47.48488" lon="6.76995">
        <ele>316</ele>
        <time>2016-01-17T10:31:18.000Z</time>
      </trkpt>
      <trkpt lat="47.48493" lon="6.76999">
        <ele>316</ele>
        <time>2016-01-17T10:31:19.000Z</time>
      </trkpt>
      <trkpt lat="47.48499" lon="6.77003">
        <ele>316</ele>
        <time>2016-01-17T10:31:20.000Z</time>
      </trkpt>
      <trkpt lat="47.48504" lon="6.77006">
        <ele>315</ele>
        <time>2016-01-17T10:31:21.000Z</time>
      </trkpt>
      <trkpt lat="47.4851" lon="6.7701">
        <ele>315</ele>
        <time>2016-01-17T10:31:22.000Z</time>
      </trkpt>
      <trkpt lat="47.48515" lon="6.77014">
        <ele>315</ele>
        <time>2016-01-17T10:31:23.000Z</time>
      </trkpt>
      <trkpt lat="47.4852" lon="6.77018">
        <ele>315</ele>
        <time>2016-01-17T10:31:24.000Z</time>
      </trkpt>
      <trkpt lat="47.48525" lon="6.77022">
        <ele>314</ele>
        <time>2016-01-17T10:31:25.000Z</time>
      </trkpt>
      <trkpt lat="47.4853" lon="6.77026">
        <ele>314</ele>
        <time>2016-01-17T10:31:26.000Z</time>
      </trkpt>
      <trkpt lat="47.48535" lon="6.7703">
        <ele>314</ele>
        <time>2016-01-17T10:31:27.000Z</time>
      </trkpt>
      <trkpt lat="47.4854" lon="6.77034">
        <ele>314</ele>
        <time>2016-01-17T10:31:28.000Z</time>
      </trkpt>
      <trkpt lat="47.48546" lon="6.77038">
        <ele>314</ele>
        <time>2016-01-17T10:31:29.000Z</time>
      </trkpt>
      <trkpt lat="47.48552" lon="6.77041">
        <ele>314</ele>
        <time>2016-01-17T10:31:30.000Z</time>
      </trkpt>
      <trkpt lat="47.48558" lon="6.77044">
        <ele>314</ele>
        <time>2016-01-17T10:31:31.000Z</time>
      </trkpt>
      <trkpt lat="47.48563" lon="6.77045">
        <ele>314</ele>
        <time>2016-01-17T10:31:32.000Z</time>
      </trkpt>
      <trkpt lat="47.48573" lon="6.7705">
        <ele>314</ele>
        <time>2016-01-17T10:31:34.000Z</time>
      </trkpt>
      <trkpt lat="47.48578" lon="6.77053">
        <ele>314</ele>
        <time>2016-01-17T10:31:35.000Z</time>
      </trkpt>
      <trkpt lat="47.48583" lon="6.77054">
        <ele>314</ele>
        <time>2016-01-17T10:31:36.000Z</time>
      </trkpt>
      <trkpt lat="47.48588" lon="6.77058">
        <ele>313</ele>
        <time>2016-01-17T10:31:37.000Z</time>
      </trkpt>
      <trkpt lat="47.48593" lon="6.77061">
        <ele>313</ele>
        <time>2016-01-17T10:31:38.000Z</time>
      </trkpt>
      <trkpt lat="47.48599" lon="6.77064">
        <ele>313</ele>
        <time>2016-01-17T10:31:39.000Z</time>
      </trkpt>
      <trkpt lat="47.48605" lon="6.77067">
        <ele>313</ele>
        <time>2016-01-17T10:31:40.000Z</time>
      </trkpt>
      <trkpt lat="47.4861" lon="6.77069">
        <ele>313</ele>
        <time>2016-01-17T10:31:41.000Z</time>
      </trkpt>
      <trkpt lat="47.48615" lon="6.77074">
        <ele>313</ele>
        <time>2016-01-17T10:31:42.000Z</time>
      </trkpt>
      <trkpt lat="47.48619" lon="6.77078">
        <ele>313</ele>
        <time>2016-01-17T10:31:43.000Z</time>
      </trkpt>
      <trkpt lat="47.48625" lon="6.7708">
        <ele>313</ele>
        <time>2016-01-17T10:31:44.000Z</time>
      </trkpt>
      <trkpt lat="47.48629" lon="6.77083">
        <ele>313</ele>
        <time>2016-01-17T10:31:45.000Z</time>
      </trkpt>
      <trkpt lat="47.48633" lon="6.77087">
        <ele>312</ele>
        <time>2016-01-17T10:31:46.000Z</time>
      </trkpt>
      <trkpt lat="47.48638" lon="6.77091">
        <ele>312</ele>
        <time>2016-01-17T10:31:47.000Z</time>
      </trkpt>
      <trkpt lat="47.48643" lon="6.77097">
        <ele>312</ele>
        <time>2016-01-17T10:31:48.000Z</time>
      </trkpt>
      <trkpt lat="47.48649" lon="6.77103">
        <ele>312</ele>
        <time>2016-01-17T10:31:49.001Z</time>
      </trkpt>
      <trkpt lat="47.48654" lon="6.77108">
        <ele>312</ele>
        <time>2016-01-17T10:31:50.000Z</time>
      </trkpt>
      <trkpt lat="47.48659" lon="6.77114">
        <ele>312</ele>
        <time>2016-01-17T10:31:51.000Z</time>
      </trkpt>
      <trkpt lat="47.48664" lon="6.7712">
        <ele>312</ele>
        <time>2016-01-17T10:31:52.000Z</time>
      </trkpt>
      <trkpt lat="47.4867" lon="6.77125">
        <ele>312</ele>
        <time>2016-01-17T10:31:53.000Z</time>
      </trkpt>
      <trkpt lat="47.48675" lon="6.7713">
        <ele>312</ele>
        <time>2016-01-17T10:31:54.000Z</time>
      </trkpt>
      <trkpt lat="47.4868" lon="6.77136">
        <ele>312</ele>
        <time>2016-01-17T10:31:55.000Z</time>
      </trkpt>
      <trkpt lat="47.48684" lon="6.7714">
        <ele>311</ele>
        <time>2016-01-17T10:31:56.000Z</time>
      </trkpt>
      <trkpt lat="47.48689" lon="6.77145">
        <ele>311</ele>
        <time>2016-01-17T10:31:57.000Z</time>
      </trkpt>
      <trkpt lat="47.48694" lon="6.7715">
        <ele>311</ele>
        <time>2016-01-17T10:31:58.000Z</time>
      </trkpt>
      <trkpt lat="47.48699" lon="6.77155">
        <ele>311</ele>
        <time>2016-01-17T10:31:59.000Z</time>
      </trkpt>
      <trkpt lat="47.48704" lon="6.77159">
        <ele>311</ele>
        <time>2016-01-17T10:32:00.000Z</time>
      </trkpt>
      <trkpt lat="47.48709" lon="6.77163">
        <ele>311</ele>
        <time>2016-01-17T10:32:01.000Z</time>
      </trkpt>
      <trkpt lat="47.48714" lon="6.77167">
        <ele>311</ele>
        <time>2016-01-17T10:32:02.000Z</time>
      </trkpt>
      <trkpt lat="47.48719" lon="6.77171">
        <ele>311</ele>
        <time>2016-01-17T10:32:03.000Z</time>
      </trkpt>
      <trkpt lat="47.48724" lon="6.77175">
        <ele>311</ele>
        <time>2016-01-17T10:32:04.000Z</time>
      </trkpt>
      <trkpt lat="47.4873" lon="6.77179">
        <ele>311</ele>
        <time>2016-01-17T10:32:05.000Z</time>
      </trkpt>
      <trkpt lat="47.48735" lon="6.77183">
        <ele>311</ele>
        <time>2016-01-17T10:32:06.000Z</time>
      </trkpt>
      <trkpt lat="47.4874" lon="6.77187">
        <ele>310</ele>
        <time>2016-01-17T10:32:07.000Z</time>
      </trkpt>
      <trkpt lat="47.48745" lon="6.77191">
        <ele>310</ele>
        <time>2016-01-17T10:32:08.000Z</time>
      </trkpt>
      <trkpt lat="47.4875" lon="6.77196">
        <ele>310</ele>
        <time>2016-01-17T10:32:09.000Z</time>
      </trkpt>
      <trkpt lat="47.48755" lon="6.77199">
        <ele>310</ele>
        <time>2016-01-17T10:32:10.000Z</time>
      </trkpt>
      <trkpt lat="47.4876" lon="6.77204">
        <ele>310</ele>
        <time>2016-01-17T10:32:11.000Z</time>
      </trkpt>
      <trkpt lat="47.48765" lon="6.77207">
        <ele>310</ele>
        <time>2016-01-17T10:32:12.000Z</time>
      </trkpt>
      <trkpt lat="47.4877" lon="6.77211">
        <ele>310</ele>
        <time>2016-01-17T10:32:13.000Z</time>
      </trkpt>
      <trkpt lat="47.48776" lon="6.77215">
        <ele>310</ele>
        <time>2016-01-17T10:32:14.000Z</time>
      </trkpt>
      <trkpt lat="47.48781" lon="6.77219">
        <ele>310</ele>
        <time>2016-01-17T10:32:15.000Z</time>
      </trkpt>
      <trkpt lat="47.48786" lon="6.77222">
        <ele>310</ele>
        <time>2016-01-17T10:32:16.000Z</time>
      </trkpt>
      <trkpt lat="47.48791" lon="6.77226">
        <ele>310</ele>
        <time>2016-01-17T10:32:17.000Z</time>
      </trkpt>
      <trkpt lat="47.48795" lon="6.77231">
        <ele>310</ele>
        <time>2016-01-17T10:32:18.000Z</time>
      </trkpt>
      <trkpt lat="47.48801" lon="6.77236">
        <ele>310</ele>
        <time>2016-01-17T10:32:19.000Z</time>
      </trkpt>
      <trkpt lat="47.48805" lon="6.77239">
        <ele>311</ele>
        <time>2016-01-17T10:32:20.000Z</time>
      </trkpt>
      <trkpt lat="47.48811" lon="6.77243">
        <ele>311</ele>
        <time>2016-01-17T10:32:21.000Z</time>
      </trkpt>
      <trkpt lat="47.48816" lon="6.77247">
        <ele>311</ele>
        <time>2016-01-17T10:32:22.000Z</time>
      </trkpt>
      <trkpt lat="47.48821" lon="6.77251">
        <ele>310</ele>
        <time>2016-01-17T10:32:23.000Z</time>
      </trkpt>
      <trkpt lat="47.48827" lon="6.77254">
        <ele>311</ele>
        <time>2016-01-17T10:32:24.000Z</time>
      </trkpt>
      <trkpt lat="47.48831" lon="6.77257">
        <ele>311</ele>
        <time>2016-01-17T10:32:25.000Z</time>
      </trkpt>
      <trkpt lat="47.48836" lon="6.77262">
        <ele>311</ele>
        <time>2016-01-17T10:32:26.000Z</time>
      </trkpt>
      <trkpt lat="47.48841" lon="6.77266">
        <ele>310</ele>
        <time>2016-01-17T10:32:27.000Z</time>
      </trkpt>
      <trkpt lat="47.48846" lon="6.77269">
        <ele>310</ele>
        <time>2016-01-17T10:32:28.000Z</time>
      </trkpt>
      <trkpt lat="47.48851" lon="6.77272">
        <ele>310</ele>
        <time>2016-01-17T10:32:29.000Z</time>
      </trkpt>
      <trkpt lat="47.48857" lon="6.77275">
        <ele>310</ele>
        <time>2016-01-17T10:32:30.000Z</time>
      </trkpt>
      <trkpt lat="47.48862" lon="6.77276">
        <ele>310</ele>
        <time>2016-01-17T10:32:31.000Z</time>
      </trkpt>
      <trkpt lat="47.48868" lon="6.7728">
        <ele>310</ele>
        <time>2016-01-17T10:32:32.000Z</time>
      </trkpt>
      <trkpt lat="47.48873" lon="6.77283">
        <ele>310</ele>
        <time>2016-01-17T10:32:33.000Z</time>
      </trkpt>
      <trkpt lat="47.48879" lon="6.77285">
        <ele>310</ele>
        <time>2016-01-17T10:32:34.000Z</time>
      </trkpt>
      <trkpt lat="47.48885" lon="6.77287">
        <ele>310</ele>
        <time>2016-01-17T10:32:35.000Z</time>
      </trkpt>
      <trkpt lat="47.48891" lon="6.77289">
        <ele>310</ele>
        <time>2016-01-17T10:32:36.000Z</time>
      </trkpt>
      <trkpt lat="47.48896" lon="6.7729">
        <ele>310</ele>
        <time>2016-01-17T10:32:37.000Z</time>
      </trkpt>
      <trkpt lat="47.48902" lon="6.77292">
        <ele>310</ele>
        <time>2016-01-17T10:32:38.000Z</time>
      </trkpt>
      <trkpt lat="47.48907" lon="6.77295">
        <ele>310</ele>
        <time>2016-01-17T10:32:39.000Z</time>
      </trkpt>
      <trkpt lat="47.48913" lon="6.77297">
        <ele>310</ele>
        <time>2016-01-17T10:32:40.000Z</time>
      </trkpt>
      <trkpt lat="47.48918" lon="6.77299">
        <ele>311</ele>
        <time>2016-01-17T10:32:41.000Z</time>
      </trkpt>
      <trkpt lat="47.48924" lon="6.77301">
        <ele>311</ele>
        <time>2016-01-17T10:32:42.000Z</time>
      </trkpt>
      <trkpt lat="47.48929" lon="6.77303">
        <ele>311</ele>
        <time>2016-01-17T10:32:43.000Z</time>
      </trkpt>
      <trkpt lat="47.48934" lon="6.77306">
        <ele>311</ele>
        <time>2016-01-17T10:32:44.000Z</time>
      </trkpt>
      <trkpt lat="47.4894" lon="6.77308">
        <ele>311</ele>
        <time>2016-01-17T10:32:45.000Z</time>
      </trkpt>
      <trkpt lat="47.48945" lon="6.7731">
        <ele>311</ele>
        <time>2016-01-17T10:32:46.000Z</time>
      </trkpt>
      <trkpt lat="47.4895" lon="6.77312">
        <ele>311</ele>
        <time>2016-01-17T10:32:47.000Z</time>
      </trkpt>
      <trkpt lat="47.48955" lon="6.77314">
        <ele>311</ele>
        <time>2016-01-17T10:32:48.000Z</time>
      </trkpt>
      <trkpt lat="47.4896" lon="6.77316">
        <ele>311</ele>
        <time>2016-01-17T10:32:49.000Z</time>
      </trkpt>
      <trkpt lat="47.48966" lon="6.77317">
        <ele>311</ele>
        <time>2016-01-17T10:32:50.000Z</time>
      </trkpt>
      <trkpt lat="47.48971" lon="6.77318">
        <ele>311</ele>
        <time>2016-01-17T10:32:51.000Z</time>
      </trkpt>
      <trkpt lat="47.48976" lon="6.77318">
        <ele>311</ele>
        <time>2016-01-17T10:32:52.000Z</time>
      </trkpt>
      <trkpt lat="47.48981" lon="6.77319">
        <ele>311</ele>
        <time>2016-01-17T10:32:53.000Z</time>
      </trkpt>
      <trkpt lat="47.48987" lon="6.77319">
        <ele>311</ele>
        <time>2016-01-17T10:32:54.000Z</time>
      </trkpt>
      <trkpt lat="47.48993" lon="6.77319">
        <ele>311</ele>
        <time>2016-01-17T10:32:55.000Z</time>
      </trkpt>
      <trkpt lat="47.48998" lon="6.7732">
        <ele>311</ele>
        <time>2016-01-17T10:32:56.000Z</time>
      </trkpt>
      <trkpt lat="47.49004" lon="6.7732">
        <ele>311</ele>
        <time>2016-01-17T10:32:57.000Z</time>
      </trkpt>
      <trkpt lat="47.49009" lon="6.77322">
        <ele>311</ele>
        <time>2016-01-17T10:32:58.000Z</time>
      </trkpt>
      <trkpt lat="47.49015" lon="6.77323">
        <ele>311</ele>
        <time>2016-01-17T10:32:59.000Z</time>
      </trkpt>
      <trkpt lat="47.4902" lon="6.77323">
        <ele>311</ele>
        <time>2016-01-17T10:33:00.000Z</time>
      </trkpt>
      <trkpt lat="47.49026" lon="6.77324">
        <ele>311</ele>
        <time>2016-01-17T10:33:01.000Z</time>
      </trkpt>
      <trkpt lat="47.49032" lon="6.77324">
        <ele>311</ele>
        <time>2016-01-17T10:33:02.000Z</time>
      </trkpt>
      <trkpt lat="47.49037" lon="6.77325">
        <ele>311</ele>
        <time>2016-01-17T10:33:03.000Z</time>
      </trkpt>
      <trkpt lat="47.49043" lon="6.77326">
        <ele>311</ele>
        <time>2016-01-17T10:33:04.000Z</time>
      </trkpt>
      <trkpt lat="47.49048" lon="6.77327">
        <ele>311</ele>
        <time>2016-01-17T10:33:05.000Z</time>
      </trkpt>
      <trkpt lat="47.49054" lon="6.77327">
        <ele>311</ele>
        <time>2016-01-17T10:33:06.000Z</time>
      </trkpt>
      <trkpt lat="47.4906" lon="6.77328">
        <ele>311</ele>
        <time>2016-01-17T10:33:07.000Z</time>
      </trkpt>
      <trkpt lat="47.49065" lon="6.77328">
        <ele>311</ele>
        <time>2016-01-17T10:33:08.000Z</time>
      </trkpt>
      <trkpt lat="47.49071" lon="6.77329">
        <ele>311</ele>
        <time>2016-01-17T10:33:09.000Z</time>
      </trkpt>
      <trkpt lat="47.49076" lon="6.7733">
        <ele>311</ele>
        <time>2016-01-17T10:33:10.000Z</time>
      </trkpt>
      <trkpt lat="47.49082" lon="6.7733">
        <ele>311</ele>
        <time>2016-01-17T10:33:11.000Z</time>
      </trkpt>
      <trkpt lat="47.49087" lon="6.7733">
        <ele>311</ele>
        <time>2016-01-17T10:33:12.000Z</time>
      </trkpt>
      <trkpt lat="47.49092" lon="6.7733">
        <ele>311</ele>
        <time>2016-01-17T10:33:13.000Z</time>
      </trkpt>
      <trkpt lat="47.49096" lon="6.7733">
        <ele>311</ele>
        <time>2016-01-17T10:33:14.000Z</time>
      </trkpt>
      <trkpt lat="47.49101" lon="6.77331">
        <ele>311</ele>
        <time>2016-01-17T10:33:15.000Z</time>
      </trkpt>
      <trkpt lat="47.49105" lon="6.77331">
        <ele>311</ele>
        <time>2016-01-17T10:33:16.000Z</time>
      </trkpt>
      <trkpt lat="47.4911" lon="6.77332">
        <ele>311</ele>
        <time>2016-01-17T10:33:17.000Z</time>
      </trkpt>
      <trkpt lat="47.49115" lon="6.77331">
        <ele>311</ele>
        <time>2016-01-17T10:33:18.000Z</time>
      </trkpt>
      <trkpt lat="47.49119" lon="6.77331">
        <ele>311</ele>
        <time>2016-01-17T10:33:19.000Z</time>
      </trkpt>
      <trkpt lat="47.49124" lon="6.77331">
        <ele>311</ele>
        <time>2016-01-17T10:33:20.000Z</time>
      </trkpt>
      <trkpt lat="47.49128" lon="6.77331">
        <ele>311</ele>
        <time>2016-01-17T10:33:21.000Z</time>
      </trkpt>
      <trkpt lat="47.49132" lon="6.77332">
        <ele>311</ele>
        <time>2016-01-17T10:33:22.000Z</time>
      </trkpt>
      <trkpt lat="47.49136" lon="6.77332">
        <ele>311</ele>
        <time>2016-01-17T10:33:23.000Z</time>
      </trkpt>
      <trkpt lat="47.4914" lon="6.77331">
        <ele>311</ele>
        <time>2016-01-17T10:33:24.000Z</time>
      </trkpt>
      <trkpt lat="47.49144" lon="6.77332">
        <ele>311</ele>
        <time>2016-01-17T10:33:25.000Z</time>
      </trkpt>
      <trkpt lat="47.49148" lon="6.77332">
        <ele>311</ele>
        <time>2016-01-17T10:33:26.000Z</time>
      </trkpt>
      <trkpt lat="47.49152" lon="6.77332">
        <ele>311</ele>
        <time>2016-01-17T10:33:27.000Z</time>
      </trkpt>
      <trkpt lat="47.49155" lon="6.77333">
        <ele>310</ele>
        <time>2016-01-17T10:33:28.000Z</time>
      </trkpt>
      <trkpt lat="47.49159" lon="6.77333">
        <ele>310</ele>
        <time>2016-01-17T10:33:29.000Z</time>
      </trkpt>
      <trkpt lat="47.49162" lon="6.77334">
        <ele>310</ele>
        <time>2016-01-17T10:33:30.000Z</time>
      </trkpt>
      <trkpt lat="47.49166" lon="6.77334">
        <ele>310</ele>
        <time>2016-01-17T10:33:31.000Z</time>
      </trkpt>
      <trkpt lat="47.49169" lon="6.77334">
        <ele>310</ele>
        <time>2016-01-17T10:33:32.000Z</time>
      </trkpt>
      <trkpt lat="47.49172" lon="6.77334">
        <ele>310</ele>
        <time>2016-01-17T10:33:33.000Z</time>
      </trkpt>
      <trkpt lat="47.49174" lon="6.77335">
        <ele>310</ele>
        <time>2016-01-17T10:33:34.000Z</time>
      </trkpt>
      <trkpt lat="47.49177" lon="6.77335">
        <ele>310</ele>
        <time>2016-01-17T10:33:35.000Z</time>
      </trkpt>
      <trkpt lat="47.49179" lon="6.77335">
        <ele>310</ele>
        <time>2016-01-17T10:33:36.000Z</time>
      </trkpt>
      <trkpt lat="47.49182" lon="6.77335">
        <ele>310</ele>
        <time>2016-01-17T10:33:37.000Z</time>
      </trkpt>
      <trkpt lat="47.49185" lon="6.77335">
        <ele>310</ele>
        <time>2016-01-17T10:33:39.000Z</time>
      </trkpt>
      <trkpt lat="47.49186" lon="6.77335">
        <ele>310</ele>
        <time>2016-01-17T10:33:40.000Z</time>
      </trkpt>
      <trkpt lat="47.4919" lon="6.77333">
        <ele>310</ele>
        <time>2016-01-17T10:34:29.000Z</time>
      </trkpt>
      <trkpt lat="47.49191" lon="6.77333">
        <ele>310</ele>
        <time>2016-01-17T10:34:30.000Z</time>
      </trkpt>
      <trkpt lat="47.49194" lon="6.77333">
        <ele>310</ele>
        <time>2016-01-17T10:34:32.000Z</time>
      </trkpt>
      <trkpt lat="47.49196" lon="6.77333">
        <ele>310</ele>
        <time>2016-01-17T10:34:33.000Z</time>
      </trkpt>
      <trkpt lat="47.49198" lon="6.77332">
        <ele>310</ele>
        <time>2016-01-17T10:34:34.000Z</time>
      </trkpt>
      <trkpt lat="47.49201" lon="6.77332">
        <ele>310</ele>
        <time>2016-01-17T10:34:35.000Z</time>
      </trkpt>
      <trkpt lat="47.49204" lon="6.77332">
        <ele>310</ele>
        <time>2016-01-17T10:34:36.000Z</time>
      </trkpt>
      <trkpt lat="47.49207" lon="6.77332">
        <ele>310</ele>
        <time>2016-01-17T10:34:37.000Z</time>
      </trkpt>
      <trkpt lat="47.49211" lon="6.77332">
        <ele>310</ele>
        <time>2016-01-17T10:34:38.000Z</time>
      </trkpt>
      <trkpt lat="47.49215" lon="6.77332">
        <ele>310</ele>
        <time>2016-01-17T10:34:39.000Z</time>
      </trkpt>
      <trkpt lat="47.49219" lon="6.77333">
        <ele>310</ele>
        <time>2016-01-17T10:34:40.000Z</time>
      </trkpt>
      <trkpt lat="47.49224" lon="6.77333">
        <ele>310</ele>
        <time>2016-01-17T10:34:41.000Z</time>
      </trkpt>
      <trkpt lat="47.49228" lon="6.77333">
        <ele>309</ele>
        <time>2016-01-17T10:34:42.000Z</time>
      </trkpt>
      <trkpt lat="47.49232" lon="6.77334">
        <ele>310</ele>
        <time>2016-01-17T10:34:43.000Z</time>
      </trkpt>
      <trkpt lat="47.49236" lon="6.77334">
        <ele>310</ele>
        <time>2016-01-17T10:34:44.000Z</time>
      </trkpt>
      <trkpt lat="47.4924" lon="6.77334">
        <ele>310</ele>
        <time>2016-01-17T10:34:45.000Z</time>
      </trkpt>
      <trkpt lat="47.49244" lon="6.77333">
        <ele>310</ele>
        <time>2016-01-17T10:34:46.000Z</time>
      </trkpt>
      <trkpt lat="47.49248" lon="6.77333">
        <ele>310</ele>
        <time>2016-01-17T10:34:47.000Z</time>
      </trkpt>
      <trkpt lat="47.49252" lon="6.77331">
        <ele>310</ele>
        <time>2016-01-17T10:34:48.000Z</time>
      </trkpt>
      <trkpt lat="47.49256" lon="6.7733">
        <ele>310</ele>
        <time>2016-01-17T10:34:49.000Z</time>
      </trkpt>
      <trkpt lat="47.49261" lon="6.77326">
        <ele>310</ele>
        <time>2016-01-17T10:34:50.000Z</time>
      </trkpt>
      <trkpt lat="47.49266" lon="6.77323">
        <ele>310</ele>
        <time>2016-01-17T10:34:51.000Z</time>
      </trkpt>
      <trkpt lat="47.49272" lon="6.77323">
        <ele>310</ele>
        <time>2016-01-17T10:34:52.000Z</time>
      </trkpt>
      <trkpt lat="47.49277" lon="6.77323">
        <ele>310</ele>
        <time>2016-01-17T10:34:53.000Z</time>
      </trkpt>
      <trkpt lat="47.49283" lon="6.77323">
        <ele>310</ele>
        <time>2016-01-17T10:34:54.000Z</time>
      </trkpt>
      <trkpt lat="47.49289" lon="6.77324">
        <ele>310</ele>
        <time>2016-01-17T10:34:55.000Z</time>
      </trkpt>
      <trkpt lat="47.49295" lon="6.77325">
        <ele>310</ele>
        <time>2016-01-17T10:34:56.000Z</time>
      </trkpt>
      <trkpt lat="47.49301" lon="6.77326">
        <ele>310</ele>
        <time>2016-01-17T10:34:57.000Z</time>
      </trkpt>
      <trkpt lat="47.49307" lon="6.77326">
        <ele>310</ele>
        <time>2016-01-17T10:34:58.000Z</time>
      </trkpt>
      <trkpt lat="47.49313" lon="6.77327">
        <ele>310</ele>
        <time>2016-01-17T10:34:59.000Z</time>
      </trkpt>
      <trkpt lat="47.49319" lon="6.77328">
        <ele>310</ele>
        <time>2016-01-17T10:35:00.000Z</time>
      </trkpt>
      <trkpt lat="47.49324" lon="6.77329">
        <ele>310</ele>
        <time>2016-01-17T10:35:01.000Z</time>
      </trkpt>
      <trkpt lat="47.49328" lon="6.77332">
        <ele>310</ele>
        <time>2016-01-17T10:35:02.000Z</time>
      </trkpt>
      <trkpt lat="47.49332" lon="6.77334">
        <ele>310</ele>
        <time>2016-01-17T10:35:03.000Z</time>
      </trkpt>
      <trkpt lat="47.49336" lon="6.77337">
        <ele>310</ele>
        <time>2016-01-17T10:35:04.000Z</time>
      </trkpt>
      <trkpt lat="47.49341" lon="6.7734">
        <ele>310</ele>
        <time>2016-01-17T10:35:05.000Z</time>
      </trkpt>
      <trkpt lat="47.49345" lon="6.77342">
        <ele>310</ele>
        <time>2016-01-17T10:35:06.000Z</time>
      </trkpt>
      <trkpt lat="47.4935" lon="6.77343">
        <ele>310</ele>
        <time>2016-01-17T10:35:07.000Z</time>
      </trkpt>
      <trkpt lat="47.49355" lon="6.77343">
        <ele>310</ele>
        <time>2016-01-17T10:35:08.000Z</time>
      </trkpt>
      <trkpt lat="47.4936" lon="6.77343">
        <ele>310</ele>
        <time>2016-01-17T10:35:09.000Z</time>
      </trkpt>
      <trkpt lat="47.49365" lon="6.77344">
        <ele>310</ele>
        <time>2016-01-17T10:35:10.000Z</time>
      </trkpt>
      <trkpt lat="47.4937" lon="6.77344">
        <ele>310</ele>
        <time>2016-01-17T10:35:11.000Z</time>
      </trkpt>
      <trkpt lat="47.49375" lon="6.77345">
        <ele>310</ele>
        <time>2016-01-17T10:35:12.000Z</time>
      </trkpt>
      <trkpt lat="47.4938" lon="6.77346">
        <ele>310</ele>
        <time>2016-01-17T10:35:13.000Z</time>
      </trkpt>
      <trkpt lat="47.49384" lon="6.77347">
        <ele>310</ele>
        <time>2016-01-17T10:35:14.000Z</time>
      </trkpt>
      <trkpt lat="47.49389" lon="6.77346">
        <ele>310</ele>
        <time>2016-01-17T10:35:15.000Z</time>
      </trkpt>
      <trkpt lat="47.49393" lon="6.77346">
        <ele>310</ele>
        <time>2016-01-17T10:35:16.000Z</time>
      </trkpt>
      <trkpt lat="47.49397" lon="6.77346">
        <ele>310</ele>
        <time>2016-01-17T10:35:17.000Z</time>
      </trkpt>
      <trkpt lat="47.49402" lon="6.77346">
        <ele>311</ele>
        <time>2016-01-17T10:35:18.000Z</time>
      </trkpt>
      <trkpt lat="47.49407" lon="6.77347">
        <ele>311</ele>
        <time>2016-01-17T10:35:19.000Z</time>
      </trkpt>
      <trkpt lat="47.49412" lon="6.77347">
        <ele>311</ele>
        <time>2016-01-17T10:35:20.000Z</time>
      </trkpt>
      <trkpt lat="47.49416" lon="6.77347">
        <ele>311</ele>
        <time>2016-01-17T10:35:21.000Z</time>
      </trkpt>
      <trkpt lat="47.49421" lon="6.77347">
        <ele>311</ele>
        <time>2016-01-17T10:35:22.000Z</time>
      </trkpt>
      <trkpt lat="47.49426" lon="6.77347">
        <ele>311</ele>
        <time>2016-01-17T10:35:23.000Z</time>
      </trkpt>
      <trkpt lat="47.49431" lon="6.77348">
        <ele>311</ele>
        <time>2016-01-17T10:35:24.000Z</time>
      </trkpt>
      <trkpt lat="47.49435" lon="6.77348">
        <ele>311</ele>
        <time>2016-01-17T10:35:25.000Z</time>
      </trkpt>
      <trkpt lat="47.4944" lon="6.77348">
        <ele>311</ele>
        <time>2016-01-17T10:35:26.000Z</time>
      </trkpt>
      <trkpt lat="47.49445" lon="6.77348">
        <ele>311</ele>
        <time>2016-01-17T10:35:27.000Z</time>
      </trkpt>
      <trkpt lat="47.49449" lon="6.77348">
        <ele>311</ele>
        <time>2016-01-17T10:35:28.000Z</time>
      </trkpt>
      <trkpt lat="47.49454" lon="6.77349">
        <ele>311</ele>
        <time>2016-01-17T10:35:29.000Z</time>
      </trkpt>
      <trkpt lat="47.49458" lon="6.77349">
        <ele>311</ele>
        <time>2016-01-17T10:35:30.000Z</time>
      </trkpt>
      <trkpt lat="47.49463" lon="6.7735">
        <ele>311</ele>
        <time>2016-01-17T10:35:31.000Z</time>
      </trkpt>
      <trkpt lat="47.49468" lon="6.7735">
        <ele>311</ele>
        <time>2016-01-17T10:35:32.000Z</time>
      </trkpt>
      <trkpt lat="47.49472" lon="6.7735">
        <ele>311</ele>
        <time>2016-01-17T10:35:33.000Z</time>
      </trkpt>
      <trkpt lat="47.49477" lon="6.7735">
        <ele>311</ele>
        <time>2016-01-17T10:35:34.000Z</time>
      </trkpt>
      <trkpt lat="47.49482" lon="6.7735">
        <ele>311</ele>
        <time>2016-01-17T10:35:35.000Z</time>
      </trkpt>
      <trkpt lat="47.49486" lon="6.77351">
        <ele>312</ele>
        <time>2016-01-17T10:35:36.000Z</time>
      </trkpt>
      <trkpt lat="47.49491" lon="6.77351">
        <ele>312</ele>
        <time>2016-01-17T10:35:37.000Z</time>
      </trkpt>
      <trkpt lat="47.49496" lon="6.77352">
        <ele>312</ele>
        <time>2016-01-17T10:35:38.000Z</time>
      </trkpt>
      <trkpt lat="47.495" lon="6.77353">
        <ele>312</ele>
        <time>2016-01-17T10:35:39.000Z</time>
      </trkpt>
      <trkpt lat="47.49505" lon="6.77354">
        <ele>312</ele>
        <time>2016-01-17T10:35:40.000Z</time>
      </trkpt>
      <trkpt lat="47.4951" lon="6.77354">
        <ele>312</ele>
        <time>2016-01-17T10:35:41.000Z</time>
      </trkpt>
      <trkpt lat="47.49515" lon="6.77355">
        <ele>312</ele>
        <time>2016-01-17T10:35:42.000Z</time>
      </trkpt>
      <trkpt lat="47.4952" lon="6.77355">
        <ele>312</ele>
        <time>2016-01-17T10:35:43.000Z</time>
      </trkpt>
      <trkpt lat="47.49525" lon="6.77355">
        <ele>312</ele>
        <time>2016-01-17T10:35:44.000Z</time>
      </trkpt>
      <trkpt lat="47.4953" lon="6.77355">
        <ele>312</ele>
        <time>2016-01-17T10:35:45.000Z</time>
      </trkpt>
      <trkpt lat="47.49535" lon="6.77356">
        <ele>312</ele>
        <time>2016-01-17T10:35:46.000Z</time>
      </trkpt>
      <trkpt lat="47.4954" lon="6.77355">
        <ele>312</ele>
        <time>2016-01-17T10:35:47.000Z</time>
      </trkpt>
      <trkpt lat="47.49545" lon="6.77355">
        <ele>312</ele>
        <time>2016-01-17T10:35:48.000Z</time>
      </trkpt>
      <trkpt lat="47.4955" lon="6.77356">
        <ele>312</ele>
        <time>2016-01-17T10:35:49.000Z</time>
      </trkpt>
      <trkpt lat="47.49555" lon="6.77357">
        <ele>312</ele>
        <time>2016-01-17T10:35:50.000Z</time>
      </trkpt>
      <trkpt lat="47.49559" lon="6.77357">
        <ele>312</ele>
        <time>2016-01-17T10:35:51.000Z</time>
      </trkpt>
      <trkpt lat="47.49564" lon="6.77357">
        <ele>312</ele>
        <time>2016-01-17T10:35:52.000Z</time>
      </trkpt>
      <trkpt lat="47.4957" lon="6.77357">
        <ele>313</ele>
        <time>2016-01-17T10:35:53.000Z</time>
      </trkpt>
      <trkpt lat="47.49575" lon="6.77358">
        <ele>313</ele>
        <time>2016-01-17T10:35:54.000Z</time>
      </trkpt>
      <trkpt lat="47.4958" lon="6.77358">
        <ele>313</ele>
        <time>2016-01-17T10:35:55.000Z</time>
      </trkpt>
      <trkpt lat="47.49585" lon="6.77359">
        <ele>313</ele>
        <time>2016-01-17T10:35:56.000Z</time>
      </trkpt>
      <trkpt lat="47.4959" lon="6.77359">
        <ele>313</ele>
        <time>2016-01-17T10:35:57.000Z</time>
      </trkpt>
      <trkpt lat="47.49595" lon="6.77359">
        <ele>313</ele>
        <time>2016-01-17T10:35:58.000Z</time>
      </trkpt>
      <trkpt lat="47.496" lon="6.77359">
        <ele>313</ele>
        <time>2016-01-17T10:35:59.000Z</time>
      </trkpt>
      <trkpt lat="47.49605" lon="6.77358">
        <ele>313</ele>
        <time>2016-01-17T10:36:00.000Z</time>
      </trkpt>
      <trkpt lat="47.49609" lon="6.77355">
        <ele>313</ele>
        <time>2016-01-17T10:36:01.000Z</time>
      </trkpt>
      <trkpt lat="47.49613" lon="6.77354">
        <ele>313</ele>
        <time>2016-01-17T10:36:02.000Z</time>
      </trkpt>
      <trkpt lat="47.49618" lon="6.77352">
        <ele>313</ele>
        <time>2016-01-17T10:36:03.000Z</time>
      </trkpt>
      <trkpt lat="47.49622" lon="6.77352">
        <ele>313</ele>
        <time>2016-01-17T10:36:04.000Z</time>
      </trkpt>
      <trkpt lat="47.49627" lon="6.7735">
        <ele>313</ele>
        <time>2016-01-17T10:36:05.000Z</time>
      </trkpt>
      <trkpt lat="47.49631" lon="6.77349">
        <ele>313</ele>
        <time>2016-01-17T10:36:06.000Z</time>
      </trkpt>
      <trkpt lat="47.49636" lon="6.77348">
        <ele>313</ele>
        <time>2016-01-17T10:36:07.000Z</time>
      </trkpt>
      <trkpt lat="47.49641" lon="6.77347">
        <ele>313</ele>
        <time>2016-01-17T10:36:08.000Z</time>
      </trkpt>
      <trkpt lat="47.49646" lon="6.77346">
        <ele>313</ele>
        <time>2016-01-17T10:36:09.000Z</time>
      </trkpt>
      <trkpt lat="47.4965" lon="6.77344">
        <ele>313</ele>
        <time>2016-01-17T10:36:10.000Z</time>
      </trkpt>
      <trkpt lat="47.49655" lon="6.77343">
        <ele>313</ele>
        <time>2016-01-17T10:36:11.000Z</time>
      </trkpt>
      <trkpt lat="47.4966" lon="6.77341">
        <ele>314</ele>
        <time>2016-01-17T10:36:12.000Z</time>
      </trkpt>
      <trkpt lat="47.49664" lon="6.77339">
        <ele>314</ele>
        <time>2016-01-17T10:36:13.000Z</time>
      </trkpt>
      <trkpt lat="47.4967" lon="6.77338">
        <ele>314</ele>
        <time>2016-01-17T10:36:14.000Z</time>
      </trkpt>
      <trkpt lat="47.49674" lon="6.77338">
        <ele>313</ele>
        <time>2016-01-17T10:36:15.000Z</time>
      </trkpt>
      <trkpt lat="47.49679" lon="6.77336">
        <ele>313</ele>
        <time>2016-01-17T10:36:16.000Z</time>
      </trkpt>
      <trkpt lat="47.49683" lon="6.77335">
        <ele>313</ele>
        <time>2016-01-17T10:36:17.000Z</time>
      </trkpt>
      <trkpt lat="47.49687" lon="6.77333">
        <ele>315</ele>
        <time>2016-01-17T10:36:18.000Z</time>
      </trkpt>
      <trkpt lat="47.49691" lon="6.77331">
        <ele>315</ele>
        <time>2016-01-17T10:36:19.000Z</time>
      </trkpt>
      <trkpt lat="47.49694" lon="6.77328">
        <ele>315</ele>
        <time>2016-01-17T10:36:20.000Z</time>
      </trkpt>
      <trkpt lat="47.49698" lon="6.77329">
        <ele>315</ele>
        <time>2016-01-17T10:36:21.000Z</time>
      </trkpt>
      <trkpt lat="47.49702" lon="6.77329">
        <ele>315</ele>
        <time>2016-01-17T10:36:22.000Z</time>
      </trkpt>
      <trkpt lat="47.49706" lon="6.77328">
        <ele>315</ele>
        <time>2016-01-17T10:36:23.000Z</time>
      </trkpt>
      <trkpt lat="47.4971" lon="6.77327">
        <ele>315</ele>
        <time>2016-01-17T10:36:24.000Z</time>
      </trkpt>
      <trkpt lat="47.49713" lon="6.77328">
        <ele>315</ele>
        <time>2016-01-17T10:36:25.000Z</time>
      </trkpt>
      <trkpt lat="47.49716" lon="6.77328">
        <ele>315</ele>
        <time>2016-01-17T10:36:26.000Z</time>
      </trkpt>
      <trkpt lat="47.49719" lon="6.77328">
        <ele>315</ele>
        <time>2016-01-17T10:36:27.000Z</time>
      </trkpt>
      <trkpt lat="47.49721" lon="6.77328">
        <ele>314</ele>
        <time>2016-01-17T10:36:28.000Z</time>
      </trkpt>
      <trkpt lat="47.49726" lon="6.77328">
        <ele>314</ele>
        <time>2016-01-17T10:36:30.000Z</time>
      </trkpt>
      <trkpt lat="47.49727" lon="6.77327">
        <ele>314</ele>
        <time>2016-01-17T10:36:31.000Z</time>
      </trkpt>
      <trkpt lat="47.49731" lon="6.77325">
        <ele>314</ele>
        <time>2016-01-17T10:36:33.000Z</time>
      </trkpt>
      <trkpt lat="47.49733" lon="6.77323">
        <ele>314</ele>
        <time>2016-01-17T10:36:34.000Z</time>
      </trkpt>
      <trkpt lat="47.49736" lon="6.7732">
        <ele>314</ele>
        <time>2016-01-17T10:36:36.000Z</time>
      </trkpt>
      <trkpt lat="47.49739" lon="6.77317">
        <ele>314</ele>
        <time>2016-01-17T10:36:37.000Z</time>
      </trkpt>
      <trkpt lat="47.49742" lon="6.77315">
        <ele>314</ele>
        <time>2016-01-17T10:36:38.000Z</time>
      </trkpt>
      <trkpt lat="47.49745" lon="6.77312">
        <ele>314</ele>
        <time>2016-01-17T10:36:39.000Z</time>
      </trkpt>
      <trkpt lat="47.49749" lon="6.7731">
        <ele>315</ele>
        <time>2016-01-17T10:36:40.000Z</time>
      </trkpt>
      <trkpt lat="47.49753" lon="6.77308">
        <ele>316</ele>
        <time>2016-01-17T10:36:41.000Z</time>
      </trkpt>
      <trkpt lat="47.49757" lon="6.77306">
        <ele>316</ele>
        <time>2016-01-17T10:36:42.000Z</time>
      </trkpt>
      <trkpt lat="47.49761" lon="6.77305">
        <ele>316</ele>
        <time>2016-01-17T10:36:43.000Z</time>
      </trkpt>
      <trkpt lat="47.49766" lon="6.77303">
        <ele>316</ele>
        <time>2016-01-17T10:36:44.000Z</time>
      </trkpt>
      <trkpt lat="47.4977" lon="6.77302">
        <ele>317</ele>
        <time>2016-01-17T10:36:45.000Z</time>
      </trkpt>
      <trkpt lat="47.49776" lon="6.77303">
        <ele>317</ele>
        <time>2016-01-17T10:36:46.000Z</time>
      </trkpt>
      <trkpt lat="47.49781" lon="6.77304">
        <ele>317</ele>
        <time>2016-01-17T10:36:47.000Z</time>
      </trkpt>
      <trkpt lat="47.49785" lon="6.77303">
        <ele>317</ele>
        <time>2016-01-17T10:36:47.999Z</time>
      </trkpt>
      <trkpt lat="47.49791" lon="6.77304">
        <ele>317</ele>
        <time>2016-01-17T10:36:49.000Z</time>
      </trkpt>
      <trkpt lat="47.49795" lon="6.77304">
        <ele>317</ele>
        <time>2016-01-17T10:36:50.000Z</time>
      </trkpt>
      <trkpt lat="47.49801" lon="6.77303">
        <ele>317</ele>
        <time>2016-01-17T10:36:51.000Z</time>
      </trkpt>
      <trkpt lat="47.49807" lon="6.77303">
        <ele>317</ele>
        <time>2016-01-17T10:36:52.000Z</time>
      </trkpt>
      <trkpt lat="47.49812" lon="6.77303">
        <ele>317</ele>
        <time>2016-01-17T10:36:52.999Z</time>
      </trkpt>
      <trkpt lat="47.49816" lon="6.77303">
        <ele>317</ele>
        <time>2016-01-17T10:36:54.000Z</time>
      </trkpt>
      <trkpt lat="47.49821" lon="6.77302">
        <ele>317</ele>
        <time>2016-01-17T10:36:55.000Z</time>
      </trkpt>
      <trkpt lat="47.49824" lon="6.77303">
        <ele>317</ele>
        <time>2016-01-17T10:36:56.000Z</time>
      </trkpt>
      <trkpt lat="47.49827" lon="6.77302">
        <ele>317</ele>
        <time>2016-01-17T10:36:57.000Z</time>
      </trkpt>
      <trkpt lat="47.49832" lon="6.77302">
        <ele>317</ele>
        <time>2016-01-17T10:36:58.000Z</time>
      </trkpt>
      <trkpt lat="47.49837" lon="6.77301">
        <ele>318</ele>
        <time>2016-01-17T10:36:59.000Z</time>
      </trkpt>
      <trkpt lat="47.49841" lon="6.77301">
        <ele>318</ele>
        <time>2016-01-17T10:37:00.000Z</time>
      </trkpt>
      <trkpt lat="47.49847" lon="6.773">
        <ele>318</ele>
        <time>2016-01-17T10:37:01.000Z</time>
      </trkpt>
      <trkpt lat="47.49852" lon="6.77299">
        <ele>319</ele>
        <time>2016-01-17T10:37:02.000Z</time>
      </trkpt>
      <trkpt lat="47.49857" lon="6.77298">
        <ele>319</ele>
        <time>2016-01-17T10:37:03.000Z</time>
      </trkpt>
      <trkpt lat="47.49862" lon="6.77298">
        <ele>319</ele>
        <time>2016-01-17T10:37:04.000Z</time>
      </trkpt>
      <trkpt lat="47.49868" lon="6.77297">
        <ele>319</ele>
        <time>2016-01-17T10:37:05.000Z</time>
      </trkpt>
      <trkpt lat="47.49873" lon="6.77297">
        <ele>319</ele>
        <time>2016-01-17T10:37:06.000Z</time>
      </trkpt>
      <trkpt lat="47.49878" lon="6.77296">
        <ele>319</ele>
        <time>2016-01-17T10:37:07.000Z</time>
      </trkpt>
      <trkpt lat="47.49883" lon="6.77294">
        <ele>319</ele>
        <time>2016-01-17T10:37:08.000Z</time>
      </trkpt>
      <trkpt lat="47.49888" lon="6.77292">
        <ele>319</ele>
        <time>2016-01-17T10:37:09.000Z</time>
      </trkpt>
      <trkpt lat="47.49893" lon="6.7729">
        <ele>319</ele>
        <time>2016-01-17T10:37:10.000Z</time>
      </trkpt>
      <trkpt lat="47.49898" lon="6.77287">
        <ele>319</ele>
        <time>2016-01-17T10:37:11.000Z</time>
      </trkpt>
      <trkpt lat="47.49903" lon="6.77284">
        <ele>320</ele>
        <time>2016-01-17T10:37:12.000Z</time>
      </trkpt>
      <trkpt lat="47.49908" lon="6.77282">
        <ele>320</ele>
        <time>2016-01-17T10:37:13.000Z</time>
      </trkpt>
      <trkpt lat="47.49912" lon="6.77279">
        <ele>320</ele>
        <time>2016-01-17T10:37:14.000Z</time>
      </trkpt>
      <trkpt lat="47.49917" lon="6.77275">
        <ele>319</ele>
        <time>2016-01-17T10:37:15.000Z</time>
      </trkpt>
      <trkpt lat="47.49922" lon="6.77273">
        <ele>319</ele>
        <time>2016-01-17T10:37:16.000Z</time>
      </trkpt>
      <trkpt lat="47.49926" lon="6.7727">
        <ele>319</ele>
        <time>2016-01-17T10:37:17.000Z</time>
      </trkpt>
      <trkpt lat="47.49931" lon="6.77267">
        <ele>319</ele>
        <time>2016-01-17T10:37:18.000Z</time>
      </trkpt>
      <trkpt lat="47.49936" lon="6.77265">
        <ele>319</ele>
        <time>2016-01-17T10:37:19.000Z</time>
      </trkpt>
      <trkpt lat="47.49941" lon="6.77263">
        <ele>319</ele>
        <time>2016-01-17T10:37:20.000Z</time>
      </trkpt>
      <trkpt lat="47.49945" lon="6.77257">
        <ele>319</ele>
        <time>2016-01-17T10:37:21.000Z</time>
      </trkpt>
      <trkpt lat="47.49949" lon="6.77255">
        <ele>318</ele>
        <time>2016-01-17T10:37:22.000Z</time>
      </trkpt>
      <trkpt lat="47.49955" lon="6.77253">
        <ele>318</ele>
        <time>2016-01-17T10:37:23.000Z</time>
      </trkpt>
      <trkpt lat="47.4996" lon="6.7725">
        <ele>329</ele>
        <time>2016-01-17T10:37:24.000Z</time>
      </trkpt>
      <trkpt lat="47.49965" lon="6.77248">
        <ele>329</ele>
        <time>2016-01-17T10:37:25.000Z</time>
      </trkpt>
      <trkpt lat="47.4997" lon="6.77244">
        <ele>328</ele>
        <time>2016-01-17T10:37:26.000Z</time>
      </trkpt>
      <trkpt lat="47.49975" lon="6.77242">
        <ele>327</ele>
        <time>2016-01-17T10:37:27.000Z</time>
      </trkpt>
      <trkpt lat="47.4998" lon="6.7724">
        <ele>327</ele>
        <time>2016-01-17T10:37:28.000Z</time>
      </trkpt>
      <trkpt lat="47.49984" lon="6.77239">
        <ele>326</ele>
        <time>2016-01-17T10:37:29.000Z</time>
      </trkpt>
      <trkpt lat="47.49989" lon="6.77237">
        <ele>325</ele>
        <time>2016-01-17T10:37:30.000Z</time>
      </trkpt>
      <trkpt lat="47.49993" lon="6.77235">
        <ele>325</ele>
        <time>2016-01-17T10:37:31.000Z</time>
      </trkpt>
      <trkpt lat="47.49997" lon="6.77233">
        <ele>325</ele>
        <time>2016-01-17T10:37:32.000Z</time>
      </trkpt>
      <trkpt lat="47.50002" lon="6.77231">
        <ele>324</ele>
        <time>2016-01-17T10:37:33.000Z</time>
      </trkpt>
      <trkpt lat="47.50005" lon="6.7723">
        <ele>325</ele>
        <time>2016-01-17T10:37:34.000Z</time>
      </trkpt>
      <trkpt lat="47.50009" lon="6.77229">
        <ele>325</ele>
        <time>2016-01-17T10:37:35.000Z</time>
      </trkpt>
      <trkpt lat="47.50013" lon="6.77229">
        <ele>326</ele>
        <time>2016-01-17T10:37:37.000Z</time>
      </trkpt>
      <trkpt lat="47.50014" lon="6.7723">
        <ele>325</ele>
        <time>2016-01-17T10:37:38.000Z</time>
      </trkpt>
      <trkpt lat="47.50017" lon="6.77227">
        <ele>326</ele>
        <time>2016-01-17T10:37:45.000Z</time>
      </trkpt>
      <trkpt lat="47.50019" lon="6.77224">
        <ele>327</ele>
        <time>2016-01-17T10:37:46.000Z</time>
      </trkpt>
      <trkpt lat="47.50022" lon="6.77222">
        <ele>328</ele>
        <time>2016-01-17T10:37:47.000Z</time>
      </trkpt>
      <trkpt lat="47.50026" lon="6.7722">
        <ele>328</ele>
        <time>2016-01-17T10:37:48.000Z</time>
      </trkpt>
      <trkpt lat="47.50031" lon="6.77218">
        <ele>329</ele>
        <time>2016-01-17T10:37:49.000Z</time>
      </trkpt>
      <trkpt lat="47.50035" lon="6.77216">
        <ele>329</ele>
        <time>2016-01-17T10:37:50.000Z</time>
      </trkpt>
      <trkpt lat="47.50043" lon="6.77207">
        <ele>330</ele>
        <time>2016-01-17T10:37:51.000Z</time>
      </trkpt>
      <trkpt lat="47.50046" lon="6.77201">
        <ele>331</ele>
        <time>2016-01-17T10:37:52.000Z</time>
      </trkpt>
      <trkpt lat="47.50051" lon="6.77202">
        <ele>331</ele>
        <time>2016-01-17T10:37:53.000Z</time>
      </trkpt>
      <trkpt lat="47.50056" lon="6.77201">
        <ele>331</ele>
        <time>2016-01-17T10:37:54.000Z</time>
      </trkpt>
      <trkpt lat="47.50061" lon="6.772">
        <ele>331</ele>
        <time>2016-01-17T10:37:55.000Z</time>
      </trkpt>
      <trkpt lat="47.50066" lon="6.772">
        <ele>331</ele>
        <time>2016-01-17T10:37:56.000Z</time>
      </trkpt>
      <trkpt lat="47.50071" lon="6.77199">
        <ele>331</ele>
        <time>2016-01-17T10:37:57.000Z</time>
      </trkpt>
      <trkpt lat="47.50076" lon="6.77197">
        <ele>332</ele>
        <time>2016-01-17T10:37:58.000Z</time>
      </trkpt>
      <trkpt lat="47.5008" lon="6.77195">
        <ele>332</ele>
        <time>2016-01-17T10:37:59.000Z</time>
      </trkpt>
      <trkpt lat="47.50087" lon="6.77192">
        <ele>328</ele>
        <time>2016-01-17T10:38:00.000Z</time>
      </trkpt>
      <trkpt lat="47.50091" lon="6.7719">
        <ele>329</ele>
        <time>2016-01-17T10:38:01.000Z</time>
      </trkpt>
      <trkpt lat="47.50096" lon="6.77188">
        <ele>329</ele>
        <time>2016-01-17T10:38:02.000Z</time>
      </trkpt>
      <trkpt lat="47.501" lon="6.77186">
        <ele>329</ele>
        <time>2016-01-17T10:38:03.000Z</time>
      </trkpt>
      <trkpt lat="47.50105" lon="6.77187">
        <ele>328</ele>
        <time>2016-01-17T10:38:04.000Z</time>
      </trkpt>
      <trkpt lat="47.5011" lon="6.77187">
        <ele>327</ele>
        <time>2016-01-17T10:38:05.000Z</time>
      </trkpt>
      <trkpt lat="47.50115" lon="6.77189">
        <ele>326</ele>
        <time>2016-01-17T10:38:06.000Z</time>
      </trkpt>
      <trkpt lat="47.50121" lon="6.7719">
        <ele>325</ele>
        <time>2016-01-17T10:38:07.000Z</time>
      </trkpt>
      <trkpt lat="47.50127" lon="6.77192">
        <ele>324</ele>
        <time>2016-01-17T10:38:08.000Z</time>
      </trkpt>
      <trkpt lat="47.50133" lon="6.77194">
        <ele>324</ele>
        <time>2016-01-17T10:38:09.000Z</time>
      </trkpt>
      <trkpt lat="47.5014" lon="6.77195">
        <ele>323</ele>
        <time>2016-01-17T10:38:10.000Z</time>
      </trkpt>
      <trkpt lat="47.50146" lon="6.77198">
        <ele>323</ele>
        <time>2016-01-17T10:38:11.000Z</time>
      </trkpt>
      <trkpt lat="47.50152" lon="6.77203">
        <ele>322</ele>
        <time>2016-01-17T10:38:12.000Z</time>
      </trkpt>
      <trkpt lat="47.50158" lon="6.77208">
        <ele>321</ele>
        <time>2016-01-17T10:38:13.000Z</time>
      </trkpt>
      <trkpt lat="47.50163" lon="6.77212">
        <ele>321</ele>
        <time>2016-01-17T10:38:14.000Z</time>
      </trkpt>
      <trkpt lat="47.50168" lon="6.77217">
        <ele>317</ele>
        <time>2016-01-17T10:38:15.000Z</time>
      </trkpt>
      <trkpt lat="47.50173" lon="6.77221">
        <ele>316</ele>
        <time>2016-01-17T10:38:16.000Z</time>
      </trkpt>
      <trkpt lat="47.50178" lon="6.77226">
        <ele>316</ele>
        <time>2016-01-17T10:38:17.000Z</time>
      </trkpt>
      <trkpt lat="47.50183" lon="6.77231">
        <ele>316</ele>
        <time>2016-01-17T10:38:18.000Z</time>
      </trkpt>
      <trkpt lat="47.50188" lon="6.77235">
        <ele>316</ele>
        <time>2016-01-17T10:38:19.000Z</time>
      </trkpt>
      <trkpt lat="47.50193" lon="6.7724">
        <ele>316</ele>
        <time>2016-01-17T10:38:20.000Z</time>
      </trkpt>
      <trkpt lat="47.50199" lon="6.77244">
        <ele>316</ele>
        <time>2016-01-17T10:38:21.000Z</time>
      </trkpt>
      <trkpt lat="47.50204" lon="6.77249">
        <ele>316</ele>
        <time>2016-01-17T10:38:22.000Z</time>
      </trkpt>
      <trkpt lat="47.50209" lon="6.77253">
        <ele>313</ele>
        <time>2016-01-17T10:38:23.000Z</time>
      </trkpt>
      <trkpt lat="47.50214" lon="6.77257">
        <ele>313</ele>
        <time>2016-01-17T10:38:24.000Z</time>
      </trkpt>
      <trkpt lat="47.50219" lon="6.77262">
        <ele>313</ele>
        <time>2016-01-17T10:38:25.000Z</time>
      </trkpt>
      <trkpt lat="47.50224" lon="6.77267">
        <ele>313</ele>
        <time>2016-01-17T10:38:26.000Z</time>
      </trkpt>
      <trkpt lat="47.5023" lon="6.77272">
        <ele>313</ele>
        <time>2016-01-17T10:38:27.000Z</time>
      </trkpt>
      <trkpt lat="47.50235" lon="6.77276">
        <ele>313</ele>
        <time>2016-01-17T10:38:28.000Z</time>
      </trkpt>
      <trkpt lat="47.5024" lon="6.7728">
        <ele>313</ele>
        <time>2016-01-17T10:38:29.000Z</time>
      </trkpt>
      <trkpt lat="47.50245" lon="6.77283">
        <ele>313</ele>
        <time>2016-01-17T10:38:30.000Z</time>
      </trkpt>
      <trkpt lat="47.5025" lon="6.77286">
        <ele>313</ele>
        <time>2016-01-17T10:38:31.000Z</time>
      </trkpt>
      <trkpt lat="47.50254" lon="6.77291">
        <ele>313</ele>
        <time>2016-01-17T10:38:32.000Z</time>
      </trkpt>
      <trkpt lat="47.50259" lon="6.77295">
        <ele>313</ele>
        <time>2016-01-17T10:38:33.000Z</time>
      </trkpt>
      <trkpt lat="47.50264" lon="6.77298">
        <ele>313</ele>
        <time>2016-01-17T10:38:34.000Z</time>
      </trkpt>
      <trkpt lat="47.5027" lon="6.773">
        <ele>313</ele>
        <time>2016-01-17T10:38:35.000Z</time>
      </trkpt>
      <trkpt lat="47.50275" lon="6.77304">
        <ele>313</ele>
        <time>2016-01-17T10:38:36.000Z</time>
      </trkpt>
      <trkpt lat="47.5028" lon="6.77307">
        <ele>313</ele>
        <time>2016-01-17T10:38:37.000Z</time>
      </trkpt>
      <trkpt lat="47.50285" lon="6.7731">
        <ele>313</ele>
        <time>2016-01-17T10:38:38.000Z</time>
      </trkpt>
      <trkpt lat="47.50289" lon="6.77313">
        <ele>313</ele>
        <time>2016-01-17T10:38:39.000Z</time>
      </trkpt>
      <trkpt lat="47.50294" lon="6.77316">
        <ele>313</ele>
        <time>2016-01-17T10:38:40.000Z</time>
      </trkpt>
      <trkpt lat="47.50299" lon="6.77319">
        <ele>312</ele>
        <time>2016-01-17T10:38:41.000Z</time>
      </trkpt>
      <trkpt lat="47.50304" lon="6.77324">
        <ele>312</ele>
        <time>2016-01-17T10:38:42.000Z</time>
      </trkpt>
      <trkpt lat="47.50307" lon="6.77329">
        <ele>312</ele>
        <time>2016-01-17T10:38:43.000Z</time>
      </trkpt>
      <trkpt lat="47.50312" lon="6.77333">
        <ele>312</ele>
        <time>2016-01-17T10:38:44.000Z</time>
      </trkpt>
      <trkpt lat="47.50316" lon="6.77337">
        <ele>312</ele>
        <time>2016-01-17T10:38:45.000Z</time>
      </trkpt>
      <trkpt lat="47.50321" lon="6.77341">
        <ele>312</ele>
        <time>2016-01-17T10:38:46.000Z</time>
      </trkpt>
      <trkpt lat="47.50326" lon="6.77344">
        <ele>312</ele>
        <time>2016-01-17T10:38:47.000Z</time>
      </trkpt>
      <trkpt lat="47.50331" lon="6.77348">
        <ele>312</ele>
        <time>2016-01-17T10:38:48.000Z</time>
      </trkpt>
      <trkpt lat="47.50336" lon="6.77351">
        <ele>312</ele>
        <time>2016-01-17T10:38:49.000Z</time>
      </trkpt>
      <trkpt lat="47.5034" lon="6.77354">
        <ele>312</ele>
        <time>2016-01-17T10:38:50.000Z</time>
      </trkpt>
      <trkpt lat="47.50345" lon="6.77358">
        <ele>312</ele>
        <time>2016-01-17T10:38:51.000Z</time>
      </trkpt>
      <trkpt lat="47.5035" lon="6.77361">
        <ele>312</ele>
        <time>2016-01-17T10:38:52.000Z</time>
      </trkpt>
      <trkpt lat="47.50354" lon="6.77365">
        <ele>312</ele>
        <time>2016-01-17T10:38:53.000Z</time>
      </trkpt>
      <trkpt lat="47.50359" lon="6.77368">
        <ele>312</ele>
        <time>2016-01-17T10:38:54.000Z</time>
      </trkpt>
      <trkpt lat="47.50364" lon="6.77371">
        <ele>312</ele>
        <time>2016-01-17T10:38:55.000Z</time>
      </trkpt>
      <trkpt lat="47.50368" lon="6.77375">
        <ele>312</ele>
        <time>2016-01-17T10:38:56.000Z</time>
      </trkpt>
      <trkpt lat="47.50372" lon="6.77379">
        <ele>312</ele>
        <time>2016-01-17T10:38:57.000Z</time>
      </trkpt>
      <trkpt lat="47.50377" lon="6.77382">
        <ele>312</ele>
        <time>2016-01-17T10:38:58.000Z</time>
      </trkpt>
      <trkpt lat="47.50382" lon="6.77386">
        <ele>312</ele>
        <time>2016-01-17T10:38:59.000Z</time>
      </trkpt>
      <trkpt lat="47.50386" lon="6.77389">
        <ele>312</ele>
        <time>2016-01-17T10:39:00.000Z</time>
      </trkpt>
      <trkpt lat="47.50391" lon="6.77394">
        <ele>312</ele>
        <time>2016-01-17T10:39:01.000Z</time>
      </trkpt>
      <trkpt lat="47.50395" lon="6.77397">
        <ele>312</ele>
        <time>2016-01-17T10:39:02.000Z</time>
      </trkpt>
      <trkpt lat="47.50399" lon="6.774">
        <ele>312</ele>
        <time>2016-01-17T10:39:03.000Z</time>
      </trkpt>
      <trkpt lat="47.50404" lon="6.77403">
        <ele>312</ele>
        <time>2016-01-17T10:39:04.000Z</time>
      </trkpt>
      <trkpt lat="47.50408" lon="6.77406">
        <ele>311</ele>
        <time>2016-01-17T10:39:05.000Z</time>
      </trkpt>
      <trkpt lat="47.50413" lon="6.77409">
        <ele>311</ele>
        <time>2016-01-17T10:39:06.000Z</time>
      </trkpt>
      <trkpt lat="47.50417" lon="6.77412">
        <ele>311</ele>
        <time>2016-01-17T10:39:07.000Z</time>
      </trkpt>
      <trkpt lat="47.50421" lon="6.77417">
        <ele>311</ele>
        <time>2016-01-17T10:39:08.000Z</time>
      </trkpt>
      <trkpt lat="47.50425" lon="6.77421">
        <ele>311</ele>
        <time>2016-01-17T10:39:09.000Z</time>
      </trkpt>
      <trkpt lat="47.50429" lon="6.77424">
        <ele>312</ele>
        <time>2016-01-17T10:39:10.000Z</time>
      </trkpt>
      <trkpt lat="47.50433" lon="6.7743">
        <ele>312</ele>
        <time>2016-01-17T10:39:11.000Z</time>
      </trkpt>
      <trkpt lat="47.50437" lon="6.77435">
        <ele>312</ele>
        <time>2016-01-17T10:39:12.000Z</time>
      </trkpt>
      <trkpt lat="47.50441" lon="6.77439">
        <ele>312</ele>
        <time>2016-01-17T10:39:13.000Z</time>
      </trkpt>
      <trkpt lat="47.50446" lon="6.77444">
        <ele>312</ele>
        <time>2016-01-17T10:39:14.000Z</time>
      </trkpt>
      <trkpt lat="47.50451" lon="6.77449">
        <ele>312</ele>
        <time>2016-01-17T10:39:15.000Z</time>
      </trkpt>
      <trkpt lat="47.50455" lon="6.77453">
        <ele>312</ele>
        <time>2016-01-17T10:39:16.000Z</time>
      </trkpt>
      <trkpt lat="47.50459" lon="6.77457">
        <ele>313</ele>
        <time>2016-01-17T10:39:17.000Z</time>
      </trkpt>
      <trkpt lat="47.50464" lon="6.7746">
        <ele>313</ele>
        <time>2016-01-17T10:39:18.000Z</time>
      </trkpt>
      <trkpt lat="47.50468" lon="6.77464">
        <ele>313</ele>
        <time>2016-01-17T10:39:19.000Z</time>
      </trkpt>
      <trkpt lat="47.50473" lon="6.77467">
        <ele>313</ele>
        <time>2016-01-17T10:39:20.000Z</time>
      </trkpt>
      <trkpt lat="47.50478" lon="6.77472">
        <ele>313</ele>
        <time>2016-01-17T10:39:21.000Z</time>
      </trkpt>
      <trkpt lat="47.50482" lon="6.77476">
        <ele>313</ele>
        <time>2016-01-17T10:39:22.000Z</time>
      </trkpt>
      <trkpt lat="47.50487" lon="6.77479">
        <ele>313</ele>
        <time>2016-01-17T10:39:23.000Z</time>
      </trkpt>
      <trkpt lat="47.50492" lon="6.77483">
        <ele>313</ele>
        <time>2016-01-17T10:39:24.000Z</time>
      </trkpt>
      <trkpt lat="47.50497" lon="6.77486">
        <ele>313</ele>
        <time>2016-01-17T10:39:25.000Z</time>
      </trkpt>
      <trkpt lat="47.50502" lon="6.77489">
        <ele>314</ele>
        <time>2016-01-17T10:39:26.000Z</time>
      </trkpt>
      <trkpt lat="47.50507" lon="6.77493">
        <ele>314</ele>
        <time>2016-01-17T10:39:27.000Z</time>
      </trkpt>
      <trkpt lat="47.50512" lon="6.77497">
        <ele>314</ele>
        <time>2016-01-17T10:39:28.000Z</time>
      </trkpt>
      <trkpt lat="47.50517" lon="6.775">
        <ele>314</ele>
        <time>2016-01-17T10:39:29.000Z</time>
      </trkpt>
      <trkpt lat="47.50522" lon="6.77503">
        <ele>314</ele>
        <time>2016-01-17T10:39:30.000Z</time>
      </trkpt>
      <trkpt lat="47.50527" lon="6.77506">
        <ele>314</ele>
        <time>2016-01-17T10:39:31.000Z</time>
      </trkpt>
      <trkpt lat="47.50532" lon="6.77508">
        <ele>314</ele>
        <time>2016-01-17T10:39:32.000Z</time>
      </trkpt>
      <trkpt lat="47.50537" lon="6.77512">
        <ele>313</ele>
        <time>2016-01-17T10:39:33.000Z</time>
      </trkpt>
      <trkpt lat="47.50541" lon="6.77513">
        <ele>313</ele>
        <time>2016-01-17T10:39:34.000Z</time>
      </trkpt>
      <trkpt lat="47.50546" lon="6.77517">
        <ele>313</ele>
        <time>2016-01-17T10:39:35.000Z</time>
      </trkpt>
      <trkpt lat="47.5055" lon="6.7752">
        <ele>313</ele>
        <time>2016-01-17T10:39:36.000Z</time>
      </trkpt>
      <trkpt lat="47.50553" lon="6.77526">
        <ele>313</ele>
        <time>2016-01-17T10:39:37.000Z</time>
      </trkpt>
      <trkpt lat="47.50557" lon="6.77533">
        <ele>313</ele>
        <time>2016-01-17T10:39:38.000Z</time>
      </trkpt>
      <trkpt lat="47.50559" lon="6.77538">
        <ele>313</ele>
        <time>2016-01-17T10:39:39.000Z</time>
      </trkpt>
      <trkpt lat="47.50563" lon="6.77542">
        <ele>313</ele>
        <time>2016-01-17T10:39:40.000Z</time>
      </trkpt>
      <trkpt lat="47.50566" lon="6.77544">
        <ele>313</ele>
        <time>2016-01-17T10:39:41.000Z</time>
      </trkpt>
      <trkpt lat="47.5057" lon="6.77546">
        <ele>313</ele>
        <time>2016-01-17T10:39:42.000Z</time>
      </trkpt>
      <trkpt lat="47.50576" lon="6.77545">
        <ele>313</ele>
        <time>2016-01-17T10:39:43.000Z</time>
      </trkpt>
      <trkpt lat="47.50579" lon="6.77544">
        <ele>313</ele>
        <time>2016-01-17T10:39:44.000Z</time>
      </trkpt>
      <trkpt lat="47.50582" lon="6.7754">
        <ele>313</ele>
        <time>2016-01-17T10:39:45.000Z</time>
      </trkpt>
      <trkpt lat="47.50584" lon="6.77537">
        <ele>313</ele>
        <time>2016-01-17T10:39:46.000Z</time>
      </trkpt>
      <trkpt lat="47.50587" lon="6.77532">
        <ele>313</ele>
        <time>2016-01-17T10:39:47.000Z</time>
      </trkpt>
      <trkpt lat="47.50591" lon="6.7753">
        <ele>313</ele>
        <time>2016-01-17T10:39:48.000Z</time>
      </trkpt>
      <trkpt lat="47.50596" lon="6.77528">
        <ele>313</ele>
        <time>2016-01-17T10:39:49.000Z</time>
      </trkpt>
      <trkpt lat="47.50601" lon="6.77526">
        <ele>313</ele>
        <time>2016-01-17T10:39:50.000Z</time>
      </trkpt>
      <trkpt lat="47.50607" lon="6.77524">
        <ele>313</ele>
        <time>2016-01-17T10:39:51.000Z</time>
      </trkpt>
      <trkpt lat="47.50612" lon="6.77523">
        <ele>313</ele>
        <time>2016-01-17T10:39:52.000Z</time>
      </trkpt>
      <trkpt lat="47.50618" lon="6.77523">
        <ele>313</ele>
        <time>2016-01-17T10:39:53.000Z</time>
      </trkpt>
      <trkpt lat="47.50623" lon="6.7752">
        <ele>313</ele>
        <time>2016-01-17T10:39:54.000Z</time>
      </trkpt>
      <trkpt lat="47.50628" lon="6.77517">
        <ele>313</ele>
        <time>2016-01-17T10:39:55.000Z</time>
      </trkpt>
      <trkpt lat="47.50634" lon="6.77519">
        <ele>313</ele>
        <time>2016-01-17T10:39:56.000Z</time>
      </trkpt>
      <trkpt lat="47.5064" lon="6.7752">
        <ele>313</ele>
        <time>2016-01-17T10:39:57.000Z</time>
      </trkpt>
      <trkpt lat="47.50646" lon="6.77521">
        <ele>313</ele>
        <time>2016-01-17T10:39:58.000Z</time>
      </trkpt>
      <trkpt lat="47.50652" lon="6.77522">
        <ele>313</ele>
        <time>2016-01-17T10:39:59.000Z</time>
      </trkpt>
      <trkpt lat="47.50656" lon="6.77523">
        <ele>313</ele>
        <time>2016-01-17T10:40:00.000Z</time>
      </trkpt>
      <trkpt lat="47.50661" lon="6.77525">
        <ele>313</ele>
        <time>2016-01-17T10:40:01.000Z</time>
      </trkpt>
      <trkpt lat="47.50666" lon="6.77525">
        <ele>313</ele>
        <time>2016-01-17T10:40:02.000Z</time>
      </trkpt>
      <trkpt lat="47.50673" lon="6.77524">
        <ele>313</ele>
        <time>2016-01-17T10:40:03.000Z</time>
      </trkpt>
      <trkpt lat="47.50679" lon="6.77524">
        <ele>313</ele>
        <time>2016-01-17T10:40:04.000Z</time>
      </trkpt>
      <trkpt lat="47.50685" lon="6.77523">
        <ele>313</ele>
        <time>2016-01-17T10:40:05.000Z</time>
      </trkpt>
      <trkpt lat="47.5069" lon="6.77522">
        <ele>313</ele>
        <time>2016-01-17T10:40:06.000Z</time>
      </trkpt>
      <trkpt lat="47.50696" lon="6.77521">
        <ele>313</ele>
        <time>2016-01-17T10:40:07.000Z</time>
      </trkpt>
      <trkpt lat="47.50702" lon="6.77522">
        <ele>313</ele>
        <time>2016-01-17T10:40:08.000Z</time>
      </trkpt>
      <trkpt lat="47.50707" lon="6.77524">
        <ele>313</ele>
        <time>2016-01-17T10:40:09.000Z</time>
      </trkpt>
      <trkpt lat="47.50713" lon="6.77525">
        <ele>313</ele>
        <time>2016-01-17T10:40:10.000Z</time>
      </trkpt>
      <trkpt lat="47.50721" lon="6.77532">
        <ele>313</ele>
        <time>2016-01-17T10:40:11.000Z</time>
      </trkpt>
      <trkpt lat="47.50727" lon="6.77536">
        <ele>313</ele>
        <time>2016-01-17T10:40:12.000Z</time>
      </trkpt>
      <trkpt lat="47.50733" lon="6.77538">
        <ele>313</ele>
        <time>2016-01-17T10:40:13.000Z</time>
      </trkpt>
      <trkpt lat="47.50738" lon="6.77543">
        <ele>313</ele>
        <time>2016-01-17T10:40:14.000Z</time>
      </trkpt>
      <trkpt lat="47.50744" lon="6.77547">
        <ele>313</ele>
        <time>2016-01-17T10:40:15.000Z</time>
      </trkpt>
      <trkpt lat="47.50749" lon="6.77551">
        <ele>313</ele>
        <time>2016-01-17T10:40:16.000Z</time>
      </trkpt>
      <trkpt lat="47.50754" lon="6.77555">
        <ele>314</ele>
        <time>2016-01-17T10:40:17.000Z</time>
      </trkpt>
      <trkpt lat="47.50759" lon="6.77559">
        <ele>314</ele>
        <time>2016-01-17T10:40:18.000Z</time>
      </trkpt>
      <trkpt lat="47.50765" lon="6.77564">
        <ele>314</ele>
        <time>2016-01-17T10:40:19.000Z</time>
      </trkpt>
      <trkpt lat="47.5077" lon="6.77569">
        <ele>314</ele>
        <time>2016-01-17T10:40:20.000Z</time>
      </trkpt>
      <trkpt lat="47.50776" lon="6.77573">
        <ele>314</ele>
        <time>2016-01-17T10:40:21.000Z</time>
      </trkpt>
      <trkpt lat="47.50781" lon="6.77577">
        <ele>315</ele>
        <time>2016-01-17T10:40:22.000Z</time>
      </trkpt>
      <trkpt lat="47.50787" lon="6.77581">
        <ele>315</ele>
        <time>2016-01-17T10:40:23.000Z</time>
      </trkpt>
      <trkpt lat="47.50792" lon="6.77585">
        <ele>315</ele>
        <time>2016-01-17T10:40:24.000Z</time>
      </trkpt>
      <trkpt lat="47.50798" lon="6.77589">
        <ele>315</ele>
        <time>2016-01-17T10:40:25.000Z</time>
      </trkpt>
      <trkpt lat="47.50803" lon="6.77594">
        <ele>315</ele>
        <time>2016-01-17T10:40:26.000Z</time>
      </trkpt>
      <trkpt lat="47.50808" lon="6.77599">
        <ele>316</ele>
        <time>2016-01-17T10:40:27.000Z</time>
      </trkpt>
      <trkpt lat="47.50813" lon="6.77603">
        <ele>316</ele>
        <time>2016-01-17T10:40:28.000Z</time>
      </trkpt>
      <trkpt lat="47.50818" lon="6.77607">
        <ele>316</ele>
        <time>2016-01-17T10:40:29.000Z</time>
      </trkpt>
      <trkpt lat="47.50824" lon="6.77611">
        <ele>316</ele>
        <time>2016-01-17T10:40:30.000Z</time>
      </trkpt>
      <trkpt lat="47.50829" lon="6.77615">
        <ele>316</ele>
        <time>2016-01-17T10:40:31.000Z</time>
      </trkpt>
      <trkpt lat="47.50833" lon="6.77619">
        <ele>317</ele>
        <time>2016-01-17T10:40:32.000Z</time>
      </trkpt>
      <trkpt lat="47.50838" lon="6.77624">
        <ele>317</ele>
        <time>2016-01-17T10:40:33.000Z</time>
      </trkpt>
      <trkpt lat="47.50844" lon="6.77629">
        <ele>317</ele>
        <time>2016-01-17T10:40:34.000Z</time>
      </trkpt>
      <trkpt lat="47.50848" lon="6.77634">
        <ele>316</ele>
        <time>2016-01-17T10:40:35.000Z</time>
      </trkpt>
      <trkpt lat="47.50853" lon="6.77639">
        <ele>316</ele>
        <time>2016-01-17T10:40:36.000Z</time>
      </trkpt>
      <trkpt lat="47.50856" lon="6.77644">
        <ele>316</ele>
        <time>2016-01-17T10:40:37.000Z</time>
      </trkpt>
      <trkpt lat="47.50859" lon="6.77651">
        <ele>316</ele>
        <time>2016-01-17T10:40:38.000Z</time>
      </trkpt>
      <trkpt lat="47.50863" lon="6.77658">
        <ele>316</ele>
        <time>2016-01-17T10:40:39.000Z</time>
      </trkpt>
      <trkpt lat="47.50868" lon="6.77668">
        <ele>316</ele>
        <time>2016-01-17T10:40:40.000Z</time>
      </trkpt>
      <trkpt lat="47.50872" lon="6.77674">
        <ele>316</ele>
        <time>2016-01-17T10:40:41.000Z</time>
      </trkpt>
      <trkpt lat="47.50875" lon="6.7768">
        <ele>316</ele>
        <time>2016-01-17T10:40:42.000Z</time>
      </trkpt>
      <trkpt lat="47.50879" lon="6.77687">
        <ele>316</ele>
        <time>2016-01-17T10:40:43.000Z</time>
      </trkpt>
      <trkpt lat="47.50882" lon="6.77691">
        <ele>316</ele>
        <time>2016-01-17T10:40:44.000Z</time>
      </trkpt>
      <trkpt lat="47.50885" lon="6.77696">
        <ele>316</ele>
        <time>2016-01-17T10:40:45.000Z</time>
      </trkpt>
      <trkpt lat="47.50888" lon="6.777">
        <ele>316</ele>
        <time>2016-01-17T10:40:46.000Z</time>
      </trkpt>
      <trkpt lat="47.50891" lon="6.77703">
        <ele>316</ele>
        <time>2016-01-17T10:40:47.000Z</time>
      </trkpt>
      <trkpt lat="47.50895" lon="6.77705">
        <ele>316</ele>
        <time>2016-01-17T10:40:48.000Z</time>
      </trkpt>
      <trkpt lat="47.50899" lon="6.77702">
        <ele>316</ele>
        <time>2016-01-17T10:40:49.000Z</time>
      </trkpt>
      <trkpt lat="47.50903" lon="6.777">
        <ele>316</ele>
        <time>2016-01-17T10:40:50.000Z</time>
      </trkpt>
      <trkpt lat="47.50909" lon="6.77699">
        <ele>316</ele>
        <time>2016-01-17T10:40:51.000Z</time>
      </trkpt>
      <trkpt lat="47.50914" lon="6.77698">
        <ele>316</ele>
        <time>2016-01-17T10:40:52.000Z</time>
      </trkpt>
      <trkpt lat="47.50919" lon="6.77697">
        <ele>315</ele>
        <time>2016-01-17T10:40:53.000Z</time>
      </trkpt>
      <trkpt lat="47.50927" lon="6.77695">
        <ele>315</ele>
        <time>2016-01-17T10:40:54.000Z</time>
      </trkpt>
      <trkpt lat="47.50932" lon="6.77695">
        <ele>315</ele>
        <time>2016-01-17T10:40:55.000Z</time>
      </trkpt>
      <trkpt lat="47.50935" lon="6.77694">
        <ele>315</ele>
        <time>2016-01-17T10:40:56.000Z</time>
      </trkpt>
      <trkpt lat="47.50938" lon="6.77694">
        <ele>315</ele>
        <time>2016-01-17T10:40:57.000Z</time>
      </trkpt>
      <trkpt lat="47.50941" lon="6.77694">
        <ele>315</ele>
        <time>2016-01-17T10:40:58.000Z</time>
      </trkpt>
      <trkpt lat="47.50943" lon="6.77694">
        <ele>315</ele>
        <time>2016-01-17T10:40:59.000Z</time>
      </trkpt>
      <trkpt lat="47.50947" lon="6.77694">
        <ele>315</ele>
        <time>2016-01-17T10:41:01.000Z</time>
      </trkpt>
      <trkpt lat="47.50948" lon="6.77693">
        <ele>315</ele>
        <time>2016-01-17T10:41:02.000Z</time>
      </trkpt>
      <trkpt lat="47.50952" lon="6.77692">
        <ele>315</ele>
        <time>2016-01-17T10:41:04.000Z</time>
      </trkpt>
      <trkpt lat="47.50954" lon="6.77692">
        <ele>315</ele>
        <time>2016-01-17T10:41:05.000Z</time>
      </trkpt>
      <trkpt lat="47.50957" lon="6.77691">
        <ele>315</ele>
        <time>2016-01-17T10:41:06.000Z</time>
      </trkpt>
      <trkpt lat="47.50959" lon="6.7769">
        <ele>315</ele>
        <time>2016-01-17T10:41:07.000Z</time>
      </trkpt>
      <trkpt lat="47.50962" lon="6.77689">
        <ele>315</ele>
        <time>2016-01-17T10:41:08.000Z</time>
      </trkpt>
      <trkpt lat="47.50965" lon="6.77688">
        <ele>315</ele>
        <time>2016-01-17T10:41:09.000Z</time>
      </trkpt>
      <trkpt lat="47.50968" lon="6.77687">
        <ele>315</ele>
        <time>2016-01-17T10:41:10.000Z</time>
      </trkpt>
      <trkpt lat="47.50971" lon="6.77687">
        <ele>315</ele>
        <time>2016-01-17T10:41:11.000Z</time>
      </trkpt>
      <trkpt lat="47.50975" lon="6.77688">
        <ele>315</ele>
        <time>2016-01-17T10:41:12.000Z</time>
      </trkpt>
      <trkpt lat="47.50981" lon="6.77699">
        <ele>315</ele>
        <time>2016-01-17T10:41:13.000Z</time>
      </trkpt>
      <trkpt lat="47.50985" lon="6.77703">
        <ele>315</ele>
        <time>2016-01-17T10:41:14.000Z</time>
      </trkpt>
      <trkpt lat="47.50988" lon="6.77707">
        <ele>315</ele>
        <time>2016-01-17T10:41:15.000Z</time>
      </trkpt>
      <trkpt lat="47.50991" lon="6.77709">
        <ele>315</ele>
        <time>2016-01-17T10:41:16.000Z</time>
      </trkpt>
      <trkpt lat="47.50994" lon="6.77713">
        <ele>315</ele>
        <time>2016-01-17T10:41:17.000Z</time>
      </trkpt>
      <trkpt lat="47.50998" lon="6.77717">
        <ele>315</ele>
        <time>2016-01-17T10:41:18.000Z</time>
      </trkpt>
      <trkpt lat="47.51002" lon="6.77719">
        <ele>316</ele>
        <time>2016-01-17T10:41:19.000Z</time>
      </trkpt>
      <trkpt lat="47.51005" lon="6.77721">
        <ele>316</ele>
        <time>2016-01-17T10:41:20.000Z</time>
      </trkpt>
      <trkpt lat="47.51009" lon="6.77723">
        <ele>316</ele>
        <time>2016-01-17T10:41:21.000Z</time>
      </trkpt>
      <trkpt lat="47.51013" lon="6.77726">
        <ele>317</ele>
        <time>2016-01-17T10:41:22.000Z</time>
      </trkpt>
      <trkpt lat="47.51017" lon="6.7773">
        <ele>317</ele>
        <time>2016-01-17T10:41:23.000Z</time>
      </trkpt>
      <trkpt lat="47.51021" lon="6.77732">
        <ele>317</ele>
        <time>2016-01-17T10:41:24.000Z</time>
      </trkpt>
      <trkpt lat="47.51024" lon="6.77736">
        <ele>317</ele>
        <time>2016-01-17T10:41:25.000Z</time>
      </trkpt>
      <trkpt lat="47.51028" lon="6.77738">
        <ele>317</ele>
        <time>2016-01-17T10:41:26.000Z</time>
      </trkpt>
      <trkpt lat="47.51031" lon="6.77741">
        <ele>317</ele>
        <time>2016-01-17T10:41:27.000Z</time>
      </trkpt>
      <trkpt lat="47.51034" lon="6.77743">
        <ele>317</ele>
        <time>2016-01-17T10:41:28.000Z</time>
      </trkpt>
      <trkpt lat="47.51037" lon="6.77746">
        <ele>317</ele>
        <time>2016-01-17T10:41:29.000Z</time>
      </trkpt>
      <trkpt lat="47.51038" lon="6.77748">
        <ele>317</ele>
        <time>2016-01-17T10:41:30.000Z</time>
      </trkpt>
      <trkpt lat="47.51041" lon="6.77749">
        <ele>317</ele>
        <time>2016-01-17T10:41:31.000Z</time>
      </trkpt>
      <trkpt lat="47.51045" lon="6.7775">
        <ele>318</ele>
        <time>2016-01-17T10:41:32.000Z</time>
      </trkpt>
      <trkpt lat="47.51048" lon="6.77754">
        <ele>318</ele>
        <time>2016-01-17T10:41:33.000Z</time>
      </trkpt>
      <trkpt lat="47.5105" lon="6.77756">
        <ele>318</ele>
        <time>2016-01-17T10:41:34.000Z</time>
      </trkpt>
      <trkpt lat="47.51053" lon="6.77758">
        <ele>318</ele>
        <time>2016-01-17T10:41:35.000Z</time>
      </trkpt>
      <trkpt lat="47.51055" lon="6.77761">
        <ele>318</ele>
        <time>2016-01-17T10:41:36.000Z</time>
      </trkpt>
      <trkpt lat="47.51058" lon="6.77763">
        <ele>318</ele>
        <time>2016-01-17T10:41:37.000Z</time>
      </trkpt>
      <trkpt lat="47.51061" lon="6.77765">
        <ele>318</ele>
        <time>2016-01-17T10:41:38.000Z</time>
      </trkpt>
      <trkpt lat="47.51065" lon="6.77766">
        <ele>319</ele>
        <time>2016-01-17T10:41:39.000Z</time>
      </trkpt>
      <trkpt lat="47.51069" lon="6.77767">
        <ele>319</ele>
        <time>2016-01-17T10:41:40.000Z</time>
      </trkpt>
      <trkpt lat="47.51073" lon="6.77769">
        <ele>319</ele>
        <time>2016-01-17T10:41:41.000Z</time>
      </trkpt>
      <trkpt lat="47.51077" lon="6.77771">
        <ele>319</ele>
        <time>2016-01-17T10:41:42.000Z</time>
      </trkpt>
      <trkpt lat="47.51081" lon="6.77772">
        <ele>319</ele>
        <time>2016-01-17T10:41:43.000Z</time>
      </trkpt>
      <trkpt lat="47.51084" lon="6.77773">
        <ele>321</ele>
        <time>2016-01-17T10:41:44.000Z</time>
      </trkpt>
      <trkpt lat="47.51088" lon="6.77774">
        <ele>321</ele>
        <time>2016-01-17T10:41:45.000Z</time>
      </trkpt>
      <trkpt lat="47.51091" lon="6.77775">
        <ele>321</ele>
        <time>2016-01-17T10:41:46.000Z</time>
      </trkpt>
      <trkpt lat="47.51095" lon="6.77776">
        <ele>321</ele>
        <time>2016-01-17T10:41:47.000Z</time>
      </trkpt>
      <trkpt lat="47.51099" lon="6.77777">
        <ele>321</ele>
        <time>2016-01-17T10:41:48.000Z</time>
      </trkpt>
      <trkpt lat="47.51103" lon="6.77778">
        <ele>322</ele>
        <time>2016-01-17T10:41:49.000Z</time>
      </trkpt>
      <trkpt lat="47.51106" lon="6.77778">
        <ele>322</ele>
        <time>2016-01-17T10:41:50.000Z</time>
      </trkpt>
      <trkpt lat="47.5111" lon="6.77779">
        <ele>322</ele>
        <time>2016-01-17T10:41:51.000Z</time>
      </trkpt>
      <trkpt lat="47.51113" lon="6.7778">
        <ele>322</ele>
        <time>2016-01-17T10:41:52.000Z</time>
      </trkpt>
      <trkpt lat="47.51117" lon="6.77781">
        <ele>322</ele>
        <time>2016-01-17T10:41:53.000Z</time>
      </trkpt>
      <trkpt lat="47.5112" lon="6.77781">
        <ele>322</ele>
        <time>2016-01-17T10:41:54.000Z</time>
      </trkpt>
      <trkpt lat="47.51124" lon="6.77782">
        <ele>322</ele>
        <time>2016-01-17T10:41:55.000Z</time>
      </trkpt>
      <trkpt lat="47.51127" lon="6.77783">
        <ele>322</ele>
        <time>2016-01-17T10:41:56.000Z</time>
      </trkpt>
      <trkpt lat="47.51131" lon="6.77783">
        <ele>322</ele>
        <time>2016-01-17T10:41:57.000Z</time>
      </trkpt>
      <trkpt lat="47.51135" lon="6.77783">
        <ele>322</ele>
        <time>2016-01-17T10:41:58.000Z</time>
      </trkpt>
      <trkpt lat="47.51138" lon="6.77783">
        <ele>323</ele>
        <time>2016-01-17T10:41:59.000Z</time>
      </trkpt>
      <trkpt lat="47.51141" lon="6.77783">
        <ele>323</ele>
        <time>2016-01-17T10:42:00.000Z</time>
      </trkpt>
      <trkpt lat="47.51145" lon="6.77782">
        <ele>323</ele>
        <time>2016-01-17T10:42:01.000Z</time>
      </trkpt>
      <trkpt lat="47.51148" lon="6.77782">
        <ele>323</ele>
        <time>2016-01-17T10:42:02.000Z</time>
      </trkpt>
      <trkpt lat="47.51151" lon="6.77782">
        <ele>323</ele>
        <time>2016-01-17T10:42:03.000Z</time>
      </trkpt>
      <trkpt lat="47.51154" lon="6.77782">
        <ele>323</ele>
        <time>2016-01-17T10:42:04.000Z</time>
      </trkpt>
      <trkpt lat="47.51157" lon="6.77783">
        <ele>323</ele>
        <time>2016-01-17T10:42:05.000Z</time>
      </trkpt>
      <trkpt lat="47.51161" lon="6.77783">
        <ele>323</ele>
        <time>2016-01-17T10:42:06.000Z</time>
      </trkpt>
      <trkpt lat="47.51164" lon="6.77783">
        <ele>323</ele>
        <time>2016-01-17T10:42:07.000Z</time>
      </trkpt>
      <trkpt lat="47.51167" lon="6.77783">
        <ele>326</ele>
        <time>2016-01-17T10:42:08.000Z</time>
      </trkpt>
      <trkpt lat="47.5117" lon="6.77783">
        <ele>326</ele>
        <time>2016-01-17T10:42:09.000Z</time>
      </trkpt>
      <trkpt lat="47.51173" lon="6.77783">
        <ele>326</ele>
        <time>2016-01-17T10:42:10.000Z</time>
      </trkpt>
      <trkpt lat="47.51176" lon="6.77782">
        <ele>326</ele>
        <time>2016-01-17T10:42:11.000Z</time>
      </trkpt>
      <trkpt lat="47.51178" lon="6.77782">
        <ele>326</ele>
        <time>2016-01-17T10:42:12.000Z</time>
      </trkpt>
      <trkpt lat="47.51181" lon="6.77783">
        <ele>326</ele>
        <time>2016-01-17T10:42:13.000Z</time>
      </trkpt>
      <trkpt lat="47.51185" lon="6.77783">
        <ele>326</ele>
        <time>2016-01-17T10:42:15.000Z</time>
      </trkpt>
      <trkpt lat="47.51187" lon="6.77783">
        <ele>326</ele>
        <time>2016-01-17T10:42:16.000Z</time>
      </trkpt>
      <trkpt lat="47.5119" lon="6.77783">
        <ele>326</ele>
        <time>2016-01-17T10:42:17.000Z</time>
      </trkpt>
      <trkpt lat="47.51192" lon="6.77783">
        <ele>326</ele>
        <time>2016-01-17T10:42:18.000Z</time>
      </trkpt>
      <trkpt lat="47.51195" lon="6.77783">
        <ele>327</ele>
        <time>2016-01-17T10:42:19.000Z</time>
      </trkpt>
      <trkpt lat="47.51198" lon="6.77783">
        <ele>327</ele>
        <time>2016-01-17T10:42:20.000Z</time>
      </trkpt>
      <trkpt lat="47.51201" lon="6.77783">
        <ele>327</ele>
        <time>2016-01-17T10:42:21.000Z</time>
      </trkpt>
      <trkpt lat="47.51204" lon="6.77784">
        <ele>327</ele>
        <time>2016-01-17T10:42:22.000Z</time>
      </trkpt>
      <trkpt lat="47.51206" lon="6.77784">
        <ele>327</ele>
        <time>2016-01-17T10:42:23.000Z</time>
      </trkpt>
      <trkpt lat="47.51209" lon="6.77784">
        <ele>327</ele>
        <time>2016-01-17T10:42:24.000Z</time>
      </trkpt>
      <trkpt lat="47.51212" lon="6.77784">
        <ele>327</ele>
        <time>2016-01-17T10:42:25.000Z</time>
      </trkpt>
      <trkpt lat="47.51214" lon="6.77784">
        <ele>327</ele>
        <time>2016-01-17T10:42:26.000Z</time>
      </trkpt>
      <trkpt lat="47.51217" lon="6.77784">
        <ele>327</ele>
        <time>2016-01-17T10:42:27.000Z</time>
      </trkpt>
      <trkpt lat="47.5122" lon="6.77784">
        <ele>327</ele>
        <time>2016-01-17T10:42:28.000Z</time>
      </trkpt>
      <trkpt lat="47.51222" lon="6.77783">
        <ele>327</ele>
        <time>2016-01-17T10:42:29.000Z</time>
      </trkpt>
      <trkpt lat="47.51225" lon="6.77783">
        <ele>327</ele>
        <time>2016-01-17T10:42:30.000Z</time>
      </trkpt>
      <trkpt lat="47.51227" lon="6.77782">
        <ele>327</ele>
        <time>2016-01-17T10:42:31.000Z</time>
      </trkpt>
      <trkpt lat="47.5123" lon="6.77782">
        <ele>328</ele>
        <time>2016-01-17T10:42:32.000Z</time>
      </trkpt>
      <trkpt lat="47.51233" lon="6.77782">
        <ele>328</ele>
        <time>2016-01-17T10:42:33.000Z</time>
      </trkpt>
      <trkpt lat="47.51235" lon="6.77782">
        <ele>328</ele>
        <time>2016-01-17T10:42:34.000Z</time>
      </trkpt>
      <trkpt lat="47.51238" lon="6.77783">
        <ele>328</ele>
        <time>2016-01-17T10:42:35.000Z</time>
      </trkpt>
      <trkpt lat="47.5124" lon="6.77783">
        <ele>328</ele>
        <time>2016-01-17T10:42:36.000Z</time>
      </trkpt>
      <trkpt lat="47.51243" lon="6.77783">
        <ele>328</ele>
        <time>2016-01-17T10:42:37.000Z</time>
      </trkpt>
      <trkpt lat="47.51245" lon="6.77783">
        <ele>328</ele>
        <time>2016-01-17T10:42:38.000Z</time>
      </trkpt>
      <trkpt lat="47.51247" lon="6.77782">
        <ele>328</ele>
        <time>2016-01-17T10:42:39.000Z</time>
      </trkpt>
      <trkpt lat="47.5125" lon="6.77782">
        <ele>328</ele>
        <time>2016-01-17T10:42:40.000Z</time>
      </trkpt>
      <trkpt lat="47.51254" lon="6.77782">
        <ele>334</ele>
        <time>2016-01-17T10:42:42.000Z</time>
      </trkpt>
      <trkpt lat="47.51256" lon="6.77783">
        <ele>334</ele>
        <time>2016-01-17T10:42:43.000Z</time>
      </trkpt>
      <trkpt lat="47.51259" lon="6.77783">
        <ele>334</ele>
        <time>2016-01-17T10:42:44.000Z</time>
      </trkpt>
      <trkpt lat="47.51261" lon="6.77783">
        <ele>334</ele>
        <time>2016-01-17T10:42:45.000Z</time>
      </trkpt>
      <trkpt lat="47.51263" lon="6.77783">
        <ele>334</ele>
        <time>2016-01-17T10:42:46.000Z</time>
      </trkpt>
      <trkpt lat="47.51266" lon="6.77782">
        <ele>334</ele>
        <time>2016-01-17T10:42:47.000Z</time>
      </trkpt>
      <trkpt lat="47.51268" lon="6.77782">
        <ele>334</ele>
        <time>2016-01-17T10:42:48.000Z</time>
      </trkpt>
      <trkpt lat="47.51271" lon="6.77782">
        <ele>335</ele>
        <time>2016-01-17T10:42:49.000Z</time>
      </trkpt>
      <trkpt lat="47.51274" lon="6.77783">
        <ele>335</ele>
        <time>2016-01-17T10:42:50.000Z</time>
      </trkpt>
      <trkpt lat="47.51276" lon="6.77783">
        <ele>335</ele>
        <time>2016-01-17T10:42:51.000Z</time>
      </trkpt>
      <trkpt lat="47.51279" lon="6.77783">
        <ele>335</ele>
        <time>2016-01-17T10:42:52.000Z</time>
      </trkpt>
      <trkpt lat="47.51281" lon="6.77782">
        <ele>335</ele>
        <time>2016-01-17T10:42:53.000Z</time>
      </trkpt>
      <trkpt lat="47.51284" lon="6.77782">
        <ele>336</ele>
        <time>2016-01-17T10:42:54.000Z</time>
      </trkpt>
      <trkpt lat="47.51286" lon="6.77782">
        <ele>336</ele>
        <time>2016-01-17T10:42:55.000Z</time>
      </trkpt>
      <trkpt lat="47.51289" lon="6.77782">
        <ele>336</ele>
        <time>2016-01-17T10:42:56.000Z</time>
      </trkpt>
      <trkpt lat="47.51292" lon="6.77782">
        <ele>336</ele>
        <time>2016-01-17T10:42:57.000Z</time>
      </trkpt>
      <trkpt lat="47.51294" lon="6.77782">
        <ele>336</ele>
        <time>2016-01-17T10:42:58.000Z</time>
      </trkpt>
      <trkpt lat="47.51296" lon="6.77782">
        <ele>337</ele>
        <time>2016-01-17T10:42:59.000Z</time>
      </trkpt>
      <trkpt lat="47.51299" lon="6.77782">
        <ele>337</ele>
        <time>2016-01-17T10:43:00.000Z</time>
      </trkpt>
      <trkpt lat="47.51301" lon="6.77781">
        <ele>337</ele>
        <time>2016-01-17T10:43:01.000Z</time>
      </trkpt>
      <trkpt lat="47.51304" lon="6.7778">
        <ele>337</ele>
        <time>2016-01-17T10:43:02.000Z</time>
      </trkpt>
      <trkpt lat="47.51308" lon="6.77779">
        <ele>338</ele>
        <time>2016-01-17T10:43:03.000Z</time>
      </trkpt>
      <trkpt lat="47.51311" lon="6.77779">
        <ele>338</ele>
        <time>2016-01-17T10:43:04.000Z</time>
      </trkpt>
      <trkpt lat="47.51314" lon="6.77779">
        <ele>338</ele>
        <time>2016-01-17T10:43:05.000Z</time>
      </trkpt>
      <trkpt lat="47.51318" lon="6.77779">
        <ele>338</ele>
        <time>2016-01-17T10:43:07.000Z</time>
      </trkpt>
      <trkpt lat="47.5132" lon="6.77779">
        <ele>339</ele>
        <time>2016-01-17T10:43:08.000Z</time>
      </trkpt>
      <trkpt lat="47.51323" lon="6.77778">
        <ele>339</ele>
        <time>2016-01-17T10:43:10.000Z</time>
      </trkpt>
      <trkpt lat="47.51325" lon="6.77777">
        <ele>339</ele>
        <time>2016-01-17T10:43:11.000Z</time>
      </trkpt>
      <trkpt lat="47.51329" lon="6.77777">
        <ele>339</ele>
        <time>2016-01-17T10:43:13.000Z</time>
      </trkpt>
      <trkpt lat="47.51331" lon="6.77777">
        <ele>339</ele>
        <time>2016-01-17T10:43:14.000Z</time>
      </trkpt>
      <trkpt lat="47.51334" lon="6.77778">
        <ele>348</ele>
        <time>2016-01-17T10:43:16.000Z</time>
      </trkpt>
      <trkpt lat="47.51336" lon="6.77779">
        <ele>348</ele>
        <time>2016-01-17T10:43:17.000Z</time>
      </trkpt>
      <trkpt lat="47.51339" lon="6.77782">
        <ele>348</ele>
        <time>2016-01-17T10:43:19.000Z</time>
      </trkpt>
      <trkpt lat="47.51341" lon="6.77784">
        <ele>348</ele>
        <time>2016-01-17T10:43:20.000Z</time>
      </trkpt>
      <trkpt lat="47.51345" lon="6.77785">
        <ele>349</ele>
        <time>2016-01-17T10:43:22.000Z</time>
      </trkpt>
      <trkpt lat="47.51347" lon="6.77785">
        <ele>349</ele>
        <time>2016-01-17T10:43:23.000Z</time>
      </trkpt>
      <trkpt lat="47.5135" lon="6.77783">
        <ele>349</ele>
        <time>2016-01-17T10:43:25.000Z</time>
      </trkpt>
      <trkpt lat="47.51352" lon="6.77782">
        <ele>349</ele>
        <time>2016-01-17T10:43:26.000Z</time>
      </trkpt>
      <trkpt lat="47.51355" lon="6.77779">
        <ele>349</ele>
        <time>2016-01-17T10:43:28.000Z</time>
      </trkpt>
      <trkpt lat="47.51357" lon="6.77777">
        <ele>349</ele>
        <time>2016-01-17T10:43:29.000Z</time>
      </trkpt>
      <trkpt lat="47.51359" lon="6.77773">
        <ele>349</ele>
        <time>2016-01-17T10:43:31.000Z</time>
      </trkpt>
      <trkpt lat="47.51361" lon="6.77771">
        <ele>349</ele>
        <time>2016-01-17T10:43:32.000Z</time>
      </trkpt>
      <trkpt lat="47.51364" lon="6.77768">
        <ele>350</ele>
        <time>2016-01-17T10:43:34.000Z</time>
      </trkpt>
      <trkpt lat="47.51365" lon="6.77767">
        <ele>350</ele>
        <time>2016-01-17T10:43:35.000Z</time>
      </trkpt>
      <trkpt lat="47.51369" lon="6.77764">
        <ele>350</ele>
        <time>2016-01-17T10:43:37.000Z</time>
      </trkpt>
      <trkpt lat="47.51371" lon="6.77763">
        <ele>350</ele>
        <time>2016-01-17T10:43:38.000Z</time>
      </trkpt>
      <trkpt lat="47.51375" lon="6.77761">
        <ele>351</ele>
        <time>2016-01-17T10:43:40.000Z</time>
      </trkpt>
      <trkpt lat="47.51377" lon="6.7776">
        <ele>351</ele>
        <time>2016-01-17T10:43:41.000Z</time>
      </trkpt>
      <trkpt lat="47.5138" lon="6.77757">
        <ele>351</ele>
        <time>2016-01-17T10:43:43.000Z</time>
      </trkpt>
      <trkpt lat="47.51382" lon="6.77756">
        <ele>352</ele>
        <time>2016-01-17T10:43:44.000Z</time>
      </trkpt>
      <trkpt lat="47.51385" lon="6.77755">
        <ele>352</ele>
        <time>2016-01-17T10:43:47.000Z</time>
      </trkpt>
      <trkpt lat="47.51386" lon="6.77754">
        <ele>352</ele>
        <time>2016-01-17T10:43:48.000Z</time>
      </trkpt>
      <trkpt lat="47.51389" lon="6.77753">
        <ele>352</ele>
        <time>2016-01-17T10:43:50.000Z</time>
      </trkpt>
      <trkpt lat="47.5139" lon="6.77752">
        <ele>353</ele>
        <time>2016-01-17T10:43:51.000Z</time>
      </trkpt>
      <trkpt lat="47.51394" lon="6.7775">
        <ele>353</ele>
        <time>2016-01-17T10:43:53.000Z</time>
      </trkpt>
      <trkpt lat="47.51396" lon="6.77749">
        <ele>355</ele>
        <time>2016-01-17T10:43:54.000Z</time>
      </trkpt>
      <trkpt lat="47.514" lon="6.77749">
        <ele>356</ele>
        <time>2016-01-17T10:43:56.000Z</time>
      </trkpt>
      <trkpt lat="47.51402" lon="6.77749">
        <ele>356</ele>
        <time>2016-01-17T10:43:57.000Z</time>
      </trkpt>
      <trkpt lat="47.51405" lon="6.77748">
        <ele>356</ele>
        <time>2016-01-17T10:43:59.000Z</time>
      </trkpt>
      <trkpt lat="47.51407" lon="6.77746">
        <ele>356</ele>
        <time>2016-01-17T10:44:00.000Z</time>
      </trkpt>
      <trkpt lat="47.51409" lon="6.77744">
        <ele>356</ele>
        <time>2016-01-17T10:44:02.000Z</time>
      </trkpt>
      <trkpt lat="47.51411" lon="6.77743">
        <ele>356</ele>
        <time>2016-01-17T10:44:03.000Z</time>
      </trkpt>
      <trkpt lat="47.51414" lon="6.7774">
        <ele>356</ele>
        <time>2016-01-17T10:44:05.000Z</time>
      </trkpt>
      <trkpt lat="47.51416" lon="6.77739">
        <ele>356</ele>
        <time>2016-01-17T10:44:06.000Z</time>
      </trkpt>
      <trkpt lat="47.5142" lon="6.77737">
        <ele>361</ele>
        <time>2016-01-17T10:44:08.000Z</time>
      </trkpt>
      <trkpt lat="47.51423" lon="6.77736">
        <ele>361</ele>
        <time>2016-01-17T10:44:09.000Z</time>
      </trkpt>
      <trkpt lat="47.51426" lon="6.77735">
        <ele>362</ele>
        <time>2016-01-17T10:44:10.000Z</time>
      </trkpt>
      <trkpt lat="47.51429" lon="6.77733">
        <ele>362</ele>
        <time>2016-01-17T10:44:11.000Z</time>
      </trkpt>
      <trkpt lat="47.51432" lon="6.77732">
        <ele>363</ele>
        <time>2016-01-17T10:44:13.000Z</time>
      </trkpt>
      <trkpt lat="47.51433" lon="6.77732">
        <ele>363</ele>
        <time>2016-01-17T10:44:14.000Z</time>
      </trkpt>
      <trkpt lat="47.51437" lon="6.77733">
        <ele>363</ele>
        <time>2016-01-17T10:44:17.000Z</time>
      </trkpt>
      <trkpt lat="47.51438" lon="6.77733">
        <ele>363</ele>
        <time>2016-01-17T10:44:18.000Z</time>
      </trkpt>
      <trkpt lat="47.5144" lon="6.77732">
        <ele>364</ele>
        <time>2016-01-17T10:44:19.000Z</time>
      </trkpt>
      <trkpt lat="47.51443" lon="6.77731">
        <ele>364</ele>
        <time>2016-01-17T10:44:20.000Z</time>
      </trkpt>
      <trkpt lat="47.51446" lon="6.7773">
        <ele>364</ele>
        <time>2016-01-17T10:44:21.000Z</time>
      </trkpt>
      <trkpt lat="47.51448" lon="6.7773">
        <ele>364</ele>
        <time>2016-01-17T10:44:22.000Z</time>
      </trkpt>
      <trkpt lat="47.51453" lon="6.7773">
        <ele>365</ele>
        <time>2016-01-17T10:44:26.000Z</time>
      </trkpt>
      <trkpt lat="47.51454" lon="6.7773">
        <ele>365</ele>
        <time>2016-01-17T10:44:27.000Z</time>
      </trkpt>
      <trkpt lat="47.51457" lon="6.77729">
        <ele>365</ele>
        <time>2016-01-17T10:44:29.000Z</time>
      </trkpt>
      <trkpt lat="47.51459" lon="6.77729">
        <ele>365</ele>
        <time>2016-01-17T10:44:30.000Z</time>
      </trkpt>
      <trkpt lat="47.51462" lon="6.77729">
        <ele>365</ele>
        <time>2016-01-17T10:44:32.000Z</time>
      </trkpt>
      <trkpt lat="47.51464" lon="6.77729">
        <ele>365</ele>
        <time>2016-01-17T10:44:33.000Z</time>
      </trkpt>
      <trkpt lat="47.51467" lon="6.77729">
        <ele>366</ele>
        <time>2016-01-17T10:44:35.000Z</time>
      </trkpt>
      <trkpt lat="47.51469" lon="6.77728">
        <ele>366</ele>
        <time>2016-01-17T10:44:36.000Z</time>
      </trkpt>
      <trkpt lat="47.51472" lon="6.77727">
        <ele>366</ele>
        <time>2016-01-17T10:44:38.000Z</time>
      </trkpt>
      <trkpt lat="47.51474" lon="6.77726">
        <ele>366</ele>
        <time>2016-01-17T10:44:39.000Z</time>
      </trkpt>
      <trkpt lat="47.51477" lon="6.77725">
        <ele>366</ele>
        <time>2016-01-17T10:44:41.000Z</time>
      </trkpt>
      <trkpt lat="47.51479" lon="6.77725">
        <ele>366</ele>
        <time>2016-01-17T10:44:42.000Z</time>
      </trkpt>
      <trkpt lat="47.51483" lon="6.77724">
        <ele>366</ele>
        <time>2016-01-17T10:44:44.000Z</time>
      </trkpt>
      <trkpt lat="47.51485" lon="6.77724">
        <ele>366</ele>
        <time>2016-01-17T10:44:45.000Z</time>
      </trkpt>
      <trkpt lat="47.51489" lon="6.77723">
        <ele>366</ele>
        <time>2016-01-17T10:44:47.000Z</time>
      </trkpt>
      <trkpt lat="47.5149" lon="6.77723">
        <ele>366</ele>
        <time>2016-01-17T10:44:48.000Z</time>
      </trkpt>
      <trkpt lat="47.51494" lon="6.77721">
        <ele>366</ele>
        <time>2016-01-17T10:44:51.000Z</time>
      </trkpt>
      <trkpt lat="47.51495" lon="6.77721">
        <ele>367</ele>
        <time>2016-01-17T10:44:52.000Z</time>
      </trkpt>
      <trkpt lat="47.51498" lon="6.77721">
        <ele>367</ele>
        <time>2016-01-17T10:44:54.000Z</time>
      </trkpt>
      <trkpt lat="47.515" lon="6.77721">
        <ele>371</ele>
        <time>2016-01-17T10:44:55.000Z</time>
      </trkpt>
      <trkpt lat="47.51503" lon="6.7772">
        <ele>371</ele>
        <time>2016-01-17T10:44:57.000Z</time>
      </trkpt>
      <trkpt lat="47.51505" lon="6.77719">
        <ele>371</ele>
        <time>2016-01-17T10:44:58.000Z</time>
      </trkpt>
      <trkpt lat="47.51509" lon="6.77717">
        <ele>371</ele>
        <time>2016-01-17T10:45:00.000Z</time>
      </trkpt>
      <trkpt lat="47.5151" lon="6.77717">
        <ele>372</ele>
        <time>2016-01-17T10:45:01.000Z</time>
      </trkpt>
      <trkpt lat="47.51514" lon="6.77715">
        <ele>372</ele>
        <time>2016-01-17T10:45:04.000Z</time>
      </trkpt>
      <trkpt lat="47.51516" lon="6.77715">
        <ele>372</ele>
        <time>2016-01-17T10:45:05.000Z</time>
      </trkpt>
      <trkpt lat="47.51519" lon="6.77718">
        <ele>372</ele>
        <time>2016-01-17T10:45:08.000Z</time>
      </trkpt>
      <trkpt lat="47.51521" lon="6.77718">
        <ele>372</ele>
        <time>2016-01-17T10:45:09.000Z</time>
      </trkpt>
      <trkpt lat="47.51524" lon="6.77717">
        <ele>372</ele>
        <time>2016-01-17T10:45:11.000Z</time>
      </trkpt>
      <trkpt lat="47.51525" lon="6.77716">
        <ele>372</ele>
        <time>2016-01-17T10:45:12.000Z</time>
      </trkpt>
      <trkpt lat="47.51529" lon="6.77715">
        <ele>373</ele>
        <time>2016-01-17T10:45:14.000Z</time>
      </trkpt>
      <trkpt lat="47.51532" lon="6.77715">
        <ele>373</ele>
        <time>2016-01-17T10:45:15.000Z</time>
      </trkpt>
      <trkpt lat="47.51536" lon="6.77714">
        <ele>373</ele>
        <time>2016-01-17T10:45:17.000Z</time>
      </trkpt>
      <trkpt lat="47.51537" lon="6.77714">
        <ele>373</ele>
        <time>2016-01-17T10:45:18.000Z</time>
      </trkpt>
      <trkpt lat="47.51541" lon="6.77715">
        <ele>373</ele>
        <time>2016-01-17T10:45:20.000Z</time>
      </trkpt>
      <trkpt lat="47.51543" lon="6.77715">
        <ele>374</ele>
        <time>2016-01-17T10:45:21.000Z</time>
      </trkpt>
      <trkpt lat="47.51547" lon="6.77715">
        <ele>374</ele>
        <time>2016-01-17T10:45:23.000Z</time>
      </trkpt>
      <trkpt lat="47.51549" lon="6.77716">
        <ele>374</ele>
        <time>2016-01-17T10:45:24.000Z</time>
      </trkpt>
      <trkpt lat="47.51552" lon="6.77718">
        <ele>374</ele>
        <time>2016-01-17T10:45:27.000Z</time>
      </trkpt>
      <trkpt lat="47.51554" lon="6.77719">
        <ele>374</ele>
        <time>2016-01-17T10:45:28.000Z</time>
      </trkpt>
      <trkpt lat="47.51556" lon="6.77721">
        <ele>374</ele>
        <time>2016-01-17T10:45:30.000Z</time>
      </trkpt>
      <trkpt lat="47.51558" lon="6.77722">
        <ele>374</ele>
        <time>2016-01-17T10:45:31.000Z</time>
      </trkpt>
      <trkpt lat="47.51561" lon="6.77723">
        <ele>374</ele>
        <time>2016-01-17T10:45:33.000Z</time>
      </trkpt>
      <trkpt lat="47.51563" lon="6.77724">
        <ele>374</ele>
        <time>2016-01-17T10:45:34.000Z</time>
      </trkpt>
      <trkpt lat="47.51566" lon="6.77724">
        <ele>375</ele>
        <time>2016-01-17T10:45:36.000Z</time>
      </trkpt>
      <trkpt lat="47.51568" lon="6.77725">
        <ele>375</ele>
        <time>2016-01-17T10:45:37.000Z</time>
      </trkpt>
      <trkpt lat="47.51572" lon="6.77726">
        <ele>375</ele>
        <time>2016-01-17T10:45:39.000Z</time>
      </trkpt>
      <trkpt lat="47.51574" lon="6.77726">
        <ele>375</ele>
        <time>2016-01-17T10:45:40.000Z</time>
      </trkpt>
      <trkpt lat="47.51577" lon="6.77728">
        <ele>375</ele>
        <time>2016-01-17T10:45:42.000Z</time>
      </trkpt>
      <trkpt lat="47.51579" lon="6.77728">
        <ele>375</ele>
        <time>2016-01-17T10:45:43.000Z</time>
      </trkpt>
      <trkpt lat="47.51583" lon="6.77729">
        <ele>375</ele>
        <time>2016-01-17T10:45:45.000Z</time>
      </trkpt>
      <trkpt lat="47.51585" lon="6.7773">
        <ele>379</ele>
        <time>2016-01-17T10:45:46.000Z</time>
      </trkpt>
      <trkpt lat="47.51587" lon="6.77731">
        <ele>379</ele>
        <time>2016-01-17T10:45:47.000Z</time>
      </trkpt>
      <trkpt lat="47.5159" lon="6.77733">
        <ele>379</ele>
        <time>2016-01-17T10:45:48.000Z</time>
      </trkpt>
      <trkpt lat="47.51592" lon="6.77735">
        <ele>379</ele>
        <time>2016-01-17T10:45:49.000Z</time>
      </trkpt>
      <trkpt lat="47.51594" lon="6.77737">
        <ele>379</ele>
        <time>2016-01-17T10:45:50.000Z</time>
      </trkpt>
      <trkpt lat="47.51596" lon="6.77739">
        <ele>379</ele>
        <time>2016-01-17T10:45:51.000Z</time>
      </trkpt>
      <trkpt lat="47.51598" lon="6.77741">
        <ele>379</ele>
        <time>2016-01-17T10:45:52.000Z</time>
      </trkpt>
      <trkpt lat="47.516" lon="6.77742">
        <ele>379</ele>
        <time>2016-01-17T10:45:53.000Z</time>
      </trkpt>
      <trkpt lat="47.51602" lon="6.77744">
        <ele>379</ele>
        <time>2016-01-17T10:45:54.000Z</time>
      </trkpt>
      <trkpt lat="47.51606" lon="6.77746">
        <ele>379</ele>
        <time>2016-01-17T10:45:56.000Z</time>
      </trkpt>
      <trkpt lat="47.51607" lon="6.77746">
        <ele>380</ele>
        <time>2016-01-17T10:45:57.000Z</time>
      </trkpt>
      <trkpt lat="47.51611" lon="6.77747">
        <ele>380</ele>
        <time>2016-01-17T10:45:59.000Z</time>
      </trkpt>
      <trkpt lat="47.51613" lon="6.77746">
        <ele>380</ele>
        <time>2016-01-17T10:46:00.000Z</time>
      </trkpt>
      <trkpt lat="47.51617" lon="6.77746">
        <ele>380</ele>
        <time>2016-01-17T10:46:02.000Z</time>
      </trkpt>
      <trkpt lat="47.51619" lon="6.77746">
        <ele>381</ele>
        <time>2016-01-17T10:46:03.000Z</time>
      </trkpt>
      <trkpt lat="47.51623" lon="6.77746">
        <ele>381</ele>
        <time>2016-01-17T10:46:05.000Z</time>
      </trkpt>
      <trkpt lat="47.51625" lon="6.77747">
        <ele>381</ele>
        <time>2016-01-17T10:46:06.000Z</time>
      </trkpt>
      <trkpt lat="47.51629" lon="6.77747">
        <ele>381</ele>
        <time>2016-01-17T10:46:08.000Z</time>
      </trkpt>
      <trkpt lat="47.51631" lon="6.77747">
        <ele>381</ele>
        <time>2016-01-17T10:46:09.000Z</time>
      </trkpt>
      <trkpt lat="47.51634" lon="6.77747">
        <ele>381</ele>
        <time>2016-01-17T10:46:11.000Z</time>
      </trkpt>
      <trkpt lat="47.51636" lon="6.77747">
        <ele>382</ele>
        <time>2016-01-17T10:46:12.000Z</time>
      </trkpt>
      <trkpt lat="47.51639" lon="6.77746">
        <ele>382</ele>
        <time>2016-01-17T10:46:14.000Z</time>
      </trkpt>
      <trkpt lat="47.51641" lon="6.77746">
        <ele>382</ele>
        <time>2016-01-17T10:46:15.000Z</time>
      </trkpt>
      <trkpt lat="47.51644" lon="6.77747">
        <ele>382</ele>
        <time>2016-01-17T10:46:17.000Z</time>
      </trkpt>
      <trkpt lat="47.51646" lon="6.77747">
        <ele>382</ele>
        <time>2016-01-17T10:46:18.000Z</time>
      </trkpt>
      <trkpt lat="47.5165" lon="6.77747">
        <ele>382</ele>
        <time>2016-01-17T10:46:20.000Z</time>
      </trkpt>
      <trkpt lat="47.51653" lon="6.77748">
        <ele>382</ele>
        <time>2016-01-17T10:46:21.000Z</time>
      </trkpt>
      <trkpt lat="47.51656" lon="6.7775">
        <ele>382</ele>
        <time>2016-01-17T10:46:23.000Z</time>
      </trkpt>
      <trkpt lat="47.51658" lon="6.77751">
        <ele>383</ele>
        <time>2016-01-17T10:46:24.000Z</time>
      </trkpt>
      <trkpt lat="47.5166" lon="6.77752">
        <ele>383</ele>
        <time>2016-01-17T10:46:25.000Z</time>
      </trkpt>
      <trkpt lat="47.51662" lon="6.77753">
        <ele>383</ele>
        <time>2016-01-17T10:46:26.000Z</time>
      </trkpt>
      <trkpt lat="47.51664" lon="6.77754">
        <ele>383</ele>
        <time>2016-01-17T10:46:27.000Z</time>
      </trkpt>
      <trkpt lat="47.51667" lon="6.77755">
        <ele>384</ele>
        <time>2016-01-17T10:46:28.000Z</time>
      </trkpt>
      <trkpt lat="47.51669" lon="6.77756">
        <ele>384</ele>
        <time>2016-01-17T10:46:29.000Z</time>
      </trkpt>
      <trkpt lat="47.51672" lon="6.77757">
        <ele>384</ele>
        <time>2016-01-17T10:46:30.000Z</time>
      </trkpt>
      <trkpt lat="47.51676" lon="6.77757">
        <ele>384</ele>
        <time>2016-01-17T10:46:32.000Z</time>
      </trkpt>
      <trkpt lat="47.51678" lon="6.77757">
        <ele>384</ele>
        <time>2016-01-17T10:46:33.000Z</time>
      </trkpt>
      <trkpt lat="47.51681" lon="6.77756">
        <ele>384</ele>
        <time>2016-01-17T10:46:34.000Z</time>
      </trkpt>
      <trkpt lat="47.51683" lon="6.77755">
        <ele>385</ele>
        <time>2016-01-17T10:46:35.000Z</time>
      </trkpt>
      <trkpt lat="47.51687" lon="6.77754">
        <ele>385</ele>
        <time>2016-01-17T10:46:37.000Z</time>
      </trkpt>
      <trkpt lat="47.51689" lon="6.77754">
        <ele>385</ele>
        <time>2016-01-17T10:46:38.000Z</time>
      </trkpt>
      <trkpt lat="47.51693" lon="6.77752">
        <ele>385</ele>
        <time>2016-01-17T10:46:40.000Z</time>
      </trkpt>
      <trkpt lat="47.51694" lon="6.77749">
        <ele>386</ele>
        <time>2016-01-17T10:46:41.000Z</time>
      </trkpt>
      <trkpt lat="47.51696" lon="6.77744">
        <ele>386</ele>
        <time>2016-01-17T10:46:43.000Z</time>
      </trkpt>
      <trkpt lat="47.51698" lon="6.77741">
        <ele>386</ele>
        <time>2016-01-17T10:46:44.000Z</time>
      </trkpt>
      <trkpt lat="47.51701" lon="6.77737">
        <ele>387</ele>
        <time>2016-01-17T10:46:46.000Z</time>
      </trkpt>
      <trkpt lat="47.51702" lon="6.77734">
        <ele>387</ele>
        <time>2016-01-17T10:46:47.000Z</time>
      </trkpt>
      <trkpt lat="47.51704" lon="6.77729">
        <ele>387</ele>
        <time>2016-01-17T10:46:49.000Z</time>
      </trkpt>
      <trkpt lat="47.51704" lon="6.77726">
        <ele>387</ele>
        <time>2016-01-17T10:46:50.000Z</time>
      </trkpt>
      <trkpt lat="47.51705" lon="6.77721">
        <ele>387</ele>
        <time>2016-01-17T10:46:52.000Z</time>
      </trkpt>
      <trkpt lat="47.51706" lon="6.77718">
        <ele>387</ele>
        <time>2016-01-17T10:46:53.000Z</time>
      </trkpt>
      <trkpt lat="47.51706" lon="6.77712">
        <ele>387</ele>
        <time>2016-01-17T10:46:55.000Z</time>
      </trkpt>
      <trkpt lat="47.51706" lon="6.77709">
        <ele>387</ele>
        <time>2016-01-17T10:46:56.000Z</time>
      </trkpt>
      <trkpt lat="47.51706" lon="6.77704">
        <ele>387</ele>
        <time>2016-01-17T10:46:58.000Z</time>
      </trkpt>
      <trkpt lat="47.51705" lon="6.77701">
        <ele>388</ele>
        <time>2016-01-17T10:46:59.000Z</time>
      </trkpt>
      <trkpt lat="47.51705" lon="6.77696">
        <ele>388</ele>
        <time>2016-01-17T10:47:01.000Z</time>
      </trkpt>
      <trkpt lat="47.51705" lon="6.77693">
        <ele>388</ele>
        <time>2016-01-17T10:47:02.000Z</time>
      </trkpt>
      <trkpt lat="47.51704" lon="6.77688">
        <ele>388</ele>
        <time>2016-01-17T10:47:04.000Z</time>
      </trkpt>
      <trkpt lat="47.51704" lon="6.77686">
        <ele>388</ele>
        <time>2016-01-17T10:47:05.000Z</time>
      </trkpt>
      <trkpt lat="47.51705" lon="6.77681">
        <ele>388</ele>
        <time>2016-01-17T10:47:07.000Z</time>
      </trkpt>
      <trkpt lat="47.51705" lon="6.77678">
        <ele>388</ele>
        <time>2016-01-17T10:47:08.000Z</time>
      </trkpt>
      <trkpt lat="47.51705" lon="6.77672">
        <ele>388</ele>
        <time>2016-01-17T10:47:10.000Z</time>
      </trkpt>
      <trkpt lat="47.51705" lon="6.77669">
        <ele>388</ele>
        <time>2016-01-17T10:47:11.000Z</time>
      </trkpt>
      <trkpt lat="47.51705" lon="6.77665">
        <ele>389</ele>
        <time>2016-01-17T10:47:12.000Z</time>
      </trkpt>
      <trkpt lat="47.51706" lon="6.77662">
        <ele>389</ele>
        <time>2016-01-17T10:47:13.000Z</time>
      </trkpt>
      <trkpt lat="47.51706" lon="6.77659">
        <ele>389</ele>
        <time>2016-01-17T10:47:14.000Z</time>
      </trkpt>
      <trkpt lat="47.51706" lon="6.77655">
        <ele>389</ele>
        <time>2016-01-17T10:47:15.000Z</time>
      </trkpt>
      <trkpt lat="47.51706" lon="6.77651">
        <ele>389</ele>
        <time>2016-01-17T10:47:16.000Z</time>
      </trkpt>
      <trkpt lat="47.51707" lon="6.77648">
        <ele>390</ele>
        <time>2016-01-17T10:47:17.000Z</time>
      </trkpt>
      <trkpt lat="47.51707" lon="6.77644">
        <ele>390</ele>
        <time>2016-01-17T10:47:18.000Z</time>
      </trkpt>
      <trkpt lat="47.51708" lon="6.7764">
        <ele>390</ele>
        <time>2016-01-17T10:47:19.000Z</time>
      </trkpt>
      <trkpt lat="47.51708" lon="6.77636">
        <ele>390</ele>
        <time>2016-01-17T10:47:20.000Z</time>
      </trkpt>
      <trkpt lat="47.51708" lon="6.77633">
        <ele>390</ele>
        <time>2016-01-17T10:47:21.000Z</time>
      </trkpt>
      <trkpt lat="47.51709" lon="6.77629">
        <ele>390</ele>
        <time>2016-01-17T10:47:22.000Z</time>
      </trkpt>
      <trkpt lat="47.51709" lon="6.77626">
        <ele>390</ele>
        <time>2016-01-17T10:47:23.000Z</time>
      </trkpt>
      <trkpt lat="47.51709" lon="6.77622">
        <ele>390</ele>
        <time>2016-01-17T10:47:24.000Z</time>
      </trkpt>
      <trkpt lat="47.51709" lon="6.77618">
        <ele>390</ele>
        <time>2016-01-17T10:47:25.000Z</time>
      </trkpt>
      <trkpt lat="47.51709" lon="6.77614">
        <ele>390</ele>
        <time>2016-01-17T10:47:26.000Z</time>
      </trkpt>
      <trkpt lat="47.51709" lon="6.77611">
        <ele>390</ele>
        <time>2016-01-17T10:47:27.000Z</time>
      </trkpt>
      <trkpt lat="47.51709" lon="6.77607">
        <ele>390</ele>
        <time>2016-01-17T10:47:28.000Z</time>
      </trkpt>
      <trkpt lat="47.51709" lon="6.77604">
        <ele>390</ele>
        <time>2016-01-17T10:47:29.000Z</time>
      </trkpt>
      <trkpt lat="47.5171" lon="6.776">
        <ele>390</ele>
        <time>2016-01-17T10:47:30.000Z</time>
      </trkpt>
      <trkpt lat="47.5171" lon="6.77597">
        <ele>390</ele>
        <time>2016-01-17T10:47:31.000Z</time>
      </trkpt>
      <trkpt lat="47.51711" lon="6.7759">
        <ele>390</ele>
        <time>2016-01-17T10:47:33.000Z</time>
      </trkpt>
      <trkpt lat="47.51713" lon="6.77588">
        <ele>390</ele>
        <time>2016-01-17T10:47:34.000Z</time>
      </trkpt>
      <trkpt lat="47.51716" lon="6.77585">
        <ele>390</ele>
        <time>2016-01-17T10:47:36.000Z</time>
      </trkpt>
      <trkpt lat="47.51718" lon="6.77585">
        <ele>390</ele>
        <time>2016-01-17T10:47:37.000Z</time>
      </trkpt>
      <trkpt lat="47.51722" lon="6.77584">
        <ele>390</ele>
        <time>2016-01-17T10:47:39.000Z</time>
      </trkpt>
      <trkpt lat="47.51723" lon="6.77583">
        <ele>390</ele>
        <time>2016-01-17T10:47:40.000Z</time>
      </trkpt>
      <trkpt lat="47.51724" lon="6.77578">
        <ele>391</ele>
        <time>2016-01-17T10:47:42.000Z</time>
      </trkpt>
      <trkpt lat="47.51723" lon="6.77574">
        <ele>391</ele>
        <time>2016-01-17T10:47:43.000Z</time>
      </trkpt>
      <trkpt lat="47.51721" lon="6.77569">
        <ele>390</ele>
        <time>2016-01-17T10:47:44.000Z</time>
      </trkpt>
      <trkpt lat="47.51719" lon="6.77565">
        <ele>390</ele>
        <time>2016-01-17T10:47:45.000Z</time>
      </trkpt>
      <trkpt lat="47.51718" lon="6.7756">
        <ele>390</ele>
        <time>2016-01-17T10:47:46.000Z</time>
      </trkpt>
      <trkpt lat="47.51717" lon="6.77554">
        <ele>390</ele>
        <time>2016-01-17T10:47:47.000Z</time>
      </trkpt>
      <trkpt lat="47.51717" lon="6.77549">
        <ele>390</ele>
        <time>2016-01-17T10:47:48.000Z</time>
      </trkpt>
      <trkpt lat="47.51718" lon="6.77543">
        <ele>390</ele>
        <time>2016-01-17T10:47:49.000Z</time>
      </trkpt>
      <trkpt lat="47.5172" lon="6.77538">
        <ele>390</ele>
        <time>2016-01-17T10:47:50.000Z</time>
      </trkpt>
      <trkpt lat="47.51721" lon="6.77532">
        <ele>390</ele>
        <time>2016-01-17T10:47:51.000Z</time>
      </trkpt>
      <trkpt lat="47.51723" lon="6.77527">
        <ele>390</ele>
        <time>2016-01-17T10:47:52.000Z</time>
      </trkpt>
      <trkpt lat="47.51724" lon="6.77521">
        <ele>390</ele>
        <time>2016-01-17T10:47:53.000Z</time>
      </trkpt>
      <trkpt lat="47.51726" lon="6.77516">
        <ele>390</ele>
        <time>2016-01-17T10:47:54.000Z</time>
      </trkpt>
      <trkpt lat="47.51727" lon="6.7751">
        <ele>390</ele>
        <time>2016-01-17T10:47:55.000Z</time>
      </trkpt>
      <trkpt lat="47.51728" lon="6.77504">
        <ele>390</ele>
        <time>2016-01-17T10:47:56.000Z</time>
      </trkpt>
      <trkpt lat="47.5173" lon="6.77498">
        <ele>389</ele>
        <time>2016-01-17T10:47:57.000Z</time>
      </trkpt>
      <trkpt lat="47.51731" lon="6.77493">
        <ele>389</ele>
        <time>2016-01-17T10:47:58.000Z</time>
      </trkpt>
      <trkpt lat="47.51731" lon="6.77487">
        <ele>389</ele>
        <time>2016-01-17T10:47:59.000Z</time>
      </trkpt>
      <trkpt lat="47.51732" lon="6.77482">
        <ele>389</ele>
        <time>2016-01-17T10:48:00.000Z</time>
      </trkpt>
      <trkpt lat="47.51734" lon="6.77478">
        <ele>389</ele>
        <time>2016-01-17T10:48:01.000Z</time>
      </trkpt>
      <trkpt lat="47.51737" lon="6.77475">
        <ele>389</ele>
        <time>2016-01-17T10:48:02.000Z</time>
      </trkpt>
      <trkpt lat="47.5174" lon="6.77474">
        <ele>389</ele>
        <time>2016-01-17T10:48:03.000Z</time>
      </trkpt>
      <trkpt lat="47.51744" lon="6.77475">
        <ele>389</ele>
        <time>2016-01-17T10:48:04.000Z</time>
      </trkpt>
      <trkpt lat="47.51748" lon="6.77476">
        <ele>389</ele>
        <time>2016-01-17T10:48:05.000Z</time>
      </trkpt>
      <trkpt lat="47.51752" lon="6.77478">
        <ele>389</ele>
        <time>2016-01-17T10:48:06.000Z</time>
      </trkpt>
      <trkpt lat="47.51756" lon="6.77479">
        <ele>389</ele>
        <time>2016-01-17T10:48:07.000Z</time>
      </trkpt>
      <trkpt lat="47.5176" lon="6.7748">
        <ele>389</ele>
        <time>2016-01-17T10:48:08.000Z</time>
      </trkpt>
      <trkpt lat="47.51764" lon="6.77481">
        <ele>389</ele>
        <time>2016-01-17T10:48:09.000Z</time>
      </trkpt>
      <trkpt lat="47.51768" lon="6.77482">
        <ele>389</ele>
        <time>2016-01-17T10:48:10.000Z</time>
      </trkpt>
      <trkpt lat="47.51772" lon="6.77484">
        <ele>388</ele>
        <time>2016-01-17T10:48:11.000Z</time>
      </trkpt>
      <trkpt lat="47.51776" lon="6.77485">
        <ele>388</ele>
        <time>2016-01-17T10:48:12.000Z</time>
      </trkpt>
      <trkpt lat="47.51782" lon="6.77488">
        <ele>388</ele>
        <time>2016-01-17T10:48:13.000Z</time>
      </trkpt>
      <trkpt lat="47.51787" lon="6.7749">
        <ele>388</ele>
        <time>2016-01-17T10:48:14.000Z</time>
      </trkpt>
      <trkpt lat="47.51791" lon="6.77491">
        <ele>388</ele>
        <time>2016-01-17T10:48:15.000Z</time>
      </trkpt>
      <trkpt lat="47.51796" lon="6.77493">
        <ele>388</ele>
        <time>2016-01-17T10:48:16.000Z</time>
      </trkpt>
      <trkpt lat="47.51801" lon="6.77494">
        <ele>388</ele>
        <time>2016-01-17T10:48:17.000Z</time>
      </trkpt>
      <trkpt lat="47.51805" lon="6.77495">
        <ele>388</ele>
        <time>2016-01-17T10:48:18.000Z</time>
      </trkpt>
      <trkpt lat="47.51809" lon="6.77496">
        <ele>388</ele>
        <time>2016-01-17T10:48:19.000Z</time>
      </trkpt>
      <trkpt lat="47.5181" lon="6.77492">
        <ele>388</ele>
        <time>2016-01-17T10:48:20.000Z</time>
      </trkpt>
      <trkpt lat="47.51811" lon="6.77487">
        <ele>388</ele>
        <time>2016-01-17T10:48:26.000Z</time>
      </trkpt>
      <trkpt lat="47.5181" lon="6.77484">
        <ele>388</ele>
        <time>2016-01-17T10:48:27.000Z</time>
      </trkpt>
      <trkpt lat="47.51807" lon="6.77483">
        <ele>388</ele>
        <time>2016-01-17T10:48:40.000Z</time>
      </trkpt>
      <trkpt lat="47.51806" lon="6.77482">
        <ele>388</ele>
        <time>2016-01-17T10:48:41.000Z</time>
      </trkpt>
      <trkpt lat="47.51806" lon="6.77481">
        <ele>388</ele>
        <time>2016-01-17T11:09:06.000Z</time>
      </trkpt>
    </trkseg>
  </trk>
</gpx>